<?xml version='1.0' encoding='UTF-8'?><gpx version="1.1" creator="JPX - https://github.com/jenetics/jpx" xmlns="http://www.topografix.com/GPX/1/1"><trk><trkseg><trkpt lat="31.559264395990997" lon="-8.012000292847173"><ele>524.0</ele><time>2026-04-27T08:42:03Z</time></trkpt><trkpt lat="31.559189573805025" lon="-8.011928793670481"><ele>524.0</ele><time>2026-04-27T08:42:04Z</time></trkpt><trkpt lat="31.55913037459593" lon="-8.011837328640897"><ele>524.0</ele><time>2026-04-27T08:42:05Z</time></trkpt><trkpt lat="31.559069095403185" lon="-8.011741355860508"><ele>524.0</ele><time>2026-04-27T08:42:06Z</time></trkpt><trkpt lat="31.55897743541774" lon="-8.011667985027938"><ele>524.0</ele><time>2026-04-27T08:42:07Z</time></trkpt><trkpt lat="31.558871515490956" lon="-8.0116107649963"><ele>523.75</ele><time>2026-04-27T08:42:08Z</time></trkpt><trkpt lat="31.558774446405742" lon="-8.011541226886514"><ele>523.5</ele><time>2026-04-27T08:42:09Z</time></trkpt><trkpt lat="31.55866848699404" lon="-8.01145971550741"><ele>523.25</ele><time>2026-04-27T08:42:10Z</time></trkpt><trkpt lat="31.55855217574393" lon="-8.011382293291021"><ele>523.0</ele><time>2026-04-27T08:42:11Z</time></trkpt><trkpt lat="31.558422198341116" lon="-8.011293404610148"><ele>523.5</ele><time>2026-04-27T08:42:12Z</time></trkpt><trkpt lat="31.558294060378785" lon="-8.01121391109498"><ele>524.0</ele><time>2026-04-27T08:42:13Z</time></trkpt><trkpt lat="31.558166157932913" lon="-8.011137862342807"><ele>524.5</ele><time>2026-04-27T08:42:14Z</time></trkpt><trkpt lat="31.558045081426375" lon="-8.01106234155001"><ele>525.0</ele><time>2026-04-27T08:42:15Z</time></trkpt><trkpt lat="31.557920875449657" lon="-8.010986939753346"><ele>525.25</ele><time>2026-04-27T08:42:16Z</time></trkpt><trkpt lat="31.55779425158145" lon="-8.010911696012004"><ele>525.5</ele><time>2026-04-27T08:42:17Z</time></trkpt><trkpt lat="31.55766359697407" lon="-8.010823720459058"><ele>525.75</ele><time>2026-04-27T08:42:18Z</time></trkpt><trkpt lat="31.55752519692326" lon="-8.010739471489858"><ele>526.0</ele><time>2026-04-27T08:42:19Z</time></trkpt><trkpt lat="31.557399455210533" lon="-8.010664812687093"><ele>526.0</ele><time>2026-04-27T08:42:20Z</time></trkpt><trkpt lat="31.5572772769122" lon="-8.010593123852528"><ele>526.0</ele><time>2026-04-27T08:42:21Z</time></trkpt><trkpt lat="31.55714408700244" lon="-8.010512485412022"><ele>526.0</ele><time>2026-04-27T08:42:22Z</time></trkpt><trkpt lat="31.55701796555545" lon="-8.010434772853708"><ele>526.0</ele><time>2026-04-27T08:42:23Z</time></trkpt><trkpt lat="31.556896193345352" lon="-8.01036154075469"><ele>526.3333333333334</ele><time>2026-04-27T08:42:24Z</time></trkpt><trkpt lat="31.55676409434121" lon="-8.010277300456352"><ele>526.6666666666666</ele><time>2026-04-27T08:42:25Z</time></trkpt><trkpt lat="31.556622148263234" lon="-8.010187716590316"><ele>527.0</ele><time>2026-04-27T08:42:26Z</time></trkpt><trkpt lat="31.556479021290798" lon="-8.01010499235309"><ele>527.0</ele><time>2026-04-27T08:42:27Z</time></trkpt><trkpt lat="31.556338352068284" lon="-8.010023121170597"><ele>527.0</ele><time>2026-04-27T08:42:28Z</time></trkpt><trkpt lat="31.556183114515722" lon="-8.009934111411301"><ele>527.0</ele><time>2026-04-27T08:42:29Z</time></trkpt><trkpt lat="31.556020741958207" lon="-8.009834828974224"><ele>527.0</ele><time>2026-04-27T08:42:30Z</time></trkpt><trkpt lat="31.55584755602752" lon="-8.0097204202055"><ele>527.0</ele><time>2026-04-27T08:42:31Z</time></trkpt><trkpt lat="31.55567122296585" lon="-8.009606631151273"><ele>527.0</ele><time>2026-04-27T08:42:32Z</time></trkpt><trkpt lat="31.555491887191142" lon="-8.009499313928039"><ele>527.6666666666666</ele><time>2026-04-27T08:42:33Z</time></trkpt><trkpt lat="31.55530672648507" lon="-8.009390959025126"><ele>528.3333333333334</ele><time>2026-04-27T08:42:34Z</time></trkpt><trkpt lat="31.555106859163466" lon="-8.009280186562535"><ele>529.0</ele><time>2026-04-27T08:42:35Z</time></trkpt><trkpt lat="31.55491229763219" lon="-8.009168753595453"><ele>529.0</ele><time>2026-04-27T08:42:36Z</time></trkpt><trkpt lat="31.554753240752405" lon="-8.009065118037526"><ele>529.0</ele><time>2026-04-27T08:42:37Z</time></trkpt><trkpt lat="31.554617776262557" lon="-8.00897519944279"><ele>529.0</ele><time>2026-04-27T08:42:38Z</time></trkpt><trkpt lat="31.554481887682428" lon="-8.00888870085815"><ele>529.6666666666667</ele><time>2026-04-27T08:42:39Z</time></trkpt><trkpt lat="31.554312575076338" lon="-8.008790721098551"><ele>530.3333333333334</ele><time>2026-04-27T08:42:40Z</time></trkpt><trkpt lat="31.554115622150867" lon="-8.008685893678331"><ele>531.0</ele><time>2026-04-27T08:42:41Z</time></trkpt><trkpt lat="31.553917396124284" lon="-8.008564267160127"><ele>531.0</ele><time>2026-04-27T08:42:42Z</time></trkpt><trkpt lat="31.553735333993306" lon="-8.00843846619123"><ele>531.0</ele><time>2026-04-27T08:42:43Z</time></trkpt><trkpt lat="31.553567543406615" lon="-8.008328494548026"><ele>531.0</ele><time>2026-04-27T08:42:44Z</time></trkpt><trkpt lat="31.55340313263692" lon="-8.00823187462041"><ele>530.6666666666666</ele><time>2026-04-27T08:42:45Z</time></trkpt><trkpt lat="31.55324813023909" lon="-8.008141889639868"><ele>530.3333333333333</ele><time>2026-04-27T08:42:46Z</time></trkpt><trkpt lat="31.55309961598957" lon="-8.008052205872074"><ele>530.0</ele><time>2026-04-27T08:42:47Z</time></trkpt><trkpt lat="31.552956890475556" lon="-8.007963586450343"><ele>530.6666666666666</ele><time>2026-04-27T08:42:48Z</time></trkpt><trkpt lat="31.552808978177637" lon="-8.007876768659075"><ele>531.3333333333334</ele><time>2026-04-27T08:42:49Z</time></trkpt><trkpt lat="31.552665861240005" lon="-8.007794261064456"><ele>532.0</ele><time>2026-04-27T08:42:50Z</time></trkpt><trkpt lat="31.552521393539354" lon="-8.007711035378478"><ele>532.0</ele><time>2026-04-27T08:42:51Z</time></trkpt><trkpt lat="31.552381784005664" lon="-8.007625692525156"><ele>532.0</ele><time>2026-04-27T08:42:52Z</time></trkpt><trkpt lat="31.552244826945824" lon="-8.007539636010145"><ele>532.0</ele><time>2026-04-27T08:42:53Z</time></trkpt><trkpt lat="31.55211056479076" lon="-8.007458419710918"><ele>532.3333333333334</ele><time>2026-04-27T08:42:54Z</time></trkpt><trkpt lat="31.55198126088395" lon="-8.007379222928389"><ele>532.6666666666666</ele><time>2026-04-27T08:42:55Z</time></trkpt><trkpt lat="31.55184810624117" lon="-8.007297969512571"><ele>533.0</ele><time>2026-04-27T08:42:56Z</time></trkpt><trkpt lat="31.551709108764854" lon="-8.007208786968107"><ele>533.0</ele><time>2026-04-27T08:42:57Z</time></trkpt><trkpt lat="31.55156033695252" lon="-8.007107084707242"><ele>533.0</ele><time>2026-04-27T08:42:58Z</time></trkpt><trkpt lat="31.55139832516608" lon="-8.006989279224136"><ele>533.0</ele><time>2026-04-27T08:42:59Z</time></trkpt><trkpt lat="31.551234980271676" lon="-8.006877316102932"><ele>533.0</ele><time>2026-04-27T08:43:00Z</time></trkpt><trkpt lat="31.55107776379502" lon="-8.006782252013906"><ele>533.0</ele><time>2026-04-27T08:43:01Z</time></trkpt><trkpt lat="31.55092833440814" lon="-8.006704817727073"><ele>533.0</ele><time>2026-04-27T08:43:02Z</time></trkpt><trkpt lat="31.550782087919643" lon="-8.006636698098749"><ele>533.0</ele><time>2026-04-27T08:43:03Z</time></trkpt><trkpt lat="31.550657922712542" lon="-8.00656922409853"><ele>533.0</ele><time>2026-04-27T08:43:04Z</time></trkpt><trkpt lat="31.550527718368375" lon="-8.006500027351608"><ele>533.0</ele><time>2026-04-27T08:43:05Z</time></trkpt><trkpt lat="31.550402933865275" lon="-8.006426031472351"><ele>533.0</ele><time>2026-04-27T08:43:06Z</time></trkpt><trkpt lat="31.550279635319882" lon="-8.006355089213208"><ele>533.75</ele><time>2026-04-27T08:43:07Z</time></trkpt><trkpt lat="31.550160252865922" lon="-8.00628445963218"><ele>534.5</ele><time>2026-04-27T08:43:08Z</time></trkpt><trkpt lat="31.55003777708989" lon="-8.006208014543958"><ele>535.25</ele><time>2026-04-27T08:43:09Z</time></trkpt><trkpt lat="31.54990861347323" lon="-8.006125706393124"><ele>536.0</ele><time>2026-04-27T08:43:10Z</time></trkpt><trkpt lat="31.54977096730345" lon="-8.006032617259526"><ele>536.0</ele><time>2026-04-27T08:43:11Z</time></trkpt><trkpt lat="31.54962328956188" lon="-8.005930388455873"><ele>536.0</ele><time>2026-04-27T08:43:12Z</time></trkpt><trkpt lat="31.549454634459995" lon="-8.0058234719276"><ele>536.0</ele><time>2026-04-27T08:43:13Z</time></trkpt><trkpt lat="31.54927745379692" lon="-8.005717969615722"><ele>536.0</ele><time>2026-04-27T08:43:14Z</time></trkpt><trkpt lat="31.549092629155382" lon="-8.005605870340641"><ele>536.0</ele><time>2026-04-27T08:43:15Z</time></trkpt><trkpt lat="31.548900622653047" lon="-8.00549002894846"><ele>536.0</ele><time>2026-04-27T08:43:16Z</time></trkpt><trkpt lat="31.548701618434304" lon="-8.005370193140916"><ele>537.5</ele><time>2026-04-27T08:43:17Z</time></trkpt><trkpt lat="31.5484970528787" lon="-8.005247280831346"><ele>539.0</ele><time>2026-04-27T08:43:18Z</time></trkpt><trkpt lat="31.548286574573545" lon="-8.005121895243253"><ele>539.0</ele><time>2026-04-27T08:43:19Z</time></trkpt><trkpt lat="31.548075062786502" lon="-8.004998189075934"><ele>539.0</ele><time>2026-04-27T08:43:20Z</time></trkpt><trkpt lat="31.547872278497675" lon="-8.004881479174596"><ele>539.3333333333333</ele><time>2026-04-27T08:43:21Z</time></trkpt><trkpt lat="31.547690369174372" lon="-8.00476982080716"><ele>539.6666666666666</ele><time>2026-04-27T08:43:22Z</time></trkpt><trkpt lat="31.547515350087252" lon="-8.004660903366055"><ele>540.0</ele><time>2026-04-27T08:43:23Z</time></trkpt><trkpt lat="31.547339836816924" lon="-8.00455142154985"><ele>540.0</ele><time>2026-04-27T08:43:24Z</time></trkpt><trkpt lat="31.547167740014526" lon="-8.004447113162717"><ele>540.0</ele><time>2026-04-27T08:43:25Z</time></trkpt><trkpt lat="31.54699356528737" lon="-8.00434164553843"><ele>540.0</ele><time>2026-04-27T08:43:26Z</time></trkpt><trkpt lat="31.546821862450017" lon="-8.004239193163052"><ele>539.3333333333334</ele><time>2026-04-27T08:43:27Z</time></trkpt><trkpt lat="31.546662095808923" lon="-8.00414188208917"><ele>538.6666666666667</ele><time>2026-04-27T08:43:28Z</time></trkpt><trkpt lat="31.546514242855558" lon="-8.004049891361985"><ele>538.0</ele><time>2026-04-27T08:43:29Z</time></trkpt><trkpt lat="31.546376465091893" lon="-8.003964326046749"><ele>538.0</ele><time>2026-04-27T08:43:30Z</time></trkpt><trkpt lat="31.54623966469934" lon="-8.003877863416376"><ele>538.0</ele><time>2026-04-27T08:43:31Z</time></trkpt><trkpt lat="31.546103662354675" lon="-8.00379528116942"><ele>538.0</ele><time>2026-04-27T08:43:32Z</time></trkpt><trkpt lat="31.545964459185278" lon="-8.003712811163753"><ele>539.0</ele><time>2026-04-27T08:43:33Z</time></trkpt><trkpt lat="31.545830871624336" lon="-8.003632773808294"><ele>540.0</ele><time>2026-04-27T08:43:34Z</time></trkpt><trkpt lat="31.545697243265124" lon="-8.003553568229583"><ele>541.0</ele><time>2026-04-27T08:43:35Z</time></trkpt><trkpt lat="31.54556502101589" lon="-8.003473143263985"><ele>542.0</ele><time>2026-04-27T08:43:36Z</time></trkpt><trkpt lat="31.545434010163376" lon="-8.003392660346961"><ele>542.25</ele><time>2026-04-27T08:43:37Z</time></trkpt><trkpt lat="31.54530783850067" lon="-8.00331661239564"><ele>542.5</ele><time>2026-04-27T08:43:38Z</time></trkpt><trkpt lat="31.54517585989928" lon="-8.003248230064393"><ele>542.75</ele><time>2026-04-27T08:43:39Z</time></trkpt><trkpt lat="31.545046136736886" lon="-8.00316355216013"><ele>543.0</ele><time>2026-04-27T08:43:40Z</time></trkpt><trkpt lat="31.54491864124548" lon="-8.00308712223159"><ele>543.0</ele><time>2026-04-27T08:43:41Z</time></trkpt><trkpt lat="31.54478858622616" lon="-8.003010863585253"><ele>543.0</ele><time>2026-04-27T08:43:42Z</time></trkpt><trkpt lat="31.54466122071822" lon="-8.002935092941422"><ele>543.0</ele><time>2026-04-27T08:43:43Z</time></trkpt><trkpt lat="31.544519871759782" lon="-8.002871122417378"><ele>543.0</ele><time>2026-04-27T08:43:44Z</time></trkpt><trkpt lat="31.544377218339744" lon="-8.002786097876045"><ele>543.3333333333334</ele><time>2026-04-27T08:43:45Z</time></trkpt><trkpt lat="31.544232982992348" lon="-8.002699819283563"><ele>543.6666666666667</ele><time>2026-04-27T08:43:46Z</time></trkpt><trkpt lat="31.5440863435109" lon="-8.002590206225152"><ele>544.0</ele><time>2026-04-27T08:43:47Z</time></trkpt><trkpt lat="31.54392412173472" lon="-8.002491261061541"><ele>544.3333333333334</ele><time>2026-04-27T08:43:48Z</time></trkpt><trkpt lat="31.543754245365253" lon="-8.002384708841666"><ele>544.6666666666666</ele><time>2026-04-27T08:43:49Z</time></trkpt><trkpt lat="31.5435803851758" lon="-8.002275272859759"><ele>545.0</ele><time>2026-04-27T08:43:50Z</time></trkpt><trkpt lat="31.543400730114158" lon="-8.002165204856247"><ele>545.3333333333333</ele><time>2026-04-27T08:43:51Z</time></trkpt><trkpt lat="31.543215389162945" lon="-8.002051378806115"><ele>545.6666666666666</ele><time>2026-04-27T08:43:52Z</time></trkpt><trkpt lat="31.543033597094563" lon="-8.0019396476504"><ele>546.0</ele><time>2026-04-27T08:43:53Z</time></trkpt><trkpt lat="31.542852588707934" lon="-8.001827797832183"><ele>546.0</ele><time>2026-04-27T08:43:54Z</time></trkpt><trkpt lat="31.542668139288246" lon="-8.00171547784862"><ele>546.0</ele><time>2026-04-27T08:43:55Z</time></trkpt><trkpt lat="31.54248792823287" lon="-8.001602562148022"><ele>546.0</ele><time>2026-04-27T08:43:56Z</time></trkpt><trkpt lat="31.542306922349045" lon="-8.001490874880686"><ele>546.0</ele><time>2026-04-27T08:43:57Z</time></trkpt><trkpt lat="31.54212829709429" lon="-8.001382722953377"><ele>546.0</ele><time>2026-04-27T08:43:58Z</time></trkpt><trkpt lat="31.541946013471904" lon="-8.001275556512265"><ele>546.0</ele><time>2026-04-27T08:43:59Z</time></trkpt><trkpt lat="31.541767292067124" lon="-8.00116811409337"><ele>547.0</ele><time>2026-04-27T08:44:00Z</time></trkpt><trkpt lat="31.541588825507926" lon="-8.001058326989162"><ele>548.0</ele><time>2026-04-27T08:44:01Z</time></trkpt><trkpt lat="31.541407565423633" lon="-8.000949907210105"><ele>549.0</ele><time>2026-04-27T08:44:02Z</time></trkpt><trkpt lat="31.54122973623926" lon="-8.00084465578565"><ele>549.0</ele><time>2026-04-27T08:44:03Z</time></trkpt><trkpt lat="31.5410501483971" lon="-8.00073344749514"><ele>549.0</ele><time>2026-04-27T08:44:04Z</time></trkpt><trkpt lat="31.540870637062223" lon="-8.000622389335478"><ele>549.0</ele><time>2026-04-27T08:44:05Z</time></trkpt><trkpt lat="31.54069342017967" lon="-8.000514386231137"><ele>549.0</ele><time>2026-04-27T08:44:06Z</time></trkpt><trkpt lat="31.540518353658346" lon="-8.00040581118227"><ele>549.0</ele><time>2026-04-27T08:44:07Z</time></trkpt><trkpt lat="31.540345091541326" lon="-8.00030248347805"><ele>549.0</ele><time>2026-04-27T08:44:08Z</time></trkpt><trkpt lat="31.540172376904472" lon="-8.000198292768596"><ele>549.3333333333334</ele><time>2026-04-27T08:44:09Z</time></trkpt><trkpt lat="31.540004402786717" lon="-8.000093752234143"><ele>549.6666666666667</ele><time>2026-04-27T08:44:10Z</time></trkpt><trkpt lat="31.539834052552134" lon="-7.999990776308362"><ele>550.0</ele><time>2026-04-27T08:44:11Z</time></trkpt><trkpt lat="31.53966723169809" lon="-7.999890505477465"><ele>550.6666666666667</ele><time>2026-04-27T08:44:12Z</time></trkpt><trkpt lat="31.539501470389613" lon="-7.999788510975272"><ele>551.3333333333334</ele><time>2026-04-27T08:44:13Z</time></trkpt><trkpt lat="31.539333154704252" lon="-7.999687052367136"><ele>552.0</ele><time>2026-04-27T08:44:14Z</time></trkpt><trkpt lat="31.53916110841335" lon="-7.9995856068031985"><ele>552.0</ele><time>2026-04-27T08:44:15Z</time></trkpt><trkpt lat="31.538986028412094" lon="-7.9994806164225505"><ele>552.0</ele><time>2026-04-27T08:44:16Z</time></trkpt><trkpt lat="31.53881648806308" lon="-7.999377664698514"><ele>552.0</ele><time>2026-04-27T08:44:17Z</time></trkpt><trkpt lat="31.538644837772026" lon="-7.999271096444447"><ele>552.3333333333334</ele><time>2026-04-27T08:44:18Z</time></trkpt><trkpt lat="31.538476358577398" lon="-7.99916818497899"><ele>552.6666666666667</ele><time>2026-04-27T08:44:19Z</time></trkpt><trkpt lat="31.538304546391007" lon="-7.999062812718604"><ele>553.0</ele><time>2026-04-27T08:44:20Z</time></trkpt><trkpt lat="31.538132571273373" lon="-7.998956108733996"><ele>553.3333333333334</ele><time>2026-04-27T08:44:21Z</time></trkpt><trkpt lat="31.537958694602864" lon="-7.998850917730309"><ele>553.6666666666666</ele><time>2026-04-27T08:44:22Z</time></trkpt><trkpt lat="31.537783803654563" lon="-7.998745844687782"><ele>554.0</ele><time>2026-04-27T08:44:23Z</time></trkpt><trkpt lat="31.5376116898512" lon="-7.99864183548326"><ele>554.0</ele><time>2026-04-27T08:44:24Z</time></trkpt><trkpt lat="31.537438483194148" lon="-7.998536443026607"><ele>554.0</ele><time>2026-04-27T08:44:25Z</time></trkpt><trkpt lat="31.537265596674153" lon="-7.99843272134092"><ele>554.0</ele><time>2026-04-27T08:44:26Z</time></trkpt><trkpt lat="31.53709017534411" lon="-7.998324703488654"><ele>554.6666666666666</ele><time>2026-04-27T08:44:27Z</time></trkpt><trkpt lat="31.536912667577095" lon="-7.9982166055306845"><ele>555.3333333333334</ele><time>2026-04-27T08:44:28Z</time></trkpt><trkpt lat="31.536733514250756" lon="-7.998107713956113"><ele>556.0</ele><time>2026-04-27T08:44:29Z</time></trkpt><trkpt lat="31.536548859471356" lon="-7.997996722323898"><ele>556.0</ele><time>2026-04-27T08:44:30Z</time></trkpt><trkpt lat="31.53636421699668" lon="-7.997885917340591"><ele>556.0</ele><time>2026-04-27T08:44:31Z</time></trkpt><trkpt lat="31.536175663904825" lon="-7.997771132561996"><ele>556.0</ele><time>2026-04-27T08:44:32Z</time></trkpt><trkpt lat="31.53598703545958" lon="-7.99765458605768"><ele>556.0</ele><time>2026-04-27T08:44:33Z</time></trkpt><trkpt lat="31.535797414800772" lon="-7.997536599512006"><ele>556.0</ele><time>2026-04-27T08:44:34Z</time></trkpt><trkpt lat="31.535606849810492" lon="-7.9974197325590275"><ele>556.0</ele><time>2026-04-27T08:44:35Z</time></trkpt><trkpt lat="31.535422116272663" lon="-7.997308478942866"><ele>556.3333333333334</ele><time>2026-04-27T08:44:36Z</time></trkpt><trkpt lat="31.53523774277102" lon="-7.997196290293593"><ele>556.6666666666666</ele><time>2026-04-27T08:44:37Z</time></trkpt><trkpt lat="31.53505537496312" lon="-7.997082866193187"><ele>557.0</ele><time>2026-04-27T08:44:38Z</time></trkpt><trkpt lat="31.53486901233221" lon="-7.996968559543889"><ele>557.0</ele><time>2026-04-27T08:44:39Z</time></trkpt><trkpt lat="31.53468053379226" lon="-7.996854760520119"><ele>557.0</ele><time>2026-04-27T08:44:40Z</time></trkpt><trkpt lat="31.534492460957033" lon="-7.9967398867742725"><ele>557.0</ele><time>2026-04-27T08:44:41Z</time></trkpt><trkpt lat="31.53430158305716" lon="-7.996622964298065"><ele>557.6666666666666</ele><time>2026-04-27T08:44:42Z</time></trkpt><trkpt lat="31.534103961898467" lon="-7.996504592597037"><ele>558.3333333333334</ele><time>2026-04-27T08:44:43Z</time></trkpt><trkpt lat="31.533906637888133" lon="-7.996385976649767"><ele>559.0</ele><time>2026-04-27T08:44:44Z</time></trkpt><trkpt lat="31.533712165962235" lon="-7.996269497764018"><ele>559.3333333333334</ele><time>2026-04-27T08:44:45Z</time></trkpt><trkpt lat="31.53351998601499" lon="-7.996151354459882"><ele>559.6666666666666</ele><time>2026-04-27T08:44:46Z</time></trkpt><trkpt lat="31.533333973494077" lon="-7.996036047232043"><ele>560.0</ele><time>2026-04-27T08:44:47Z</time></trkpt><trkpt lat="31.533152060794755" lon="-7.995925122973685"><ele>560.0</ele><time>2026-04-27T08:44:48Z</time></trkpt><trkpt lat="31.53296725462831" lon="-7.995813963676617"><ele>560.0</ele><time>2026-04-27T08:44:49Z</time></trkpt><trkpt lat="31.532781714618103" lon="-7.99570261839239"><ele>560.0</ele><time>2026-04-27T08:44:50Z</time></trkpt><trkpt lat="31.532590405366108" lon="-7.995584239403128"><ele>560.6666666666666</ele><time>2026-04-27T08:44:51Z</time></trkpt><trkpt lat="31.532396817850056" lon="-7.9954655102757295"><ele>561.3333333333334</ele><time>2026-04-27T08:44:52Z</time></trkpt><trkpt lat="31.532202530139394" lon="-7.995345922845561"><ele>562.0</ele><time>2026-04-27T08:44:53Z</time></trkpt><trkpt lat="31.53200395838014" lon="-7.995224368409357"><ele>562.0</ele><time>2026-04-27T08:44:54Z</time></trkpt><trkpt lat="31.531811047027876" lon="-7.995108034011849"><ele>562.0</ele><time>2026-04-27T08:44:55Z</time></trkpt><trkpt lat="31.531632602484198" lon="-7.9950010959415145"><ele>562.0</ele><time>2026-04-27T08:44:56Z</time></trkpt><trkpt lat="31.531466387561114" lon="-7.9948988560429175"><ele>562.3333333333334</ele><time>2026-04-27T08:44:57Z</time></trkpt><trkpt lat="31.531312166670435" lon="-7.994803754786788"><ele>562.6666666666666</ele><time>2026-04-27T08:44:58Z</time></trkpt><trkpt lat="31.531160288856633" lon="-7.994710483976875"><ele>563.0</ele><time>2026-04-27T08:44:59Z</time></trkpt><trkpt lat="31.53101878680769" lon="-7.994627584241004"><ele>563.3333333333333</ele><time>2026-04-27T08:45:00Z</time></trkpt><trkpt lat="31.53088009974442" lon="-7.99454401418578"><ele>563.6666666666666</ele><time>2026-04-27T08:45:01Z</time></trkpt><trkpt lat="31.53073635773645" lon="-7.994454105618902"><ele>564.0</ele><time>2026-04-27T08:45:02Z</time></trkpt><trkpt lat="31.530589392697074" lon="-7.994361317961668"><ele>564.0</ele><time>2026-04-27T08:45:03Z</time></trkpt><trkpt lat="31.530438786189645" lon="-7.994269221991249"><ele>564.0</ele><time>2026-04-27T08:45:04Z</time></trkpt><trkpt lat="31.530285384020452" lon="-7.994176031141233"><ele>564.0</ele><time>2026-04-27T08:45:05Z</time></trkpt><trkpt lat="31.530127612548526" lon="-7.994080112532404"><ele>565.0</ele><time>2026-04-27T08:45:06Z</time></trkpt><trkpt lat="31.529970176073128" lon="-7.993985044148105"><ele>566.0</ele><time>2026-04-27T08:45:07Z</time></trkpt><trkpt lat="31.529805399453906" lon="-7.9938846381423145"><ele>567.0</ele><time>2026-04-27T08:45:08Z</time></trkpt><trkpt lat="31.529630181588896" lon="-7.993779387318383"><ele>567.0</ele><time>2026-04-27T08:45:09Z</time></trkpt><trkpt lat="31.5294532922312" lon="-7.993675284314377"><ele>567.0</ele><time>2026-04-27T08:45:10Z</time></trkpt><trkpt lat="31.52926564508849" lon="-7.993568194320843"><ele>567.0</ele><time>2026-04-27T08:45:11Z</time></trkpt><trkpt lat="31.529079360761294" lon="-7.9934610950255784"><ele>567.0</ele><time>2026-04-27T08:45:12Z</time></trkpt><trkpt lat="31.528895666253987" lon="-7.993351205592054"><ele>567.0</ele><time>2026-04-27T08:45:13Z</time></trkpt><trkpt lat="31.528715657404604" lon="-7.993247115481072"><ele>567.0</ele><time>2026-04-27T08:45:14Z</time></trkpt><trkpt lat="31.52852840652124" lon="-7.993147824624459"><ele>567.3333333333334</ele><time>2026-04-27T08:45:15Z</time></trkpt><trkpt lat="31.528341991470356" lon="-7.993059585707691"><ele>567.6666666666667</ele><time>2026-04-27T08:45:16Z</time></trkpt><trkpt lat="31.528156068748864" lon="-7.992973108731271"><ele>568.0</ele><time>2026-04-27T08:45:17Z</time></trkpt><trkpt lat="31.527977998468625" lon="-7.992892893417223"><ele>568.0</ele><time>2026-04-27T08:45:18Z</time></trkpt><trkpt lat="31.52781768899087" lon="-7.992820833020445"><ele>568.0</ele><time>2026-04-27T08:45:19Z</time></trkpt><trkpt lat="31.527653962559423" lon="-7.992744277199105"><ele>568.0</ele><time>2026-04-27T08:45:20Z</time></trkpt><trkpt lat="31.52748466173798" lon="-7.992664176739865"><ele>568.0</ele><time>2026-04-27T08:45:21Z</time></trkpt><trkpt lat="31.527312958345117" lon="-7.992583677546412"><ele>568.0</ele><time>2026-04-27T08:45:22Z</time></trkpt><trkpt lat="31.527145479078992" lon="-7.992507501828347"><ele>568.0</ele><time>2026-04-27T08:45:23Z</time></trkpt><trkpt lat="31.526988186065633" lon="-7.992433770425105"><ele>568.6666666666667</ele><time>2026-04-27T08:45:24Z</time></trkpt><trkpt lat="31.52684085604038" lon="-7.992364790252236"><ele>569.3333333333334</ele><time>2026-04-27T08:45:25Z</time></trkpt><trkpt lat="31.526700456339977" lon="-7.992300876988569"><ele>570.0</ele><time>2026-04-27T08:45:26Z</time></trkpt><trkpt lat="31.526555317230052" lon="-7.992233161812959"><ele>570.0</ele><time>2026-04-27T08:45:27Z</time></trkpt><trkpt lat="31.526409627769095" lon="-7.99216562970653"><ele>570.0</ele><time>2026-04-27T08:45:28Z</time></trkpt><trkpt lat="31.52626299773731" lon="-7.992097524113796"><ele>570.0</ele><time>2026-04-27T08:45:29Z</time></trkpt><trkpt lat="31.526112980230657" lon="-7.992028319810678"><ele>570.6666666666666</ele><time>2026-04-27T08:45:30Z</time></trkpt><trkpt lat="31.52596230936483" lon="-7.991959574616855"><ele>571.3333333333333</ele><time>2026-04-27T08:45:31Z</time></trkpt><trkpt lat="31.52580649159534" lon="-7.991891610161147"><ele>572.0</ele><time>2026-04-27T08:45:32Z</time></trkpt><trkpt lat="31.525647476736246" lon="-7.991820976777255"><ele>572.0</ele><time>2026-04-27T08:45:33Z</time></trkpt><trkpt lat="31.525491600970877" lon="-7.9917501868863585"><ele>572.0</ele><time>2026-04-27T08:45:34Z</time></trkpt><trkpt lat="31.525337976080337" lon="-7.991680865437434"><ele>572.0</ele><time>2026-04-27T08:45:35Z</time></trkpt><trkpt lat="31.525192760503575" lon="-7.991614042087524"><ele>572.0</ele><time>2026-04-27T08:45:36Z</time></trkpt><trkpt lat="31.52505431189879" lon="-7.991549640734735"><ele>572.0</ele><time>2026-04-27T08:45:37Z</time></trkpt><trkpt lat="31.524917844720292" lon="-7.991488224762801"><ele>572.0</ele><time>2026-04-27T08:45:38Z</time></trkpt><trkpt lat="31.524774712875654" lon="-7.9914284485961415"><ele>572.0</ele><time>2026-04-27T08:45:39Z</time></trkpt><trkpt lat="31.52463014020925" lon="-7.991370398951151"><ele>572.75</ele><time>2026-04-27T08:45:40Z</time></trkpt><trkpt lat="31.524489828974804" lon="-7.991315285608869"><ele>573.5</ele><time>2026-04-27T08:45:41Z</time></trkpt><trkpt lat="31.524351935325736" lon="-7.991263300259703"><ele>574.25</ele><time>2026-04-27T08:45:42Z</time></trkpt><trkpt lat="31.524213234188245" lon="-7.991212461220995"><ele>575.0</ele><time>2026-04-27T08:45:43Z</time></trkpt><trkpt lat="31.524075807594446" lon="-7.9911657887218555"><ele>575.0</ele><time>2026-04-27T08:45:44Z</time></trkpt><trkpt lat="31.523939706095856" lon="-7.991121792037276"><ele>575.0</ele><time>2026-04-27T08:45:45Z</time></trkpt><trkpt lat="31.523801217946172" lon="-7.991077673200584"><ele>575.0</ele><time>2026-04-27T08:45:46Z</time></trkpt><trkpt lat="31.52365982885441" lon="-7.99103096483403"><ele>575.0</ele><time>2026-04-27T08:45:47Z</time></trkpt><trkpt lat="31.52351315643901" lon="-7.990979659732123"><ele>575.3333333333333</ele><time>2026-04-27T08:45:48Z</time></trkpt><trkpt lat="31.523365107629573" lon="-7.990925797121647"><ele>575.6666666666666</ele><time>2026-04-27T08:45:49Z</time></trkpt><trkpt lat="31.52321479195279" lon="-7.990874570985702"><ele>576.0</ele><time>2026-04-27T08:45:50Z</time></trkpt><trkpt lat="31.523046879956368" lon="-7.990825417797372"><ele>576.3333333333334</ele><time>2026-04-27T08:45:51Z</time></trkpt><trkpt lat="31.5228708693712" lon="-7.990776987066686"><ele>576.6666666666667</ele><time>2026-04-27T08:45:52Z</time></trkpt><trkpt lat="31.522677783571392" lon="-7.99071785228618"><ele>577.0</ele><time>2026-04-27T08:45:53Z</time></trkpt><trkpt lat="31.522475249953587" lon="-7.99064882761726"><ele>577.0</ele><time>2026-04-27T08:45:54Z</time></trkpt><trkpt lat="31.52226597330013" lon="-7.990578673564484"><ele>577.0</ele><time>2026-04-27T08:45:55Z</time></trkpt><trkpt lat="31.52205185198231" lon="-7.990507843073787"><ele>577.0</ele><time>2026-04-27T08:45:56Z</time></trkpt><trkpt lat="31.521836370117306" lon="-7.990438817357993"><ele>578.0</ele><time>2026-04-27T08:45:57Z</time></trkpt><trkpt lat="31.521620984831856" lon="-7.990366729939943"><ele>579.0</ele><time>2026-04-27T08:45:58Z</time></trkpt><trkpt lat="31.521402767574795" lon="-7.99029362848492"><ele>578.6666666666666</ele><time>2026-04-27T08:45:59Z</time></trkpt><trkpt lat="31.521188063509896" lon="-7.99022071645816"><ele>578.3333333333333</ele><time>2026-04-27T08:46:00Z</time></trkpt><trkpt lat="31.520975495781254" lon="-7.990147227587297"><ele>578.0</ele><time>2026-04-27T08:46:01Z</time></trkpt><trkpt lat="31.52076649973214" lon="-7.99007209114082"><ele>578.6666666666666</ele><time>2026-04-27T08:46:02Z</time></trkpt><trkpt lat="31.520556738076316" lon="-7.989998002072364"><ele>579.3333333333334</ele><time>2026-04-27T08:46:03Z</time></trkpt><trkpt lat="31.520350631201683" lon="-7.98993277825822"><ele>580.0</ele><time>2026-04-27T08:46:04Z</time></trkpt><trkpt lat="31.52014240273512" lon="-7.989869460714426"><ele>580.6666666666667</ele><time>2026-04-27T08:46:05Z</time></trkpt><trkpt lat="31.519939423900976" lon="-7.98980007323922"><ele>581.3333333333334</ele><time>2026-04-27T08:46:06Z</time></trkpt><trkpt lat="31.519745255789186" lon="-7.989726063439484"><ele>582.0</ele><time>2026-04-27T08:46:07Z</time></trkpt><trkpt lat="31.519555145586914" lon="-7.98965370517804"><ele>582.3333333333334</ele><time>2026-04-27T08:46:08Z</time></trkpt><trkpt lat="31.51936606110509" lon="-7.989585300476287"><ele>582.6666666666667</ele><time>2026-04-27T08:46:09Z</time></trkpt><trkpt lat="31.519176001350182" lon="-7.989521103605662"><ele>583.0</ele><time>2026-04-27T08:46:10Z</time></trkpt><trkpt lat="31.518987578969327" lon="-7.989458246682248"><ele>583.0</ele><time>2026-04-27T08:46:11Z</time></trkpt><trkpt lat="31.518802212400033" lon="-7.989402998366073"><ele>583.0</ele><time>2026-04-27T08:46:12Z</time></trkpt><trkpt lat="31.5186151566288" lon="-7.989352706113761"><ele>583.0</ele><time>2026-04-27T08:46:13Z</time></trkpt><trkpt lat="31.518421463070464" lon="-7.989293811356149"><ele>583.3333333333334</ele><time>2026-04-27T08:46:14Z</time></trkpt><trkpt lat="31.518230238657516" lon="-7.989222843023988"><ele>583.6666666666666</ele><time>2026-04-27T08:46:15Z</time></trkpt><trkpt lat="31.518046662369482" lon="-7.989144973018155"><ele>584.0</ele><time>2026-04-27T08:46:16Z</time></trkpt><trkpt lat="31.51787391331104" lon="-7.9890758927164"><ele>584.3333333333333</ele><time>2026-04-27T08:46:17Z</time></trkpt><trkpt lat="31.517710933957364" lon="-7.9890222528872"><ele>584.6666666666666</ele><time>2026-04-27T08:46:18Z</time></trkpt><trkpt lat="31.517549194285227" lon="-7.988973123872133"><ele>585.0</ele><time>2026-04-27T08:46:19Z</time></trkpt><trkpt lat="31.517384045186272" lon="-7.988925360138278"><ele>585.0</ele><time>2026-04-27T08:46:20Z</time></trkpt><trkpt lat="31.517201132218617" lon="-7.988879120319559"><ele>585.0</ele><time>2026-04-27T08:46:21Z</time></trkpt><trkpt lat="31.517002793557715" lon="-7.988826760237645"><ele>585.0</ele><time>2026-04-27T08:46:22Z</time></trkpt><trkpt lat="31.516789454961017" lon="-7.988757944543988"><ele>586.0</ele><time>2026-04-27T08:46:23Z</time></trkpt><trkpt lat="31.516574606712535" lon="-7.988689228264143"><ele>587.0</ele><time>2026-04-27T08:46:24Z</time></trkpt><trkpt lat="31.516354097836214" lon="-7.988621600736589"><ele>587.0</ele><time>2026-04-27T08:46:25Z</time></trkpt><trkpt lat="31.516128995815563" lon="-7.988546770622983"><ele>587.0</ele><time>2026-04-27T08:46:26Z</time></trkpt><trkpt lat="31.515909234566294" lon="-7.988476398802111"><ele>587.0</ele><time>2026-04-27T08:46:27Z</time></trkpt><trkpt lat="31.515695182932127" lon="-7.9884035436049325"><ele>587.0</ele><time>2026-04-27T08:46:28Z</time></trkpt><trkpt lat="31.515480488470907" lon="-7.988332074658864"><ele>587.0</ele><time>2026-04-27T08:46:29Z</time></trkpt><trkpt lat="31.515271570985895" lon="-7.988266792671592"><ele>587.6666666666666</ele><time>2026-04-27T08:46:30Z</time></trkpt><trkpt lat="31.515066340106337" lon="-7.988203303221966"><ele>588.3333333333334</ele><time>2026-04-27T08:46:31Z</time></trkpt><trkpt lat="31.51485864201779" lon="-7.988140545220579"><ele>589.0</ele><time>2026-04-27T08:46:32Z</time></trkpt><trkpt lat="31.514651375099586" lon="-7.9880792521478075"><ele>589.3333333333334</ele><time>2026-04-27T08:46:33Z</time></trkpt><trkpt lat="31.514448199331905" lon="-7.988018983732668"><ele>589.6666666666666</ele><time>2026-04-27T08:46:34Z</time></trkpt><trkpt lat="31.514247854779672" lon="-7.987956773612053"><ele>590.0</ele><time>2026-04-27T08:46:35Z</time></trkpt><trkpt lat="31.514049070798695" lon="-7.987895919694543"><ele>590.0</ele><time>2026-04-27T08:46:36Z</time></trkpt><trkpt lat="31.51385340359605" lon="-7.987837853772412"><ele>590.0</ele><time>2026-04-27T08:46:37Z</time></trkpt><trkpt lat="31.513657215319373" lon="-7.987777942028003"><ele>590.0</ele><time>2026-04-27T08:46:38Z</time></trkpt><trkpt lat="31.51345362070512" lon="-7.987716399790383"><ele>590.6666666666666</ele><time>2026-04-27T08:46:39Z</time></trkpt><trkpt lat="31.513245568405846" lon="-7.987654625225579"><ele>591.3333333333334</ele><time>2026-04-27T08:46:40Z</time></trkpt><trkpt lat="31.51303306848503" lon="-7.987590442253392"><ele>592.0</ele><time>2026-04-27T08:46:41Z</time></trkpt><trkpt lat="31.51281744765624" lon="-7.987524904350275"><ele>592.5</ele><time>2026-04-27T08:46:42Z</time></trkpt><trkpt lat="31.512602026351576" lon="-7.987460512308084"><ele>593.0</ele><time>2026-04-27T08:46:43Z</time></trkpt><trkpt lat="31.512381003959543" lon="-7.987393697048544"><ele>593.0</ele><time>2026-04-27T08:46:44Z</time></trkpt><trkpt lat="31.512158626395852" lon="-7.98732462855929"><ele>593.0</ele><time>2026-04-27T08:46:45Z</time></trkpt><trkpt lat="31.511936709329927" lon="-7.987254218174428"><ele>593.5</ele><time>2026-04-27T08:46:46Z</time></trkpt><trkpt lat="31.511713364488283" lon="-7.987182497988169"><ele>594.0</ele><time>2026-04-27T08:46:47Z</time></trkpt><trkpt lat="31.51149196534083" lon="-7.9871112619344125"><ele>594.0</ele><time>2026-04-27T08:46:48Z</time></trkpt><trkpt lat="31.511270534725053" lon="-7.98704214571686"><ele>594.0</ele><time>2026-04-27T08:46:49Z</time></trkpt><trkpt lat="31.51104995358872" lon="-7.986974967364967"><ele>595.0</ele><time>2026-04-27T08:46:50Z</time></trkpt><trkpt lat="31.510832884021834" lon="-7.986908398785707"><ele>596.0</ele><time>2026-04-27T08:46:51Z</time></trkpt><trkpt lat="31.510623732379177" lon="-7.986839617866081"><ele>597.0</ele><time>2026-04-27T08:46:52Z</time></trkpt><trkpt lat="31.510415825045737" lon="-7.9867693974015355"><ele>597.6666666666666</ele><time>2026-04-27T08:46:53Z</time></trkpt><trkpt lat="31.51020862065117" lon="-7.986692181392656"><ele>598.3333333333333</ele><time>2026-04-27T08:46:54Z</time></trkpt><trkpt lat="31.510001563004785" lon="-7.986616368650817"><ele>599.0</ele><time>2026-04-27T08:46:55Z</time></trkpt><trkpt lat="31.509795999963178" lon="-7.986555068668309"><ele>599.0</ele><time>2026-04-27T08:46:56Z</time></trkpt><trkpt lat="31.50958409690509" lon="-7.986501902460147"><ele>599.0</ele><time>2026-04-27T08:46:57Z</time></trkpt><trkpt lat="31.50937384483391" lon="-7.986448663608714"><ele>599.0</ele><time>2026-04-27T08:46:58Z</time></trkpt><trkpt lat="31.50916743649943" lon="-7.986386894590593"><ele>599.3333333333333</ele><time>2026-04-27T08:46:59Z</time></trkpt><trkpt lat="31.508960493095028" lon="-7.986324238738722"><ele>599.6666666666666</ele><time>2026-04-27T08:47:00Z</time></trkpt><trkpt lat="31.50875468757233" lon="-7.986262475303457"><ele>600.0</ele><time>2026-04-27T08:47:01Z</time></trkpt><trkpt lat="31.508550646363336" lon="-7.986200536547254"><ele>600.0</ele><time>2026-04-27T08:47:02Z</time></trkpt><trkpt lat="31.508350627559533" lon="-7.986139002614636"><ele>600.0</ele><time>2026-04-27T08:47:03Z</time></trkpt><trkpt lat="31.508156264394756" lon="-7.986076498257556"><ele>600.0</ele><time>2026-04-27T08:47:04Z</time></trkpt><trkpt lat="31.50796717164271" lon="-7.986016760515318"><ele>600.6666666666666</ele><time>2026-04-27T08:47:05Z</time></trkpt><trkpt lat="31.507773998388547" lon="-7.985955811063614"><ele>601.3333333333333</ele><time>2026-04-27T08:47:06Z</time></trkpt><trkpt lat="31.50758523796225" lon="-7.9858983268799895"><ele>602.0</ele><time>2026-04-27T08:47:07Z</time></trkpt><trkpt lat="31.50739671581406" lon="-7.985842058933861"><ele>602.6666666666666</ele><time>2026-04-27T08:47:08Z</time></trkpt><trkpt lat="31.507211676689447" lon="-7.985785379862707"><ele>603.3333333333334</ele><time>2026-04-27T08:47:09Z</time></trkpt><trkpt lat="31.507026845215158" lon="-7.9857269799073105"><ele>604.0</ele><time>2026-04-27T08:47:10Z</time></trkpt><trkpt lat="31.506841292966588" lon="-7.985669251507118"><ele>604.0</ele><time>2026-04-27T08:47:11Z</time></trkpt><trkpt lat="31.506660996587076" lon="-7.985612099863545"><ele>604.0</ele><time>2026-04-27T08:47:12Z</time></trkpt><trkpt lat="31.506482307587603" lon="-7.985555722153677"><ele>604.0</ele><time>2026-04-27T08:47:13Z</time></trkpt><trkpt lat="31.506307424415585" lon="-7.985502575929124"><ele>604.3333333333334</ele><time>2026-04-27T08:47:14Z</time></trkpt><trkpt lat="31.50613420067436" lon="-7.985447601507825"><ele>604.6666666666666</ele><time>2026-04-27T08:47:15Z</time></trkpt><trkpt lat="31.505961057874938" lon="-7.985391984438941"><ele>605.0</ele><time>2026-04-27T08:47:16Z</time></trkpt><trkpt lat="31.505791090362404" lon="-7.985337270517461"><ele>605.0</ele><time>2026-04-27T08:47:17Z</time></trkpt><trkpt lat="31.505622254363097" lon="-7.985286107147206"><ele>605.0</ele><time>2026-04-27T08:47:18Z</time></trkpt><trkpt lat="31.505450514272617" lon="-7.98523185122538"><ele>605.0</ele><time>2026-04-27T08:47:19Z</time></trkpt><trkpt lat="31.505285066510826" lon="-7.9851818482726395"><ele>605.6666666666666</ele><time>2026-04-27T08:47:20Z</time></trkpt><trkpt lat="31.5051142053925" lon="-7.985129048160284"><ele>606.3333333333334</ele><time>2026-04-27T08:47:21Z</time></trkpt><trkpt lat="31.50494024384901" lon="-7.985077977900155"><ele>607.0</ele><time>2026-04-27T08:47:22Z</time></trkpt><trkpt lat="31.504767998864" lon="-7.985027947380584"><ele>607.3333333333334</ele><time>2026-04-27T08:47:23Z</time></trkpt><trkpt lat="31.504594459592777" lon="-7.9849728873601356"><ele>607.6666666666666</ele><time>2026-04-27T08:47:24Z</time></trkpt><trkpt lat="31.504423200017435" lon="-7.984922843342222"><ele>608.0</ele><time>2026-04-27T08:47:25Z</time></trkpt><trkpt lat="31.504247509293876" lon="-7.984867914741157"><ele>608.6666666666666</ele><time>2026-04-27T08:47:26Z</time></trkpt><trkpt lat="31.504073898451583" lon="-7.9848116598151915"><ele>609.3333333333334</ele><time>2026-04-27T08:47:27Z</time></trkpt><trkpt lat="31.503899151407808" lon="-7.984755706533112"><ele>610.0</ele><time>2026-04-27T08:47:28Z</time></trkpt><trkpt lat="31.503724693505387" lon="-7.984702051212504"><ele>610.0</ele><time>2026-04-27T08:47:29Z</time></trkpt><trkpt lat="31.503547521637454" lon="-7.984646148532464"><ele>610.0</ele><time>2026-04-27T08:47:30Z</time></trkpt><trkpt lat="31.50337163602218" lon="-7.984595702874756"><ele>610.0</ele><time>2026-04-27T08:47:31Z</time></trkpt><trkpt lat="31.503195445619628" lon="-7.984551120099006"><ele>610.0</ele><time>2026-04-27T08:47:32Z</time></trkpt><trkpt lat="31.503015508471467" lon="-7.9845101230492554"><ele>610.0</ele><time>2026-04-27T08:47:33Z</time></trkpt><trkpt lat="31.50283362915348" lon="-7.984476145232081"><ele>610.0</ele><time>2026-04-27T08:47:34Z</time></trkpt><trkpt lat="31.50264596092596" lon="-7.98445349870476"><ele>610.3333333333334</ele><time>2026-04-27T08:47:35Z</time></trkpt><trkpt lat="31.502456072077074" lon="-7.984434005596368"><ele>610.6666666666666</ele><time>2026-04-27T08:47:36Z</time></trkpt><trkpt lat="31.502265879931844" lon="-7.984413585945682"><ele>611.0</ele><time>2026-04-27T08:47:37Z</time></trkpt><trkpt lat="31.502075104717957" lon="-7.984392707091712"><ele>611.3333333333333</ele><time>2026-04-27T08:47:38Z</time></trkpt><trkpt lat="31.501875164958047" lon="-7.984370382906642"><ele>611.6666666666666</ele><time>2026-04-27T08:47:39Z</time></trkpt><trkpt lat="31.501675178849204" lon="-7.984348625082369"><ele>612.0</ele><time>2026-04-27T08:47:40Z</time></trkpt><trkpt lat="31.5014776846268" lon="-7.9843258815922535"><ele>612.0</ele><time>2026-04-27T08:47:41Z</time></trkpt><trkpt lat="31.501284111532634" lon="-7.984304087329293"><ele>612.0</ele><time>2026-04-27T08:47:42Z</time></trkpt><trkpt lat="31.501091245542614" lon="-7.98428212796822"><ele>612.0</ele><time>2026-04-27T08:47:43Z</time></trkpt><trkpt lat="31.500896564434644" lon="-7.984259891257793"><ele>612.6666666666666</ele><time>2026-04-27T08:47:44Z</time></trkpt><trkpt lat="31.500698193068327" lon="-7.9842414478173165"><ele>613.3333333333333</ele><time>2026-04-27T08:47:45Z</time></trkpt><trkpt lat="31.500497161997576" lon="-7.984223813293854"><ele>614.0</ele><time>2026-04-27T08:47:46Z</time></trkpt><trkpt lat="31.500289142632457" lon="-7.984202528777786"><ele>614.0</ele><time>2026-04-27T08:47:47Z</time></trkpt><trkpt lat="31.5000813695984" lon="-7.984178903002858"><ele>614.0</ele><time>2026-04-27T08:47:48Z</time></trkpt><trkpt lat="31.499878725168237" lon="-7.984155026054528"><ele>614.0</ele><time>2026-04-27T08:47:49Z</time></trkpt><trkpt lat="31.499678407803334" lon="-7.984132167198796"><ele>614.6666666666666</ele><time>2026-04-27T08:47:50Z</time></trkpt><trkpt lat="31.499479979183498" lon="-7.984105312302749"><ele>615.3333333333334</ele><time>2026-04-27T08:47:51Z</time></trkpt><trkpt lat="31.499284732153765" lon="-7.9840780037010575"><ele>616.0</ele><time>2026-04-27T08:47:52Z</time></trkpt><trkpt lat="31.499099145861713" lon="-7.984055337372657"><ele>616.0</ele><time>2026-04-27T08:47:53Z</time></trkpt><trkpt lat="31.498915790980945" lon="-7.984038402841203"><ele>616.0</ele><time>2026-04-27T08:47:54Z</time></trkpt><trkpt lat="31.498729541878188" lon="-7.984016656293668"><ele>616.0</ele><time>2026-04-27T08:47:55Z</time></trkpt><trkpt lat="31.49853703984399" lon="-7.98399349062515"><ele>616.3333333333334</ele><time>2026-04-27T08:47:56Z</time></trkpt><trkpt lat="31.498338500984065" lon="-7.983971608029498"><ele>616.6666666666666</ele><time>2026-04-27T08:47:57Z</time></trkpt><trkpt lat="31.498135447467916" lon="-7.983948155332595"><ele>617.0</ele><time>2026-04-27T08:47:58Z</time></trkpt><trkpt lat="31.49792884263661" lon="-7.983924566642926"><ele>618.0</ele><time>2026-04-27T08:47:59Z</time></trkpt><trkpt lat="31.497725955452097" lon="-7.983900858777871"><ele>619.0</ele><time>2026-04-27T08:48:00Z</time></trkpt><trkpt lat="31.49752609999136" lon="-7.983876197579598"><ele>620.0</ele><time>2026-04-27T08:48:01Z</time></trkpt><trkpt lat="31.497320554183" lon="-7.983849343264945"><ele>620.0</ele><time>2026-04-27T08:48:02Z</time></trkpt><trkpt lat="31.49711436151448" lon="-7.983820929430209"><ele>620.0</ele><time>2026-04-27T08:48:03Z</time></trkpt><trkpt lat="31.496902200075574" lon="-7.98379380857199"><ele>620.0</ele><time>2026-04-27T08:48:04Z</time></trkpt><trkpt lat="31.496687712939508" lon="-7.983775253738625"><ele>620.0</ele><time>2026-04-27T08:48:05Z</time></trkpt><trkpt lat="31.496471278388338" lon="-7.983767403230687"><ele>620.0</ele><time>2026-04-27T08:48:06Z</time></trkpt><trkpt lat="31.496251541686593" lon="-7.983769780536582"><ele>620.0</ele><time>2026-04-27T08:48:07Z</time></trkpt><trkpt lat="31.496033197968657" lon="-7.983775097109079"><ele>620.3333333333333</ele><time>2026-04-27T08:48:08Z</time></trkpt><trkpt lat="31.495811658638754" lon="-7.983777294317762"><ele>620.6666666666666</ele><time>2026-04-27T08:48:09Z</time></trkpt><trkpt lat="31.495588005767786" lon="-7.983776485130884"><ele>621.0</ele><time>2026-04-27T08:48:10Z</time></trkpt><trkpt lat="31.49536545894032" lon="-7.983776461488266"><ele>621.0</ele><time>2026-04-27T08:48:11Z</time></trkpt><trkpt lat="31.495140393439893" lon="-7.983776881317767"><ele>621.0</ele><time>2026-04-27T08:48:12Z</time></trkpt><trkpt lat="31.494915940443896" lon="-7.98377485795261"><ele>621.0</ele><time>2026-04-27T08:48:13Z</time></trkpt><trkpt lat="31.49468561342979" lon="-7.983771183520118"><ele>621.0</ele><time>2026-04-27T08:48:14Z</time></trkpt><trkpt lat="31.49445277265449" lon="-7.98376642774643"><ele>623.0</ele><time>2026-04-27T08:48:15Z</time></trkpt><trkpt lat="31.494220726606454" lon="-7.9837637877999965"><ele>625.0</ele><time>2026-04-27T08:48:16Z</time></trkpt><trkpt lat="31.493983501911654" lon="-7.983763243154064"><ele>625.5</ele><time>2026-04-27T08:48:17Z</time></trkpt><trkpt lat="31.493745484884574" lon="-7.9837629131851635"><ele>626.0</ele><time>2026-04-27T08:48:18Z</time></trkpt><trkpt lat="31.493506562494506" lon="-7.983761392699712"><ele>626.0</ele><time>2026-04-27T08:48:19Z</time></trkpt><trkpt lat="31.493262662680237" lon="-7.983758345493561"><ele>626.0</ele><time>2026-04-27T08:48:20Z</time></trkpt><trkpt lat="31.493022324516318" lon="-7.98375571853476"><ele>627.0</ele><time>2026-04-27T08:48:21Z</time></trkpt><trkpt lat="31.492783052999936" lon="-7.983753766976458"><ele>628.0</ele><time>2026-04-27T08:48:22Z</time></trkpt><trkpt lat="31.492543446730988" lon="-7.983752913657231"><ele>628.0</ele><time>2026-04-27T08:48:23Z</time></trkpt><trkpt lat="31.492312463554175" lon="-7.983751852115156"><ele>628.0</ele><time>2026-04-27T08:48:24Z</time></trkpt><trkpt lat="31.492088646923104" lon="-7.9837501752664215"><ele>628.0</ele><time>2026-04-27T08:48:25Z</time></trkpt><trkpt lat="31.49186998585376" lon="-7.9837457167818675"><ele>628.0</ele><time>2026-04-27T08:48:26Z</time></trkpt><trkpt lat="31.491651031232763" lon="-7.983741769891913"><ele>628.0</ele><time>2026-04-27T08:48:27Z</time></trkpt><trkpt lat="31.49143337785394" lon="-7.983740180199088"><ele>628.6666666666667</ele><time>2026-04-27T08:48:28Z</time></trkpt><trkpt lat="31.491214860044" lon="-7.983740533768073"><ele>629.3333333333334</ele><time>2026-04-27T08:48:29Z</time></trkpt><trkpt lat="31.490998760982453" lon="-7.983739989466955"><ele>630.0</ele><time>2026-04-27T08:48:30Z</time></trkpt><trkpt lat="31.490781694691027" lon="-7.983737657718727"><ele>630.0</ele><time>2026-04-27T08:48:31Z</time></trkpt><trkpt lat="31.490566427863108" lon="-7.9837356666725245"><ele>630.0</ele><time>2026-04-27T08:48:32Z</time></trkpt><trkpt lat="31.490352534749395" lon="-7.983735032743516"><ele>630.0</ele><time>2026-04-27T08:48:33Z</time></trkpt><trkpt lat="31.4901447250939" lon="-7.983734400032533"><ele>630.3333333333334</ele><time>2026-04-27T08:48:34Z</time></trkpt><trkpt lat="31.48994600425739" lon="-7.983731737860237"><ele>630.6666666666667</ele><time>2026-04-27T08:48:35Z</time></trkpt><trkpt lat="31.489763461472105" lon="-7.983730620785123"><ele>631.0</ele><time>2026-04-27T08:48:36Z</time></trkpt><trkpt lat="31.489590645497792" lon="-7.9837314488532085"><ele>631.6666666666667</ele><time>2026-04-27T08:48:37Z</time></trkpt><trkpt lat="31.48942265155635" lon="-7.983731536948805"><ele>632.3333333333334</ele><time>2026-04-27T08:48:38Z</time></trkpt><trkpt lat="31.489248930569243" lon="-7.983730731328723"><ele>633.0</ele><time>2026-04-27T08:48:39Z</time></trkpt><trkpt lat="31.48907019196606" lon="-7.9837286247286645"><ele>633.0</ele><time>2026-04-27T08:48:40Z</time></trkpt><trkpt lat="31.488893542106442" lon="-7.9837271720225"><ele>633.0</ele><time>2026-04-27T08:48:41Z</time></trkpt><trkpt lat="31.488712009959528" lon="-7.98372532458406"><ele>633.0</ele><time>2026-04-27T08:48:42Z</time></trkpt><trkpt lat="31.48853014452349" lon="-7.983724660334088"><ele>633.3333333333334</ele><time>2026-04-27T08:48:43Z</time></trkpt><trkpt lat="31.488345777565446" lon="-7.983724688297123"><ele>633.6666666666667</ele><time>2026-04-27T08:48:44Z</time></trkpt><trkpt lat="31.488153751700093" lon="-7.9837218202393245"><ele>634.0</ele><time>2026-04-27T08:48:45Z</time></trkpt><trkpt lat="31.487964169666355" lon="-7.983718146088368"><ele>635.3333333333334</ele><time>2026-04-27T08:48:46Z</time></trkpt><trkpt lat="31.487768182305665" lon="-7.98371697405107"><ele>636.6666666666666</ele><time>2026-04-27T08:48:47Z</time></trkpt><trkpt lat="31.487572845490757" lon="-7.983717157997752"><ele>638.0</ele><time>2026-04-27T08:48:48Z</time></trkpt><trkpt lat="31.487376570288365" lon="-7.983714620275194"><ele>638.0</ele><time>2026-04-27T08:48:49Z</time></trkpt><trkpt lat="31.48718476974477" lon="-7.983710440662168"><ele>638.0</ele><time>2026-04-27T08:48:50Z</time></trkpt><trkpt lat="31.48699732782933" lon="-7.9837065576654265"><ele>638.0</ele><time>2026-04-27T08:48:51Z</time></trkpt><trkpt lat="31.486811131811745" lon="-7.983701696639435"><ele>638.0</ele><time>2026-04-27T08:48:52Z</time></trkpt><trkpt lat="31.486626960611325" lon="-7.983696427712242"><ele>638.0</ele><time>2026-04-27T08:48:53Z</time></trkpt><trkpt lat="31.486443961581806" lon="-7.983694364015671"><ele>638.0</ele><time>2026-04-27T08:48:54Z</time></trkpt><trkpt lat="31.48627238441495" lon="-7.9836968007171665"><ele>637.6666666666666</ele><time>2026-04-27T08:48:55Z</time></trkpt><trkpt lat="31.486097894275694" lon="-7.983701637824655"><ele>637.3333333333334</ele><time>2026-04-27T08:48:56Z</time></trkpt><trkpt lat="31.485903600905527" lon="-7.983706531357506"><ele>637.0</ele><time>2026-04-27T08:48:57Z</time></trkpt><trkpt lat="31.48570363898462" lon="-7.983705955541541"><ele>637.0</ele><time>2026-04-27T08:48:58Z</time></trkpt><trkpt lat="31.485505023080098" lon="-7.983703323157154"><ele>637.0</ele><time>2026-04-27T08:48:59Z</time></trkpt><trkpt lat="31.485310866843708" lon="-7.98370107825861"><ele>637.0</ele><time>2026-04-27T08:49:00Z</time></trkpt><trkpt lat="31.485120627087632" lon="-7.9836914769119165"><ele>637.3333333333334</ele><time>2026-04-27T08:49:01Z</time></trkpt><trkpt lat="31.484930829102616" lon="-7.983676462314918"><ele>637.6666666666666</ele><time>2026-04-27T08:49:02Z</time></trkpt><trkpt lat="31.484741966563398" lon="-7.983664805019783"><ele>638.0</ele><time>2026-04-27T08:49:03Z</time></trkpt><trkpt lat="31.48456301494807" lon="-7.98366410850343"><ele>639.0</ele><time>2026-04-27T08:49:04Z</time></trkpt><trkpt lat="31.484387455698506" lon="-7.983669915415113"><ele>640.0</ele><time>2026-04-27T08:49:05Z</time></trkpt><trkpt lat="31.484210482536703" lon="-7.983675009930049"><ele>641.0</ele><time>2026-04-27T08:49:06Z</time></trkpt><trkpt lat="31.484026031023575" lon="-7.983675245060223"><ele>641.0</ele><time>2026-04-27T08:49:07Z</time></trkpt><trkpt lat="31.483840455121346" lon="-7.983673332568667"><ele>641.0</ele><time>2026-04-27T08:49:08Z</time></trkpt><trkpt lat="31.48366047239534" lon="-7.983671483692297"><ele>641.0</ele><time>2026-04-27T08:49:09Z</time></trkpt><trkpt lat="31.483482528699245" lon="-7.983669734213696"><ele>641.3333333333333</ele><time>2026-04-27T08:49:10Z</time></trkpt><trkpt lat="31.483304770439716" lon="-7.983666442202506"><ele>641.6666666666666</ele><time>2026-04-27T08:49:11Z</time></trkpt><trkpt lat="31.483121036110855" lon="-7.9836663977954165"><ele>642.0</ele><time>2026-04-27T08:49:12Z</time></trkpt><trkpt lat="31.482931694296074" lon="-7.983667169692537"><ele>643.3333333333334</ele><time>2026-04-27T08:49:13Z</time></trkpt><trkpt lat="31.48273045160009" lon="-7.983665726636077"><ele>644.6666666666667</ele><time>2026-04-27T08:49:14Z</time></trkpt><trkpt lat="31.482533040822272" lon="-7.983659210105032"><ele>646.0</ele><time>2026-04-27T08:49:15Z</time></trkpt><trkpt lat="31.482333593242842" lon="-7.98365253541612"><ele>646.0</ele><time>2026-04-27T08:49:16Z</time></trkpt><trkpt lat="31.482132145588405" lon="-7.983652575873466"><ele>646.0</ele><time>2026-04-27T08:49:17Z</time></trkpt><trkpt lat="31.48193818593361" lon="-7.983651565019728"><ele>646.0</ele><time>2026-04-27T08:49:18Z</time></trkpt><trkpt lat="31.481744826156504" lon="-7.983650003335427"><ele>646.0</ele><time>2026-04-27T08:49:19Z</time></trkpt><trkpt lat="31.481553739797086" lon="-7.98364948848517"><ele>646.0</ele><time>2026-04-27T08:49:20Z</time></trkpt><trkpt lat="31.481358828211125" lon="-7.983647817097547"><ele>646.0</ele><time>2026-04-27T08:49:21Z</time></trkpt><trkpt lat="31.481163207084872" lon="-7.983646346442295"><ele>646.0</ele><time>2026-04-27T08:49:22Z</time></trkpt><trkpt lat="31.480970244761533" lon="-7.983646157622418"><ele>646.0</ele><time>2026-04-27T08:49:23Z</time></trkpt><trkpt lat="31.480778883386556" lon="-7.983641099475114"><ele>646.0</ele><time>2026-04-27T08:49:24Z</time></trkpt><trkpt lat="31.480575352224367" lon="-7.98363297125993"><ele>647.0</ele><time>2026-04-27T08:49:25Z</time></trkpt><trkpt lat="31.480356020331055" lon="-7.983622520908276"><ele>648.0</ele><time>2026-04-27T08:49:26Z</time></trkpt><trkpt lat="31.480138832102657" lon="-7.983610516707075"><ele>649.0</ele><time>2026-04-27T08:49:27Z</time></trkpt><trkpt lat="31.47992003583233" lon="-7.983606582603945"><ele>649.0</ele><time>2026-04-27T08:49:28Z</time></trkpt><trkpt lat="31.479702377424676" lon="-7.983605616406333"><ele>649.0</ele><time>2026-04-27T08:49:29Z</time></trkpt><trkpt lat="31.479480589853253" lon="-7.983605582566579"><ele>649.0</ele><time>2026-04-27T08:49:30Z</time></trkpt><trkpt lat="31.47926114845723" lon="-7.9836038880011335"><ele>649.3333333333334</ele><time>2026-04-27T08:49:31Z</time></trkpt><trkpt lat="31.47903693348149" lon="-7.983601033531309"><ele>649.6666666666666</ele><time>2026-04-27T08:49:32Z</time></trkpt><trkpt lat="31.478814983193118" lon="-7.983597658929362"><ele>650.0</ele><time>2026-04-27T08:49:33Z</time></trkpt><trkpt lat="31.478590822244144" lon="-7.98359625228803"><ele>650.0</ele><time>2026-04-27T08:49:34Z</time></trkpt><trkpt lat="31.478366940188188" lon="-7.983595596319148"><ele>650.0</ele><time>2026-04-27T08:49:35Z</time></trkpt><trkpt lat="31.47814613700539" lon="-7.98359547072864"><ele>650.0</ele><time>2026-04-27T08:49:36Z</time></trkpt><trkpt lat="31.477928386984267" lon="-7.983593956529905"><ele>650.6666666666666</ele><time>2026-04-27T08:49:37Z</time></trkpt><trkpt lat="31.477712663412856" lon="-7.983591042005166"><ele>651.3333333333334</ele><time>2026-04-27T08:49:38Z</time></trkpt><trkpt lat="31.477501372534768" lon="-7.983586155936093"><ele>652.0</ele><time>2026-04-27T08:49:39Z</time></trkpt><trkpt lat="31.47728828903953" lon="-7.983584502238944"><ele>652.0</ele><time>2026-04-27T08:49:40Z</time></trkpt><trkpt lat="31.477079893638564" lon="-7.983584895387251"><ele>652.0</ele><time>2026-04-27T08:49:41Z</time></trkpt><trkpt lat="31.47687307409589" lon="-7.983585523212556"><ele>652.0</ele><time>2026-04-27T08:49:42Z</time></trkpt><trkpt lat="31.476662616861063" lon="-7.983581884233274"><ele>652.0</ele><time>2026-04-27T08:49:43Z</time></trkpt><trkpt lat="31.47645730723774" lon="-7.98357972935554"><ele>652.0</ele><time>2026-04-27T08:49:44Z</time></trkpt><trkpt lat="31.476254321589526" lon="-7.983578411534426"><ele>652.0</ele><time>2026-04-27T08:49:45Z</time></trkpt><trkpt lat="31.47605205463426" lon="-7.9835762356981865"><ele>652.3333333333334</ele><time>2026-04-27T08:49:46Z</time></trkpt><trkpt lat="31.47584860419913" lon="-7.983573163368448"><ele>652.6666666666666</ele><time>2026-04-27T08:49:47Z</time></trkpt><trkpt lat="31.475642597847237" lon="-7.983571255543003"><ele>653.0</ele><time>2026-04-27T08:49:48Z</time></trkpt><trkpt lat="31.475440954152592" lon="-7.983567523491155"><ele>653.3333333333333</ele><time>2026-04-27T08:49:49Z</time></trkpt><trkpt lat="31.475240837518125" lon="-7.983565052962438"><ele>653.6666666666666</ele><time>2026-04-27T08:49:50Z</time></trkpt><trkpt lat="31.475040269819004" lon="-7.983564792962136"><ele>654.0</ele><time>2026-04-27T08:49:51Z</time></trkpt><trkpt lat="31.47483923085182" lon="-7.98356240707244"><ele>654.0</ele><time>2026-04-27T08:49:52Z</time></trkpt><trkpt lat="31.474640238325925" lon="-7.9835570639697435"><ele>654.0</ele><time>2026-04-27T08:49:53Z</time></trkpt><trkpt lat="31.474456353066717" lon="-7.983555213400048"><ele>654.0</ele><time>2026-04-27T08:49:54Z</time></trkpt><trkpt lat="31.474272458013022" lon="-7.983554778809738"><ele>654.3333333333334</ele><time>2026-04-27T08:49:55Z</time></trkpt><trkpt lat="31.474084452266446" lon="-7.98355147446967"><ele>654.6666666666667</ele><time>2026-04-27T08:49:56Z</time></trkpt><trkpt lat="31.47389450262702" lon="-7.983547700367571"><ele>655.0</ele><time>2026-04-27T08:49:57Z</time></trkpt><trkpt lat="31.473703985748468" lon="-7.983544512886486"><ele>656.0</ele><time>2026-04-27T08:49:58Z</time></trkpt><trkpt lat="31.473514493026716" lon="-7.983545619105379"><ele>657.0</ele><time>2026-04-27T08:49:59Z</time></trkpt><trkpt lat="31.473324969112756" lon="-7.983544994689347"><ele>658.0</ele><time>2026-04-27T08:50:00Z</time></trkpt><trkpt lat="31.473135221516294" lon="-7.98354197903743"><ele>658.0</ele><time>2026-04-27T08:50:01Z</time></trkpt><trkpt lat="31.47294506404526" lon="-7.983537696858335"><ele>658.0</ele><time>2026-04-27T08:50:02Z</time></trkpt><trkpt lat="31.47275700188376" lon="-7.983532866650188"><ele>658.0</ele><time>2026-04-27T08:50:03Z</time></trkpt><trkpt lat="31.47256896722429" lon="-7.98352756279512"><ele>657.6666666666667</ele><time>2026-04-27T08:50:04Z</time></trkpt><trkpt lat="31.472381752828447" lon="-7.983520697775502"><ele>657.3333333333334</ele><time>2026-04-27T08:50:05Z</time></trkpt><trkpt lat="31.472192856897884" lon="-7.983520063015334"><ele>657.0</ele><time>2026-04-27T08:50:06Z</time></trkpt><trkpt lat="31.472001504303375" lon="-7.983521668943348"><ele>658.0</ele><time>2026-04-27T08:50:07Z</time></trkpt><trkpt lat="31.471804195984372" lon="-7.983521447053035"><ele>659.0</ele><time>2026-04-27T08:50:08Z</time></trkpt><trkpt lat="31.471599388494674" lon="-7.983519833761638"><ele>660.0</ele><time>2026-04-27T08:50:09Z</time></trkpt><trkpt lat="31.471388705034816" lon="-7.98351741544552"><ele>660.3333333333334</ele><time>2026-04-27T08:50:10Z</time></trkpt><trkpt lat="31.47117307316106" lon="-7.983515585477326"><ele>660.6666666666667</ele><time>2026-04-27T08:50:11Z</time></trkpt><trkpt lat="31.470954503826935" lon="-7.983511463330826"><ele>661.0</ele><time>2026-04-27T08:50:12Z</time></trkpt><trkpt lat="31.47073090700337" lon="-7.983507769212076"><ele>661.0</ele><time>2026-04-27T08:50:13Z</time></trkpt><trkpt lat="31.47050559462712" lon="-7.983507127863396"><ele>661.0</ele><time>2026-04-27T08:50:14Z</time></trkpt><trkpt lat="31.47027556504535" lon="-7.983506442485274"><ele>662.5</ele><time>2026-04-27T08:50:15Z</time></trkpt><trkpt lat="31.470041995690426" lon="-7.983500379184333"><ele>664.0</ele><time>2026-04-27T08:50:16Z</time></trkpt><trkpt lat="31.46980717994321" lon="-7.983491676289357"><ele>664.0</ele><time>2026-04-27T08:50:17Z</time></trkpt><trkpt lat="31.469566599670905" lon="-7.9834910842043545"><ele>664.0</ele><time>2026-04-27T08:50:18Z</time></trkpt><trkpt lat="31.469324124008605" lon="-7.9834946303674865"><ele>664.0</ele><time>2026-04-27T08:50:19Z</time></trkpt><trkpt lat="31.469084195845014" lon="-7.983495831786391"><ele>664.0</ele><time>2026-04-27T08:50:20Z</time></trkpt><trkpt lat="31.46885029948593" lon="-7.983495232097848"><ele>664.0</ele><time>2026-04-27T08:50:21Z</time></trkpt><trkpt lat="31.468619164613564" lon="-7.983492591222358"><ele>664.0</ele><time>2026-04-27T08:50:22Z</time></trkpt><trkpt lat="31.46839229019672" lon="-7.983489509947468"><ele>664.0</ele><time>2026-04-27T08:50:23Z</time></trkpt><trkpt lat="31.46816531017566" lon="-7.983485354170561"><ele>664.0</ele><time>2026-04-27T08:50:24Z</time></trkpt><trkpt lat="31.46794133416655" lon="-7.983477590217593"><ele>664.3333333333334</ele><time>2026-04-27T08:50:25Z</time></trkpt><trkpt lat="31.46771783671036" lon="-7.983466746046187"><ele>664.6666666666666</ele><time>2026-04-27T08:50:26Z</time></trkpt><trkpt lat="31.46749937869183" lon="-7.98345261330818"><ele>665.0</ele><time>2026-04-27T08:50:27Z</time></trkpt><trkpt lat="31.467278672098292" lon="-7.98343793075672"><ele>665.3333333333333</ele><time>2026-04-27T08:50:28Z</time></trkpt><trkpt lat="31.467060891483683" lon="-7.983417522482885"><ele>665.6666666666666</ele><time>2026-04-27T08:50:29Z</time></trkpt><trkpt lat="31.466846475610865" lon="-7.983392784010647"><ele>666.0</ele><time>2026-04-27T08:50:30Z</time></trkpt><trkpt lat="31.466632086745054" lon="-7.983367627566385"><ele>666.0</ele><time>2026-04-27T08:50:31Z</time></trkpt><trkpt lat="31.466419722029265" lon="-7.9833533439612445"><ele>666.0</ele><time>2026-04-27T08:50:32Z</time></trkpt><trkpt lat="31.466206211973073" lon="-7.983341705934209"><ele>666.0</ele><time>2026-04-27T08:50:33Z</time></trkpt><trkpt lat="31.46599322457959" lon="-7.983329194125828"><ele>667.3333333333334</ele><time>2026-04-27T08:50:34Z</time></trkpt><trkpt lat="31.465781545124184" lon="-7.983317618786156"><ele>668.6666666666667</ele><time>2026-04-27T08:50:35Z</time></trkpt><trkpt lat="31.465570199781368" lon="-7.9833041682713946"><ele>670.0</ele><time>2026-04-27T08:50:36Z</time></trkpt><trkpt lat="31.465359126322443" lon="-7.983286807314672"><ele>670.6666666666667</ele><time>2026-04-27T08:50:37Z</time></trkpt><trkpt lat="31.465148012191896" lon="-7.983268855485511"><ele>671.3333333333334</ele><time>2026-04-27T08:50:38Z</time></trkpt><trkpt lat="31.464936432852465" lon="-7.983251577290286"><ele>672.0</ele><time>2026-04-27T08:50:39Z</time></trkpt><trkpt lat="31.46472560897262" lon="-7.983235481644249"><ele>672.0</ele><time>2026-04-27T08:50:40Z</time></trkpt><trkpt lat="31.46451257135245" lon="-7.983217967628968"><ele>672.0</ele><time>2026-04-27T08:50:41Z</time></trkpt><trkpt lat="31.46429920623926" lon="-7.98319974192998"><ele>672.0</ele><time>2026-04-27T08:50:42Z</time></trkpt><trkpt lat="31.464086981756758" lon="-7.983181622411281"><ele>672.0</ele><time>2026-04-27T08:50:43Z</time></trkpt><trkpt lat="31.46387315181259" lon="-7.98316109441138"><ele>672.0</ele><time>2026-04-27T08:50:44Z</time></trkpt><trkpt lat="31.463660303177498" lon="-7.983138859638882"><ele>672.0</ele><time>2026-04-27T08:50:45Z</time></trkpt><trkpt lat="31.463449363758947" lon="-7.9831203258322905"><ele>672.6666666666666</ele><time>2026-04-27T08:50:46Z</time></trkpt><trkpt lat="31.46323624506554" lon="-7.983103679860686"><ele>673.3333333333333</ele><time>2026-04-27T08:50:47Z</time></trkpt><trkpt lat="31.463024346353304" lon="-7.983088917353387"><ele>674.0</ele><time>2026-04-27T08:50:48Z</time></trkpt><trkpt lat="31.46281345574054" lon="-7.983074559674519"><ele>674.3333333333333</ele><time>2026-04-27T08:50:49Z</time></trkpt><trkpt lat="31.46260503245355" lon="-7.983057193545227"><ele>674.6666666666666</ele><time>2026-04-27T08:50:50Z</time></trkpt><trkpt lat="31.462407998456243" lon="-7.983039059730519"><ele>675.0</ele><time>2026-04-27T08:50:51Z</time></trkpt><trkpt lat="31.462226060020285" lon="-7.983025407730342"><ele>674.6666666666666</ele><time>2026-04-27T08:50:52Z</time></trkpt><trkpt lat="31.462055255133766" lon="-7.983014092602312"><ele>674.3333333333333</ele><time>2026-04-27T08:50:53Z</time></trkpt><trkpt lat="31.461894502319222" lon="-7.983001467166803"><ele>674.0</ele><time>2026-04-27T08:50:54Z</time></trkpt><trkpt lat="31.46172970461147" lon="-7.982986156518227"><ele>674.0</ele><time>2026-04-27T08:50:55Z</time></trkpt><trkpt lat="31.461548997058006" lon="-7.982969462781639"><ele>674.0</ele><time>2026-04-27T08:50:56Z</time></trkpt><trkpt lat="31.46135643732024" lon="-7.982951796115397"><ele>674.0</ele><time>2026-04-27T08:50:57Z</time></trkpt><trkpt lat="31.46115358959937" lon="-7.98293820838334"><ele>675.6666666666666</ele><time>2026-04-27T08:50:58Z</time></trkpt><trkpt lat="31.46097011706331" lon="-7.98292986731111"><ele>677.3333333333334</ele><time>2026-04-27T08:50:59Z</time></trkpt><trkpt lat="31.460804332075245" lon="-7.982918525944518"><ele>679.0</ele><time>2026-04-27T08:51:00Z</time></trkpt><trkpt lat="31.46064586252052" lon="-7.982904727603983"><ele>679.0</ele><time>2026-04-27T08:51:01Z</time></trkpt><trkpt lat="31.460488937147502" lon="-7.98289462242358"><ele>679.0</ele><time>2026-04-27T08:51:02Z</time></trkpt><trkpt lat="31.460320490550956" lon="-7.982888582325806"><ele>679.0</ele><time>2026-04-27T08:51:03Z</time></trkpt><trkpt lat="31.460140887216735" lon="-7.98287647989097"><ele>679.0</ele><time>2026-04-27T08:51:04Z</time></trkpt><trkpt lat="31.459958935793278" lon="-7.9828631376275725"><ele>679.0</ele><time>2026-04-27T08:51:05Z</time></trkpt><trkpt lat="31.45977043060499" lon="-7.982846146299211"><ele>679.0</ele><time>2026-04-27T08:51:06Z</time></trkpt><trkpt lat="31.45957887037768" lon="-7.982831609884275"><ele>680.0</ele><time>2026-04-27T08:51:07Z</time></trkpt><trkpt lat="31.459384387902315" lon="-7.982813586564657"><ele>681.0</ele><time>2026-04-27T08:51:08Z</time></trkpt><trkpt lat="31.459190044740307" lon="-7.982794920370797"><ele>682.0</ele><time>2026-04-27T08:51:09Z</time></trkpt><trkpt lat="31.458995822235504" lon="-7.982770707464111"><ele>682.0</ele><time>2026-04-27T08:51:10Z</time></trkpt><trkpt lat="31.458801886591385" lon="-7.982742891844231"><ele>682.0</ele><time>2026-04-27T08:51:11Z</time></trkpt><trkpt lat="31.45861318840826" lon="-7.982710595305957"><ele>682.0</ele><time>2026-04-27T08:51:12Z</time></trkpt><trkpt lat="31.458437554118266" lon="-7.982670894290044"><ele>682.0</ele><time>2026-04-27T08:51:13Z</time></trkpt><trkpt lat="31.458258118765457" lon="-7.982615405771602"><ele>682.0</ele><time>2026-04-27T08:51:14Z</time></trkpt><trkpt lat="31.458079905080822" lon="-7.982541955455136"><ele>682.0</ele><time>2026-04-27T08:51:15Z</time></trkpt><trkpt lat="31.45790974561943" lon="-7.982454544927747"><ele>683.6666666666667</ele><time>2026-04-27T08:51:16Z</time></trkpt><trkpt lat="31.457749465718262" lon="-7.982353634489072"><ele>685.3333333333334</ele><time>2026-04-27T08:51:17Z</time></trkpt><trkpt lat="31.457594658188725" lon="-7.982243404565647"><ele>687.0</ele><time>2026-04-27T08:51:18Z</time></trkpt><trkpt lat="31.457441616883443" lon="-7.982119278011072"><ele>687.0</ele><time>2026-04-27T08:51:19Z</time></trkpt><trkpt lat="31.457294560050702" lon="-7.9819840000566975"><ele>687.0</ele><time>2026-04-27T08:51:20Z</time></trkpt><trkpt lat="31.457146316551093" lon="-7.98184207119449"><ele>687.0</ele><time>2026-04-27T08:51:21Z</time></trkpt><trkpt lat="31.456996592841538" lon="-7.9816962976241905"><ele>687.0</ele><time>2026-04-27T08:51:22Z</time></trkpt><trkpt lat="31.456847399335622" lon="-7.981547040646654"><ele>687.0</ele><time>2026-04-27T08:51:23Z</time></trkpt><trkpt lat="31.4566954070376" lon="-7.981393091955404"><ele>687.0</ele><time>2026-04-27T08:51:24Z</time></trkpt><trkpt lat="31.4565415971445" lon="-7.981236467211805"><ele>687.0</ele><time>2026-04-27T08:51:25Z</time></trkpt><trkpt lat="31.456392598993364" lon="-7.98108157550307"><ele>687.0</ele><time>2026-04-27T08:51:26Z</time></trkpt><trkpt lat="31.456242796837593" lon="-7.980925920218271"><ele>687.0</ele><time>2026-04-27T08:51:27Z</time></trkpt><trkpt lat="31.456093371021893" lon="-7.980776029568775"><ele>687.6666666666666</ele><time>2026-04-27T08:51:28Z</time></trkpt><trkpt lat="31.45594784011471" lon="-7.98062949800022"><ele>688.3333333333333</ele><time>2026-04-27T08:51:29Z</time></trkpt><trkpt lat="31.455809468381442" lon="-7.980488866488352"><ele>689.0</ele><time>2026-04-27T08:51:30Z</time></trkpt><trkpt lat="31.45567808123949" lon="-7.980353902523346"><ele>689.0</ele><time>2026-04-27T08:51:31Z</time></trkpt><trkpt lat="31.45555027801849" lon="-7.980222087517906"><ele>689.0</ele><time>2026-04-27T08:51:32Z</time></trkpt><trkpt lat="31.455416784070366" lon="-7.980085688868415"><ele>689.0</ele><time>2026-04-27T08:51:33Z</time></trkpt><trkpt lat="31.455281338661212" lon="-7.9799473573034065"><ele>689.3333333333333</ele><time>2026-04-27T08:51:34Z</time></trkpt><trkpt lat="31.45514559336476" lon="-7.979808886620811"><ele>689.6666666666666</ele><time>2026-04-27T08:51:35Z</time></trkpt><trkpt lat="31.455009975128014" lon="-7.979669663119401"><ele>690.0</ele><time>2026-04-27T08:51:36Z</time></trkpt><trkpt lat="31.454872257722585" lon="-7.97952831460206"><ele>690.0</ele><time>2026-04-27T08:51:37Z</time></trkpt><trkpt lat="31.4547360513041" lon="-7.979388397702935"><ele>690.0</ele><time>2026-04-27T08:51:38Z</time></trkpt><trkpt lat="31.454597487919173" lon="-7.979244918964842"><ele>690.0</ele><time>2026-04-27T08:51:39Z</time></trkpt><trkpt lat="31.454459325799434" lon="-7.979104446208002"><ele>690.3333333333334</ele><time>2026-04-27T08:51:40Z</time></trkpt><trkpt lat="31.454317695759993" lon="-7.978968051019149"><ele>690.6666666666667</ele><time>2026-04-27T08:51:41Z</time></trkpt><trkpt lat="31.4541767446425" lon="-7.978831403656207"><ele>691.0</ele><time>2026-04-27T08:51:42Z</time></trkpt><trkpt lat="31.45403365931968" lon="-7.978688599162411"><ele>691.0</ele><time>2026-04-27T08:51:43Z</time></trkpt><trkpt lat="31.45389208305294" lon="-7.978542441038823"><ele>691.0</ele><time>2026-04-27T08:51:44Z</time></trkpt><trkpt lat="31.45375284217483" lon="-7.97839550627233"><ele>691.0</ele><time>2026-04-27T08:51:45Z</time></trkpt><trkpt lat="31.45361088275343" lon="-7.978247581865117"><ele>692.0</ele><time>2026-04-27T08:51:46Z</time></trkpt><trkpt lat="31.45346526195787" lon="-7.9781012978979495"><ele>693.0</ele><time>2026-04-27T08:51:47Z</time></trkpt><trkpt lat="31.453322576331473" lon="-7.977957797407053"><ele>694.0</ele><time>2026-04-27T08:51:48Z</time></trkpt><trkpt lat="31.453179859075718" lon="-7.977815996835475"><ele>694.0</ele><time>2026-04-27T08:51:49Z</time></trkpt><trkpt lat="31.45303825480562" lon="-7.977671640115114"><ele>694.0</ele><time>2026-04-27T08:51:50Z</time></trkpt><trkpt lat="31.452897892804746" lon="-7.977529545088565"><ele>694.0</ele><time>2026-04-27T08:51:51Z</time></trkpt><trkpt lat="31.452755326116716" lon="-7.977389380321645"><ele>694.3333333333334</ele><time>2026-04-27T08:51:52Z</time></trkpt><trkpt lat="31.452612508725537" lon="-7.977247383042947"><ele>694.6666666666666</ele><time>2026-04-27T08:51:53Z</time></trkpt><trkpt lat="31.452468919266238" lon="-7.9771064905013125"><ele>695.0</ele><time>2026-04-27T08:51:54Z</time></trkpt><trkpt lat="31.452328540317755" lon="-7.976966291264152"><ele>695.0</ele><time>2026-04-27T08:51:55Z</time></trkpt><trkpt lat="31.452185052720072" lon="-7.976821243212285"><ele>695.0</ele><time>2026-04-27T08:51:56Z</time></trkpt><trkpt lat="31.45204374168516" lon="-7.976679455607424"><ele>695.0</ele><time>2026-04-27T08:51:57Z</time></trkpt><trkpt lat="31.45189983018143" lon="-7.97654322036012"><ele>695.6666666666666</ele><time>2026-04-27T08:51:58Z</time></trkpt><trkpt lat="31.45175256348125" lon="-7.976406829362711"><ele>696.3333333333334</ele><time>2026-04-27T08:51:59Z</time></trkpt><trkpt lat="31.45160672354691" lon="-7.9762713101346625"><ele>697.0</ele><time>2026-04-27T08:52:00Z</time></trkpt><trkpt lat="31.451455620917834" lon="-7.976136676650549"><ele>697.0</ele><time>2026-04-27T08:52:01Z</time></trkpt><trkpt lat="31.451304809074653" lon="-7.976007747127906"><ele>697.0</ele><time>2026-04-27T08:52:02Z</time></trkpt><trkpt lat="31.45115209867305" lon="-7.97588185268465"><ele>697.0</ele><time>2026-04-27T08:52:03Z</time></trkpt><trkpt lat="31.45099771449824" lon="-7.975759825276939"><ele>697.0</ele><time>2026-04-27T08:52:04Z</time></trkpt><trkpt lat="31.45084027398514" lon="-7.975634208027945"><ele>697.0</ele><time>2026-04-27T08:52:05Z</time></trkpt><trkpt lat="31.45068619693814" lon="-7.9755030114704395"><ele>697.0</ele><time>2026-04-27T08:52:06Z</time></trkpt><trkpt lat="31.450535946059656" lon="-7.975375299312123"><ele>697.0</ele><time>2026-04-27T08:52:07Z</time></trkpt><trkpt lat="31.450382908469404" lon="-7.975252083184026"><ele>697.0</ele><time>2026-04-27T08:52:08Z</time></trkpt><trkpt lat="31.450226985333614" lon="-7.975125669944942"><ele>697.0</ele><time>2026-04-27T08:52:09Z</time></trkpt><trkpt lat="31.450070264205223" lon="-7.974996948057491"><ele>697.3333333333334</ele><time>2026-04-27T08:52:10Z</time></trkpt><trkpt lat="31.44991683867526" lon="-7.974868700425882"><ele>697.6666666666666</ele><time>2026-04-27T08:52:11Z</time></trkpt><trkpt lat="31.44976289387816" lon="-7.974738916872072"><ele>698.0</ele><time>2026-04-27T08:52:12Z</time></trkpt><trkpt lat="31.449608230471345" lon="-7.9746085894871195"><ele>698.3333333333333</ele><time>2026-04-27T08:52:13Z</time></trkpt><trkpt lat="31.44945616546365" lon="-7.974481742767793"><ele>698.6666666666666</ele><time>2026-04-27T08:52:14Z</time></trkpt><trkpt lat="31.44929969680597" lon="-7.974353134194654"><ele>699.0</ele><time>2026-04-27T08:52:15Z</time></trkpt><trkpt lat="31.449146798575818" lon="-7.974227852449854"><ele>699.3333333333334</ele><time>2026-04-27T08:52:16Z</time></trkpt><trkpt lat="31.448994152521212" lon="-7.974099587871516"><ele>699.6666666666667</ele><time>2026-04-27T08:52:17Z</time></trkpt><trkpt lat="31.448842917411678" lon="-7.973972589891771"><ele>700.0</ele><time>2026-04-27T08:52:18Z</time></trkpt><trkpt lat="31.44869027144736" lon="-7.973844660852184"><ele>700.0</ele><time>2026-04-27T08:52:19Z</time></trkpt><trkpt lat="31.44853799223412" lon="-7.973720363415946"><ele>700.0</ele><time>2026-04-27T08:52:20Z</time></trkpt><trkpt lat="31.4483824189357" lon="-7.9735981604212105"><ele>700.0</ele><time>2026-04-27T08:52:21Z</time></trkpt><trkpt lat="31.4482265614566" lon="-7.973475963958392"><ele>700.6666666666667</ele><time>2026-04-27T08:52:22Z</time></trkpt><trkpt lat="31.448073103909604" lon="-7.973350747594368"><ele>701.3333333333334</ele><time>2026-04-27T08:52:23Z</time></trkpt><trkpt lat="31.447920807675683" lon="-7.973226228646447"><ele>702.0</ele><time>2026-04-27T08:52:24Z</time></trkpt><trkpt lat="31.447769514611043" lon="-7.973104687229519"><ele>702.3333333333334</ele><time>2026-04-27T08:52:25Z</time></trkpt><trkpt lat="31.447619508837324" lon="-7.972982448586786"><ele>702.6666666666667</ele><time>2026-04-27T08:52:26Z</time></trkpt><trkpt lat="31.447468260729245" lon="-7.972856243176167"><ele>703.0</ele><time>2026-04-27T08:52:27Z</time></trkpt><trkpt lat="31.44731805487268" lon="-7.972729841664763"><ele>703.0</ele><time>2026-04-27T08:52:28Z</time></trkpt><trkpt lat="31.447168440607847" lon="-7.972606105512593"><ele>703.0</ele><time>2026-04-27T08:52:29Z</time></trkpt><trkpt lat="31.447018547379116" lon="-7.972483809782415"><ele>703.0</ele><time>2026-04-27T08:52:30Z</time></trkpt><trkpt lat="31.446868684414152" lon="-7.972362007066557"><ele>704.0</ele><time>2026-04-27T08:52:31Z</time></trkpt><trkpt lat="31.446716077454212" lon="-7.972239228209051"><ele>705.0</ele><time>2026-04-27T08:52:32Z</time></trkpt><trkpt lat="31.446562629812124" lon="-7.972114472988248"><ele>706.0</ele><time>2026-04-27T08:52:33Z</time></trkpt><trkpt lat="31.446406894107778" lon="-7.971989280686651"><ele>706.6666666666667</ele><time>2026-04-27T08:52:34Z</time></trkpt><trkpt lat="31.446252286544535" lon="-7.971861200461974"><ele>707.3333333333334</ele><time>2026-04-27T08:52:35Z</time></trkpt><trkpt lat="31.446097801491526" lon="-7.971727816899375"><ele>708.0</ele><time>2026-04-27T08:52:36Z</time></trkpt><trkpt lat="31.445938437377034" lon="-7.97159510003871"><ele>708.0</ele><time>2026-04-27T08:52:37Z</time></trkpt><trkpt lat="31.44577670648588" lon="-7.97146655065771"><ele>708.0</ele><time>2026-04-27T08:52:38Z</time></trkpt><trkpt lat="31.445613828762173" lon="-7.971337188055454"><ele>708.0</ele><time>2026-04-27T08:52:39Z</time></trkpt><trkpt lat="31.44544921319649" lon="-7.971205738783062"><ele>708.0</ele><time>2026-04-27T08:52:40Z</time></trkpt><trkpt lat="31.445282840293793" lon="-7.97107535494118"><ele>708.0</ele><time>2026-04-27T08:52:41Z</time></trkpt><trkpt lat="31.445120438710372" lon="-7.970944864081057"><ele>708.0</ele><time>2026-04-27T08:52:42Z</time></trkpt><trkpt lat="31.444956810712288" lon="-7.970813099314071"><ele>708.0</ele><time>2026-04-27T08:52:43Z</time></trkpt><trkpt lat="31.444795649722106" lon="-7.970684380997939"><ele>708.0</ele><time>2026-04-27T08:52:44Z</time></trkpt><trkpt lat="31.444636236550593" lon="-7.9705492249848255"><ele>708.0</ele><time>2026-04-27T08:52:45Z</time></trkpt><trkpt lat="31.444479278600646" lon="-7.970414951864708"><ele>708.6666666666666</ele><time>2026-04-27T08:52:46Z</time></trkpt><trkpt lat="31.44432250697971" lon="-7.97027697081253"><ele>709.3333333333333</ele><time>2026-04-27T08:52:47Z</time></trkpt><trkpt lat="31.444165735161178" lon="-7.970137916038947"><ele>710.0</ele><time>2026-04-27T08:52:48Z</time></trkpt><trkpt lat="31.44400486924175" lon="-7.969995465946194"><ele>710.0</ele><time>2026-04-27T08:52:49Z</time></trkpt><trkpt lat="31.443847355045552" lon="-7.969857261967321"><ele>710.0</ele><time>2026-04-27T08:52:50Z</time></trkpt><trkpt lat="31.44368745357133" lon="-7.969717188289641"><ele>710.0</ele><time>2026-04-27T08:52:51Z</time></trkpt><trkpt lat="31.44352561498266" lon="-7.969574760300169"><ele>710.6666666666666</ele><time>2026-04-27T08:52:52Z</time></trkpt><trkpt lat="31.44336604665093" lon="-7.969436701154065"><ele>711.3333333333334</ele><time>2026-04-27T08:52:53Z</time></trkpt><trkpt lat="31.44319849767824" lon="-7.9692930775851885"><ele>712.0</ele><time>2026-04-27T08:52:54Z</time></trkpt><trkpt lat="31.443021583907292" lon="-7.969142582568154"><ele>713.5</ele><time>2026-04-27T08:52:55Z</time></trkpt><trkpt lat="31.44283239231488" lon="-7.968982996591297"><ele>715.0</ele><time>2026-04-27T08:52:56Z</time></trkpt><trkpt lat="31.44263929320539" lon="-7.96881966863316"><ele>715.0</ele><time>2026-04-27T08:52:57Z</time></trkpt><trkpt lat="31.442439066052447" lon="-7.968653163088516"><ele>715.0</ele><time>2026-04-27T08:52:58Z</time></trkpt><trkpt lat="31.442232936539924" lon="-7.968489582288245"><ele>715.0</ele><time>2026-04-27T08:52:59Z</time></trkpt><trkpt lat="31.442035327475796" lon="-7.968326056268332"><ele>715.0</ele><time>2026-04-27T08:53:00Z</time></trkpt><trkpt lat="31.44183405317889" lon="-7.9681709369549125"><ele>715.0</ele><time>2026-04-27T08:53:01Z</time></trkpt><trkpt lat="31.441609012883994" lon="-7.968055051880126"><ele>715.0</ele><time>2026-04-27T08:53:02Z</time></trkpt><trkpt lat="31.441387248060114" lon="-7.967932205464973"><ele>716.0</ele><time>2026-04-27T08:53:03Z</time></trkpt><trkpt lat="31.441162966696613" lon="-7.967799879090736"><ele>717.0</ele><time>2026-04-27T08:53:04Z</time></trkpt><trkpt lat="31.440933949609473" lon="-7.9676973785335905"><ele>717.0</ele><time>2026-04-27T08:53:05Z</time></trkpt><trkpt lat="31.440713595877142" lon="-7.967596551234988"><ele>717.0</ele><time>2026-04-27T08:53:06Z</time></trkpt><trkpt lat="31.440498120255775" lon="-7.96749854056873"><ele>718.5</ele><time>2026-04-27T08:53:07Z</time></trkpt><trkpt lat="31.440286985446093" lon="-7.967399441132484"><ele>720.0</ele><time>2026-04-27T08:53:08Z</time></trkpt><trkpt lat="31.440078916507726" lon="-7.967300756307493"><ele>720.0</ele><time>2026-04-27T08:53:09Z</time></trkpt><trkpt lat="31.439875457933955" lon="-7.967205750749777"><ele>720.0</ele><time>2026-04-27T08:53:10Z</time></trkpt><trkpt lat="31.43967267816821" lon="-7.9671102315364974"><ele>720.0</ele><time>2026-04-27T08:53:11Z</time></trkpt><trkpt lat="31.439477422605577" lon="-7.967015122126413"><ele>720.3333333333334</ele><time>2026-04-27T08:53:12Z</time></trkpt><trkpt lat="31.439285667971642" lon="-7.9669253012494154"><ele>720.6666666666667</ele><time>2026-04-27T08:53:13Z</time></trkpt><trkpt lat="31.43909613328715" lon="-7.966834344935912"><ele>721.0</ele><time>2026-04-27T08:53:14Z</time></trkpt><trkpt lat="31.438904838372054" lon="-7.966740345808605"><ele>721.6666666666667</ele><time>2026-04-27T08:53:15Z</time></trkpt><trkpt lat="31.43871426319118" lon="-7.966649820681515"><ele>722.3333333333334</ele><time>2026-04-27T08:53:16Z</time></trkpt><trkpt lat="31.438522322711368" lon="-7.966561540853316"><ele>723.0</ele><time>2026-04-27T08:53:17Z</time></trkpt><trkpt lat="31.438329819597808" lon="-7.96649202686746"><ele>723.0</ele><time>2026-04-27T08:53:18Z</time></trkpt><trkpt lat="31.438142967503136" lon="-7.9664078237700195"><ele>723.0</ele><time>2026-04-27T08:53:19Z</time></trkpt><trkpt lat="31.437954832978722" lon="-7.966323043246467"><ele>723.0</ele><time>2026-04-27T08:53:20Z</time></trkpt><trkpt lat="31.437769238932162" lon="-7.966239408267646"><ele>723.6666666666666</ele><time>2026-04-27T08:53:21Z</time></trkpt><trkpt lat="31.437583057139562" lon="-7.966155508430694"><ele>724.3333333333333</ele><time>2026-04-27T08:53:22Z</time></trkpt><trkpt lat="31.437405985506246" lon="-7.966042682342029"><ele>725.0</ele><time>2026-04-27T08:53:23Z</time></trkpt><trkpt lat="31.43721838032332" lon="-7.965950001987267"><ele>726.0</ele><time>2026-04-27T08:53:24Z</time></trkpt><trkpt lat="31.43702637736231" lon="-7.965857293431366"><ele>727.0</ele><time>2026-04-27T08:53:25Z</time></trkpt><trkpt lat="31.436828827224403" lon="-7.965765470333887"><ele>728.0</ele><time>2026-04-27T08:53:26Z</time></trkpt><trkpt lat="31.436635449280242" lon="-7.965674374257966"><ele>728.0</ele><time>2026-04-27T08:53:27Z</time></trkpt><trkpt lat="31.43643944139445" lon="-7.965581885979027"><ele>728.0</ele><time>2026-04-27T08:53:28Z</time></trkpt><trkpt lat="31.43624555181247" lon="-7.965490545723821"><ele>728.0</ele><time>2026-04-27T08:53:29Z</time></trkpt><trkpt lat="31.436052391053614" lon="-7.965398908110238"><ele>728.0</ele><time>2026-04-27T08:53:30Z</time></trkpt><trkpt lat="31.435855057107215" lon="-7.9653060801759334"><ele>728.0</ele><time>2026-04-27T08:53:31Z</time></trkpt><trkpt lat="31.435657454803533" lon="-7.965216965855154"><ele>728.0</ele><time>2026-04-27T08:53:32Z</time></trkpt><trkpt lat="31.43545730948921" lon="-7.96512785579994"><ele>728.6666666666666</ele><time>2026-04-27T08:53:33Z</time></trkpt><trkpt lat="31.43525340981608" lon="-7.965034048966348"><ele>729.3333333333334</ele><time>2026-04-27T08:53:34Z</time></trkpt><trkpt lat="31.435050740347506" lon="-7.964937120226373"><ele>730.0</ele><time>2026-04-27T08:53:35Z</time></trkpt><trkpt lat="31.434851668513726" lon="-7.964840322427296"><ele>730.3333333333334</ele><time>2026-04-27T08:53:36Z</time></trkpt><trkpt lat="31.43465445992597" lon="-7.964747000811124"><ele>730.6666666666666</ele><time>2026-04-27T08:53:37Z</time></trkpt><trkpt lat="31.434452682200508" lon="-7.964653886936704"><ele>731.0</ele><time>2026-04-27T08:53:38Z</time></trkpt><trkpt lat="31.434252351041764" lon="-7.964559070497344"><ele>731.3333333333333</ele><time>2026-04-27T08:53:39Z</time></trkpt><trkpt lat="31.434048311312615" lon="-7.964462252772897"><ele>731.6666666666666</ele><time>2026-04-27T08:53:40Z</time></trkpt><trkpt lat="31.433844255092037" lon="-7.96436861692508"><ele>732.0</ele><time>2026-04-27T08:53:41Z</time></trkpt><trkpt lat="31.43363765507111" lon="-7.964272851418168"><ele>732.6666666666666</ele><time>2026-04-27T08:53:42Z</time></trkpt><trkpt lat="31.433430221177947" lon="-7.964176429695062"><ele>733.3333333333333</ele><time>2026-04-27T08:53:43Z</time></trkpt><trkpt lat="31.43322249118885" lon="-7.96408068404863"><ele>734.0</ele><time>2026-04-27T08:53:44Z</time></trkpt><trkpt lat="31.4330160029189" lon="-7.963985081566225"><ele>735.0</ele><time>2026-04-27T08:53:45Z</time></trkpt><trkpt lat="31.43280591793522" lon="-7.96388835434327"><ele>736.0</ele><time>2026-04-27T08:53:46Z</time></trkpt><trkpt lat="31.432596820514657" lon="-7.963790092305002"><ele>736.0</ele><time>2026-04-27T08:53:47Z</time></trkpt><trkpt lat="31.432389041684228" lon="-7.9636886602425445"><ele>736.0</ele><time>2026-04-27T08:53:48Z</time></trkpt><trkpt lat="31.43218704320848" lon="-7.9635785877458325"><ele>736.0</ele><time>2026-04-27T08:53:49Z</time></trkpt><trkpt lat="31.43198770383502" lon="-7.9634557151881085"><ele>736.3333333333334</ele><time>2026-04-27T08:53:50Z</time></trkpt><trkpt lat="31.4317957494798" lon="-7.963320537145594"><ele>736.6666666666666</ele><time>2026-04-27T08:53:51Z</time></trkpt><trkpt lat="31.431612898615903" lon="-7.9631700308307565"><ele>737.0</ele><time>2026-04-27T08:53:52Z</time></trkpt><trkpt lat="31.431435371629288" lon="-7.963011065210456"><ele>737.6666666666666</ele><time>2026-04-27T08:53:53Z</time></trkpt><trkpt lat="31.431256304234452" lon="-7.962854368046159"><ele>738.3333333333334</ele><time>2026-04-27T08:53:54Z</time></trkpt><trkpt lat="31.43107505420274" lon="-7.962700299280593"><ele>739.0</ele><time>2026-04-27T08:53:55Z</time></trkpt><trkpt lat="31.430890898884158" lon="-7.962547970340345"><ele>739.0</ele><time>2026-04-27T08:53:56Z</time></trkpt><trkpt lat="31.430708985515523" lon="-7.962395649392627"><ele>739.0</ele><time>2026-04-27T08:53:57Z</time></trkpt><trkpt lat="31.43052666891985" lon="-7.962243266284327"><ele>739.0</ele><time>2026-04-27T08:53:58Z</time></trkpt><trkpt lat="31.430343543752645" lon="-7.962092350867371"><ele>739.3333333333334</ele><time>2026-04-27T08:53:59Z</time></trkpt><trkpt lat="31.43015958487226" lon="-7.961941000087306"><ele>739.6666666666666</ele><time>2026-04-27T08:54:00Z</time></trkpt><trkpt lat="31.429980823554633" lon="-7.9617876824500815"><ele>740.0</ele><time>2026-04-27T08:54:01Z</time></trkpt><trkpt lat="31.429800910001674" lon="-7.961640491113286"><ele>741.0</ele><time>2026-04-27T08:54:02Z</time></trkpt><trkpt lat="31.42961375264609" lon="-7.9615066852411775"><ele>742.0</ele><time>2026-04-27T08:54:03Z</time></trkpt><trkpt lat="31.4294210690596" lon="-7.961385060786125"><ele>743.0</ele><time>2026-04-27T08:54:04Z</time></trkpt><trkpt lat="31.429213971276702" lon="-7.961291178773703"><ele>743.0</ele><time>2026-04-27T08:54:05Z</time></trkpt><trkpt lat="31.428995614549052" lon="-7.961219726739985"><ele>743.0</ele><time>2026-04-27T08:54:06Z</time></trkpt><trkpt lat="31.42877043924918" lon="-7.9611529972582495"><ele>743.5</ele><time>2026-04-27T08:54:07Z</time></trkpt><trkpt lat="31.428541465377442" lon="-7.961086905562483"><ele>744.0</ele><time>2026-04-27T08:54:08Z</time></trkpt><trkpt lat="31.42831332822554" lon="-7.961017423861738"><ele>744.0</ele><time>2026-04-27T08:54:09Z</time></trkpt><trkpt lat="31.428097633159744" lon="-7.960944918765595"><ele>744.0</ele><time>2026-04-27T08:54:10Z</time></trkpt><trkpt lat="31.427893731279163" lon="-7.960877024733983"><ele>744.0</ele><time>2026-04-27T08:54:11Z</time></trkpt><trkpt lat="31.42770247006365" lon="-7.960813560021038"><ele>744.6666666666666</ele><time>2026-04-27T08:54:12Z</time></trkpt><trkpt lat="31.427510192900076" lon="-7.9607487705963855"><ele>745.3333333333333</ele><time>2026-04-27T08:54:13Z</time></trkpt><trkpt lat="31.427321093338254" lon="-7.960684196091799"><ele>746.0</ele><time>2026-04-27T08:54:14Z</time></trkpt><trkpt lat="31.42713709675913" lon="-7.960622068843889"><ele>746.3333333333333</ele><time>2026-04-27T08:54:15Z</time></trkpt><trkpt lat="31.426965659887134" lon="-7.960563220165662"><ele>746.6666666666666</ele><time>2026-04-27T08:54:16Z</time></trkpt><trkpt lat="31.42680519495286" lon="-7.960506177555588"><ele>747.0</ele><time>2026-04-27T08:54:17Z</time></trkpt><trkpt lat="31.426644284945326" lon="-7.960448714533168"><ele>747.0</ele><time>2026-04-27T08:54:18Z</time></trkpt><trkpt lat="31.42647950008989" lon="-7.960386718248273"><ele>747.0</ele><time>2026-04-27T08:54:19Z</time></trkpt><trkpt lat="31.426304821059876" lon="-7.960318228466341"><ele>747.0</ele><time>2026-04-27T08:54:20Z</time></trkpt><trkpt lat="31.426118569588265" lon="-7.960250432072152"><ele>747.3333333333334</ele><time>2026-04-27T08:54:21Z</time></trkpt><trkpt lat="31.42592333935008" lon="-7.960182456324755"><ele>747.6666666666667</ele><time>2026-04-27T08:54:22Z</time></trkpt><trkpt lat="31.42571092074054" lon="-7.960106051891897"><ele>748.0</ele><time>2026-04-27T08:54:23Z</time></trkpt><trkpt lat="31.42548667740527" lon="-7.960020575379228"><ele>748.5</ele><time>2026-04-27T08:54:24Z</time></trkpt><trkpt lat="31.42525506446559" lon="-7.959932977096201"><ele>749.0</ele><time>2026-04-27T08:54:25Z</time></trkpt><trkpt lat="31.425016252577095" lon="-7.9598395990902855"><ele>749.0</ele><time>2026-04-27T08:54:26Z</time></trkpt><trkpt lat="31.424773341805235" lon="-7.959743355430414"><ele>749.0</ele><time>2026-04-27T08:54:27Z</time></trkpt><trkpt lat="31.424525934379815" lon="-7.9596430842713515"><ele>750.0</ele><time>2026-04-27T08:54:28Z</time></trkpt><trkpt lat="31.424272983824352" lon="-7.959541296610359"><ele>751.0</ele><time>2026-04-27T08:54:29Z</time></trkpt><trkpt lat="31.42401360414221" lon="-7.959438957689917"><ele>751.0</ele><time>2026-04-27T08:54:30Z</time></trkpt><trkpt lat="31.423742021873792" lon="-7.959357709736375"><ele>751.0</ele><time>2026-04-27T08:54:31Z</time></trkpt><trkpt lat="31.42347650214148" lon="-7.959259134769313"><ele>752.0</ele><time>2026-04-27T08:54:32Z</time></trkpt><trkpt lat="31.42320813764682" lon="-7.959159040513045"><ele>753.0</ele><time>2026-04-27T08:54:33Z</time></trkpt><trkpt lat="31.42293789770059" lon="-7.95905806892381"><ele>754.0</ele><time>2026-04-27T08:54:34Z</time></trkpt><trkpt lat="31.42266511754862" lon="-7.95895614822063"><ele>755.0</ele><time>2026-04-27T08:54:35Z</time></trkpt><trkpt lat="31.422393211950542" lon="-7.95885551076239"><ele>755.5</ele><time>2026-04-27T08:54:36Z</time></trkpt><trkpt lat="31.42212043872764" lon="-7.958753550603729"><ele>756.0</ele><time>2026-04-27T08:54:37Z</time></trkpt><trkpt lat="31.421846797242836" lon="-7.958652021504893"><ele>756.0</ele><time>2026-04-27T08:54:38Z</time></trkpt><trkpt lat="31.42157131341964" lon="-7.958549662946858"><ele>756.0</ele><time>2026-04-27T08:54:39Z</time></trkpt><trkpt lat="31.421296763793773" lon="-7.958447549052226"><ele>756.5</ele><time>2026-04-27T08:54:40Z</time></trkpt><trkpt lat="31.421020932409746" lon="-7.958350867299619"><ele>757.0</ele><time>2026-04-27T08:54:41Z</time></trkpt><trkpt lat="31.42074813032381" lon="-7.958251308429446"><ele>758.0</ele><time>2026-04-27T08:54:42Z</time></trkpt><trkpt lat="31.420477431518265" lon="-7.958149849586231"><ele>759.0</ele><time>2026-04-27T08:54:43Z</time></trkpt><trkpt lat="31.420206333775095" lon="-7.9580575659984545"><ele>759.0</ele><time>2026-04-27T08:54:44Z</time></trkpt><trkpt lat="31.419933281380573" lon="-7.9579685844567685"><ele>759.0</ele><time>2026-04-27T08:54:45Z</time></trkpt><trkpt lat="31.41966803554289" lon="-7.957882526059067"><ele>760.0</ele><time>2026-04-27T08:54:46Z</time></trkpt><trkpt lat="31.419408815911606" lon="-7.957799734481926"><ele>761.0</ele><time>2026-04-27T08:54:47Z</time></trkpt><trkpt lat="31.419156790124095" lon="-7.957719203242091"><ele>761.0</ele><time>2026-04-27T08:54:48Z</time></trkpt><trkpt lat="31.418906885608248" lon="-7.9576387635604835"><ele>761.0</ele><time>2026-04-27T08:54:49Z</time></trkpt><trkpt lat="31.418660701957513" lon="-7.957559617588261"><ele>762.5</ele><time>2026-04-27T08:54:50Z</time></trkpt><trkpt lat="31.418416780436516" lon="-7.9574818654347474"><ele>764.0</ele><time>2026-04-27T08:54:51Z</time></trkpt><trkpt lat="31.418175167030594" lon="-7.9574038589730804"><ele>763.5</ele><time>2026-04-27T08:54:52Z</time></trkpt><trkpt lat="31.417935645803123" lon="-7.957326771212311"><ele>763.0</ele><time>2026-04-27T08:54:53Z</time></trkpt><trkpt lat="31.417706315930342" lon="-7.957253601283949"><ele>763.0</ele><time>2026-04-27T08:54:54Z</time></trkpt><trkpt lat="31.41749070895666" lon="-7.957184809715692"><ele>763.0</ele><time>2026-04-27T08:54:55Z</time></trkpt><trkpt lat="31.417284769486876" lon="-7.957118431861699"><ele>763.0</ele><time>2026-04-27T08:54:56Z</time></trkpt><trkpt lat="31.41708121378146" lon="-7.95705294664077"><ele>763.6666666666667</ele><time>2026-04-27T08:54:57Z</time></trkpt><trkpt lat="31.416879218722485" lon="-7.956981954858964"><ele>764.3333333333334</ele><time>2026-04-27T08:54:58Z</time></trkpt><trkpt lat="31.4166867674459" lon="-7.956922713097458"><ele>765.0</ele><time>2026-04-27T08:54:59Z</time></trkpt><trkpt lat="31.416493345206263" lon="-7.956865046386246"><ele>766.3333333333333</ele><time>2026-04-27T08:55:00Z</time></trkpt><trkpt lat="31.416301146939407" lon="-7.956807744564002"><ele>767.6666666666666</ele><time>2026-04-27T08:55:01Z</time></trkpt><trkpt lat="31.416112352491812" lon="-7.956751457576863"><ele>769.0</ele><time>2026-04-27T08:55:02Z</time></trkpt><trkpt lat="31.415918564130433" lon="-7.956693753587098"><ele>769.0</ele><time>2026-04-27T08:55:03Z</time></trkpt><trkpt lat="31.415723947761467" lon="-7.956635816203866"><ele>769.0</ele><time>2026-04-27T08:55:04Z</time></trkpt><trkpt lat="31.415531808296087" lon="-7.956578616212282"><ele>769.0</ele><time>2026-04-27T08:55:05Z</time></trkpt><trkpt lat="31.415336732212925" lon="-7.956520541960791"><ele>770.0</ele><time>2026-04-27T08:55:06Z</time></trkpt><trkpt lat="31.415139318307066" lon="-7.956461771756282"><ele>771.0</ele><time>2026-04-27T08:55:07Z</time></trkpt><trkpt lat="31.414937559074648" lon="-7.95640156350942"><ele>772.0</ele><time>2026-04-27T08:55:08Z</time></trkpt><trkpt lat="31.414732077328225" lon="-7.956339162445849"><ele>771.6666666666666</ele><time>2026-04-27T08:55:09Z</time></trkpt><trkpt lat="31.414519100979753" lon="-7.9562760112076925"><ele>771.3333333333333</ele><time>2026-04-27T08:55:10Z</time></trkpt><trkpt lat="31.414304514789983" lon="-7.956212170256743"><ele>771.0</ele><time>2026-04-27T08:55:11Z</time></trkpt><trkpt lat="31.414080528624236" lon="-7.956145598666861"><ele>771.0</ele><time>2026-04-27T08:55:12Z</time></trkpt><trkpt lat="31.413852862511092" lon="-7.956073524129092"><ele>771.0</ele><time>2026-04-27T08:55:13Z</time></trkpt><trkpt lat="31.41361629906734" lon="-7.955998797316413"><ele>772.5</ele><time>2026-04-27T08:55:14Z</time></trkpt><trkpt lat="31.413373346000306" lon="-7.955916037450596"><ele>774.0</ele><time>2026-04-27T08:55:15Z</time></trkpt><trkpt lat="31.41313375559282" lon="-7.955815054737598"><ele>775.5</ele><time>2026-04-27T08:55:16Z</time></trkpt><trkpt lat="31.412884519556957" lon="-7.955742033284037"><ele>777.0</ele><time>2026-04-27T08:55:17Z</time></trkpt><trkpt lat="31.412630461758017" lon="-7.955668053350197"><ele>777.0</ele><time>2026-04-27T08:55:18Z</time></trkpt><trkpt lat="31.412373784383878" lon="-7.955591382043609"><ele>777.0</ele><time>2026-04-27T08:55:19Z</time></trkpt><trkpt lat="31.41211634319561" lon="-7.955509956824198"><ele>778.0</ele><time>2026-04-27T08:55:20Z</time></trkpt><trkpt lat="31.411848921114263" lon="-7.955420297608248"><ele>779.0</ele><time>2026-04-27T08:55:21Z</time></trkpt><trkpt lat="31.411586814718145" lon="-7.955327176115622"><ele>779.0</ele><time>2026-04-27T08:55:22Z</time></trkpt><trkpt lat="31.41133593057129" lon="-7.955238605717456"><ele>779.0</ele><time>2026-04-27T08:55:23Z</time></trkpt><trkpt lat="31.41109568685029" lon="-7.9551603673165525"><ele>780.0</ele><time>2026-04-27T08:55:24Z</time></trkpt><trkpt lat="31.410868338836178" lon="-7.955089775524807"><ele>781.0</ele><time>2026-04-27T08:55:25Z</time></trkpt><trkpt lat="31.41064875755156" lon="-7.9550212714540045"><ele>782.0</ele><time>2026-04-27T08:55:26Z</time></trkpt><trkpt lat="31.410441844250244" lon="-7.954959497931139"><ele>783.0</ele><time>2026-04-27T08:55:27Z</time></trkpt><trkpt lat="31.41023753697883" lon="-7.954895360311261"><ele>784.0</ele><time>2026-04-27T08:55:28Z</time></trkpt><trkpt lat="31.410031163419394" lon="-7.954831195647961"><ele>784.0</ele><time>2026-04-27T08:55:29Z</time></trkpt><trkpt lat="31.409822098112034" lon="-7.954770168412872"><ele>784.0</ele><time>2026-04-27T08:55:30Z</time></trkpt><trkpt lat="31.40961811205293" lon="-7.954709522889138"><ele>784.0</ele><time>2026-04-27T08:55:31Z</time></trkpt><trkpt lat="31.409420647229815" lon="-7.954649392274291"><ele>784.6666666666666</ele><time>2026-04-27T08:55:32Z</time></trkpt><trkpt lat="31.409238094902918" lon="-7.954591384441499"><ele>785.3333333333333</ele><time>2026-04-27T08:55:33Z</time></trkpt><trkpt lat="31.409060323188303" lon="-7.9545355747446855"><ele>786.0</ele><time>2026-04-27T08:55:34Z</time></trkpt><trkpt lat="31.408893428467735" lon="-7.954484613634356"><ele>787.0</ele><time>2026-04-27T08:55:35Z</time></trkpt><trkpt lat="31.408727125811673" lon="-7.954436739996461"><ele>788.0</ele><time>2026-04-27T08:55:36Z</time></trkpt><trkpt lat="31.408558747203294" lon="-7.954391962111593"><ele>789.0</ele><time>2026-04-27T08:55:37Z</time></trkpt><trkpt lat="31.408391855572216" lon="-7.954348439554579"><ele>789.0</ele><time>2026-04-27T08:55:38Z</time></trkpt><trkpt lat="31.408236265828823" lon="-7.954306889979201"><ele>789.0</ele><time>2026-04-27T08:55:39Z</time></trkpt><trkpt lat="31.408084701609784" lon="-7.95427051453061"><ele>789.0</ele><time>2026-04-27T08:55:40Z</time></trkpt><trkpt lat="31.40792982185613" lon="-7.954240351013957"><ele>789.0</ele><time>2026-04-27T08:55:41Z</time></trkpt><trkpt lat="31.407764955085394" lon="-7.954209631615609"><ele>789.0</ele><time>2026-04-27T08:55:42Z</time></trkpt><trkpt lat="31.407592503169713" lon="-7.954179460453108"><ele>789.0</ele><time>2026-04-27T08:55:43Z</time></trkpt><trkpt lat="31.407401632670137" lon="-7.95415551164122"><ele>789.0</ele><time>2026-04-27T08:55:44Z</time></trkpt><trkpt lat="31.40720069300284" lon="-7.954139484088944"><ele>789.0</ele><time>2026-04-27T08:55:45Z</time></trkpt><trkpt lat="31.406996446914818" lon="-7.95412916807607"><ele>789.0</ele><time>2026-04-27T08:55:46Z</time></trkpt><trkpt lat="31.406801087634054" lon="-7.954121366107209"><ele>789.6666666666667</ele><time>2026-04-27T08:55:47Z</time></trkpt><trkpt lat="31.406618004991387" lon="-7.954116053993306"><ele>790.3333333333334</ele><time>2026-04-27T08:55:48Z</time></trkpt><trkpt lat="31.40644252899858" lon="-7.954110511744809"><ele>791.0</ele><time>2026-04-27T08:55:49Z</time></trkpt><trkpt lat="31.406266162526688" lon="-7.95410164987435"><ele>791.0</ele><time>2026-04-27T08:55:50Z</time></trkpt><trkpt lat="31.406095790168898" lon="-7.954093367447478"><ele>791.0</ele><time>2026-04-27T08:55:51Z</time></trkpt><trkpt lat="31.405936827691022" lon="-7.954086487370226"><ele>791.0</ele><time>2026-04-27T08:55:52Z</time></trkpt><trkpt lat="31.40577535802009" lon="-7.954079233913825"><ele>791.0</ele><time>2026-04-27T08:55:53Z</time></trkpt><trkpt lat="31.40560079096822" lon="-7.954069987162417"><ele>791.0</ele><time>2026-04-27T08:55:54Z</time></trkpt><trkpt lat="31.40542561257333" lon="-7.954059883974439"><ele>791.0</ele><time>2026-04-27T08:55:55Z</time></trkpt><trkpt lat="31.405253915109682" lon="-7.954052823213662"><ele>792.0</ele><time>2026-04-27T08:55:56Z</time></trkpt><trkpt lat="31.405082258356412" lon="-7.954050092098933"><ele>793.0</ele><time>2026-04-27T08:55:57Z</time></trkpt><trkpt lat="31.404907007509728" lon="-7.954049674614896"><ele>794.0</ele><time>2026-04-27T08:55:58Z</time></trkpt><trkpt lat="31.4047294086935" lon="-7.954047540580005"><ele>794.6666666666667</ele><time>2026-04-27T08:55:59Z</time></trkpt><trkpt lat="31.404548666914824" lon="-7.9540432964966925"><ele>795.3333333333333</ele><time>2026-04-27T08:56:00Z</time></trkpt><trkpt lat="31.404364680499135" lon="-7.954035556477837"><ele>796.0</ele><time>2026-04-27T08:56:01Z</time></trkpt><trkpt lat="31.404176017407067" lon="-7.954024079145392"><ele>796.0</ele><time>2026-04-27T08:56:02Z</time></trkpt><trkpt lat="31.403973610577967" lon="-7.954013102291385"><ele>796.0</ele><time>2026-04-27T08:56:03Z</time></trkpt><trkpt lat="31.403769189587837" lon="-7.954000394154643"><ele>796.0</ele><time>2026-04-27T08:56:04Z</time></trkpt><trkpt lat="31.4035661264608" lon="-7.953993339253595"><ele>796.0</ele><time>2026-04-27T08:56:05Z</time></trkpt><trkpt lat="31.40335905220513" lon="-7.95398229464294"><ele>796.0</ele><time>2026-04-27T08:56:06Z</time></trkpt><trkpt lat="31.403139839356996" lon="-7.953972888369032"><ele>796.0</ele><time>2026-04-27T08:56:07Z</time></trkpt><trkpt lat="31.40291201266221" lon="-7.953961950115315"><ele>797.5</ele><time>2026-04-27T08:56:08Z</time></trkpt><trkpt lat="31.402676392478842" lon="-7.953952010746055"><ele>799.0</ele><time>2026-04-27T08:56:09Z</time></trkpt><trkpt lat="31.402432604248137" lon="-7.953941527014503"><ele>799.0</ele><time>2026-04-27T08:56:10Z</time></trkpt><trkpt lat="31.402180412908077" lon="-7.95393074252914"><ele>799.0</ele><time>2026-04-27T08:56:11Z</time></trkpt><trkpt lat="31.401927177029805" lon="-7.95391429837791"><ele>800.0</ele><time>2026-04-27T08:56:12Z</time></trkpt><trkpt lat="31.401675114750724" lon="-7.9539008987914634"><ele>801.0</ele><time>2026-04-27T08:56:13Z</time></trkpt><trkpt lat="31.40142075900193" lon="-7.953883955434911"><ele>802.0</ele><time>2026-04-27T08:56:14Z</time></trkpt><trkpt lat="31.401169118058682" lon="-7.95385976311578"><ele>803.0</ele><time>2026-04-27T08:56:15Z</time></trkpt><trkpt lat="31.40091796029767" lon="-7.953822809228342"><ele>803.0</ele><time>2026-04-27T08:56:16Z</time></trkpt><trkpt lat="31.400667841196558" lon="-7.953769322017867"><ele>803.0</ele><time>2026-04-27T08:56:17Z</time></trkpt><trkpt lat="31.40041845896785" lon="-7.953718683763724"><ele>804.0</ele><time>2026-04-27T08:56:18Z</time></trkpt><trkpt lat="31.4001693024754" lon="-7.953671457441155"><ele>805.0</ele><time>2026-04-27T08:56:19Z</time></trkpt><trkpt lat="31.399920208222092" lon="-7.953625486503568"><ele>805.0</ele><time>2026-04-27T08:56:20Z</time></trkpt><trkpt lat="31.399672617236305" lon="-7.9535812838492586"><ele>805.0</ele><time>2026-04-27T08:56:21Z</time></trkpt><trkpt lat="31.39942357089247" lon="-7.953535921045646"><ele>805.5</ele><time>2026-04-27T08:56:22Z</time></trkpt><trkpt lat="31.39917973766958" lon="-7.953492566509202"><ele>806.0</ele><time>2026-04-27T08:56:23Z</time></trkpt><trkpt lat="31.398934096237774" lon="-7.953449933126222"><ele>806.0</ele><time>2026-04-27T08:56:24Z</time></trkpt><trkpt lat="31.398699925295443" lon="-7.953408749125"><ele>806.0</ele><time>2026-04-27T08:56:25Z</time></trkpt><trkpt lat="31.398480967161248" lon="-7.953369314221878"><ele>806.3333333333334</ele><time>2026-04-27T08:56:26Z</time></trkpt><trkpt lat="31.398263562316874" lon="-7.953331872828806"><ele>806.6666666666667</ele><time>2026-04-27T08:56:27Z</time></trkpt><trkpt lat="31.39804532425896" lon="-7.953296180278446"><ele>807.0</ele><time>2026-04-27T08:56:28Z</time></trkpt><trkpt lat="31.39782597868324" lon="-7.953264226949366"><ele>807.6666666666667</ele><time>2026-04-27T08:56:29Z</time></trkpt><trkpt lat="31.397609745851764" lon="-7.953234544421568"><ele>808.3333333333334</ele><time>2026-04-27T08:56:30Z</time></trkpt><trkpt lat="31.397397068504745" lon="-7.953201261280123"><ele>809.0</ele><time>2026-04-27T08:56:31Z</time></trkpt><trkpt lat="31.397198201540135" lon="-7.953165694135221"><ele>809.3333333333334</ele><time>2026-04-27T08:56:32Z</time></trkpt><trkpt lat="31.397006028559968" lon="-7.953132656106281"><ele>809.6666666666667</ele><time>2026-04-27T08:56:33Z</time></trkpt><trkpt lat="31.39681062686216" lon="-7.953102633681914"><ele>810.0</ele><time>2026-04-27T08:56:34Z</time></trkpt><trkpt lat="31.39661647339671" lon="-7.953070717649206"><ele>810.0</ele><time>2026-04-27T08:56:35Z</time></trkpt><trkpt lat="31.39642345547579" lon="-7.95303685542283"><ele>810.0</ele><time>2026-04-27T08:56:36Z</time></trkpt><trkpt lat="31.396225737113383" lon="-7.953000385373861"><ele>810.0</ele><time>2026-04-27T08:56:37Z</time></trkpt><trkpt lat="31.39603599129786" lon="-7.952966738061392"><ele>811.0</ele><time>2026-04-27T08:56:38Z</time></trkpt><trkpt lat="31.395848028611056" lon="-7.9529327492629776"><ele>812.0</ele><time>2026-04-27T08:56:39Z</time></trkpt><trkpt lat="31.395658398232978" lon="-7.952897970187431"><ele>813.0</ele><time>2026-04-27T08:56:40Z</time></trkpt><trkpt lat="31.395487577125074" lon="-7.95286792760488"><ele>813.3333333333333</ele><time>2026-04-27T08:56:41Z</time></trkpt><trkpt lat="31.395324336254113" lon="-7.952838392334897"><ele>813.6666666666666</ele><time>2026-04-27T08:56:42Z</time></trkpt><trkpt lat="31.395164006886016" lon="-7.952809925742268"><ele>814.0</ele><time>2026-04-27T08:56:43Z</time></trkpt><trkpt lat="31.39499508225688" lon="-7.952778763611859"><ele>814.0</ele><time>2026-04-27T08:56:44Z</time></trkpt><trkpt lat="31.394819955828815" lon="-7.952747422369503"><ele>814.0</ele><time>2026-04-27T08:56:45Z</time></trkpt><trkpt lat="31.39464818103689" lon="-7.95271828845182"><ele>814.0</ele><time>2026-04-27T08:56:46Z</time></trkpt><trkpt lat="31.394478536406172" lon="-7.952693642166762"><ele>814.6666666666666</ele><time>2026-04-27T08:56:47Z</time></trkpt><trkpt lat="31.39430733124313" lon="-7.952679643022531"><ele>815.3333333333333</ele><time>2026-04-27T08:56:48Z</time></trkpt><trkpt lat="31.394138664121567" lon="-7.952680661874413"><ele>816.0</ele><time>2026-04-27T08:56:49Z</time></trkpt><trkpt lat="31.393972545898205" lon="-7.9526914975923395"><ele>816.6666666666667</ele><time>2026-04-27T08:56:50Z</time></trkpt><trkpt lat="31.39379813770411" lon="-7.952704728535882"><ele>817.3333333333334</ele><time>2026-04-27T08:56:51Z</time></trkpt><trkpt lat="31.39361808966825" lon="-7.9527194916035215"><ele>818.0</ele><time>2026-04-27T08:56:52Z</time></trkpt><trkpt lat="31.393426023985636" lon="-7.952734219462127"><ele>818.0</ele><time>2026-04-27T08:56:53Z</time></trkpt><trkpt lat="31.393224985674877" lon="-7.952738033279514"><ele>818.0</ele><time>2026-04-27T08:56:54Z</time></trkpt><trkpt lat="31.39302466605246" lon="-7.952720534580609"><ele>818.0</ele><time>2026-04-27T08:56:55Z</time></trkpt><trkpt lat="31.392828361795004" lon="-7.95268858556845"><ele>818.6666666666667</ele><time>2026-04-27T08:56:56Z</time></trkpt><trkpt lat="31.392628993404173" lon="-7.952646677533213"><ele>819.3333333333333</ele><time>2026-04-27T08:56:57Z</time></trkpt><trkpt lat="31.392433863562296" lon="-7.952604798987955"><ele>820.0</ele><time>2026-04-27T08:56:58Z</time></trkpt><trkpt lat="31.392249482893725" lon="-7.952586976164696"><ele>820.6666666666666</ele><time>2026-04-27T08:56:59Z</time></trkpt><trkpt lat="31.392077264188664" lon="-7.952552990201201"><ele>821.3333333333333</ele><time>2026-04-27T08:57:00Z</time></trkpt><trkpt lat="31.391914228639795" lon="-7.9525208164595265"><ele>822.0</ele><time>2026-04-27T08:57:01Z</time></trkpt><trkpt lat="31.39176077647284" lon="-7.952490533919553"><ele>822.0</ele><time>2026-04-27T08:57:02Z</time></trkpt><trkpt lat="31.39161119962327" lon="-7.9524610161414575"><ele>822.0</ele><time>2026-04-27T08:57:03Z</time></trkpt><trkpt lat="31.391462883084547" lon="-7.95243174707532"><ele>822.0</ele><time>2026-04-27T08:57:04Z</time></trkpt><trkpt lat="31.391315216765644" lon="-7.952402471055078"><ele>822.6666666666667</ele><time>2026-04-27T08:57:05Z</time></trkpt><trkpt lat="31.391164508377525" lon="-7.952372352153641"><ele>823.3333333333334</ele><time>2026-04-27T08:57:06Z</time></trkpt><trkpt lat="31.391016891387274" lon="-7.952343308304666"><ele>824.0</ele><time>2026-04-27T08:57:07Z</time></trkpt><trkpt lat="31.390866698145903" lon="-7.9523138116691205"><ele>824.0</ele><time>2026-04-27T08:57:08Z</time></trkpt><trkpt lat="31.390716076666273" lon="-7.952266848814998"><ele>824.0</ele><time>2026-04-27T08:57:09Z</time></trkpt><trkpt lat="31.390555529333824" lon="-7.952242265715586"><ele>824.0</ele><time>2026-04-27T08:57:10Z</time></trkpt><trkpt lat="31.39038660767097" lon="-7.952214549039728"><ele>824.6666666666667</ele><time>2026-04-27T08:57:11Z</time></trkpt><trkpt lat="31.390217688246004" lon="-7.952183339253777"><ele>825.3333333333333</ele><time>2026-04-27T08:57:12Z</time></trkpt><trkpt lat="31.39004993785972" lon="-7.952150587593831"><ele>826.0</ele><time>2026-04-27T08:57:13Z</time></trkpt><trkpt lat="31.389871736996305" lon="-7.95211914831643"><ele>826.0</ele><time>2026-04-27T08:57:14Z</time></trkpt><trkpt lat="31.389692249997942" lon="-7.952090930546302"><ele>826.0</ele><time>2026-04-27T08:57:15Z</time></trkpt><trkpt lat="31.38951060762301" lon="-7.952056255203357"><ele>826.0</ele><time>2026-04-27T08:57:16Z</time></trkpt><trkpt lat="31.38932923974155" lon="-7.952018532980558"><ele>826.0</ele><time>2026-04-27T08:57:17Z</time></trkpt><trkpt lat="31.389151197957183" lon="-7.951982493257822"><ele>826.0</ele><time>2026-04-27T08:57:18Z</time></trkpt><trkpt lat="31.38897415499525" lon="-7.951944256293047"><ele>826.0</ele><time>2026-04-27T08:57:19Z</time></trkpt><trkpt lat="31.388790247737386" lon="-7.951904222575921"><ele>826.6666666666666</ele><time>2026-04-27T08:57:20Z</time></trkpt><trkpt lat="31.388605245228003" lon="-7.951866786977166"><ele>827.3333333333333</ele><time>2026-04-27T08:57:21Z</time></trkpt><trkpt lat="31.388412218072297" lon="-7.951828129504094"><ele>828.0</ele><time>2026-04-27T08:57:22Z</time></trkpt><trkpt lat="31.388214383137612" lon="-7.951789157261969"><ele>828.0</ele><time>2026-04-27T08:57:23Z</time></trkpt><trkpt lat="31.38801199978412" lon="-7.9517480240676885"><ele>828.0</ele><time>2026-04-27T08:57:24Z</time></trkpt><trkpt lat="31.387808888561608" lon="-7.951704647808343"><ele>828.0</ele><time>2026-04-27T08:57:25Z</time></trkpt><trkpt lat="31.387597707382728" lon="-7.951658592248419"><ele>829.0</ele><time>2026-04-27T08:57:26Z</time></trkpt><trkpt lat="31.387381108367066" lon="-7.951607604052489"><ele>830.0</ele><time>2026-04-27T08:57:27Z</time></trkpt><trkpt lat="31.38715869662792" lon="-7.951580206595646"><ele>831.0</ele><time>2026-04-27T08:57:28Z</time></trkpt><trkpt lat="31.386929203979026" lon="-7.951535601577006"><ele>831.5</ele><time>2026-04-27T08:57:29Z</time></trkpt><trkpt lat="31.386684884536674" lon="-7.951488063508274"><ele>832.0</ele><time>2026-04-27T08:57:30Z</time></trkpt><trkpt lat="31.38643199955428" lon="-7.951438858806419"><ele>833.0</ele><time>2026-04-27T08:57:31Z</time></trkpt><trkpt lat="31.38617174989773" lon="-7.9513885307105605"><ele>834.0</ele><time>2026-04-27T08:57:32Z</time></trkpt><trkpt lat="31.385904712348083" lon="-7.951337012207809"><ele>834.0</ele><time>2026-04-27T08:57:33Z</time></trkpt><trkpt lat="31.385636095916077" lon="-7.951285111675551"><ele>834.0</ele><time>2026-04-27T08:57:34Z</time></trkpt><trkpt lat="31.385367397997" lon="-7.951213195111458"><ele>834.5</ele><time>2026-04-27T08:57:35Z</time></trkpt><trkpt lat="31.38509296006276" lon="-7.951161065982647"><ele>835.0</ele><time>2026-04-27T08:57:36Z</time></trkpt><trkpt lat="31.3848318517725" lon="-7.951111189726628"><ele>836.5</ele><time>2026-04-27T08:57:37Z</time></trkpt><trkpt lat="31.384585939113713" lon="-7.951065617827701"><ele>838.0</ele><time>2026-04-27T08:57:38Z</time></trkpt><trkpt lat="31.384359456473078" lon="-7.951021229227316"><ele>838.0</ele><time>2026-04-27T08:57:39Z</time></trkpt><trkpt lat="31.38413901577359" lon="-7.95097687858798"><ele>838.0</ele><time>2026-04-27T08:57:40Z</time></trkpt><trkpt lat="31.383932431265112" lon="-7.950937672122852"><ele>838.0</ele><time>2026-04-27T08:57:41Z</time></trkpt><trkpt lat="31.38373341469792" lon="-7.95090210928752"><ele>838.6666666666666</ele><time>2026-04-27T08:57:42Z</time></trkpt><trkpt lat="31.383532822284376" lon="-7.950867769971235"><ele>839.3333333333333</ele><time>2026-04-27T08:57:43Z</time></trkpt><trkpt lat="31.383332838229286" lon="-7.950830195936401"><ele>840.0</ele><time>2026-04-27T08:57:44Z</time></trkpt><trkpt lat="31.383131700891465" lon="-7.950792747827985"><ele>841.0</ele><time>2026-04-27T08:57:45Z</time></trkpt><trkpt lat="31.382928842142643" lon="-7.950756319277076"><ele>842.0</ele><time>2026-04-27T08:57:46Z</time></trkpt><trkpt lat="31.382724373349667" lon="-7.950717443513236"><ele>843.0</ele><time>2026-04-27T08:57:47Z</time></trkpt><trkpt lat="31.382514853850704" lon="-7.950678220644747"><ele>843.0</ele><time>2026-04-27T08:57:48Z</time></trkpt><trkpt lat="31.38230443861374" lon="-7.950635573883265"><ele>843.0</ele><time>2026-04-27T08:57:49Z</time></trkpt><trkpt lat="31.382091754201394" lon="-7.950593120130384"><ele>843.0</ele><time>2026-04-27T08:57:50Z</time></trkpt><trkpt lat="31.381880658619085" lon="-7.9505528213631145"><ele>843.3333333333333</ele><time>2026-04-27T08:57:51Z</time></trkpt><trkpt lat="31.381669732705117" lon="-7.950511754976189"><ele>843.6666666666666</ele><time>2026-04-27T08:57:52Z</time></trkpt><trkpt lat="31.38146146234244" lon="-7.950470410704073"><ele>844.0</ele><time>2026-04-27T08:57:53Z</time></trkpt><trkpt lat="31.381261914599744" lon="-7.950433209630747"><ele>844.3333333333333</ele><time>2026-04-27T08:57:54Z</time></trkpt><trkpt lat="31.381078157505502" lon="-7.950399643231355"><ele>844.6666666666667</ele><time>2026-04-27T08:57:55Z</time></trkpt><trkpt lat="31.380906318079788" lon="-7.950364243583265"><ele>845.0</ele><time>2026-04-27T08:57:56Z</time></trkpt><trkpt lat="31.380742586595993" lon="-7.9503284586333"><ele>845.0</ele><time>2026-04-27T08:57:57Z</time></trkpt><trkpt lat="31.380593165701058" lon="-7.95029865503744"><ele>845.0</ele><time>2026-04-27T08:57:58Z</time></trkpt><trkpt lat="31.380455018219845" lon="-7.950273234582552"><ele>845.0</ele><time>2026-04-27T08:57:59Z</time></trkpt><trkpt lat="31.380316436497775" lon="-7.950246694608245"><ele>845.0</ele><time>2026-04-27T08:58:00Z</time></trkpt><trkpt lat="31.380180727023767" lon="-7.950221808992631"><ele>845.25</ele><time>2026-04-27T08:58:01Z</time></trkpt><trkpt lat="31.380052841930194" lon="-7.950199364134223"><ele>845.5</ele><time>2026-04-27T08:58:02Z</time></trkpt><trkpt lat="31.37993353007365" lon="-7.9501796000426195"><ele>845.75</ele><time>2026-04-27T08:58:03Z</time></trkpt><trkpt lat="31.37981457468432" lon="-7.95016229855984"><ele>846.0</ele><time>2026-04-27T08:58:04Z</time></trkpt><trkpt lat="31.379692922043787" lon="-7.950146913982"><ele>846.75</ele><time>2026-04-27T08:58:05Z</time></trkpt><trkpt lat="31.3795709046943" lon="-7.950133710021351"><ele>847.5</ele><time>2026-04-27T08:58:06Z</time></trkpt><trkpt lat="31.37944893052465" lon="-7.950121858962743"><ele>848.25</ele><time>2026-04-27T08:58:07Z</time></trkpt><trkpt lat="31.37932616956048" lon="-7.950112625576319"><ele>849.0</ele><time>2026-04-27T08:58:08Z</time></trkpt><trkpt lat="31.379203614583734" lon="-7.950103368807438"><ele>849.0</ele><time>2026-04-27T08:58:09Z</time></trkpt><trkpt lat="31.379079045500276" lon="-7.9500962033328495"><ele>849.0</ele><time>2026-04-27T08:58:10Z</time></trkpt><trkpt lat="31.378954659573104" lon="-7.950086988790343"><ele>849.0</ele><time>2026-04-27T08:58:11Z</time></trkpt><trkpt lat="31.378830859594046" lon="-7.950074657335299"><ele>849.0</ele><time>2026-04-27T08:58:12Z</time></trkpt><trkpt lat="31.37870226831466" lon="-7.9500657136236"><ele>849.25</ele><time>2026-04-27T08:58:13Z</time></trkpt><trkpt lat="31.378575064109558" lon="-7.950056179183032"><ele>849.5</ele><time>2026-04-27T08:58:14Z</time></trkpt><trkpt lat="31.378444051351078" lon="-7.95004740369288"><ele>849.75</ele><time>2026-04-27T08:58:15Z</time></trkpt><trkpt lat="31.378312381735377" lon="-7.95003702041838"><ele>850.0</ele><time>2026-04-27T08:58:16Z</time></trkpt><trkpt lat="31.37817764283492" lon="-7.95002438396871"><ele>850.0</ele><time>2026-04-27T08:58:17Z</time></trkpt><trkpt lat="31.37804223576064" lon="-7.950015155449414"><ele>850.0</ele><time>2026-04-27T08:58:18Z</time></trkpt><trkpt lat="31.377901721360313" lon="-7.950008786468674"><ele>850.0</ele><time>2026-04-27T08:58:19Z</time></trkpt><trkpt lat="31.37775308846119" lon="-7.949998958242187"><ele>850.0</ele><time>2026-04-27T08:58:20Z</time></trkpt><trkpt lat="31.377592081014562" lon="-7.9499865286849225"><ele>851.0</ele><time>2026-04-27T08:58:21Z</time></trkpt><trkpt lat="31.377421437986445" lon="-7.94997451573802"><ele>852.0</ele><time>2026-04-27T08:58:22Z</time></trkpt><trkpt lat="31.377247551659227" lon="-7.949961447847436"><ele>853.0</ele><time>2026-04-27T08:58:23Z</time></trkpt><trkpt lat="31.377082959742484" lon="-7.949948863475389"><ele>854.0</ele><time>2026-04-27T08:58:24Z</time></trkpt><trkpt lat="31.376934237858784" lon="-7.949939294683151"><ele>855.0</ele><time>2026-04-27T08:58:25Z</time></trkpt><trkpt lat="31.376794656796363" lon="-7.949929888882918"><ele>856.0</ele><time>2026-04-27T08:58:26Z</time></trkpt><trkpt lat="31.37666273363166" lon="-7.949918850427218"><ele>857.0</ele><time>2026-04-27T08:58:27Z</time></trkpt><trkpt lat="31.37653321866907" lon="-7.9499049524541645"><ele>857.0</ele><time>2026-04-27T08:58:28Z</time></trkpt><trkpt lat="31.376398387038666" lon="-7.949889964915827"><ele>857.0</ele><time>2026-04-27T08:58:29Z</time></trkpt><trkpt lat="31.376258595333606" lon="-7.949874935622722"><ele>857.0</ele><time>2026-04-27T08:58:30Z</time></trkpt><trkpt lat="31.376116009812858" lon="-7.9498614752330825"><ele>857.0</ele><time>2026-04-27T08:58:31Z</time></trkpt><trkpt lat="31.375972757827338" lon="-7.949845483048132"><ele>857.0</ele><time>2026-04-27T08:58:32Z</time></trkpt><trkpt lat="31.375833706570145" lon="-7.949832782373329"><ele>857.0</ele><time>2026-04-27T08:58:33Z</time></trkpt><trkpt lat="31.37570568328572" lon="-7.9498187537749505"><ele>857.0</ele><time>2026-04-27T08:58:34Z</time></trkpt><trkpt lat="31.37559010465067" lon="-7.949807860681028"><ele>857.0</ele><time>2026-04-27T08:58:35Z</time></trkpt><trkpt lat="31.3754800291352" lon="-7.949798368508457"><ele>857.5</ele><time>2026-04-27T08:58:36Z</time></trkpt><trkpt lat="31.3753662151789" lon="-7.94978947296685"><ele>858.0</ele><time>2026-04-27T08:58:37Z</time></trkpt><trkpt lat="31.37524254358039" lon="-7.949778061071723"><ele>858.5</ele><time>2026-04-27T08:58:38Z</time></trkpt><trkpt lat="31.375119013734942" lon="-7.949767737955086"><ele>859.0</ele><time>2026-04-27T08:58:39Z</time></trkpt><trkpt lat="31.375002292639206" lon="-7.949757080021669"><ele>859.0</ele><time>2026-04-27T08:58:40Z</time></trkpt><trkpt lat="31.37488325861357" lon="-7.9497466810042425"><ele>859.0</ele><time>2026-04-27T08:58:41Z</time></trkpt><trkpt lat="31.37475852870602" lon="-7.949734418992115"><ele>859.0</ele><time>2026-04-27T08:58:42Z</time></trkpt><trkpt lat="31.374631059235643" lon="-7.949719695306301"><ele>859.0</ele><time>2026-04-27T08:58:43Z</time></trkpt><trkpt lat="31.374513315726734" lon="-7.949708158643256"><ele>859.5</ele><time>2026-04-27T08:58:44Z</time></trkpt><trkpt lat="31.374396011459" lon="-7.949695845055597"><ele>860.0</ele><time>2026-04-27T08:58:45Z</time></trkpt><trkpt lat="31.374280730512023" lon="-7.949675009606896"><ele>860.5</ele><time>2026-04-27T08:58:46Z</time></trkpt><trkpt lat="31.374161187703677" lon="-7.949643981342093"><ele>861.0</ele><time>2026-04-27T08:58:47Z</time></trkpt><trkpt lat="31.374037061029682" lon="-7.949601149252692"><ele>861.0</ele><time>2026-04-27T08:58:48Z</time></trkpt><trkpt lat="31.373912529091015" lon="-7.949544974422987"><ele>861.0</ele><time>2026-04-27T08:58:49Z</time></trkpt><trkpt lat="31.37379228760541" lon="-7.949479636961995"><ele>861.0</ele><time>2026-04-27T08:58:50Z</time></trkpt><trkpt lat="31.373678755174634" lon="-7.949413993860599"><ele>861.0</ele><time>2026-04-27T08:58:51Z</time></trkpt><trkpt lat="31.373575345348026" lon="-7.949355664932975"><ele>861.75</ele><time>2026-04-27T08:58:52Z</time></trkpt><trkpt lat="31.37347623406052" lon="-7.949295700181027"><ele>862.5</ele><time>2026-04-27T08:58:53Z</time></trkpt><trkpt lat="31.373375568953307" lon="-7.949232931388771"><ele>863.25</ele><time>2026-04-27T08:58:54Z</time></trkpt><trkpt lat="31.37327512552687" lon="-7.949164800832638"><ele>864.0</ele><time>2026-04-27T08:58:55Z</time></trkpt><trkpt lat="31.37317192116613" lon="-7.949096619569577"><ele>864.0</ele><time>2026-04-27T08:58:56Z</time></trkpt><trkpt lat="31.373068032529524" lon="-7.949030312656282"><ele>864.0000000000001</ele><time>2026-04-27T08:58:57Z</time></trkpt><trkpt lat="31.37296481809258" lon="-7.948968881455941"><ele>864.0000000000001</ele><time>2026-04-27T08:58:58Z</time></trkpt><trkpt lat="31.37287013605905" lon="-7.948910759077064"><ele>864.0</ele><time>2026-04-27T08:58:59Z</time></trkpt><trkpt lat="31.37277950313097" lon="-7.948852007544692"><ele>864.0</ele><time>2026-04-27T08:59:00Z</time></trkpt><trkpt lat="31.372689041328837" lon="-7.948792510816053"><ele>864.5</ele><time>2026-04-27T08:59:01Z</time></trkpt><trkpt lat="31.37259388298728" lon="-7.948727103467601"><ele>865.0</ele><time>2026-04-27T08:59:02Z</time></trkpt><trkpt lat="31.372494698378745" lon="-7.948663732276115"><ele>865.5</ele><time>2026-04-27T08:59:03Z</time></trkpt><trkpt lat="31.3723907423544" lon="-7.948597107329724"><ele>866.0</ele><time>2026-04-27T08:59:04Z</time></trkpt><trkpt lat="31.372285463032274" lon="-7.948532564617118"><ele>866.25</ele><time>2026-04-27T08:59:05Z</time></trkpt><trkpt lat="31.372177217575643" lon="-7.948462310017105"><ele>866.5</ele><time>2026-04-27T08:59:06Z</time></trkpt><trkpt lat="31.37206788054767" lon="-7.948390558733484"><ele>866.75</ele><time>2026-04-27T08:59:07Z</time></trkpt><trkpt lat="31.371955663299076" lon="-7.948318990957508"><ele>867.0</ele><time>2026-04-27T08:59:08Z</time></trkpt><trkpt lat="31.37183938929573" lon="-7.94824791043527"><ele>867.25</ele><time>2026-04-27T08:59:09Z</time></trkpt><trkpt lat="31.371721512949435" lon="-7.948174878550096"><ele>867.5</ele><time>2026-04-27T08:59:10Z</time></trkpt><trkpt lat="31.371604243201936" lon="-7.948100807310489"><ele>867.75</ele><time>2026-04-27T08:59:11Z</time></trkpt><trkpt lat="31.371487012838948" lon="-7.948026255665603"><ele>868.0</ele><time>2026-04-27T08:59:12Z</time></trkpt><trkpt lat="31.371370157274107" lon="-7.9479496133013185"><ele>868.5</ele><time>2026-04-27T08:59:13Z</time></trkpt><trkpt lat="31.371253653411426" lon="-7.947873887563385"><ele>869.0</ele><time>2026-04-27T08:59:14Z</time></trkpt><trkpt lat="31.371133481807792" lon="-7.947800808916307"><ele>869.5</ele><time>2026-04-27T08:59:15Z</time></trkpt><trkpt lat="31.371010103028432" lon="-7.947729189668453"><ele>870.0</ele><time>2026-04-27T08:59:16Z</time></trkpt><trkpt lat="31.370884712575222" lon="-7.947656471981058"><ele>870.0</ele><time>2026-04-27T08:59:17Z</time></trkpt><trkpt lat="31.37075983028633" lon="-7.947581341500966"><ele>870.0</ele><time>2026-04-27T08:59:18Z</time></trkpt><trkpt lat="31.370636483656178" lon="-7.947505628611506"><ele>870.0</ele><time>2026-04-27T08:59:19Z</time></trkpt><trkpt lat="31.370515452473" lon="-7.947429603079503"><ele>870.0</ele><time>2026-04-27T08:59:20Z</time></trkpt><trkpt lat="31.370392373146668" lon="-7.94735154615908"><ele>871.0</ele><time>2026-04-27T08:59:21Z</time></trkpt><trkpt lat="31.37027081960633" lon="-7.947275873640934"><ele>872.0</ele><time>2026-04-27T08:59:22Z</time></trkpt><trkpt lat="31.370149502011454" lon="-7.947201407010047"><ele>873.0</ele><time>2026-04-27T08:59:23Z</time></trkpt><trkpt lat="31.370028887450864" lon="-7.947127880851136"><ele>874.0</ele><time>2026-04-27T08:59:24Z</time></trkpt><trkpt lat="31.36990819360139" lon="-7.947051708523802"><ele>874.0</ele><time>2026-04-27T08:59:25Z</time></trkpt><trkpt lat="31.369784439782638" lon="-7.946974749260286"><ele>874.0</ele><time>2026-04-27T08:59:26Z</time></trkpt><trkpt lat="31.369660947601172" lon="-7.946899531860837"><ele>874.0</ele><time>2026-04-27T08:59:27Z</time></trkpt><trkpt lat="31.369539801196225" lon="-7.94682651119375"><ele>874.0</ele><time>2026-04-27T08:59:28Z</time></trkpt><trkpt lat="31.369415552146567" lon="-7.946758933063897"><ele>875.0</ele><time>2026-04-27T08:59:29Z</time></trkpt><trkpt lat="31.36928230925458" lon="-7.946700986862265"><ele>876.0</ele><time>2026-04-27T08:59:30Z</time></trkpt><trkpt lat="31.369145904018513" lon="-7.946661146719328"><ele>877.0</ele><time>2026-04-27T08:59:31Z</time></trkpt><trkpt lat="31.369004395334425" lon="-7.9466427139133335"><ele>878.0</ele><time>2026-04-27T08:59:32Z</time></trkpt><trkpt lat="31.368854087127172" lon="-7.94664442295539"><ele>879.3333333333334</ele><time>2026-04-27T08:59:33Z</time></trkpt><trkpt lat="31.368706456708143" lon="-7.946660127789973"><ele>880.6666666666667</ele><time>2026-04-27T08:59:34Z</time></trkpt><trkpt lat="31.36855675055044" lon="-7.946679733746036"><ele>882.0</ele><time>2026-04-27T08:59:35Z</time></trkpt><trkpt lat="31.368402773194447" lon="-7.946699279535429"><ele>882.3333333333333</ele><time>2026-04-27T08:59:36Z</time></trkpt><trkpt lat="31.368243792963796" lon="-7.946718864325952"><ele>882.6666666666666</ele><time>2026-04-27T08:59:37Z</time></trkpt><trkpt lat="31.36808032765264" lon="-7.946737866840742"><ele>883.0</ele><time>2026-04-27T08:59:38Z</time></trkpt><trkpt lat="31.367916006220472" lon="-7.94675375086193"><ele>883.0</ele><time>2026-04-27T08:59:39Z</time></trkpt><trkpt lat="31.367755896441334" lon="-7.946766052036747"><ele>883.0</ele><time>2026-04-27T08:59:40Z</time></trkpt><trkpt lat="31.367601293709047" lon="-7.9467737640953935"><ele>883.0</ele><time>2026-04-27T08:59:41Z</time></trkpt><trkpt lat="31.367458790038327" lon="-7.9467796565436375"><ele>883.0</ele><time>2026-04-27T08:59:42Z</time></trkpt><trkpt lat="31.367324949839826" lon="-7.946781397169907"><ele>883.0</ele><time>2026-04-27T08:59:43Z</time></trkpt><trkpt lat="31.367200801378395" lon="-7.946783063371099"><ele>883.0</ele><time>2026-04-27T08:59:44Z</time></trkpt><trkpt lat="31.367091437659063" lon="-7.946779708690209"><ele>883.0</ele><time>2026-04-27T08:59:45Z</time></trkpt><trkpt lat="31.36699768143473" lon="-7.946776373201188"><ele>883.8</ele><time>2026-04-27T08:59:46Z</time></trkpt><trkpt lat="31.36692119502839" lon="-7.946776944855809"><ele>884.5999999999999</ele><time>2026-04-27T08:59:47Z</time></trkpt><trkpt lat="31.36680539188442" lon="-7.9467740382411165"><ele>885.4000000000001</ele><time>2026-04-27T08:59:49Z</time></trkpt><trkpt lat="31.366725185942443" lon="-7.9467723858185595"><ele>886.2</ele><time>2026-04-27T08:59:51Z</time></trkpt><trkpt lat="31.366635573725688" lon="-7.946784580632284"><ele>887.0</ele><time>2026-04-27T08:59:53Z</time></trkpt><trkpt lat="31.366514003497635" lon="-7.9468385110924284"><ele>887.0000000000001</ele><time>2026-04-27T08:59:55Z</time></trkpt><trkpt lat="31.36643390502067" lon="-7.946870841578022"><ele>887.0</ele><time>2026-04-27T08:59:57Z</time></trkpt><trkpt lat="31.366344963570153" lon="-7.946844975488549"><ele>887.0</ele><time>2026-04-27T08:59:59Z</time></trkpt><trkpt lat="31.36624150384299" lon="-7.94678716282473"><ele>887.0</ele><time>2026-04-27T09:00:01Z</time></trkpt><trkpt lat="31.366153357632637" lon="-7.9467586440320925"><ele>887.0000000000001</ele><time>2026-04-27T09:00:03Z</time></trkpt><trkpt lat="31.36608868068655" lon="-7.9467520323647"><ele>887.0</ele><time>2026-04-27T09:00:05Z</time></trkpt><trkpt lat="31.366005045367952" lon="-7.946747125216989"><ele>887.4000000000001</ele><time>2026-04-27T09:00:07Z</time></trkpt><trkpt lat="31.3659238068235" lon="-7.946739970484088"><ele>887.8000000000001</ele><time>2026-04-27T09:00:09Z</time></trkpt><trkpt lat="31.36583463504982" lon="-7.946742571052729"><ele>888.2</ele><time>2026-04-27T09:00:11Z</time></trkpt><trkpt lat="31.365736594899463" lon="-7.94673234933514"><ele>888.6</ele><time>2026-04-27T09:00:13Z</time></trkpt><trkpt lat="31.36560324799765" lon="-7.946720541262554"><ele>889.0</ele><time>2026-04-27T09:00:15Z</time></trkpt><trkpt lat="31.365531915671422" lon="-7.946716479318875"><ele>889.6666666666666</ele><time>2026-04-27T09:00:16Z</time></trkpt><trkpt lat="31.36546563609473" lon="-7.946715661700838"><ele>890.3333333333333</ele><time>2026-04-27T09:00:17Z</time></trkpt><trkpt lat="31.36537355862352" lon="-7.946731923783359"><ele>891.0</ele><time>2026-04-27T09:00:19Z</time></trkpt><trkpt lat="31.365292157268772" lon="-7.946742340016458"><ele>891.6666666666667</ele><time>2026-04-27T09:00:30Z</time></trkpt><trkpt lat="31.365220750778743" lon="-7.946737056309273"><ele>892.3333333333334</ele><time>2026-04-27T09:00:31Z</time></trkpt><trkpt lat="31.36512597485564" lon="-7.946726556514824"><ele>893.0</ele><time>2026-04-27T09:00:32Z</time></trkpt><trkpt lat="31.365025526347754" lon="-7.946722828986967"><ele>893.0</ele><time>2026-04-27T09:00:33Z</time></trkpt><trkpt lat="31.364914783757005" lon="-7.9467309618382025"><ele>893.0</ele><time>2026-04-27T09:00:34Z</time></trkpt><trkpt lat="31.364787897569656" lon="-7.946738868452077"><ele>893.0</ele><time>2026-04-27T09:00:35Z</time></trkpt><trkpt lat="31.36466388965723" lon="-7.946755194876174"><ele>893.0</ele><time>2026-04-27T09:00:36Z</time></trkpt><trkpt lat="31.364539125119173" lon="-7.9467824499939885"><ele>893.5</ele><time>2026-04-27T09:00:37Z</time></trkpt><trkpt lat="31.3644110205696" lon="-7.946814651800259"><ele>894.0</ele><time>2026-04-27T09:00:38Z</time></trkpt><trkpt lat="31.36428072591072" lon="-7.946847992344152"><ele>894.5</ele><time>2026-04-27T09:00:39Z</time></trkpt><trkpt lat="31.364147061076217" lon="-7.946879223754582"><ele>895.0</ele><time>2026-04-27T09:00:40Z</time></trkpt><trkpt lat="31.36401385305723" lon="-7.946909524938929"><ele>895.0</ele><time>2026-04-27T09:00:41Z</time></trkpt><trkpt lat="31.36387901398895" lon="-7.946946377532737"><ele>895.0</ele><time>2026-04-27T09:00:42Z</time></trkpt><trkpt lat="31.363742538173035" lon="-7.946981695913272"><ele>895.0</ele><time>2026-04-27T09:00:43Z</time></trkpt><trkpt lat="31.363598479212303" lon="-7.947019441215984"><ele>895.0</ele><time>2026-04-27T09:00:44Z</time></trkpt><trkpt lat="31.36345910492397" lon="-7.947057406285311"><ele>896.0</ele><time>2026-04-27T09:00:45Z</time></trkpt><trkpt lat="31.363321305972487" lon="-7.9470934170832725"><ele>897.0</ele><time>2026-04-27T09:00:46Z</time></trkpt><trkpt lat="31.36318740307591" lon="-7.947125741599299"><ele>898.0</ele><time>2026-04-27T09:00:47Z</time></trkpt><trkpt lat="31.363053758005574" lon="-7.9471557234136405"><ele>899.0</ele><time>2026-04-27T09:00:48Z</time></trkpt><trkpt lat="31.36291462554396" lon="-7.947185280955542"><ele>899.75</ele><time>2026-04-27T09:00:49Z</time></trkpt><trkpt lat="31.362773011582046" lon="-7.947213266543056"><ele>900.5</ele><time>2026-04-27T09:00:50Z</time></trkpt><trkpt lat="31.362632584528473" lon="-7.947241691374294"><ele>901.25</ele><time>2026-04-27T09:00:51Z</time></trkpt><trkpt lat="31.36248542366216" lon="-7.947278452155517"><ele>902.0</ele><time>2026-04-27T09:00:52Z</time></trkpt><trkpt lat="31.36233900323595" lon="-7.94731684281597"><ele>902.0</ele><time>2026-04-27T09:00:53Z</time></trkpt><trkpt lat="31.36220776519607" lon="-7.947356969425699"><ele>902.0</ele><time>2026-04-27T09:00:54Z</time></trkpt><trkpt lat="31.36208844324102" lon="-7.94739106278781"><ele>902.0</ele><time>2026-04-27T09:00:55Z</time></trkpt><trkpt lat="31.361965634893863" lon="-7.947425549031757"><ele>902.0</ele><time>2026-04-27T09:00:56Z</time></trkpt><trkpt lat="31.361837747908364" lon="-7.947461980012436"><ele>901.75</ele><time>2026-04-27T09:00:57Z</time></trkpt><trkpt lat="31.361704526198395" lon="-7.947495556075914"><ele>901.5</ele><time>2026-04-27T09:00:58Z</time></trkpt><trkpt lat="31.361568276284462" lon="-7.947527207745728"><ele>901.25</ele><time>2026-04-27T09:00:59Z</time></trkpt><trkpt lat="31.361432546834696" lon="-7.947561288561224"><ele>901.0</ele><time>2026-04-27T09:01:00Z</time></trkpt><trkpt lat="31.36130072577793" lon="-7.947602225137676"><ele>901.0</ele><time>2026-04-27T09:01:01Z</time></trkpt><trkpt lat="31.36117085238881" lon="-7.947649959605607"><ele>901.0</ele><time>2026-04-27T09:01:02Z</time></trkpt><trkpt lat="31.361044236055573" lon="-7.947704491762162"><ele>901.0</ele><time>2026-04-27T09:01:03Z</time></trkpt><trkpt lat="31.3609137395598" lon="-7.947763518605173"><ele>901.0</ele><time>2026-04-27T09:01:04Z</time></trkpt><trkpt lat="31.360782520345516" lon="-7.947821769678696"><ele>901.0</ele><time>2026-04-27T09:01:05Z</time></trkpt><trkpt lat="31.360649363833936" lon="-7.947879700509062"><ele>901.0</ele><time>2026-04-27T09:01:06Z</time></trkpt><trkpt lat="31.360514663454207" lon="-7.947935163371528"><ele>901.0</ele><time>2026-04-27T09:01:07Z</time></trkpt><trkpt lat="31.360382864786747" lon="-7.947988223211145"><ele>901.0</ele><time>2026-04-27T09:01:08Z</time></trkpt><trkpt lat="31.360260427185146" lon="-7.948036570214929"><ele>902.0</ele><time>2026-04-27T09:01:09Z</time></trkpt><trkpt lat="31.360142850330107" lon="-7.9480893874520175"><ele>903.0</ele><time>2026-04-27T09:01:10Z</time></trkpt><trkpt lat="31.36002154817543" lon="-7.948145075314607"><ele>904.0</ele><time>2026-04-27T09:01:11Z</time></trkpt><trkpt lat="31.359895262510076" lon="-7.948205414620303"><ele>905.0</ele><time>2026-04-27T09:01:12Z</time></trkpt><trkpt lat="31.359764201415256" lon="-7.9482664475014255"><ele>904.3333333333334</ele><time>2026-04-27T09:01:13Z</time></trkpt><trkpt lat="31.35962391570355" lon="-7.948328478116469"><ele>903.6666666666667</ele><time>2026-04-27T09:01:14Z</time></trkpt><trkpt lat="31.359471938271458" lon="-7.948392727864016"><ele>903.0</ele><time>2026-04-27T09:01:15Z</time></trkpt><trkpt lat="31.359317847293298" lon="-7.9484578705250675"><ele>903.0</ele><time>2026-04-27T09:01:16Z</time></trkpt><trkpt lat="31.3591587911424" lon="-7.948526936011822"><ele>903.0</ele><time>2026-04-27T09:01:17Z</time></trkpt><trkpt lat="31.359000379200243" lon="-7.948600196349032"><ele>903.0</ele><time>2026-04-27T09:01:18Z</time></trkpt><trkpt lat="31.358843271688947" lon="-7.94867547150799"><ele>904.6666666666667</ele><time>2026-04-27T09:01:19Z</time></trkpt><trkpt lat="31.358690985755516" lon="-7.948750577094173"><ele>906.3333333333334</ele><time>2026-04-27T09:01:20Z</time></trkpt><trkpt lat="31.358547213403536" lon="-7.948834156039358"><ele>908.0</ele><time>2026-04-27T09:01:21Z</time></trkpt><trkpt lat="31.358406486799208" lon="-7.948919011027976"><ele>908.0</ele><time>2026-04-27T09:01:22Z</time></trkpt><trkpt lat="31.358267892265864" lon="-7.949003437887075"><ele>908.0</ele><time>2026-04-27T09:01:23Z</time></trkpt><trkpt lat="31.358126890121742" lon="-7.949088425776282"><ele>908.0</ele><time>2026-04-27T09:01:24Z</time></trkpt><trkpt lat="31.35798277540847" lon="-7.9491758859296775"><ele>907.3333333333334</ele><time>2026-04-27T09:01:25Z</time></trkpt><trkpt lat="31.357842535521765" lon="-7.949259573600522"><ele>906.6666666666667</ele><time>2026-04-27T09:01:26Z</time></trkpt><trkpt lat="31.357707682871897" lon="-7.949340570123611"><ele>906.0</ele><time>2026-04-27T09:01:27Z</time></trkpt><trkpt lat="31.357579443537908" lon="-7.949417436065458"><ele>906.0</ele><time>2026-04-27T09:01:28Z</time></trkpt><trkpt lat="31.35744255717925" lon="-7.949498777065238"><ele>906.0</ele><time>2026-04-27T09:01:29Z</time></trkpt><trkpt lat="31.357285321493734" lon="-7.949591365825037"><ele>906.0</ele><time>2026-04-27T09:01:30Z</time></trkpt><trkpt lat="31.357124656221213" lon="-7.949688119588774"><ele>908.0</ele><time>2026-04-27T09:01:31Z</time></trkpt><trkpt lat="31.35696908845268" lon="-7.949789995017828"><ele>910.0</ele><time>2026-04-27T09:01:32Z</time></trkpt><trkpt lat="31.35680988391083" lon="-7.949895911959462"><ele>912.0</ele><time>2026-04-27T09:01:33Z</time></trkpt><trkpt lat="31.356650811906178" lon="-7.949999282502022"><ele>910.3333333333333</ele><time>2026-04-27T09:01:34Z</time></trkpt><trkpt lat="31.356498568657933" lon="-7.950099506017445"><ele>908.6666666666666</ele><time>2026-04-27T09:01:35Z</time></trkpt><trkpt lat="31.356346290385012" lon="-7.950193107113887"><ele>907.0</ele><time>2026-04-27T09:01:36Z</time></trkpt><trkpt lat="31.356205251763896" lon="-7.950276761448526"><ele>907.0</ele><time>2026-04-27T09:01:37Z</time></trkpt><trkpt lat="31.356064071878066" lon="-7.950366030387187"><ele>907.0</ele><time>2026-04-27T09:01:38Z</time></trkpt><trkpt lat="31.355920159068255" lon="-7.950457049671841"><ele>907.0</ele><time>2026-04-27T09:01:39Z</time></trkpt><trkpt lat="31.355773310147253" lon="-7.950549912673332"><ele>907.0</ele><time>2026-04-27T09:01:40Z</time></trkpt><trkpt lat="31.355628634392957" lon="-7.950640678069819"><ele>907.0</ele><time>2026-04-27T09:01:41Z</time></trkpt><trkpt lat="31.355504653330684" lon="-7.950755558215968"><ele>907.0</ele><time>2026-04-27T09:01:42Z</time></trkpt><trkpt lat="31.35537597108932" lon="-7.950878039225738"><ele>908.0</ele><time>2026-04-27T09:01:43Z</time></trkpt><trkpt lat="31.355247727378103" lon="-7.951002529134183"><ele>909.0</ele><time>2026-04-27T09:01:44Z</time></trkpt><trkpt lat="31.355130872011372" lon="-7.951125950309397"><ele>910.0</ele><time>2026-04-27T09:01:45Z</time></trkpt><trkpt lat="31.355018346772557" lon="-7.95125224584458"><ele>910.0</ele><time>2026-04-27T09:01:46Z</time></trkpt><trkpt lat="31.354911885398487" lon="-7.951370796824626"><ele>910.0</ele><time>2026-04-27T09:01:47Z</time></trkpt><trkpt lat="31.354794002278755" lon="-7.951473733456436"><ele>910.0</ele><time>2026-04-27T09:01:48Z</time></trkpt><trkpt lat="31.354687627519542" lon="-7.951562631247992"><ele>910.0</ele><time>2026-04-27T09:01:49Z</time></trkpt><trkpt lat="31.354582068361697" lon="-7.951650634952671"><ele>909.75</ele><time>2026-04-27T09:01:50Z</time></trkpt><trkpt lat="31.354472315587117" lon="-7.951742140676583"><ele>909.5</ele><time>2026-04-27T09:01:51Z</time></trkpt><trkpt lat="31.35435232500767" lon="-7.951834118621535"><ele>909.25</ele><time>2026-04-27T09:01:52Z</time></trkpt><trkpt lat="31.35423249976488" lon="-7.951912078179295"><ele>909.0</ele><time>2026-04-27T09:01:53Z</time></trkpt><trkpt lat="31.354114061208023" lon="-7.951988951227339"><ele>909.0</ele><time>2026-04-27T09:01:54Z</time></trkpt><trkpt lat="31.353991728990835" lon="-7.952037462880569"><ele>909.0</ele><time>2026-04-27T09:01:55Z</time></trkpt><trkpt lat="31.353879802555625" lon="-7.952088476332694"><ele>909.0</ele><time>2026-04-27T09:01:56Z</time></trkpt><trkpt lat="31.353761671130258" lon="-7.9521409501833915"><ele>909.0</ele><time>2026-04-27T09:01:57Z</time></trkpt><trkpt lat="31.353636651543074" lon="-7.952196483696025"><ele>909.0</ele><time>2026-04-27T09:01:58Z</time></trkpt><trkpt lat="31.353482115057172" lon="-7.952188716201607"><ele>909.0</ele><time>2026-04-27T09:01:59Z</time></trkpt><trkpt lat="31.353343791460922" lon="-7.9521986023053275"><ele>909.0</ele><time>2026-04-27T09:02:00Z</time></trkpt><trkpt lat="31.353210752167357" lon="-7.952208110736266"><ele>909.0</ele><time>2026-04-27T09:02:01Z</time></trkpt><trkpt lat="31.35309020554622" lon="-7.952216726305761"><ele>909.2</ele><time>2026-04-27T09:02:02Z</time></trkpt><trkpt lat="31.35297791263804" lon="-7.952224751975462"><ele>909.4000000000001</ele><time>2026-04-27T09:02:03Z</time></trkpt><trkpt lat="31.3528758586419" lon="-7.952232045855573"><ele>909.6</ele><time>2026-04-27T09:02:04Z</time></trkpt><trkpt lat="31.352764240947952" lon="-7.952219370325649"><ele>909.8</ele><time>2026-04-27T09:02:05Z</time></trkpt><trkpt lat="31.352649441912423" lon="-7.952197256370234"><ele>910.0</ele><time>2026-04-27T09:02:06Z</time></trkpt><trkpt lat="31.35253859171335" lon="-7.952168488570278"><ele>910.0</ele><time>2026-04-27T09:02:07Z</time></trkpt><trkpt lat="31.352414327746725" lon="-7.952084029674385"><ele>910.0</ele><time>2026-04-27T09:02:08Z</time></trkpt><trkpt lat="31.35229445916022" lon="-7.951968860241218"><ele>910.0</ele><time>2026-04-27T09:02:09Z</time></trkpt><trkpt lat="31.35218236263642" lon="-7.95184249574208"><ele>911.0</ele><time>2026-04-27T09:02:10Z</time></trkpt><trkpt lat="31.352074465967952" lon="-7.9517324493586115"><ele>912.0</ele><time>2026-04-27T09:02:11Z</time></trkpt><trkpt lat="31.351950124671564" lon="-7.951636288265955"><ele>913.0</ele><time>2026-04-27T09:02:12Z</time></trkpt><trkpt lat="31.351806932010586" lon="-7.951553589180445"><ele>914.3333333333333</ele><time>2026-04-27T09:02:13Z</time></trkpt><trkpt lat="31.351652507701523" lon="-7.951482275484613"><ele>915.6666666666667</ele><time>2026-04-27T09:02:14Z</time></trkpt><trkpt lat="31.351494033217634" lon="-7.951443024396665"><ele>917.0</ele><time>2026-04-27T09:02:15Z</time></trkpt><trkpt lat="31.351331129161363" lon="-7.9513978638850515"><ele>917.6666666666667</ele><time>2026-04-27T09:02:16Z</time></trkpt><trkpt lat="31.351174340379693" lon="-7.951380902851152"><ele>918.3333333333333</ele><time>2026-04-27T09:02:17Z</time></trkpt><trkpt lat="31.351013257680233" lon="-7.951358822438041"><ele>919.0</ele><time>2026-04-27T09:02:18Z</time></trkpt><trkpt lat="31.350857900839472" lon="-7.951337471860232"><ele>919.0</ele><time>2026-04-27T09:02:19Z</time></trkpt><trkpt lat="31.35070986600493" lon="-7.9513219618254505"><ele>919.0</ele><time>2026-04-27T09:02:20Z</time></trkpt><trkpt lat="31.350560243455398" lon="-7.951311396621049"><ele>919.0</ele><time>2026-04-27T09:02:21Z</time></trkpt><trkpt lat="31.350414894932452" lon="-7.951301133212414"><ele>919.0</ele><time>2026-04-27T09:02:22Z</time></trkpt><trkpt lat="31.350283909775776" lon="-7.951294382693258"><ele>919.75</ele><time>2026-04-27T09:02:23Z</time></trkpt><trkpt lat="31.350161175796625" lon="-7.951287662100043"><ele>920.5</ele><time>2026-04-27T09:02:24Z</time></trkpt><trkpt lat="31.35003817092832" lon="-7.9512809266773035"><ele>921.25</ele><time>2026-04-27T09:02:25Z</time></trkpt><trkpt lat="31.34990983498804" lon="-7.951269454728029"><ele>922.0</ele><time>2026-04-27T09:02:26Z</time></trkpt><trkpt lat="31.3497727967934" lon="-7.9512582070025335"><ele>922.5</ele><time>2026-04-27T09:02:27Z</time></trkpt><trkpt lat="31.349637049062974" lon="-7.951247065193701"><ele>923.0</ele><time>2026-04-27T09:02:28Z</time></trkpt><trkpt lat="31.349499679181832" lon="-7.951235790242269"><ele>923.5</ele><time>2026-04-27T09:02:29Z</time></trkpt><trkpt lat="31.349362538011732" lon="-7.951224534071344"><ele>924.0</ele><time>2026-04-27T09:02:30Z</time></trkpt><trkpt lat="31.34923003637885" lon="-7.951217914197432"><ele>924.0</ele><time>2026-04-27T09:02:31Z</time></trkpt><trkpt lat="31.3490962055952" lon="-7.951195727472999"><ele>924.0</ele><time>2026-04-27T09:02:32Z</time></trkpt><trkpt lat="31.34896948215815" lon="-7.95119602396053"><ele>924.0</ele><time>2026-04-27T09:02:33Z</time></trkpt><trkpt lat="31.348849226657528" lon="-7.951195576845144"><ele>924.0</ele><time>2026-04-27T09:02:34Z</time></trkpt><trkpt lat="31.34872923578956" lon="-7.951217096641686"><ele>924.5</ele><time>2026-04-27T09:02:35Z</time></trkpt><trkpt lat="31.34860592869322" lon="-7.951220328895466"><ele>925.0</ele><time>2026-04-27T09:02:36Z</time></trkpt><trkpt lat="31.348477127132316" lon="-7.951222907045064"><ele>925.5</ele><time>2026-04-27T09:02:37Z</time></trkpt><trkpt lat="31.348348333970232" lon="-7.951224489655676"><ele>926.0</ele><time>2026-04-27T09:02:38Z</time></trkpt><trkpt lat="31.348217571306904" lon="-7.951229656373988"><ele>926.0</ele><time>2026-04-27T09:02:39Z</time></trkpt><trkpt lat="31.348090381449754" lon="-7.951249082879069"><ele>926.0</ele><time>2026-04-27T09:02:40Z</time></trkpt><trkpt lat="31.347969577187037" lon="-7.9512784957403815"><ele>926.0</ele><time>2026-04-27T09:02:41Z</time></trkpt><trkpt lat="31.347857018395384" lon="-7.951290026899903"><ele>926.0</ele><time>2026-04-27T09:02:42Z</time></trkpt><trkpt lat="31.34775139280381" lon="-7.951356265946981"><ele>926.0</ele><time>2026-04-27T09:02:43Z</time></trkpt><trkpt lat="31.34763738486065" lon="-7.951428251695387"><ele>926.0</ele><time>2026-04-27T09:02:44Z</time></trkpt><trkpt lat="31.347503949808225" lon="-7.951500650990048"><ele>926.0</ele><time>2026-04-27T09:02:45Z</time></trkpt><trkpt lat="31.347351144990075" lon="-7.951570811813957"><ele>926.0</ele><time>2026-04-27T09:02:46Z</time></trkpt><trkpt lat="31.34719694462469" lon="-7.951648058819094"><ele>922.6666666666667</ele><time>2026-04-27T09:02:47Z</time></trkpt><trkpt lat="31.347044896853298" lon="-7.9517276190089445"><ele>919.3333333333333</ele><time>2026-04-27T09:02:48Z</time></trkpt><trkpt lat="31.346903599857672" lon="-7.9518033630809075"><ele>916.0</ele><time>2026-04-27T09:02:49Z</time></trkpt><trkpt lat="31.346767479804356" lon="-7.9518532286296"><ele>916.0</ele><time>2026-04-27T09:02:50Z</time></trkpt><trkpt lat="31.346641081249988" lon="-7.951881069028716"><ele>916.0</ele><time>2026-04-27T09:02:51Z</time></trkpt><trkpt lat="31.34652667060209" lon="-7.951899428239674"><ele>916.0</ele><time>2026-04-27T09:02:52Z</time></trkpt><trkpt lat="31.34642259693843" lon="-7.95186024677365"><ele>916.0</ele><time>2026-04-27T09:02:53Z</time></trkpt><trkpt lat="31.34634403496322" lon="-7.951775283782702"><ele>916.9999999999999</ele><time>2026-04-27T09:02:54Z</time></trkpt><trkpt lat="31.346283016072775" lon="-7.951691834237656"><ele>918.0</ele><time>2026-04-27T09:02:55Z</time></trkpt><trkpt lat="31.346214481034867" lon="-7.951607813595064"><ele>919.0</ele><time>2026-04-27T09:02:56Z</time></trkpt><trkpt lat="31.34616019252452" lon="-7.951524361566463"><ele>920.0</ele><time>2026-04-27T09:02:57Z</time></trkpt><trkpt lat="31.34611435510479" lon="-7.951453198863942"><ele>920.9999999999999</ele><time>2026-04-27T09:02:58Z</time></trkpt><trkpt lat="31.346069009694755" lon="-7.951382800008839"><ele>922.0</ele><time>2026-04-27T09:02:59Z</time></trkpt><trkpt lat="31.34597573459726" lon="-7.951274535351372"><ele>922.0</ele><time>2026-04-27T09:03:01Z</time></trkpt><trkpt lat="31.34590522428888" lon="-7.951247751005302"><ele>922.0</ele><time>2026-04-27T09:03:03Z</time></trkpt><trkpt lat="31.345812920374293" lon="-7.951249611764912"><ele>922.0</ele><time>2026-04-27T09:03:06Z</time></trkpt><trkpt lat="31.34574329053285" lon="-7.951283519896698"><ele>922.0</ele><time>2026-04-27T09:03:08Z</time></trkpt><trkpt lat="31.345665017785294" lon="-7.951383886942732"><ele>922.0</ele><time>2026-04-27T09:03:10Z</time></trkpt><trkpt lat="31.345592646939508" lon="-7.9514890916579555"><ele>922.8</ele><time>2026-04-27T09:03:12Z</time></trkpt><trkpt lat="31.345523376360077" lon="-7.9515758662765545"><ele>923.6</ele><time>2026-04-27T09:03:14Z</time></trkpt><trkpt lat="31.34545254445158" lon="-7.95163164339403"><ele>924.3999999999999</ele><time>2026-04-27T09:03:16Z</time></trkpt><trkpt lat="31.345337399772347" lon="-7.95168295784809"><ele>925.1999999999999</ele><time>2026-04-27T09:03:18Z</time></trkpt><trkpt lat="31.345235679919103" lon="-7.9517150929411065"><ele>926.0</ele><time>2026-04-27T09:03:19Z</time></trkpt><trkpt lat="31.34512487050949" lon="-7.9517210364966315"><ele>924.0</ele><time>2026-04-27T09:03:20Z</time></trkpt><trkpt lat="31.344999724210144" lon="-7.951727749049942"><ele>922.0</ele><time>2026-04-27T09:03:21Z</time></trkpt><trkpt lat="31.34486314984716" lon="-7.951735150685623"><ele>920.0</ele><time>2026-04-27T09:03:22Z</time></trkpt><trkpt lat="31.34471890917806" lon="-7.951742822276133"><ele>918.0</ele><time>2026-04-27T09:03:23Z</time></trkpt><trkpt lat="31.344575694719556" lon="-7.951750498687663"><ele>918.0</ele><time>2026-04-27T09:03:24Z</time></trkpt><trkpt lat="31.344438929800063" lon="-7.951758434612233"><ele>918.0</ele><time>2026-04-27T09:03:25Z</time></trkpt><trkpt lat="31.344306047392312" lon="-7.951765562219385"><ele>918.0</ele><time>2026-04-27T09:03:26Z</time></trkpt><trkpt lat="31.34416458245023" lon="-7.951773096666159"><ele>918.0</ele><time>2026-04-27T09:03:27Z</time></trkpt><trkpt lat="31.34402598206977" lon="-7.95178024715757"><ele>918.0</ele><time>2026-04-27T09:03:28Z</time></trkpt><trkpt lat="31.343883788660186" lon="-7.951769234506196"><ele>918.0</ele><time>2026-04-27T09:03:29Z</time></trkpt><trkpt lat="31.343742121400552" lon="-7.95177736791688"><ele>918.0</ele><time>2026-04-27T09:03:30Z</time></trkpt><trkpt lat="31.34360332720006" lon="-7.951802654752272"><ele>918.0</ele><time>2026-04-27T09:03:31Z</time></trkpt><trkpt lat="31.343465459386522" lon="-7.951792352892673"><ele>918.75</ele><time>2026-04-27T09:03:32Z</time></trkpt><trkpt lat="31.343336162036234" lon="-7.951775522498759"><ele>919.5</ele><time>2026-04-27T09:03:33Z</time></trkpt><trkpt lat="31.343220376994555" lon="-7.951730274047759"><ele>920.25</ele><time>2026-04-27T09:03:34Z</time></trkpt><trkpt lat="31.343102805696798" lon="-7.951696594500644"><ele>921.0</ele><time>2026-04-27T09:03:35Z</time></trkpt><trkpt lat="31.34297891624277" lon="-7.95165071432491"><ele>923.0</ele><time>2026-04-27T09:03:36Z</time></trkpt><trkpt lat="31.342853315310855" lon="-7.951606123230598"><ele>925.0</ele><time>2026-04-27T09:03:37Z</time></trkpt><trkpt lat="31.34275397291513" lon="-7.951503301039512"><ele>927.0</ele><time>2026-04-27T09:03:38Z</time></trkpt><trkpt lat="31.34265024637971" lon="-7.951423279146466"><ele>929.0</ele><time>2026-04-27T09:03:39Z</time></trkpt><trkpt lat="31.342553994838273" lon="-7.951322891529066"><ele>929.0</ele><time>2026-04-27T09:03:40Z</time></trkpt><trkpt lat="31.342475855479588" lon="-7.95120604042369"><ele>929.0</ele><time>2026-04-27T09:03:41Z</time></trkpt><trkpt lat="31.342391124638933" lon="-7.951079374287876"><ele>929.0</ele><time>2026-04-27T09:03:42Z</time></trkpt><trkpt lat="31.342312119871824" lon="-7.950926575403121"><ele>929.0</ele><time>2026-04-27T09:03:43Z</time></trkpt><trkpt lat="31.342251733684797" lon="-7.950764235699517"><ele>931.75</ele><time>2026-04-27T09:03:44Z</time></trkpt><trkpt lat="31.34219654671293" lon="-7.95060500367445"><ele>934.5</ele><time>2026-04-27T09:03:45Z</time></trkpt><trkpt lat="31.34214576451614" lon="-7.9504568102692525"><ele>937.25</ele><time>2026-04-27T09:03:46Z</time></trkpt><trkpt lat="31.34208821492559" lon="-7.9503222586187885"><ele>940.0</ele><time>2026-04-27T09:03:47Z</time></trkpt><trkpt lat="31.342032679194794" lon="-7.950191317946669"><ele>940.0</ele><time>2026-04-27T09:03:48Z</time></trkpt><trkpt lat="31.34198283525975" lon="-7.950071439076434"><ele>940.0</ele><time>2026-04-27T09:03:49Z</time></trkpt><trkpt lat="31.34194148059883" lon="-7.949971453946809"><ele>940.0</ele><time>2026-04-27T09:03:50Z</time></trkpt><trkpt lat="31.341904119696697" lon="-7.949889929221873"><ele>940.0</ele><time>2026-04-27T09:03:51Z</time></trkpt><trkpt lat="31.34186661083795" lon="-7.949815409024689"><ele>940.0</ele><time>2026-04-27T09:03:52Z</time></trkpt><trkpt lat="31.34176559077759" lon="-7.949720366217938"><ele>939.9999999999999</ele><time>2026-04-27T09:03:54Z</time></trkpt><trkpt lat="31.341695281851777" lon="-7.949787303537831"><ele>940.0</ele><time>2026-04-27T09:03:55Z</time></trkpt><trkpt lat="31.341631950590553" lon="-7.949809089923494"><ele>940.0</ele><time>2026-04-27T09:03:56Z</time></trkpt><trkpt lat="31.341580236952815" lon="-7.949858264864422"><ele>940.0</ele><time>2026-04-27T09:03:57Z</time></trkpt><trkpt lat="31.341568052517538" lon="-7.949969613960887"><ele>939.9999999999999</ele><time>2026-04-27T09:03:58Z</time></trkpt><trkpt lat="31.341573794703972" lon="-7.950111096448613"><ele>940.0</ele><time>2026-04-27T09:03:59Z</time></trkpt><trkpt lat="31.341608221339598" lon="-7.950266004428549"><ele>940.0</ele><time>2026-04-27T09:04:00Z</time></trkpt><trkpt lat="31.341659691925575" lon="-7.950422866825279"><ele>940.0</ele><time>2026-04-27T09:04:01Z</time></trkpt><trkpt lat="31.341708382071676" lon="-7.950587531595675"><ele>940.0</ele><time>2026-04-27T09:04:02Z</time></trkpt><trkpt lat="31.341739346521347" lon="-7.950753893081982"><ele>940.0</ele><time>2026-04-27T09:04:03Z</time></trkpt><trkpt lat="31.34174910117682" lon="-7.9509160836460495"><ele>939.5</ele><time>2026-04-27T09:04:04Z</time></trkpt><trkpt lat="31.341753828051193" lon="-7.951067125802739"><ele>939.0</ele><time>2026-04-27T09:04:05Z</time></trkpt><trkpt lat="31.341772085514226" lon="-7.95120755329861"><ele>938.5</ele><time>2026-04-27T09:04:06Z</time></trkpt><trkpt lat="31.341803643098967" lon="-7.951331975116902"><ele>938.0</ele><time>2026-04-27T09:04:07Z</time></trkpt><trkpt lat="31.341842018163305" lon="-7.951435868784233"><ele>938.0000000000001</ele><time>2026-04-27T09:04:08Z</time></trkpt><trkpt lat="31.341880177582397" lon="-7.951529645826672"><ele>938.0</ele><time>2026-04-27T09:04:09Z</time></trkpt><trkpt lat="31.341920977574276" lon="-7.95162189323591"><ele>938.0</ele><time>2026-04-27T09:04:10Z</time></trkpt><trkpt lat="31.34195436012805" lon="-7.951714603651969"><ele>938.0</ele><time>2026-04-27T09:04:11Z</time></trkpt><trkpt lat="31.34198437234621" lon="-7.9517996363138"><ele>938.0000000000001</ele><time>2026-04-27T09:04:12Z</time></trkpt><trkpt lat="31.34201355599234" lon="-7.951885825548559"><ele>938.0</ele><time>2026-04-27T09:04:13Z</time></trkpt><trkpt lat="31.34203227437119" lon="-7.951967726046169"><ele>936.0000000000001</ele><time>2026-04-27T09:04:14Z</time></trkpt><trkpt lat="31.342064717725197" lon="-7.952046397003082"><ele>934.0</ele><time>2026-04-27T09:04:15Z</time></trkpt><trkpt lat="31.342036048423548" lon="-7.9521440689270735"><ele>932.0</ele><time>2026-04-27T09:04:16Z</time></trkpt><trkpt lat="31.341954783678357" lon="-7.952172598282275"><ele>930.0</ele><time>2026-04-27T09:04:17Z</time></trkpt><trkpt lat="31.341890602411468" lon="-7.952188389051745"><ele>928.0000000000001</ele><time>2026-04-27T09:04:18Z</time></trkpt><trkpt lat="31.341831410292755" lon="-7.952157480138703"><ele>926.0</ele><time>2026-04-27T09:04:19Z</time></trkpt><trkpt lat="31.34177974045404" lon="-7.952078117312719"><ele>926.0</ele><time>2026-04-27T09:04:20Z</time></trkpt><trkpt lat="31.341720323750963" lon="-7.951970573055639"><ele>926.0</ele><time>2026-04-27T09:04:21Z</time></trkpt><trkpt lat="31.341632443476488" lon="-7.951851729807525"><ele>926.0</ele><time>2026-04-27T09:04:22Z</time></trkpt><trkpt lat="31.341520811175336" lon="-7.951731225758863"><ele>926.0</ele><time>2026-04-27T09:04:23Z</time></trkpt><trkpt lat="31.341394128580387" lon="-7.951591319968798"><ele>926.3333333333334</ele><time>2026-04-27T09:04:24Z</time></trkpt><trkpt lat="31.341257680285512" lon="-7.951431452815128"><ele>926.6666666666667</ele><time>2026-04-27T09:04:25Z</time></trkpt><trkpt lat="31.34112835837373" lon="-7.951274356725074"><ele>927.0</ele><time>2026-04-27T09:04:26Z</time></trkpt><trkpt lat="31.340979500362423" lon="-7.951136608976763"><ele>927.0</ele><time>2026-04-27T09:04:27Z</time></trkpt><trkpt lat="31.34083899438832" lon="-7.950992263165152"><ele>927.0</ele><time>2026-04-27T09:04:28Z</time></trkpt><trkpt lat="31.34069451735324" lon="-7.9508442564770885"><ele>927.0</ele><time>2026-04-27T09:04:29Z</time></trkpt><trkpt lat="31.340537589510586" lon="-7.95068485230371"><ele>928.3333333333333</ele><time>2026-04-27T09:04:30Z</time></trkpt><trkpt lat="31.340389623293646" lon="-7.9505105095480815"><ele>929.6666666666666</ele><time>2026-04-27T09:04:31Z</time></trkpt><trkpt lat="31.340237706798835" lon="-7.950336619166335"><ele>931.0</ele><time>2026-04-27T09:04:32Z</time></trkpt><trkpt lat="31.34010416705031" lon="-7.950164918334996"><ele>936.3333333333333</ele><time>2026-04-27T09:04:33Z</time></trkpt><trkpt lat="31.339986946554788" lon="-7.949996901496959"><ele>941.6666666666667</ele><time>2026-04-27T09:04:34Z</time></trkpt><trkpt lat="31.339865581023048" lon="-7.949853915074413"><ele>947.0</ele><time>2026-04-27T09:04:35Z</time></trkpt><trkpt lat="31.339737412086652" lon="-7.949725192536467"><ele>944.0</ele><time>2026-04-27T09:04:36Z</time></trkpt><trkpt lat="31.339593906712317" lon="-7.949598045058127"><ele>941.0</ele><time>2026-04-27T09:04:37Z</time></trkpt><trkpt lat="31.339434990569956" lon="-7.94950063925794"><ele>938.0</ele><time>2026-04-27T09:04:38Z</time></trkpt><trkpt lat="31.339274307377558" lon="-7.949407818536774"><ele>938.0</ele><time>2026-04-27T09:04:39Z</time></trkpt><trkpt lat="31.339107190928097" lon="-7.949291842457745"><ele>938.0</ele><time>2026-04-27T09:04:40Z</time></trkpt><trkpt lat="31.338917442395868" lon="-7.949241194411313"><ele>938.0</ele><time>2026-04-27T09:04:41Z</time></trkpt><trkpt lat="31.33874396355581" lon="-7.949184491779334"><ele>941.0</ele><time>2026-04-27T09:04:42Z</time></trkpt><trkpt lat="31.338560577833512" lon="-7.949132504359933"><ele>944.0</ele><time>2026-04-27T09:04:43Z</time></trkpt><trkpt lat="31.338347492647937" lon="-7.9490874632649895"><ele>947.0</ele><time>2026-04-27T09:04:44Z</time></trkpt><trkpt lat="31.338126011481044" lon="-7.949040647458636"><ele>945.3333333333334</ele><time>2026-04-27T09:04:45Z</time></trkpt><trkpt lat="31.33790666059468" lon="-7.948986510563729"><ele>943.6666666666667</ele><time>2026-04-27T09:04:46Z</time></trkpt><trkpt lat="31.33768887632759" lon="-7.948931220620566"><ele>942.0</ele><time>2026-04-27T09:04:47Z</time></trkpt><trkpt lat="31.337463331531023" lon="-7.948872923385256"><ele>942.0</ele><time>2026-04-27T09:04:48Z</time></trkpt><trkpt lat="31.337241907243413" lon="-7.948825658886027"><ele>942.0</ele><time>2026-04-27T09:04:49Z</time></trkpt><trkpt lat="31.337032839758635" lon="-7.9487824356159935"><ele>942.0</ele><time>2026-04-27T09:04:50Z</time></trkpt><trkpt lat="31.3368343599822" lon="-7.948741401297661"><ele>941.0</ele><time>2026-04-27T09:04:51Z</time></trkpt><trkpt lat="31.33664686186896" lon="-7.948702461877265"><ele>940.0</ele><time>2026-04-27T09:04:52Z</time></trkpt><trkpt lat="31.336475187040687" lon="-7.948665910079457"><ele>939.0</ele><time>2026-04-27T09:04:53Z</time></trkpt><trkpt lat="31.336315517707153" lon="-7.948635793415886"><ele>939.0</ele><time>2026-04-27T09:04:54Z</time></trkpt><trkpt lat="31.336170869773465" lon="-7.948608510078801"><ele>939.0</ele><time>2026-04-27T09:04:55Z</time></trkpt><trkpt lat="31.336040852353634" lon="-7.948584570236032"><ele>939.0</ele><time>2026-04-27T09:04:56Z</time></trkpt><trkpt lat="31.335920887825196" lon="-7.9485281391975136"><ele>939.0</ele><time>2026-04-27T09:04:57Z</time></trkpt><trkpt lat="31.335809384713535" lon="-7.94848409220997"><ele>939.0</ele><time>2026-04-27T09:04:58Z</time></trkpt><trkpt lat="31.335711083571653" lon="-7.94842346688313"><ele>939.0000000000001</ele><time>2026-04-27T09:04:59Z</time></trkpt><trkpt lat="31.33563347009285" lon="-7.948341940931805"><ele>939.0000000000001</ele><time>2026-04-27T09:05:00Z</time></trkpt><trkpt lat="31.335574428715912" lon="-7.948234220328996"><ele>939.0</ele><time>2026-04-27T09:05:01Z</time></trkpt><trkpt lat="31.335515449458473" lon="-7.9481220168335955"><ele>939.0</ele><time>2026-04-27T09:05:02Z</time></trkpt><trkpt lat="31.33546855381507" lon="-7.948009791859242"><ele>939.8000000000001</ele><time>2026-04-27T09:05:03Z</time></trkpt><trkpt lat="31.335429321959783" lon="-7.947914945883577"><ele>940.6000000000001</ele><time>2026-04-27T09:05:04Z</time></trkpt><trkpt lat="31.33539490120244" lon="-7.947832027007059"><ele>941.4</ele><time>2026-04-27T09:05:05Z</time></trkpt><trkpt lat="31.33534020334833" lon="-7.94774714553273"><ele>942.2</ele><time>2026-04-27T09:05:07Z</time></trkpt><trkpt lat="31.335254384816608" lon="-7.947687726659329"><ele>943.0</ele><time>2026-04-27T09:05:09Z</time></trkpt><trkpt lat="31.335122153587683" lon="-7.947710666614549"><ele>943.0</ele><time>2026-04-27T09:05:11Z</time></trkpt><trkpt lat="31.335029832813166" lon="-7.947768676264931"><ele>943.0</ele><time>2026-04-27T09:05:12Z</time></trkpt><trkpt lat="31.334924781337946" lon="-7.947850451235891"><ele>943.0</ele><time>2026-04-27T09:05:13Z</time></trkpt><trkpt lat="31.334829593908964" lon="-7.947968292235181"><ele>943.0</ele><time>2026-04-27T09:05:14Z</time></trkpt><trkpt lat="31.334720465910795" lon="-7.948084316692198"><ele>944.6666666666666</ele><time>2026-04-27T09:05:15Z</time></trkpt><trkpt lat="31.334590624891277" lon="-7.948200610933149"><ele>946.3333333333333</ele><time>2026-04-27T09:05:16Z</time></trkpt><trkpt lat="31.33445337680625" lon="-7.948320250221488"><ele>948.0</ele><time>2026-04-27T09:05:17Z</time></trkpt><trkpt lat="31.334319271297716" lon="-7.948436853636847"><ele>949.6666666666667</ele><time>2026-04-27T09:05:18Z</time></trkpt><trkpt lat="31.334181263177392" lon="-7.948539707887089"><ele>951.3333333333334</ele><time>2026-04-27T09:05:19Z</time></trkpt><trkpt lat="31.3340788359413" lon="-7.948670137538379"><ele>953.0</ele><time>2026-04-27T09:05:20Z</time></trkpt><trkpt lat="31.33399137608716" lon="-7.948792303644916"><ele>953.0</ele><time>2026-04-27T09:05:21Z</time></trkpt><trkpt lat="31.33390831921056" lon="-7.948900428440584"><ele>953.0</ele><time>2026-04-27T09:05:22Z</time></trkpt><trkpt lat="31.333840996998088" lon="-7.949017698678003"><ele>953.0</ele><time>2026-04-27T09:05:23Z</time></trkpt><trkpt lat="31.333731526361333" lon="-7.94909590597878"><ele>953.0</ele><time>2026-04-27T09:05:24Z</time></trkpt><trkpt lat="31.333626826838344" lon="-7.949177720912513"><ele>953.0</ele><time>2026-04-27T09:05:25Z</time></trkpt><trkpt lat="31.333501679277393" lon="-7.949253986845784"><ele>953.0</ele><time>2026-04-27T09:05:26Z</time></trkpt><trkpt lat="31.33335918746557" lon="-7.949302606872772"><ele>953.0</ele><time>2026-04-27T09:05:27Z</time></trkpt><trkpt lat="31.333210377301" lon="-7.949357676756155"><ele>953.0</ele><time>2026-04-27T09:05:28Z</time></trkpt><trkpt lat="31.333042583747197" lon="-7.9494009077528265"><ele>953.0</ele><time>2026-04-27T09:05:29Z</time></trkpt><trkpt lat="31.332871501270322" lon="-7.949429166777898"><ele>953.0</ele><time>2026-04-27T09:05:30Z</time></trkpt><trkpt lat="31.332697631327047" lon="-7.949454973960722"><ele>953.0</ele><time>2026-04-27T09:05:31Z</time></trkpt><trkpt lat="31.332533078128897" lon="-7.9494766660286285"><ele>953.0</ele><time>2026-04-27T09:05:32Z</time></trkpt><trkpt lat="31.33236921730298" lon="-7.9494955000233904"><ele>953.0</ele><time>2026-04-27T09:05:33Z</time></trkpt><trkpt lat="31.33218531201239" lon="-7.949539042419961"><ele>953.0</ele><time>2026-04-27T09:05:34Z</time></trkpt><trkpt lat="31.331975592693393" lon="-7.9495626085051745"><ele>955.0</ele><time>2026-04-27T09:05:35Z</time></trkpt><trkpt lat="31.33175129758917" lon="-7.949575757900775"><ele>957.0</ele><time>2026-04-27T09:05:36Z</time></trkpt><trkpt lat="31.331511958569397" lon="-7.94957488176367"><ele>958.0</ele><time>2026-04-27T09:05:37Z</time></trkpt><trkpt lat="31.331283358076465" lon="-7.949590323387055"><ele>959.0</ele><time>2026-04-27T09:05:38Z</time></trkpt><trkpt lat="31.331038177036508" lon="-7.949618659287148"><ele>959.0</ele><time>2026-04-27T09:05:39Z</time></trkpt><trkpt lat="31.330803420274496" lon="-7.949672982633584"><ele>959.0</ele><time>2026-04-27T09:05:40Z</time></trkpt><trkpt lat="31.330572737973384" lon="-7.949728219597644"><ele>962.0</ele><time>2026-04-27T09:05:41Z</time></trkpt><trkpt lat="31.330354323070573" lon="-7.949791832994395"><ele>965.0</ele><time>2026-04-27T09:05:42Z</time></trkpt><trkpt lat="31.330128083429596" lon="-7.949862882533322"><ele>965.0</ele><time>2026-04-27T09:05:43Z</time></trkpt><trkpt lat="31.32989412390758" lon="-7.949938893609663"><ele>965.0</ele><time>2026-04-27T09:05:44Z</time></trkpt><trkpt lat="31.329669116666935" lon="-7.950027530544126"><ele>966.5</ele><time>2026-04-27T09:05:45Z</time></trkpt><trkpt lat="31.329442087150653" lon="-7.950120400442071"><ele>968.0</ele><time>2026-04-27T09:05:46Z</time></trkpt><trkpt lat="31.329225907187283" lon="-7.950208473263264"><ele>968.0</ele><time>2026-04-27T09:05:47Z</time></trkpt><trkpt lat="31.329008451037947" lon="-7.950297017670535"><ele>968.0</ele><time>2026-04-27T09:05:48Z</time></trkpt><trkpt lat="31.328779585095276" lon="-7.950377916940297"><ele>968.0</ele><time>2026-04-27T09:05:49Z</time></trkpt><trkpt lat="31.328554237108843" lon="-7.950460249736249"><ele>968.0</ele><time>2026-04-27T09:05:50Z</time></trkpt><trkpt lat="31.328336394351176" lon="-7.950538573912324"><ele>968.0</ele><time>2026-04-27T09:05:51Z</time></trkpt><trkpt lat="31.328123100298487" lon="-7.9506139208045825"><ele>968.0</ele><time>2026-04-27T09:05:52Z</time></trkpt><trkpt lat="31.32791597413802" lon="-7.950687030696836"><ele>968.0</ele><time>2026-04-27T09:05:53Z</time></trkpt><trkpt lat="31.32772064261076" lon="-7.950754914610541"><ele>968.3333333333334</ele><time>2026-04-27T09:05:54Z</time></trkpt><trkpt lat="31.32753873923896" lon="-7.9508155951343005"><ele>968.6666666666667</ele><time>2026-04-27T09:05:55Z</time></trkpt><trkpt lat="31.327360467656348" lon="-7.950840057112942"><ele>969.0</ele><time>2026-04-27T09:05:56Z</time></trkpt><trkpt lat="31.327193794880962" lon="-7.95085858483836"><ele>969.0</ele><time>2026-04-27T09:05:57Z</time></trkpt><trkpt lat="31.327017748815063" lon="-7.95081887497581"><ele>969.0</ele><time>2026-04-27T09:05:58Z</time></trkpt><trkpt lat="31.32682651330309" lon="-7.950829197042434"><ele>969.0</ele><time>2026-04-27T09:05:59Z</time></trkpt><trkpt lat="31.32663450070767" lon="-7.950823160043407"><ele>969.0</ele><time>2026-04-27T09:06:00Z</time></trkpt><trkpt lat="31.326458647018192" lon="-7.950817528941132"><ele>969.0</ele><time>2026-04-27T09:06:01Z</time></trkpt><trkpt lat="31.32629671125301" lon="-7.950813377154651"><ele>969.0</ele><time>2026-04-27T09:06:02Z</time></trkpt><trkpt lat="31.32614355540935" lon="-7.9508314001956695"><ele>969.5</ele><time>2026-04-27T09:06:03Z</time></trkpt><trkpt lat="31.325997014704843" lon="-7.950857855642963"><ele>970.0</ele><time>2026-04-27T09:06:04Z</time></trkpt><trkpt lat="31.325872220319848" lon="-7.950905387859601"><ele>970.5</ele><time>2026-04-27T09:06:05Z</time></trkpt><trkpt lat="31.325749362253518" lon="-7.95094799776163"><ele>971.0</ele><time>2026-04-27T09:06:06Z</time></trkpt><trkpt lat="31.32563094572794" lon="-7.950987791713254"><ele>968.25</ele><time>2026-04-27T09:06:07Z</time></trkpt><trkpt lat="31.325516277877636" lon="-7.951021284418275"><ele>965.5</ele><time>2026-04-27T09:06:08Z</time></trkpt><trkpt lat="31.325390327302554" lon="-7.951049128741789"><ele>962.75</ele><time>2026-04-27T09:06:09Z</time></trkpt><trkpt lat="31.325248406868624" lon="-7.951066853177998"><ele>960.0</ele><time>2026-04-27T09:06:10Z</time></trkpt><trkpt lat="31.325096218793718" lon="-7.951077091251811"><ele>960.0</ele><time>2026-04-27T09:06:11Z</time></trkpt><trkpt lat="31.324949152457624" lon="-7.951097966693279"><ele>960.0</ele><time>2026-04-27T09:06:12Z</time></trkpt><trkpt lat="31.324797202799022" lon="-7.951089655342131"><ele>960.0</ele><time>2026-04-27T09:06:13Z</time></trkpt><trkpt lat="31.324654885628107" lon="-7.9511486083862275"><ele>960.75</ele><time>2026-04-27T09:06:14Z</time></trkpt><trkpt lat="31.324509401065157" lon="-7.951203563850248"><ele>961.5</ele><time>2026-04-27T09:06:15Z</time></trkpt><trkpt lat="31.324373416742983" lon="-7.9512570352868375"><ele>962.25</ele><time>2026-04-27T09:06:16Z</time></trkpt><trkpt lat="31.324263673086726" lon="-7.951364374652554"><ele>963.0</ele><time>2026-04-27T09:06:17Z</time></trkpt><trkpt lat="31.32413813078444" lon="-7.951426014048702"><ele>963.0</ele><time>2026-04-27T09:06:18Z</time></trkpt><trkpt lat="31.324019912701036" lon="-7.951496331005268"><ele>963.0</ele><time>2026-04-27T09:06:19Z</time></trkpt><trkpt lat="31.323910447994393" lon="-7.951604057560217"><ele>963.0</ele><time>2026-04-27T09:06:20Z</time></trkpt><trkpt lat="31.323816072581256" lon="-7.951727479537566"><ele>963.0</ele><time>2026-04-27T09:06:21Z</time></trkpt><trkpt lat="31.32372783683313" lon="-7.9518662320147016"><ele>962.5</ele><time>2026-04-27T09:06:22Z</time></trkpt><trkpt lat="31.323634564121694" lon="-7.951992757883763"><ele>962.0</ele><time>2026-04-27T09:06:23Z</time></trkpt><trkpt lat="31.323567688192615" lon="-7.952131475471629"><ele>961.5</ele><time>2026-04-27T09:06:24Z</time></trkpt><trkpt lat="31.323505005981467" lon="-7.9522604333447315"><ele>961.0</ele><time>2026-04-27T09:06:25Z</time></trkpt><trkpt lat="31.32345110350225" lon="-7.952386327938514"><ele>961.0</ele><time>2026-04-27T09:06:26Z</time></trkpt><trkpt lat="31.323395881259174" lon="-7.952502708318888"><ele>961.0</ele><time>2026-04-27T09:06:27Z</time></trkpt><trkpt lat="31.323339110881356" lon="-7.95261080486784"><ele>961.0</ele><time>2026-04-27T09:06:28Z</time></trkpt><trkpt lat="31.323274992728614" lon="-7.9527162433817455"><ele>961.0</ele><time>2026-04-27T09:06:29Z</time></trkpt><trkpt lat="31.323214245737375" lon="-7.952839073553373"><ele>960.75</ele><time>2026-04-27T09:06:30Z</time></trkpt><trkpt lat="31.323132400790147" lon="-7.952939537863088"><ele>960.5</ele><time>2026-04-27T09:06:31Z</time></trkpt><trkpt lat="31.32304196389287" lon="-7.953029029908432"><ele>960.25</ele><time>2026-04-27T09:06:32Z</time></trkpt><trkpt lat="31.322939491883087" lon="-7.953110970601711"><ele>960.0</ele><time>2026-04-27T09:06:33Z</time></trkpt><trkpt lat="31.322835934376407" lon="-7.953181030086668"><ele>960.0</ele><time>2026-04-27T09:06:34Z</time></trkpt><trkpt lat="31.322732527429068" lon="-7.9532500705678455"><ele>960.0</ele><time>2026-04-27T09:06:35Z</time></trkpt><trkpt lat="31.32262958249298" lon="-7.953314631449674"><ele>960.0</ele><time>2026-04-27T09:06:36Z</time></trkpt><trkpt lat="31.322518831871548" lon="-7.9533844381885155"><ele>960.0</ele><time>2026-04-27T09:06:37Z</time></trkpt><trkpt lat="31.32240288232739" lon="-7.953463381187342"><ele>959.5</ele><time>2026-04-27T09:06:38Z</time></trkpt><trkpt lat="31.32227932135211" lon="-7.953553830963407"><ele>959.0</ele><time>2026-04-27T09:06:39Z</time></trkpt><trkpt lat="31.32216049327827" lon="-7.953645361166988"><ele>958.5</ele><time>2026-04-27T09:06:40Z</time></trkpt><trkpt lat="31.3220435791792" lon="-7.953740294507184"><ele>958.0</ele><time>2026-04-27T09:06:41Z</time></trkpt><trkpt lat="31.321942584757537" lon="-7.953842535065376"><ele>958.5</ele><time>2026-04-27T09:06:42Z</time></trkpt><trkpt lat="31.321847203221523" lon="-7.953939242266943"><ele>959.0</ele><time>2026-04-27T09:06:43Z</time></trkpt><trkpt lat="31.32175776022271" lon="-7.9540317907507925"><ele>959.5</ele><time>2026-04-27T09:06:44Z</time></trkpt><trkpt lat="31.321667786521292" lon="-7.9541221874678385"><ele>960.0</ele><time>2026-04-27T09:06:45Z</time></trkpt><trkpt lat="31.32157450573547" lon="-7.95420863664076"><ele>960.0</ele><time>2026-04-27T09:06:46Z</time></trkpt><trkpt lat="31.32146182251037" lon="-7.954296117107123"><ele>960.0</ele><time>2026-04-27T09:06:47Z</time></trkpt><trkpt lat="31.321342362378765" lon="-7.954351472131315"><ele>960.0</ele><time>2026-04-27T09:06:48Z</time></trkpt><trkpt lat="31.32120616316175" lon="-7.9543725031148025"><ele>960.0</ele><time>2026-04-27T09:06:49Z</time></trkpt><trkpt lat="31.32106933854279" lon="-7.954354272194019"><ele>960.2</ele><time>2026-04-27T09:06:50Z</time></trkpt><trkpt lat="31.320962286506074" lon="-7.954344453409336"><ele>960.4</ele><time>2026-04-27T09:06:51Z</time></trkpt><trkpt lat="31.320857986203535" lon="-7.954346947140982"><ele>960.5999999999999</ele><time>2026-04-27T09:06:52Z</time></trkpt><trkpt lat="31.320765913913995" lon="-7.954362672174277"><ele>960.8</ele><time>2026-04-27T09:06:53Z</time></trkpt><trkpt lat="31.320679673692126" lon="-7.954393579815286"><ele>961.0</ele><time>2026-04-27T09:06:54Z</time></trkpt><trkpt lat="31.320586027532165" lon="-7.954439432306636"><ele>962.1999999999999</ele><time>2026-04-27T09:06:55Z</time></trkpt><trkpt lat="31.320502191644696" lon="-7.954489726053462"><ele>963.3999999999999</ele><time>2026-04-27T09:06:56Z</time></trkpt><trkpt lat="31.3204276228002" lon="-7.954536931724039"><ele>964.6</ele><time>2026-04-27T09:06:57Z</time></trkpt><trkpt lat="31.320348166678368" lon="-7.954581876839425"><ele>965.8</ele><time>2026-04-27T09:06:58Z</time></trkpt><trkpt lat="31.32024631836575" lon="-7.954616444188053"><ele>967.0</ele><time>2026-04-27T09:06:59Z</time></trkpt><trkpt lat="31.320150320445112" lon="-7.954631671883228"><ele>966.9999999999999</ele><time>2026-04-27T09:07:00Z</time></trkpt><trkpt lat="31.3200504637008" lon="-7.954629794642287"><ele>967.0</ele><time>2026-04-27T09:07:01Z</time></trkpt><trkpt lat="31.319956781097723" lon="-7.9546154027337606"><ele>967.0</ele><time>2026-04-27T09:07:02Z</time></trkpt><trkpt lat="31.319865984771287" lon="-7.954590026719905"><ele>967.0</ele><time>2026-04-27T09:07:03Z</time></trkpt><trkpt lat="31.319790156593044" lon="-7.954556781622133"><ele>966.9999999999999</ele><time>2026-04-27T09:07:04Z</time></trkpt><trkpt lat="31.319717213548156" lon="-7.954530904113522"><ele>967.0</ele><time>2026-04-27T09:07:05Z</time></trkpt><trkpt lat="31.319639905921726" lon="-7.954512013722492"><ele>967.4999999999999</ele><time>2026-04-27T09:07:06Z</time></trkpt><trkpt lat="31.31957011884516" lon="-7.954506549434447"><ele>968.0</ele><time>2026-04-27T09:07:07Z</time></trkpt><trkpt lat="31.319490012987956" lon="-7.954509042129631"><ele>968.5</ele><time>2026-04-27T09:07:08Z</time></trkpt><trkpt lat="31.31939523394781" lon="-7.954522844074004"><ele>969.0</ele><time>2026-04-27T09:07:09Z</time></trkpt><trkpt lat="31.31931066700356" lon="-7.954550222934444"><ele>969.4999999999999</ele><time>2026-04-27T09:07:10Z</time></trkpt><trkpt lat="31.31922652028705" lon="-7.9545822261625245"><ele>970.0</ele><time>2026-04-27T09:07:11Z</time></trkpt><trkpt lat="31.319148787781486" lon="-7.954627272796596"><ele>970.0</ele><time>2026-04-27T09:07:12Z</time></trkpt><trkpt lat="31.31908367142878" lon="-7.954682152438773"><ele>970.0</ele><time>2026-04-27T09:07:13Z</time></trkpt><trkpt lat="31.319007839188647" lon="-7.954746883670974"><ele>970.0</ele><time>2026-04-27T09:07:14Z</time></trkpt><trkpt lat="31.318934058167034" lon="-7.954825968005033"><ele>970.0</ele><time>2026-04-27T09:07:15Z</time></trkpt><trkpt lat="31.31885415165421" lon="-7.9549016216768855"><ele>970.0</ele><time>2026-04-27T09:07:16Z</time></trkpt><trkpt lat="31.31879163389527" lon="-7.955006357459833"><ele>973.0</ele><time>2026-04-27T09:07:17Z</time></trkpt><trkpt lat="31.318755140005095" lon="-7.955131805244119"><ele>976.0</ele><time>2026-04-27T09:07:18Z</time></trkpt><trkpt lat="31.318717217423664" lon="-7.955263398729659"><ele>979.0</ele><time>2026-04-27T09:07:19Z</time></trkpt><trkpt lat="31.318678096580502" lon="-7.955411925426988"><ele>982.0</ele><time>2026-04-27T09:07:20Z</time></trkpt><trkpt lat="31.318664145019753" lon="-7.955566014316006"><ele>982.0</ele><time>2026-04-27T09:07:21Z</time></trkpt><trkpt lat="31.318653506853572" lon="-7.955718012037695"><ele>982.0</ele><time>2026-04-27T09:07:22Z</time></trkpt><trkpt lat="31.31864666113309" lon="-7.9558738305816945"><ele>982.0</ele><time>2026-04-27T09:07:23Z</time></trkpt><trkpt lat="31.3186371959109" lon="-7.956026516682237"><ele>982.0</ele><time>2026-04-27T09:07:24Z</time></trkpt><trkpt lat="31.318627070383013" lon="-7.956158535972479"><ele>981.8</ele><time>2026-04-27T09:07:25Z</time></trkpt><trkpt lat="31.318621741018948" lon="-7.956282413954418"><ele>981.6</ele><time>2026-04-27T09:07:26Z</time></trkpt><trkpt lat="31.31861879361986" lon="-7.956399853036582"><ele>981.3999999999999</ele><time>2026-04-27T09:07:27Z</time></trkpt><trkpt lat="31.31861973488268" lon="-7.956513548606513"><ele>981.1999999999999</ele><time>2026-04-27T09:07:28Z</time></trkpt><trkpt lat="31.31861866653424" lon="-7.956623192941361"><ele>981.0</ele><time>2026-04-27T09:07:29Z</time></trkpt><trkpt lat="31.318619623871854" lon="-7.956749983381452"><ele>981.0</ele><time>2026-04-27T09:07:30Z</time></trkpt><trkpt lat="31.31863951282582" lon="-7.956867288602436"><ele>980.9999999999999</ele><time>2026-04-27T09:07:31Z</time></trkpt><trkpt lat="31.31863237117109" lon="-7.95697170195037"><ele>980.9999999999999</ele><time>2026-04-27T09:07:32Z</time></trkpt><trkpt lat="31.3186431337966" lon="-7.957064651596432"><ele>981.0</ele><time>2026-04-27T09:07:33Z</time></trkpt><trkpt lat="31.318648650405827" lon="-7.957142031028572"><ele>981.0</ele><time>2026-04-27T09:07:34Z</time></trkpt><trkpt lat="31.318659231678264" lon="-7.957283090322192"><ele>981.0</ele><time>2026-04-27T09:07:36Z</time></trkpt><trkpt lat="31.31865429862915" lon="-7.957415442811002"><ele>980.9999999999999</ele><time>2026-04-27T09:07:38Z</time></trkpt><trkpt lat="31.318666686871243" lon="-7.957543100942451"><ele>980.9999999999999</ele><time>2026-04-27T09:07:40Z</time></trkpt><trkpt lat="31.31865721491513" lon="-7.95762589704907"><ele>981.0</ele><time>2026-04-27T09:07:41Z</time></trkpt><trkpt lat="31.318624817405862" lon="-7.957705547569329"><ele>981.0</ele><time>2026-04-27T09:07:42Z</time></trkpt><trkpt lat="31.318530006163986" lon="-7.957773972207472"><ele>979.4</ele><time>2026-04-27T09:07:43Z</time></trkpt><trkpt lat="31.318431470350273" lon="-7.957784610275047"><ele>977.8</ele><time>2026-04-27T09:07:44Z</time></trkpt><trkpt lat="31.3183365329963" lon="-7.957748514537264"><ele>976.1999999999999</ele><time>2026-04-27T09:07:45Z</time></trkpt><trkpt lat="31.318232315875235" lon="-7.957695927934505"><ele>974.5999999999999</ele><time>2026-04-27T09:07:46Z</time></trkpt><trkpt lat="31.31811825747568" lon="-7.957627353863609"><ele>973.0</ele><time>2026-04-27T09:07:47Z</time></trkpt><trkpt lat="31.31797840768336" lon="-7.957569632374494"><ele>973.0</ele><time>2026-04-27T09:07:48Z</time></trkpt><trkpt lat="31.317827025260694" lon="-7.957572047938763"><ele>973.0</ele><time>2026-04-27T09:07:49Z</time></trkpt><trkpt lat="31.317686728048002" lon="-7.957585661708768"><ele>973.0</ele><time>2026-04-27T09:07:50Z</time></trkpt><trkpt lat="31.317554680421505" lon="-7.957582227802203"><ele>973.0</ele><time>2026-04-27T09:07:51Z</time></trkpt><trkpt lat="31.31743559156647" lon="-7.957598374016177"><ele>973.0</ele><time>2026-04-27T09:07:52Z</time></trkpt><trkpt lat="31.31732894214305" lon="-7.95760578727808"><ele>973.0</ele><time>2026-04-27T09:07:53Z</time></trkpt><trkpt lat="31.31723453223641" lon="-7.957612271475951"><ele>973.0</ele><time>2026-04-27T09:07:54Z</time></trkpt><trkpt lat="31.317138423992066" lon="-7.957610185796593"><ele>973.0</ele><time>2026-04-27T09:07:55Z</time></trkpt><trkpt lat="31.31703038013917" lon="-7.95759080111647"><ele>973.0</ele><time>2026-04-27T09:07:56Z</time></trkpt><trkpt lat="31.316917740908014" lon="-7.957554808053911"><ele>975.25</ele><time>2026-04-27T09:07:57Z</time></trkpt><trkpt lat="31.31680504189513" lon="-7.95750860188891"><ele>977.5</ele><time>2026-04-27T09:07:58Z</time></trkpt><trkpt lat="31.316703875699794" lon="-7.9574392821029525"><ele>979.75</ele><time>2026-04-27T09:07:59Z</time></trkpt><trkpt lat="31.316615487502336" lon="-7.95735762220093"><ele>982.0</ele><time>2026-04-27T09:08:00Z</time></trkpt><trkpt lat="31.316539740222478" lon="-7.957278939399373"><ele>981.9999999999999</ele><time>2026-04-27T09:08:01Z</time></trkpt><trkpt lat="31.316469979117485" lon="-7.957219417381678"><ele>982.0</ele><time>2026-04-27T09:08:02Z</time></trkpt><trkpt lat="31.3163986696301" lon="-7.95717898292016"><ele>982.0</ele><time>2026-04-27T09:08:03Z</time></trkpt><trkpt lat="31.316321608738807" lon="-7.957145319902382"><ele>982.0</ele><time>2026-04-27T09:08:04Z</time></trkpt><trkpt lat="31.316228523704705" lon="-7.957150438678385"><ele>981.9999999999999</ele><time>2026-04-27T09:08:05Z</time></trkpt><trkpt lat="31.31613492393374" lon="-7.957161083336343"><ele>982.0</ele><time>2026-04-27T09:08:06Z</time></trkpt><trkpt lat="31.316022896005276" lon="-7.957168241717147"><ele>981.5</ele><time>2026-04-27T09:08:07Z</time></trkpt><trkpt lat="31.315908639471136" lon="-7.957178921650066"><ele>981.0</ele><time>2026-04-27T09:08:08Z</time></trkpt><trkpt lat="31.315782833792962" lon="-7.957194664616936"><ele>980.5</ele><time>2026-04-27T09:08:09Z</time></trkpt><trkpt lat="31.315668342084034" lon="-7.957211149094906"><ele>980.0</ele><time>2026-04-27T09:08:10Z</time></trkpt><trkpt lat="31.315551557997246" lon="-7.95722861342692"><ele>981.5</ele><time>2026-04-27T09:08:11Z</time></trkpt><trkpt lat="31.315429613640486" lon="-7.957246901636258"><ele>983.0</ele><time>2026-04-27T09:08:12Z</time></trkpt><trkpt lat="31.31529430008429" lon="-7.957267112991808"><ele>984.5</ele><time>2026-04-27T09:08:13Z</time></trkpt><trkpt lat="31.315151471627424" lon="-7.957288431389842"><ele>986.0</ele><time>2026-04-27T09:08:14Z</time></trkpt><trkpt lat="31.31500965590097" lon="-7.957309448731859"><ele>986.0</ele><time>2026-04-27T09:08:15Z</time></trkpt><trkpt lat="31.314878421160923" lon="-7.9573288501929635"><ele>985.9999999999999</ele><time>2026-04-27T09:08:16Z</time></trkpt><trkpt lat="31.31476221326883" lon="-7.957346038490707"><ele>985.9999999999999</ele><time>2026-04-27T09:08:17Z</time></trkpt><trkpt lat="31.31466845390877" lon="-7.95736553916334"><ele>986.0</ele><time>2026-04-27T09:08:18Z</time></trkpt><trkpt lat="31.31458843629526" lon="-7.957383175356569"><ele>986.0</ele><time>2026-04-27T09:08:19Z</time></trkpt><trkpt lat="31.31449242048773" lon="-7.95741872185427"><ele>985.0</ele><time>2026-04-27T09:08:21Z</time></trkpt><trkpt lat="31.31442140639338" lon="-7.957456617370117"><ele>983.9999999999999</ele><time>2026-04-27T09:08:23Z</time></trkpt><trkpt lat="31.314337593842534" lon="-7.957509343810883"><ele>982.9999999999999</ele><time>2026-04-27T09:08:25Z</time></trkpt><trkpt lat="31.314259029067838" lon="-7.9576017110271975"><ele>982.0</ele><time>2026-04-27T09:08:27Z</time></trkpt><trkpt lat="31.314207768479594" lon="-7.957663981657854"><ele>981.0</ele><time>2026-04-27T09:08:28Z</time></trkpt><trkpt lat="31.31411835138787" lon="-7.957704969337369"><ele>981.0</ele><time>2026-04-27T09:08:29Z</time></trkpt><trkpt lat="31.314080143915213" lon="-7.957804418761802"><ele>981.0</ele><time>2026-04-27T09:08:30Z</time></trkpt><trkpt lat="31.31405104017176" lon="-7.957874813150381"><ele>981.0</ele><time>2026-04-27T09:08:31Z</time></trkpt><trkpt lat="31.3140201353561" lon="-7.957985515818854"><ele>981.0</ele><time>2026-04-27T09:08:33Z</time></trkpt><trkpt lat="31.31397669819735" lon="-7.958068912414008"><ele>981.0</ele><time>2026-04-27T09:08:36Z</time></trkpt><trkpt lat="31.313925003509166" lon="-7.95815458152875"><ele>981.0</ele><time>2026-04-27T09:08:40Z</time></trkpt><trkpt lat="31.313882600693354" lon="-7.958226643741926"><ele>983.6666666666666</ele><time>2026-04-27T09:08:43Z</time></trkpt><trkpt lat="31.31383326942431" lon="-7.958323183883624"><ele>986.3333333333333</ele><time>2026-04-27T09:08:45Z</time></trkpt><trkpt lat="31.313776388379257" lon="-7.958427481016337"><ele>989.0</ele><time>2026-04-27T09:08:47Z</time></trkpt><trkpt lat="31.313733963127977" lon="-7.958510766737438"><ele>991.6666666666666</ele><time>2026-04-27T09:08:49Z</time></trkpt><trkpt lat="31.313694594978923" lon="-7.9585980058867465"><ele>994.3333333333333</ele><time>2026-04-27T09:08:51Z</time></trkpt><trkpt lat="31.313650293135833" lon="-7.958671942137345"><ele>997.0</ele><time>2026-04-27T09:08:54Z</time></trkpt><trkpt lat="31.31361108079095" lon="-7.958809451514538"><ele>998.1666666666666</ele><time>2026-04-27T09:08:56Z</time></trkpt><trkpt lat="31.31359042240562" lon="-7.958887270095122"><ele>999.3333333333333</ele><time>2026-04-27T09:08:57Z</time></trkpt><trkpt lat="31.31356061250958" lon="-7.958975740850481"><ele>1000.5</ele><time>2026-04-27T09:08:58Z</time></trkpt><trkpt lat="31.313533555382893" lon="-7.959056780803407"><ele>1001.6666666666667</ele><time>2026-04-27T09:08:59Z</time></trkpt><trkpt lat="31.313507289895686" lon="-7.959132726847986"><ele>1002.8333333333334</ele><time>2026-04-27T09:09:00Z</time></trkpt><trkpt lat="31.313476729956662" lon="-7.959218393874195"><ele>1004.0</ele><time>2026-04-27T09:09:01Z</time></trkpt><trkpt lat="31.3134479672185" lon="-7.959305212338031"><ele>1004.0</ele><time>2026-04-27T09:09:02Z</time></trkpt><trkpt lat="31.31342201997235" lon="-7.959423738081787"><ele>1004.0</ele><time>2026-04-27T09:09:03Z</time></trkpt><trkpt lat="31.31341411231808" lon="-7.959561628342118"><ele>1004.0</ele><time>2026-04-27T09:09:04Z</time></trkpt><trkpt lat="31.313439865332047" lon="-7.959703328931013"><ele>1004.0</ele><time>2026-04-27T09:09:05Z</time></trkpt><trkpt lat="31.313489723069655" lon="-7.959853229382035"><ele>1004.0</ele><time>2026-04-27T09:09:06Z</time></trkpt><trkpt lat="31.313568304094204" lon="-7.960023760311803"><ele>1004.0</ele><time>2026-04-27T09:09:07Z</time></trkpt><trkpt lat="31.313691622174982" lon="-7.960180684802656"><ele>1004.0</ele><time>2026-04-27T09:09:08Z</time></trkpt><trkpt lat="31.313809419429933" lon="-7.960347167701277"><ele>1004.75</ele><time>2026-04-27T09:09:09Z</time></trkpt><trkpt lat="31.313912820411776" lon="-7.960481109294419"><ele>1005.5</ele><time>2026-04-27T09:09:10Z</time></trkpt><trkpt lat="31.313989993081567" lon="-7.960608239229009"><ele>1006.25</ele><time>2026-04-27T09:09:11Z</time></trkpt><trkpt lat="31.314050579186752" lon="-7.960743395345011"><ele>1007.0</ele><time>2026-04-27T09:09:12Z</time></trkpt><trkpt lat="31.314076833427" lon="-7.960897727886683"><ele>1007.0</ele><time>2026-04-27T09:09:13Z</time></trkpt><trkpt lat="31.314073772507445" lon="-7.9610694602461765"><ele>1007.0</ele><time>2026-04-27T09:09:14Z</time></trkpt><trkpt lat="31.314085281717254" lon="-7.961224656624338"><ele>1007.0</ele><time>2026-04-27T09:09:15Z</time></trkpt><trkpt lat="31.314089288506164" lon="-7.96135175044656"><ele>1007.0</ele><time>2026-04-27T09:09:16Z</time></trkpt><trkpt lat="31.314092462205835" lon="-7.961453348421175"><ele>1007.0000000000001</ele><time>2026-04-27T09:09:17Z</time></trkpt><trkpt lat="31.31409521463726" lon="-7.961541460677599"><ele>1007.0</ele><time>2026-04-27T09:09:18Z</time></trkpt><trkpt lat="31.314097331410572" lon="-7.961620351648048"><ele>1007.0</ele><time>2026-04-27T09:09:19Z</time></trkpt><trkpt lat="31.314088514144977" lon="-7.9617064342440225"><ele>1007.0</ele><time>2026-04-27T09:09:20Z</time></trkpt><trkpt lat="31.314099334689303" lon="-7.961805895121764"><ele>1007.0000000000001</ele><time>2026-04-27T09:09:21Z</time></trkpt><trkpt lat="31.314111846908222" lon="-7.961915279289535"><ele>1007.0</ele><time>2026-04-27T09:09:22Z</time></trkpt><trkpt lat="31.31412570509919" lon="-7.96202655949097"><ele>1010.4000000000001</ele><time>2026-04-27T09:09:23Z</time></trkpt><trkpt lat="31.314147384206645" lon="-7.962141646610693"><ele>1013.8000000000001</ele><time>2026-04-27T09:09:24Z</time></trkpt><trkpt lat="31.314170922148534" lon="-7.962259124887405"><ele>1017.2</ele><time>2026-04-27T09:09:25Z</time></trkpt><trkpt lat="31.314195157094755" lon="-7.962369651228015"><ele>1020.6</ele><time>2026-04-27T09:09:26Z</time></trkpt><trkpt lat="31.314230847601404" lon="-7.962476863336959"><ele>1024.0</ele><time>2026-04-27T09:09:27Z</time></trkpt><trkpt lat="31.314281686581115" lon="-7.962586258848403"><ele>1028.75</ele><time>2026-04-27T09:09:28Z</time></trkpt><trkpt lat="31.314345660197986" lon="-7.962695772148114"><ele>1033.5</ele><time>2026-04-27T09:09:29Z</time></trkpt><trkpt lat="31.314417538852318" lon="-7.962808704422983"><ele>1038.25</ele><time>2026-04-27T09:09:30Z</time></trkpt><trkpt lat="31.314491532927637" lon="-7.962936625538784"><ele>1043.0</ele><time>2026-04-27T09:09:31Z</time></trkpt><trkpt lat="31.314581742473962" lon="-7.963043362387773"><ele>1043.0</ele><time>2026-04-27T09:09:32Z</time></trkpt><trkpt lat="31.31467337779922" lon="-7.9631328799072545"><ele>1043.0</ele><time>2026-04-27T09:09:33Z</time></trkpt><trkpt lat="31.314766570285258" lon="-7.963224393951349"><ele>1043.0</ele><time>2026-04-27T09:09:34Z</time></trkpt><trkpt lat="31.31484336690383" lon="-7.963296349314955"><ele>1043.0</ele><time>2026-04-27T09:09:35Z</time></trkpt><trkpt lat="31.314907777397853" lon="-7.963362480595089"><ele>1043.0</ele><time>2026-04-27T09:09:36Z</time></trkpt><trkpt lat="31.314970295146296" lon="-7.963409953383611"><ele>1037.6666666666667</ele><time>2026-04-27T09:09:37Z</time></trkpt><trkpt lat="31.315034706808273" lon="-7.963458955661902"><ele>1032.3333333333335</ele><time>2026-04-27T09:09:38Z</time></trkpt><trkpt lat="31.31510751144565" lon="-7.963506579168382"><ele>1027.0</ele><time>2026-04-27T09:09:39Z</time></trkpt><trkpt lat="31.315180638486027" lon="-7.963520037473353"><ele>1021.6666666666667</ele><time>2026-04-27T09:09:40Z</time></trkpt><trkpt lat="31.31528180524178" lon="-7.963557330665687"><ele>1016.3333333333334</ele><time>2026-04-27T09:09:42Z</time></trkpt><trkpt lat="31.315363647008446" lon="-7.963558467220036"><ele>1011.0</ele><time>2026-04-27T09:09:44Z</time></trkpt><trkpt lat="31.315491100844767" lon="-7.9636350068722725"><ele>1011.0</ele><time>2026-04-27T09:09:46Z</time></trkpt><trkpt lat="31.315536581824873" lon="-7.963686136338014"><ele>1010.9999999999999</ele><time>2026-04-27T09:09:47Z</time></trkpt><trkpt lat="31.31554830554371" lon="-7.963786424697681"><ele>1010.9999999999999</ele><time>2026-04-27T09:09:48Z</time></trkpt><trkpt lat="31.31550495556024" lon="-7.963891003176568"><ele>1011.0</ele><time>2026-04-27T09:09:49Z</time></trkpt><trkpt lat="31.31542185173576" lon="-7.963951900428069"><ele>1011.0</ele><time>2026-04-27T09:09:50Z</time></trkpt><trkpt lat="31.315315986062735" lon="-7.963920250909444"><ele>1011.0</ele><time>2026-04-27T09:09:51Z</time></trkpt><trkpt lat="31.315224979257465" lon="-7.963870499460395"><ele>1011.0</ele><time>2026-04-27T09:09:52Z</time></trkpt><trkpt lat="31.31512409760179" lon="-7.963788635161146"><ele>1011.0</ele><time>2026-04-27T09:09:53Z</time></trkpt><trkpt lat="31.315003947152515" lon="-7.963692841755662"><ele>1011.0</ele><time>2026-04-27T09:09:54Z</time></trkpt><trkpt lat="31.314873257824036" lon="-7.963594568461007"><ele>1019.6666666666667</ele><time>2026-04-27T09:09:55Z</time></trkpt><trkpt lat="31.314726453353487" lon="-7.96348160752829"><ele>1028.3333333333335</ele><time>2026-04-27T09:09:56Z</time></trkpt><trkpt lat="31.314564470245422" lon="-7.9633720326579684"><ele>1037.0</ele><time>2026-04-27T09:09:57Z</time></trkpt><trkpt lat="31.314424887465986" lon="-7.963237349861107"><ele>1039.0</ele><time>2026-04-27T09:09:58Z</time></trkpt><trkpt lat="31.314296667905115" lon="-7.9631065709949365"><ele>1041.0</ele><time>2026-04-27T09:09:59Z</time></trkpt><trkpt lat="31.314176889972458" lon="-7.962973942282608"><ele>1043.0</ele><time>2026-04-27T09:10:00Z</time></trkpt><trkpt lat="31.314059375494008" lon="-7.962840746279842"><ele>1043.0</ele><time>2026-04-27T09:10:01Z</time></trkpt><trkpt lat="31.313934083083137" lon="-7.962667657399895"><ele>1043.0</ele><time>2026-04-27T09:10:02Z</time></trkpt><trkpt lat="31.313872012188916" lon="-7.962447449671019"><ele>1043.0</ele><time>2026-04-27T09:10:03Z</time></trkpt><trkpt lat="31.313853641085565" lon="-7.9622476698351665"><ele>1043.5</ele><time>2026-04-27T09:10:04Z</time></trkpt><trkpt lat="31.31382011147511" lon="-7.962071527932119"><ele>1044.0</ele><time>2026-04-27T09:10:05Z</time></trkpt><trkpt lat="31.31380394521826" lon="-7.961918159876441"><ele>1044.5</ele><time>2026-04-27T09:10:06Z</time></trkpt><trkpt lat="31.313764046016093" lon="-7.961797148337164"><ele>1045.0</ele><time>2026-04-27T09:10:07Z</time></trkpt><trkpt lat="31.31371983199555" lon="-7.961695937182092"><ele>1045.0</ele><time>2026-04-27T09:10:08Z</time></trkpt><trkpt lat="31.313687326323528" lon="-7.961585059225119"><ele>1045.0</ele><time>2026-04-27T09:10:09Z</time></trkpt><trkpt lat="31.313614262785233" lon="-7.961498119021977"><ele>1045.0</ele><time>2026-04-27T09:10:10Z</time></trkpt><trkpt lat="31.313528794619316" lon="-7.961449721247267"><ele>1045.0</ele><time>2026-04-27T09:10:11Z</time></trkpt><trkpt lat="31.313433280361085" lon="-7.96143973271814"><ele>1045.0</ele><time>2026-04-27T09:10:12Z</time></trkpt><trkpt lat="31.313322979080326" lon="-7.961470346128662"><ele>1045.0</ele><time>2026-04-27T09:10:13Z</time></trkpt><trkpt lat="31.313209542559505" lon="-7.961564045998288"><ele>1045.0</ele><time>2026-04-27T09:10:14Z</time></trkpt><trkpt lat="31.31307561934994" lon="-7.961653290771533"><ele>1045.0</ele><time>2026-04-27T09:10:15Z</time></trkpt><trkpt lat="31.31295579984328" lon="-7.96173288003595"><ele>1045.0</ele><time>2026-04-27T09:10:16Z</time></trkpt><trkpt lat="31.312863981581113" lon="-7.961797878824762"><ele>1047.4</ele><time>2026-04-27T09:10:17Z</time></trkpt><trkpt lat="31.312779422920798" lon="-7.96184555964915"><ele>1049.8</ele><time>2026-04-27T09:10:18Z</time></trkpt><trkpt lat="31.312697600556536" lon="-7.961846731482685"><ele>1052.2</ele><time>2026-04-27T09:10:19Z</time></trkpt><trkpt lat="31.312578353507437" lon="-7.961771760143538"><ele>1054.6</ele><time>2026-04-27T09:10:21Z</time></trkpt><trkpt lat="31.312571765669478" lon="-7.9616113948411895"><ele>1057.0</ele><time>2026-04-27T09:10:22Z</time></trkpt><trkpt lat="31.31262035641724" lon="-7.961468888799886"><ele>1057.0</ele><time>2026-04-27T09:10:23Z</time></trkpt><trkpt lat="31.312618995588892" lon="-7.961307668480463"><ele>1057.0</ele><time>2026-04-27T09:10:24Z</time></trkpt><trkpt lat="31.312620339438393" lon="-7.961133332159979"><ele>1057.0</ele><time>2026-04-27T09:10:25Z</time></trkpt><trkpt lat="31.3126071057328" lon="-7.96092195488289"><ele>1055.3333333333333</ele><time>2026-04-27T09:10:26Z</time></trkpt><trkpt lat="31.312578616209414" lon="-7.960699922629226"><ele>1053.6666666666667</ele><time>2026-04-27T09:10:27Z</time></trkpt><trkpt lat="31.312550633645778" lon="-7.960472399337054"><ele>1052.0</ele><time>2026-04-27T09:10:28Z</time></trkpt><trkpt lat="31.31253393853973" lon="-7.960239612263969"><ele>1051.6666666666667</ele><time>2026-04-27T09:10:29Z</time></trkpt><trkpt lat="31.31250294459379" lon="-7.9600263131829765"><ele>1051.3333333333333</ele><time>2026-04-27T09:10:30Z</time></trkpt><trkpt lat="31.31247726335268" lon="-7.959837340592745"><ele>1051.0</ele><time>2026-04-27T09:10:31Z</time></trkpt><trkpt lat="31.312453023130875" lon="-7.95966280231045"><ele>1051.0</ele><time>2026-04-27T09:10:32Z</time></trkpt><trkpt lat="31.3124401613934" lon="-7.959508372912983"><ele>1051.0</ele><time>2026-04-27T09:10:33Z</time></trkpt><trkpt lat="31.31243684185709" lon="-7.959375800983523"><ele>1051.0</ele><time>2026-04-27T09:10:34Z</time></trkpt><trkpt lat="31.312445688828042" lon="-7.959269736050062"><ele>1051.0</ele><time>2026-04-27T09:10:35Z</time></trkpt><trkpt lat="31.312455962961693" lon="-7.959174731826394"><ele>1051.0</ele><time>2026-04-27T09:10:36Z</time></trkpt><trkpt lat="31.31244985313765" lon="-7.9590811372008545"><ele>1050.6</ele><time>2026-04-27T09:10:37Z</time></trkpt><trkpt lat="31.31241870000216" lon="-7.958987931455528"><ele>1050.1999999999998</ele><time>2026-04-27T09:10:38Z</time></trkpt><trkpt lat="31.312352411469014" lon="-7.958915241477411"><ele>1049.8000000000002</ele><time>2026-04-27T09:10:39Z</time></trkpt><trkpt lat="31.31225154171817" lon="-7.958851114851411"><ele>1049.4</ele><time>2026-04-27T09:10:40Z</time></trkpt><trkpt lat="31.31211713451535" lon="-7.958799627586679"><ele>1049.0</ele><time>2026-04-27T09:10:41Z</time></trkpt><trkpt lat="31.31196887120453" lon="-7.95875420018706"><ele>1054.75</ele><time>2026-04-27T09:10:42Z</time></trkpt><trkpt lat="31.31183666483842" lon="-7.958719238599407"><ele>1060.5</ele><time>2026-04-27T09:10:43Z</time></trkpt><trkpt lat="31.311710319673693" lon="-7.958700219671032"><ele>1066.25</ele><time>2026-04-27T09:10:44Z</time></trkpt><trkpt lat="31.31158877984056" lon="-7.9586817796366995"><ele>1072.0</ele><time>2026-04-27T09:10:45Z</time></trkpt><trkpt lat="31.311467784911283" lon="-7.958748713332501"><ele>1067.5</ele><time>2026-04-27T09:10:46Z</time></trkpt><trkpt lat="31.31135516439634" lon="-7.958814405917586"><ele>1063.0</ele><time>2026-04-27T09:10:47Z</time></trkpt><trkpt lat="31.311259861984816" lon="-7.958914744855062"><ele>1058.5</ele><time>2026-04-27T09:10:48Z</time></trkpt><trkpt lat="31.311184868938554" lon="-7.959035901150922"><ele>1054.0</ele><time>2026-04-27T09:10:49Z</time></trkpt><trkpt lat="31.311094946800562" lon="-7.959148750930335"><ele>1059.5</ele><time>2026-04-27T09:10:50Z</time></trkpt><trkpt lat="31.310970288894893" lon="-7.959217816850617"><ele>1065.0</ele><time>2026-04-27T09:10:51Z</time></trkpt><trkpt lat="31.31082175703687" lon="-7.959204788904375"><ele>1070.5</ele><time>2026-04-27T09:10:52Z</time></trkpt><trkpt lat="31.31066565301518" lon="-7.9592201745426925"><ele>1076.0</ele><time>2026-04-27T09:10:53Z</time></trkpt><trkpt lat="31.310539010052633" lon="-7.959247957091148"><ele>1064.5</ele><time>2026-04-27T09:10:54Z</time></trkpt><trkpt lat="31.310427890374452" lon="-7.9592762617457256"><ele>1053.0</ele><time>2026-04-27T09:10:55Z</time></trkpt><trkpt lat="31.310362489437665" lon="-7.959433388637363"><ele>1041.5</ele><time>2026-04-27T09:10:56Z</time></trkpt><trkpt lat="31.310318231052964" lon="-7.959538866365052"><ele>1030.0</ele><time>2026-04-27T09:10:57Z</time></trkpt><trkpt lat="31.310391100195467" lon="-7.959647817901404"><ele>1030.0</ele><time>2026-04-27T09:10:58Z</time></trkpt><trkpt lat="31.310406965285605" lon="-7.959787309790314"><ele>1030.0</ele><time>2026-04-27T09:10:59Z</time></trkpt><trkpt lat="31.310477552210774" lon="-7.9598621685997495"><ele>1030.0</ele><time>2026-04-27T09:11:00Z</time></trkpt><trkpt lat="31.31054709280899" lon="-7.959894358802168"><ele>1030.0</ele><time>2026-04-27T09:11:01Z</time></trkpt><trkpt lat="31.310621090364133" lon="-7.959959820470927"><ele>1030.0</ele><time>2026-04-27T09:11:02Z</time></trkpt><trkpt lat="31.310686396406652" lon="-7.960017840115358"><ele>1045.0</ele><time>2026-04-27T09:11:03Z</time></trkpt><trkpt lat="31.310745054922474" lon="-7.960097682754319"><ele>1060.0</ele><time>2026-04-27T09:11:04Z</time></trkpt><trkpt lat="31.310768480426162" lon="-7.960244952181883"><ele>1075.0</ele><time>2026-04-27T09:11:05Z</time></trkpt><trkpt lat="31.310738655021417" lon="-7.960400632971928"><ele>1090.0</ele><time>2026-04-27T09:11:06Z</time></trkpt><trkpt lat="31.310710066233387" lon="-7.960565039831665"><ele>1090.0</ele><time>2026-04-27T09:11:07Z</time></trkpt><trkpt lat="31.310701828355203" lon="-7.960726686000822"><ele>1090.0</ele><time>2026-04-27T09:11:08Z</time></trkpt><trkpt lat="31.310668135617988" lon="-7.960863111069828"><ele>1090.0</ele><time>2026-04-27T09:11:09Z</time></trkpt><trkpt lat="31.310634614745343" lon="-7.960995052742687"><ele>1090.0</ele><time>2026-04-27T09:11:10Z</time></trkpt><trkpt lat="31.31060222994691" lon="-7.961128911183367"><ele>1091.0</ele><time>2026-04-27T09:11:11Z</time></trkpt><trkpt lat="31.31053805333519" lon="-7.96124613447529"><ele>1092.0</ele><time>2026-04-27T09:11:12Z</time></trkpt><trkpt lat="31.31040122131433" lon="-7.961314511457209"><ele>1093.0</ele><time>2026-04-27T09:11:13Z</time></trkpt><trkpt lat="31.310243601551633" lon="-7.961346167083181"><ele>1094.0</ele><time>2026-04-27T09:11:14Z</time></trkpt><trkpt lat="31.310067322858814" lon="-7.961416082834421"><ele>1094.0</ele><time>2026-04-27T09:11:15Z</time></trkpt><trkpt lat="31.30986446838206" lon="-7.961495321198323"><ele>1094.0</ele><time>2026-04-27T09:11:16Z</time></trkpt><trkpt lat="31.30963708171062" lon="-7.9615579390313345"><ele>1094.0</ele><time>2026-04-27T09:11:17Z</time></trkpt><trkpt lat="31.309401285329013" lon="-7.961600730611286"><ele>1091.5</ele><time>2026-04-27T09:11:18Z</time></trkpt><trkpt lat="31.309219816674165" lon="-7.961643525273127"><ele>1089.0</ele><time>2026-04-27T09:11:19Z</time></trkpt><trkpt lat="31.309085492014137" lon="-7.961684033853367"><ele>1086.5</ele><time>2026-04-27T09:11:20Z</time></trkpt><trkpt lat="31.308976539930907" lon="-7.961717219746926"><ele>1084.0</ele><time>2026-04-27T09:11:21Z</time></trkpt><trkpt lat="31.308885371039583" lon="-7.961743277565292"><ele>1081.8333333333333</ele><time>2026-04-27T09:11:22Z</time></trkpt><trkpt lat="31.308805923256596" lon="-7.961773040379115"><ele>1079.6666666666665</ele><time>2026-04-27T09:11:23Z</time></trkpt><trkpt lat="31.30873886251747" lon="-7.961810430948854"><ele>1077.5</ele><time>2026-04-27T09:11:24Z</time></trkpt><trkpt lat="31.308682648716808" lon="-7.961872686917354"><ele>1075.3333333333333</ele><time>2026-04-27T09:11:25Z</time></trkpt><trkpt lat="31.308624808543172" lon="-7.961926708652267"><ele>1073.1666666666667</ele><time>2026-04-27T09:11:26Z</time></trkpt><trkpt lat="31.308575912296313" lon="-7.961996801436851"><ele>1071.0</ele><time>2026-04-27T09:11:27Z</time></trkpt><trkpt lat="31.308534451567702" lon="-7.962071157269029"><ele>1071.0</ele><time>2026-04-27T09:11:28Z</time></trkpt><trkpt lat="31.308532672506338" lon="-7.962146875049936"><ele>1071.0</ele><time>2026-04-27T09:11:29Z</time></trkpt><trkpt lat="31.30850776279027" lon="-7.962294834446795"><ele>1071.0</ele><time>2026-04-27T09:11:31Z</time></trkpt><trkpt lat="31.30851109304659" lon="-7.96237429270072"><ele>1071.0</ele><time>2026-04-27T09:11:32Z</time></trkpt><trkpt lat="31.308507722605587" lon="-7.962450998321628"><ele>1071.0</ele><time>2026-04-27T09:11:33Z</time></trkpt><trkpt lat="31.30851598849155" lon="-7.962566907581392"><ele>1071.0</ele><time>2026-04-27T09:11:35Z</time></trkpt><trkpt lat="31.308533017242823" lon="-7.962698081372538"><ele>1070.3999999999999</ele><time>2026-04-27T09:11:37Z</time></trkpt><trkpt lat="31.308559888118275" lon="-7.9627999039638535"><ele>1069.8</ele><time>2026-04-27T09:11:39Z</time></trkpt><trkpt lat="31.308623574535257" lon="-7.962904827861478"><ele>1069.1999999999998</ele><time>2026-04-27T09:11:41Z</time></trkpt><trkpt lat="31.30870595838789" lon="-7.96298461962278"><ele>1068.6</ele><time>2026-04-27T09:11:43Z</time></trkpt><trkpt lat="31.30878380011275" lon="-7.963026600467366"><ele>1068.0</ele><time>2026-04-27T09:11:45Z</time></trkpt><trkpt lat="31.308881811889336" lon="-7.963097109459219"><ele>1073.0</ele><time>2026-04-27T09:11:47Z</time></trkpt><trkpt lat="31.30892055429339" lon="-7.96317308923656"><ele>1078.0</ele><time>2026-04-27T09:11:48Z</time></trkpt><trkpt lat="31.308964501614977" lon="-7.963240278683283"><ele>1083.0</ele><time>2026-04-27T09:11:49Z</time></trkpt><trkpt lat="31.308976150459408" lon="-7.96333410700505"><ele>1088.0</ele><time>2026-04-27T09:11:50Z</time></trkpt><trkpt lat="31.308955760106475" lon="-7.9634425815425285"><ele>1093.0</ele><time>2026-04-27T09:11:51Z</time></trkpt><trkpt lat="31.308877763529157" lon="-7.963569037147377"><ele>1093.0</ele><time>2026-04-27T09:11:52Z</time></trkpt><trkpt lat="31.308757387060787" lon="-7.963694663593713"><ele>1093.0</ele><time>2026-04-27T09:11:53Z</time></trkpt><trkpt lat="31.30862066059043" lon="-7.963819738587633"><ele>1093.0</ele><time>2026-04-27T09:11:54Z</time></trkpt><trkpt lat="31.308463830649988" lon="-7.963939540579617"><ele>1093.0</ele><time>2026-04-27T09:11:55Z</time></trkpt><trkpt lat="31.30831839766377" lon="-7.964021211571902"><ele>1093.0</ele><time>2026-04-27T09:11:56Z</time></trkpt><trkpt lat="31.308200776911583" lon="-7.964143690198695"><ele>1093.0</ele><time>2026-04-27T09:11:57Z</time></trkpt><trkpt lat="31.308087288001534" lon="-7.964301716842806"><ele>1093.3333333333333</ele><time>2026-04-27T09:11:58Z</time></trkpt><trkpt lat="31.307938778009007" lon="-7.964493762747904"><ele>1093.6666666666667</ele><time>2026-04-27T09:11:59Z</time></trkpt><trkpt lat="31.30776399816808" lon="-7.964659437848141"><ele>1094.0</ele><time>2026-04-27T09:12:00Z</time></trkpt><trkpt lat="31.307597937556977" lon="-7.964819671508212"><ele>1094.0</ele><time>2026-04-27T09:12:01Z</time></trkpt><trkpt lat="31.307425841992096" lon="-7.964951601739226"><ele>1094.0</ele><time>2026-04-27T09:12:02Z</time></trkpt><trkpt lat="31.307238425008087" lon="-7.965039582236004"><ele>1094.0</ele><time>2026-04-27T09:12:03Z</time></trkpt><trkpt lat="31.3070645446349" lon="-7.965127827654567"><ele>1102.3333333333335</ele><time>2026-04-27T09:12:04Z</time></trkpt><trkpt lat="31.306887128904393" lon="-7.965172470457309"><ele>1110.6666666666667</ele><time>2026-04-27T09:12:05Z</time></trkpt><trkpt lat="31.306687886383045" lon="-7.965214431835829"><ele>1119.0</ele><time>2026-04-27T09:12:06Z</time></trkpt><trkpt lat="31.306477517999845" lon="-7.965226552089353"><ele>1122.6666666666667</ele><time>2026-04-27T09:12:07Z</time></trkpt><trkpt lat="31.306288974039028" lon="-7.965193936708593"><ele>1126.3333333333335</ele><time>2026-04-27T09:12:08Z</time></trkpt><trkpt lat="31.30612691841716" lon="-7.96510284200311"><ele>1130.0</ele><time>2026-04-27T09:12:09Z</time></trkpt><trkpt lat="31.305957104427367" lon="-7.96502646968147"><ele>1115.3333333333335</ele><time>2026-04-27T09:12:10Z</time></trkpt><trkpt lat="31.305769407377166" lon="-7.964962437202989"><ele>1100.6666666666667</ele><time>2026-04-27T09:12:11Z</time></trkpt><trkpt lat="31.30560691690133" lon="-7.964919355121304"><ele>1086.0</ele><time>2026-04-27T09:12:12Z</time></trkpt><trkpt lat="31.3054564807563" lon="-7.964885931315327"><ele>1086.0</ele><time>2026-04-27T09:12:13Z</time></trkpt><trkpt lat="31.305324306243318" lon="-7.9649222304147305"><ele>1086.0</ele><time>2026-04-27T09:12:14Z</time></trkpt><trkpt lat="31.305194434621523" lon="-7.964922230413152"><ele>1086.0</ele><time>2026-04-27T09:12:15Z</time></trkpt><trkpt lat="31.305064412692754" lon="-7.964849876396663"><ele>1086.0</ele><time>2026-04-27T09:12:16Z</time></trkpt><trkpt lat="31.304949756965947" lon="-7.964764716604727"><ele>1086.0</ele><time>2026-04-27T09:12:17Z</time></trkpt><trkpt lat="31.304829340124698" lon="-7.964736536955297"><ele>1086.0</ele><time>2026-04-27T09:12:18Z</time></trkpt><trkpt lat="31.304706805202667" lon="-7.964737355946991"><ele>1086.0</ele><time>2026-04-27T09:12:19Z</time></trkpt><trkpt lat="31.304554850361956" lon="-7.964735547311051"><ele>1086.0</ele><time>2026-04-27T09:12:20Z</time></trkpt><trkpt lat="31.30439727293269" lon="-7.9646954496933295"><ele>1094.3333333333333</ele><time>2026-04-27T09:12:21Z</time></trkpt><trkpt lat="31.304223571042055" lon="-7.964614903460716"><ele>1102.6666666666665</ele><time>2026-04-27T09:12:22Z</time></trkpt><trkpt lat="31.304055119986206" lon="-7.964536676786573"><ele>1111.0</ele><time>2026-04-27T09:12:23Z</time></trkpt><trkpt lat="31.303898236583567" lon="-7.96446150532441"><ele>1115.0</ele><time>2026-04-27T09:12:24Z</time></trkpt><trkpt lat="31.30376289734137" lon="-7.964375526595015"><ele>1119.0</ele><time>2026-04-27T09:12:25Z</time></trkpt><trkpt lat="31.303628785733935" lon="-7.964317508565394"><ele>1123.0</ele><time>2026-04-27T09:12:26Z</time></trkpt><trkpt lat="31.303502461558764" lon="-7.964297505531344"><ele>1127.0</ele><time>2026-04-27T09:12:27Z</time></trkpt><trkpt lat="31.303394774505197" lon="-7.964305515291642"><ele>1127.0</ele><time>2026-04-27T09:12:28Z</time></trkpt><trkpt lat="31.303296455356303" lon="-7.964280442257473"><ele>1127.0</ele><time>2026-04-27T09:12:29Z</time></trkpt><trkpt lat="31.303191653145003" lon="-7.9642726071229175"><ele>1127.0</ele><time>2026-04-27T09:12:30Z</time></trkpt><trkpt lat="31.30308006021197" lon="-7.96419244045146"><ele>1127.0</ele><time>2026-04-27T09:12:31Z</time></trkpt><trkpt lat="31.302981494823833" lon="-7.9640625278701584"><ele>1117.0</ele><time>2026-04-27T09:12:32Z</time></trkpt><trkpt lat="31.302861781180052" lon="-7.963895449792117"><ele>1107.0</ele><time>2026-04-27T09:12:33Z</time></trkpt><trkpt lat="31.302719619269872" lon="-7.9637386645051755"><ele>1097.0</ele><time>2026-04-27T09:12:34Z</time></trkpt><trkpt lat="31.30258424155986" lon="-7.963616955030802"><ele>1097.0</ele><time>2026-04-27T09:12:35Z</time></trkpt><trkpt lat="31.302471674972338" lon="-7.963514261233068"><ele>1097.0</ele><time>2026-04-27T09:12:36Z</time></trkpt><trkpt lat="31.302373700798494" lon="-7.963431977144165"><ele>1097.0</ele><time>2026-04-27T09:12:37Z</time></trkpt><trkpt lat="31.302281151168987" lon="-7.963423556686211"><ele>1097.0</ele><time>2026-04-27T09:12:38Z</time></trkpt><trkpt lat="31.302184653366787" lon="-7.9634195242998915"><ele>1095.0</ele><time>2026-04-27T09:12:39Z</time></trkpt><trkpt lat="31.302055704373952" lon="-7.9634560276321915"><ele>1093.0</ele><time>2026-04-27T09:12:40Z</time></trkpt><trkpt lat="31.301918654787823" lon="-7.963544399683643"><ele>1091.0</ele><time>2026-04-27T09:12:41Z</time></trkpt><trkpt lat="31.301774720199614" lon="-7.963638513006727"><ele>1091.0</ele><time>2026-04-27T09:12:42Z</time></trkpt><trkpt lat="31.301652731027325" lon="-7.963715605066622"><ele>1091.0</ele><time>2026-04-27T09:12:43Z</time></trkpt><trkpt lat="31.301539301679917" lon="-7.963785029017758"><ele>1091.0</ele><time>2026-04-27T09:12:44Z</time></trkpt><trkpt lat="31.301420034563474" lon="-7.963815942238246"><ele>1091.0</ele><time>2026-04-27T09:12:45Z</time></trkpt><trkpt lat="31.301309954715574" lon="-7.9638158249670195"><ele>1086.6666666666667</ele><time>2026-04-27T09:12:46Z</time></trkpt><trkpt lat="31.301215921667485" lon="-7.963810271538493"><ele>1082.3333333333335</ele><time>2026-04-27T09:12:47Z</time></trkpt><trkpt lat="31.301142074288464" lon="-7.963812851769806"><ele>1078.0</ele><time>2026-04-27T09:12:48Z</time></trkpt><trkpt lat="31.301074526259846" lon="-7.963828056709897"><ele>1073.6666666666667</ele><time>2026-04-27T09:12:49Z</time></trkpt><trkpt lat="31.301028112106493" lon="-7.9638916413798055"><ele>1069.3333333333333</ele><time>2026-04-27T09:12:50Z</time></trkpt><trkpt lat="31.300962333441987" lon="-7.963939631820818"><ele>1065.0</ele><time>2026-04-27T09:12:51Z</time></trkpt><trkpt lat="31.30091281346047" lon="-7.964072578539505"><ele>1065.0</ele><time>2026-04-27T09:12:53Z</time></trkpt><trkpt lat="31.300880730981564" lon="-7.964137292541915"><ele>1065.0</ele><time>2026-04-27T09:12:54Z</time></trkpt><trkpt lat="31.300835159540426" lon="-7.9641917023887725"><ele>1065.0</ele><time>2026-04-27T09:12:55Z</time></trkpt><trkpt lat="31.300760514565763" lon="-7.964299605362716"><ele>1065.0</ele><time>2026-04-27T09:12:57Z</time></trkpt><trkpt lat="31.300662935576707" lon="-7.964354330397017"><ele>1065.0</ele><time>2026-04-27T09:12:59Z</time></trkpt><trkpt lat="31.300600009343814" lon="-7.96435114719984"><ele>1065.0</ele><time>2026-04-27T09:13:00Z</time></trkpt><trkpt lat="31.300538443068596" lon="-7.964314466424837"><ele>1067.5</ele><time>2026-04-27T09:13:01Z</time></trkpt><trkpt lat="31.300479727027216" lon="-7.96424502339846"><ele>1070.0</ele><time>2026-04-27T09:13:02Z</time></trkpt><trkpt lat="31.30042071074961" lon="-7.964162738744255"><ele>1072.5</ele><time>2026-04-27T09:13:03Z</time></trkpt><trkpt lat="31.30035394057666" lon="-7.964079343711266"><ele>1075.0</ele><time>2026-04-27T09:13:04Z</time></trkpt><trkpt lat="31.300284237424986" lon="-7.964008081154207"><ele>1077.5</ele><time>2026-04-27T09:13:05Z</time></trkpt><trkpt lat="31.30022686241136" lon="-7.963947195799457"><ele>1080.0</ele><time>2026-04-27T09:13:06Z</time></trkpt><trkpt lat="31.300176924140793" lon="-7.9638911372253105"><ele>1080.0</ele><time>2026-04-27T09:13:07Z</time></trkpt><trkpt lat="31.300123231927614" lon="-7.963827144293344"><ele>1080.0</ele><time>2026-04-27T09:13:08Z</time></trkpt><trkpt lat="31.300060687144942" lon="-7.9637550065982925"><ele>1080.0</ele><time>2026-04-27T09:13:09Z</time></trkpt><trkpt lat="31.299994681604108" lon="-7.963685544480009"><ele>1080.0</ele><time>2026-04-27T09:13:10Z</time></trkpt><trkpt lat="31.299934307451498" lon="-7.963638039695399"><ele>1080.0</ele><time>2026-04-27T09:13:11Z</time></trkpt><trkpt lat="31.29987479242683" lon="-7.963610015968068"><ele>1080.0</ele><time>2026-04-27T09:13:12Z</time></trkpt><trkpt lat="31.299798614758075" lon="-7.963602355929808"><ele>1078.8333333333333</ele><time>2026-04-27T09:13:13Z</time></trkpt><trkpt lat="31.299722904337578" lon="-7.9636173803174755"><ele>1077.6666666666667</ele><time>2026-04-27T09:13:14Z</time></trkpt><trkpt lat="31.299671096532006" lon="-7.963682527537023"><ele>1076.5</ele><time>2026-04-27T09:13:15Z</time></trkpt><trkpt lat="31.29960398845056" lon="-7.96371268005278"><ele>1075.3333333333335</ele><time>2026-04-27T09:13:16Z</time></trkpt><trkpt lat="31.299581465070236" lon="-7.963799254421101"><ele>1074.1666666666667</ele><time>2026-04-27T09:13:17Z</time></trkpt><trkpt lat="31.299534066969183" lon="-7.963862302103401"><ele>1073.0</ele><time>2026-04-27T09:13:18Z</time></trkpt><trkpt lat="31.299485863553805" lon="-7.963948975068264"><ele>1073.0</ele><time>2026-04-27T09:13:19Z</time></trkpt><trkpt lat="31.299438130554012" lon="-7.964035047046108"><ele>1073.0</ele><time>2026-04-27T09:13:20Z</time></trkpt><trkpt lat="31.299391456075437" lon="-7.9641114793959344"><ele>1073.0</ele><time>2026-04-27T09:13:21Z</time></trkpt><trkpt lat="31.299342556879775" lon="-7.964177763290363"><ele>1073.0</ele><time>2026-04-27T09:13:22Z</time></trkpt><trkpt lat="31.299286729693257" lon="-7.964239009505966"><ele>1073.0</ele><time>2026-04-27T09:13:23Z</time></trkpt><trkpt lat="31.29921504244598" lon="-7.9642918093404855"><ele>1073.0</ele><time>2026-04-27T09:13:24Z</time></trkpt><trkpt lat="31.29913366047111" lon="-7.964312694908657"><ele>1077.5</ele><time>2026-04-27T09:13:25Z</time></trkpt><trkpt lat="31.29904526397855" lon="-7.964315878697841"><ele>1082.0</ele><time>2026-04-27T09:13:26Z</time></trkpt><trkpt lat="31.298962600572448" lon="-7.964317340306652"><ele>1086.5</ele><time>2026-04-27T09:13:27Z</time></trkpt><trkpt lat="31.298888916669668" lon="-7.964344746946444"><ele>1091.0</ele><time>2026-04-27T09:13:28Z</time></trkpt><trkpt lat="31.298806959763926" lon="-7.9643396324752"><ele>1095.5</ele><time>2026-04-27T09:13:29Z</time></trkpt><trkpt lat="31.298729467238484" lon="-7.964400650798357"><ele>1100.0</ele><time>2026-04-27T09:13:30Z</time></trkpt><trkpt lat="31.2986488167179" lon="-7.964451414528972"><ele>1100.0</ele><time>2026-04-27T09:13:31Z</time></trkpt><trkpt lat="31.298574379624885" lon="-7.964501056730829"><ele>1100.0</ele><time>2026-04-27T09:13:32Z</time></trkpt><trkpt lat="31.298483195729574" lon="-7.964561874501963"><ele>1100.0</ele><time>2026-04-27T09:13:33Z</time></trkpt><trkpt lat="31.298348916388232" lon="-7.964638923705228"><ele>1100.0</ele><time>2026-04-27T09:13:34Z</time></trkpt><trkpt lat="31.298208515297045" lon="-7.964704736815493"><ele>1100.0</ele><time>2026-04-27T09:13:35Z</time></trkpt><trkpt lat="31.298092649253306" lon="-7.964764148680675"><ele>1100.0</ele><time>2026-04-27T09:13:36Z</time></trkpt><trkpt lat="31.297990172747454" lon="-7.964809485610763"><ele>1100.0</ele><time>2026-04-27T09:13:37Z</time></trkpt><trkpt lat="31.297905317601423" lon="-7.964875063191549"><ele>1100.0</ele><time>2026-04-27T09:13:38Z</time></trkpt><trkpt lat="31.29781713952276" lon="-7.964912857627604"><ele>1100.0</ele><time>2026-04-27T09:13:39Z</time></trkpt><trkpt lat="31.297715481514093" lon="-7.964904051278241"><ele>1094.25</ele><time>2026-04-27T09:13:40Z</time></trkpt><trkpt lat="31.29761382229569" lon="-7.964836619761021"><ele>1088.5</ele><time>2026-04-27T09:13:41Z</time></trkpt><trkpt lat="31.297511855291585" lon="-7.964730019524667"><ele>1082.75</ele><time>2026-04-27T09:13:42Z</time></trkpt><trkpt lat="31.29740081086332" lon="-7.964674025579624"><ele>1077.0</ele><time>2026-04-27T09:13:43Z</time></trkpt><trkpt lat="31.297302377858465" lon="-7.964672512537229"><ele>1079.4</ele><time>2026-04-27T09:13:44Z</time></trkpt><trkpt lat="31.297198370327724" lon="-7.964700285143983"><ele>1081.8000000000002</ele><time>2026-04-27T09:13:45Z</time></trkpt><trkpt lat="31.297121219164154" lon="-7.96477129401614"><ele>1084.2</ele><time>2026-04-27T09:13:46Z</time></trkpt><trkpt lat="31.297031230786594" lon="-7.96484908162319"><ele>1086.6000000000001</ele><time>2026-04-27T09:13:47Z</time></trkpt><trkpt lat="31.29702816652691" lon="-7.964992812556666"><ele>1089.0</ele><time>2026-04-27T09:13:48Z</time></trkpt><trkpt lat="31.296969305790537" lon="-7.96518460521505"><ele>1089.0</ele><time>2026-04-27T09:13:49Z</time></trkpt><trkpt lat="31.296908705719726" lon="-7.965388460469511"><ele>1089.0</ele><time>2026-04-27T09:13:50Z</time></trkpt><trkpt lat="31.296860133286696" lon="-7.9655557024827175"><ele>1089.0</ele><time>2026-04-27T09:13:51Z</time></trkpt><trkpt lat="31.296796085529444" lon="-7.965706769516835"><ele>1089.0</ele><time>2026-04-27T09:13:52Z</time></trkpt><trkpt lat="31.296731906904277" lon="-7.965827733596169"><ele>1089.0</ele><time>2026-04-27T09:13:53Z</time></trkpt><trkpt lat="31.29662415300684" lon="-7.965902249466329"><ele>1089.0</ele><time>2026-04-27T09:13:54Z</time></trkpt><trkpt lat="31.29650889933746" lon="-7.965965913035363"><ele>1089.0</ele><time>2026-04-27T09:13:55Z</time></trkpt><trkpt lat="31.296368405646408" lon="-7.965984725466258"><ele>1091.0</ele><time>2026-04-27T09:13:56Z</time></trkpt><trkpt lat="31.29619996541611" lon="-7.965973178698792"><ele>1093.0</ele><time>2026-04-27T09:13:57Z</time></trkpt><trkpt lat="31.296049302572918" lon="-7.965954947138011"><ele>1095.0</ele><time>2026-04-27T09:13:58Z</time></trkpt><trkpt lat="31.295927780166288" lon="-7.965977525526176"><ele>1097.0</ele><time>2026-04-27T09:13:59Z</time></trkpt><trkpt lat="31.295862220687567" lon="-7.966039883843307"><ele>1097.0</ele><time>2026-04-27T09:14:00Z</time></trkpt><trkpt lat="31.29579077830993" lon="-7.96608461829488"><ele>1097.0</ele><time>2026-04-27T09:14:01Z</time></trkpt><trkpt lat="31.295790393956555" lon="-7.966208204744364"><ele>1097.0</ele><time>2026-04-27T09:14:02Z</time></trkpt><trkpt lat="31.295719598131953" lon="-7.966350564623748"><ele>1097.0</ele><time>2026-04-27T09:14:03Z</time></trkpt><trkpt lat="31.29564937894078" lon="-7.966455981168688"><ele>1097.0</ele><time>2026-04-27T09:14:04Z</time></trkpt><trkpt lat="31.295523779102876" lon="-7.966529053958899"><ele>1089.6666666666667</ele><time>2026-04-27T09:14:05Z</time></trkpt><trkpt lat="31.29535297905799" lon="-7.966560754020622"><ele>1082.3333333333333</ele><time>2026-04-27T09:14:06Z</time></trkpt><trkpt lat="31.2951938144927" lon="-7.966613706028762"><ele>1075.0</ele><time>2026-04-27T09:14:07Z</time></trkpt><trkpt lat="31.295049781720145" lon="-7.96663940197588"><ele>1075.0</ele><time>2026-04-27T09:14:08Z</time></trkpt><trkpt lat="31.294907327513567" lon="-7.966617278970471"><ele>1075.0</ele><time>2026-04-27T09:14:09Z</time></trkpt><trkpt lat="31.29475024511651" lon="-7.966590471832745"><ele>1075.0</ele><time>2026-04-27T09:14:10Z</time></trkpt><trkpt lat="31.294596966664386" lon="-7.966539688751328"><ele>1070.4</ele><time>2026-04-27T09:14:11Z</time></trkpt><trkpt lat="31.2944598367032" lon="-7.966533530795177"><ele>1065.8</ele><time>2026-04-27T09:14:12Z</time></trkpt><trkpt lat="31.29433755723316" lon="-7.966529124964532"><ele>1061.2</ele><time>2026-04-27T09:14:13Z</time></trkpt><trkpt lat="31.29426156410232" lon="-7.96657613353464"><ele>1056.6</ele><time>2026-04-27T09:14:14Z</time></trkpt><trkpt lat="31.29419548262585" lon="-7.96660141356911"><ele>1052.0</ele><time>2026-04-27T09:14:15Z</time></trkpt><trkpt lat="31.294175004073193" lon="-7.966691056178773"><ele>1065.0</ele><time>2026-04-27T09:14:16Z</time></trkpt><trkpt lat="31.294163143782885" lon="-7.966821358757746"><ele>1078.0</ele><time>2026-04-27T09:14:17Z</time></trkpt><trkpt lat="31.294107987714227" lon="-7.9669869168327985"><ele>1091.0</ele><time>2026-04-27T09:14:18Z</time></trkpt><trkpt lat="31.294062298338662" lon="-7.967124575419764"><ele>1104.0</ele><time>2026-04-27T09:14:19Z</time></trkpt><trkpt lat="31.2940265277295" lon="-7.967234644657617"><ele>1104.0</ele><time>2026-04-27T09:14:20Z</time></trkpt><trkpt lat="31.293942526705685" lon="-7.967322463044908"><ele>1104.0</ele><time>2026-04-27T09:14:21Z</time></trkpt><trkpt lat="31.293819785355776" lon="-7.967370750932602"><ele>1104.0</ele><time>2026-04-27T09:14:22Z</time></trkpt><trkpt lat="31.293682102452745" lon="-7.9673420969125655"><ele>1104.0</ele><time>2026-04-27T09:14:23Z</time></trkpt><trkpt lat="31.293516565894905" lon="-7.967317928494359"><ele>1100.0</ele><time>2026-04-27T09:14:24Z</time></trkpt><trkpt lat="31.29331056640503" lon="-7.9672472585508265"><ele>1096.0</ele><time>2026-04-27T09:14:25Z</time></trkpt><trkpt lat="31.293099222199142" lon="-7.967118664259913"><ele>1093.3333333333333</ele><time>2026-04-27T09:14:26Z</time></trkpt><trkpt lat="31.29291535267216" lon="-7.967007174891023"><ele>1090.6666666666667</ele><time>2026-04-27T09:14:27Z</time></trkpt><trkpt lat="31.292778220972195" lon="-7.966916671944825"><ele>1088.0</ele><time>2026-04-27T09:14:28Z</time></trkpt><trkpt lat="31.292651808815364" lon="-7.966872652563452"><ele>1088.0</ele><time>2026-04-27T09:14:29Z</time></trkpt><trkpt lat="31.29252971557511" lon="-7.966852429831852"><ele>1088.0</ele><time>2026-04-27T09:14:30Z</time></trkpt><trkpt lat="31.292402261450714" lon="-7.966859342856891"><ele>1088.0</ele><time>2026-04-27T09:14:31Z</time></trkpt><trkpt lat="31.292272203443385" lon="-7.9668529349414765"><ele>1088.0</ele><time>2026-04-27T09:14:32Z</time></trkpt><trkpt lat="31.292142616282586" lon="-7.966837481556277"><ele>1088.25</ele><time>2026-04-27T09:14:33Z</time></trkpt><trkpt lat="31.292025836505502" lon="-7.966756689201614"><ele>1088.5</ele><time>2026-04-27T09:14:34Z</time></trkpt><trkpt lat="31.29192493867699" lon="-7.966629623364324"><ele>1088.75</ele><time>2026-04-27T09:14:35Z</time></trkpt><trkpt lat="31.29183300600921" lon="-7.9664704916906155"><ele>1089.0</ele><time>2026-04-27T09:14:36Z</time></trkpt><trkpt lat="31.29176268761906" lon="-7.966325350892017"><ele>1086.0</ele><time>2026-04-27T09:14:37Z</time></trkpt><trkpt lat="31.29171182349187" lon="-7.96619687805174"><ele>1083.0</ele><time>2026-04-27T09:14:38Z</time></trkpt><trkpt lat="31.291682241729493" lon="-7.966042455600728"><ele>1080.0</ele><time>2026-04-27T09:14:39Z</time></trkpt><trkpt lat="31.291680798288052" lon="-7.965855170198584"><ele>1077.0</ele><time>2026-04-27T09:14:40Z</time></trkpt><trkpt lat="31.291702965516265" lon="-7.965635170125364"><ele>1075.6666666666667</ele><time>2026-04-27T09:14:41Z</time></trkpt><trkpt lat="31.291733968083687" lon="-7.965417360573255"><ele>1074.3333333333335</ele><time>2026-04-27T09:14:42Z</time></trkpt><trkpt lat="31.29177927988713" lon="-7.965209380204959"><ele>1073.0</ele><time>2026-04-27T09:14:43Z</time></trkpt><trkpt lat="31.29185282901639" lon="-7.964991792853625"><ele>1073.0</ele><time>2026-04-27T09:14:44Z</time></trkpt><trkpt lat="31.29195210880517" lon="-7.964782585416108"><ele>1073.0</ele><time>2026-04-27T09:14:45Z</time></trkpt><trkpt lat="31.292051461300616" lon="-7.96460342575589"><ele>1073.0</ele><time>2026-04-27T09:14:46Z</time></trkpt><trkpt lat="31.29212505803149" lon="-7.964441570120952"><ele>1073.0</ele><time>2026-04-27T09:14:47Z</time></trkpt><trkpt lat="31.292175188020888" lon="-7.964273685289038"><ele>1073.0</ele><time>2026-04-27T09:14:48Z</time></trkpt><trkpt lat="31.292185792453797" lon="-7.964108968550815"><ele>1073.0</ele><time>2026-04-27T09:14:49Z</time></trkpt><trkpt lat="31.292179543715196" lon="-7.963956244893916"><ele>1073.0</ele><time>2026-04-27T09:14:50Z</time></trkpt><trkpt lat="31.292167020265286" lon="-7.963807910063357"><ele>1075.0</ele><time>2026-04-27T09:14:51Z</time></trkpt><trkpt lat="31.292096954670576" lon="-7.963676351230259"><ele>1077.0</ele><time>2026-04-27T09:14:52Z</time></trkpt><trkpt lat="31.292029074080066" lon="-7.963537579303415"><ele>1079.0</ele><time>2026-04-27T09:14:53Z</time></trkpt><trkpt lat="31.291927654296554" lon="-7.9634147008236384"><ele>1081.0</ele><time>2026-04-27T09:14:54Z</time></trkpt><trkpt lat="31.291808697574634" lon="-7.9632779604738815"><ele>1079.6666666666665</ele><time>2026-04-27T09:14:55Z</time></trkpt><trkpt lat="31.291669254966724" lon="-7.9631653718597315"><ele>1078.3333333333333</ele><time>2026-04-27T09:14:56Z</time></trkpt><trkpt lat="31.291508638458183" lon="-7.963048599465199"><ele>1077.0</ele><time>2026-04-27T09:14:57Z</time></trkpt><trkpt lat="31.291322564046062" lon="-7.962965472396826"><ele>1077.0</ele><time>2026-04-27T09:14:58Z</time></trkpt><trkpt lat="31.29111292792261" lon="-7.962860887049868"><ele>1077.0</ele><time>2026-04-27T09:14:59Z</time></trkpt><trkpt lat="31.290908995025525" lon="-7.962755277073"><ele>1077.0</ele><time>2026-04-27T09:15:00Z</time></trkpt><trkpt lat="31.29071645353322" lon="-7.962647557053497"><ele>1077.0</ele><time>2026-04-27T09:15:01Z</time></trkpt><trkpt lat="31.290525865410242" lon="-7.962536916286836"><ele>1077.0</ele><time>2026-04-27T09:15:02Z</time></trkpt><trkpt lat="31.290349028436474" lon="-7.962422288118988"><ele>1075.3333333333333</ele><time>2026-04-27T09:15:03Z</time></trkpt><trkpt lat="31.29018764844296" lon="-7.962305828782042"><ele>1073.6666666666665</ele><time>2026-04-27T09:15:04Z</time></trkpt><trkpt lat="31.290049810137237" lon="-7.962212681406924"><ele>1072.0</ele><time>2026-04-27T09:15:05Z</time></trkpt><trkpt lat="31.289918757577947" lon="-7.962151356772743"><ele>1072.0</ele><time>2026-04-27T09:15:06Z</time></trkpt><trkpt lat="31.2897705114801" lon="-7.962107838532668"><ele>1072.0</ele><time>2026-04-27T09:15:07Z</time></trkpt><trkpt lat="31.289627379668236" lon="-7.962070292640953"><ele>1072.0</ele><time>2026-04-27T09:15:08Z</time></trkpt><trkpt lat="31.28949359701426" lon="-7.962021497875955"><ele>1072.0</ele><time>2026-04-27T09:15:09Z</time></trkpt><trkpt lat="31.289366345888325" lon="-7.96193175950395"><ele>1071.6666666666665</ele><time>2026-04-27T09:15:10Z</time></trkpt><trkpt lat="31.289243668063655" lon="-7.961826634730838"><ele>1071.3333333333333</ele><time>2026-04-27T09:15:11Z</time></trkpt><trkpt lat="31.28911858505113" lon="-7.961688554148602"><ele>1071.0</ele><time>2026-04-27T09:15:12Z</time></trkpt><trkpt lat="31.28898398225952" lon="-7.961530150420845"><ele>1069.3333333333333</ele><time>2026-04-27T09:15:13Z</time></trkpt><trkpt lat="31.28884172247177" lon="-7.961367439929142"><ele>1067.6666666666665</ele><time>2026-04-27T09:15:14Z</time></trkpt><trkpt lat="31.288695133450965" lon="-7.961240882421285"><ele>1066.0</ele><time>2026-04-27T09:15:15Z</time></trkpt><trkpt lat="31.288526479465137" lon="-7.961141282726988"><ele>1066.0</ele><time>2026-04-27T09:15:16Z</time></trkpt><trkpt lat="31.288332049690627" lon="-7.961049136300663"><ele>1066.0</ele><time>2026-04-27T09:15:17Z</time></trkpt><trkpt lat="31.288087419879133" lon="-7.9609569993141855"><ele>1066.5</ele><time>2026-04-27T09:15:18Z</time></trkpt><trkpt lat="31.28785318745691" lon="-7.960867645944911"><ele>1067.0</ele><time>2026-04-27T09:15:19Z</time></trkpt><trkpt lat="31.287646729454185" lon="-7.960764036879927"><ele>1067.0</ele><time>2026-04-27T09:15:20Z</time></trkpt><trkpt lat="31.287467383549842" lon="-7.960653030638847"><ele>1067.0</ele><time>2026-04-27T09:15:21Z</time></trkpt><trkpt lat="31.287296930327777" lon="-7.960518228396706"><ele>1067.0</ele><time>2026-04-27T09:15:22Z</time></trkpt><trkpt lat="31.28712273969831" lon="-7.96037569648898"><ele>1072.5</ele><time>2026-04-27T09:15:23Z</time></trkpt><trkpt lat="31.286938082602266" lon="-7.960233364016519"><ele>1078.0</ele><time>2026-04-27T09:15:24Z</time></trkpt><trkpt lat="31.286734390604735" lon="-7.9600919946024655"><ele>1073.0</ele><time>2026-04-27T09:15:25Z</time></trkpt><trkpt lat="31.28653775904216" lon="-7.959976227451327"><ele>1068.0</ele><time>2026-04-27T09:15:26Z</time></trkpt><trkpt lat="31.286360740957022" lon="-7.959872896541867"><ele>1063.0</ele><time>2026-04-27T09:15:27Z</time></trkpt><trkpt lat="31.28619584754942" lon="-7.959783329266448"><ele>1063.0</ele><time>2026-04-27T09:15:28Z</time></trkpt><trkpt lat="31.286020267995863" lon="-7.959705864107055"><ele>1063.0</ele><time>2026-04-27T09:15:29Z</time></trkpt><trkpt lat="31.285837798423703" lon="-7.959632756928296"><ele>1063.0</ele><time>2026-04-27T09:15:30Z</time></trkpt><trkpt lat="31.2856398270369" lon="-7.959572684039584"><ele>1065.5</ele><time>2026-04-27T09:15:31Z</time></trkpt><trkpt lat="31.285424337357114" lon="-7.959516420943215"><ele>1068.0</ele><time>2026-04-27T09:15:32Z</time></trkpt><trkpt lat="31.28518947655109" lon="-7.959492851394926"><ele>1068.0</ele><time>2026-04-27T09:15:33Z</time></trkpt><trkpt lat="31.284937698036998" lon="-7.959466342315391"><ele>1068.0</ele><time>2026-04-27T09:15:34Z</time></trkpt><trkpt lat="31.284711714053493" lon="-7.959444276523359"><ele>1068.0</ele><time>2026-04-27T09:15:35Z</time></trkpt><trkpt lat="31.284513215551225" lon="-7.959430023056981"><ele>1068.0</ele><time>2026-04-27T09:15:36Z</time></trkpt><trkpt lat="31.28431903862397" lon="-7.959431977620922"><ele>1068.0</ele><time>2026-04-27T09:15:37Z</time></trkpt><trkpt lat="31.284112335025586" lon="-7.959443738348178"><ele>1067.5</ele><time>2026-04-27T09:15:38Z</time></trkpt><trkpt lat="31.283883483420723" lon="-7.959462652355417"><ele>1067.0</ele><time>2026-04-27T09:15:39Z</time></trkpt><trkpt lat="31.28364870355715" lon="-7.959490669510117"><ele>1067.0</ele><time>2026-04-27T09:15:40Z</time></trkpt><trkpt lat="31.28340171136375" lon="-7.959509560166921"><ele>1067.0</ele><time>2026-04-27T09:15:41Z</time></trkpt><trkpt lat="31.283154602091077" lon="-7.959549120233068"><ele>1067.0</ele><time>2026-04-27T09:15:42Z</time></trkpt><trkpt lat="31.282912087783718" lon="-7.9595884341404854"><ele>1067.0</ele><time>2026-04-27T09:15:43Z</time></trkpt><trkpt lat="31.28267489625059" lon="-7.959623662431918"><ele>1067.0</ele><time>2026-04-27T09:15:44Z</time></trkpt><trkpt lat="31.28245896085763" lon="-7.9596675621142"><ele>1067.0</ele><time>2026-04-27T09:15:45Z</time></trkpt><trkpt lat="31.282264518814944" lon="-7.959701282933278"><ele>1067.0</ele><time>2026-04-27T09:15:46Z</time></trkpt><trkpt lat="31.28208946894315" lon="-7.959743165121514"><ele>1068.0</ele><time>2026-04-27T09:15:47Z</time></trkpt><trkpt lat="31.281924708512886" lon="-7.959801839805181"><ele>1069.0</ele><time>2026-04-27T09:15:48Z</time></trkpt><trkpt lat="31.281757277508277" lon="-7.9598942733669595"><ele>1070.0</ele><time>2026-04-27T09:15:49Z</time></trkpt><trkpt lat="31.281589469626557" lon="-7.959999561409196"><ele>1075.6666666666667</ele><time>2026-04-27T09:15:50Z</time></trkpt><trkpt lat="31.281424512516892" lon="-7.960110978524207"><ele>1081.3333333333333</ele><time>2026-04-27T09:15:51Z</time></trkpt><trkpt lat="31.281280803317436" lon="-7.960236842745333"><ele>1087.0</ele><time>2026-04-27T09:15:52Z</time></trkpt><trkpt lat="31.281141375239066" lon="-7.960349634243128"><ele>1087.0</ele><time>2026-04-27T09:15:53Z</time></trkpt><trkpt lat="31.281017666445965" lon="-7.960447153497149"><ele>1087.0</ele><time>2026-04-27T09:15:54Z</time></trkpt><trkpt lat="31.280902609765093" lon="-7.960536134952688"><ele>1087.0</ele><time>2026-04-27T09:15:55Z</time></trkpt><trkpt lat="31.280802841406963" lon="-7.960627058137828"><ele>1087.0</ele><time>2026-04-27T09:15:56Z</time></trkpt><trkpt lat="31.280706440324906" lon="-7.9607232804278345"><ele>1087.0</ele><time>2026-04-27T09:15:57Z</time></trkpt><trkpt lat="31.280613276172886" lon="-7.960827350440561"><ele>1087.0</ele><time>2026-04-27T09:15:58Z</time></trkpt><trkpt lat="31.280505595837916" lon="-7.96096280383993"><ele>1087.0</ele><time>2026-04-27T09:15:59Z</time></trkpt><trkpt lat="31.280387373847585" lon="-7.961105059675498"><ele>1089.75</ele><time>2026-04-27T09:16:00Z</time></trkpt><trkpt lat="31.280259052238055" lon="-7.961210326367121"><ele>1092.5</ele><time>2026-04-27T09:16:01Z</time></trkpt><trkpt lat="31.280152669654456" lon="-7.961308183929866"><ele>1095.25</ele><time>2026-04-27T09:16:02Z</time></trkpt><trkpt lat="31.280067495553567" lon="-7.961405902754298"><ele>1098.0</ele><time>2026-04-27T09:16:03Z</time></trkpt><trkpt lat="31.279995655706333" lon="-7.961458917950061"><ele>1098.0</ele><time>2026-04-27T09:16:04Z</time></trkpt><trkpt lat="31.279942722492436" lon="-7.961505062014814"><ele>1098.0</ele><time>2026-04-27T09:16:05Z</time></trkpt><trkpt lat="31.279887715221744" lon="-7.96156006211973"><ele>1098.0</ele><time>2026-04-27T09:16:07Z</time></trkpt><trkpt lat="31.279706614391873" lon="-7.9616457187091365"><ele>1098.0</ele><time>2026-04-27T09:20:08Z</time></trkpt><trkpt lat="31.279597648355733" lon="-7.961709443763134"><ele>1103.3333333333333</ele><time>2026-04-27T09:20:09Z</time></trkpt><trkpt lat="31.279473868165667" lon="-7.961812078369457"><ele>1108.6666666666665</ele><time>2026-04-27T09:20:10Z</time></trkpt><trkpt lat="31.27929502619046" lon="-7.961897526868403"><ele>1114.0</ele><time>2026-04-27T09:20:11Z</time></trkpt><trkpt lat="31.279081958801815" lon="-7.961984263121758"><ele>1107.3333333333333</ele><time>2026-04-27T09:20:12Z</time></trkpt><trkpt lat="31.278889447549755" lon="-7.962050697795943"><ele>1100.6666666666667</ele><time>2026-04-27T09:20:13Z</time></trkpt><trkpt lat="31.278720437107562" lon="-7.962090654852899"><ele>1094.0</ele><time>2026-04-27T09:20:14Z</time></trkpt><trkpt lat="31.278576567623926" lon="-7.962141227065888"><ele>1094.0</ele><time>2026-04-27T09:20:15Z</time></trkpt><trkpt lat="31.278442928969614" lon="-7.9621865930485685"><ele>1094.0</ele><time>2026-04-27T09:20:16Z</time></trkpt><trkpt lat="31.278316977429142" lon="-7.962225940315407"><ele>1094.0</ele><time>2026-04-27T09:20:17Z</time></trkpt><trkpt lat="31.27819877680818" lon="-7.962285948586387"><ele>1094.0</ele><time>2026-04-27T09:20:18Z</time></trkpt><trkpt lat="31.278069957254637" lon="-7.962329875006395"><ele>1092.5</ele><time>2026-04-27T09:20:19Z</time></trkpt><trkpt lat="31.27794226979955" lon="-7.962363772236745"><ele>1091.0</ele><time>2026-04-27T09:20:20Z</time></trkpt><trkpt lat="31.27782175032317" lon="-7.962395284461546"><ele>1089.5</ele><time>2026-04-27T09:20:21Z</time></trkpt><trkpt lat="31.277711011306454" lon="-7.962424985605957"><ele>1088.0</ele><time>2026-04-27T09:20:22Z</time></trkpt><trkpt lat="31.27760787271819" lon="-7.962451440559593"><ele>1088.0</ele><time>2026-04-27T09:20:23Z</time></trkpt><trkpt lat="31.277505132102675" lon="-7.962480000294468"><ele>1088.0</ele><time>2026-04-27T09:20:24Z</time></trkpt><trkpt lat="31.27740250593549" lon="-7.9625094870073445"><ele>1088.0</ele><time>2026-04-27T09:20:25Z</time></trkpt><trkpt lat="31.2773103638283" lon="-7.962537019154146"><ele>1088.0</ele><time>2026-04-27T09:20:26Z</time></trkpt><trkpt lat="31.2772114836208" lon="-7.962566662958679"><ele>1088.0</ele><time>2026-04-27T09:20:27Z</time></trkpt><trkpt lat="31.277099658396605" lon="-7.962584621381233"><ele>1092.75</ele><time>2026-04-27T09:20:28Z</time></trkpt><trkpt lat="31.27698533998811" lon="-7.962625777865382"><ele>1097.5</ele><time>2026-04-27T09:20:29Z</time></trkpt><trkpt lat="31.276870020656695" lon="-7.962662522046811"><ele>1102.25</ele><time>2026-04-27T09:20:30Z</time></trkpt><trkpt lat="31.276758272844972" lon="-7.962701224420526"><ele>1107.0</ele><time>2026-04-27T09:20:31Z</time></trkpt><trkpt lat="31.27666312568378" lon="-7.9627289119823565"><ele>1107.0</ele><time>2026-04-27T09:20:32Z</time></trkpt><trkpt lat="31.27657052597079" lon="-7.962757781297901"><ele>1107.0</ele><time>2026-04-27T09:20:33Z</time></trkpt><trkpt lat="31.276474503807403" lon="-7.9627918561259925"><ele>1107.0</ele><time>2026-04-27T09:20:34Z</time></trkpt><trkpt lat="31.276387544771584" lon="-7.962828664016817"><ele>1107.0</ele><time>2026-04-27T09:20:35Z</time></trkpt><trkpt lat="31.27631862134071" lon="-7.96285964918807"><ele>1107.0</ele><time>2026-04-27T09:20:36Z</time></trkpt><trkpt lat="31.276254503134634" lon="-7.962886306110377"><ele>1107.0</ele><time>2026-04-27T09:20:37Z</time></trkpt><trkpt lat="31.276187370029664" lon="-7.962916445429086"><ele>1105.2</ele><time>2026-04-27T09:20:38Z</time></trkpt><trkpt lat="31.276118957781634" lon="-7.962951906223395"><ele>1103.4</ele><time>2026-04-27T09:20:39Z</time></trkpt><trkpt lat="31.276058524845038" lon="-7.962983969194373"><ele>1101.6</ele><time>2026-04-27T09:20:40Z</time></trkpt><trkpt lat="31.275971526268577" lon="-7.963029070512331"><ele>1099.8</ele><time>2026-04-27T09:20:41Z</time></trkpt><trkpt lat="31.275856426116444" lon="-7.963095434272946"><ele>1098.0</ele><time>2026-04-27T09:20:42Z</time></trkpt><trkpt lat="31.275718875190424" lon="-7.963175829623848"><ele>1095.0</ele><time>2026-04-27T09:20:43Z</time></trkpt><trkpt lat="31.275574653606895" lon="-7.963258277089892"><ele>1092.0</ele><time>2026-04-27T09:20:44Z</time></trkpt><trkpt lat="31.27542521845247" lon="-7.963340237746846"><ele>1089.0</ele><time>2026-04-27T09:20:45Z</time></trkpt><trkpt lat="31.275295850055773" lon="-7.963411906608592"><ele>1093.75</ele><time>2026-04-27T09:20:46Z</time></trkpt><trkpt lat="31.275179470687746" lon="-7.963468499980238"><ele>1098.5</ele><time>2026-04-27T09:20:47Z</time></trkpt><trkpt lat="31.275073479849176" lon="-7.963515701672012"><ele>1103.25</ele><time>2026-04-27T09:20:48Z</time></trkpt><trkpt lat="31.27496165844474" lon="-7.963560568373192"><ele>1108.0</ele><time>2026-04-27T09:20:49Z</time></trkpt><trkpt lat="31.274827586752643" lon="-7.963606711409243"><ele>1105.0</ele><time>2026-04-27T09:20:50Z</time></trkpt><trkpt lat="31.27466032175253" lon="-7.963665447334301"><ele>1102.0</ele><time>2026-04-27T09:20:51Z</time></trkpt><trkpt lat="31.274494110041775" lon="-7.963719241299124"><ele>1099.0</ele><time>2026-04-27T09:20:52Z</time></trkpt><trkpt lat="31.27433934282082" lon="-7.9637584406368465"><ele>1099.0</ele><time>2026-04-27T09:20:53Z</time></trkpt><trkpt lat="31.27419482195526" lon="-7.963786013116607"><ele>1099.0</ele><time>2026-04-27T09:20:54Z</time></trkpt><trkpt lat="31.274048745058124" lon="-7.96380528546553"><ele>1099.0</ele><time>2026-04-27T09:20:55Z</time></trkpt><trkpt lat="31.273917300303182" lon="-7.963826182288835"><ele>1099.0</ele><time>2026-04-27T09:20:56Z</time></trkpt><trkpt lat="31.273784088449236" lon="-7.963845953807979"><ele>1097.6666666666665</ele><time>2026-04-27T09:20:57Z</time></trkpt><trkpt lat="31.27363005331923" lon="-7.963867510425103"><ele>1096.3333333333333</ele><time>2026-04-27T09:20:58Z</time></trkpt><trkpt lat="31.27345209466725" lon="-7.963915038586259"><ele>1095.0</ele><time>2026-04-27T09:20:59Z</time></trkpt><trkpt lat="31.27327611532619" lon="-7.963977777550295"><ele>1094.0</ele><time>2026-04-27T09:21:00Z</time></trkpt><trkpt lat="31.27310523339941" lon="-7.964068115171195"><ele>1093.0</ele><time>2026-04-27T09:21:01Z</time></trkpt><trkpt lat="31.272922990632264" lon="-7.964166343600405"><ele>1092.0</ele><time>2026-04-27T09:21:02Z</time></trkpt><trkpt lat="31.272733705244" lon="-7.964299738001187"><ele>1100.0</ele><time>2026-04-27T09:21:03Z</time></trkpt><trkpt lat="31.27253717658537" lon="-7.964435830912046"><ele>1108.0</ele><time>2026-04-27T09:21:04Z</time></trkpt><trkpt lat="31.272336383050618" lon="-7.964575274449431"><ele>1104.5</ele><time>2026-04-27T09:21:05Z</time></trkpt><trkpt lat="31.27212316078632" lon="-7.964723852399009"><ele>1101.0</ele><time>2026-04-27T09:21:06Z</time></trkpt><trkpt lat="31.27189648497981" lon="-7.9648822578656"><ele>1107.5</ele><time>2026-04-27T09:21:07Z</time></trkpt><trkpt lat="31.27164535205294" lon="-7.965042461434977"><ele>1114.0</ele><time>2026-04-27T09:21:08Z</time></trkpt><trkpt lat="31.27137585965402" lon="-7.9652156573779385"><ele>1114.0</ele><time>2026-04-27T09:21:09Z</time></trkpt><trkpt lat="31.27110174203829" lon="-7.965375765168561"><ele>1114.0</ele><time>2026-04-27T09:21:10Z</time></trkpt><trkpt lat="31.27085621276112" lon="-7.965512960196809"><ele>1114.0</ele><time>2026-04-27T09:21:11Z</time></trkpt><trkpt lat="31.270628111007372" lon="-7.965649315560401"><ele>1114.0</ele><time>2026-04-27T09:21:12Z</time></trkpt><trkpt lat="31.27041048940694" lon="-7.96576027872349"><ele>1111.0</ele><time>2026-04-27T09:21:13Z</time></trkpt><trkpt lat="31.270201614957983" lon="-7.965853475111126"><ele>1108.0</ele><time>2026-04-27T09:21:14Z</time></trkpt><trkpt lat="31.270004549483243" lon="-7.965944602748439"><ele>1105.0</ele><time>2026-04-27T09:21:15Z</time></trkpt><trkpt lat="31.269824368762656" lon="-7.96603814605901"><ele>1106.3333333333333</ele><time>2026-04-27T09:21:16Z</time></trkpt><trkpt lat="31.269648055045543" lon="-7.966130916173464"><ele>1107.6666666666667</ele><time>2026-04-27T09:21:17Z</time></trkpt><trkpt lat="31.269474333506828" lon="-7.966227600023457"><ele>1109.0</ele><time>2026-04-27T09:21:18Z</time></trkpt><trkpt lat="31.269307989893623" lon="-7.966316887080781"><ele>1109.0</ele><time>2026-04-27T09:21:19Z</time></trkpt><trkpt lat="31.26915637048226" lon="-7.966398984181773"><ele>1109.0</ele><time>2026-04-27T09:21:20Z</time></trkpt><trkpt lat="31.26900201789879" lon="-7.966480949276639"><ele>1109.0</ele><time>2026-04-27T09:21:21Z</time></trkpt><trkpt lat="31.268839316898276" lon="-7.9665652475210855"><ele>1108.6666666666667</ele><time>2026-04-27T09:21:22Z</time></trkpt><trkpt lat="31.268672516579628" lon="-7.966641535802259"><ele>1108.3333333333333</ele><time>2026-04-27T09:21:23Z</time></trkpt><trkpt lat="31.268492852458625" lon="-7.966724842409448"><ele>1108.0</ele><time>2026-04-27T09:21:24Z</time></trkpt><trkpt lat="31.26826909875716" lon="-7.9667666386799025"><ele>1119.5</ele><time>2026-04-27T09:21:25Z</time></trkpt><trkpt lat="31.268026640003562" lon="-7.966829672180092"><ele>1131.0</ele><time>2026-04-27T09:21:26Z</time></trkpt><trkpt lat="31.267763961354856" lon="-7.966893767498574"><ele>1131.0</ele><time>2026-04-27T09:21:27Z</time></trkpt><trkpt lat="31.26750036086226" lon="-7.966955690479081"><ele>1131.0</ele><time>2026-04-27T09:21:28Z</time></trkpt><trkpt lat="31.26724534385095" lon="-7.967005711687414"><ele>1130.5</ele><time>2026-04-27T09:21:29Z</time></trkpt><trkpt lat="31.26700824122005" lon="-7.9670490381293035"><ele>1130.0</ele><time>2026-04-27T09:21:30Z</time></trkpt><trkpt lat="31.266784422017395" lon="-7.967086301073593"><ele>1130.0</ele><time>2026-04-27T09:21:31Z</time></trkpt><trkpt lat="31.266564518355302" lon="-7.967121473964781"><ele>1130.0</ele><time>2026-04-27T09:21:32Z</time></trkpt><trkpt lat="31.266357246810298" lon="-7.967153554463538"><ele>1130.0</ele><time>2026-04-27T09:21:33Z</time></trkpt><trkpt lat="31.266176570639054" lon="-7.967183248831656"><ele>1128.0</ele><time>2026-04-27T09:21:34Z</time></trkpt><trkpt lat="31.26603051775952" lon="-7.967220546978436"><ele>1126.0</ele><time>2026-04-27T09:21:35Z</time></trkpt><trkpt lat="31.265903027049216" lon="-7.967275872724929"><ele>1124.0</ele><time>2026-04-27T09:21:36Z</time></trkpt><trkpt lat="31.265797981240674" lon="-7.967375900480828"><ele>1122.0</ele><time>2026-04-27T09:21:37Z</time></trkpt><trkpt lat="31.265674213574112" lon="-7.9675078523219245"><ele>1121.0</ele><time>2026-04-27T09:21:38Z</time></trkpt><trkpt lat="31.26551877954173" lon="-7.967658171100161"><ele>1120.0</ele><time>2026-04-27T09:21:39Z</time></trkpt><trkpt lat="31.265367741122855" lon="-7.9678501420289995"><ele>1119.0</ele><time>2026-04-27T09:21:40Z</time></trkpt><trkpt lat="31.265205089082265" lon="-7.968047950234298"><ele>1119.0</ele><time>2026-04-27T09:21:41Z</time></trkpt><trkpt lat="31.26502286285217" lon="-7.9682474023963445"><ele>1119.0</ele><time>2026-04-27T09:21:42Z</time></trkpt><trkpt lat="31.264838151317864" lon="-7.968442300241837"><ele>1122.5</ele><time>2026-04-27T09:21:43Z</time></trkpt><trkpt lat="31.26466555355639" lon="-7.96861781412928"><ele>1126.0</ele><time>2026-04-27T09:21:44Z</time></trkpt><trkpt lat="31.264510399440375" lon="-7.968809209075592"><ele>1126.0</ele><time>2026-04-27T09:21:44.999Z</time></trkpt><trkpt lat="31.2643422349724" lon="-7.968983740671498"><ele>1126.0</ele><time>2026-04-27T09:21:45.999Z</time></trkpt><trkpt lat="31.264171570684955" lon="-7.969129132243631"><ele>1126.0</ele><time>2026-04-27T09:21:46.999Z</time></trkpt><trkpt lat="31.26402382577218" lon="-7.969271107240965"><ele>1125.6666666666665</ele><time>2026-04-27T09:21:47.999Z</time></trkpt><trkpt lat="31.263892536840643" lon="-7.969421239586084"><ele>1125.3333333333333</ele><time>2026-04-27T09:21:48.999Z</time></trkpt><trkpt lat="31.26378715024504" lon="-7.969599734526731"><ele>1125.0</ele><time>2026-04-27T09:21:49.999Z</time></trkpt><trkpt lat="31.263681160964325" lon="-7.969794742920258"><ele>1125.0</ele><time>2026-04-27T09:21:50.999Z</time></trkpt><trkpt lat="31.263593476131682" lon="-7.970011648069321"><ele>1125.0</ele><time>2026-04-27T09:21:51.999Z</time></trkpt><trkpt lat="31.263507129029467" lon="-7.970225688898494"><ele>1125.0</ele><time>2026-04-27T09:21:52.999Z</time></trkpt><trkpt lat="31.26342158160432" lon="-7.970406958361933"><ele>1126.6666666666667</ele><time>2026-04-27T09:21:53.999Z</time></trkpt><trkpt lat="31.263338251024425" lon="-7.970590315240014"><ele>1128.3333333333335</ele><time>2026-04-27T09:21:54.999Z</time></trkpt><trkpt lat="31.263232181068158" lon="-7.970758495223625"><ele>1130.0</ele><time>2026-04-27T09:21:55.999Z</time></trkpt><trkpt lat="31.26311392558712" lon="-7.970910367915529"><ele>1131.6666666666667</ele><time>2026-04-27T09:21:56.999Z</time></trkpt><trkpt lat="31.262988204149064" lon="-7.971059962656359"><ele>1133.3333333333333</ele><time>2026-04-27T09:21:57.999Z</time></trkpt><trkpt lat="31.262839472214104" lon="-7.971200201201369"><ele>1135.0</ele><time>2026-04-27T09:21:58.999Z</time></trkpt><trkpt lat="31.26267840698661" lon="-7.9713246994218006"><ele>1135.0</ele><time>2026-04-27T09:21:59.999Z</time></trkpt><trkpt lat="31.262509484604628" lon="-7.971425378522972"><ele>1135.0</ele><time>2026-04-27T09:22:00.999Z</time></trkpt><trkpt lat="31.262323626503505" lon="-7.971502837241786"><ele>1135.0</ele><time>2026-04-27T09:22:01.999Z</time></trkpt><trkpt lat="31.262119184139248" lon="-7.9715628564305225"><ele>1135.3333333333333</ele><time>2026-04-27T09:22:03Z</time></trkpt><trkpt lat="31.26191928912358" lon="-7.971602439593789"><ele>1135.6666666666667</ele><time>2026-04-27T09:22:04Z</time></trkpt><trkpt lat="31.261723066268182" lon="-7.971641066021452"><ele>1136.0</ele><time>2026-04-27T09:22:05Z</time></trkpt><trkpt lat="31.26152596308849" lon="-7.971690981306903"><ele>1135.6666666666667</ele><time>2026-04-27T09:22:06Z</time></trkpt><trkpt lat="31.261322778646637" lon="-7.971754541117118"><ele>1135.3333333333333</ele><time>2026-04-27T09:22:07Z</time></trkpt><trkpt lat="31.261138950481406" lon="-7.971823985072369"><ele>1135.0</ele><time>2026-04-27T09:22:08Z</time></trkpt><trkpt lat="31.260975350952165" lon="-7.97189638883365"><ele>1135.0</ele><time>2026-04-27T09:22:09Z</time></trkpt><trkpt lat="31.26082301829385" lon="-7.971982992307233"><ele>1135.0</ele><time>2026-04-27T09:22:10Z</time></trkpt><trkpt lat="31.260667516156875" lon="-7.972057902867859"><ele>1135.0</ele><time>2026-04-27T09:22:11Z</time></trkpt><trkpt lat="31.260523107855068" lon="-7.9721640095592905"><ele>1135.5</ele><time>2026-04-27T09:22:12Z</time></trkpt><trkpt lat="31.260392724589412" lon="-7.972258373580413"><ele>1136.0</ele><time>2026-04-27T09:22:13Z</time></trkpt><trkpt lat="31.260280551309307" lon="-7.972375738530646"><ele>1136.5</ele><time>2026-04-27T09:22:14Z</time></trkpt><trkpt lat="31.260172521463094" lon="-7.972462650654034"><ele>1137.0</ele><time>2026-04-27T09:22:15Z</time></trkpt><trkpt lat="31.260074576363735" lon="-7.972540380101677"><ele>1137.0</ele><time>2026-04-27T09:22:16Z</time></trkpt><trkpt lat="31.259987012033235" lon="-7.97260989919572"><ele>1137.0</ele><time>2026-04-27T09:22:17Z</time></trkpt><trkpt lat="31.259903556151453" lon="-7.972675602375031"><ele>1137.0</ele><time>2026-04-27T09:22:18Z</time></trkpt><trkpt lat="31.259817041465283" lon="-7.972719800521013"><ele>1137.0</ele><time>2026-04-27T09:22:19Z</time></trkpt><trkpt lat="31.259757156491517" lon="-7.972803823549832"><ele>1137.0</ele><time>2026-04-27T09:22:20Z</time></trkpt><trkpt lat="31.25971244296605" lon="-7.972885717023332"><ele>1137.3333333333333</ele><time>2026-04-27T09:22:21Z</time></trkpt><trkpt lat="31.259676019155755" lon="-7.972951435351735"><ele>1137.6666666666667</ele><time>2026-04-27T09:22:22Z</time></trkpt><trkpt lat="31.25957391455577" lon="-7.9730132799427444"><ele>1138.0</ele><time>2026-04-27T09:22:24Z</time></trkpt><trkpt lat="31.259508637546432" lon="-7.972997069123634"><ele>1138.3333333333335</ele><time>2026-04-27T09:22:25Z</time></trkpt><trkpt lat="31.259432271429716" lon="-7.972985267876386"><ele>1138.6666666666667</ele><time>2026-04-27T09:22:26Z</time></trkpt><trkpt lat="31.259360347114686" lon="-7.9729949622984995"><ele>1139.0</ele><time>2026-04-27T09:22:27Z</time></trkpt><trkpt lat="31.25927399603677" lon="-7.973069239885436"><ele>1139.0</ele><time>2026-04-27T09:22:29Z</time></trkpt><trkpt lat="31.259194828357753" lon="-7.97310680169179"><ele>1139.0</ele><time>2026-04-27T09:22:31Z</time></trkpt><trkpt lat="31.259132587515737" lon="-7.973135787692709"><ele>1139.0</ele><time>2026-04-27T09:22:33Z</time></trkpt><trkpt lat="31.259070849463633" lon="-7.9731962358283"><ele>1139.0</ele><time>2026-04-27T09:22:37Z</time></trkpt><trkpt lat="31.25899532389293" lon="-7.973207025958714"><ele>1139.0</ele><time>2026-04-27T09:22:57Z</time></trkpt><trkpt lat="31.25885962535744" lon="-7.973263327639805"><ele>1138.75</ele><time>2026-04-27T09:22:59Z</time></trkpt><trkpt lat="31.258756491345142" lon="-7.973311737483857"><ele>1138.5</ele><time>2026-04-27T09:23:00Z</time></trkpt><trkpt lat="31.258617560816173" lon="-7.973376949771984"><ele>1138.25</ele><time>2026-04-27T09:23:01Z</time></trkpt><trkpt lat="31.258453447978855" lon="-7.9734548377010395"><ele>1138.0</ele><time>2026-04-27T09:23:02Z</time></trkpt><trkpt lat="31.258281993425612" lon="-7.973534684668669"><ele>1140.0</ele><time>2026-04-27T09:23:03Z</time></trkpt><trkpt lat="31.258111799198527" lon="-7.97361490280933"><ele>1142.0</ele><time>2026-04-27T09:23:04Z</time></trkpt><trkpt lat="31.257949803300903" lon="-7.97369053970748"><ele>1144.0</ele><time>2026-04-27T09:23:05Z</time></trkpt><trkpt lat="31.25778795885684" lon="-7.973765088837565"><ele>1144.0</ele><time>2026-04-27T09:23:06Z</time></trkpt><trkpt lat="31.257632507978165" lon="-7.973839246379489"><ele>1144.0</ele><time>2026-04-27T09:23:07Z</time></trkpt><trkpt lat="31.257489653400032" lon="-7.973905051419911"><ele>1144.0</ele><time>2026-04-27T09:23:08Z</time></trkpt><trkpt lat="31.25734933066928" lon="-7.973953515458049"><ele>1144.6666666666665</ele><time>2026-04-27T09:23:09Z</time></trkpt><trkpt lat="31.25720604092093" lon="-7.974016527063981"><ele>1145.3333333333333</ele><time>2026-04-27T09:23:10Z</time></trkpt><trkpt lat="31.257061070921456" lon="-7.974077956795286"><ele>1146.0</ele><time>2026-04-27T09:23:11Z</time></trkpt><trkpt lat="31.25692165470418" lon="-7.97416534516163"><ele>1146.6666666666667</ele><time>2026-04-27T09:23:12Z</time></trkpt><trkpt lat="31.25677196391137" lon="-7.974235093199737"><ele>1147.3333333333335</ele><time>2026-04-27T09:23:13Z</time></trkpt><trkpt lat="31.256618487216535" lon="-7.974305809528259"><ele>1148.0</ele><time>2026-04-27T09:23:14Z</time></trkpt><trkpt lat="31.25646187995267" lon="-7.974377227161591"><ele>1148.0</ele><time>2026-04-27T09:23:15Z</time></trkpt><trkpt lat="31.2563038455636" lon="-7.974448881808604"><ele>1148.0</ele><time>2026-04-27T09:23:16Z</time></trkpt><trkpt lat="31.25614940127294" lon="-7.974520772906727"><ele>1148.0</ele><time>2026-04-27T09:23:17Z</time></trkpt><trkpt lat="31.2560033444892" lon="-7.97459408416336"><ele>1148.0</ele><time>2026-04-27T09:23:18Z</time></trkpt><trkpt lat="31.255861866530818" lon="-7.974671688950647"><ele>1148.0</ele><time>2026-04-27T09:23:19Z</time></trkpt><trkpt lat="31.255741114112023" lon="-7.974765232853635"><ele>1148.0</ele><time>2026-04-27T09:23:20Z</time></trkpt><trkpt lat="31.255604098298374" lon="-7.974866463802459"><ele>1148.3333333333335</ele><time>2026-04-27T09:23:21Z</time></trkpt><trkpt lat="31.255454787230175" lon="-7.974963677254656"><ele>1148.6666666666667</ele><time>2026-04-27T09:23:22Z</time></trkpt><trkpt lat="31.25531839799768" lon="-7.975067568584517"><ele>1149.0</ele><time>2026-04-27T09:23:23Z</time></trkpt><trkpt lat="31.25517856861636" lon="-7.975172824702466"><ele>1149.0</ele><time>2026-04-27T09:23:24Z</time></trkpt><trkpt lat="31.255037880677897" lon="-7.975264295948923"><ele>1149.0</ele><time>2026-04-27T09:23:25Z</time></trkpt><trkpt lat="31.254907902214182" lon="-7.975381123681724"><ele>1149.0</ele><time>2026-04-27T09:23:26Z</time></trkpt><trkpt lat="31.25476290593225" lon="-7.975464386238419"><ele>1149.5</ele><time>2026-04-27T09:23:27Z</time></trkpt><trkpt lat="31.25464258071848" lon="-7.9755298242956885"><ele>1150.0</ele><time>2026-04-27T09:23:28Z</time></trkpt><trkpt lat="31.254519810512413" lon="-7.9755739978624645"><ele>1150.5</ele><time>2026-04-27T09:23:29Z</time></trkpt><trkpt lat="31.254401584498556" lon="-7.975644839995872"><ele>1151.0</ele><time>2026-04-27T09:23:30Z</time></trkpt><trkpt lat="31.254271091864066" lon="-7.9757133333221555"><ele>1151.0</ele><time>2026-04-27T09:23:31Z</time></trkpt><trkpt lat="31.254140112327033" lon="-7.975778186291712"><ele>1151.0</ele><time>2026-04-27T09:23:32Z</time></trkpt><trkpt lat="31.254005566382776" lon="-7.975841661521597"><ele>1151.0</ele><time>2026-04-27T09:23:33Z</time></trkpt><trkpt lat="31.253865669703547" lon="-7.975898550356019"><ele>1151.0</ele><time>2026-04-27T09:23:34Z</time></trkpt><trkpt lat="31.25370900113353" lon="-7.97597687876634"><ele>1151.3333333333335</ele><time>2026-04-27T09:23:35Z</time></trkpt><trkpt lat="31.253551070707406" lon="-7.976052429172467"><ele>1151.6666666666667</ele><time>2026-04-27T09:23:36Z</time></trkpt><trkpt lat="31.253396841532414" lon="-7.97614522219861"><ele>1152.0</ele><time>2026-04-27T09:23:37Z</time></trkpt><trkpt lat="31.25323513611166" lon="-7.976221222731813"><ele>1153.6666666666667</ele><time>2026-04-27T09:23:38Z</time></trkpt><trkpt lat="31.25307747445178" lon="-7.976290933016662"><ele>1155.3333333333335</ele><time>2026-04-27T09:23:39Z</time></trkpt><trkpt lat="31.252928581534825" lon="-7.9763626085299455"><ele>1157.0</ele><time>2026-04-27T09:23:40Z</time></trkpt><trkpt lat="31.252768281639604" lon="-7.976458449546561"><ele>1157.0</ele><time>2026-04-27T09:23:41Z</time></trkpt><trkpt lat="31.252618991483303" lon="-7.976576926260253"><ele>1157.0</ele><time>2026-04-27T09:23:42Z</time></trkpt><trkpt lat="31.252466861023596" lon="-7.97669663771419"><ele>1157.0</ele><time>2026-04-27T09:23:43Z</time></trkpt><trkpt lat="31.252323478597024" lon="-7.976821955190547"><ele>1157.75</ele><time>2026-04-27T09:23:44Z</time></trkpt><trkpt lat="31.252184391115666" lon="-7.976945512775013"><ele>1158.5</ele><time>2026-04-27T09:23:45Z</time></trkpt><trkpt lat="31.252071664654864" lon="-7.977045747742841"><ele>1159.25</ele><time>2026-04-27T09:23:46Z</time></trkpt><trkpt lat="31.25197582598923" lon="-7.977130966341214"><ele>1160.0</ele><time>2026-04-27T09:23:47Z</time></trkpt><trkpt lat="31.25190011514095" lon="-7.977197735966966"><ele>1160.0</ele><time>2026-04-27T09:23:48Z</time></trkpt><trkpt lat="31.251835675265355" lon="-7.977254569248348"><ele>1160.0</ele><time>2026-04-27T09:23:49Z</time></trkpt><trkpt lat="31.2517727491664" lon="-7.977310527908543"><ele>1160.0</ele><time>2026-04-27T09:23:50Z</time></trkpt><trkpt lat="31.251708511147264" lon="-7.977367725489215"><ele>1160.0</ele><time>2026-04-27T09:23:51Z</time></trkpt><trkpt lat="31.25164319833497" lon="-7.977424990528284"><ele>1160.0</ele><time>2026-04-27T09:23:52Z</time></trkpt><trkpt lat="31.251572962972567" lon="-7.97748497010075"><ele>1160.0</ele><time>2026-04-27T09:23:53Z</time></trkpt><trkpt lat="31.251510688925904" lon="-7.977538150803862"><ele>1160.4</ele><time>2026-04-27T09:23:54Z</time></trkpt><trkpt lat="31.251399667324275" lon="-7.977612330329419"><ele>1160.8</ele><time>2026-04-27T09:23:56Z</time></trkpt><trkpt lat="31.251319438875672" lon="-7.977690036836589"><ele>1161.2</ele><time>2026-04-27T09:23:58Z</time></trkpt><trkpt lat="31.251256607790115" lon="-7.97774074707136"><ele>1161.6</ele><time>2026-04-27T09:24:00Z</time></trkpt><trkpt lat="31.25118936325426" lon="-7.977792344239041"><ele>1162.0</ele><time>2026-04-27T09:24:03Z</time></trkpt><trkpt lat="31.251124142035742" lon="-7.977871078722757"><ele>1162.0</ele><time>2026-04-27T09:24:05Z</time></trkpt><trkpt lat="31.251058810390838" lon="-7.977927923957425"><ele>1162.0</ele><time>2026-04-27T09:24:07Z</time></trkpt><trkpt lat="31.250992957467712" lon="-7.977995131460122"><ele>1162.0</ele><time>2026-04-27T09:24:09Z</time></trkpt><trkpt lat="31.25090680099554" lon="-7.9780768181160475"><ele>1162.0</ele><time>2026-04-27T09:24:11Z</time></trkpt><trkpt lat="31.250813615458625" lon="-7.978165169133344"><ele>1162.0</ele><time>2026-04-27T09:24:13Z</time></trkpt><trkpt lat="31.250758389935307" lon="-7.978213299303422"><ele>1162.0</ele><time>2026-04-27T09:24:14Z</time></trkpt><trkpt lat="31.250706181654675" lon="-7.9782586445270365"><ele>1162.0</ele><time>2026-04-27T09:24:15Z</time></trkpt><trkpt lat="31.250607891071283" lon="-7.978344477279921"><ele>1162.0</ele><time>2026-04-27T09:24:17Z</time></trkpt><trkpt lat="31.250556911617945" lon="-7.978389208191453"><ele>1162.0</ele><time>2026-04-27T09:24:18Z</time></trkpt><trkpt lat="31.250502891125947" lon="-7.97843660741384"><ele>1162.0</ele><time>2026-04-27T09:24:19Z</time></trkpt><trkpt lat="31.25044716807878" lon="-7.978483687265082"><ele>1162.0</ele><time>2026-04-27T09:24:20Z</time></trkpt><trkpt lat="31.250395054803654" lon="-7.9785264564767004"><ele>1162.6666666666665</ele><time>2026-04-27T09:24:21Z</time></trkpt><trkpt lat="31.250315548131596" lon="-7.978592670415949"><ele>1163.3333333333333</ele><time>2026-04-27T09:24:23Z</time></trkpt><trkpt lat="31.250251807585936" lon="-7.978645725189912"><ele>1164.0</ele><time>2026-04-27T09:24:26Z</time></trkpt><trkpt lat="31.25017989503641" lon="-7.978705056628566"><ele>1164.6666666666667</ele><time>2026-04-27T09:24:33Z</time></trkpt><trkpt lat="31.250118472673215" lon="-7.978756093958234"><ele>1165.3333333333335</ele><time>2026-04-27T09:24:35Z</time></trkpt><trkpt lat="31.25005016615902" lon="-7.97881325576594"><ele>1166.0</ele><time>2026-04-27T09:24:37Z</time></trkpt><trkpt lat="31.249957019924537" lon="-7.978891202381702"><ele>1166.0</ele><time>2026-04-27T09:24:39Z</time></trkpt><trkpt lat="31.24984616478598" lon="-7.978960659423905"><ele>1166.0</ele><time>2026-04-27T09:24:41Z</time></trkpt><trkpt lat="31.249767545508153" lon="-7.979035783373197"><ele>1166.0</ele><time>2026-04-27T09:24:43Z</time></trkpt><trkpt lat="31.249700913053925" lon="-7.979098180463035"><ele>1166.0</ele><time>2026-04-27T09:24:45Z</time></trkpt><trkpt lat="31.249615991247627" lon="-7.979162321296072"><ele>1166.0</ele><time>2026-04-27T09:24:47Z</time></trkpt><trkpt lat="31.24955958106402" lon="-7.979243562866544"><ele>1166.75</ele><time>2026-04-27T09:24:49Z</time></trkpt><trkpt lat="31.24946498773494" lon="-7.979341594370205"><ele>1167.5</ele><time>2026-04-27T09:24:51Z</time></trkpt><trkpt lat="31.24936933226963" lon="-7.979417506227713"><ele>1168.25</ele><time>2026-04-27T09:24:53Z</time></trkpt><trkpt lat="31.249287679274826" lon="-7.979505142877083"><ele>1169.0</ele><time>2026-04-27T09:24:55Z</time></trkpt><trkpt lat="31.249218965836757" lon="-7.979593387554345"><ele>1169.0</ele><time>2026-04-27T09:24:57Z</time></trkpt><trkpt lat="31.249131888363262" lon="-7.979727162688125"><ele>1169.0</ele><time>2026-04-27T09:24:59Z</time></trkpt><trkpt lat="31.249087031691683" lon="-7.979817846673687"><ele>1169.0</ele><time>2026-04-27T09:25:00Z</time></trkpt><trkpt lat="31.24906165638323" lon="-7.979919651226757"><ele>1169.0</ele><time>2026-04-27T09:25:01Z</time></trkpt><trkpt lat="31.24902752053401" lon="-7.9800197210855295"><ele>1169.0</ele><time>2026-04-27T09:25:02Z</time></trkpt><trkpt lat="31.248990106412716" lon="-7.980131962804528"><ele>1170.0</ele><time>2026-04-27T09:25:03Z</time></trkpt><trkpt lat="31.2489325759189" lon="-7.980248043709535"><ele>1171.0</ele><time>2026-04-27T09:25:04Z</time></trkpt><trkpt lat="31.248877861811813" lon="-7.980363082063133"><ele>1172.0</ele><time>2026-04-27T09:25:05Z</time></trkpt><trkpt lat="31.24881855238034" lon="-7.980487468332035"><ele>1173.0</ele><time>2026-04-27T09:25:06Z</time></trkpt><trkpt lat="31.248759660369057" lon="-7.9806196964954665"><ele>1173.0</ele><time>2026-04-27T09:25:07Z</time></trkpt><trkpt lat="31.248701287534022" lon="-7.980757260488057"><ele>1173.0</ele><time>2026-04-27T09:25:08Z</time></trkpt><trkpt lat="31.24864332575701" lon="-7.980903158919388"><ele>1173.0</ele><time>2026-04-27T09:25:09Z</time></trkpt><trkpt lat="31.2485819344738" lon="-7.981055134221124"><ele>1173.0</ele><time>2026-04-27T09:25:10Z</time></trkpt><trkpt lat="31.248522124289714" lon="-7.98120319562878"><ele>1173.25</ele><time>2026-04-27T09:25:11Z</time></trkpt><trkpt lat="31.248461243380795" lon="-7.981353853323973"><ele>1173.5</ele><time>2026-04-27T09:25:12Z</time></trkpt><trkpt lat="31.24840215417939" lon="-7.9815019009636385"><ele>1173.75</ele><time>2026-04-27T09:25:13Z</time></trkpt><trkpt lat="31.248342498973283" lon="-7.981651384542823"><ele>1174.0</ele><time>2026-04-27T09:25:14Z</time></trkpt><trkpt lat="31.24828116220258" lon="-7.981805729355737"><ele>1174.25</ele><time>2026-04-27T09:25:15Z</time></trkpt><trkpt lat="31.248219630266703" lon="-7.981960565321492"><ele>1174.5</ele><time>2026-04-27T09:25:16Z</time></trkpt><trkpt lat="31.248158131546024" lon="-7.98211536566101"><ele>1174.75</ele><time>2026-04-27T09:25:17Z</time></trkpt><trkpt lat="31.24809609835118" lon="-7.982271716682632"><ele>1175.0</ele><time>2026-04-27T09:25:18Z</time></trkpt><trkpt lat="31.248028410061316" lon="-7.982440984055893"><ele>1176.6666666666667</ele><time>2026-04-27T09:25:19Z</time></trkpt><trkpt lat="31.247954218576876" lon="-7.982619561985502"><ele>1178.3333333333333</ele><time>2026-04-27T09:25:20Z</time></trkpt><trkpt lat="31.247870435102232" lon="-7.98281347694673"><ele>1180.0</ele><time>2026-04-27T09:25:21Z</time></trkpt><trkpt lat="31.24778510916994" lon="-7.983011548650105"><ele>1180.0</ele><time>2026-04-27T09:25:22Z</time></trkpt><trkpt lat="31.247699808737085" lon="-7.983211182770029"><ele>1180.0</ele><time>2026-04-27T09:25:23Z</time></trkpt><trkpt lat="31.24761046129858" lon="-7.983418208005439"><ele>1180.0</ele><time>2026-04-27T09:25:24Z</time></trkpt><trkpt lat="31.247530606124606" lon="-7.9836029084404085"><ele>1181.5</ele><time>2026-04-27T09:25:25Z</time></trkpt><trkpt lat="31.24745239892009" lon="-7.983764704615894"><ele>1183.0</ele><time>2026-04-27T09:25:26Z</time></trkpt><trkpt lat="31.247398081898133" lon="-7.983915941077841"><ele>1184.5</ele><time>2026-04-27T09:25:27Z</time></trkpt><trkpt lat="31.24735357727536" lon="-7.984058107520754"><ele>1186.0</ele><time>2026-04-27T09:25:28Z</time></trkpt><trkpt lat="31.247306511113685" lon="-7.9842027211242135"><ele>1185.3333333333333</ele><time>2026-04-27T09:25:29Z</time></trkpt><trkpt lat="31.247237125469198" lon="-7.984369960838515"><ele>1184.6666666666667</ele><time>2026-04-27T09:25:30Z</time></trkpt><trkpt lat="31.24714600491633" lon="-7.984558148163895"><ele>1184.0</ele><time>2026-04-27T09:25:31Z</time></trkpt><trkpt lat="31.247051216878997" lon="-7.9847492950408165"><ele>1184.0</ele><time>2026-04-27T09:25:32Z</time></trkpt><trkpt lat="31.246966112594144" lon="-7.984952769540015"><ele>1184.0</ele><time>2026-04-27T09:25:33.001Z</time></trkpt><trkpt lat="31.24690920535641" lon="-7.9851757119673215"><ele>1184.0</ele><time>2026-04-27T09:25:34.001Z</time></trkpt><trkpt lat="31.24683004221741" lon="-7.985387008777627"><ele>1185.0</ele><time>2026-04-27T09:25:35.001Z</time></trkpt><trkpt lat="31.246744519983515" lon="-7.985612658314975"><ele>1186.0</ele><time>2026-04-27T09:25:36.001Z</time></trkpt><trkpt lat="31.246650462538437" lon="-7.985821634844492"><ele>1187.0</ele><time>2026-04-27T09:25:37.001Z</time></trkpt><trkpt lat="31.246586085688673" lon="-7.986020921990119"><ele>1186.6666666666667</ele><time>2026-04-27T09:25:38.001Z</time></trkpt><trkpt lat="31.246519398479975" lon="-7.98620800249236"><ele>1186.3333333333333</ele><time>2026-04-27T09:25:39.001Z</time></trkpt><trkpt lat="31.24644985487356" lon="-7.986386389432418"><ele>1186.0</ele><time>2026-04-27T09:25:40.001Z</time></trkpt><trkpt lat="31.246377701801805" lon="-7.986570258103639"><ele>1186.6666666666665</ele><time>2026-04-27T09:25:41.001Z</time></trkpt><trkpt lat="31.24629964049818" lon="-7.986768611336264"><ele>1187.3333333333333</ele><time>2026-04-27T09:25:42.001Z</time></trkpt><trkpt lat="31.24622264880028" lon="-7.986973549063974"><ele>1188.0</ele><time>2026-04-27T09:25:43.001Z</time></trkpt><trkpt lat="31.246148964272237" lon="-7.987175658474675"><ele>1188.0</ele><time>2026-04-27T09:25:44.001Z</time></trkpt><trkpt lat="31.246071782378536" lon="-7.987377928758449"><ele>1188.0</ele><time>2026-04-27T09:25:45.001Z</time></trkpt><trkpt lat="31.245989589534425" lon="-7.987591872912441"><ele>1188.0</ele><time>2026-04-27T09:25:46.001Z</time></trkpt><trkpt lat="31.245908698855683" lon="-7.987812840908661"><ele>1189.0</ele><time>2026-04-27T09:25:47.001Z</time></trkpt><trkpt lat="31.24583169945908" lon="-7.988023020063237"><ele>1190.0</ele><time>2026-04-27T09:25:48.001Z</time></trkpt><trkpt lat="31.24577698274918" lon="-7.988231514450763"><ele>1191.0</ele><time>2026-04-27T09:25:49.001Z</time></trkpt><trkpt lat="31.24572664262756" lon="-7.988437631874396"><ele>1191.0</ele><time>2026-04-27T09:25:50.001Z</time></trkpt><trkpt lat="31.245676155173964" lon="-7.988641860747212"><ele>1191.0</ele><time>2026-04-27T09:25:51.001Z</time></trkpt><trkpt lat="31.245656127354323" lon="-7.988846541426085"><ele>1191.0</ele><time>2026-04-27T09:25:52.001Z</time></trkpt><trkpt lat="31.24566502998292" lon="-7.98907397165484"><ele>1191.6666666666667</ele><time>2026-04-27T09:25:53.001Z</time></trkpt><trkpt lat="31.24567354661253" lon="-7.989325948195446"><ele>1192.3333333333335</ele><time>2026-04-27T09:25:54.001Z</time></trkpt><trkpt lat="31.24568177865977" lon="-7.989580636883883"><ele>1193.0</ele><time>2026-04-27T09:25:55.001Z</time></trkpt><trkpt lat="31.245674139338966" lon="-7.9898329093223035"><ele>1193.3333333333335</ele><time>2026-04-27T09:25:56.001Z</time></trkpt><trkpt lat="31.24568357724383" lon="-7.990078376658062"><ele>1193.6666666666667</ele><time>2026-04-27T09:25:57Z</time></trkpt><trkpt lat="31.24569249240766" lon="-7.990308715209477"><ele>1194.0</ele><time>2026-04-27T09:25:58Z</time></trkpt><trkpt lat="31.245700799181122" lon="-7.990526007676907"><ele>1194.0</ele><time>2026-04-27T09:25:59Z</time></trkpt><trkpt lat="31.2457062378216" lon="-7.990735770772034"><ele>1194.0</ele><time>2026-04-27T09:26:00Z</time></trkpt><trkpt lat="31.245697495143922" lon="-7.99095980393846"><ele>1194.0</ele><time>2026-04-27T09:26:01Z</time></trkpt><trkpt lat="31.24567556432072" lon="-7.991205377057201"><ele>1200.0</ele><time>2026-04-27T09:26:02Z</time></trkpt><trkpt lat="31.24559530024044" lon="-7.991464105190394"><ele>1206.0</ele><time>2026-04-27T09:26:03Z</time></trkpt><trkpt lat="31.24552151485852" lon="-7.991714031763653"><ele>1206.0</ele><time>2026-04-27T09:26:04Z</time></trkpt><trkpt lat="31.24544773953375" lon="-7.9919439883036105"><ele>1206.0</ele><time>2026-04-27T09:26:05Z</time></trkpt><trkpt lat="31.24539857815674" lon="-7.992166056270092"><ele>1206.0</ele><time>2026-04-27T09:26:06Z</time></trkpt><trkpt lat="31.245322936238278" lon="-7.992363667532132"><ele>1206.25</ele><time>2026-04-27T09:26:07Z</time></trkpt><trkpt lat="31.245287547242647" lon="-7.992543591754875"><ele>1206.5</ele><time>2026-04-27T09:26:08Z</time></trkpt><trkpt lat="31.245241626591575" lon="-7.9927005900599895"><ele>1206.75</ele><time>2026-04-27T09:26:09Z</time></trkpt><trkpt lat="31.245199466214498" lon="-7.9928467632272735"><ele>1207.0</ele><time>2026-04-27T09:26:10Z</time></trkpt><trkpt lat="31.245146709379043" lon="-7.9929779763298585"><ele>1207.0</ele><time>2026-04-27T09:26:11Z</time></trkpt><trkpt lat="31.245143846219914" lon="-7.993117908249275"><ele>1207.0</ele><time>2026-04-27T09:26:12Z</time></trkpt><trkpt lat="31.24512880383172" lon="-7.993262299204172"><ele>1207.0</ele><time>2026-04-27T09:26:13Z</time></trkpt><trkpt lat="31.245135847709687" lon="-7.9934119482114125"><ele>1207.0</ele><time>2026-04-27T09:26:14Z</time></trkpt><trkpt lat="31.24514339124357" lon="-7.993572766844411"><ele>1208.0</ele><time>2026-04-27T09:26:15Z</time></trkpt><trkpt lat="31.245208213043664" lon="-7.993713429728418"><ele>1209.0</ele><time>2026-04-27T09:26:16Z</time></trkpt><trkpt lat="31.245291894431027" lon="-7.993845929323346"><ele>1210.0</ele><time>2026-04-27T09:26:17Z</time></trkpt><trkpt lat="31.245395251468654" lon="-7.993994477206862"><ele>1211.0</ele><time>2026-04-27T09:26:18Z</time></trkpt><trkpt lat="31.245491810517045" lon="-7.994159118940461"><ele>1211.5</ele><time>2026-04-27T09:26:19Z</time></trkpt><trkpt lat="31.245597202996635" lon="-7.994290898304529"><ele>1212.0</ele><time>2026-04-27T09:26:20Z</time></trkpt><trkpt lat="31.245682782861675" lon="-7.994410638868886"><ele>1212.5</ele><time>2026-04-27T09:26:21Z</time></trkpt><trkpt lat="31.245754441305692" lon="-7.994521334059244"><ele>1213.0</ele><time>2026-04-27T09:26:22Z</time></trkpt><trkpt lat="31.245816489096256" lon="-7.9946257691471105"><ele>1213.0</ele><time>2026-04-27T09:26:23Z</time></trkpt><trkpt lat="31.245880575174578" lon="-7.994733279318709"><ele>1213.0</ele><time>2026-04-27T09:26:24Z</time></trkpt><trkpt lat="31.245928280041017" lon="-7.99486330034287"><ele>1213.0</ele><time>2026-04-27T09:26:25Z</time></trkpt><trkpt lat="31.245927382438193" lon="-7.995059035525611"><ele>1213.0</ele><time>2026-04-27T09:26:26Z</time></trkpt><trkpt lat="31.245927382439994" lon="-7.995280323891321"><ele>1211.0</ele><time>2026-04-27T09:26:27Z</time></trkpt><trkpt lat="31.245927382442655" lon="-7.995557407046087"><ele>1209.0</ele><time>2026-04-27T09:26:28Z</time></trkpt><trkpt lat="31.245931037948925" lon="-7.995866807902459"><ele>1207.5</ele><time>2026-04-27T09:26:29Z</time></trkpt><trkpt lat="31.24593894560683" lon="-7.996202717490569"><ele>1206.0</ele><time>2026-04-27T09:26:30Z</time></trkpt><trkpt lat="31.245950042365234" lon="-7.996523686674017"><ele>1206.0</ele><time>2026-04-27T09:26:31Z</time></trkpt><trkpt lat="31.245962015820364" lon="-7.996796892050656"><ele>1206.0</ele><time>2026-04-27T09:26:32Z</time></trkpt><trkpt lat="31.245963982456995" lon="-7.9970507885898545"><ele>1206.0</ele><time>2026-04-27T09:26:33Z</time></trkpt><trkpt lat="31.245961877279424" lon="-7.997288469531652"><ele>1206.0</ele><time>2026-04-27T09:26:34Z</time></trkpt><trkpt lat="31.24595479741139" lon="-7.997524357667109"><ele>1206.0</ele><time>2026-04-27T09:26:35Z</time></trkpt><trkpt lat="31.245925888493215" lon="-7.997763575511332"><ele>1205.0</ele><time>2026-04-27T09:26:36Z</time></trkpt><trkpt lat="31.245873627274026" lon="-7.998038100223726"><ele>1204.0</ele><time>2026-04-27T09:26:37Z</time></trkpt><trkpt lat="31.24580022406723" lon="-7.998333022924889"><ele>1205.5</ele><time>2026-04-27T09:26:38Z</time></trkpt><trkpt lat="31.245728542621094" lon="-7.998608253795582"><ele>1207.0</ele><time>2026-04-27T09:26:39Z</time></trkpt><trkpt lat="31.24566698462377" lon="-7.998859020040202"><ele>1207.0</ele><time>2026-04-27T09:26:40Z</time></trkpt><trkpt lat="31.245599911999033" lon="-7.999102299546643"><ele>1207.0</ele><time>2026-04-27T09:26:41Z</time></trkpt><trkpt lat="31.245506666867144" lon="-7.999335195893059"><ele>1207.0</ele><time>2026-04-27T09:26:42Z</time></trkpt><trkpt lat="31.245363184127516" lon="-7.999567504349089"><ele>1204.0</ele><time>2026-04-27T09:26:43Z</time></trkpt><trkpt lat="31.24521820519256" lon="-7.999807689048414"><ele>1201.0</ele><time>2026-04-27T09:26:44Z</time></trkpt><trkpt lat="31.24510267575856" lon="-8.000051402897311"><ele>1201.0</ele><time>2026-04-27T09:26:45Z</time></trkpt><trkpt lat="31.245010323224918" lon="-8.000263355332567"><ele>1201.0</ele><time>2026-04-27T09:26:46Z</time></trkpt><trkpt lat="31.24490731580829" lon="-8.000437674487513"><ele>1201.0</ele><time>2026-04-27T09:26:47Z</time></trkpt><trkpt lat="31.244798102924918" lon="-8.000568358935721"><ele>1199.6666666666665</ele><time>2026-04-27T09:26:48Z</time></trkpt><trkpt lat="31.244697019420144" lon="-8.000712982395873"><ele>1198.3333333333333</ele><time>2026-04-27T09:26:49Z</time></trkpt><trkpt lat="31.2446342698675" lon="-8.000880379062242"><ele>1197.0</ele><time>2026-04-27T09:26:50Z</time></trkpt><trkpt lat="31.24456349416934" lon="-8.00106235095028"><ele>1197.0</ele><time>2026-04-27T09:26:51Z</time></trkpt><trkpt lat="31.24450977451959" lon="-8.001264878891128"><ele>1197.0</ele><time>2026-04-27T09:26:52Z</time></trkpt><trkpt lat="31.24444902524266" lon="-8.001451924688741"><ele>1197.0</ele><time>2026-04-27T09:26:53Z</time></trkpt><trkpt lat="31.244346066989987" lon="-8.001613115431203"><ele>1196.0</ele><time>2026-04-27T09:26:54Z</time></trkpt><trkpt lat="31.244207639625916" lon="-8.001749733705758"><ele>1195.0</ele><time>2026-04-27T09:26:55Z</time></trkpt><trkpt lat="31.24412029038542" lon="-8.00190364573209"><ele>1194.0</ele><time>2026-04-27T09:26:56Z</time></trkpt><trkpt lat="31.244100049224027" lon="-8.002075293264511"><ele>1194.0</ele><time>2026-04-27T09:26:57Z</time></trkpt><trkpt lat="31.2440379988086" lon="-8.002228852867717"><ele>1194.0</ele><time>2026-04-27T09:26:58Z</time></trkpt><trkpt lat="31.243931230407128" lon="-8.002374698344536"><ele>1194.0</ele><time>2026-04-27T09:26:59Z</time></trkpt><trkpt lat="31.243816716349077" lon="-8.002531958854622"><ele>1190.6666666666667</ele><time>2026-04-27T09:27:00Z</time></trkpt><trkpt lat="31.243691648295833" lon="-8.002723519784368"><ele>1187.3333333333335</ele><time>2026-04-27T09:27:01Z</time></trkpt><trkpt lat="31.243562092595656" lon="-8.002908278314951"><ele>1184.0</ele><time>2026-04-27T09:27:02Z</time></trkpt><trkpt lat="31.24344062687534" lon="-8.003079974918398"><ele>1184.0</ele><time>2026-04-27T09:27:03Z</time></trkpt><trkpt lat="31.24332356076636" lon="-8.003217346605517"><ele>1184.0</ele><time>2026-04-27T09:27:04Z</time></trkpt><trkpt lat="31.243211808005043" lon="-8.003338380224934"><ele>1184.0</ele><time>2026-04-27T09:27:05Z</time></trkpt><trkpt lat="31.243106340010595" lon="-8.003447840004048"><ele>1179.3333333333335</ele><time>2026-04-27T09:27:06Z</time></trkpt><trkpt lat="31.242948564012842" lon="-8.00348598041685"><ele>1174.6666666666667</ele><time>2026-04-27T09:27:07Z</time></trkpt><trkpt lat="31.242800114438353" lon="-8.003486825631258"><ele>1170.0</ele><time>2026-04-27T09:27:08Z</time></trkpt><trkpt lat="31.242653476408712" lon="-8.003461002851886"><ele>1170.0</ele><time>2026-04-27T09:27:09Z</time></trkpt><trkpt lat="31.242521043153463" lon="-8.003428485055409"><ele>1170.0</ele><time>2026-04-27T09:27:10Z</time></trkpt><trkpt lat="31.2424192920048" lon="-8.003455336970363"><ele>1170.0</ele><time>2026-04-27T09:27:11Z</time></trkpt><trkpt lat="31.242322382550697" lon="-8.003492581298792"><ele>1170.0</ele><time>2026-04-27T09:27:12Z</time></trkpt><trkpt lat="31.242269414451048" lon="-8.00363408514"><ele>1170.0</ele><time>2026-04-27T09:27:13Z</time></trkpt><trkpt lat="31.242246358253702" lon="-8.00379518947651"><ele>1170.0</ele><time>2026-04-27T09:27:14Z</time></trkpt><trkpt lat="31.242171900470378" lon="-8.004001024479939"><ele>1170.0</ele><time>2026-04-27T09:27:15Z</time></trkpt><trkpt lat="31.24207740105757" lon="-8.004213326988042"><ele>1170.0</ele><time>2026-04-27T09:27:16Z</time></trkpt><trkpt lat="31.241989999342977" lon="-8.004398931777391"><ele>1170.0</ele><time>2026-04-27T09:27:17Z</time></trkpt><trkpt lat="31.241840831561102" lon="-8.00454594791069"><ele>1170.0</ele><time>2026-04-27T09:27:18Z</time></trkpt><trkpt lat="31.24173156459556" lon="-8.004683042064064"><ele>1170.0</ele><time>2026-04-27T09:27:19Z</time></trkpt><trkpt lat="31.24163481551324" lon="-8.004810577065697"><ele>1170.0</ele><time>2026-04-27T09:27:20Z</time></trkpt><trkpt lat="31.24159502095383" lon="-8.004956711229077"><ele>1170.0</ele><time>2026-04-27T09:27:21Z</time></trkpt><trkpt lat="31.24154143542912" lon="-8.00514881096964"><ele>1169.3333333333333</ele><time>2026-04-27T09:27:22Z</time></trkpt><trkpt lat="31.241468766222948" lon="-8.005370210809714"><ele>1168.6666666666665</ele><time>2026-04-27T09:27:23Z</time></trkpt><trkpt lat="31.241357699834968" lon="-8.005595895919237"><ele>1168.0</ele><time>2026-04-27T09:27:24Z</time></trkpt><trkpt lat="31.241257509957162" lon="-8.005827020238176"><ele>1164.6666666666665</ele><time>2026-04-27T09:27:25Z</time></trkpt><trkpt lat="31.24116493879507" lon="-8.006042177103613"><ele>1161.3333333333333</ele><time>2026-04-27T09:27:26Z</time></trkpt><trkpt lat="31.240995092093172" lon="-8.006194261849155"><ele>1158.0</ele><time>2026-04-27T09:27:27Z</time></trkpt><trkpt lat="31.240868259506737" lon="-8.006353765409111"><ele>1158.0</ele><time>2026-04-27T09:27:28Z</time></trkpt><trkpt lat="31.24074406460706" lon="-8.006494510545313"><ele>1158.0</ele><time>2026-04-27T09:27:29Z</time></trkpt><trkpt lat="31.24062948631196" lon="-8.006611115609244"><ele>1158.0</ele><time>2026-04-27T09:27:30Z</time></trkpt><trkpt lat="31.240552143898626" lon="-8.0067581317713"><ele>1158.3333333333333</ele><time>2026-04-27T09:27:31Z</time></trkpt><trkpt lat="31.24049610328841" lon="-8.006945105178099"><ele>1158.6666666666665</ele><time>2026-04-27T09:27:32Z</time></trkpt><trkpt lat="31.240422016886814" lon="-8.007187476481654"><ele>1159.0</ele><time>2026-04-27T09:27:33Z</time></trkpt><trkpt lat="31.240341881370913" lon="-8.007415496591893"><ele>1156.0</ele><time>2026-04-27T09:27:34Z</time></trkpt><trkpt lat="31.240245759361176" lon="-8.00760111838757"><ele>1153.0</ele><time>2026-04-27T09:27:35Z</time></trkpt><trkpt lat="31.24017886361099" lon="-8.00779000623425"><ele>1150.0</ele><time>2026-04-27T09:27:36Z</time></trkpt><trkpt lat="31.240160406391784" lon="-8.007969237820774"><ele>1150.0</ele><time>2026-04-27T09:27:37Z</time></trkpt><trkpt lat="31.240148734132777" lon="-8.008123814785305"><ele>1150.0</ele><time>2026-04-27T09:27:38Z</time></trkpt><trkpt lat="31.24013140991802" lon="-8.008254564029029"><ele>1150.0</ele><time>2026-04-27T09:27:39Z</time></trkpt><trkpt lat="31.240055612666335" lon="-8.008362387741537"><ele>1150.0</ele><time>2026-04-27T09:27:40.001Z</time></trkpt><trkpt lat="31.23995817218753" lon="-8.008431134900988"><ele>1150.0</ele><time>2026-04-27T09:27:41.001Z</time></trkpt><trkpt lat="31.23982633183394" lon="-8.00846608290796"><ele>1150.0</ele><time>2026-04-27T09:27:42.001Z</time></trkpt><trkpt lat="31.239685699072425" lon="-8.008497663144444"><ele>1150.0</ele><time>2026-04-27T09:27:43.001Z</time></trkpt><trkpt lat="31.23959712506534" lon="-8.008616222925433"><ele>1150.0</ele><time>2026-04-27T09:27:44.001Z</time></trkpt><trkpt lat="31.239494756396915" lon="-8.008782834199062"><ele>1150.0</ele><time>2026-04-27T09:27:45.001Z</time></trkpt><trkpt lat="31.23933726075757" lon="-8.008905507541227"><ele>1150.0</ele><time>2026-04-27T09:27:46.001Z</time></trkpt><trkpt lat="31.239173310571427" lon="-8.009018156536934"><ele>1150.0</ele><time>2026-04-27T09:27:47.001Z</time></trkpt><trkpt lat="31.239016046487507" lon="-8.009147037329983"><ele>1148.0</ele><time>2026-04-27T09:27:48.001Z</time></trkpt><trkpt lat="31.23890081930796" lon="-8.009346742248614"><ele>1146.0</ele><time>2026-04-27T09:27:49.001Z</time></trkpt><trkpt lat="31.23877320730171" lon="-8.009521692903997"><ele>1144.0</ele><time>2026-04-27T09:27:50.001Z</time></trkpt><trkpt lat="31.23864143436178" lon="-8.009649765374135"><ele>1144.0</ele><time>2026-04-27T09:27:51.001Z</time></trkpt><trkpt lat="31.238523347949123" lon="-8.009757646571625"><ele>1144.0</ele><time>2026-04-27T09:27:52.001Z</time></trkpt><trkpt lat="31.23838453047209" lon="-8.009844619204934"><ele>1144.0</ele><time>2026-04-27T09:27:53.001Z</time></trkpt><trkpt lat="31.238235685059415" lon="-8.009905833589773"><ele>1143.6666666666665</ele><time>2026-04-27T09:27:54.001Z</time></trkpt><trkpt lat="31.238110115922076" lon="-8.00997974307762"><ele>1143.3333333333333</ele><time>2026-04-27T09:27:55.001Z</time></trkpt><trkpt lat="31.23804246471706" lon="-8.010134243720387"><ele>1143.0</ele><time>2026-04-27T09:27:56.001Z</time></trkpt><trkpt lat="31.237925431968872" lon="-8.010306244700718"><ele>1143.0</ele><time>2026-04-27T09:27:57.001Z</time></trkpt><trkpt lat="31.237789085483943" lon="-8.010500253336057"><ele>1143.0</ele><time>2026-04-27T09:27:58.001Z</time></trkpt><trkpt lat="31.237667698209666" lon="-8.010684568621596"><ele>1143.0</ele><time>2026-04-27T09:27:59.001Z</time></trkpt><trkpt lat="31.237550073540753" lon="-8.010839315619716"><ele>1140.0</ele><time>2026-04-27T09:28:00.001Z</time></trkpt><trkpt lat="31.23742208153813" lon="-8.010959848121413"><ele>1137.0</ele><time>2026-04-27T09:28:01.001Z</time></trkpt><trkpt lat="31.23726063204483" lon="-8.011055565695283"><ele>1134.0</ele><time>2026-04-27T09:28:02.001Z</time></trkpt><trkpt lat="31.237069364698034" lon="-8.01113778912281"><ele>1132.3333333333333</ele><time>2026-04-27T09:28:03Z</time></trkpt><trkpt lat="31.236909210405923" lon="-8.011280943181898"><ele>1130.6666666666665</ele><time>2026-04-27T09:28:04Z</time></trkpt><trkpt lat="31.236743109133897" lon="-8.011433758489904"><ele>1129.0</ele><time>2026-04-27T09:28:05Z</time></trkpt><trkpt lat="31.23658031795402" lon="-8.01154939113793"><ele>1129.6666666666665</ele><time>2026-04-27T09:28:06Z</time></trkpt><trkpt lat="31.236447949044567" lon="-8.01164756566548"><ele>1130.3333333333333</ele><time>2026-04-27T09:28:07Z</time></trkpt><trkpt lat="31.236329202487678" lon="-8.011754307611373"><ele>1131.0</ele><time>2026-04-27T09:28:08Z</time></trkpt><trkpt lat="31.23624599862292" lon="-8.011941152032739"><ele>1131.0</ele><time>2026-04-27T09:28:09Z</time></trkpt><trkpt lat="31.23613195492898" lon="-8.012166832511785"><ele>1131.0</ele><time>2026-04-27T09:28:10Z</time></trkpt><trkpt lat="31.235997051103094" lon="-8.01240455667829"><ele>1126.0</ele><time>2026-04-27T09:28:11Z</time></trkpt><trkpt lat="31.23583442442408" lon="-8.01265753213302"><ele>1121.0</ele><time>2026-04-27T09:28:12Z</time></trkpt><trkpt lat="31.23569661329585" lon="-8.012913215333423"><ele>1120.3333333333335</ele><time>2026-04-27T09:28:13Z</time></trkpt><trkpt lat="31.23559225010624" lon="-8.0131514052089"><ele>1119.6666666666667</ele><time>2026-04-27T09:28:14Z</time></trkpt><trkpt lat="31.23550803564126" lon="-8.013387216949507"><ele>1119.0</ele><time>2026-04-27T09:28:15Z</time></trkpt><trkpt lat="31.235413563520243" lon="-8.013598419149934"><ele>1119.0</ele><time>2026-04-27T09:28:16Z</time></trkpt><trkpt lat="31.235340559030195" lon="-8.013806706100342"><ele>1119.0</ele><time>2026-04-27T09:28:17Z</time></trkpt><trkpt lat="31.235276254578043" lon="-8.014033303789434"><ele>1119.0</ele><time>2026-04-27T09:28:18Z</time></trkpt><trkpt lat="31.23523352840025" lon="-8.014247719977254"><ele>1117.0</ele><time>2026-04-27T09:28:19Z</time></trkpt><trkpt lat="31.23520576351142" lon="-8.014434163738088"><ele>1115.0</ele><time>2026-04-27T09:28:20Z</time></trkpt><trkpt lat="31.2351818662415" lon="-8.014591273881855"><ele>1113.0</ele><time>2026-04-27T09:28:21Z</time></trkpt><trkpt lat="31.235151965570598" lon="-8.01473751671226"><ele>1111.0</ele><time>2026-04-27T09:28:22Z</time></trkpt><trkpt lat="31.235091234243818" lon="-8.014877009124287"><ele>1111.0</ele><time>2026-04-27T09:28:23Z</time></trkpt><trkpt lat="31.234969763900423" lon="-8.014983657458508"><ele>1111.0</ele><time>2026-04-27T09:28:24Z</time></trkpt><trkpt lat="31.234835447244382" lon="-8.015084188630095"><ele>1111.0</ele><time>2026-04-27T09:28:25Z</time></trkpt><trkpt lat="31.23466193535974" lon="-8.015161765336904"><ele>1109.6666666666665</ele><time>2026-04-27T09:28:26Z</time></trkpt><trkpt lat="31.234456123774176" lon="-8.015221754381393"><ele>1108.3333333333333</ele><time>2026-04-27T09:28:27Z</time></trkpt><trkpt lat="31.234292749596335" lon="-8.015300017863701"><ele>1107.0</ele><time>2026-04-27T09:28:28Z</time></trkpt><trkpt lat="31.23416156726602" lon="-8.015395814107912"><ele>1107.0</ele><time>2026-04-27T09:28:29Z</time></trkpt><trkpt lat="31.234027525840716" lon="-8.015537506687247"><ele>1107.0</ele><time>2026-04-27T09:28:30Z</time></trkpt><trkpt lat="31.23385339669368" lon="-8.01571067594951"><ele>1107.0</ele><time>2026-04-27T09:28:31Z</time></trkpt><trkpt lat="31.233678575400834" lon="-8.01591079334627"><ele>1108.5</ele><time>2026-04-27T09:28:32Z</time></trkpt><trkpt lat="31.233483979687094" lon="-8.016133301038353"><ele>1110.0</ele><time>2026-04-27T09:28:33Z</time></trkpt><trkpt lat="31.23330532734094" lon="-8.016343986078997"><ele>1111.5</ele><time>2026-04-27T09:28:34Z</time></trkpt><trkpt lat="31.233134283444617" lon="-8.016538114238458"><ele>1113.0</ele><time>2026-04-27T09:28:35Z</time></trkpt><trkpt lat="31.232948154817134" lon="-8.016698962969047"><ele>1109.0</ele><time>2026-04-27T09:28:36Z</time></trkpt><trkpt lat="31.232782401096866" lon="-8.016859779495793"><ele>1105.0</ele><time>2026-04-27T09:28:37Z</time></trkpt><trkpt lat="31.232642222728458" lon="-8.017038076642507"><ele>1101.0</ele><time>2026-04-27T09:28:38Z</time></trkpt><trkpt lat="31.232525801048606" lon="-8.01725105939135"><ele>1101.0</ele><time>2026-04-27T09:28:39Z</time></trkpt><trkpt lat="31.232352179552418" lon="-8.017417330499917"><ele>1101.0</ele><time>2026-04-27T09:28:40Z</time></trkpt><trkpt lat="31.232160247787196" lon="-8.017577268554026"><ele>1098.5</ele><time>2026-04-27T09:28:41Z</time></trkpt><trkpt lat="31.231950118454336" lon="-8.017744957697357"><ele>1096.0</ele><time>2026-04-27T09:28:42Z</time></trkpt><trkpt lat="31.231736956005204" lon="-8.017895624597001"><ele>1096.0</ele><time>2026-04-27T09:28:43Z</time></trkpt><trkpt lat="31.231515233333077" lon="-8.018014206578997"><ele>1096.0</ele><time>2026-04-27T09:28:44Z</time></trkpt><trkpt lat="31.231275687397446" lon="-8.018105243705243"><ele>1097.0</ele><time>2026-04-27T09:28:45Z</time></trkpt><trkpt lat="31.231042650568718" lon="-8.018181532162032"><ele>1098.0</ele><time>2026-04-27T09:28:46Z</time></trkpt><trkpt lat="31.230837720485944" lon="-8.01826905866589"><ele>1097.0</ele><time>2026-04-27T09:28:47Z</time></trkpt><trkpt lat="31.23065544642325" lon="-8.0183488041562"><ele>1096.0</ele><time>2026-04-27T09:28:48Z</time></trkpt><trkpt lat="31.23050962687437" lon="-8.018439785440062"><ele>1095.0</ele><time>2026-04-27T09:28:49Z</time></trkpt><trkpt lat="31.23036561765619" lon="-8.01855635934465"><ele>1093.3333333333333</ele><time>2026-04-27T09:28:50Z</time></trkpt><trkpt lat="31.230200491106935" lon="-8.018704410677291"><ele>1091.6666666666665</ele><time>2026-04-27T09:28:51Z</time></trkpt><trkpt lat="31.23005584026683" lon="-8.018891771824611"><ele>1090.0</ele><time>2026-04-27T09:28:52Z</time></trkpt><trkpt lat="31.22989020891676" lon="-8.019104463900257"><ele>1086.0</ele><time>2026-04-27T09:28:53Z</time></trkpt><trkpt lat="31.229710783740583" lon="-8.019286341515496"><ele>1082.0</ele><time>2026-04-27T09:28:54Z</time></trkpt><trkpt lat="31.229535892734727" lon="-8.019431933595135"><ele>1082.0</ele><time>2026-04-27T09:28:55Z</time></trkpt><trkpt lat="31.22936673868308" lon="-8.01955998193914"><ele>1082.0</ele><time>2026-04-27T09:28:56Z</time></trkpt><trkpt lat="31.22924773936052" lon="-8.01972577322361"><ele>1082.0</ele><time>2026-04-27T09:28:57Z</time></trkpt><trkpt lat="31.229095080558253" lon="-8.019945861553097"><ele>1080.5</ele><time>2026-04-27T09:28:58Z</time></trkpt><trkpt lat="31.228916555812354" lon="-8.020202897455201"><ele>1079.0</ele><time>2026-04-27T09:28:59Z</time></trkpt><trkpt lat="31.228720968518097" lon="-8.020482868859295"><ele>1079.0</ele><time>2026-04-27T09:29:00Z</time></trkpt><trkpt lat="31.228519618576133" lon="-8.020771803844378"><ele>1079.0</ele><time>2026-04-27T09:29:01Z</time></trkpt><trkpt lat="31.228335616312638" lon="-8.021064757111773"><ele>1080.0</ele><time>2026-04-27T09:29:02Z</time></trkpt><trkpt lat="31.22817451002979" lon="-8.021328361943972"><ele>1081.0</ele><time>2026-04-27T09:29:03Z</time></trkpt><trkpt lat="31.228029927297968" lon="-8.021563789219709"><ele>1079.0</ele><time>2026-04-27T09:29:04Z</time></trkpt><trkpt lat="31.22788862680165" lon="-8.02178410707294"><ele>1077.0</ele><time>2026-04-27T09:29:05Z</time></trkpt><trkpt lat="31.227756322415" lon="-8.021986260735146"><ele>1077.0</ele><time>2026-04-27T09:29:06Z</time></trkpt><trkpt lat="31.22769074581101" lon="-8.022215403855109"><ele>1077.0</ele><time>2026-04-27T09:29:07Z</time></trkpt><trkpt lat="31.22759138564712" lon="-8.022467215484788"><ele>1077.0</ele><time>2026-04-27T09:29:08Z</time></trkpt><trkpt lat="31.227477742972813" lon="-8.022718349668162"><ele>1077.3333333333333</ele><time>2026-04-27T09:29:09Z</time></trkpt><trkpt lat="31.22735880433915" lon="-8.022938136354098"><ele>1077.6666666666665</ele><time>2026-04-27T09:29:10Z</time></trkpt><trkpt lat="31.227218690780802" lon="-8.023133004183114"><ele>1078.0</ele><time>2026-04-27T09:29:11Z</time></trkpt><trkpt lat="31.22707170569484" lon="-8.02330076558135"><ele>1074.0</ele><time>2026-04-27T09:29:12Z</time></trkpt><trkpt lat="31.226896903314202" lon="-8.02344610582929"><ele>1070.0</ele><time>2026-04-27T09:29:13Z</time></trkpt><trkpt lat="31.226688830107662" lon="-8.02354616884504"><ele>1066.0</ele><time>2026-04-27T09:29:14Z</time></trkpt><trkpt lat="31.226483639273823" lon="-8.02362952995441"><ele>1064.0</ele><time>2026-04-27T09:29:15Z</time></trkpt><trkpt lat="31.22627430078105" lon="-8.023700898541442"><ele>1062.0</ele><time>2026-04-27T09:29:16Z</time></trkpt><trkpt lat="31.22606724849293" lon="-8.023753681066246"><ele>1060.0</ele><time>2026-04-27T09:29:17Z</time></trkpt><trkpt lat="31.2258627765201" lon="-8.023729892871588"><ele>1060.0</ele><time>2026-04-27T09:29:18Z</time></trkpt><trkpt lat="31.225675534114075" lon="-8.023728961622433"><ele>1060.0</ele><time>2026-04-27T09:29:19Z</time></trkpt><trkpt lat="31.22551373455696" lon="-8.02377637397685"><ele>1060.0</ele><time>2026-04-27T09:29:20Z</time></trkpt><trkpt lat="31.225364445236156" lon="-8.023852922997706"><ele>1058.6666666666665</ele><time>2026-04-27T09:29:21Z</time></trkpt><trkpt lat="31.225205474826225" lon="-8.02396591878688"><ele>1057.3333333333333</ele><time>2026-04-27T09:29:22Z</time></trkpt><trkpt lat="31.22504536373841" lon="-8.024094398924005"><ele>1056.0</ele><time>2026-04-27T09:29:23Z</time></trkpt><trkpt lat="31.22492296476856" lon="-8.024232339819665"><ele>1056.0</ele><time>2026-04-27T09:29:24Z</time></trkpt><trkpt lat="31.22485037082008" lon="-8.024385200531755"><ele>1056.0</ele><time>2026-04-27T09:29:25Z</time></trkpt><trkpt lat="31.224786799072874" lon="-8.024579079828683"><ele>1056.0</ele><time>2026-04-27T09:29:26Z</time></trkpt><trkpt lat="31.224720477415907" lon="-8.024813347273046"><ele>1053.0</ele><time>2026-04-27T09:29:27Z</time></trkpt><trkpt lat="31.224661424299835" lon="-8.025048696470748"><ele>1050.0</ele><time>2026-04-27T09:29:28Z</time></trkpt><trkpt lat="31.224606094281384" lon="-8.025264319134845"><ele>1047.0</ele><time>2026-04-27T09:29:29Z</time></trkpt><trkpt lat="31.224563990973355" lon="-8.025434708029985"><ele>1047.0</ele><time>2026-04-27T09:29:30Z</time></trkpt><trkpt lat="31.2245423268708" lon="-8.02558463509434"><ele>1047.0</ele><time>2026-04-27T09:29:31Z</time></trkpt><trkpt lat="31.224606108245155" lon="-8.025700330360188"><ele>1047.0</ele><time>2026-04-27T09:29:32Z</time></trkpt><trkpt lat="31.224657882829643" lon="-8.025847812763546"><ele>1047.0</ele><time>2026-04-27T09:29:33Z</time></trkpt><trkpt lat="31.224709779850954" lon="-8.02599411257953"><ele>1045.6666666666667</ele><time>2026-04-27T09:29:34Z</time></trkpt><trkpt lat="31.224707731242898" lon="-8.026185211919453"><ele>1044.3333333333335</ele><time>2026-04-27T09:29:35Z</time></trkpt><trkpt lat="31.224605362528052" lon="-8.026398110249625"><ele>1043.0</ele><time>2026-04-27T09:29:36Z</time></trkpt><trkpt lat="31.224462572814065" lon="-8.026602021215885"><ele>1043.6666666666667</ele><time>2026-04-27T09:29:37Z</time></trkpt><trkpt lat="31.224335065057264" lon="-8.026790975235294"><ele>1044.3333333333333</ele><time>2026-04-27T09:29:38Z</time></trkpt><trkpt lat="31.224220273565553" lon="-8.026960356208354"><ele>1045.0</ele><time>2026-04-27T09:29:39Z</time></trkpt><trkpt lat="31.224138149673273" lon="-8.027114578832366"><ele>1045.0</ele><time>2026-04-27T09:29:40Z</time></trkpt><trkpt lat="31.224084313302978" lon="-8.027263648044453"><ele>1045.0</ele><time>2026-04-27T09:29:41Z</time></trkpt><trkpt lat="31.224062242522397" lon="-8.027418837765422"><ele>1045.0</ele><time>2026-04-27T09:29:42.001Z</time></trkpt><trkpt lat="31.22406377629471" lon="-8.027613165525366"><ele>1045.0</ele><time>2026-04-27T09:29:43.001Z</time></trkpt><trkpt lat="31.224059578077412" lon="-8.027865545170037"><ele>1046.3333333333333</ele><time>2026-04-27T09:29:44.001Z</time></trkpt><trkpt lat="31.224053750713548" lon="-8.028102039740682"><ele>1047.6666666666667</ele><time>2026-04-27T09:29:45.001Z</time></trkpt><trkpt lat="31.22404931651441" lon="-8.02831078363075"><ele>1049.0</ele><time>2026-04-27T09:29:46.001Z</time></trkpt><trkpt lat="31.224030611961236" lon="-8.028514564062931"><ele>1049.0</ele><time>2026-04-27T09:29:47.001Z</time></trkpt><trkpt lat="31.224006577407856" lon="-8.028691529846844"><ele>1049.0</ele><time>2026-04-27T09:29:48.001Z</time></trkpt><trkpt lat="31.223928502326515" lon="-8.028869384016403"><ele>1049.0</ele><time>2026-04-27T09:29:49.001Z</time></trkpt><trkpt lat="31.223823479409244" lon="-8.029022510391329"><ele>1047.0</ele><time>2026-04-27T09:29:50.001Z</time></trkpt><trkpt lat="31.22365445170982" lon="-8.029126257525311"><ele>1045.0</ele><time>2026-04-27T09:29:51.001Z</time></trkpt><trkpt lat="31.223503775164097" lon="-8.02924310904692"><ele>1043.0</ele><time>2026-04-27T09:29:52.001Z</time></trkpt><trkpt lat="31.22338248878682" lon="-8.029376159264299"><ele>1045.3333333333335</ele><time>2026-04-27T09:29:53.001Z</time></trkpt><trkpt lat="31.22328796277576" lon="-8.029540065231624"><ele>1047.6666666666667</ele><time>2026-04-27T09:29:54.001Z</time></trkpt><trkpt lat="31.2231934842531" lon="-8.029751919669241"><ele>1050.0</ele><time>2026-04-27T09:29:55.001Z</time></trkpt><trkpt lat="31.2230734830866" lon="-8.02994143596648"><ele>1044.0</ele><time>2026-04-27T09:29:56.001Z</time></trkpt><trkpt lat="31.222912527999284" lon="-8.030096976257116"><ele>1038.0</ele><time>2026-04-27T09:29:57.001Z</time></trkpt><trkpt lat="31.22277198879544" lon="-8.030226509193325"><ele>1032.0</ele><time>2026-04-27T09:29:58.001Z</time></trkpt><trkpt lat="31.222638155428463" lon="-8.030349084772164"><ele>1032.0</ele><time>2026-04-27T09:29:59.001Z</time></trkpt><trkpt lat="31.222498080279255" lon="-8.030456208376865"><ele>1032.0</ele><time>2026-04-27T09:30:00.001Z</time></trkpt><trkpt lat="31.222374429856103" lon="-8.030571335017049"><ele>1032.0</ele><time>2026-04-27T09:30:01.001Z</time></trkpt><trkpt lat="31.222255567044538" lon="-8.030682004199019"><ele>1031.0</ele><time>2026-04-27T09:30:02.001Z</time></trkpt><trkpt lat="31.22210660863958" lon="-8.030741438680677"><ele>1030.0</ele><time>2026-04-27T09:30:03.001Z</time></trkpt><trkpt lat="31.221998624881014" lon="-8.030841680164832"><ele>1029.0</ele><time>2026-04-27T09:30:04.001Z</time></trkpt><trkpt lat="31.221903522399614" lon="-8.030942047724796"><ele>1028.0</ele><time>2026-04-27T09:30:05.001Z</time></trkpt><trkpt lat="31.221829356590888" lon="-8.03106009242345"><ele>1028.0</ele><time>2026-04-27T09:30:06.001Z</time></trkpt><trkpt lat="31.221774044241958" lon="-8.031213684320893"><ele>1028.0</ele><time>2026-04-27T09:30:07.001Z</time></trkpt><trkpt lat="31.221723230323256" lon="-8.031385763694333"><ele>1028.0</ele><time>2026-04-27T09:30:08.001Z</time></trkpt><trkpt lat="31.22164750806913" lon="-8.031550684873203"><ele>1027.3333333333335</ele><time>2026-04-27T09:30:09Z</time></trkpt><trkpt lat="31.22153949573107" lon="-8.031693943691767"><ele>1026.6666666666667</ele><time>2026-04-27T09:30:10Z</time></trkpt><trkpt lat="31.221401773365162" lon="-8.031816169487948"><ele>1026.0</ele><time>2026-04-27T09:30:11Z</time></trkpt><trkpt lat="31.221253348745428" lon="-8.031934187302221"><ele>1025.3333333333333</ele><time>2026-04-27T09:30:12Z</time></trkpt><trkpt lat="31.22112169640883" lon="-8.032051930009548"><ele>1024.6666666666665</ele><time>2026-04-27T09:30:13Z</time></trkpt><trkpt lat="31.221006603467263" lon="-8.032163161337614"><ele>1024.0</ele><time>2026-04-27T09:30:14Z</time></trkpt><trkpt lat="31.220898081987606" lon="-8.032267258778484"><ele>1024.0</ele><time>2026-04-27T09:30:15Z</time></trkpt><trkpt lat="31.22079414291478" lon="-8.032382060285922"><ele>1024.0</ele><time>2026-04-27T09:30:16Z</time></trkpt><trkpt lat="31.22069559925933" lon="-8.032515274842874"><ele>1024.0</ele><time>2026-04-27T09:30:17Z</time></trkpt><trkpt lat="31.220624091055495" lon="-8.032676091972087"><ele>1024.0</ele><time>2026-04-27T09:30:18Z</time></trkpt><trkpt lat="31.22056072649439" lon="-8.032852577511491"><ele>1022.6666666666666</ele><time>2026-04-27T09:30:19Z</time></trkpt><trkpt lat="31.220465627036234" lon="-8.03302867185038"><ele>1021.3333333333333</ele><time>2026-04-27T09:30:20Z</time></trkpt><trkpt lat="31.220339703774293" lon="-8.033169803591228"><ele>1020.0</ele><time>2026-04-27T09:30:21Z</time></trkpt><trkpt lat="31.220218274647827" lon="-8.033323299232281"><ele>1017.6666666666667</ele><time>2026-04-27T09:30:22Z</time></trkpt><trkpt lat="31.220140480298188" lon="-8.033496820393298"><ele>1015.3333333333334</ele><time>2026-04-27T09:30:23Z</time></trkpt><trkpt lat="31.22008414764463" lon="-8.033675897001265"><ele>1013.0</ele><time>2026-04-27T09:30:24Z</time></trkpt><trkpt lat="31.220016187622356" lon="-8.033836250571193"><ele>1013.0</ele><time>2026-04-27T09:30:25Z</time></trkpt><trkpt lat="31.21993051535975" lon="-8.033973012640377"><ele>1013.0</ele><time>2026-04-27T09:30:26Z</time></trkpt><trkpt lat="31.21981397916112" lon="-8.034074608699461"><ele>1013.0</ele><time>2026-04-27T09:30:27Z</time></trkpt><trkpt lat="31.219652773643823" lon="-8.034148081892207"><ele>1012.3333333333334</ele><time>2026-04-27T09:30:28Z</time></trkpt><trkpt lat="31.219484842357645" lon="-8.03420294460988"><ele>1011.6666666666667</ele><time>2026-04-27T09:30:29Z</time></trkpt><trkpt lat="31.219324259804655" lon="-8.034264869473255"><ele>1011.0</ele><time>2026-04-27T09:30:30Z</time></trkpt><trkpt lat="31.219173523997704" lon="-8.034364806137685"><ele>1011.0</ele><time>2026-04-27T09:30:31Z</time></trkpt><trkpt lat="31.219035272031068" lon="-8.034495866502272"><ele>1011.0</ele><time>2026-04-27T09:30:32Z</time></trkpt><trkpt lat="31.218921549688936" lon="-8.034637647378526"><ele>1011.0</ele><time>2026-04-27T09:30:33Z</time></trkpt><trkpt lat="31.218811876501093" lon="-8.034767397871951"><ele>1010.0</ele><time>2026-04-27T09:30:34Z</time></trkpt><trkpt lat="31.218702623117288" lon="-8.03488730281128"><ele>1009.0</ele><time>2026-04-27T09:30:35Z</time></trkpt><trkpt lat="31.21859309434295" lon="-8.035008106750222"><ele>1008.0</ele><time>2026-04-27T09:30:36Z</time></trkpt><trkpt lat="31.218478945287547" lon="-8.035139117897845"><ele>1006.75</ele><time>2026-04-27T09:30:37Z</time></trkpt><trkpt lat="31.218363190623315" lon="-8.035260896321253"><ele>1005.5</ele><time>2026-04-27T09:30:38Z</time></trkpt><trkpt lat="31.21824760204895" lon="-8.035363671636901"><ele>1004.25</ele><time>2026-04-27T09:30:39Z</time></trkpt><trkpt lat="31.21812300179452" lon="-8.03543579112796"><ele>1003.0</ele><time>2026-04-27T09:30:40Z</time></trkpt><trkpt lat="31.217998261761604" lon="-8.035475887806976"><ele>1003.0</ele><time>2026-04-27T09:30:41Z</time></trkpt><trkpt lat="31.217907723030063" lon="-8.035563579153928"><ele>1003.0</ele><time>2026-04-27T09:30:42Z</time></trkpt><trkpt lat="31.217825249123564" lon="-8.03570259169939"><ele>1003.0</ele><time>2026-04-27T09:30:43Z</time></trkpt><trkpt lat="31.21772180439492" lon="-8.035858520727622"><ele>1003.0</ele><time>2026-04-27T09:30:44Z</time></trkpt><trkpt lat="31.21765219012405" lon="-8.036024824811857"><ele>1002.0</ele><time>2026-04-27T09:30:45Z</time></trkpt><trkpt lat="31.21757751540185" lon="-8.03616413944043"><ele>1001.0</ele><time>2026-04-27T09:30:46Z</time></trkpt><trkpt lat="31.21748786345218" lon="-8.036266880448204"><ele>1000.0</ele><time>2026-04-27T09:30:47Z</time></trkpt><trkpt lat="31.217374501659478" lon="-8.03633688608057"><ele>999.0</ele><time>2026-04-27T09:30:48Z</time></trkpt><trkpt lat="31.217230564601792" lon="-8.036381251991468"><ele>998.0</ele><time>2026-04-27T09:30:49Z</time></trkpt><trkpt lat="31.217062802920353" lon="-8.036403124674361"><ele>997.0</ele><time>2026-04-27T09:30:50Z</time></trkpt><trkpt lat="31.216908704137484" lon="-8.03640483352516"><ele>996.0</ele><time>2026-04-27T09:30:51Z</time></trkpt><trkpt lat="31.216775737249495" lon="-8.036395080922743"><ele>996.0</ele><time>2026-04-27T09:30:52Z</time></trkpt><trkpt lat="31.21666580735168" lon="-8.036389981015033"><ele>996.0</ele><time>2026-04-27T09:30:53Z</time></trkpt><trkpt lat="31.216564553291988" lon="-8.036408329924727"><ele>996.0</ele><time>2026-04-27T09:30:54Z</time></trkpt><trkpt lat="31.216457903265212" lon="-8.036471375605467"><ele>996.0</ele><time>2026-04-27T09:30:55Z</time></trkpt><trkpt lat="31.216390170280714" lon="-8.036600676211641"><ele>993.3333333333333</ele><time>2026-04-27T09:30:56Z</time></trkpt><trkpt lat="31.216303643188237" lon="-8.036751792999228"><ele>990.6666666666666</ele><time>2026-04-27T09:30:57Z</time></trkpt><trkpt lat="31.216202621766318" lon="-8.03691282788687"><ele>988.0</ele><time>2026-04-27T09:30:58Z</time></trkpt><trkpt lat="31.216118430397334" lon="-8.037069782492242"><ele>988.0</ele><time>2026-04-27T09:30:59Z</time></trkpt><trkpt lat="31.21603630891705" lon="-8.037194790337766"><ele>988.0</ele><time>2026-04-27T09:31:00Z</time></trkpt><trkpt lat="31.215952437581233" lon="-8.037275134475522"><ele>988.0</ele><time>2026-04-27T09:31:01Z</time></trkpt><trkpt lat="31.2158588114513" lon="-8.037314856541153"><ele>988.0</ele><time>2026-04-27T09:31:02Z</time></trkpt><trkpt lat="31.215752827282344" lon="-8.03731527889902"><ele>988.0</ele><time>2026-04-27T09:31:03Z</time></trkpt><trkpt lat="31.215634096296693" lon="-8.037251581748931"><ele>987.5</ele><time>2026-04-27T09:31:04Z</time></trkpt><trkpt lat="31.215528579584802" lon="-8.037165672032277"><ele>987.0</ele><time>2026-04-27T09:31:05Z</time></trkpt><trkpt lat="31.21543671977278" lon="-8.037108346978155"><ele>986.5</ele><time>2026-04-27T09:31:06Z</time></trkpt><trkpt lat="31.215334048586755" lon="-8.037107370415857"><ele>986.0</ele><time>2026-04-27T09:31:07Z</time></trkpt><trkpt lat="31.215209248082793" lon="-8.037162635963755"><ele>986.0</ele><time>2026-04-27T09:31:08Z</time></trkpt><trkpt lat="31.21511960039474" lon="-8.037343841870777"><ele>986.0</ele><time>2026-04-27T09:31:09Z</time></trkpt><trkpt lat="31.214986339291123" lon="-8.037472579767583"><ele>986.0</ele><time>2026-04-27T09:31:10Z</time></trkpt><trkpt lat="31.214849456506556" lon="-8.037610439676747"><ele>983.3333333333334</ele><time>2026-04-27T09:31:11Z</time></trkpt><trkpt lat="31.21472026047675" lon="-8.037732972046205"><ele>980.6666666666667</ele><time>2026-04-27T09:31:12Z</time></trkpt><trkpt lat="31.214600141047775" lon="-8.03784067065313"><ele>978.0</ele><time>2026-04-27T09:31:13Z</time></trkpt><trkpt lat="31.21446272618759" lon="-8.037914506846604"><ele>978.0</ele><time>2026-04-27T09:31:14Z</time></trkpt><trkpt lat="31.214324691418682" lon="-8.037961494003463"><ele>978.0</ele><time>2026-04-27T09:31:15Z</time></trkpt><trkpt lat="31.21419118410585" lon="-8.038041954212362"><ele>978.0</ele><time>2026-04-27T09:31:16Z</time></trkpt><trkpt lat="31.214041497708486" lon="-8.038102371172144"><ele>978.3333333333333</ele><time>2026-04-27T09:31:17Z</time></trkpt><trkpt lat="31.21388650515581" lon="-8.03816341884"><ele>978.6666666666666</ele><time>2026-04-27T09:31:18Z</time></trkpt><trkpt lat="31.21372334662669" lon="-8.038228457367408"><ele>979.0</ele><time>2026-04-27T09:31:19Z</time></trkpt><trkpt lat="31.213559952541267" lon="-8.038298656957043"><ele>977.6666666666666</ele><time>2026-04-27T09:31:20Z</time></trkpt><trkpt lat="31.213394113593257" lon="-8.03838249082498"><ele>976.3333333333333</ele><time>2026-04-27T09:31:21Z</time></trkpt><trkpt lat="31.213232535759833" lon="-8.038474796986467"><ele>975.0</ele><time>2026-04-27T09:31:22Z</time></trkpt><trkpt lat="31.21305807240349" lon="-8.03858731178885"><ele>974.3333333333333</ele><time>2026-04-27T09:31:23Z</time></trkpt><trkpt lat="31.21291701966485" lon="-8.038714834444068"><ele>973.6666666666666</ele><time>2026-04-27T09:31:24Z</time></trkpt><trkpt lat="31.212779784424157" lon="-8.038841756088095"><ele>973.0</ele><time>2026-04-27T09:31:25Z</time></trkpt><trkpt lat="31.212658157404885" lon="-8.038952633708421"><ele>973.0</ele><time>2026-04-27T09:31:26Z</time></trkpt><trkpt lat="31.21253712522076" lon="-8.039054185167686"><ele>973.0</ele><time>2026-04-27T09:31:27Z</time></trkpt><trkpt lat="31.212413739302303" lon="-8.039148186327674"><ele>973.0</ele><time>2026-04-27T09:31:28Z</time></trkpt><trkpt lat="31.21226795115807" lon="-8.039204655631627"><ele>971.6666666666666</ele><time>2026-04-27T09:31:29Z</time></trkpt><trkpt lat="31.212114884856565" lon="-8.039268479233392"><ele>970.3333333333333</ele><time>2026-04-27T09:31:30Z</time></trkpt><trkpt lat="31.21195255399675" lon="-8.039311816268217"><ele>969.0</ele><time>2026-04-27T09:31:31Z</time></trkpt><trkpt lat="31.21180238485508" lon="-8.039343361228388"><ele>969.0</ele><time>2026-04-27T09:31:32Z</time></trkpt><trkpt lat="31.2116587217964" lon="-8.039384745102806"><ele>969.0</ele><time>2026-04-27T09:31:33Z</time></trkpt><trkpt lat="31.211520532097587" lon="-8.039487867898446"><ele>969.0</ele><time>2026-04-27T09:31:34Z</time></trkpt><trkpt lat="31.211378868458198" lon="-8.0396150706536"><ele>968.0</ele><time>2026-04-27T09:31:35Z</time></trkpt><trkpt lat="31.211242581069882" lon="-8.039746212018368"><ele>967.0</ele><time>2026-04-27T09:31:36Z</time></trkpt><trkpt lat="31.211117929349818" lon="-8.039865061094307"><ele>966.0</ele><time>2026-04-27T09:31:37Z</time></trkpt><trkpt lat="31.210976759752107" lon="-8.039931866393593"><ele>966.25</ele><time>2026-04-27T09:31:38Z</time></trkpt><trkpt lat="31.21086379187462" lon="-8.040025901819298"><ele>966.5</ele><time>2026-04-27T09:31:39Z</time></trkpt><trkpt lat="31.21071089597123" lon="-8.04003526570295"><ele>966.75</ele><time>2026-04-27T09:31:40Z</time></trkpt><trkpt lat="31.210565370845156" lon="-8.040032307369515"><ele>967.0</ele><time>2026-04-27T09:31:41Z</time></trkpt><trkpt lat="31.21043743496163" lon="-8.039988850290266"><ele>967.0</ele><time>2026-04-27T09:31:42Z</time></trkpt><trkpt lat="31.21032780450466" lon="-8.039938346069105"><ele>967.0</ele><time>2026-04-27T09:31:43Z</time></trkpt><trkpt lat="31.21022485147837" lon="-8.039962687201166"><ele>967.0</ele><time>2026-04-27T09:31:44Z</time></trkpt><trkpt lat="31.210129206054734" lon="-8.040009996625868"><ele>967.0</ele><time>2026-04-27T09:31:45Z</time></trkpt><trkpt lat="31.210056762198654" lon="-8.040116088015116"><ele>967.0</ele><time>2026-04-27T09:31:46Z</time></trkpt><trkpt lat="31.210001599830495" lon="-8.04025723448453"><ele>965.3333333333333</ele><time>2026-04-27T09:31:47Z</time></trkpt><trkpt lat="31.209938437521302" lon="-8.040427469914299"><ele>963.6666666666667</ele><time>2026-04-27T09:31:48Z</time></trkpt><trkpt lat="31.20986345782343" lon="-8.040594011354196"><ele>962.0</ele><time>2026-04-27T09:31:49Z</time></trkpt><trkpt lat="31.209791496692986" lon="-8.040733598924792"><ele>960.3333333333334</ele><time>2026-04-27T09:31:50Z</time></trkpt><trkpt lat="31.209653798071002" lon="-8.040841255864024"><ele>958.6666666666667</ele><time>2026-04-27T09:31:51Z</time></trkpt><trkpt lat="31.209499247433612" lon="-8.040952178411395"><ele>957.0</ele><time>2026-04-27T09:31:52Z</time></trkpt><trkpt lat="31.209327468189535" lon="-8.041030145186959"><ele>957.0</ele><time>2026-04-27T09:31:53Z</time></trkpt><trkpt lat="31.209167498131077" lon="-8.041080682831938"><ele>957.0</ele><time>2026-04-27T09:31:54Z</time></trkpt><trkpt lat="31.2090297119083" lon="-8.041147763818914"><ele>957.0</ele><time>2026-04-27T09:31:55Z</time></trkpt><trkpt lat="31.20889436494024" lon="-8.04119823330394"><ele>955.75</ele><time>2026-04-27T09:31:56Z</time></trkpt><trkpt lat="31.208746538150454" lon="-8.041178922747688"><ele>954.5</ele><time>2026-04-27T09:31:57Z</time></trkpt><trkpt lat="31.208603416797065" lon="-8.041167763278688"><ele>953.25</ele><time>2026-04-27T09:31:58Z</time></trkpt><trkpt lat="31.208471128650704" lon="-8.041142777064916"><ele>952.0</ele><time>2026-04-27T09:31:59Z</time></trkpt><trkpt lat="31.20834704908107" lon="-8.041140809694182"><ele>952.0</ele><time>2026-04-27T09:32:00Z</time></trkpt><trkpt lat="31.208231546187033" lon="-8.041178646861443"><ele>952.0</ele><time>2026-04-27T09:32:01Z</time></trkpt><trkpt lat="31.208136559754887" lon="-8.041284799521366"><ele>952.0</ele><time>2026-04-27T09:32:02Z</time></trkpt><trkpt lat="31.20803083274421" lon="-8.041384904692604"><ele>952.0</ele><time>2026-04-27T09:32:03Z</time></trkpt><trkpt lat="31.20790393840705" lon="-8.041453831023137"><ele>950.3333333333333</ele><time>2026-04-27T09:32:04Z</time></trkpt><trkpt lat="31.207757985406943" lon="-8.04147723237507"><ele>948.6666666666667</ele><time>2026-04-27T09:32:05Z</time></trkpt><trkpt lat="31.20759180477476" lon="-8.041463220518802"><ele>947.0</ele><time>2026-04-27T09:32:06Z</time></trkpt><trkpt lat="31.207428062504636" lon="-8.041436808448154"><ele>947.5</ele><time>2026-04-27T09:32:07Z</time></trkpt><trkpt lat="31.207281215584317" lon="-8.041399378772235"><ele>948.0</ele><time>2026-04-27T09:32:08Z</time></trkpt><trkpt lat="31.2071464278229" lon="-8.04135062802188"><ele>948.5</ele><time>2026-04-27T09:32:09Z</time></trkpt><trkpt lat="31.20701763865515" lon="-8.04129388400978"><ele>949.0</ele><time>2026-04-27T09:32:10Z</time></trkpt><trkpt lat="31.206889164080504" lon="-8.041241752931013"><ele>949.0</ele><time>2026-04-27T09:32:11Z</time></trkpt><trkpt lat="31.206767741770918" lon="-8.041203373858389"><ele>949.0</ele><time>2026-04-27T09:32:12Z</time></trkpt><trkpt lat="31.206644375852065" lon="-8.041219495056051"><ele>949.0</ele><time>2026-04-27T09:32:13Z</time></trkpt><trkpt lat="31.206512793977392" lon="-8.041222491570819"><ele>949.0</ele><time>2026-04-27T09:32:14Z</time></trkpt><trkpt lat="31.2063911202006" lon="-8.041338543410632"><ele>952.0</ele><time>2026-04-27T09:32:15Z</time></trkpt><trkpt lat="31.20624611767237" lon="-8.041411224398361"><ele>955.0</ele><time>2026-04-27T09:32:16Z</time></trkpt><trkpt lat="31.20610102142775" lon="-8.04148308218693"><ele>958.0</ele><time>2026-04-27T09:32:17Z</time></trkpt><trkpt lat="31.20596743662404" lon="-8.041548686814"><ele>958.0</ele><time>2026-04-27T09:32:18Z</time></trkpt><trkpt lat="31.205852516355613" lon="-8.041605230017032"><ele>958.0</ele><time>2026-04-27T09:32:19Z</time></trkpt><trkpt lat="31.205746969955662" lon="-8.041658028724688"><ele>958.0</ele><time>2026-04-27T09:32:20Z</time></trkpt><trkpt lat="31.205645751939088" lon="-8.041708398149309"><ele>958.0</ele><time>2026-04-27T09:32:21Z</time></trkpt><trkpt lat="31.205543469872236" lon="-8.041757055331383"><ele>956.5</ele><time>2026-04-27T09:32:22Z</time></trkpt><trkpt lat="31.20543394240459" lon="-8.04180394020675"><ele>955.0</ele><time>2026-04-27T09:32:23Z</time></trkpt><trkpt lat="31.205312481939604" lon="-8.04184528407134"><ele>953.5</ele><time>2026-04-27T09:32:24Z</time></trkpt><trkpt lat="31.205184784837172" lon="-8.041903542025105"><ele>952.0</ele><time>2026-04-27T09:32:25Z</time></trkpt><trkpt lat="31.205050748025126" lon="-8.041951705584447"><ele>952.0</ele><time>2026-04-27T09:32:26Z</time></trkpt><trkpt lat="31.204922559554504" lon="-8.042021613914008"><ele>952.0</ele><time>2026-04-27T09:32:27Z</time></trkpt><trkpt lat="31.204762307832713" lon="-8.041987636119517"><ele>952.0</ele><time>2026-04-27T09:32:28Z</time></trkpt><trkpt lat="31.20461612483983" lon="-8.041992786178826"><ele>952.5</ele><time>2026-04-27T09:32:29Z</time></trkpt><trkpt lat="31.204485250465027" lon="-8.04202054427887"><ele>953.0</ele><time>2026-04-27T09:32:30Z</time></trkpt><trkpt lat="31.204362338238017" lon="-8.042094149177487"><ele>953.5</ele><time>2026-04-27T09:32:31Z</time></trkpt><trkpt lat="31.20425756358055" lon="-8.042212109288846"><ele>954.0</ele><time>2026-04-27T09:32:32Z</time></trkpt><trkpt lat="31.20424019624899" lon="-8.042395130242978"><ele>955.0</ele><time>2026-04-27T09:32:33Z</time></trkpt><trkpt lat="31.20416343950728" lon="-8.04254471507458"><ele>956.0</ele><time>2026-04-27T09:32:34Z</time></trkpt><trkpt lat="31.20407474600783" lon="-8.042684587808921"><ele>957.0</ele><time>2026-04-27T09:32:35Z</time></trkpt><trkpt lat="31.203950378305816" lon="-8.042826124757047"><ele>957.0</ele><time>2026-04-27T09:32:36Z</time></trkpt><trkpt lat="31.20377889117187" lon="-8.042926237717964"><ele>957.0</ele><time>2026-04-27T09:32:37Z</time></trkpt><trkpt lat="31.203636097683" lon="-8.043023748815894"><ele>957.0</ele><time>2026-04-27T09:32:38Z</time></trkpt><trkpt lat="31.203528671125238" lon="-8.04312279350708"><ele>957.0</ele><time>2026-04-27T09:32:39Z</time></trkpt><trkpt lat="31.203429166226964" lon="-8.043222738371137"><ele>957.0</ele><time>2026-04-27T09:32:40Z</time></trkpt><trkpt lat="31.203328205414888" lon="-8.043339986035056"><ele>957.0</ele><time>2026-04-27T09:32:41Z</time></trkpt><trkpt lat="31.20322693577241" lon="-8.043457452205457"><ele>957.0</ele><time>2026-04-27T09:32:42Z</time></trkpt><trkpt lat="31.203086493151908" lon="-8.0435305311787"><ele>954.0</ele><time>2026-04-27T09:32:43Z</time></trkpt><trkpt lat="31.20294867638957" lon="-8.043615231305836"><ele>951.0</ele><time>2026-04-27T09:32:44Z</time></trkpt><trkpt lat="31.202793519770516" lon="-8.043691452412029"><ele>948.0</ele><time>2026-04-27T09:32:45Z</time></trkpt><trkpt lat="31.20265209145504" lon="-8.043771378732796"><ele>948.0</ele><time>2026-04-27T09:32:46Z</time></trkpt><trkpt lat="31.202522073555038" lon="-8.043831906009105"><ele>948.0</ele><time>2026-04-27T09:32:47Z</time></trkpt><trkpt lat="31.202402716673163" lon="-8.043892404580625"><ele>948.0</ele><time>2026-04-27T09:32:48Z</time></trkpt><trkpt lat="31.20228927445099" lon="-8.04394982676584"><ele>948.0</ele><time>2026-04-27T09:32:49Z</time></trkpt><trkpt lat="31.202191527525585" lon="-8.044023013962299"><ele>948.25</ele><time>2026-04-27T09:32:50Z</time></trkpt><trkpt lat="31.2021271992682" lon="-8.044128437585961"><ele>948.5</ele><time>2026-04-27T09:32:51Z</time></trkpt><trkpt lat="31.202071957367586" lon="-8.044263851065972"><ele>948.75</ele><time>2026-04-27T09:32:52Z</time></trkpt><trkpt lat="31.20203044556908" lon="-8.044433518906251"><ele>949.0</ele><time>2026-04-27T09:32:53Z</time></trkpt><trkpt lat="31.20199125413678" lon="-8.044603123657362"><ele>949.0</ele><time>2026-04-27T09:32:54Z</time></trkpt><trkpt lat="31.201950127281048" lon="-8.044747600093604"><ele>949.0</ele><time>2026-04-27T09:32:55Z</time></trkpt><trkpt lat="31.201885122432234" lon="-8.044860106146382"><ele>949.0</ele><time>2026-04-27T09:32:56Z</time></trkpt><trkpt lat="31.201799981403163" lon="-8.044935291206812"><ele>949.0</ele><time>2026-04-27T09:32:57Z</time></trkpt><trkpt lat="31.201720840680167" lon="-8.045019456237817"><ele>947.5</ele><time>2026-04-27T09:32:58Z</time></trkpt><trkpt lat="31.20156977982887" lon="-8.045014505145751"><ele>946.0</ele><time>2026-04-27T09:32:59Z</time></trkpt><trkpt lat="31.20145169155949" lon="-8.045067786269247"><ele>944.5</ele><time>2026-04-27T09:33:00Z</time></trkpt><trkpt lat="31.20136446908957" lon="-8.045133891699912"><ele>943.0</ele><time>2026-04-27T09:33:01Z</time></trkpt><trkpt lat="31.20130315455462" lon="-8.045222090531903"><ele>943.0</ele><time>2026-04-27T09:33:02Z</time></trkpt><trkpt lat="31.201274363948308" lon="-8.045327343993952"><ele>943.0</ele><time>2026-04-27T09:33:03Z</time></trkpt><trkpt lat="31.201279282016145" lon="-8.045453500838077"><ele>943.0</ele><time>2026-04-27T09:33:04Z</time></trkpt><trkpt lat="31.20134258106814" lon="-8.045588411856825"><ele>943.0</ele><time>2026-04-27T09:33:05Z</time></trkpt><trkpt lat="31.20139873890488" lon="-8.045738596053129"><ele>941.75</ele><time>2026-04-27T09:33:06Z</time></trkpt><trkpt lat="31.20144383168275" lon="-8.045884166123077"><ele>940.5</ele><time>2026-04-27T09:33:07Z</time></trkpt><trkpt lat="31.201444075074388" lon="-8.04604598892828"><ele>939.25</ele><time>2026-04-27T09:33:08Z</time></trkpt><trkpt lat="31.201373756793302" lon="-8.046207730482262"><ele>938.0</ele><time>2026-04-27T09:33:09Z</time></trkpt><trkpt lat="31.201295572031544" lon="-8.04634580008277"><ele>938.0</ele><time>2026-04-27T09:33:10Z</time></trkpt><trkpt lat="31.20118400363267" lon="-8.046431689688948"><ele>938.0</ele><time>2026-04-27T09:33:11Z</time></trkpt><trkpt lat="31.201095109429556" lon="-8.046522933825525"><ele>938.0</ele><time>2026-04-27T09:33:12Z</time></trkpt><trkpt lat="31.2009290165877" lon="-8.046471802684103"><ele>938.0</ele><time>2026-04-27T09:33:13Z</time></trkpt><trkpt lat="31.200783332680565" lon="-8.0464283102845"><ele>937.0</ele><time>2026-04-27T09:33:14Z</time></trkpt><trkpt lat="31.20063853070501" lon="-8.046379547465998"><ele>936.0</ele><time>2026-04-27T09:33:15Z</time></trkpt><trkpt lat="31.200511104855504" lon="-8.04639631414809"><ele>935.0</ele><time>2026-04-27T09:33:16Z</time></trkpt><trkpt lat="31.20039165349677" lon="-8.046439249305415"><ele>934.0</ele><time>2026-04-27T09:33:17Z</time></trkpt><trkpt lat="31.20029749102449" lon="-8.046535790182416"><ele>934.4000000000001</ele><time>2026-04-27T09:33:18Z</time></trkpt><trkpt lat="31.200250272866175" lon="-8.046649548304243"><ele>934.8000000000001</ele><time>2026-04-27T09:33:19Z</time></trkpt><trkpt lat="31.200225068336874" lon="-8.046753930481822"><ele>935.1999999999999</ele><time>2026-04-27T09:33:20Z</time></trkpt><trkpt lat="31.200280945261863" lon="-8.04686304472014"><ele>935.5999999999999</ele><time>2026-04-27T09:33:21Z</time></trkpt><trkpt lat="31.200312444400012" lon="-8.046985275787454"><ele>936.0</ele><time>2026-04-27T09:33:22Z</time></trkpt><trkpt lat="31.200357109083445" lon="-8.047129188435928"><ele>936.0</ele><time>2026-04-27T09:33:23Z</time></trkpt><trkpt lat="31.200393310447442" lon="-8.047244374063615"><ele>936.0</ele><time>2026-04-27T09:33:24Z</time></trkpt><trkpt lat="31.200387475555548" lon="-8.047381670938359"><ele>936.0</ele><time>2026-04-27T09:33:25Z</time></trkpt><trkpt lat="31.200384674947202" lon="-8.047509842151445"><ele>936.0</ele><time>2026-04-27T09:33:26Z</time></trkpt><trkpt lat="31.200261229820473" lon="-8.047628065980575"><ele>936.0</ele><time>2026-04-27T09:33:27Z</time></trkpt><trkpt lat="31.2001268346754" lon="-8.047655841461273"><ele>936.0</ele><time>2026-04-27T09:33:28Z</time></trkpt><trkpt lat="31.200009325326377" lon="-8.047651987422967"><ele>936.0</ele><time>2026-04-27T09:33:29Z</time></trkpt><trkpt lat="31.19988256373596" lon="-8.04756972641956"><ele>936.0</ele><time>2026-04-27T09:33:30Z</time></trkpt><trkpt lat="31.199752273942902" lon="-8.047463033471539"><ele>938.3333333333333</ele><time>2026-04-27T09:33:31Z</time></trkpt><trkpt lat="31.199620139105246" lon="-8.047385617907645"><ele>940.6666666666666</ele><time>2026-04-27T09:33:32Z</time></trkpt><trkpt lat="31.199455570722755" lon="-8.047385727645132"><ele>943.0</ele><time>2026-04-27T09:33:33Z</time></trkpt><trkpt lat="31.199294336868522" lon="-8.04740138513633"><ele>943.0</ele><time>2026-04-27T09:33:34Z</time></trkpt><trkpt lat="31.199159897920097" lon="-8.047395169644506"><ele>943.0</ele><time>2026-04-27T09:33:35Z</time></trkpt><trkpt lat="31.199052915689265" lon="-8.04740353024518"><ele>943.0</ele><time>2026-04-27T09:33:36Z</time></trkpt><trkpt lat="31.19894428166658" lon="-8.047423492933722"><ele>943.0</ele><time>2026-04-27T09:33:37Z</time></trkpt><trkpt lat="31.19883862732752" lon="-8.047483383529809"><ele>943.5</ele><time>2026-04-27T09:33:38Z</time></trkpt><trkpt lat="31.19873492597048" lon="-8.047530945614783"><ele>944.0</ele><time>2026-04-27T09:33:39Z</time></trkpt><trkpt lat="31.19862781092697" lon="-8.047583941824858"><ele>944.5</ele><time>2026-04-27T09:33:40Z</time></trkpt><trkpt lat="31.198510419733832" lon="-8.047648118294317"><ele>945.0</ele><time>2026-04-27T09:33:41Z</time></trkpt><trkpt lat="31.198378247128467" lon="-8.047699492298454"><ele>945.0</ele><time>2026-04-27T09:33:42Z</time></trkpt><trkpt lat="31.198264703831114" lon="-8.047764339998967"><ele>945.0</ele><time>2026-04-27T09:33:43Z</time></trkpt><trkpt lat="31.19816872008416" lon="-8.047822568456072"><ele>945.0</ele><time>2026-04-27T09:33:44Z</time></trkpt><trkpt lat="31.198076796707586" lon="-8.047864421314614"><ele>945.0</ele><time>2026-04-27T09:33:45Z</time></trkpt><trkpt lat="31.197980022079086" lon="-8.047922252847878"><ele>945.0</ele><time>2026-04-27T09:33:46Z</time></trkpt><trkpt lat="31.19788917477927" lon="-8.047973244375363"><ele>945.4</ele><time>2026-04-27T09:33:47Z</time></trkpt><trkpt lat="31.19780546430677" lon="-8.048020772977159"><ele>945.8</ele><time>2026-04-27T09:33:48Z</time></trkpt><trkpt lat="31.197724502637694" lon="-8.048066560960605"><ele>946.2</ele><time>2026-04-27T09:33:49Z</time></trkpt><trkpt lat="31.197636051751246" lon="-8.04811657930838"><ele>946.6</ele><time>2026-04-27T09:33:50Z</time></trkpt><trkpt lat="31.197542679489644" lon="-8.04816963676036"><ele>947.0</ele><time>2026-04-27T09:33:51Z</time></trkpt><trkpt lat="31.197444752248995" lon="-8.048231996512738"><ele>946.5</ele><time>2026-04-27T09:33:52Z</time></trkpt><trkpt lat="31.197343563260766" lon="-8.048307335605529"><ele>946.0</ele><time>2026-04-27T09:33:53Z</time></trkpt><trkpt lat="31.197247357879135" lon="-8.04839379464668"><ele>945.5</ele><time>2026-04-27T09:33:54Z</time></trkpt><trkpt lat="31.19714908064396" lon="-8.048496612876285"><ele>945.0</ele><time>2026-04-27T09:33:55Z</time></trkpt><trkpt lat="31.19704882776899" lon="-8.048607532842235"><ele>945.0</ele><time>2026-04-27T09:33:56Z</time></trkpt><trkpt lat="31.19693699985998" lon="-8.048733928570236"><ele>945.0</ele><time>2026-04-27T09:33:57Z</time></trkpt><trkpt lat="31.19681382515612" lon="-8.04886988127568"><ele>945.0</ele><time>2026-04-27T09:33:58Z</time></trkpt><trkpt lat="31.19668582062403" lon="-8.049011911495636"><ele>944.0</ele><time>2026-04-27T09:33:59Z</time></trkpt><trkpt lat="31.19657086499353" lon="-8.049145264241405"><ele>943.0</ele><time>2026-04-27T09:34:00Z</time></trkpt><trkpt lat="31.19646457438513" lon="-8.04926808155275"><ele>942.0</ele><time>2026-04-27T09:34:01Z</time></trkpt><trkpt lat="31.1963595939118" lon="-8.04938271574399"><ele>942.0</ele><time>2026-04-27T09:34:02Z</time></trkpt><trkpt lat="31.19624809628404" lon="-8.04951267246913"><ele>942.0</ele><time>2026-04-27T09:34:03Z</time></trkpt><trkpt lat="31.196139260377038" lon="-8.04966782771302"><ele>942.0</ele><time>2026-04-27T09:34:04Z</time></trkpt><trkpt lat="31.196039429651258" lon="-8.049832033446155"><ele>940.3333333333333</ele><time>2026-04-27T09:34:05Z</time></trkpt><trkpt lat="31.195952223226147" lon="-8.049993461989656"><ele>938.6666666666666</ele><time>2026-04-27T09:34:06Z</time></trkpt><trkpt lat="31.195874597367563" lon="-8.050152152111425"><ele>937.0</ele><time>2026-04-27T09:34:07Z</time></trkpt><trkpt lat="31.195798360562037" lon="-8.050302023704301"><ele>937.0</ele><time>2026-04-27T09:34:08Z</time></trkpt><trkpt lat="31.195721396141863" lon="-8.05044061004761"><ele>937.0</ele><time>2026-04-27T09:34:09Z</time></trkpt><trkpt lat="31.195641755277215" lon="-8.050566174898872"><ele>937.0</ele><time>2026-04-27T09:34:10Z</time></trkpt><trkpt lat="31.19555251877403" lon="-8.050666968353378"><ele>937.0</ele><time>2026-04-27T09:34:11Z</time></trkpt><trkpt lat="31.19543699416254" lon="-8.050733991291441"><ele>937.75</ele><time>2026-04-27T09:34:12Z</time></trkpt><trkpt lat="31.19530729779263" lon="-8.050741690578546"><ele>938.5</ele><time>2026-04-27T09:34:13Z</time></trkpt><trkpt lat="31.195179766139557" lon="-8.050700610188079"><ele>939.25</ele><time>2026-04-27T09:34:14Z</time></trkpt><trkpt lat="31.195058282558932" lon="-8.05064242275306"><ele>940.0</ele><time>2026-04-27T09:34:15Z</time></trkpt><trkpt lat="31.194933850180416" lon="-8.050590056943356"><ele>941.5</ele><time>2026-04-27T09:34:16Z</time></trkpt><trkpt lat="31.19480642778925" lon="-8.050565397281957"><ele>943.0</ele><time>2026-04-27T09:34:17Z</time></trkpt><trkpt lat="31.194678088580442" lon="-8.050598180963323"><ele>944.5</ele><time>2026-04-27T09:34:18Z</time></trkpt><trkpt lat="31.194552954968408" lon="-8.050627895679677"><ele>946.0</ele><time>2026-04-27T09:34:19Z</time></trkpt><trkpt lat="31.194431745752777" lon="-8.050662802680895"><ele>946.0</ele><time>2026-04-27T09:34:20Z</time></trkpt><trkpt lat="31.194307312185593" lon="-8.050696946416435"><ele>946.0</ele><time>2026-04-27T09:34:21Z</time></trkpt><trkpt lat="31.1941887491338" lon="-8.050741154204024"><ele>946.0</ele><time>2026-04-27T09:34:22Z</time></trkpt><trkpt lat="31.194064965457187" lon="-8.050787074653789"><ele>946.0</ele><time>2026-04-27T09:34:23Z</time></trkpt><trkpt lat="31.19393890176318" lon="-8.05083486754126"><ele>945.75</ele><time>2026-04-27T09:34:24Z</time></trkpt><trkpt lat="31.193810265391537" lon="-8.050884069223384"><ele>945.5</ele><time>2026-04-27T09:34:25Z</time></trkpt><trkpt lat="31.193679679769744" lon="-8.050934141797178"><ele>945.25</ele><time>2026-04-27T09:34:26Z</time></trkpt><trkpt lat="31.193551619424554" lon="-8.050994068431876"><ele>945.0</ele><time>2026-04-27T09:34:27Z</time></trkpt><trkpt lat="31.19344407671315" lon="-8.05108461397059"><ele>945.0</ele><time>2026-04-27T09:34:28Z</time></trkpt><trkpt lat="31.193337464946833" lon="-8.051195482534943"><ele>945.0</ele><time>2026-04-27T09:34:29Z</time></trkpt><trkpt lat="31.193270738658782" lon="-8.05135116879022"><ele>945.0</ele><time>2026-04-27T09:34:30Z</time></trkpt><trkpt lat="31.193197496972083" lon="-8.051504943778172"><ele>945.0</ele><time>2026-04-27T09:34:31Z</time></trkpt><trkpt lat="31.193133871596334" lon="-8.051645154783854"><ele>944.75</ele><time>2026-04-27T09:34:32Z</time></trkpt><trkpt lat="31.1930707420694" lon="-8.051770833264712"><ele>944.5</ele><time>2026-04-27T09:34:33Z</time></trkpt><trkpt lat="31.193039508414987" lon="-8.051907816150207"><ele>944.25</ele><time>2026-04-27T09:34:34Z</time></trkpt><trkpt lat="31.192976638513283" lon="-8.052035878959598"><ele>944.0</ele><time>2026-04-27T09:34:35Z</time></trkpt><trkpt lat="31.19294393743474" lon="-8.052186117287084"><ele>944.0</ele><time>2026-04-27T09:34:36Z</time></trkpt><trkpt lat="31.192882679958267" lon="-8.052338937850552"><ele>944.0</ele><time>2026-04-27T09:34:37Z</time></trkpt><trkpt lat="31.19279239964178" lon="-8.052481186166675"><ele>944.0</ele><time>2026-04-27T09:34:38Z</time></trkpt><trkpt lat="31.192695192137908" lon="-8.052627883004055"><ele>942.3333333333334</ele><time>2026-04-27T09:34:39Z</time></trkpt><trkpt lat="31.192602449161967" lon="-8.052788065067242"><ele>940.6666666666667</ele><time>2026-04-27T09:34:40Z</time></trkpt><trkpt lat="31.19250006865842" lon="-8.052936171135434"><ele>939.0</ele><time>2026-04-27T09:34:41Z</time></trkpt><trkpt lat="31.192398867342614" lon="-8.053084285677446"><ele>939.3333333333333</ele><time>2026-04-27T09:34:42Z</time></trkpt><trkpt lat="31.192298095620025" lon="-8.053233254297352"><ele>939.6666666666666</ele><time>2026-04-27T09:34:43Z</time></trkpt><trkpt lat="31.192182646117" lon="-8.05337201227239"><ele>940.0</ele><time>2026-04-27T09:34:44Z</time></trkpt><trkpt lat="31.192056655712218" lon="-8.053485586833002"><ele>940.75</ele><time>2026-04-27T09:34:45Z</time></trkpt><trkpt lat="31.191951787392064" lon="-8.05358818805873"><ele>941.5</ele><time>2026-04-27T09:34:46Z</time></trkpt><trkpt lat="31.191870628134048" lon="-8.053693796194786"><ele>942.25</ele><time>2026-04-27T09:34:47Z</time></trkpt><trkpt lat="31.191781743844633" lon="-8.053786867606231"><ele>943.0</ele><time>2026-04-27T09:34:48Z</time></trkpt><trkpt lat="31.191728043216756" lon="-8.053927192138085"><ele>943.0</ele><time>2026-04-27T09:34:49Z</time></trkpt><trkpt lat="31.19170018609625" lon="-8.05408524979471"><ele>943.0</ele><time>2026-04-27T09:34:50Z</time></trkpt><trkpt lat="31.19167449475889" lon="-8.054241561906903"><ele>943.0</ele><time>2026-04-27T09:34:51Z</time></trkpt><trkpt lat="31.19164411519388" lon="-8.054385567653334"><ele>943.0</ele><time>2026-04-27T09:34:52Z</time></trkpt><trkpt lat="31.191609027185823" lon="-8.054523631150378"><ele>943.75</ele><time>2026-04-27T09:34:53Z</time></trkpt><trkpt lat="31.1915608448263" lon="-8.054664788684516"><ele>944.5</ele><time>2026-04-27T09:34:54Z</time></trkpt><trkpt lat="31.19148769724992" lon="-8.05481658707687"><ele>945.25</ele><time>2026-04-27T09:34:55Z</time></trkpt><trkpt lat="31.19138929190318" lon="-8.054968008357392"><ele>946.0</ele><time>2026-04-27T09:34:56Z</time></trkpt><trkpt lat="31.191276740579685" lon="-8.055101493466667"><ele>948.0</ele><time>2026-04-27T09:34:57Z</time></trkpt><trkpt lat="31.191166627143865" lon="-8.055218877970288"><ele>950.0</ele><time>2026-04-27T09:34:58Z</time></trkpt><trkpt lat="31.191073490292165" lon="-8.055328990665307"><ele>952.0</ele><time>2026-04-27T09:34:59Z</time></trkpt><trkpt lat="31.190986095918316" lon="-8.055445759513432"><ele>954.0</ele><time>2026-04-27T09:35:00Z</time></trkpt><trkpt lat="31.190901897866713" lon="-8.055575517640378"><ele>954.0</ele><time>2026-04-27T09:35:01Z</time></trkpt><trkpt lat="31.190824683808163" lon="-8.055705289327848"><ele>954.0</ele><time>2026-04-27T09:35:02Z</time></trkpt><trkpt lat="31.190740068154497" lon="-8.055834022224362"><ele>954.0</ele><time>2026-04-27T09:35:03Z</time></trkpt><trkpt lat="31.190637165580803" lon="-8.055956598096609"><ele>954.0</ele><time>2026-04-27T09:35:04Z</time></trkpt><trkpt lat="31.1905068173732" lon="-8.056060661721107"><ele>955.3333333333333</ele><time>2026-04-27T09:35:05Z</time></trkpt><trkpt lat="31.190356898186035" lon="-8.056138114886213"><ele>956.6666666666666</ele><time>2026-04-27T09:35:06Z</time></trkpt><trkpt lat="31.190215540373746" lon="-8.056213155448466"><ele>958.0</ele><time>2026-04-27T09:35:07Z</time></trkpt><trkpt lat="31.190106297315342" lon="-8.056322816326073"><ele>958.0</ele><time>2026-04-27T09:35:08Z</time></trkpt><trkpt lat="31.190040761398045" lon="-8.056484677039721"><ele>958.0</ele><time>2026-04-27T09:35:09Z</time></trkpt><trkpt lat="31.18994923359761" lon="-8.056632124250573"><ele>958.0</ele><time>2026-04-27T09:35:10Z</time></trkpt><trkpt lat="31.18985934206374" lon="-8.056780749784341"><ele>959.25</ele><time>2026-04-27T09:35:11Z</time></trkpt><trkpt lat="31.189769639487523" lon="-8.056915889487076"><ele>960.5</ele><time>2026-04-27T09:35:12Z</time></trkpt><trkpt lat="31.189633823694038" lon="-8.056965122276118"><ele>961.75</ele><time>2026-04-27T09:35:13Z</time></trkpt><trkpt lat="31.18950365676904" lon="-8.056977513239968"><ele>963.0</ele><time>2026-04-27T09:35:14Z</time></trkpt><trkpt lat="31.189372067033993" lon="-8.056981496600066"><ele>963.0</ele><time>2026-04-27T09:35:15Z</time></trkpt><trkpt lat="31.18926145760437" lon="-8.05702635392895"><ele>963.0</ele><time>2026-04-27T09:35:16Z</time></trkpt><trkpt lat="31.189196218300573" lon="-8.057132068216214"><ele>963.0</ele><time>2026-04-27T09:35:17Z</time></trkpt><trkpt lat="31.189167282890352" lon="-8.057252558064604"><ele>963.0</ele><time>2026-04-27T09:35:18Z</time></trkpt><trkpt lat="31.189180048482797" lon="-8.057390716080175"><ele>962.6666666666667</ele><time>2026-04-27T09:35:19Z</time></trkpt><trkpt lat="31.189176216790905" lon="-8.057564394519117"><ele>962.3333333333334</ele><time>2026-04-27T09:35:20Z</time></trkpt><trkpt lat="31.189192633696646" lon="-8.05774556483687"><ele>962.0</ele><time>2026-04-27T09:35:21Z</time></trkpt><trkpt lat="31.189191278936846" lon="-8.057916567141362"><ele>962.0</ele><time>2026-04-27T09:35:22Z</time></trkpt><trkpt lat="31.189180856463583" lon="-8.05808209315231"><ele>962.0</ele><time>2026-04-27T09:35:23Z</time></trkpt><trkpt lat="31.189167655699237" lon="-8.058237130960046"><ele>962.0</ele><time>2026-04-27T09:35:24Z</time></trkpt><trkpt lat="31.189152559798863" lon="-8.058393922440548"><ele>962.0</ele><time>2026-04-27T09:35:25Z</time></trkpt><trkpt lat="31.189127000372356" lon="-8.058544700053167"><ele>963.25</ele><time>2026-04-27T09:35:26Z</time></trkpt><trkpt lat="31.189085483427405" lon="-8.058689859769512"><ele>964.5</ele><time>2026-04-27T09:35:27Z</time></trkpt><trkpt lat="31.18906147392899" lon="-8.058841119848418"><ele>965.75</ele><time>2026-04-27T09:35:28Z</time></trkpt><trkpt lat="31.189014229414575" lon="-8.05897070281587"><ele>967.0</ele><time>2026-04-27T09:35:29Z</time></trkpt><trkpt lat="31.189017887281764" lon="-8.059095840762774"><ele>967.6</ele><time>2026-04-27T09:35:30Z</time></trkpt><trkpt lat="31.189061434911306" lon="-8.059204021803088"><ele>968.2</ele><time>2026-04-27T09:35:31Z</time></trkpt><trkpt lat="31.189163364241885" lon="-8.059273713006299"><ele>968.8</ele><time>2026-04-27T09:35:32Z</time></trkpt><trkpt lat="31.189238071562123" lon="-8.059368090099277"><ele>969.4</ele><time>2026-04-27T09:35:33Z</time></trkpt><trkpt lat="31.189307507595288" lon="-8.059477038109511"><ele>970.0</ele><time>2026-04-27T09:35:34Z</time></trkpt><trkpt lat="31.189367896158725" lon="-8.059608333825699"><ele>970.0</ele><time>2026-04-27T09:35:35Z</time></trkpt><trkpt lat="31.189397071695232" lon="-8.059768003092994"><ele>970.0</ele><time>2026-04-27T09:35:36Z</time></trkpt><trkpt lat="31.189403199450044" lon="-8.059922882193407"><ele>970.0</ele><time>2026-04-27T09:35:37Z</time></trkpt><trkpt lat="31.189402346507464" lon="-8.060079171507534"><ele>970.0</ele><time>2026-04-27T09:35:38Z</time></trkpt><trkpt lat="31.189365762552743" lon="-8.060247220696715"><ele>972.6666666666666</ele><time>2026-04-27T09:35:39Z</time></trkpt><trkpt lat="31.189303646956716" lon="-8.0604117024175"><ele>975.3333333333333</ele><time>2026-04-27T09:35:40Z</time></trkpt><trkpt lat="31.18923329543799" lon="-8.060588240714582"><ele>978.0</ele><time>2026-04-27T09:35:41Z</time></trkpt><trkpt lat="31.18916488031113" lon="-8.060762877042357"><ele>977.5</ele><time>2026-04-27T09:35:42Z</time></trkpt><trkpt lat="31.189086141592504" lon="-8.060923951909768"><ele>977.0</ele><time>2026-04-27T09:35:43Z</time></trkpt><trkpt lat="31.1889929444187" lon="-8.061049120079721"><ele>976.5</ele><time>2026-04-27T09:35:44Z</time></trkpt><trkpt lat="31.188895380304178" lon="-8.061160006265862"><ele>976.0</ele><time>2026-04-27T09:35:45Z</time></trkpt><trkpt lat="31.18882043030117" lon="-8.06129139117428"><ele>983.3333333333333</ele><time>2026-04-27T09:35:46Z</time></trkpt><trkpt lat="31.188773386799866" lon="-8.061447898402228"><ele>990.6666666666667</ele><time>2026-04-27T09:35:47Z</time></trkpt><trkpt lat="31.18874107954913" lon="-8.061627659158416"><ele>998.0</ele><time>2026-04-27T09:35:48Z</time></trkpt><trkpt lat="31.18870138300435" lon="-8.061816352530846"><ele>998.0</ele><time>2026-04-27T09:35:49Z</time></trkpt><trkpt lat="31.18864474448687" lon="-8.061983770908748"><ele>998.0</ele><time>2026-04-27T09:35:50Z</time></trkpt><trkpt lat="31.188563815430868" lon="-8.062138959444184"><ele>998.0</ele><time>2026-04-27T09:35:51Z</time></trkpt><trkpt lat="31.188469780791024" lon="-8.062273572679967"><ele>998.0</ele><time>2026-04-27T09:35:52Z</time></trkpt><trkpt lat="31.18835432732268" lon="-8.062383590648043"><ele>998.0</ele><time>2026-04-27T09:35:53Z</time></trkpt><trkpt lat="31.188207450816943" lon="-8.062469934048925"><ele>998.0</ele><time>2026-04-27T09:35:54Z</time></trkpt><trkpt lat="31.188055651256953" lon="-8.062548872900068"><ele>1000.25</ele><time>2026-04-27T09:35:55Z</time></trkpt><trkpt lat="31.187944708310216" lon="-8.062649248218312"><ele>1002.5</ele><time>2026-04-27T09:35:56Z</time></trkpt><trkpt lat="31.187881898579302" lon="-8.06280683276853"><ele>1004.75</ele><time>2026-04-27T09:35:57Z</time></trkpt><trkpt lat="31.187793455364183" lon="-8.062933151724065"><ele>1007.0</ele><time>2026-04-27T09:35:58Z</time></trkpt><trkpt lat="31.187690749283068" lon="-8.063036325642337"><ele>1007.0</ele><time>2026-04-27T09:35:59Z</time></trkpt><trkpt lat="31.187578700600096" lon="-8.063104952999497"><ele>1007.0</ele><time>2026-04-27T09:36:00Z</time></trkpt><trkpt lat="31.187496126795985" lon="-8.063184834084243"><ele>1007.0</ele><time>2026-04-27T09:36:01Z</time></trkpt><trkpt lat="31.18745028718667" lon="-8.063295428805006"><ele>1007.0</ele><time>2026-04-27T09:36:02Z</time></trkpt><trkpt lat="31.187448452613808" lon="-8.06342207079074"><ele>1007.0</ele><time>2026-04-27T09:36:03Z</time></trkpt><trkpt lat="31.187516484202693" lon="-8.06354581342499"><ele>1005.5</ele><time>2026-04-27T09:36:04Z</time></trkpt><trkpt lat="31.187575259051755" lon="-8.063683229617094"><ele>1004.0</ele><time>2026-04-27T09:36:05Z</time></trkpt><trkpt lat="31.187631469818154" lon="-8.063804974088809"><ele>1002.5</ele><time>2026-04-27T09:36:06Z</time></trkpt><trkpt lat="31.187575558669757" lon="-8.06398251557554"><ele>1001.0</ele><time>2026-04-27T09:36:07Z</time></trkpt><trkpt lat="31.18750057233479" lon="-8.06415296273607"><ele>1001.0</ele><time>2026-04-27T09:36:08Z</time></trkpt><trkpt lat="31.187403072599015" lon="-8.064309395157245"><ele>1001.0</ele><time>2026-04-27T09:36:09Z</time></trkpt><trkpt lat="31.187291849908007" lon="-8.064443686193046"><ele>1001.0</ele><time>2026-04-27T09:36:10Z</time></trkpt><trkpt lat="31.1871691970966" lon="-8.06455620825954"><ele>1005.0</ele><time>2026-04-27T09:36:11Z</time></trkpt><trkpt lat="31.187032531764462" lon="-8.064641170108978"><ele>1009.0</ele><time>2026-04-27T09:36:12Z</time></trkpt><trkpt lat="31.18688954798121" lon="-8.064713925320454"><ele>1013.0</ele><time>2026-04-27T09:36:13Z</time></trkpt><trkpt lat="31.18675313430821" lon="-8.064798069621002"><ele>1013.0</ele><time>2026-04-27T09:36:14Z</time></trkpt><trkpt lat="31.18662817984227" lon="-8.06489708877959"><ele>1013.0</ele><time>2026-04-27T09:36:15Z</time></trkpt><trkpt lat="31.186511833745346" lon="-8.06499280450717"><ele>1013.0</ele><time>2026-04-27T09:36:16Z</time></trkpt><trkpt lat="31.18641011133272" lon="-8.06507770839932"><ele>1013.0</ele><time>2026-04-27T09:36:17Z</time></trkpt><trkpt lat="31.186310471828712" lon="-8.065171937538842"><ele>1013.2</ele><time>2026-04-27T09:36:18Z</time></trkpt><trkpt lat="31.186220347554244" lon="-8.06527272774455"><ele>1013.4</ele><time>2026-04-27T09:36:19Z</time></trkpt><trkpt lat="31.186153398790896" lon="-8.06537693846947"><ele>1013.6000000000001</ele><time>2026-04-27T09:36:20Z</time></trkpt><trkpt lat="31.186113567522128" lon="-8.065484788337363"><ele>1013.8000000000001</ele><time>2026-04-27T09:36:21Z</time></trkpt><trkpt lat="31.186088999397825" lon="-8.065601478679072"><ele>1014.0</ele><time>2026-04-27T09:36:22Z</time></trkpt><trkpt lat="31.18606811071556" lon="-8.065724983382427"><ele>1013.0</ele><time>2026-04-27T09:36:23Z</time></trkpt><trkpt lat="31.18606577900362" lon="-8.065848872021935"><ele>1012.0000000000001</ele><time>2026-04-27T09:36:24Z</time></trkpt><trkpt lat="31.186051093629395" lon="-8.065974037482347"><ele>1011.0000000000001</ele><time>2026-04-27T09:36:25Z</time></trkpt><trkpt lat="31.186030243574944" lon="-8.066101631841686"><ele>1010.0</ele><time>2026-04-27T09:36:26Z</time></trkpt><trkpt lat="31.185997369408494" lon="-8.066233653919381"><ele>1009.0</ele><time>2026-04-27T09:36:27Z</time></trkpt><trkpt lat="31.18596103280001" lon="-8.066349915418558"><ele>1009.0</ele><time>2026-04-27T09:36:28Z</time></trkpt><trkpt lat="31.185897049304604" lon="-8.06645241943112"><ele>1009.0</ele><time>2026-04-27T09:36:29Z</time></trkpt><trkpt lat="31.185782042775955" lon="-8.066481073495572"><ele>1009.0</ele><time>2026-04-27T09:36:30Z</time></trkpt><trkpt lat="31.185675325041803" lon="-8.06648646385548"><ele>1009.0</ele><time>2026-04-27T09:36:31Z</time></trkpt><trkpt lat="31.185555748826925" lon="-8.066460593729095"><ele>1007.0</ele><time>2026-04-27T09:36:32Z</time></trkpt><trkpt lat="31.18543291971413" lon="-8.066430171421201"><ele>1005.0000000000001</ele><time>2026-04-27T09:36:33Z</time></trkpt><trkpt lat="31.185325737278458" lon="-8.066438946500146"><ele>1003.0000000000001</ele><time>2026-04-27T09:36:34Z</time></trkpt><trkpt lat="31.185228868004966" lon="-8.06646095261522"><ele>1001.0</ele><time>2026-04-27T09:36:35Z</time></trkpt><trkpt lat="31.18514440848308" lon="-8.066508052812754"><ele>999.0</ele><time>2026-04-27T09:36:36Z</time></trkpt><trkpt lat="31.185071615858277" lon="-8.066591260842964"><ele>999.8000000000001</ele><time>2026-04-27T09:36:37Z</time></trkpt><trkpt lat="31.18499314864749" lon="-8.066687728797195"><ele>1000.6000000000001</ele><time>2026-04-27T09:36:38Z</time></trkpt><trkpt lat="31.18493853181134" lon="-8.066803189788596"><ele>1001.4</ele><time>2026-04-27T09:36:39Z</time></trkpt><trkpt lat="31.184858389621784" lon="-8.06687484705315"><ele>1002.2</ele><time>2026-04-27T09:36:40Z</time></trkpt><trkpt lat="31.18475028368251" lon="-8.0668946970892"><ele>1003.0</ele><time>2026-04-27T09:36:41Z</time></trkpt><trkpt lat="31.184622682269126" lon="-8.066864007375973"><ele>1000.2</ele><time>2026-04-27T09:36:42Z</time></trkpt><trkpt lat="31.18451021042826" lon="-8.066787427701241"><ele>997.4</ele><time>2026-04-27T09:36:43Z</time></trkpt><trkpt lat="31.184416004876713" lon="-8.066704746040465"><ele>994.6000000000001</ele><time>2026-04-27T09:36:44Z</time></trkpt><trkpt lat="31.184319562828495" lon="-8.06668457449461"><ele>991.8000000000001</ele><time>2026-04-27T09:36:45Z</time></trkpt><trkpt lat="31.184230438345626" lon="-8.066714895256517"><ele>989.0</ele><time>2026-04-27T09:36:46Z</time></trkpt><trkpt lat="31.18413424756138" lon="-8.066776880925756"><ele>988.25</ele><time>2026-04-27T09:36:47Z</time></trkpt><trkpt lat="31.184010561793716" lon="-8.066819558383818"><ele>987.5</ele><time>2026-04-27T09:36:48Z</time></trkpt><trkpt lat="31.183887139300925" lon="-8.066822380235163"><ele>986.75</ele><time>2026-04-27T09:36:49Z</time></trkpt><trkpt lat="31.18376410590341" lon="-8.066835645479937"><ele>986.0</ele><time>2026-04-27T09:36:50Z</time></trkpt><trkpt lat="31.183628460909638" lon="-8.066833635318078"><ele>986.0</ele><time>2026-04-27T09:36:51Z</time></trkpt><trkpt lat="31.183502005881042" lon="-8.066829737362946"><ele>986.0</ele><time>2026-04-27T09:36:52Z</time></trkpt><trkpt lat="31.183353500533244" lon="-8.066804444417626"><ele>986.0</ele><time>2026-04-27T09:36:53Z</time></trkpt><trkpt lat="31.183181485740807" lon="-8.066760004279562"><ele>985.0</ele><time>2026-04-27T09:36:54Z</time></trkpt><trkpt lat="31.183048913794547" lon="-8.066712834241002"><ele>984.0</ele><time>2026-04-27T09:36:55Z</time></trkpt><trkpt lat="31.182936378525497" lon="-8.066661403282863"><ele>983.0</ele><time>2026-04-27T09:36:56Z</time></trkpt><trkpt lat="31.18282180738976" lon="-8.066642974750458"><ele>982.0</ele><time>2026-04-27T09:36:57Z</time></trkpt><trkpt lat="31.182725011065692" lon="-8.066614071835797"><ele>980.5714285714286</ele><time>2026-04-27T09:36:58Z</time></trkpt><trkpt lat="31.182652553631943" lon="-8.066586719479309"><ele>979.1428571428571</ele><time>2026-04-27T09:36:59Z</time></trkpt><trkpt lat="31.182589720837772" lon="-8.066563446306759"><ele>977.7142857142857</ele><time>2026-04-27T09:37:00Z</time></trkpt><trkpt lat="31.182529183777238" lon="-8.066541148648945"><ele>976.2857142857142</ele><time>2026-04-27T09:37:01Z</time></trkpt><trkpt lat="31.182462307535342" lon="-8.066548789280459"><ele>974.8571428571429</ele><time>2026-04-27T09:37:02Z</time></trkpt><trkpt lat="31.182378660972894" lon="-8.066548178731253"><ele>973.4285714285713</ele><time>2026-04-27T09:37:03Z</time></trkpt><trkpt lat="31.182300757895053" lon="-8.06658483323011"><ele>972.0</ele><time>2026-04-27T09:37:04Z</time></trkpt><trkpt lat="31.182220279646366" lon="-8.066633424232567"><ele>972.0</ele><time>2026-04-27T09:37:05Z</time></trkpt><trkpt lat="31.182148465439965" lon="-8.06670222511444"><ele>972.0</ele><time>2026-04-27T09:37:06Z</time></trkpt><trkpt lat="31.182106572942345" lon="-8.066794866336066"><ele>972.0</ele><time>2026-04-27T09:37:07Z</time></trkpt><trkpt lat="31.18208127895702" lon="-8.066921580374908"><ele>972.0</ele><time>2026-04-27T09:37:08Z</time></trkpt><trkpt lat="31.18209065069939" lon="-8.067072660826891"><ele>972.0</ele><time>2026-04-27T09:37:09Z</time></trkpt><trkpt lat="31.182080504863375" lon="-8.067240365443451"><ele>972.0</ele><time>2026-04-27T09:37:10Z</time></trkpt><trkpt lat="31.182022224204907" lon="-8.067396380170957"><ele>972.0</ele><time>2026-04-27T09:37:11Z</time></trkpt><trkpt lat="31.1819543685836" lon="-8.067553457468936"><ele>972.0</ele><time>2026-04-27T09:37:12Z</time></trkpt><trkpt lat="31.181857416487095" lon="-8.067687316322518"><ele>972.0</ele><time>2026-04-27T09:37:13Z</time></trkpt><trkpt lat="31.181722247863352" lon="-8.067771467997787"><ele>972.0</ele><time>2026-04-27T09:37:14Z</time></trkpt><trkpt lat="31.181583814120884" lon="-8.067832856681164"><ele>972.0</ele><time>2026-04-27T09:37:15Z</time></trkpt><trkpt lat="31.181423550918087" lon="-8.067866911036994"><ele>972.0</ele><time>2026-04-27T09:37:16Z</time></trkpt><trkpt lat="31.181242780710964" lon="-8.067845483791697"><ele>969.3333333333333</ele><time>2026-04-27T09:37:17Z</time></trkpt><trkpt lat="31.181058902455202" lon="-8.06782863003673"><ele>966.6666666666666</ele><time>2026-04-27T09:37:18Z</time></trkpt><trkpt lat="31.180887524592436" lon="-8.067811331269459"><ele>964.0</ele><time>2026-04-27T09:37:19Z</time></trkpt><trkpt lat="31.18073089309679" lon="-8.067794371108437"><ele>962.5</ele><time>2026-04-27T09:37:20Z</time></trkpt><trkpt lat="31.180587281519923" lon="-8.067779062449326"><ele>961.0</ele><time>2026-04-27T09:37:21Z</time></trkpt><trkpt lat="31.180454121991925" lon="-8.067766619851817"><ele>959.5</ele><time>2026-04-27T09:37:22Z</time></trkpt><trkpt lat="31.18034289018248" lon="-8.067762502153595"><ele>958.0</ele><time>2026-04-27T09:37:23Z</time></trkpt><trkpt lat="31.180235546823337" lon="-8.067784165812055"><ele>958.0</ele><time>2026-04-27T09:37:24Z</time></trkpt><trkpt lat="31.18012999810487" lon="-8.06781598432567"><ele>958.0</ele><time>2026-04-27T09:37:25Z</time></trkpt><trkpt lat="31.180042431205905" lon="-8.067877259857049"><ele>958.0</ele><time>2026-04-27T09:37:26Z</time></trkpt><trkpt lat="31.179979955051902" lon="-8.067976283883917"><ele>958.0</ele><time>2026-04-27T09:37:27Z</time></trkpt><trkpt lat="31.179942913006872" lon="-8.068090935703578"><ele>958.0</ele><time>2026-04-27T09:37:28Z</time></trkpt><trkpt lat="31.179917226871417" lon="-8.068228500057936"><ele>959.0</ele><time>2026-04-27T09:37:29Z</time></trkpt><trkpt lat="31.17992802797485" lon="-8.0683493190208"><ele>960.0</ele><time>2026-04-27T09:37:30Z</time></trkpt><trkpt lat="31.179968680808475" lon="-8.068476201011359"><ele>961.0</ele><time>2026-04-27T09:37:31Z</time></trkpt><trkpt lat="31.180089839608943" lon="-8.068549270257524"><ele>962.0</ele><time>2026-04-27T09:37:32Z</time></trkpt><trkpt lat="31.18020846437937" lon="-8.068604753225774"><ele>962.0</ele><time>2026-04-27T09:37:33Z</time></trkpt><trkpt lat="31.180365184486313" lon="-8.068625577496412"><ele>962.0</ele><time>2026-04-27T09:37:34Z</time></trkpt><trkpt lat="31.180553654817448" lon="-8.068639368384838"><ele>962.0</ele><time>2026-04-27T09:37:35Z</time></trkpt><trkpt lat="31.180722152060653" lon="-8.068639895470081"><ele>962.75</ele><time>2026-04-27T09:37:36Z</time></trkpt><trkpt lat="31.180871433070486" lon="-8.068651236880143"><ele>963.5</ele><time>2026-04-27T09:37:37Z</time></trkpt><trkpt lat="31.181012354030692" lon="-8.06865227261461"><ele>964.25</ele><time>2026-04-27T09:37:38Z</time></trkpt><trkpt lat="31.181142016206632" lon="-8.068668949815555"><ele>965.0</ele><time>2026-04-27T09:37:39Z</time></trkpt><trkpt lat="31.181252763177252" lon="-8.068703916769286"><ele>965.0</ele><time>2026-04-27T09:37:40Z</time></trkpt><trkpt lat="31.18133541503058" lon="-8.068770436250158"><ele>965.0</ele><time>2026-04-27T09:37:41Z</time></trkpt><trkpt lat="31.18139272545819" lon="-8.068868983974237"><ele>965.0</ele><time>2026-04-27T09:37:42Z</time></trkpt><trkpt lat="31.18141098379534" lon="-8.068984086759626"><ele>965.0</ele><time>2026-04-27T09:37:43Z</time></trkpt><trkpt lat="31.181378449943463" lon="-8.069117087681105"><ele>965.0</ele><time>2026-04-27T09:37:44Z</time></trkpt><trkpt lat="31.181336592423794" lon="-8.069238819714132"><ele>961.0</ele><time>2026-04-27T09:37:45Z</time></trkpt><trkpt lat="31.181235527356286" lon="-8.06931486301885"><ele>957.0</ele><time>2026-04-27T09:37:46Z</time></trkpt><trkpt lat="31.181095383314684" lon="-8.069321009371972"><ele>953.0</ele><time>2026-04-27T09:37:47Z</time></trkpt><trkpt lat="31.180945918460004" lon="-8.06933251150872"><ele>949.0</ele><time>2026-04-27T09:37:48Z</time></trkpt><trkpt lat="31.180800057348186" lon="-8.069388349547568"><ele>947.6666666666666</ele><time>2026-04-27T09:37:49Z</time></trkpt><trkpt lat="31.180657012436736" lon="-8.069465449818175"><ele>946.3333333333333</ele><time>2026-04-27T09:37:50Z</time></trkpt><trkpt lat="31.180502911281945" lon="-8.069585440756372"><ele>945.0</ele><time>2026-04-27T09:37:51Z</time></trkpt><trkpt lat="31.18034452732651" lon="-8.069711342462936"><ele>945.0</ele><time>2026-04-27T09:37:52Z</time></trkpt><trkpt lat="31.18020195388127" lon="-8.069847717872344"><ele>945.0</ele><time>2026-04-27T09:37:53Z</time></trkpt><trkpt lat="31.180064700947664" lon="-8.069977535446123"><ele>945.0</ele><time>2026-04-27T09:37:54Z</time></trkpt><trkpt lat="31.17996148025518" lon="-8.070131156580073"><ele>942.6666666666667</ele><time>2026-04-27T09:37:55Z</time></trkpt><trkpt lat="31.179858929867184" lon="-8.070300820968177"><ele>940.3333333333334</ele><time>2026-04-27T09:37:56Z</time></trkpt><trkpt lat="31.179750554981467" lon="-8.070505514200836"><ele>938.0</ele><time>2026-04-27T09:37:57Z</time></trkpt><trkpt lat="31.17964881197443" lon="-8.070698577119986"><ele>934.3333333333334</ele><time>2026-04-27T09:37:58Z</time></trkpt><trkpt lat="31.179529625344728" lon="-8.070863951245524"><ele>930.6666666666667</ele><time>2026-04-27T09:37:59Z</time></trkpt><trkpt lat="31.17944483997393" lon="-8.071044347081745"><ele>927.0</ele><time>2026-04-27T09:38:00Z</time></trkpt><trkpt lat="31.179364593727225" lon="-8.07122786981065"><ele>927.0</ele><time>2026-04-27T09:38:01Z</time></trkpt><trkpt lat="31.179299531595763" lon="-8.0714095412999"><ele>927.0</ele><time>2026-04-27T09:38:02Z</time></trkpt><trkpt lat="31.179238772532027" lon="-8.07158912894792"><ele>927.0</ele><time>2026-04-27T09:38:03Z</time></trkpt><trkpt lat="31.17917666736166" lon="-8.071761799304893"><ele>927.0</ele><time>2026-04-27T09:38:04Z</time></trkpt><trkpt lat="31.179119257054616" lon="-8.071933819031548"><ele>927.0</ele><time>2026-04-27T09:38:05Z</time></trkpt><trkpt lat="31.17906570269167" lon="-8.072102143238935"><ele>927.0</ele><time>2026-04-27T09:38:06Z</time></trkpt><trkpt lat="31.179007616132033" lon="-8.072259956258367"><ele>924.75</ele><time>2026-04-27T09:38:07Z</time></trkpt><trkpt lat="31.17895999788812" lon="-8.072423606723396"><ele>922.5</ele><time>2026-04-27T09:38:08Z</time></trkpt><trkpt lat="31.178931437946257" lon="-8.0725799288378"><ele>920.25</ele><time>2026-04-27T09:38:09Z</time></trkpt><trkpt lat="31.178928588860508" lon="-8.072736357341178"><ele>918.0</ele><time>2026-04-27T09:38:10Z</time></trkpt><trkpt lat="31.17892938632485" lon="-8.072890748877558"><ele>917.75</ele><time>2026-04-27T09:38:11Z</time></trkpt><trkpt lat="31.17890424708091" lon="-8.073041474598439"><ele>917.5</ele><time>2026-04-27T09:38:12Z</time></trkpt><trkpt lat="31.17884622901103" lon="-8.073185284087996"><ele>917.25</ele><time>2026-04-27T09:38:13Z</time></trkpt><trkpt lat="31.17877685954661" lon="-8.07332144981438"><ele>917.0</ele><time>2026-04-27T09:38:14Z</time></trkpt><trkpt lat="31.178696515416" lon="-8.073456672677302"><ele>915.6666666666667</ele><time>2026-04-27T09:38:15Z</time></trkpt><trkpt lat="31.178604125617554" lon="-8.07358971212136"><ele>914.3333333333333</ele><time>2026-04-27T09:38:16Z</time></trkpt><trkpt lat="31.178493952343675" lon="-8.073715581348564"><ele>913.0</ele><time>2026-04-27T09:38:17Z</time></trkpt><trkpt lat="31.178363703119388" lon="-8.073826944031765"><ele>913.0</ele><time>2026-04-27T09:38:18Z</time></trkpt><trkpt lat="31.178237307859" lon="-8.07392089606453"><ele>913.0</ele><time>2026-04-27T09:38:19Z</time></trkpt><trkpt lat="31.17811358488563" lon="-8.074003663707675"><ele>913.0</ele><time>2026-04-27T09:38:20Z</time></trkpt><trkpt lat="31.17798775326105" lon="-8.074073790529964"><ele>913.0</ele><time>2026-04-27T09:38:21Z</time></trkpt><trkpt lat="31.177865688643752" lon="-8.074134746119807"><ele>910.25</ele><time>2026-04-27T09:38:22Z</time></trkpt><trkpt lat="31.177749416679887" lon="-8.074203002206412"><ele>907.5</ele><time>2026-04-27T09:38:23Z</time></trkpt><trkpt lat="31.17763647680223" lon="-8.074261656403468"><ele>904.75</ele><time>2026-04-27T09:38:24Z</time></trkpt><trkpt lat="31.177524897807327" lon="-8.074322476377903"><ele>902.0</ele><time>2026-04-27T09:38:25Z</time></trkpt><trkpt lat="31.177411768352147" lon="-8.074381541314892"><ele>904.25</ele><time>2026-04-27T09:38:26Z</time></trkpt><trkpt lat="31.177302030334438" lon="-8.074452993230743"><ele>906.5</ele><time>2026-04-27T09:38:27Z</time></trkpt><trkpt lat="31.177196027636434" lon="-8.074525698082981"><ele>908.75</ele><time>2026-04-27T09:38:28Z</time></trkpt><trkpt lat="31.17710305899412" lon="-8.074603657909565"><ele>911.0</ele><time>2026-04-27T09:38:29Z</time></trkpt><trkpt lat="31.177033501392682" lon="-8.074688326791259"><ele>911.0</ele><time>2026-04-27T09:38:30Z</time></trkpt><trkpt lat="31.177030233542137" lon="-8.074822117471108"><ele>911.0</ele><time>2026-04-27T09:38:31Z</time></trkpt><trkpt lat="31.17702445421366" lon="-8.074941617674234"><ele>911.0</ele><time>2026-04-27T09:38:32Z</time></trkpt><trkpt lat="31.177024241568645" lon="-8.075064556741978"><ele>911.0</ele><time>2026-04-27T09:38:33Z</time></trkpt><trkpt lat="31.177031451157564" lon="-8.07521863941345"><ele>911.5</ele><time>2026-04-27T09:38:34Z</time></trkpt><trkpt lat="31.177040627310678" lon="-8.075376717316146"><ele>912.0</ele><time>2026-04-27T09:38:35Z</time></trkpt><trkpt lat="31.17704987921083" lon="-8.075539089247034"><ele>912.5</ele><time>2026-04-27T09:38:36Z</time></trkpt><trkpt lat="31.17704741511287" lon="-8.075690591166946"><ele>913.0</ele><time>2026-04-27T09:38:37Z</time></trkpt><trkpt lat="31.177047274559587" lon="-8.075836601672252"><ele>912.0</ele><time>2026-04-27T09:38:38Z</time></trkpt><trkpt lat="31.177012261698806" lon="-8.075983869533397"><ele>911.0</ele><time>2026-04-27T09:38:39Z</time></trkpt><trkpt lat="31.176970518098926" lon="-8.076096896356592"><ele>910.0</ele><time>2026-04-27T09:38:40Z</time></trkpt><trkpt lat="31.176913099241553" lon="-8.07622360526552"><ele>909.0</ele><time>2026-04-27T09:38:41Z</time></trkpt><trkpt lat="31.176811740272885" lon="-8.076353303669872"><ele>909.0</ele><time>2026-04-27T09:38:42Z</time></trkpt><trkpt lat="31.176692240458763" lon="-8.076484982583766"><ele>909.0</ele><time>2026-04-27T09:38:43Z</time></trkpt><trkpt lat="31.17657743710418" lon="-8.076607134967485"><ele>909.0</ele><time>2026-04-27T09:38:44Z</time></trkpt><trkpt lat="31.17647573714693" lon="-8.07673372794078"><ele>910.0</ele><time>2026-04-27T09:38:45Z</time></trkpt><trkpt lat="31.17640834808122" lon="-8.076884252612736"><ele>911.0</ele><time>2026-04-27T09:38:46Z</time></trkpt><trkpt lat="31.176331686386746" lon="-8.07702686331807"><ele>912.0</ele><time>2026-04-27T09:38:47Z</time></trkpt><trkpt lat="31.17625641167378" lon="-8.077165296971872"><ele>913.0</ele><time>2026-04-27T09:38:48Z</time></trkpt><trkpt lat="31.17619723476521" lon="-8.077290976005486"><ele>913.0</ele><time>2026-04-27T09:38:49Z</time></trkpt><trkpt lat="31.176143973253367" lon="-8.077419824089224"><ele>913.0</ele><time>2026-04-27T09:38:50Z</time></trkpt><trkpt lat="31.17610451166035" lon="-8.077558679428066"><ele>913.0</ele><time>2026-04-27T09:38:51Z</time></trkpt><trkpt lat="31.1760807954815" lon="-8.07770765414775"><ele>913.0</ele><time>2026-04-27T09:38:52Z</time></trkpt><trkpt lat="31.17606352082601" lon="-8.077858383692314"><ele>911.75</ele><time>2026-04-27T09:38:53Z</time></trkpt><trkpt lat="31.176046254170924" lon="-8.077994267666528"><ele>910.5</ele><time>2026-04-27T09:38:54Z</time></trkpt><trkpt lat="31.17599613151193" lon="-8.07812972003401"><ele>909.25</ele><time>2026-04-27T09:38:55Z</time></trkpt><trkpt lat="31.17592361734883" lon="-8.078270597043208"><ele>908.0</ele><time>2026-04-27T09:38:56Z</time></trkpt><trkpt lat="31.1758285727554" lon="-8.078418632364707"><ele>906.3333333333334</ele><time>2026-04-27T09:38:57Z</time></trkpt><trkpt lat="31.175728163850973" lon="-8.078567458107285"><ele>904.6666666666667</ele><time>2026-04-27T09:38:58Z</time></trkpt><trkpt lat="31.175630641170855" lon="-8.078703867084757"><ele>903.0</ele><time>2026-04-27T09:38:59Z</time></trkpt><trkpt lat="31.17555292288771" lon="-8.078862968649215"><ele>904.75</ele><time>2026-04-27T09:39:00Z</time></trkpt><trkpt lat="31.175462227655597" lon="-8.07899828703345"><ele>906.5</ele><time>2026-04-27T09:39:01Z</time></trkpt><trkpt lat="31.175374403041825" lon="-8.079116909624668"><ele>908.25</ele><time>2026-04-27T09:39:02Z</time></trkpt><trkpt lat="31.17530279015109" lon="-8.079248442288842"><ele>910.0</ele><time>2026-04-27T09:39:03Z</time></trkpt><trkpt lat="31.175255716483832" lon="-8.079389826068859"><ele>910.0</ele><time>2026-04-27T09:39:04Z</time></trkpt><trkpt lat="31.17526022164828" lon="-8.079541334087834"><ele>910.0</ele><time>2026-04-27T09:39:05Z</time></trkpt><trkpt lat="31.17523282198008" lon="-8.079704588744667"><ele>910.0</ele><time>2026-04-27T09:39:06Z</time></trkpt><trkpt lat="31.17519637948411" lon="-8.079873415150258"><ele>910.0</ele><time>2026-04-27T09:39:07Z</time></trkpt><trkpt lat="31.17514799092677" lon="-8.08002699052365"><ele>910.25</ele><time>2026-04-27T09:39:08Z</time></trkpt><trkpt lat="31.175105218028307" lon="-8.080162209430375"><ele>910.5</ele><time>2026-04-27T09:39:09Z</time></trkpt><trkpt lat="31.174984438596596" lon="-8.080248213597594"><ele>910.75</ele><time>2026-04-27T09:39:10Z</time></trkpt><trkpt lat="31.174894817860192" lon="-8.080308621835623"><ele>911.0</ele><time>2026-04-27T09:39:11Z</time></trkpt><trkpt lat="31.17479519336304" lon="-8.080358165315564"><ele>911.0</ele><time>2026-04-27T09:39:12Z</time></trkpt><trkpt lat="31.17467247322288" lon="-8.080339497629861"><ele>911.0</ele><time>2026-04-27T09:39:13Z</time></trkpt><trkpt lat="31.17455423091093" lon="-8.080309194996753"><ele>911.0</ele><time>2026-04-27T09:39:14Z</time></trkpt><trkpt lat="31.174429313822742" lon="-8.080244841098937"><ele>911.0</ele><time>2026-04-27T09:39:15Z</time></trkpt><trkpt lat="31.174293888782003" lon="-8.08016050542909"><ele>911.0</ele><time>2026-04-27T09:39:16Z</time></trkpt><trkpt lat="31.174145694684633" lon="-8.080084793123838"><ele>911.0</ele><time>2026-04-27T09:39:17Z</time></trkpt><trkpt lat="31.17398174777212" lon="-8.080030828675149"><ele>911.0</ele><time>2026-04-27T09:39:18Z</time></trkpt><trkpt lat="31.173819235923972" lon="-8.079940331970873"><ele>912.6666666666667</ele><time>2026-04-27T09:39:19Z</time></trkpt><trkpt lat="31.173649604009707" lon="-8.079868812315524"><ele>914.3333333333333</ele><time>2026-04-27T09:39:20Z</time></trkpt><trkpt lat="31.17348898166128" lon="-8.079803194276842"><ele>916.0</ele><time>2026-04-27T09:39:21Z</time></trkpt><trkpt lat="31.173342025651678" lon="-8.0797498359629"><ele>916.0</ele><time>2026-04-27T09:39:22Z</time></trkpt><trkpt lat="31.173209072218214" lon="-8.079751625492172"><ele>916.0</ele><time>2026-04-27T09:39:23Z</time></trkpt><trkpt lat="31.173085539525616" lon="-8.079762409312062"><ele>916.0</ele><time>2026-04-27T09:39:24Z</time></trkpt><trkpt lat="31.17295532087035" lon="-8.079779378438454"><ele>916.0</ele><time>2026-04-27T09:39:25Z</time></trkpt><trkpt lat="31.17285267852638" lon="-8.079864529704967"><ele>917.75</ele><time>2026-04-27T09:39:26Z</time></trkpt><trkpt lat="31.17274444937526" lon="-8.07997196532845"><ele>919.5</ele><time>2026-04-27T09:39:27Z</time></trkpt><trkpt lat="31.17263454650376" lon="-8.080105443741944"><ele>921.25</ele><time>2026-04-27T09:39:28Z</time></trkpt><trkpt lat="31.172570267130872" lon="-8.080260442861134"><ele>923.0</ele><time>2026-04-27T09:39:29Z</time></trkpt><trkpt lat="31.172530964321762" lon="-8.080404606791767"><ele>923.0</ele><time>2026-04-27T09:39:30Z</time></trkpt><trkpt lat="31.17249759173472" lon="-8.08055099205552"><ele>923.0</ele><time>2026-04-27T09:39:31Z</time></trkpt><trkpt lat="31.17246526708586" lon="-8.080692724394448"><ele>923.0</ele><time>2026-04-27T09:39:32Z</time></trkpt><trkpt lat="31.172432917562023" lon="-8.08084418453346"><ele>923.0</ele><time>2026-04-27T09:39:33Z</time></trkpt><trkpt lat="31.172398944634708" lon="-8.081010932926986"><ele>923.0</ele><time>2026-04-27T09:39:34Z</time></trkpt><trkpt lat="31.172366648484775" lon="-8.081189931696759"><ele>923.0</ele><time>2026-04-27T09:39:35Z</time></trkpt><trkpt lat="31.172350993312296" lon="-8.081361030737234"><ele>923.0</ele><time>2026-04-27T09:39:36Z</time></trkpt><trkpt lat="31.172357150957346" lon="-8.081529389903114"><ele>923.0</ele><time>2026-04-27T09:39:37Z</time></trkpt><trkpt lat="31.172372448012887" lon="-8.081704214755487"><ele>923.0</ele><time>2026-04-27T09:39:38Z</time></trkpt><trkpt lat="31.172380554255128" lon="-8.081869904944949"><ele>923.0</ele><time>2026-04-27T09:39:39Z</time></trkpt><trkpt lat="31.17238912766455" lon="-8.082025972013684"><ele>923.0</ele><time>2026-04-27T09:39:40Z</time></trkpt><trkpt lat="31.17240872874071" lon="-8.08217818346283"><ele>923.0</ele><time>2026-04-27T09:39:41Z</time></trkpt><trkpt lat="31.17244536515291" lon="-8.082319535313058"><ele>923.0</ele><time>2026-04-27T09:39:42Z</time></trkpt><trkpt lat="31.172486258016274" lon="-8.082468503716095"><ele>923.0</ele><time>2026-04-27T09:39:43Z</time></trkpt><trkpt lat="31.17252543066442" lon="-8.082604821876865"><ele>923.0</ele><time>2026-04-27T09:39:44Z</time></trkpt><trkpt lat="31.17257011729383" lon="-8.082745295378142"><ele>923.0</ele><time>2026-04-27T09:39:45Z</time></trkpt><trkpt lat="31.172616148301397" lon="-8.082872901369399"><ele>923.0</ele><time>2026-04-27T09:39:46Z</time></trkpt><trkpt lat="31.172663081894076" lon="-8.08299072733771"><ele>923.0</ele><time>2026-04-27T09:39:47Z</time></trkpt><trkpt lat="31.172717741138673" lon="-8.08310753135636"><ele>923.0</ele><time>2026-04-27T09:39:48Z</time></trkpt><trkpt lat="31.1727680795229" lon="-8.083217142981"><ele>923.0</ele><time>2026-04-27T09:39:49Z</time></trkpt><trkpt lat="31.172811502857645" lon="-8.083330803024568"><ele>923.0</ele><time>2026-04-27T09:39:50Z</time></trkpt><trkpt lat="31.172851473910722" lon="-8.083445369965906"><ele>921.8</ele><time>2026-04-27T09:39:51Z</time></trkpt><trkpt lat="31.17288045146782" lon="-8.083556665986624"><ele>920.5999999999999</ele><time>2026-04-27T09:39:52Z</time></trkpt><trkpt lat="31.172890456200264" lon="-8.08368615573054"><ele>919.4000000000001</ele><time>2026-04-27T09:39:53Z</time></trkpt><trkpt lat="31.17287239617962" lon="-8.083820167345227"><ele>918.2</ele><time>2026-04-27T09:39:54Z</time></trkpt><trkpt lat="31.172822590343824" lon="-8.08394249663847"><ele>917.0</ele><time>2026-04-27T09:39:55Z</time></trkpt><trkpt lat="31.172741448495678" lon="-8.084053105791133"><ele>912.3333333333334</ele><time>2026-04-27T09:39:56Z</time></trkpt><trkpt lat="31.172666081831196" lon="-8.084174468212286"><ele>907.6666666666667</ele><time>2026-04-27T09:39:57Z</time></trkpt><trkpt lat="31.172517065211267" lon="-8.084241718670434"><ele>903.0</ele><time>2026-04-27T09:39:58Z</time></trkpt><trkpt lat="31.172367373214225" lon="-8.08431863318838"><ele>904.6666666666667</ele><time>2026-04-27T09:39:59Z</time></trkpt><trkpt lat="31.17222605694127" lon="-8.084400382026985"><ele>906.3333333333334</ele><time>2026-04-27T09:40:00Z</time></trkpt><trkpt lat="31.172083548314585" lon="-8.084482003132946"><ele>908.0</ele><time>2026-04-27T09:40:01Z</time></trkpt><trkpt lat="31.171957201406865" lon="-8.084569593398685"><ele>908.0</ele><time>2026-04-27T09:40:02Z</time></trkpt><trkpt lat="31.17182925904172" lon="-8.084656982168537"><ele>908.0</ele><time>2026-04-27T09:40:03Z</time></trkpt><trkpt lat="31.17171061058591" lon="-8.0847346952755"><ele>908.0</ele><time>2026-04-27T09:40:04Z</time></trkpt><trkpt lat="31.171614745003794" lon="-8.08483486885654"><ele>908.0</ele><time>2026-04-27T09:40:05Z</time></trkpt><trkpt lat="31.171532656792547" lon="-8.084941465215458"><ele>908.75</ele><time>2026-04-27T09:40:06Z</time></trkpt><trkpt lat="31.171477339200543" lon="-8.085056938938461"><ele>909.5</ele><time>2026-04-27T09:40:07Z</time></trkpt><trkpt lat="31.171456720931687" lon="-8.085182083510796"><ele>910.25</ele><time>2026-04-27T09:40:08Z</time></trkpt><trkpt lat="31.171469959530246" lon="-8.085313307343684"><ele>911.0</ele><time>2026-04-27T09:40:09Z</time></trkpt><trkpt lat="31.171524858372834" lon="-8.085439299536066"><ele>908.75</ele><time>2026-04-27T09:40:10Z</time></trkpt><trkpt lat="31.171611866730377" lon="-8.08553852224245"><ele>906.5</ele><time>2026-04-27T09:40:11Z</time></trkpt><trkpt lat="31.17172165921392" lon="-8.085601038478043"><ele>904.25</ele><time>2026-04-27T09:40:12Z</time></trkpt><trkpt lat="31.171849136062175" lon="-8.085580993121562"><ele>902.0</ele><time>2026-04-27T09:40:13Z</time></trkpt><trkpt lat="31.17197721508592" lon="-8.085539702709086"><ele>902.0</ele><time>2026-04-27T09:40:14Z</time></trkpt><trkpt lat="31.172111120324267" lon="-8.085498911776885"><ele>902.0</ele><time>2026-04-27T09:40:15Z</time></trkpt><trkpt lat="31.172247970544475" lon="-8.085478679457047"><ele>902.0</ele><time>2026-04-27T09:40:16Z</time></trkpt><trkpt lat="31.1723623482396" lon="-8.085468306301694"><ele>902.0</ele><time>2026-04-27T09:40:17Z</time></trkpt><trkpt lat="31.172470948515407" lon="-8.085476066657842"><ele>902.0</ele><time>2026-04-27T09:40:18Z</time></trkpt><trkpt lat="31.172559317100763" lon="-8.085490698630991"><ele>902.0</ele><time>2026-04-27T09:40:19Z</time></trkpt><trkpt lat="31.17265072455291" lon="-8.085544375971176"><ele>902.0</ele><time>2026-04-27T09:40:20Z</time></trkpt><trkpt lat="31.172732793195614" lon="-8.085656518742956"><ele>902.0</ele><time>2026-04-27T09:40:21Z</time></trkpt><trkpt lat="31.17277204358399" lon="-8.08580631364432"><ele>902.0</ele><time>2026-04-27T09:40:22Z</time></trkpt><trkpt lat="31.172802037660272" lon="-8.085936248686028"><ele>902.0</ele><time>2026-04-27T09:40:23Z</time></trkpt><trkpt lat="31.1727380519094" lon="-8.08611855262856"><ele>902.0</ele><time>2026-04-27T09:40:24Z</time></trkpt><trkpt lat="31.17272438606532" lon="-8.086270699891525"><ele>902.0</ele><time>2026-04-27T09:40:25Z</time></trkpt><trkpt lat="31.17270986339429" lon="-8.086422208173829"><ele>902.0</ele><time>2026-04-27T09:40:26Z</time></trkpt><trkpt lat="31.17269550362543" lon="-8.086563562440544"><ele>902.0</ele><time>2026-04-27T09:40:27Z</time></trkpt><trkpt lat="31.172678485164525" lon="-8.086697211879843"><ele>902.0</ele><time>2026-04-27T09:40:28Z</time></trkpt><trkpt lat="31.172663590180967" lon="-8.086817282327246"><ele>902.0</ele><time>2026-04-27T09:40:29Z</time></trkpt><trkpt lat="31.172637963013017" lon="-8.086949784020183"><ele>901.0000000000001</ele><time>2026-04-27T09:40:30Z</time></trkpt><trkpt lat="31.17260774505062" lon="-8.0870271909536"><ele>900.0</ele><time>2026-04-27T09:40:31Z</time></trkpt><trkpt lat="31.172576562405247" lon="-8.0871074154441"><ele>899.0</ele><time>2026-04-27T09:40:32Z</time></trkpt><trkpt lat="31.172489941985653" lon="-8.087179943677695"><ele>898.0</ele><time>2026-04-27T09:40:33Z</time></trkpt><trkpt lat="31.172457330809127" lon="-8.087309746449224"><ele>897.0000000000001</ele><time>2026-04-27T09:40:35Z</time></trkpt><trkpt lat="31.172387301274544" lon="-8.087337234948981"><ele>896.0</ele><time>2026-04-27T09:40:39Z</time></trkpt><trkpt lat="31.172301308539158" lon="-8.087418982505863"><ele>899.5999999999999</ele><time>2026-04-27T09:59:27Z</time></trkpt><trkpt lat="31.172200380807702" lon="-8.087354253060548"><ele>903.1999999999999</ele><time>2026-04-27T09:59:28Z</time></trkpt><trkpt lat="31.172161783629857" lon="-8.087268967604967"><ele>906.8000000000001</ele><time>2026-04-27T09:59:29Z</time></trkpt><trkpt lat="31.17203665594985" lon="-8.087316997349665"><ele>910.4000000000001</ele><time>2026-04-27T09:59:31Z</time></trkpt><trkpt lat="31.171959505550667" lon="-8.087335179295273"><ele>914.0</ele><time>2026-04-27T09:59:33Z</time></trkpt><trkpt lat="31.171944331273103" lon="-8.087485271397826"><ele>914.0</ele><time>2026-04-27T09:59:35Z</time></trkpt><trkpt lat="31.171929245754644" lon="-8.087572906076405"><ele>914.0000000000001</ele><time>2026-04-27T09:59:36Z</time></trkpt><trkpt lat="31.17191350821595" lon="-8.087723893323721"><ele>914.0000000000001</ele><time>2026-04-27T09:59:37Z</time></trkpt><trkpt lat="31.171888880890908" lon="-8.08786449572673"><ele>914.0</ele><time>2026-04-27T09:59:38Z</time></trkpt><trkpt lat="31.17187707041975" lon="-8.087988445438016"><ele>914.0</ele><time>2026-04-27T09:59:39Z</time></trkpt><trkpt lat="31.17185218916336" lon="-8.088112800974992"><ele>914.0</ele><time>2026-04-27T09:59:40Z</time></trkpt><trkpt lat="31.171812727257915" lon="-8.08825715738641"><ele>914.0</ele><time>2026-04-27T09:59:41Z</time></trkpt><trkpt lat="31.171782333022765" lon="-8.088419431337993"><ele>914.0</ele><time>2026-04-27T09:59:42Z</time></trkpt><trkpt lat="31.171747722061998" lon="-8.088533768062634"><ele>914.0</ele><time>2026-04-27T09:59:43Z</time></trkpt><trkpt lat="31.171710950854365" lon="-8.088662326158532"><ele>913.2</ele><time>2026-04-27T09:59:44Z</time></trkpt><trkpt lat="31.171678617059214" lon="-8.08877733093881"><ele>912.4000000000001</ele><time>2026-04-27T09:59:45Z</time></trkpt><trkpt lat="31.17164324514641" lon="-8.08885679518525"><ele>911.6</ele><time>2026-04-27T09:59:46Z</time></trkpt><trkpt lat="31.171603002896813" lon="-8.088949417279194"><ele>910.8</ele><time>2026-04-27T09:59:48Z</time></trkpt><trkpt lat="31.171579141362486" lon="-8.089050807083026"><ele>910.0</ele><time>2026-04-27T09:59:49Z</time></trkpt><trkpt lat="31.17145755301514" lon="-8.089196773407531"><ele>910.0</ele><time>2026-04-27T09:59:51Z</time></trkpt><trkpt lat="31.17139578403918" lon="-8.089271249520676"><ele>910.0</ele><time>2026-04-27T09:59:52Z</time></trkpt><trkpt lat="31.17127884985105" lon="-8.089307498355883"><ele>910.0</ele><time>2026-04-27T09:59:53Z</time></trkpt><trkpt lat="31.171147662858413" lon="-8.08928876515233"><ele>910.0</ele><time>2026-04-27T09:59:54Z</time></trkpt><trkpt lat="31.171059618912373" lon="-8.089278315072603"><ele>910.0</ele><time>2026-04-27T09:59:55Z</time></trkpt><trkpt lat="31.170988071970644" lon="-8.089170730918335"><ele>914.75</ele><time>2026-04-27T09:59:56Z</time></trkpt><trkpt lat="31.17089576337202" lon="-8.08909191219475"><ele>919.5</ele><time>2026-04-27T09:59:57Z</time></trkpt><trkpt lat="31.170797855777796" lon="-8.089004961686157"><ele>924.25</ele><time>2026-04-27T09:59:58Z</time></trkpt><trkpt lat="31.170702670487934" lon="-8.08893044410604"><ele>929.0</ele><time>2026-04-27T09:59:59Z</time></trkpt><trkpt lat="31.17060940298008" lon="-8.088880637201415"><ele>930.0000000000001</ele><time>2026-04-27T10:00:00Z</time></trkpt><trkpt lat="31.170527848968355" lon="-8.088859126984145"><ele>931.0</ele><time>2026-04-27T10:00:01Z</time></trkpt><trkpt lat="31.170444890817745" lon="-8.088898303642463"><ele>932.0</ele><time>2026-04-27T10:00:02Z</time></trkpt><trkpt lat="31.1703811838721" lon="-8.088965645689333"><ele>933.0</ele><time>2026-04-27T10:00:03Z</time></trkpt><trkpt lat="31.170373424103154" lon="-8.089052960667786"><ele>934.0000000000001</ele><time>2026-04-27T10:00:04Z</time></trkpt><trkpt lat="31.170350211036233" lon="-8.089146346499417"><ele>935.0</ele><time>2026-04-27T10:00:05Z</time></trkpt><trkpt lat="31.17031787362678" lon="-8.089283769858278"><ele>935.0</ele><time>2026-04-27T10:00:06Z</time></trkpt><trkpt lat="31.17028093646539" lon="-8.089447777575382"><ele>935.0</ele><time>2026-04-27T10:00:07Z</time></trkpt><trkpt lat="31.17020795857494" lon="-8.08961128120353"><ele>935.0</ele><time>2026-04-27T10:00:08Z</time></trkpt><trkpt lat="31.17015577555403" lon="-8.089731308413567"><ele>935.0</ele><time>2026-04-27T10:00:09Z</time></trkpt><trkpt lat="31.170056396923346" lon="-8.089842115401918"><ele>936.6666666666667</ele><time>2026-04-27T10:00:10Z</time></trkpt><trkpt lat="31.16992103705133" lon="-8.089938601718517"><ele>938.3333333333333</ele><time>2026-04-27T10:00:11Z</time></trkpt><trkpt lat="31.169775194469448" lon="-8.090038928399208"><ele>940.0</ele><time>2026-04-27T10:00:12Z</time></trkpt><trkpt lat="31.16959217856153" lon="-8.090151021955837"><ele>940.0</ele><time>2026-04-27T10:00:13Z</time></trkpt><trkpt lat="31.169379535789048" lon="-8.090247017642808"><ele>940.0</ele><time>2026-04-27T10:00:14Z</time></trkpt><trkpt lat="31.16915723810493" lon="-8.09031032977996"><ele>947.6666666666666</ele><time>2026-04-27T10:00:15Z</time></trkpt><trkpt lat="31.168939381757262" lon="-8.090375909129316"><ele>955.3333333333333</ele><time>2026-04-27T10:00:16Z</time></trkpt><trkpt lat="31.16875329825208" lon="-8.090477898433436"><ele>963.0</ele><time>2026-04-27T10:00:17Z</time></trkpt><trkpt lat="31.16857665822008" lon="-8.090590937375088"><ele>963.0</ele><time>2026-04-27T10:00:18Z</time></trkpt><trkpt lat="31.16841474477321" lon="-8.090713457055864"><ele>963.0</ele><time>2026-04-27T10:00:19Z</time></trkpt><trkpt lat="31.16827730232545" lon="-8.090827910562897"><ele>963.0</ele><time>2026-04-27T10:00:20Z</time></trkpt><trkpt lat="31.168138632696493" lon="-8.09095426976878"><ele>957.6666666666667</ele><time>2026-04-27T10:00:21Z</time></trkpt><trkpt lat="31.167998427149747" lon="-8.091071709971546"><ele>952.3333333333334</ele><time>2026-04-27T10:00:22Z</time></trkpt><trkpt lat="31.167833085096028" lon="-8.091146343936279"><ele>947.0</ele><time>2026-04-27T10:00:23Z</time></trkpt><trkpt lat="31.16766693248224" lon="-8.091184714950442"><ele>947.0</ele><time>2026-04-27T10:00:24Z</time></trkpt><trkpt lat="31.16750373867584" lon="-8.091213526262104"><ele>947.0</ele><time>2026-04-27T10:00:25Z</time></trkpt><trkpt lat="31.167347602343646" lon="-8.091241864295997"><ele>947.0</ele><time>2026-04-27T10:00:26Z</time></trkpt><trkpt lat="31.16720923309419" lon="-8.091251766234576"><ele>942.6666666666667</ele><time>2026-04-27T10:00:27Z</time></trkpt><trkpt lat="31.16709796245879" lon="-8.091327815584224"><ele>938.3333333333333</ele><time>2026-04-27T10:00:28Z</time></trkpt><trkpt lat="31.16698476184282" lon="-8.091435638056312"><ele>934.0</ele><time>2026-04-27T10:00:29Z</time></trkpt><trkpt lat="31.166961398877447" lon="-8.0916808826377"><ele>934.0</ele><time>2026-04-27T10:00:30Z</time></trkpt><trkpt lat="31.166792749377922" lon="-8.09185742184249"><ele>934.0</ele><time>2026-04-27T10:00:31Z</time></trkpt><trkpt lat="31.166578934764228" lon="-8.091928451824694"><ele>934.0</ele><time>2026-04-27T10:00:32Z</time></trkpt><trkpt lat="31.166414326438197" lon="-8.092069444857417"><ele>933.6666666666666</ele><time>2026-04-27T10:00:33Z</time></trkpt><trkpt lat="31.166240199060287" lon="-8.09221936532125"><ele>933.3333333333333</ele><time>2026-04-27T10:00:34Z</time></trkpt><trkpt lat="31.166076101379467" lon="-8.092370104870325"><ele>933.0</ele><time>2026-04-27T10:00:35Z</time></trkpt><trkpt lat="31.165940703314483" lon="-8.092521514112942"><ele>933.0</ele><time>2026-04-27T10:00:36Z</time></trkpt><trkpt lat="31.16581421842759" lon="-8.09266821065416"><ele>933.0</ele><time>2026-04-27T10:00:37Z</time></trkpt><trkpt lat="31.165658681532506" lon="-8.092779786962524"><ele>933.0</ele><time>2026-04-27T10:00:38Z</time></trkpt><trkpt lat="31.16550395407322" lon="-8.092854328050736"><ele>932.25</ele><time>2026-04-27T10:00:39Z</time></trkpt><trkpt lat="31.165371051168933" lon="-8.092913456197776"><ele>931.5</ele><time>2026-04-27T10:00:40Z</time></trkpt><trkpt lat="31.16526270746041" lon="-8.092981930813215"><ele>930.75</ele><time>2026-04-27T10:00:41Z</time></trkpt><trkpt lat="31.165217601584413" lon="-8.093112199014694"><ele>930.0</ele><time>2026-04-27T10:00:42Z</time></trkpt><trkpt lat="31.165201962361476" lon="-8.093311503441491"><ele>930.0</ele><time>2026-04-27T10:00:43Z</time></trkpt><trkpt lat="31.165125015171075" lon="-8.093485428446385"><ele>930.0</ele><time>2026-04-27T10:00:44Z</time></trkpt><trkpt lat="31.164983032406507" lon="-8.093637596349742"><ele>930.0</ele><time>2026-04-27T10:00:45Z</time></trkpt><trkpt lat="31.164826508275063" lon="-8.093768880239738"><ele>928.6666666666667</ele><time>2026-04-27T10:00:46Z</time></trkpt><trkpt lat="31.1646684837331" lon="-8.093899750374652"><ele>927.3333333333334</ele><time>2026-04-27T10:00:47Z</time></trkpt><trkpt lat="31.164483926624783" lon="-8.094042736007511"><ele>926.0</ele><time>2026-04-27T10:00:48Z</time></trkpt><trkpt lat="31.164285993182418" lon="-8.09418916808315"><ele>926.0</ele><time>2026-04-27T10:00:49Z</time></trkpt><trkpt lat="31.16410128175125" lon="-8.09431836202711"><ele>926.0</ele><time>2026-04-27T10:00:50Z</time></trkpt><trkpt lat="31.163938461227666" lon="-8.094422476226011"><ele>926.0</ele><time>2026-04-27T10:00:51Z</time></trkpt><trkpt lat="31.16377324539143" lon="-8.094525051789743"><ele>937.0</ele><time>2026-04-27T10:00:52Z</time></trkpt><trkpt lat="31.163592147952173" lon="-8.094587747825729"><ele>948.0</ele><time>2026-04-27T10:00:53Z</time></trkpt><trkpt lat="31.163410356673403" lon="-8.094620411136866"><ele>959.0</ele><time>2026-04-27T10:00:54Z</time></trkpt><trkpt lat="31.163240570919108" lon="-8.094639393824986"><ele>966.25</ele><time>2026-04-27T10:00:55Z</time></trkpt><trkpt lat="31.16310063566753" lon="-8.094704606093005"><ele>973.5</ele><time>2026-04-27T10:00:56Z</time></trkpt><trkpt lat="31.162974612673306" lon="-8.094780480454126"><ele>980.75</ele><time>2026-04-27T10:00:57Z</time></trkpt><trkpt lat="31.16286515340064" lon="-8.09485961561188"><ele>988.0</ele><time>2026-04-27T10:00:58Z</time></trkpt><trkpt lat="31.162754246619823" lon="-8.094915670343173"><ele>974.25</ele><time>2026-04-27T10:00:59Z</time></trkpt><trkpt lat="31.16263576828405" lon="-8.094953238381754"><ele>960.5</ele><time>2026-04-27T10:01:00Z</time></trkpt><trkpt lat="31.162494957366473" lon="-8.094967407164187"><ele>946.75</ele><time>2026-04-27T10:01:01Z</time></trkpt><trkpt lat="31.162318375765093" lon="-8.094959951063005"><ele>933.0</ele><time>2026-04-27T10:01:02Z</time></trkpt><trkpt lat="31.16212718698268" lon="-8.094940429531537"><ele>933.0</ele><time>2026-04-27T10:01:03Z</time></trkpt><trkpt lat="31.161948507941926" lon="-8.094926048921593"><ele>933.0</ele><time>2026-04-27T10:01:04Z</time></trkpt><trkpt lat="31.16177877690879" lon="-8.094917271194197"><ele>933.0</ele><time>2026-04-27T10:01:05Z</time></trkpt><trkpt lat="31.161620158747237" lon="-8.0949201996689"><ele>938.75</ele><time>2026-04-27T10:01:06Z</time></trkpt><trkpt lat="31.161469314490922" lon="-8.094943992176734"><ele>944.5</ele><time>2026-04-27T10:01:07Z</time></trkpt><trkpt lat="31.1613324651538" lon="-8.094982467965396"><ele>950.25</ele><time>2026-04-27T10:01:08Z</time></trkpt><trkpt lat="31.16120763969673" lon="-8.09503197163933"><ele>956.0</ele><time>2026-04-27T10:01:09Z</time></trkpt><trkpt lat="31.161084909242252" lon="-8.095097941436121"><ele>956.0</ele><time>2026-04-27T10:01:10Z</time></trkpt><trkpt lat="31.160942887183356" lon="-8.095182142450122"><ele>956.0</ele><time>2026-04-27T10:01:11Z</time></trkpt><trkpt lat="31.160783486408672" lon="-8.095286152541428"><ele>956.0</ele><time>2026-04-27T10:01:12Z</time></trkpt><trkpt lat="31.160603841340375" lon="-8.095404153906264"><ele>949.3333333333334</ele><time>2026-04-27T10:01:13Z</time></trkpt><trkpt lat="31.160423172457055" lon="-8.095522793283088"><ele>942.6666666666667</ele><time>2026-04-27T10:01:14Z</time></trkpt><trkpt lat="31.160221580211605" lon="-8.095653138272787"><ele>936.0</ele><time>2026-04-27T10:01:15Z</time></trkpt><trkpt lat="31.16003340664058" lon="-8.095810746439327"><ele>952.0</ele><time>2026-04-27T10:01:16Z</time></trkpt><trkpt lat="31.15985000291417" lon="-8.095968438592502"><ele>968.0</ele><time>2026-04-27T10:01:17Z</time></trkpt><trkpt lat="31.15964168609204" lon="-8.096100459444449"><ele>968.0</ele><time>2026-04-27T10:01:18Z</time></trkpt><trkpt lat="31.159417222204294" lon="-8.09618390357747"><ele>968.0</ele><time>2026-04-27T10:01:19Z</time></trkpt><trkpt lat="31.159204381950524" lon="-8.096304471011464"><ele>960.5</ele><time>2026-04-27T10:01:20Z</time></trkpt><trkpt lat="31.15900788017893" lon="-8.096449767286417"><ele>953.0</ele><time>2026-04-27T10:01:21Z</time></trkpt><trkpt lat="31.158802139925335" lon="-8.096612134775235"><ele>953.0</ele><time>2026-04-27T10:01:22Z</time></trkpt><trkpt lat="31.158601934468205" lon="-8.096744217177415"><ele>953.0</ele><time>2026-04-27T10:01:23Z</time></trkpt><trkpt lat="31.158393698859108" lon="-8.096918350957107"><ele>966.0</ele><time>2026-04-27T10:01:24Z</time></trkpt><trkpt lat="31.158123921214" lon="-8.097010348913612"><ele>979.0</ele><time>2026-04-27T10:01:25Z</time></trkpt><trkpt lat="31.157904336906714" lon="-8.09713005865281"><ele>979.0</ele><time>2026-04-27T10:01:26Z</time></trkpt><trkpt lat="31.157710958828233" lon="-8.097258505630306"><ele>979.0</ele><time>2026-04-27T10:01:27Z</time></trkpt><trkpt lat="31.157538680162197" lon="-8.097402924774137"><ele>979.0</ele><time>2026-04-27T10:01:28Z</time></trkpt><trkpt lat="31.15736818502187" lon="-8.097504022372506"><ele>971.3333333333333</ele><time>2026-04-27T10:01:29Z</time></trkpt><trkpt lat="31.15722080611347" lon="-8.097603076176807"><ele>963.6666666666667</ele><time>2026-04-27T10:01:30Z</time></trkpt><trkpt lat="31.15711085405869" lon="-8.097728871728496"><ele>956.0</ele><time>2026-04-27T10:01:31Z</time></trkpt><trkpt lat="31.157008640371995" lon="-8.097870379052136"><ele>956.0</ele><time>2026-04-27T10:01:32Z</time></trkpt><trkpt lat="31.156911937622603" lon="-8.098008033066744"><ele>956.0</ele><time>2026-04-27T10:01:33Z</time></trkpt><trkpt lat="31.156815206161774" lon="-8.098140205771282"><ele>956.0</ele><time>2026-04-27T10:01:34Z</time></trkpt><trkpt lat="31.15671258606474" lon="-8.098273837828948"><ele>950.75</ele><time>2026-04-27T10:01:35Z</time></trkpt><trkpt lat="31.15661165356618" lon="-8.098378151648383"><ele>945.5</ele><time>2026-04-27T10:01:36Z</time></trkpt><trkpt lat="31.156490588186728" lon="-8.098467891325848"><ele>940.25</ele><time>2026-04-27T10:01:37Z</time></trkpt><trkpt lat="31.15634600399265" lon="-8.098539575985285"><ele>935.0</ele><time>2026-04-27T10:01:38Z</time></trkpt><trkpt lat="31.156174866084584" lon="-8.098592888797228"><ele>935.0</ele><time>2026-04-27T10:01:39Z</time></trkpt><trkpt lat="31.155948204502376" lon="-8.098580540136117"><ele>935.0</ele><time>2026-04-27T10:01:40Z</time></trkpt><trkpt lat="31.155751943669667" lon="-8.09847553980071"><ele>935.0</ele><time>2026-04-27T10:01:41Z</time></trkpt><trkpt lat="31.155569718563672" lon="-8.09845499709751"><ele>933.0</ele><time>2026-04-27T10:01:42Z</time></trkpt><trkpt lat="31.15537735984948" lon="-8.098464820379299"><ele>931.0</ele><time>2026-04-27T10:01:43Z</time></trkpt><trkpt lat="31.15517433325335" lon="-8.098468913463718"><ele>929.0</ele><time>2026-04-27T10:01:44Z</time></trkpt><trkpt lat="31.154968296347036" lon="-8.098460875832439"><ele>926.6666666666667</ele><time>2026-04-27T10:01:45Z</time></trkpt><trkpt lat="31.154744000095995" lon="-8.098411584802198"><ele>924.3333333333333</ele><time>2026-04-27T10:01:46Z</time></trkpt><trkpt lat="31.154532448605188" lon="-8.09836665297377"><ele>922.0</ele><time>2026-04-27T10:01:47Z</time></trkpt><trkpt lat="31.15433028276091" lon="-8.098325698295707"><ele>922.0</ele><time>2026-04-27T10:01:48Z</time></trkpt><trkpt lat="31.15414309980149" lon="-8.09827307045301"><ele>922.0</ele><time>2026-04-27T10:01:49Z</time></trkpt><trkpt lat="31.153967402409943" lon="-8.09824732590571"><ele>922.0</ele><time>2026-04-27T10:01:50Z</time></trkpt><trkpt lat="31.153794535675015" lon="-8.098260399600683"><ele>929.6666666666666</ele><time>2026-04-27T10:01:51Z</time></trkpt><trkpt lat="31.15362373926582" lon="-8.098249671604867"><ele>937.3333333333333</ele><time>2026-04-27T10:01:52Z</time></trkpt><trkpt lat="31.153465135437" lon="-8.098222753766565"><ele>945.0</ele><time>2026-04-27T10:01:53Z</time></trkpt><trkpt lat="31.15331402327351" lon="-8.098183762514287"><ele>939.0</ele><time>2026-04-27T10:01:54Z</time></trkpt><trkpt lat="31.153167199660054" lon="-8.09813008787979"><ele>933.0</ele><time>2026-04-27T10:01:55Z</time></trkpt><trkpt lat="31.153031893472434" lon="-8.098051313926371"><ele>927.0</ele><time>2026-04-27T10:01:56Z</time></trkpt><trkpt lat="31.152908883843562" lon="-8.097974345812457"><ele>921.0</ele><time>2026-04-27T10:01:57Z</time></trkpt><trkpt lat="31.15278333213819" lon="-8.097895729374512"><ele>921.0</ele><time>2026-04-27T10:01:58Z</time></trkpt><trkpt lat="31.152636572078954" lon="-8.097802469596141"><ele>921.0</ele><time>2026-04-27T10:01:59Z</time></trkpt><trkpt lat="31.15247230560092" lon="-8.09765608090861"><ele>921.0</ele><time>2026-04-27T10:02:00Z</time></trkpt><trkpt lat="31.152353295505606" lon="-8.097434486391442"><ele>918.6666666666667</ele><time>2026-04-27T10:02:01Z</time></trkpt><trkpt lat="31.15228020726778" lon="-8.097251262716101"><ele>916.3333333333334</ele><time>2026-04-27T10:02:02Z</time></trkpt><trkpt lat="31.15218333491196" lon="-8.097094499425493"><ele>914.0</ele><time>2026-04-27T10:02:03Z</time></trkpt><trkpt lat="31.15207641819874" lon="-8.09695163870736"><ele>914.0</ele><time>2026-04-27T10:02:04Z</time></trkpt><trkpt lat="31.15197377586253" lon="-8.096819501839041"><ele>914.0</ele><time>2026-04-27T10:02:05Z</time></trkpt><trkpt lat="31.151873710827626" lon="-8.096703084175006"><ele>914.0</ele><time>2026-04-27T10:02:06Z</time></trkpt><trkpt lat="31.151778595997307" lon="-8.096597080601335"><ele>914.0</ele><time>2026-04-27T10:02:07Z</time></trkpt><trkpt lat="31.15167762067719" lon="-8.096473107601907"><ele>917.25</ele><time>2026-04-27T10:02:08Z</time></trkpt><trkpt lat="31.15159339484361" lon="-8.096295786887527"><ele>920.5</ele><time>2026-04-27T10:02:09Z</time></trkpt><trkpt lat="31.151574836394403" lon="-8.096129529297412"><ele>923.75</ele><time>2026-04-27T10:02:10Z</time></trkpt><trkpt lat="31.151558632952447" lon="-8.09600442344457"><ele>927.0</ele><time>2026-04-27T10:02:11Z</time></trkpt><trkpt lat="31.1514695261563" lon="-8.095930700424875"><ele>927.0</ele><time>2026-04-27T10:02:12Z</time></trkpt><trkpt lat="31.151384724165922" lon="-8.09585150020936"><ele>927.0</ele><time>2026-04-27T10:02:13Z</time></trkpt><trkpt lat="31.151264863059932" lon="-8.095828038765148"><ele>927.0</ele><time>2026-04-27T10:02:14Z</time></trkpt><trkpt lat="31.151148769852306" lon="-8.095822955487483"><ele>927.0</ele><time>2026-04-27T10:02:15Z</time></trkpt><trkpt lat="31.151038452265325" lon="-8.095985289142288"><ele>927.0</ele><time>2026-04-27T10:02:16Z</time></trkpt><trkpt lat="31.150906959983924" lon="-8.096115518782476"><ele>927.0</ele><time>2026-04-27T10:02:17Z</time></trkpt><trkpt lat="31.150797562166733" lon="-8.096165257054503"><ele>927.0</ele><time>2026-04-27T10:02:18Z</time></trkpt><trkpt lat="31.150681737389828" lon="-8.096164977837365"><ele>927.0</ele><time>2026-04-27T10:02:19Z</time></trkpt><trkpt lat="31.150577049765843" lon="-8.096146669285194"><ele>927.6666666666666</ele><time>2026-04-27T10:02:20Z</time></trkpt><trkpt lat="31.150494559430435" lon="-8.096134453821131"><ele>928.3333333333333</ele><time>2026-04-27T10:02:21Z</time></trkpt><trkpt lat="31.15041128258316" lon="-8.096121996337832"><ele>929.0</ele><time>2026-04-27T10:02:22Z</time></trkpt><trkpt lat="31.15033122259383" lon="-8.096097913287215"><ele>929.6666666666666</ele><time>2026-04-27T10:02:23Z</time></trkpt><trkpt lat="31.150241142851772" lon="-8.096092928486092"><ele>930.3333333333333</ele><time>2026-04-27T10:02:24Z</time></trkpt><trkpt lat="31.150136909658332" lon="-8.096074517426777"><ele>931.0</ele><time>2026-04-27T10:02:25Z</time></trkpt><trkpt lat="31.150016405471973" lon="-8.096016577541867"><ele>931.0</ele><time>2026-04-27T10:02:26Z</time></trkpt><trkpt lat="31.14987578262821" lon="-8.095942406759423"><ele>931.0</ele><time>2026-04-27T10:02:27Z</time></trkpt><trkpt lat="31.14972991685552" lon="-8.095900672101605"><ele>931.0</ele><time>2026-04-27T10:02:28Z</time></trkpt><trkpt lat="31.14956537975781" lon="-8.095878354249063"><ele>930.6666666666666</ele><time>2026-04-27T10:02:29Z</time></trkpt><trkpt lat="31.14938792463661" lon="-8.095881152329367"><ele>930.3333333333333</ele><time>2026-04-27T10:02:30Z</time></trkpt><trkpt lat="31.149223043611386" lon="-8.095920894596743"><ele>930.0</ele><time>2026-04-27T10:02:31Z</time></trkpt><trkpt lat="31.14906013966965" lon="-8.095990078447416"><ele>938.3333333333333</ele><time>2026-04-27T10:02:32Z</time></trkpt><trkpt lat="31.148892886995416" lon="-8.096089918001425"><ele>946.6666666666666</ele><time>2026-04-27T10:02:33Z</time></trkpt><trkpt lat="31.148743002754426" lon="-8.096236026816117"><ele>955.0</ele><time>2026-04-27T10:02:34Z</time></trkpt><trkpt lat="31.148608256526753" lon="-8.09641824286774"><ele>943.3333333333333</ele><time>2026-04-27T10:02:35Z</time></trkpt><trkpt lat="31.14848213960062" lon="-8.09661040783033"><ele>931.6666666666667</ele><time>2026-04-27T10:02:36Z</time></trkpt><trkpt lat="31.14839532674093" lon="-8.096831133095545"><ele>920.0</ele><time>2026-04-27T10:02:37Z</time></trkpt><trkpt lat="31.148252811535002" lon="-8.09698988882468"><ele>933.3333333333334</ele><time>2026-04-27T10:02:38Z</time></trkpt><trkpt lat="31.148103790298393" lon="-8.097122741373331"><ele>946.6666666666667</ele><time>2026-04-27T10:02:39Z</time></trkpt><trkpt lat="31.14793076006771" lon="-8.097231937153857"><ele>960.0</ele><time>2026-04-27T10:02:40Z</time></trkpt><trkpt lat="31.14777532797066" lon="-8.097313541551344"><ele>947.0</ele><time>2026-04-27T10:02:41Z</time></trkpt><trkpt lat="31.14764671990138" lon="-8.097430097394746"><ele>934.0</ele><time>2026-04-27T10:02:42Z</time></trkpt><trkpt lat="31.14753301863517" lon="-8.097540530272244"><ele>921.0</ele><time>2026-04-27T10:02:43Z</time></trkpt><trkpt lat="31.147433149941676" lon="-8.097655590570117"><ele>933.0</ele><time>2026-04-27T10:02:44Z</time></trkpt><trkpt lat="31.147369701688188" lon="-8.097781656984868"><ele>945.0</ele><time>2026-04-27T10:02:45Z</time></trkpt><trkpt lat="31.147315089825767" lon="-8.09791712299988"><ele>957.0</ele><time>2026-04-27T10:02:46Z</time></trkpt><trkpt lat="31.14725753813925" lon="-8.098062853309436"><ele>969.0</ele><time>2026-04-27T10:02:47Z</time></trkpt><trkpt lat="31.147217004875216" lon="-8.098226938836616"><ele>964.0</ele><time>2026-04-27T10:02:48Z</time></trkpt><trkpt lat="31.147174056549726" lon="-8.098374430627551"><ele>959.0</ele><time>2026-04-27T10:02:49Z</time></trkpt><trkpt lat="31.1471547818428" lon="-8.098516098212523"><ele>954.0</ele><time>2026-04-27T10:02:50Z</time></trkpt><trkpt lat="31.147125812204212" lon="-8.098644189014493"><ele>949.0</ele><time>2026-04-27T10:02:51Z</time></trkpt><trkpt lat="31.147096274363147" lon="-8.098765546782776"><ele>949.0</ele><time>2026-04-27T10:02:52Z</time></trkpt><trkpt lat="31.147078851095717" lon="-8.098892069338582"><ele>949.0000000000001</ele><time>2026-04-27T10:02:53Z</time></trkpt><trkpt lat="31.14704673455962" lon="-8.099006390369421"><ele>949.0000000000001</ele><time>2026-04-27T10:02:54Z</time></trkpt><trkpt lat="31.14702969254647" lon="-8.099137946232599"><ele>949.0</ele><time>2026-04-27T10:02:55Z</time></trkpt><trkpt lat="31.146994281881632" lon="-8.099262944076004"><ele>949.0</ele><time>2026-04-27T10:02:56Z</time></trkpt><trkpt lat="31.146958437119306" lon="-8.099392998688414"><ele>942.5</ele><time>2026-04-27T10:02:57Z</time></trkpt><trkpt lat="31.14690508259947" lon="-8.099527560195527"><ele>936.0</ele><time>2026-04-27T10:02:58Z</time></trkpt><trkpt lat="31.14684206191275" lon="-8.099659663503914"><ele>929.5</ele><time>2026-04-27T10:02:59Z</time></trkpt><trkpt lat="31.146791348722562" lon="-8.099801429550714"><ele>923.0</ele><time>2026-04-27T10:03:00Z</time></trkpt><trkpt lat="31.14672075387125" lon="-8.099967592473487"><ele>927.6666666666667</ele><time>2026-04-27T10:03:01Z</time></trkpt><trkpt lat="31.146618262538617" lon="-8.100150439117288"><ele>932.3333333333333</ele><time>2026-04-27T10:03:02Z</time></trkpt><trkpt lat="31.1465067221335" lon="-8.100349512238607"><ele>937.0</ele><time>2026-04-27T10:03:03Z</time></trkpt><trkpt lat="31.146393933555593" lon="-8.100552388950472"><ele>927.6666666666666</ele><time>2026-04-27T10:03:04Z</time></trkpt><trkpt lat="31.146280466509943" lon="-8.10076429220803"><ele>918.3333333333333</ele><time>2026-04-27T10:03:05Z</time></trkpt><trkpt lat="31.146168474871406" lon="-8.100975715442218"><ele>909.0</ele><time>2026-04-27T10:03:06Z</time></trkpt><trkpt lat="31.146064138661043" lon="-8.101179975432606"><ele>909.0</ele><time>2026-04-27T10:03:07Z</time></trkpt><trkpt lat="31.14594825499798" lon="-8.101372847296673"><ele>909.0</ele><time>2026-04-27T10:03:08Z</time></trkpt><trkpt lat="31.14579509429232" lon="-8.101548028712926"><ele>909.0</ele><time>2026-04-27T10:03:09Z</time></trkpt><trkpt lat="31.145606890159698" lon="-8.101687899744745"><ele>913.0</ele><time>2026-04-27T10:03:10Z</time></trkpt><trkpt lat="31.145400517295503" lon="-8.101817757453057"><ele>917.0</ele><time>2026-04-27T10:03:11Z</time></trkpt><trkpt lat="31.145193159388935" lon="-8.101969519274672"><ele>917.0</ele><time>2026-04-27T10:03:12Z</time></trkpt><trkpt lat="31.144975997595903" lon="-8.102123469945553"><ele>917.0</ele><time>2026-04-27T10:03:13Z</time></trkpt><trkpt lat="31.14475724068176" lon="-8.102277198265998"><ele>916.5</ele><time>2026-04-27T10:03:14Z</time></trkpt><trkpt lat="31.14453503396622" lon="-8.102436035435364"><ele>916.0</ele><time>2026-04-27T10:03:15Z</time></trkpt><trkpt lat="31.14431972109348" lon="-8.102590358619201"><ele>916.0</ele><time>2026-04-27T10:03:16Z</time></trkpt><trkpt lat="31.144119646985075" lon="-8.102732765036295"><ele>916.0</ele><time>2026-04-27T10:03:17Z</time></trkpt><trkpt lat="31.143937435507574" lon="-8.10286218141119"><ele>916.0</ele><time>2026-04-27T10:03:18Z</time></trkpt><trkpt lat="31.14377263133407" lon="-8.102980140343696"><ele>914.0</ele><time>2026-04-27T10:03:19Z</time></trkpt><trkpt lat="31.143632386908862" lon="-8.103100653448317"><ele>912.0</ele><time>2026-04-27T10:03:20Z</time></trkpt><trkpt lat="31.14347799446741" lon="-8.103194160644913"><ele>910.0</ele><time>2026-04-27T10:03:21Z</time></trkpt><trkpt lat="31.143320163209715" lon="-8.103270938081883"><ele>913.6666666666666</ele><time>2026-04-27T10:03:22Z</time></trkpt><trkpt lat="31.143159766323524" lon="-8.10333528930085"><ele>917.3333333333333</ele><time>2026-04-27T10:03:23Z</time></trkpt><trkpt lat="31.14300758714346" lon="-8.103390117014355"><ele>921.0</ele><time>2026-04-27T10:03:24Z</time></trkpt><trkpt lat="31.142853789838163" lon="-8.103445424669957"><ele>921.0</ele><time>2026-04-27T10:03:25Z</time></trkpt><trkpt lat="31.14269556435369" lon="-8.103484612074455"><ele>921.0</ele><time>2026-04-27T10:03:26Z</time></trkpt><trkpt lat="31.142534129750462" lon="-8.103523461928358"><ele>921.0</ele><time>2026-04-27T10:03:27Z</time></trkpt><trkpt lat="31.142366856625472" lon="-8.103554558706781"><ele>922.6666666666667</ele><time>2026-04-27T10:03:28Z</time></trkpt><trkpt lat="31.142192352644994" lon="-8.103577506547337"><ele>924.3333333333334</ele><time>2026-04-27T10:03:29Z</time></trkpt><trkpt lat="31.141995761476238" lon="-8.103581940776676"><ele>926.0</ele><time>2026-04-27T10:03:30Z</time></trkpt><trkpt lat="31.141779273997546" lon="-8.103577432441448"><ele>925.0</ele><time>2026-04-27T10:03:31Z</time></trkpt><trkpt lat="31.141545449529602" lon="-8.10356798379778"><ele>924.0</ele><time>2026-04-27T10:03:32Z</time></trkpt><trkpt lat="31.14131626862808" lon="-8.103557500580411"><ele>924.0</ele><time>2026-04-27T10:03:33Z</time></trkpt><trkpt lat="31.1411105933665" lon="-8.103558242770353"><ele>924.0</ele><time>2026-04-27T10:03:34Z</time></trkpt><trkpt lat="31.140919738243895" lon="-8.103554171295535"><ele>924.0</ele><time>2026-04-27T10:03:35Z</time></trkpt><trkpt lat="31.140756617462234" lon="-8.103553327789111"><ele>922.75</ele><time>2026-04-27T10:03:36Z</time></trkpt><trkpt lat="31.140620756262244" lon="-8.1035445406996"><ele>921.5</ele><time>2026-04-27T10:03:37Z</time></trkpt><trkpt lat="31.14050562515409" lon="-8.103522007736663"><ele>920.25</ele><time>2026-04-27T10:03:38Z</time></trkpt><trkpt lat="31.14040683991644" lon="-8.103497413056797"><ele>919.0</ele><time>2026-04-27T10:03:39Z</time></trkpt><trkpt lat="31.140298812487273" lon="-8.103451032126577"><ele>919.0</ele><time>2026-04-27T10:03:40Z</time></trkpt><trkpt lat="31.140176626810934" lon="-8.103341137570775"><ele>919.0</ele><time>2026-04-27T10:03:41Z</time></trkpt><trkpt lat="31.140131682525038" lon="-8.103087820432654"><ele>919.0</ele><time>2026-04-27T10:03:42Z</time></trkpt><trkpt lat="31.140190331760333" lon="-8.102920703438233"><ele>914.6666666666666</ele><time>2026-04-27T10:03:43Z</time></trkpt><trkpt lat="31.140348548526923" lon="-8.102812169742933"><ele>910.3333333333333</ele><time>2026-04-27T10:03:44Z</time></trkpt><trkpt lat="31.140456516083056" lon="-8.102719085409696"><ele>906.0</ele><time>2026-04-27T10:03:44.999Z</time></trkpt><trkpt lat="31.140571334625673" lon="-8.102622246667202"><ele>906.0</ele><time>2026-04-27T10:03:45.999Z</time></trkpt><trkpt lat="31.14067378251261" lon="-8.102548133267232"><ele>906.0</ele><time>2026-04-27T10:03:46.999Z</time></trkpt><trkpt lat="31.140760351937452" lon="-8.102461884985209"><ele>906.0</ele><time>2026-04-27T10:03:47.999Z</time></trkpt><trkpt lat="31.140823905889995" lon="-8.102343058693814"><ele>906.0</ele><time>2026-04-27T10:03:48.999Z</time></trkpt><trkpt lat="31.14091011789553" lon="-8.102225686609977"><ele>908.3333333333333</ele><time>2026-04-27T10:03:49.999Z</time></trkpt><trkpt lat="31.140982850472483" lon="-8.102081972992174"><ele>910.6666666666666</ele><time>2026-04-27T10:03:50.999Z</time></trkpt><trkpt lat="31.141062913259766" lon="-8.101913328169394"><ele>913.0</ele><time>2026-04-27T10:03:51.999Z</time></trkpt><trkpt lat="31.141136999687085" lon="-8.101762378106635"><ele>913.0</ele><time>2026-04-27T10:03:52.999Z</time></trkpt><trkpt lat="31.141209510176562" lon="-8.101622476390325"><ele>913.0</ele><time>2026-04-27T10:03:53.999Z</time></trkpt><trkpt lat="31.141279304893782" lon="-8.101468091431949"><ele>913.0</ele><time>2026-04-27T10:03:54.999Z</time></trkpt><trkpt lat="31.141345499526693" lon="-8.101274566410684"><ele>909.6666666666666</ele><time>2026-04-27T10:03:55.999Z</time></trkpt><trkpt lat="31.141404380328485" lon="-8.101068466851984"><ele>906.3333333333333</ele><time>2026-04-27T10:03:57Z</time></trkpt><trkpt lat="31.141455150412675" lon="-8.10086951723669"><ele>903.0</ele><time>2026-04-27T10:03:58Z</time></trkpt><trkpt lat="31.141477571035495" lon="-8.10067656333468"><ele>903.0</ele><time>2026-04-27T10:03:59Z</time></trkpt><trkpt lat="31.141508767403213" lon="-8.100497987876842"><ele>903.0</ele><time>2026-04-27T10:04:00Z</time></trkpt><trkpt lat="31.141540225544002" lon="-8.10032060337208"><ele>903.0</ele><time>2026-04-27T10:04:01Z</time></trkpt><trkpt lat="31.141570772855253" lon="-8.10015083162294"><ele>905.5</ele><time>2026-04-27T10:04:02Z</time></trkpt><trkpt lat="31.141601236451304" lon="-8.10000422555797"><ele>908.0</ele><time>2026-04-27T10:04:03Z</time></trkpt><trkpt lat="31.141622906624896" lon="-8.099890506011816"><ele>910.5</ele><time>2026-04-27T10:04:04Z</time></trkpt><trkpt lat="31.141639322770065" lon="-8.0998020036928"><ele>913.0</ele><time>2026-04-27T10:04:05Z</time></trkpt><trkpt lat="31.141660792922888" lon="-8.099731137998818"><ele>915.5</ele><time>2026-04-27T10:04:06Z</time></trkpt><trkpt lat="31.141650042040432" lon="-8.099646831926515"><ele>918.0</ele><time>2026-04-27T10:04:07Z</time></trkpt><trkpt lat="31.141645253561585" lon="-8.09955873021681"><ele>918.0</ele><time>2026-04-27T10:04:08Z</time></trkpt><trkpt lat="31.141647651280923" lon="-8.099461979032903"><ele>918.0</ele><time>2026-04-27T10:04:09Z</time></trkpt><trkpt lat="31.141663357997448" lon="-8.099356475164576"><ele>918.0</ele><time>2026-04-27T10:04:10Z</time></trkpt><trkpt lat="31.141680298636704" lon="-8.099238883313113"><ele>918.0</ele><time>2026-04-27T10:04:11Z</time></trkpt><trkpt lat="31.141702681291374" lon="-8.099110460868083"><ele>918.0</ele><time>2026-04-27T10:04:12Z</time></trkpt><trkpt lat="31.141732384619612" lon="-8.09896124033249"><ele>918.0</ele><time>2026-04-27T10:04:13Z</time></trkpt><trkpt lat="31.141756055578607" lon="-8.098800810808488"><ele>918.0</ele><time>2026-04-27T10:04:14Z</time></trkpt><trkpt lat="31.141770558188533" lon="-8.098642784282344"><ele>918.0</ele><time>2026-04-27T10:04:15Z</time></trkpt><trkpt lat="31.141771963866265" lon="-8.098469542072051"><ele>918.0</ele><time>2026-04-27T10:04:16Z</time></trkpt><trkpt lat="31.14175564551399" lon="-8.098282535711947"><ele>913.6666666666667</ele><time>2026-04-27T10:04:17Z</time></trkpt><trkpt lat="31.141709558638926" lon="-8.098084106686416"><ele>909.3333333333334</ele><time>2026-04-27T10:04:18Z</time></trkpt><trkpt lat="31.14163887012127" lon="-8.097889616121629"><ele>905.0</ele><time>2026-04-27T10:04:19Z</time></trkpt><trkpt lat="31.141541554155875" lon="-8.09770667617563"><ele>905.0</ele><time>2026-04-27T10:04:20Z</time></trkpt><trkpt lat="31.141423730732285" lon="-8.097529891329959"><ele>905.0</ele><time>2026-04-27T10:04:21Z</time></trkpt><trkpt lat="31.1412823957906" lon="-8.097358051784221"><ele>905.0</ele><time>2026-04-27T10:04:22Z</time></trkpt><trkpt lat="31.14113480025572" lon="-8.097195671135378"><ele>915.6666666666667</ele><time>2026-04-27T10:04:23Z</time></trkpt><trkpt lat="31.140997104646715" lon="-8.097055012291628"><ele>926.3333333333333</ele><time>2026-04-27T10:04:24Z</time></trkpt><trkpt lat="31.140882589547303" lon="-8.096931297037882"><ele>937.0</ele><time>2026-04-27T10:04:25Z</time></trkpt><trkpt lat="31.14077776055818" lon="-8.096818668166103"><ele>931.5</ele><time>2026-04-27T10:04:26Z</time></trkpt><trkpt lat="31.140669696325332" lon="-8.096723476159115"><ele>926.0</ele><time>2026-04-27T10:04:27Z</time></trkpt><trkpt lat="31.140538425030122" lon="-8.096653448078605"><ele>920.5</ele><time>2026-04-27T10:04:28Z</time></trkpt><trkpt lat="31.140388054059244" lon="-8.09660645250531"><ele>915.0</ele><time>2026-04-27T10:04:29Z</time></trkpt><trkpt lat="31.140226465373487" lon="-8.096597056293376"><ele>915.0</ele><time>2026-04-27T10:04:30Z</time></trkpt><trkpt lat="31.14005811391531" lon="-8.096613114254064"><ele>915.0</ele><time>2026-04-27T10:04:31Z</time></trkpt><trkpt lat="31.13988574116067" lon="-8.09665324745197"><ele>915.0</ele><time>2026-04-27T10:04:32Z</time></trkpt><trkpt lat="31.139733017259797" lon="-8.096763085549012"><ele>917.6666666666667</ele><time>2026-04-27T10:04:33Z</time></trkpt><trkpt lat="31.139586480609697" lon="-8.096867407484801"><ele>920.3333333333334</ele><time>2026-04-27T10:04:34Z</time></trkpt><trkpt lat="31.13942574500688" lon="-8.096988567931701"><ele>923.0</ele><time>2026-04-27T10:04:35Z</time></trkpt><trkpt lat="31.139276978204805" lon="-8.097133756419437"><ele>923.0</ele><time>2026-04-27T10:04:36Z</time></trkpt><trkpt lat="31.13911532404807" lon="-8.097282212948196"><ele>923.0</ele><time>2026-04-27T10:04:37Z</time></trkpt><trkpt lat="31.138960391516907" lon="-8.097436601044928"><ele>923.0</ele><time>2026-04-27T10:04:38Z</time></trkpt><trkpt lat="31.138799551542895" lon="-8.097597941952877"><ele>925.0</ele><time>2026-04-27T10:04:39Z</time></trkpt><trkpt lat="31.138642796135716" lon="-8.097756756036953"><ele>927.0</ele><time>2026-04-27T10:04:40Z</time></trkpt><trkpt lat="31.138496847321214" lon="-8.097914928675813"><ele>929.0</ele><time>2026-04-27T10:04:41Z</time></trkpt><trkpt lat="31.138355032757367" lon="-8.09807036631075"><ele>929.0</ele><time>2026-04-27T10:04:42Z</time></trkpt><trkpt lat="31.138220541298324" lon="-8.098215781371803"><ele>929.0</ele><time>2026-04-27T10:04:43Z</time></trkpt><trkpt lat="31.13809849317914" lon="-8.09834809889624"><ele>929.0</ele><time>2026-04-27T10:04:44Z</time></trkpt><trkpt lat="31.13798078999318" lon="-8.098470961515645"><ele>932.5</ele><time>2026-04-27T10:04:45Z</time></trkpt><trkpt lat="31.13787252108742" lon="-8.098575512851829"><ele>936.0</ele><time>2026-04-27T10:04:46Z</time></trkpt><trkpt lat="31.137780150434242" lon="-8.098663699847043"><ele>939.5</ele><time>2026-04-27T10:04:47Z</time></trkpt><trkpt lat="31.137671374490342" lon="-8.098718824196956"><ele>943.0</ele><time>2026-04-27T10:04:48Z</time></trkpt><trkpt lat="31.13757297658594" lon="-8.098763008123763"><ele>943.0</ele><time>2026-04-27T10:04:49Z</time></trkpt><trkpt lat="31.13745977662003" lon="-8.09878091012395"><ele>943.0</ele><time>2026-04-27T10:04:50Z</time></trkpt><trkpt lat="31.137331372657897" lon="-8.098764534774848"><ele>943.0</ele><time>2026-04-27T10:04:51Z</time></trkpt><trkpt lat="31.137207345080288" lon="-8.098753360757813"><ele>943.0</ele><time>2026-04-27T10:04:52Z</time></trkpt><trkpt lat="31.137089263925752" lon="-8.098689762811635"><ele>939.6666666666666</ele><time>2026-04-27T10:04:53Z</time></trkpt><trkpt lat="31.136986381188795" lon="-8.098561707947326"><ele>936.3333333333333</ele><time>2026-04-27T10:04:54Z</time></trkpt><trkpt lat="31.13691729945886" lon="-8.098409396696692"><ele>933.0</ele><time>2026-04-27T10:04:55Z</time></trkpt><trkpt lat="31.13684398743669" lon="-8.098244065903765"><ele>940.6666666666667</ele><time>2026-04-27T10:04:56Z</time></trkpt><trkpt lat="31.13676703007343" lon="-8.098050252006225"><ele>948.3333333333334</ele><time>2026-04-27T10:04:57Z</time></trkpt><trkpt lat="31.136695475599524" lon="-8.097892642817236"><ele>956.0</ele><time>2026-04-27T10:04:58Z</time></trkpt><trkpt lat="31.136620513016318" lon="-8.097776394040647"><ele>954.5</ele><time>2026-04-27T10:04:59Z</time></trkpt><trkpt lat="31.136533549803612" lon="-8.097685021536272"><ele>953.0</ele><time>2026-04-27T10:05:00Z</time></trkpt><trkpt lat="31.136440132185324" lon="-8.097609597398245"><ele>951.5</ele><time>2026-04-27T10:05:01Z</time></trkpt><trkpt lat="31.13633693343668" lon="-8.097557150074548"><ele>950.0</ele><time>2026-04-27T10:05:02Z</time></trkpt><trkpt lat="31.13622940510282" lon="-8.097525148702397"><ele>950.0</ele><time>2026-04-27T10:05:03Z</time></trkpt><trkpt lat="31.136116810933025" lon="-8.097512457431211"><ele>950.0</ele><time>2026-04-27T10:05:04Z</time></trkpt><trkpt lat="31.136000253072883" lon="-8.097531718667849"><ele>950.0</ele><time>2026-04-27T10:05:05Z</time></trkpt><trkpt lat="31.135873730214975" lon="-8.097538795497263"><ele>950.0</ele><time>2026-04-27T10:05:06Z</time></trkpt><trkpt lat="31.135732969293684" lon="-8.097525554269549"><ele>950.0</ele><time>2026-04-27T10:05:07Z</time></trkpt><trkpt lat="31.13559045341881" lon="-8.097430194778097"><ele>950.0</ele><time>2026-04-27T10:05:08Z</time></trkpt><trkpt lat="31.135467758669567" lon="-8.097287362670695"><ele>950.0</ele><time>2026-04-27T10:05:09Z</time></trkpt><trkpt lat="31.135342560961092" lon="-8.097148463640142"><ele>954.25</ele><time>2026-04-27T10:05:10Z</time></trkpt><trkpt lat="31.13523031609498" lon="-8.09704268211728"><ele>958.5</ele><time>2026-04-27T10:05:11Z</time></trkpt><trkpt lat="31.13512060417224" lon="-8.096959516327257"><ele>962.75</ele><time>2026-04-27T10:05:12Z</time></trkpt><trkpt lat="31.134987410223104" lon="-8.096917200506187"><ele>967.0</ele><time>2026-04-27T10:05:13Z</time></trkpt><trkpt lat="31.134834420460095" lon="-8.09692033333262"><ele>967.3333333333333</ele><time>2026-04-27T10:05:14Z</time></trkpt><trkpt lat="31.13467820147581" lon="-8.096930173320052"><ele>967.6666666666667</ele><time>2026-04-27T10:05:15Z</time></trkpt><trkpt lat="31.134507982755103" lon="-8.096944464677359"><ele>968.0</ele><time>2026-04-27T10:05:16Z</time></trkpt><trkpt lat="31.134330769598172" lon="-8.09697578247849"><ele>968.0</ele><time>2026-04-27T10:05:17Z</time></trkpt><trkpt lat="31.134153402199438" lon="-8.097036381417414"><ele>968.0</ele><time>2026-04-27T10:05:18Z</time></trkpt><trkpt lat="31.133947864209663" lon="-8.097112892800004"><ele>968.0</ele><time>2026-04-27T10:05:19Z</time></trkpt><trkpt lat="31.133759229601228" lon="-8.09719225696552"><ele>969.3333333333334</ele><time>2026-04-27T10:05:20Z</time></trkpt><trkpt lat="31.133592063155604" lon="-8.097258066240405"><ele>970.6666666666667</ele><time>2026-04-27T10:05:21Z</time></trkpt><trkpt lat="31.133402577238197" lon="-8.097250235880765"><ele>972.0</ele><time>2026-04-27T10:05:22Z</time></trkpt><trkpt lat="31.133190372877515" lon="-8.097257080735742"><ele>974.6666666666667</ele><time>2026-04-27T10:05:23Z</time></trkpt><trkpt lat="31.132960824842943" lon="-8.097249616775208"><ele>977.3333333333334</ele><time>2026-04-27T10:05:24Z</time></trkpt><trkpt lat="31.132751093454285" lon="-8.097240386271956"><ele>980.0</ele><time>2026-04-27T10:05:25Z</time></trkpt><trkpt lat="31.13257586429505" lon="-8.09723623594466"><ele>980.0</ele><time>2026-04-27T10:05:26Z</time></trkpt><trkpt lat="31.13242888766243" lon="-8.097239854247468"><ele>980.0</ele><time>2026-04-27T10:05:27Z</time></trkpt><trkpt lat="31.132288660715574" lon="-8.097253253927658"><ele>980.0</ele><time>2026-04-27T10:05:28Z</time></trkpt><trkpt lat="31.132160057836536" lon="-8.097272847051455"><ele>980.0</ele><time>2026-04-27T10:05:29Z</time></trkpt><trkpt lat="31.13203483931057" lon="-8.097320012893974"><ele>982.3333333333334</ele><time>2026-04-27T10:05:30Z</time></trkpt><trkpt lat="31.13189974830123" lon="-8.097399869685376"><ele>984.6666666666667</ele><time>2026-04-27T10:05:31Z</time></trkpt><trkpt lat="31.131750187345304" lon="-8.097528768720984"><ele>987.0</ele><time>2026-04-27T10:05:32Z</time></trkpt><trkpt lat="31.131605972331013" lon="-8.097679109237465"><ele>988.0</ele><time>2026-04-27T10:05:33Z</time></trkpt><trkpt lat="31.13147714008333" lon="-8.097825901187159"><ele>989.0</ele><time>2026-04-27T10:05:34Z</time></trkpt><trkpt lat="31.131350988270135" lon="-8.097959140701535"><ele>990.0</ele><time>2026-04-27T10:05:35Z</time></trkpt><trkpt lat="31.131230685572024" lon="-8.098075379445673"><ele>990.0</ele><time>2026-04-27T10:05:36Z</time></trkpt><trkpt lat="31.13111705932214" lon="-8.098181392010549"><ele>990.0</ele><time>2026-04-27T10:05:37Z</time></trkpt><trkpt lat="31.131015716044228" lon="-8.098266907185428"><ele>990.0</ele><time>2026-04-27T10:05:38Z</time></trkpt><trkpt lat="31.1309250796562" lon="-8.098320694826084"><ele>990.0</ele><time>2026-04-27T10:05:39Z</time></trkpt><trkpt lat="31.13084030318458" lon="-8.098351928610164"><ele>986.6</ele><time>2026-04-27T10:05:40Z</time></trkpt><trkpt lat="31.130751068553366" lon="-8.09836794701829"><ele>983.2</ele><time>2026-04-27T10:05:41Z</time></trkpt><trkpt lat="31.13066124408269" lon="-8.098409391619793"><ele>979.8</ele><time>2026-04-27T10:05:42Z</time></trkpt><trkpt lat="31.130554791632218" lon="-8.098423073546153"><ele>976.4</ele><time>2026-04-27T10:05:43Z</time></trkpt><trkpt lat="31.130455955616757" lon="-8.098409513905251"><ele>973.0</ele><time>2026-04-27T10:05:44Z</time></trkpt><trkpt lat="31.130357209800525" lon="-8.098365766897684"><ele>973.0</ele><time>2026-04-27T10:05:45Z</time></trkpt><trkpt lat="31.130255071387147" lon="-8.098301386474539"><ele>973.0</ele><time>2026-04-27T10:05:46Z</time></trkpt><trkpt lat="31.13016577636449" lon="-8.098157459164112"><ele>973.0</ele><time>2026-04-27T10:05:47Z</time></trkpt><trkpt lat="31.13011352561173" lon="-8.098010959601135"><ele>973.0</ele><time>2026-04-27T10:05:48Z</time></trkpt><trkpt lat="31.13008128938708" lon="-8.097881698068997"><ele>974.75</ele><time>2026-04-27T10:05:49Z</time></trkpt><trkpt lat="31.130115389146646" lon="-8.097696657438442"><ele>976.5</ele><time>2026-04-27T10:05:50Z</time></trkpt><trkpt lat="31.13013674605088" lon="-8.097521660453218"><ele>978.25</ele><time>2026-04-27T10:05:51Z</time></trkpt><trkpt lat="31.130156526558665" lon="-8.097378116440696"><ele>980.0</ele><time>2026-04-27T10:05:52Z</time></trkpt><trkpt lat="31.130155903998183" lon="-8.097258202034816"><ele>981.1666666666667</ele><time>2026-04-27T10:05:54Z</time></trkpt><trkpt lat="31.13015675672338" lon="-8.097181281181504"><ele>982.3333333333334</ele><time>2026-04-27T10:05:55Z</time></trkpt><trkpt lat="31.13015696579025" lon="-8.097077093545375"><ele>983.5</ele><time>2026-04-27T10:05:56Z</time></trkpt><trkpt lat="31.13016795273776" lon="-8.096960906495875"><ele>984.6666666666667</ele><time>2026-04-27T10:05:57Z</time></trkpt><trkpt lat="31.13014524492379" lon="-8.096840549709654"><ele>985.8333333333334</ele><time>2026-04-27T10:05:58Z</time></trkpt><trkpt lat="31.13013158456232" lon="-8.096753151227652"><ele>987.0</ele><time>2026-04-27T10:05:59Z</time></trkpt><trkpt lat="31.130109623532075" lon="-8.096683074251683"><ele>988.6</ele><time>2026-04-27T10:06:00Z</time></trkpt><trkpt lat="31.130007312893884" lon="-8.096579846652453"><ele>990.2</ele><time>2026-04-27T10:06:02Z</time></trkpt><trkpt lat="31.129922451745326" lon="-8.096564509590625"><ele>991.8</ele><time>2026-04-27T10:06:03Z</time></trkpt><trkpt lat="31.12983770183046" lon="-8.096591177225543"><ele>993.4</ele><time>2026-04-27T10:06:04Z</time></trkpt><trkpt lat="31.129760827559437" lon="-8.096663619994477"><ele>995.0</ele><time>2026-04-27T10:06:05Z</time></trkpt><trkpt lat="31.1297435299728" lon="-8.096774878143224"><ele>1001.25</ele><time>2026-04-27T10:06:06Z</time></trkpt><trkpt lat="31.129694427102308" lon="-8.096907102212883"><ele>1007.5</ele><time>2026-04-27T10:06:07Z</time></trkpt><trkpt lat="31.12963551145627" lon="-8.09706643483481"><ele>1013.75</ele><time>2026-04-27T10:06:08Z</time></trkpt><trkpt lat="31.129574509919873" lon="-8.097230969695913"><ele>1020.0</ele><time>2026-04-27T10:06:09Z</time></trkpt><trkpt lat="31.12953017528011" lon="-8.09741829898131"><ele>1018.3333333333333</ele><time>2026-04-27T10:06:10Z</time></trkpt><trkpt lat="31.12951143991161" lon="-8.09762168751768"><ele>1016.6666666666666</ele><time>2026-04-27T10:06:11Z</time></trkpt><trkpt lat="31.129505154419107" lon="-8.097838699616712"><ele>1015.0</ele><time>2026-04-27T10:06:12Z</time></trkpt><trkpt lat="31.129504817745076" lon="-8.098057929576632"><ele>1017.6666666666666</ele><time>2026-04-27T10:06:13Z</time></trkpt><trkpt lat="31.12954284668593" lon="-8.098272263719418"><ele>1020.3333333333333</ele><time>2026-04-27T10:06:14Z</time></trkpt><trkpt lat="31.129606997155644" lon="-8.098474340090128"><ele>1023.0</ele><time>2026-04-27T10:06:15Z</time></trkpt><trkpt lat="31.12967796379308" lon="-8.09866045032026"><ele>1023.0</ele><time>2026-04-27T10:06:16Z</time></trkpt><trkpt lat="31.129760855939463" lon="-8.09883552622745"><ele>1023.0</ele><time>2026-04-27T10:06:17Z</time></trkpt><trkpt lat="31.129868134270748" lon="-8.099009150164385"><ele>1023.0</ele><time>2026-04-27T10:06:18Z</time></trkpt><trkpt lat="31.1300048796462" lon="-8.099151070539627"><ele>1013.0</ele><time>2026-04-27T10:06:19Z</time></trkpt><trkpt lat="31.130164795732327" lon="-8.09927369093465"><ele>1003.0</ele><time>2026-04-27T10:06:20Z</time></trkpt><trkpt lat="31.130335532112742" lon="-8.099377566418728"><ele>993.0</ele><time>2026-04-27T10:06:21Z</time></trkpt><trkpt lat="31.1305223006545" lon="-8.09946655977321"><ele>993.0</ele><time>2026-04-27T10:06:22Z</time></trkpt><trkpt lat="31.13072213682048" lon="-8.099544864565502"><ele>993.0</ele><time>2026-04-27T10:06:23Z</time></trkpt><trkpt lat="31.130915696929563" lon="-8.09958514906667"><ele>993.0</ele><time>2026-04-27T10:06:24Z</time></trkpt><trkpt lat="31.131092615679446" lon="-8.099600407221864"><ele>987.25</ele><time>2026-04-27T10:06:25Z</time></trkpt><trkpt lat="31.131251554570213" lon="-8.09961543607873"><ele>981.5</ele><time>2026-04-27T10:06:26Z</time></trkpt><trkpt lat="31.13139705001803" lon="-8.09963136585985"><ele>975.75</ele><time>2026-04-27T10:06:27Z</time></trkpt><trkpt lat="31.131519332350965" lon="-8.099659708665904"><ele>970.0</ele><time>2026-04-27T10:06:28Z</time></trkpt><trkpt lat="31.131618602150425" lon="-8.099698145433598"><ele>968.5</ele><time>2026-04-27T10:06:29Z</time></trkpt><trkpt lat="31.131716212415405" lon="-8.099768131818522"><ele>967.0</ele><time>2026-04-27T10:06:30Z</time></trkpt><trkpt lat="31.13181064454119" lon="-8.09987565814722"><ele>965.5</ele><time>2026-04-27T10:06:31Z</time></trkpt><trkpt lat="31.131874479147935" lon="-8.100003222281448"><ele>964.0</ele><time>2026-04-27T10:06:32Z</time></trkpt><trkpt lat="31.13189660755944" lon="-8.1001399131212"><ele>966.6</ele><time>2026-04-27T10:06:33Z</time></trkpt><trkpt lat="31.131911603340242" lon="-8.100223753863546"><ele>969.2</ele><time>2026-04-27T10:06:34Z</time></trkpt><trkpt lat="31.131890742612807" lon="-8.100332575287545"><ele>971.8000000000001</ele><time>2026-04-27T10:06:35Z</time></trkpt><trkpt lat="31.131887616493664" lon="-8.100409098354586"><ele>974.4000000000001</ele><time>2026-04-27T10:06:36Z</time></trkpt><trkpt lat="31.13179434079057" lon="-8.10051347394972"><ele>977.0</ele><time>2026-04-27T10:06:37Z</time></trkpt><trkpt lat="31.131693893407398" lon="-8.100583864946849"><ele>977.0</ele><time>2026-04-27T10:06:39Z</time></trkpt><trkpt lat="31.13162171221619" lon="-8.100647978780286"><ele>977.0</ele><time>2026-04-27T10:34:36Z</time></trkpt><trkpt lat="31.13154338738288" lon="-8.100680441256044"><ele>977.0</ele><time>2026-04-27T10:34:40Z</time></trkpt><trkpt lat="31.1314587911553" lon="-8.100722617039027"><ele>977.0</ele><time>2026-04-27T10:34:42Z</time></trkpt><trkpt lat="31.13134921707262" lon="-8.10080811769518"><ele>977.0</ele><time>2026-04-27T10:34:44Z</time></trkpt><trkpt lat="31.131286624939207" lon="-8.1008512120627"><ele>982.2</ele><time>2026-04-27T10:34:45Z</time></trkpt><trkpt lat="31.131226255943215" lon="-8.100890278361007"><ele>987.4000000000001</ele><time>2026-04-27T10:34:46Z</time></trkpt><trkpt lat="31.131167437433778" lon="-8.100951870668585"><ele>992.5999999999999</ele><time>2026-04-27T10:34:47Z</time></trkpt><trkpt lat="31.131102283017107" lon="-8.1010315584802"><ele>997.8</ele><time>2026-04-27T10:34:48Z</time></trkpt><trkpt lat="31.131031958994413" lon="-8.101113887307937"><ele>1003.0</ele><time>2026-04-27T10:34:49Z</time></trkpt><trkpt lat="31.13094214267833" lon="-8.101207926583392"><ele>1003.0</ele><time>2026-04-27T10:34:50Z</time></trkpt><trkpt lat="31.13084573032967" lon="-8.101308161567928"><ele>1003.0</ele><time>2026-04-27T10:34:51Z</time></trkpt><trkpt lat="31.130750892601576" lon="-8.101412127982355"><ele>1003.0</ele><time>2026-04-27T10:34:52Z</time></trkpt><trkpt lat="31.13065781163622" lon="-8.101519506301296"><ele>1003.0</ele><time>2026-04-27T10:34:53Z</time></trkpt><trkpt lat="31.13057539110169" lon="-8.101621579207132"><ele>1008.2</ele><time>2026-04-27T10:34:54Z</time></trkpt><trkpt lat="31.130512752763874" lon="-8.101715342631293"><ele>1013.4</ele><time>2026-04-27T10:34:55Z</time></trkpt><trkpt lat="31.130464083073512" lon="-8.101793890820199"><ele>1018.6000000000001</ele><time>2026-04-27T10:34:56Z</time></trkpt><trkpt lat="31.13042095253439" lon="-8.10186039553371"><ele>1023.8000000000001</ele><time>2026-04-27T10:34:57Z</time></trkpt><trkpt lat="31.13033968620354" lon="-8.101972592395049"><ele>1029.0</ele><time>2026-04-27T10:34:59Z</time></trkpt><trkpt lat="31.130254578532867" lon="-8.102082849516108"><ele>1029.0</ele><time>2026-04-27T10:35:01Z</time></trkpt><trkpt lat="31.130178282618978" lon="-8.102184012583248"><ele>1029.0</ele><time>2026-04-27T10:35:03Z</time></trkpt><trkpt lat="31.13011556831797" lon="-8.10229038683641"><ele>1029.0</ele><time>2026-04-27T10:35:05Z</time></trkpt><trkpt lat="31.130087803594677" lon="-8.102395784529303"><ele>1029.0</ele><time>2026-04-27T10:35:07Z</time></trkpt><trkpt lat="31.130067321215535" lon="-8.102503415161566"><ele>1029.0</ele><time>2026-04-27T10:35:10Z</time></trkpt><trkpt lat="31.130060101787947" lon="-8.102576538662536"><ele>1023.8571428571429</ele><time>2026-04-27T10:35:12Z</time></trkpt><trkpt lat="31.130063058602023" lon="-8.102664226302554"><ele>1018.7142857142858</ele><time>2026-04-27T10:35:14.999Z</time></trkpt><trkpt lat="31.130044196080725" lon="-8.102746766135901"><ele>1013.5714285714286</ele><time>2026-04-27T10:35:17.999Z</time></trkpt><trkpt lat="31.1300178280319" lon="-8.102817967176641"><ele>1008.4285714285714</ele><time>2026-04-27T10:35:20.999Z</time></trkpt><trkpt lat="31.12998200772442" lon="-8.102896954297814"><ele>1003.2857142857143</ele><time>2026-04-27T10:35:23.999Z</time></trkpt><trkpt lat="31.129960080111765" lon="-8.10296623454848"><ele>998.1428571428571</ele><time>2026-04-27T10:35:26.999Z</time></trkpt><trkpt lat="31.12992878054101" lon="-8.10303857810629"><ele>993.0</ele><time>2026-04-27T10:35:29.999Z</time></trkpt><trkpt lat="31.129887259734137" lon="-8.103116951848662"><ele>1002.8333333333334</ele><time>2026-04-27T10:35:34Z</time></trkpt><trkpt lat="31.1298406232435" lon="-8.10318904992568"><ele>1012.6666666666667</ele><time>2026-04-27T10:35:37Z</time></trkpt><trkpt lat="31.12980032222063" lon="-8.103253359095874"><ele>1022.5</ele><time>2026-04-27T10:35:39Z</time></trkpt><trkpt lat="31.129764742741322" lon="-8.103329194314044"><ele>1032.3333333333335</ele><time>2026-04-27T10:35:41Z</time></trkpt><trkpt lat="31.129729709980253" lon="-8.103422897208155"><ele>1042.1666666666667</ele><time>2026-04-27T10:35:43Z</time></trkpt><trkpt lat="31.129697888691997" lon="-8.103559422047969"><ele>1052.0</ele><time>2026-04-27T10:35:45Z</time></trkpt><trkpt lat="31.129699194064468" lon="-8.103638301284496"><ele>1052.0</ele><time>2026-04-27T10:35:46Z</time></trkpt><trkpt lat="31.129701091300582" lon="-8.103726859065796"><ele>1052.0</ele><time>2026-04-27T10:35:47Z</time></trkpt><trkpt lat="31.129710051030642" lon="-8.103826992652856"><ele>1052.0</ele><time>2026-04-27T10:35:48Z</time></trkpt><trkpt lat="31.129728895128665" lon="-8.103929037593012"><ele>1052.0</ele><time>2026-04-27T10:35:49Z</time></trkpt><trkpt lat="31.129760265189187" lon="-8.104054190671373"><ele>1052.0</ele><time>2026-04-27T10:35:50Z</time></trkpt><trkpt lat="31.129795286675176" lon="-8.104177844865305"><ele>1051.5</ele><time>2026-04-27T10:35:51Z</time></trkpt><trkpt lat="31.129836541173827" lon="-8.104298289183278"><ele>1051.0</ele><time>2026-04-27T10:35:52Z</time></trkpt><trkpt lat="31.12987730330873" lon="-8.104429654723218"><ele>1050.5</ele><time>2026-04-27T10:35:53Z</time></trkpt><trkpt lat="31.129915606714874" lon="-8.104572963538118"><ele>1050.0</ele><time>2026-04-27T10:35:54Z</time></trkpt><trkpt lat="31.12995396073132" lon="-8.104715609045622"><ele>1036.0</ele><time>2026-04-27T10:35:55Z</time></trkpt><trkpt lat="31.129994303389076" lon="-8.104856069225791"><ele>1022.0</ele><time>2026-04-27T10:35:56Z</time></trkpt><trkpt lat="31.13003586216123" lon="-8.105003290920909"><ele>1008.0</ele><time>2026-04-27T10:35:57Z</time></trkpt><trkpt lat="31.13008062485473" lon="-8.105157180382395"><ele>994.0</ele><time>2026-04-27T10:35:58Z</time></trkpt><trkpt lat="31.13013152201078" lon="-8.105318237859697"><ele>994.0</ele><time>2026-04-27T10:35:59Z</time></trkpt><trkpt lat="31.130192810006715" lon="-8.105480939312258"><ele>994.0</ele><time>2026-04-27T10:36:00Z</time></trkpt><trkpt lat="31.130264125837403" lon="-8.105641283653219"><ele>994.0</ele><time>2026-04-27T10:36:01Z</time></trkpt><trkpt lat="31.130343602628205" lon="-8.105796100384277"><ele>997.25</ele><time>2026-04-27T10:36:02Z</time></trkpt><trkpt lat="31.13042116481646" lon="-8.105948450635733"><ele>1000.5</ele><time>2026-04-27T10:36:03Z</time></trkpt><trkpt lat="31.13049038030939" lon="-8.106087600290934"><ele>1003.75</ele><time>2026-04-27T10:36:04Z</time></trkpt><trkpt lat="31.130551073942147" lon="-8.106215673283657"><ele>1007.0</ele><time>2026-04-27T10:36:05Z</time></trkpt><trkpt lat="31.130597969785338" lon="-8.106335148792645"><ele>1007.0000000000001</ele><time>2026-04-27T10:36:06Z</time></trkpt><trkpt lat="31.13063227959876" lon="-8.10644425597645"><ele>1007.0</ele><time>2026-04-27T10:36:07Z</time></trkpt><trkpt lat="31.13064570997588" lon="-8.106553812476225"><ele>1007.0</ele><time>2026-04-27T10:36:08Z</time></trkpt><trkpt lat="31.130634501741998" lon="-8.106656612124985"><ele>1007.0</ele><time>2026-04-27T10:36:09Z</time></trkpt><trkpt lat="31.130602889781787" lon="-8.106740715471492"><ele>1007.0000000000001</ele><time>2026-04-27T10:36:10Z</time></trkpt><trkpt lat="31.13055523430777" lon="-8.106806406212032"><ele>1007.0</ele><time>2026-04-27T10:36:11Z</time></trkpt><trkpt lat="31.130488264154447" lon="-8.106853416850601"><ele>1003.5</ele><time>2026-04-27T10:36:12Z</time></trkpt><trkpt lat="31.130399791084827" lon="-8.106888099615878"><ele>1000.0</ele><time>2026-04-27T10:36:13Z</time></trkpt><trkpt lat="31.130295783071073" lon="-8.106897087495863"><ele>996.5</ele><time>2026-04-27T10:36:14Z</time></trkpt><trkpt lat="31.130163237710516" lon="-8.106890511249183"><ele>993.0</ele><time>2026-04-27T10:36:15Z</time></trkpt><trkpt lat="31.130003381692212" lon="-8.106886664588108"><ele>996.0</ele><time>2026-04-27T10:36:16Z</time></trkpt><trkpt lat="31.129831572614968" lon="-8.106880639332442"><ele>999.0</ele><time>2026-04-27T10:36:17Z</time></trkpt><trkpt lat="31.129667344930542" lon="-8.106873703746173"><ele>1002.0</ele><time>2026-04-27T10:36:18Z</time></trkpt><trkpt lat="31.129508906706377" lon="-8.106862578037587"><ele>1002.0</ele><time>2026-04-27T10:36:19Z</time></trkpt><trkpt lat="31.129352784894426" lon="-8.106851660662189"><ele>1002.0</ele><time>2026-04-27T10:36:20Z</time></trkpt><trkpt lat="31.129191208464416" lon="-8.106844758869142"><ele>1002.0</ele><time>2026-04-27T10:36:21Z</time></trkpt><trkpt lat="31.129022932130965" lon="-8.106841658833929"><ele>1004.6666666666667</ele><time>2026-04-27T10:36:22Z</time></trkpt><trkpt lat="31.128868518871034" lon="-8.106845953333979"><ele>1007.3333333333334</ele><time>2026-04-27T10:36:23Z</time></trkpt><trkpt lat="31.128723699687686" lon="-8.106867940803028"><ele>1010.0</ele><time>2026-04-27T10:36:24Z</time></trkpt><trkpt lat="31.12857983342098" lon="-8.106916707276048"><ele>1010.0</ele><time>2026-04-27T10:36:25Z</time></trkpt><trkpt lat="31.128437687927136" lon="-8.106996753228932"><ele>1010.0</ele><time>2026-04-27T10:36:26Z</time></trkpt><trkpt lat="31.128298447826193" lon="-8.1070995220145"><ele>1010.0</ele><time>2026-04-27T10:36:27Z</time></trkpt><trkpt lat="31.1281731088753" lon="-8.10719865831646"><ele>1004.0</ele><time>2026-04-27T10:36:28Z</time></trkpt><trkpt lat="31.128048609790447" lon="-8.107290618676855"><ele>998.0</ele><time>2026-04-27T10:36:29Z</time></trkpt><trkpt lat="31.127911867366524" lon="-8.10738246830177"><ele>992.0</ele><time>2026-04-27T10:36:30Z</time></trkpt><trkpt lat="31.12775689577598" lon="-8.107482881663088"><ele>992.0</ele><time>2026-04-27T10:36:31Z</time></trkpt><trkpt lat="31.127599119537855" lon="-8.107593702991593"><ele>992.0</ele><time>2026-04-27T10:36:32Z</time></trkpt><trkpt lat="31.127446904192702" lon="-8.107721646069109"><ele>992.0</ele><time>2026-04-27T10:36:33Z</time></trkpt><trkpt lat="31.12730390153867" lon="-8.107862638625713"><ele>991.6666666666667</ele><time>2026-04-27T10:36:34Z</time></trkpt><trkpt lat="31.12717291483417" lon="-8.108000054647087"><ele>991.3333333333333</ele><time>2026-04-27T10:36:35Z</time></trkpt><trkpt lat="31.12705035475006" lon="-8.10813100148584"><ele>991.0</ele><time>2026-04-27T10:36:36Z</time></trkpt><trkpt lat="31.12693473905601" lon="-8.108250824300876"><ele>991.0</ele><time>2026-04-27T10:36:37Z</time></trkpt><trkpt lat="31.126825610753837" lon="-8.108368918452125"><ele>991.0</ele><time>2026-04-27T10:36:38Z</time></trkpt><trkpt lat="31.126734305664286" lon="-8.108491470885307"><ele>991.0</ele><time>2026-04-27T10:36:39Z</time></trkpt><trkpt lat="31.126653628505995" lon="-8.108636840923687"><ele>991.0</ele><time>2026-04-27T10:36:40Z</time></trkpt><trkpt lat="31.12658356251917" lon="-8.108816887877879"><ele>998.0</ele><time>2026-04-27T10:36:41Z</time></trkpt><trkpt lat="31.126524190327558" lon="-8.109017935321058"><ele>1005.0</ele><time>2026-04-27T10:36:42Z</time></trkpt><trkpt lat="31.126472518429207" lon="-8.109229342411384"><ele>1012.0</ele><time>2026-04-27T10:36:43Z</time></trkpt><trkpt lat="31.126424243446984" lon="-8.10943341086112"><ele>1012.0</ele><time>2026-04-27T10:36:44Z</time></trkpt><trkpt lat="31.126375586355092" lon="-8.109636436791078"><ele>1012.0</ele><time>2026-04-27T10:36:45Z</time></trkpt><trkpt lat="31.12632675307486" lon="-8.109838404416264"><ele>1012.0</ele><time>2026-04-27T10:36:46Z</time></trkpt><trkpt lat="31.1262902807642" lon="-8.110051603603694"><ele>1008.3333333333333</ele><time>2026-04-27T10:36:47Z</time></trkpt><trkpt lat="31.126280950753983" lon="-8.110293831431983"><ele>1004.6666666666667</ele><time>2026-04-27T10:36:48Z</time></trkpt><trkpt lat="31.126296615713276" lon="-8.110561647525667"><ele>1001.0</ele><time>2026-04-27T10:36:49Z</time></trkpt><trkpt lat="31.12631338934386" lon="-8.110815591780728"><ele>999.3333333333334</ele><time>2026-04-27T10:36:50Z</time></trkpt><trkpt lat="31.126330886617005" lon="-8.111062142082876"><ele>997.6666666666667</ele><time>2026-04-27T10:36:51Z</time></trkpt><trkpt lat="31.12635243599122" lon="-8.111298198651882"><ele>996.0</ele><time>2026-04-27T10:36:52Z</time></trkpt><trkpt lat="31.12639052358266" lon="-8.111536157676362"><ele>995.6666666666667</ele><time>2026-04-27T10:36:53Z</time></trkpt><trkpt lat="31.126433578791897" lon="-8.111767733156514"><ele>995.3333333333334</ele><time>2026-04-27T10:36:54Z</time></trkpt><trkpt lat="31.12646818084443" lon="-8.112000210517001"><ele>995.0</ele><time>2026-04-27T10:36:55Z</time></trkpt><trkpt lat="31.126489074743724" lon="-8.112235831163495"><ele>996.0</ele><time>2026-04-27T10:36:56Z</time></trkpt><trkpt lat="31.12650242081813" lon="-8.112473663863213"><ele>997.0</ele><time>2026-04-27T10:36:57Z</time></trkpt><trkpt lat="31.126511252680004" lon="-8.112701800622766"><ele>998.0</ele><time>2026-04-27T10:36:58Z</time></trkpt><trkpt lat="31.12652015101992" lon="-8.11292641871829"><ele>998.0</ele><time>2026-04-27T10:36:59Z</time></trkpt><trkpt lat="31.12653079842635" lon="-8.113150665119674"><ele>998.0</ele><time>2026-04-27T10:37:00Z</time></trkpt><trkpt lat="31.12654383802266" lon="-8.113369441728986"><ele>998.0</ele><time>2026-04-27T10:37:01Z</time></trkpt><trkpt lat="31.126549919868953" lon="-8.11357195969987"><ele>997.0</ele><time>2026-04-27T10:37:02Z</time></trkpt><trkpt lat="31.126530567681677" lon="-8.113765106423163"><ele>996.0</ele><time>2026-04-27T10:37:03Z</time></trkpt><trkpt lat="31.12648226162599" lon="-8.113944925615419"><ele>995.0</ele><time>2026-04-27T10:37:04Z</time></trkpt><trkpt lat="31.126407320637878" lon="-8.114118801096389"><ele>995.0</ele><time>2026-04-27T10:37:05Z</time></trkpt><trkpt lat="31.12632386451576" lon="-8.114293756095485"><ele>995.0</ele><time>2026-04-27T10:37:06Z</time></trkpt><trkpt lat="31.126235304605743" lon="-8.114473780899658"><ele>995.0</ele><time>2026-04-27T10:37:07Z</time></trkpt><trkpt lat="31.126139836258826" lon="-8.114660384705138"><ele>995.0</ele><time>2026-04-27T10:37:08Z</time></trkpt><trkpt lat="31.126044706599583" lon="-8.114852808361466"><ele>995.0</ele><time>2026-04-27T10:37:09Z</time></trkpt><trkpt lat="31.12595004997512" lon="-8.115049188704818"><ele>995.0</ele><time>2026-04-27T10:37:10.001Z</time></trkpt><trkpt lat="31.125859929789918" lon="-8.115241840096349"><ele>1000.0</ele><time>2026-04-27T10:37:11.001Z</time></trkpt><trkpt lat="31.125768003841124" lon="-8.115433670725064"><ele>1005.0</ele><time>2026-04-27T10:37:12.001Z</time></trkpt><trkpt lat="31.125672659594706" lon="-8.115630093981501"><ele>1010.0</ele><time>2026-04-27T10:37:13.001Z</time></trkpt><trkpt lat="31.125577995696162" lon="-8.115826652191732"><ele>1010.0</ele><time>2026-04-27T10:37:14.001Z</time></trkpt><trkpt lat="31.125480136278263" lon="-8.116021340875063"><ele>1010.0</ele><time>2026-04-27T10:37:15.001Z</time></trkpt><trkpt lat="31.125383522268862" lon="-8.11620940016825"><ele>1010.0</ele><time>2026-04-27T10:37:16.001Z</time></trkpt><trkpt lat="31.125288413611248" lon="-8.116387434940071"><ele>1010.0</ele><time>2026-04-27T10:37:17.001Z</time></trkpt><trkpt lat="31.125193647362686" lon="-8.116563091629308"><ele>1010.0</ele><time>2026-04-27T10:37:18.001Z</time></trkpt><trkpt lat="31.125100917021914" lon="-8.11674022917376"><ele>1010.0</ele><time>2026-04-27T10:37:19.001Z</time></trkpt><trkpt lat="31.125010729689585" lon="-8.116926673615067"><ele>1008.6666666666667</ele><time>2026-04-27T10:37:20.001Z</time></trkpt><trkpt lat="31.12493193791528" lon="-8.117121616546653"><ele>1007.3333333333333</ele><time>2026-04-27T10:37:21Z</time></trkpt><trkpt lat="31.124873270694405" lon="-8.117314011239278"><ele>1006.0</ele><time>2026-04-27T10:37:21.999Z</time></trkpt><trkpt lat="31.1248364524198" lon="-8.117496852844093"><ele>1006.0</ele><time>2026-04-27T10:37:23Z</time></trkpt><trkpt lat="31.124806860909025" lon="-8.117671100856084"><ele>1006.0</ele><time>2026-04-27T10:37:24Z</time></trkpt><trkpt lat="31.124769026381983" lon="-8.117848576179734"><ele>1006.0</ele><time>2026-04-27T10:37:25Z</time></trkpt><trkpt lat="31.1247205422121" lon="-8.118032232941472"><ele>1006.0</ele><time>2026-04-27T10:37:26Z</time></trkpt><trkpt lat="31.124667625268106" lon="-8.118203125123717"><ele>1006.0</ele><time>2026-04-27T10:37:27Z</time></trkpt><trkpt lat="31.12461899360917" lon="-8.118361456302376"><ele>1006.0</ele><time>2026-04-27T10:37:28Z</time></trkpt><trkpt lat="31.12457379743257" lon="-8.118511193118565"><ele>1006.0</ele><time>2026-04-27T10:37:29Z</time></trkpt><trkpt lat="31.124529857872503" lon="-8.118662434143213"><ele>1000.6666666666666</ele><time>2026-04-27T10:37:30Z</time></trkpt><trkpt lat="31.124485515095" lon="-8.118829864854044"><ele>995.3333333333333</ele><time>2026-04-27T10:37:31Z</time></trkpt><trkpt lat="31.124446401494957" lon="-8.119010444540994"><ele>990.0</ele><time>2026-04-27T10:37:32Z</time></trkpt><trkpt lat="31.124419854990734" lon="-8.11919032676451"><ele>986.0</ele><time>2026-04-27T10:37:33Z</time></trkpt><trkpt lat="31.12441214226108" lon="-8.119394398221358"><ele>982.0</ele><time>2026-04-27T10:37:34Z</time></trkpt><trkpt lat="31.124426188345424" lon="-8.119598914213661"><ele>978.0</ele><time>2026-04-27T10:37:35Z</time></trkpt><trkpt lat="31.12444927571446" lon="-8.119788100094699"><ele>977.25</ele><time>2026-04-27T10:37:36Z</time></trkpt><trkpt lat="31.124467074443313" lon="-8.119968328941335"><ele>976.5</ele><time>2026-04-27T10:37:37Z</time></trkpt><trkpt lat="31.124473662934424" lon="-8.120144631437206"><ele>975.75</ele><time>2026-04-27T10:37:38Z</time></trkpt><trkpt lat="31.12445756521426" lon="-8.120304329704988"><ele>975.0</ele><time>2026-04-27T10:37:39Z</time></trkpt><trkpt lat="31.12441657515353" lon="-8.120452763973077"><ele>975.0</ele><time>2026-04-27T10:37:40Z</time></trkpt><trkpt lat="31.124356012263362" lon="-8.120581125818152"><ele>975.0</ele><time>2026-04-27T10:37:41Z</time></trkpt><trkpt lat="31.124277019574897" lon="-8.120691085639619"><ele>975.0</ele><time>2026-04-27T10:37:42Z</time></trkpt><trkpt lat="31.124179982844037" lon="-8.120782795438787"><ele>975.0</ele><time>2026-04-27T10:37:43Z</time></trkpt><trkpt lat="31.124063770378676" lon="-8.120854668730423"><ele>973.25</ele><time>2026-04-27T10:37:44Z</time></trkpt><trkpt lat="31.123930737183414" lon="-8.12089640899248"><ele>971.5</ele><time>2026-04-27T10:37:45Z</time></trkpt><trkpt lat="31.123783832067254" lon="-8.120916829876311"><ele>969.75</ele><time>2026-04-27T10:37:46Z</time></trkpt><trkpt lat="31.123647511582544" lon="-8.120925565018215"><ele>968.0</ele><time>2026-04-27T10:37:47Z</time></trkpt><trkpt lat="31.123530236344976" lon="-8.120930522681125"><ele>968.0000000000001</ele><time>2026-04-27T10:37:48Z</time></trkpt><trkpt lat="31.12342903086427" lon="-8.120939681575821"><ele>968.0</ele><time>2026-04-27T10:37:49Z</time></trkpt><trkpt lat="31.123335687520854" lon="-8.120948478247904"><ele>968.0</ele><time>2026-04-27T10:37:50Z</time></trkpt><trkpt lat="31.123262322276137" lon="-8.120953185130377"><ele>968.0</ele><time>2026-04-27T10:37:51Z</time></trkpt><trkpt lat="31.12319528166628" lon="-8.120954680633455"><ele>968.0000000000001</ele><time>2026-04-27T10:37:52Z</time></trkpt><trkpt lat="31.123123900945387" lon="-8.120956010026918"><ele>968.0</ele><time>2026-04-27T10:37:53Z</time></trkpt><trkpt lat="31.123031602372667" lon="-8.120957148943631"><ele>967.4</ele><time>2026-04-27T10:37:54Z</time></trkpt><trkpt lat="31.122949661626794" lon="-8.120950697106053"><ele>966.8</ele><time>2026-04-27T10:37:55Z</time></trkpt><trkpt lat="31.122847161842145" lon="-8.120941232174578"><ele>966.2</ele><time>2026-04-27T10:37:56Z</time></trkpt><trkpt lat="31.122733047413977" lon="-8.120921311582997"><ele>965.6</ele><time>2026-04-27T10:37:57Z</time></trkpt><trkpt lat="31.122623561212297" lon="-8.120896280799322"><ele>965.0</ele><time>2026-04-27T10:37:58Z</time></trkpt><trkpt lat="31.1225213803259" lon="-8.12087159549154"><ele>965.0</ele><time>2026-04-27T10:37:59Z</time></trkpt><trkpt lat="31.122421047874337" lon="-8.120858588073691"><ele>965.0</ele><time>2026-04-27T10:38:00Z</time></trkpt><trkpt lat="31.122321046159914" lon="-8.120855921109898"><ele>965.0</ele><time>2026-04-27T10:38:01Z</time></trkpt><trkpt lat="31.122224883769476" lon="-8.120862361095234"><ele>965.0</ele><time>2026-04-27T10:38:02Z</time></trkpt><trkpt lat="31.122130933383378" lon="-8.120888912216214"><ele>965.0</ele><time>2026-04-27T10:38:03Z</time></trkpt><trkpt lat="31.122045777473645" lon="-8.120913606548768"><ele>964.0000000000001</ele><time>2026-04-27T10:38:04Z</time></trkpt><trkpt lat="31.121956340967035" lon="-8.120914192602271"><ele>963.0</ele><time>2026-04-27T10:38:05Z</time></trkpt><trkpt lat="31.12186521708633" lon="-8.120903917331733"><ele>962.0</ele><time>2026-04-27T10:38:06Z</time></trkpt><trkpt lat="31.121784279515534" lon="-8.120892023652985"><ele>961.0</ele><time>2026-04-27T10:38:07Z</time></trkpt><trkpt lat="31.12169331720541" lon="-8.120874792182786"><ele>960.0000000000001</ele><time>2026-04-27T10:38:08Z</time></trkpt><trkpt lat="31.121605857842756" lon="-8.120851991688557"><ele>959.0</ele><time>2026-04-27T10:38:09Z</time></trkpt><trkpt lat="31.12152948398093" lon="-8.120828924398179"><ele>959.6666666666667</ele><time>2026-04-27T10:38:10Z</time></trkpt><trkpt lat="31.121451564098525" lon="-8.120791637072148"><ele>960.3333333333334</ele><time>2026-04-27T10:38:11Z</time></trkpt><trkpt lat="31.121371888779294" lon="-8.120756164668139"><ele>961.0</ele><time>2026-04-27T10:38:12Z</time></trkpt><trkpt lat="31.12129129953071" lon="-8.120720520696556"><ele>961.6666666666667</ele><time>2026-04-27T10:38:13Z</time></trkpt><trkpt lat="31.121200988884638" lon="-8.120682961932788"><ele>962.3333333333334</ele><time>2026-04-27T10:38:14Z</time></trkpt><trkpt lat="31.12112118449719" lon="-8.120652698018786"><ele>963.0</ele><time>2026-04-27T10:38:15Z</time></trkpt><trkpt lat="31.121039075430062" lon="-8.120618983806601"><ele>963.0</ele><time>2026-04-27T10:38:16Z</time></trkpt><trkpt lat="31.120955520248426" lon="-8.120595652066655"><ele>963.0</ele><time>2026-04-27T10:38:17Z</time></trkpt><trkpt lat="31.120848812198414" lon="-8.12059498777812"><ele>963.0</ele><time>2026-04-27T10:38:18Z</time></trkpt><trkpt lat="31.12073369578944" lon="-8.12059114586082"><ele>963.0</ele><time>2026-04-27T10:38:19Z</time></trkpt><trkpt lat="31.1206102366995" lon="-8.12057788448229"><ele>963.0</ele><time>2026-04-27T10:38:20Z</time></trkpt><trkpt lat="31.1204799111681" lon="-8.120568747419224"><ele>970.75</ele><time>2026-04-27T10:38:21Z</time></trkpt><trkpt lat="31.12035006425051" lon="-8.120570891668452"><ele>978.5</ele><time>2026-04-27T10:38:22Z</time></trkpt><trkpt lat="31.120218505948664" lon="-8.120585208243844"><ele>986.25</ele><time>2026-04-27T10:38:23Z</time></trkpt><trkpt lat="31.12007862384157" lon="-8.120610107436669"><ele>994.0</ele><time>2026-04-27T10:38:24Z</time></trkpt><trkpt lat="31.119940372581965" lon="-8.12063715313796"><ele>999.5</ele><time>2026-04-27T10:38:25Z</time></trkpt><trkpt lat="31.119803162477634" lon="-8.120663410576592"><ele>1005.0</ele><time>2026-04-27T10:38:26Z</time></trkpt><trkpt lat="31.119664015983687" lon="-8.120690308779327"><ele>1010.5</ele><time>2026-04-27T10:38:27Z</time></trkpt><trkpt lat="31.119520764253494" lon="-8.120722401127814"><ele>1016.0</ele><time>2026-04-27T10:38:28Z</time></trkpt><trkpt lat="31.119369671007227" lon="-8.120766433301949"><ele>1011.5</ele><time>2026-04-27T10:38:29Z</time></trkpt><trkpt lat="31.119228532639653" lon="-8.12082063742817"><ele>1007.0</ele><time>2026-04-27T10:38:30Z</time></trkpt><trkpt lat="31.11909187724864" lon="-8.120883198054033"><ele>1002.5</ele><time>2026-04-27T10:38:31Z</time></trkpt><trkpt lat="31.11896675445272" lon="-8.120939721188646"><ele>998.0</ele><time>2026-04-27T10:38:32Z</time></trkpt><trkpt lat="31.11885356893687" lon="-8.120993967313787"><ele>998.0</ele><time>2026-04-27T10:38:33Z</time></trkpt><trkpt lat="31.11873440654059" lon="-8.121057851679927"><ele>998.0</ele><time>2026-04-27T10:38:34Z</time></trkpt><trkpt lat="31.118610805604316" lon="-8.121132104957553"><ele>998.0</ele><time>2026-04-27T10:38:35Z</time></trkpt><trkpt lat="31.11849443553208" lon="-8.121226227121305"><ele>998.0</ele><time>2026-04-27T10:38:36Z</time></trkpt><trkpt lat="31.11838990357275" lon="-8.12134260792622"><ele>998.0</ele><time>2026-04-27T10:38:37Z</time></trkpt><trkpt lat="31.11829844955758" lon="-8.121462894114313"><ele>998.0</ele><time>2026-04-27T10:38:38Z</time></trkpt><trkpt lat="31.118209821639578" lon="-8.121594503159875"><ele>998.0</ele><time>2026-04-27T10:38:39Z</time></trkpt><trkpt lat="31.11812059840368" lon="-8.121733066131204"><ele>998.0</ele><time>2026-04-27T10:38:40Z</time></trkpt><trkpt lat="31.118022557521243" lon="-8.121877115803967"><ele>996.6666666666667</ele><time>2026-04-27T10:38:41Z</time></trkpt><trkpt lat="31.117916300363362" lon="-8.122027416777282"><ele>995.3333333333333</ele><time>2026-04-27T10:38:42Z</time></trkpt><trkpt lat="31.117806463666636" lon="-8.122180429663834"><ele>994.0</ele><time>2026-04-27T10:38:43Z</time></trkpt><trkpt lat="31.11770038081535" lon="-8.122331481621615"><ele>983.6666666666666</ele><time>2026-04-27T10:38:44Z</time></trkpt><trkpt lat="31.11759421324945" lon="-8.122484477189454"><ele>973.3333333333333</ele><time>2026-04-27T10:38:45Z</time></trkpt><trkpt lat="31.117491839626446" lon="-8.122634710280877"><ele>963.0</ele><time>2026-04-27T10:38:46Z</time></trkpt><trkpt lat="31.117401205679375" lon="-8.122775724673579"><ele>974.75</ele><time>2026-04-27T10:38:47Z</time></trkpt><trkpt lat="31.11732778971083" lon="-8.122909247996896"><ele>986.5</ele><time>2026-04-27T10:38:48Z</time></trkpt><trkpt lat="31.11726744071102" lon="-8.123043113410635"><ele>998.25</ele><time>2026-04-27T10:38:49Z</time></trkpt><trkpt lat="31.11722098344858" lon="-8.123192008835968"><ele>1010.0</ele><time>2026-04-27T10:38:50Z</time></trkpt><trkpt lat="31.117199986258264" lon="-8.123351821465183"><ele>1010.0</ele><time>2026-04-27T10:38:51Z</time></trkpt><trkpt lat="31.11720149192745" lon="-8.123519537710566"><ele>1010.0</ele><time>2026-04-27T10:38:52Z</time></trkpt><trkpt lat="31.117227078098583" lon="-8.123686792975318"><ele>1010.0</ele><time>2026-04-27T10:38:53Z</time></trkpt><trkpt lat="31.11727684727731" lon="-8.123849476182727"><ele>1010.0</ele><time>2026-04-27T10:38:54Z</time></trkpt><trkpt lat="31.117343482078105" lon="-8.124008791298632"><ele>994.0</ele><time>2026-04-27T10:38:55Z</time></trkpt><trkpt lat="31.11742449073475" lon="-8.124163083884415"><ele>978.0</ele><time>2026-04-27T10:38:56.001Z</time></trkpt><trkpt lat="31.11750653339109" lon="-8.124320389231919"><ele>962.0</ele><time>2026-04-27T10:38:57.001Z</time></trkpt><trkpt lat="31.117588469436228" lon="-8.124490656670508"><ele>962.0</ele><time>2026-04-27T10:38:58.001Z</time></trkpt><trkpt lat="31.11767094545013" lon="-8.124672186553008"><ele>962.0</ele><time>2026-04-27T10:38:59.001Z</time></trkpt><trkpt lat="31.117754976811774" lon="-8.124854673376623"><ele>962.0</ele><time>2026-04-27T10:39:00.001Z</time></trkpt><trkpt lat="31.11784071863642" lon="-8.125037367786343"><ele>965.3333333333334</ele><time>2026-04-27T10:39:01.001Z</time></trkpt><trkpt lat="31.11792460307705" lon="-8.125219023313539"><ele>968.6666666666667</ele><time>2026-04-27T10:39:02.001Z</time></trkpt><trkpt lat="31.11800269607721" lon="-8.12539819912517"><ele>972.0</ele><time>2026-04-27T10:39:03.001Z</time></trkpt><trkpt lat="31.118072155300016" lon="-8.125577463435395"><ele>980.0</ele><time>2026-04-27T10:39:04.001Z</time></trkpt><trkpt lat="31.118127756784478" lon="-8.125755447657427"><ele>988.0</ele><time>2026-04-27T10:39:05.001Z</time></trkpt><trkpt lat="31.11816650419171" lon="-8.125942971372297"><ele>996.0</ele><time>2026-04-27T10:39:06.001Z</time></trkpt><trkpt lat="31.11819533094067" lon="-8.126126788368225"><ele>996.0</ele><time>2026-04-27T10:39:07.001Z</time></trkpt><trkpt lat="31.11822392739929" lon="-8.12631283628733"><ele>996.0</ele><time>2026-04-27T10:39:08.001Z</time></trkpt><trkpt lat="31.118252451874643" lon="-8.12649922508488"><ele>996.0</ele><time>2026-04-27T10:39:09.001Z</time></trkpt><trkpt lat="31.118276757687084" lon="-8.126684523266638"><ele>1001.0</ele><time>2026-04-27T10:39:10.001Z</time></trkpt><trkpt lat="31.11828414283162" lon="-8.126874520473836"><ele>1006.0</ele><time>2026-04-27T10:39:11.001Z</time></trkpt><trkpt lat="31.11826926667187" lon="-8.127063130659291"><ele>1011.0</ele><time>2026-04-27T10:39:12.001Z</time></trkpt><trkpt lat="31.11822085943688" lon="-8.127252748747143"><ele>1008.0</ele><time>2026-04-27T10:39:13.001Z</time></trkpt><trkpt lat="31.118162454584578" lon="-8.127439542966753"><ele>1005.0</ele><time>2026-04-27T10:39:14.001Z</time></trkpt><trkpt lat="31.118094371075284" lon="-8.127625965111788"><ele>1002.0</ele><time>2026-04-27T10:39:15.001Z</time></trkpt><trkpt lat="31.118007773122677" lon="-8.127809997810324"><ele>1002.0</ele><time>2026-04-27T10:39:16.001Z</time></trkpt><trkpt lat="31.11790057931281" lon="-8.127984694701738"><ele>1002.0</ele><time>2026-04-27T10:39:17.001Z</time></trkpt><trkpt lat="31.11778663611667" lon="-8.128151533097466"><ele>1002.0</ele><time>2026-04-27T10:39:18.001Z</time></trkpt><trkpt lat="31.117675491048068" lon="-8.128302681707364"><ele>1001.3333333333333</ele><time>2026-04-27T10:39:19.001Z</time></trkpt><trkpt lat="31.117562846316265" lon="-8.128447087530088"><ele>1000.6666666666666</ele><time>2026-04-27T10:39:20.001Z</time></trkpt><trkpt lat="31.11744652855074" lon="-8.12857976763448"><ele>1000.0</ele><time>2026-04-27T10:39:21.001Z</time></trkpt><trkpt lat="31.11732979910756" lon="-8.128701855185179"><ele>1000.0</ele><time>2026-04-27T10:39:22.001Z</time></trkpt><trkpt lat="31.117217043187924" lon="-8.128808667089674"><ele>1000.0</ele><time>2026-04-27T10:39:23.001Z</time></trkpt><trkpt lat="31.11710652330336" lon="-8.128894640721136"><ele>1000.0</ele><time>2026-04-27T10:39:24.001Z</time></trkpt><trkpt lat="31.116992170103405" lon="-8.128953966683968"><ele>1000.0</ele><time>2026-04-27T10:39:25.001Z</time></trkpt><trkpt lat="31.11686969362878" lon="-8.128979142749822"><ele>1000.0</ele><time>2026-04-27T10:39:26.001Z</time></trkpt><trkpt lat="31.11675095400287" lon="-8.128976604080957"><ele>1000.0</ele><time>2026-04-27T10:39:27Z</time></trkpt><trkpt lat="31.116634184532174" lon="-8.1289734732425"><ele>1000.0</ele><time>2026-04-27T10:39:28Z</time></trkpt><trkpt lat="31.11651356833303" lon="-8.128969956343152"><ele>1000.0</ele><time>2026-04-27T10:39:29Z</time></trkpt><trkpt lat="31.11638075403501" lon="-8.128969033939688"><ele>1000.75</ele><time>2026-04-27T10:39:30Z</time></trkpt><trkpt lat="31.11624259836763" lon="-8.128973279294689"><ele>1001.5</ele><time>2026-04-27T10:39:31Z</time></trkpt><trkpt lat="31.116099769421613" lon="-8.128992355930782"><ele>1002.25</ele><time>2026-04-27T10:39:32Z</time></trkpt><trkpt lat="31.1159544673012" lon="-8.12903219502541"><ele>1003.0</ele><time>2026-04-27T10:39:33Z</time></trkpt><trkpt lat="31.11580661211557" lon="-8.129107677760185"><ele>1004.3333333333333</ele><time>2026-04-27T10:39:34Z</time></trkpt><trkpt lat="31.11566808750531" lon="-8.129227770305784"><ele>1005.6666666666667</ele><time>2026-04-27T10:39:35Z</time></trkpt><trkpt lat="31.115548481669723" lon="-8.12936844670981"><ele>1007.0</ele><time>2026-04-27T10:39:36Z</time></trkpt><trkpt lat="31.115435678143836" lon="-8.129518126032732"><ele>1007.0</ele><time>2026-04-27T10:39:37Z</time></trkpt><trkpt lat="31.115310561929636" lon="-8.129675171687387"><ele>1007.0</ele><time>2026-04-27T10:39:38Z</time></trkpt><trkpt lat="31.115176179875153" lon="-8.129831223641999"><ele>1007.0</ele><time>2026-04-27T10:39:39Z</time></trkpt><trkpt lat="31.115034651853385" lon="-8.129983206932376"><ele>1007.3333333333334</ele><time>2026-04-27T10:39:40Z</time></trkpt><trkpt lat="31.114893605115853" lon="-8.130127414621638"><ele>1007.6666666666667</ele><time>2026-04-27T10:39:41Z</time></trkpt><trkpt lat="31.114741918420588" lon="-8.130255168742732"><ele>1008.0</ele><time>2026-04-27T10:39:42Z</time></trkpt><trkpt lat="31.114580797552765" lon="-8.130365971610733"><ele>1008.0</ele><time>2026-04-27T10:39:43Z</time></trkpt><trkpt lat="31.11441873515115" lon="-8.130467727699267"><ele>1008.0</ele><time>2026-04-27T10:39:44Z</time></trkpt><trkpt lat="31.114250018424848" lon="-8.130551367916954"><ele>1008.0</ele><time>2026-04-27T10:39:45Z</time></trkpt><trkpt lat="31.114088287876786" lon="-8.130621050169855"><ele>1015.0</ele><time>2026-04-27T10:39:46Z</time></trkpt><trkpt lat="31.113932357122454" lon="-8.130679399818586"><ele>1022.0</ele><time>2026-04-27T10:39:47Z</time></trkpt><trkpt lat="31.113790061966917" lon="-8.130734744718053"><ele>1029.0</ele><time>2026-04-27T10:39:48Z</time></trkpt><trkpt lat="31.113647307185882" lon="-8.130793964448115"><ele>1017.6666666666667</ele><time>2026-04-27T10:39:49Z</time></trkpt><trkpt lat="31.113495462517015" lon="-8.13086848401929"><ele>1006.3333333333334</ele><time>2026-04-27T10:39:50Z</time></trkpt><trkpt lat="31.113340433751816" lon="-8.130980069685902"><ele>995.0</ele><time>2026-04-27T10:39:51Z</time></trkpt><trkpt lat="31.11319966505768" lon="-8.131118979812182"><ele>995.0</ele><time>2026-04-27T10:39:52Z</time></trkpt><trkpt lat="31.113069464007257" lon="-8.131270680478874"><ele>995.0</ele><time>2026-04-27T10:39:53Z</time></trkpt><trkpt lat="31.112934039312123" lon="-8.131419629388324"><ele>995.0</ele><time>2026-04-27T10:39:54Z</time></trkpt><trkpt lat="31.112793030776352" lon="-8.131556887265566"><ele>991.6666666666667</ele><time>2026-04-27T10:39:55Z</time></trkpt><trkpt lat="31.11265408173763" lon="-8.13167271062054"><ele>988.3333333333333</ele><time>2026-04-27T10:39:56Z</time></trkpt><trkpt lat="31.11251930399539" lon="-8.131769207737557"><ele>985.0</ele><time>2026-04-27T10:39:57Z</time></trkpt><trkpt lat="31.112384434806206" lon="-8.131842961832513"><ele>985.0</ele><time>2026-04-27T10:39:58Z</time></trkpt><trkpt lat="31.11224129091337" lon="-8.131898694968726"><ele>985.0</ele><time>2026-04-27T10:39:59Z</time></trkpt><trkpt lat="31.112083015592532" lon="-8.131933954231462"><ele>985.0</ele><time>2026-04-27T10:40:00Z</time></trkpt><trkpt lat="31.11191562497793" lon="-8.131933336850528"><ele>985.0</ele><time>2026-04-27T10:40:01Z</time></trkpt><trkpt lat="31.11172827034553" lon="-8.131901121829033"><ele>985.0</ele><time>2026-04-27T10:40:02Z</time></trkpt><trkpt lat="31.111551293259843" lon="-8.131874877858952"><ele>985.0</ele><time>2026-04-27T10:40:03Z</time></trkpt><trkpt lat="31.111374594987968" lon="-8.131883511318065"><ele>987.6666666666666</ele><time>2026-04-27T10:40:04Z</time></trkpt><trkpt lat="31.1111941486653" lon="-8.131941546407695"><ele>990.3333333333333</ele><time>2026-04-27T10:40:05Z</time></trkpt><trkpt lat="31.110999673206223" lon="-8.132045512621675"><ele>993.0</ele><time>2026-04-27T10:40:06Z</time></trkpt><trkpt lat="31.110815898492675" lon="-8.132176039109924"><ele>991.5</ele><time>2026-04-27T10:40:07Z</time></trkpt><trkpt lat="31.1106258383322" lon="-8.1323306102179"><ele>990.0</ele><time>2026-04-27T10:40:08Z</time></trkpt><trkpt lat="31.110443834989862" lon="-8.132478200565254"><ele>990.0</ele><time>2026-04-27T10:40:09Z</time></trkpt><trkpt lat="31.11026621157303" lon="-8.132588974840434"><ele>990.0</ele><time>2026-04-27T10:40:10Z</time></trkpt><trkpt lat="31.110077678531486" lon="-8.132679440968857"><ele>990.0</ele><time>2026-04-27T10:40:11Z</time></trkpt><trkpt lat="31.109886125196333" lon="-8.132771032020292"><ele>998.3333333333333</ele><time>2026-04-27T10:40:12Z</time></trkpt><trkpt lat="31.10969671989385" lon="-8.132877907928934"><ele>1006.6666666666666</ele><time>2026-04-27T10:40:13Z</time></trkpt><trkpt lat="31.109527901940243" lon="-8.132988432034008"><ele>1015.0</ele><time>2026-04-27T10:40:14Z</time></trkpt><trkpt lat="31.1093892781302" lon="-8.133093861824245"><ele>1015.0</ele><time>2026-04-27T10:40:15Z</time></trkpt><trkpt lat="31.109267026534123" lon="-8.133194433368422"><ele>1015.0</ele><time>2026-04-27T10:40:16Z</time></trkpt><trkpt lat="31.10916262503536" lon="-8.133280912831815"><ele>1015.0</ele><time>2026-04-27T10:40:17Z</time></trkpt><trkpt lat="31.109078968072907" lon="-8.133344110394212"><ele>1015.0</ele><time>2026-04-27T10:40:18Z</time></trkpt><trkpt lat="31.109005529111958" lon="-8.133394037352332"><ele>1013.4</ele><time>2026-04-27T10:40:19Z</time></trkpt><trkpt lat="31.108937164442317" lon="-8.133436402183566"><ele>1011.8</ele><time>2026-04-27T10:40:20Z</time></trkpt><trkpt lat="31.108856261928047" lon="-8.133482296086692"><ele>1010.2</ele><time>2026-04-27T10:40:21Z</time></trkpt><trkpt lat="31.108763789857424" lon="-8.133525904001194"><ele>1008.6</ele><time>2026-04-27T10:40:22Z</time></trkpt><trkpt lat="31.108652670145556" lon="-8.133577482732528"><ele>1007.0</ele><time>2026-04-27T10:40:23Z</time></trkpt><trkpt lat="31.108528222496165" lon="-8.133633564330923"><ele>1007.0</ele><time>2026-04-27T10:40:24.001Z</time></trkpt><trkpt lat="31.10839751858595" lon="-8.133694147103027"><ele>1007.0</ele><time>2026-04-27T10:40:25.001Z</time></trkpt><trkpt lat="31.108266031835864" lon="-8.133751569713867"><ele>1007.0</ele><time>2026-04-27T10:40:26.001Z</time></trkpt><trkpt lat="31.108136918084558" lon="-8.133808527906488"><ele>1007.0</ele><time>2026-04-27T10:40:27.001Z</time></trkpt><trkpt lat="31.10802401856553" lon="-8.133865944211534"><ele>1004.8333333333334</ele><time>2026-04-27T10:40:28.001Z</time></trkpt><trkpt lat="31.107934095206605" lon="-8.133917970269017"><ele>1002.6666666666667</ele><time>2026-04-27T10:40:29.001Z</time></trkpt><trkpt lat="31.107861789886684" lon="-8.13397041788235"><ele>1000.5</ele><time>2026-04-27T10:40:30.001Z</time></trkpt><trkpt lat="31.107793655371097" lon="-8.134025259341193"><ele>998.3333333333333</ele><time>2026-04-27T10:40:31.001Z</time></trkpt><trkpt lat="31.107729714249945" lon="-8.134084431434477"><ele>996.1666666666666</ele><time>2026-04-27T10:40:32.001Z</time></trkpt><trkpt lat="31.10766404940425" lon="-8.134152794480233"><ele>994.0</ele><time>2026-04-27T10:40:33.001Z</time></trkpt><trkpt lat="31.10759128271458" lon="-8.13422366512504"><ele>994.0</ele><time>2026-04-27T10:40:34.001Z</time></trkpt><trkpt lat="31.107510642649597" lon="-8.134281670854406"><ele>994.0000000000001</ele><time>2026-04-27T10:40:35.001Z</time></trkpt><trkpt lat="31.107415478792113" lon="-8.134332095787482"><ele>994.0000000000001</ele><time>2026-04-27T10:40:36.001Z</time></trkpt><trkpt lat="31.107311517801786" lon="-8.134381560748235"><ele>994.0</ele><time>2026-04-27T10:40:37.001Z</time></trkpt><trkpt lat="31.107200135139145" lon="-8.134435154897801"><ele>994.0</ele><time>2026-04-27T10:40:38.001Z</time></trkpt><trkpt lat="31.107084265667204" lon="-8.13449021249696"><ele>1003.0</ele><time>2026-04-27T10:40:39.001Z</time></trkpt><trkpt lat="31.106957687063755" lon="-8.13454642248733"><ele>1012.0</ele><time>2026-04-27T10:40:40.001Z</time></trkpt><trkpt lat="31.10682290469997" lon="-8.134600262009199"><ele>1021.0</ele><time>2026-04-27T10:40:41.001Z</time></trkpt><trkpt lat="31.106685280403852" lon="-8.134649589103747"><ele>1030.0</ele><time>2026-04-27T10:40:42.001Z</time></trkpt><trkpt lat="31.10655580038402" lon="-8.134689190241401"><ele>1031.3333333333333</ele><time>2026-04-27T10:40:43.001Z</time></trkpt><trkpt lat="31.106415560516265" lon="-8.134726248605906"><ele>1032.6666666666667</ele><time>2026-04-27T10:40:44.001Z</time></trkpt><trkpt lat="31.106256337691047" lon="-8.134745701611006"><ele>1034.0</ele><time>2026-04-27T10:40:45.001Z</time></trkpt><trkpt lat="31.106100218438204" lon="-8.134750207000819"><ele>1034.0</ele><time>2026-04-27T10:40:46.001Z</time></trkpt><trkpt lat="31.105949065983676" lon="-8.134745357028478"><ele>1034.0</ele><time>2026-04-27T10:40:47.001Z</time></trkpt><trkpt lat="31.105798328592428" lon="-8.134732246172225"><ele>1034.0</ele><time>2026-04-27T10:40:48.001Z</time></trkpt><trkpt lat="31.105648036052" lon="-8.134719177383133"><ele>1034.0</ele><time>2026-04-27T10:40:49.001Z</time></trkpt><trkpt lat="31.105508496023397" lon="-8.134707361837366"><ele>1034.0</ele><time>2026-04-27T10:40:50.001Z</time></trkpt><trkpt lat="31.105371170501243" lon="-8.134698203213448"><ele>1034.0</ele><time>2026-04-27T10:40:51.001Z</time></trkpt><trkpt lat="31.10524162963677" lon="-8.134688232436945"><ele>1034.0</ele><time>2026-04-27T10:40:52.001Z</time></trkpt><trkpt lat="31.10510991309655" lon="-8.134678936231566"><ele>1034.0</ele><time>2026-04-27T10:40:53.001Z</time></trkpt><trkpt lat="31.104976704041196" lon="-8.134670685058412"><ele>1034.0</ele><time>2026-04-27T10:40:54.001Z</time></trkpt><trkpt lat="31.104844346423114" lon="-8.134666648319598"><ele>1034.0</ele><time>2026-04-27T10:40:55.001Z</time></trkpt><trkpt lat="31.104708948007115" lon="-8.134663374816222"><ele>1034.0</ele><time>2026-04-27T10:40:56.001Z</time></trkpt><trkpt lat="31.10457548274695" lon="-8.13466483332616"><ele>1036.5</ele><time>2026-04-27T10:40:57.001Z</time></trkpt><trkpt lat="31.10444073639956" lon="-8.134667473464821"><ele>1039.0</ele><time>2026-04-27T10:40:58.001Z</time></trkpt><trkpt lat="31.104301250054995" lon="-8.134669829650798"><ele>1041.5</ele><time>2026-04-27T10:40:59.001Z</time></trkpt><trkpt lat="31.104157617295574" lon="-8.134666902679152"><ele>1044.0</ele><time>2026-04-27T10:41:00.001Z</time></trkpt><trkpt lat="31.10401102254358" lon="-8.13466704483443"><ele>1045.25</ele><time>2026-04-27T10:41:01.001Z</time></trkpt><trkpt lat="31.103869396142933" lon="-8.134666923325241"><ele>1046.5</ele><time>2026-04-27T10:41:02.001Z</time></trkpt><trkpt lat="31.10373251005033" lon="-8.134669402260505"><ele>1047.75</ele><time>2026-04-27T10:41:03.001Z</time></trkpt><trkpt lat="31.10359484824102" lon="-8.134667835162466"><ele>1049.0</ele><time>2026-04-27T10:41:04.001Z</time></trkpt><trkpt lat="31.10345924210888" lon="-8.134666031546674"><ele>1049.0</ele><time>2026-04-27T10:41:05.001Z</time></trkpt><trkpt lat="31.1033293121619" lon="-8.134667741027755"><ele>1049.0</ele><time>2026-04-27T10:41:06.001Z</time></trkpt><trkpt lat="31.103196767445922" lon="-8.134677745987583"><ele>1049.0</ele><time>2026-04-27T10:41:07.001Z</time></trkpt><trkpt lat="31.10306243762128" lon="-8.134702329984595"><ele>1049.0</ele><time>2026-04-27T10:41:08.001Z</time></trkpt><trkpt lat="31.10292544760041" lon="-8.134733872090257"><ele>1052.25</ele><time>2026-04-27T10:41:09.001Z</time></trkpt><trkpt lat="31.10278707484113" lon="-8.134779436506326"><ele>1055.5</ele><time>2026-04-27T10:41:10.001Z</time></trkpt><trkpt lat="31.102649472201183" lon="-8.13483600754312"><ele>1058.75</ele><time>2026-04-27T10:41:11.001Z</time></trkpt><trkpt lat="31.102514476191182" lon="-8.134900011335716"><ele>1062.0</ele><time>2026-04-27T10:41:12.001Z</time></trkpt><trkpt lat="31.102386660787804" lon="-8.13496003901052"><ele>1052.75</ele><time>2026-04-27T10:41:13.001Z</time></trkpt><trkpt lat="31.102259805060385" lon="-8.135022155150228"><ele>1043.5</ele><time>2026-04-27T10:41:14.001Z</time></trkpt><trkpt lat="31.1021381472301" lon="-8.135077398476685"><ele>1034.25</ele><time>2026-04-27T10:41:15.001Z</time></trkpt><trkpt lat="31.102017202193608" lon="-8.135134233913956"><ele>1025.0</ele><time>2026-04-27T10:41:16.001Z</time></trkpt><trkpt lat="31.101901710704418" lon="-8.135191607288526"><ele>1025.0</ele><time>2026-04-27T10:41:17.001Z</time></trkpt><trkpt lat="31.101795456893324" lon="-8.135247592988412"><ele>1025.0</ele><time>2026-04-27T10:41:18.001Z</time></trkpt><trkpt lat="31.101693838999196" lon="-8.135306010519205"><ele>1025.0</ele><time>2026-04-27T10:41:19.001Z</time></trkpt><trkpt lat="31.10158728902366" lon="-8.135372948555485"><ele>1025.0</ele><time>2026-04-27T10:41:20.001Z</time></trkpt><trkpt lat="31.1014753991622" lon="-8.135441451612394"><ele>1031.5</ele><time>2026-04-27T10:41:21.001Z</time></trkpt><trkpt lat="31.10136811146219" lon="-8.135502395932045"><ele>1038.0</ele><time>2026-04-27T10:41:22.001Z</time></trkpt><trkpt lat="31.10125718206204" lon="-8.135557578815208"><ele>1044.5</ele><time>2026-04-27T10:41:23.001Z</time></trkpt><trkpt lat="31.10114983209031" lon="-8.135608907718952"><ele>1051.0</ele><time>2026-04-27T10:41:24.001Z</time></trkpt><trkpt lat="31.10103894270089" lon="-8.135659207695339"><ele>1051.0</ele><time>2026-04-27T10:41:25.001Z</time></trkpt><trkpt lat="31.100929398659154" lon="-8.135705943924888"><ele>1051.0</ele><time>2026-04-27T10:41:26.001Z</time></trkpt><trkpt lat="31.100819060933823" lon="-8.135744832553174"><ele>1051.0</ele><time>2026-04-27T10:41:27.001Z</time></trkpt><trkpt lat="31.10070973471561" lon="-8.13578626773871"><ele>1051.0</ele><time>2026-04-27T10:41:28.001Z</time></trkpt><trkpt lat="31.100596154372766" lon="-8.13583235738752"><ele>1044.75</ele><time>2026-04-27T10:41:29.001Z</time></trkpt><trkpt lat="31.10047904347752" lon="-8.135885665327935"><ele>1038.5</ele><time>2026-04-27T10:41:30.001Z</time></trkpt><trkpt lat="31.100360546902007" lon="-8.135951947382999"><ele>1032.25</ele><time>2026-04-27T10:41:31.001Z</time></trkpt><trkpt lat="31.100245130111563" lon="-8.13602872958055"><ele>1026.0</ele><time>2026-04-27T10:41:32.001Z</time></trkpt><trkpt lat="31.10013176349448" lon="-8.136115123024931"><ele>1026.0</ele><time>2026-04-27T10:41:33.001Z</time></trkpt><trkpt lat="31.100015496423215" lon="-8.136193016288484"><ele>1026.0</ele><time>2026-04-27T10:41:34.001Z</time></trkpt><trkpt lat="31.099888836377062" lon="-8.136247210867676"><ele>1026.0</ele><time>2026-04-27T10:41:35.001Z</time></trkpt><trkpt lat="31.099753456557636" lon="-8.136288397784156"><ele>1026.0</ele><time>2026-04-27T10:41:36.001Z</time></trkpt><trkpt lat="31.099618220205134" lon="-8.13632433499687"><ele>1030.75</ele><time>2026-04-27T10:41:37.001Z</time></trkpt><trkpt lat="31.09948459863604" lon="-8.136350307829321"><ele>1035.5</ele><time>2026-04-27T10:41:38.001Z</time></trkpt><trkpt lat="31.099352091958632" lon="-8.136368780906617"><ele>1040.25</ele><time>2026-04-27T10:41:39.001Z</time></trkpt><trkpt lat="31.09921857682299" lon="-8.13639692111652"><ele>1045.0</ele><time>2026-04-27T10:41:40.001Z</time></trkpt><trkpt lat="31.09908341582285" lon="-8.136433109856394"><ele>1038.5</ele><time>2026-04-27T10:41:41.001Z</time></trkpt><trkpt lat="31.09894481014214" lon="-8.136473732889733"><ele>1032.0</ele><time>2026-04-27T10:41:42.001Z</time></trkpt><trkpt lat="31.098802920243855" lon="-8.136523660512001"><ele>1025.5</ele><time>2026-04-27T10:41:43.001Z</time></trkpt><trkpt lat="31.09865894030739" lon="-8.136577049370436"><ele>1019.0</ele><time>2026-04-27T10:41:44.001Z</time></trkpt><trkpt lat="31.098514201722057" lon="-8.136626467223914"><ele>1019.0</ele><time>2026-04-27T10:41:45.001Z</time></trkpt><trkpt lat="31.098367806368135" lon="-8.136677947826819"><ele>1019.0</ele><time>2026-04-27T10:41:46.001Z</time></trkpt><trkpt lat="31.098220372264368" lon="-8.13673679559173"><ele>1019.0</ele><time>2026-04-27T10:41:47.001Z</time></trkpt><trkpt lat="31.098083344936253" lon="-8.13681450421799"><ele>1026.0</ele><time>2026-04-27T10:41:48.001Z</time></trkpt><trkpt lat="31.097955157009352" lon="-8.136917457521049"><ele>1033.0</ele><time>2026-04-27T10:41:49.001Z</time></trkpt><trkpt lat="31.097835423604366" lon="-8.13701416759394"><ele>1040.0</ele><time>2026-04-27T10:41:50.001Z</time></trkpt><trkpt lat="31.09772959140096" lon="-8.137099452738449"><ele>1047.0</ele><time>2026-04-27T10:41:51.001Z</time></trkpt><trkpt lat="31.09762405938726" lon="-8.137183682735884"><ele>1047.0</ele><time>2026-04-27T10:41:52.001Z</time></trkpt><trkpt lat="31.09751547057517" lon="-8.137264252251176"><ele>1047.0</ele><time>2026-04-27T10:41:53.001Z</time></trkpt><trkpt lat="31.09740930608827" lon="-8.137328182772867"><ele>1047.0</ele><time>2026-04-27T10:41:54.001Z</time></trkpt><trkpt lat="31.097310256494616" lon="-8.137368697566414"><ele>1047.0</ele><time>2026-04-27T10:41:55.001Z</time></trkpt><trkpt lat="31.097212612347967" lon="-8.137385089169856"><ele>1046.0</ele><time>2026-04-27T10:41:56Z</time></trkpt><trkpt lat="31.097114194535337" lon="-8.137369541502455"><ele>1045.0</ele><time>2026-04-27T10:41:57Z</time></trkpt><trkpt lat="31.097017654718414" lon="-8.137325635667462"><ele>1044.0</ele><time>2026-04-27T10:41:58Z</time></trkpt><trkpt lat="31.09693150961636" lon="-8.137256364884287"><ele>1043.0</ele><time>2026-04-27T10:41:59Z</time></trkpt><trkpt lat="31.096837764602743" lon="-8.137158127054152"><ele>1042.0</ele><time>2026-04-27T10:42:00Z</time></trkpt><trkpt lat="31.096749297280994" lon="-8.137065115836414"><ele>1042.0</ele><time>2026-04-27T10:42:01Z</time></trkpt><trkpt lat="31.09666952673074" lon="-8.136985660681848"><ele>1042.0</ele><time>2026-04-27T10:42:02Z</time></trkpt><trkpt lat="31.096598095696933" lon="-8.136910712465937"><ele>1042.0</ele><time>2026-04-27T10:42:03Z</time></trkpt><trkpt lat="31.096532760913277" lon="-8.136841942379016"><ele>1042.0</ele><time>2026-04-27T10:42:04Z</time></trkpt><trkpt lat="31.09646493381825" lon="-8.136775241036347"><ele>1042.0</ele><time>2026-04-27T10:42:05Z</time></trkpt><trkpt lat="31.096399681933896" lon="-8.136714668171523"><ele>1041.2</ele><time>2026-04-27T10:42:06Z</time></trkpt><trkpt lat="31.09633864534198" lon="-8.136650280474136"><ele>1040.4</ele><time>2026-04-27T10:42:07Z</time></trkpt><trkpt lat="31.096280701466128" lon="-8.136583325085823"><ele>1039.6</ele><time>2026-04-27T10:42:08Z</time></trkpt><trkpt lat="31.096218708501244" lon="-8.13650369188174"><ele>1038.8</ele><time>2026-04-27T10:42:09Z</time></trkpt><trkpt lat="31.096154630685778" lon="-8.136420127082122"><ele>1038.0</ele><time>2026-04-27T10:42:10.001Z</time></trkpt><trkpt lat="31.096090996381637" lon="-8.136329257093553"><ele>1038.0</ele><time>2026-04-27T10:42:11.001Z</time></trkpt><trkpt lat="31.09602417781509" lon="-8.136234734383804"><ele>1038.0</ele><time>2026-04-27T10:42:12.001Z</time></trkpt><trkpt lat="31.095956924083772" lon="-8.136148681846386"><ele>1038.0</ele><time>2026-04-27T10:42:13.001Z</time></trkpt><trkpt lat="31.0958858351004" lon="-8.136062604499449"><ele>1038.0</ele><time>2026-04-27T10:42:14.001Z</time></trkpt><trkpt lat="31.095813442023175" lon="-8.135980090433138"><ele>1038.0</ele><time>2026-04-27T10:42:15.001Z</time></trkpt><trkpt lat="31.095744812153395" lon="-8.135901807832354"><ele>1034.8</ele><time>2026-04-27T10:42:16.001Z</time></trkpt><trkpt lat="31.095682867797137" lon="-8.135823465278593"><ele>1031.6</ele><time>2026-04-27T10:42:17.001Z</time></trkpt><trkpt lat="31.09562230139199" lon="-8.135732712338314"><ele>1028.4</ele><time>2026-04-27T10:42:18.001Z</time></trkpt><trkpt lat="31.09555074077647" lon="-8.135630757199072"><ele>1025.2</ele><time>2026-04-27T10:42:19.001Z</time></trkpt><trkpt lat="31.09547803438926" lon="-8.135515070487179"><ele>1022.0</ele><time>2026-04-27T10:42:20.001Z</time></trkpt><trkpt lat="31.0954147642542" lon="-8.135390775592048"><ele>1022.0</ele><time>2026-04-27T10:42:21.001Z</time></trkpt><trkpt lat="31.095360978664072" lon="-8.13525777772474"><ele>1022.0</ele><time>2026-04-27T10:42:22.001Z</time></trkpt><trkpt lat="31.095314110538194" lon="-8.135114445332144"><ele>1022.0</ele><time>2026-04-27T10:42:23.001Z</time></trkpt><trkpt lat="31.09527640250929" lon="-8.134974601746459"><ele>1022.0</ele><time>2026-04-27T10:42:24.001Z</time></trkpt><trkpt lat="31.09523368642388" lon="-8.134836198205154"><ele>1028.0</ele><time>2026-04-27T10:42:25.001Z</time></trkpt><trkpt lat="31.095190779396898" lon="-8.13469798081016"><ele>1034.0</ele><time>2026-04-27T10:42:26.001Z</time></trkpt><trkpt lat="31.095147441333413" lon="-8.134566204264544"><ele>1040.0</ele><time>2026-04-27T10:42:27.001Z</time></trkpt><trkpt lat="31.095098384937092" lon="-8.134441082724736"><ele>1046.0</ele><time>2026-04-27T10:42:28.001Z</time></trkpt><trkpt lat="31.095042341719672" lon="-8.134310570854465"><ele>1046.0</ele><time>2026-04-27T10:42:29.001Z</time></trkpt><trkpt lat="31.09498472986206" lon="-8.134191801315497"><ele>1046.0</ele><time>2026-04-27T10:42:30.001Z</time></trkpt><trkpt lat="31.09492526221808" lon="-8.134078526895106"><ele>1046.0</ele><time>2026-04-27T10:42:31.001Z</time></trkpt><trkpt lat="31.094874443335797" lon="-8.133968502186706"><ele>1046.0</ele><time>2026-04-27T10:42:32.001Z</time></trkpt><trkpt lat="31.094815037970207" lon="-8.133855826664938"><ele>1042.75</ele><time>2026-04-27T10:42:33.001Z</time></trkpt><trkpt lat="31.094760794382875" lon="-8.133746150376295"><ele>1039.5</ele><time>2026-04-27T10:42:34.001Z</time></trkpt><trkpt lat="31.09471574426583" lon="-8.133626663223753"><ele>1036.25</ele><time>2026-04-27T10:42:35.001Z</time></trkpt><trkpt lat="31.094681238310056" lon="-8.133492407609376"><ele>1033.0</ele><time>2026-04-27T10:42:36.001Z</time></trkpt><trkpt lat="31.094658955071168" lon="-8.133352611737598"><ele>1039.5</ele><time>2026-04-27T10:42:37.001Z</time></trkpt><trkpt lat="31.094641482706308" lon="-8.133204392490468"><ele>1046.0</ele><time>2026-04-27T10:42:38.001Z</time></trkpt><trkpt lat="31.09462276637636" lon="-8.133048285283076"><ele>1052.5</ele><time>2026-04-27T10:42:39.001Z</time></trkpt><trkpt lat="31.094609544157073" lon="-8.132901350130345"><ele>1059.0</ele><time>2026-04-27T10:42:40.001Z</time></trkpt><trkpt lat="31.09458779690323" lon="-8.132756990003138"><ele>1059.0</ele><time>2026-04-27T10:42:41.001Z</time></trkpt><trkpt lat="31.094553501359417" lon="-8.13263051622692"><ele>1059.0</ele><time>2026-04-27T10:42:42.001Z</time></trkpt><trkpt lat="31.094499355914248" lon="-8.13253647570042"><ele>1059.0</ele><time>2026-04-27T10:42:43.001Z</time></trkpt><trkpt lat="31.094432108365293" lon="-8.132460903263718"><ele>1059.0</ele><time>2026-04-27T10:42:44.001Z</time></trkpt><trkpt lat="31.094344377673007" lon="-8.132408255725117"><ele>1059.0</ele><time>2026-04-27T10:42:45.001Z</time></trkpt><trkpt lat="31.094238319162958" lon="-8.132379059297833"><ele>1057.75</ele><time>2026-04-27T10:42:46.001Z</time></trkpt><trkpt lat="31.09412349153674" lon="-8.132373355539745"><ele>1056.5</ele><time>2026-04-27T10:42:47.001Z</time></trkpt><trkpt lat="31.094006973879672" lon="-8.132387771647739"><ele>1055.25</ele><time>2026-04-27T10:42:48.001Z</time></trkpt><trkpt lat="31.093882347373807" lon="-8.132411089980172"><ele>1054.0</ele><time>2026-04-27T10:42:49.001Z</time></trkpt><trkpt lat="31.09375577000286" lon="-8.132422400007927"><ele>1054.0</ele><time>2026-04-27T10:42:50.001Z</time></trkpt><trkpt lat="31.093622251095436" lon="-8.132426820908536"><ele>1054.0</ele><time>2026-04-27T10:42:51.001Z</time></trkpt><trkpt lat="31.093485273350904" lon="-8.132422204359061"><ele>1054.0</ele><time>2026-04-27T10:42:52.001Z</time></trkpt><trkpt lat="31.09335392408086" lon="-8.13240936570883"><ele>1054.0</ele><time>2026-04-27T10:42:53.001Z</time></trkpt><trkpt lat="31.093226788499752" lon="-8.132389323423787"><ele>1059.5</ele><time>2026-04-27T10:42:54.001Z</time></trkpt><trkpt lat="31.09310008273517" lon="-8.132357982695895"><ele>1065.0</ele><time>2026-04-27T10:42:55.001Z</time></trkpt><trkpt lat="31.09297670665817" lon="-8.132312789900578"><ele>1070.5</ele><time>2026-04-27T10:42:56.001Z</time></trkpt><trkpt lat="31.092865789097118" lon="-8.13224912493369"><ele>1076.0</ele><time>2026-04-27T10:42:57.001Z</time></trkpt><trkpt lat="31.092767208776202" lon="-8.132161156213256"><ele>1076.0</ele><time>2026-04-27T10:42:58.001Z</time></trkpt><trkpt lat="31.09267380126065" lon="-8.132046647706131"><ele>1076.0</ele><time>2026-04-27T10:42:59.001Z</time></trkpt><trkpt lat="31.092577120972567" lon="-8.131921915159694"><ele>1076.0</ele><time>2026-04-27T10:43:00.001Z</time></trkpt><trkpt lat="31.092472078639435" lon="-8.13179811684538"><ele>1076.0</ele><time>2026-04-27T10:43:01.001Z</time></trkpt><trkpt lat="31.092365696499385" lon="-8.13167039344923"><ele>1079.0</ele><time>2026-04-27T10:43:02.001Z</time></trkpt><trkpt lat="31.092252231722135" lon="-8.13152429009767"><ele>1082.0</ele><time>2026-04-27T10:43:03.001Z</time></trkpt><trkpt lat="31.092137795486206" lon="-8.131376569308854"><ele>1085.0</ele><time>2026-04-27T10:43:04.001Z</time></trkpt><trkpt lat="31.09201601101414" lon="-8.131223447574241"><ele>1085.0</ele><time>2026-04-27T10:43:05.001Z</time></trkpt><trkpt lat="31.09189041516838" lon="-8.131068218478152"><ele>1085.0</ele><time>2026-04-27T10:43:06.001Z</time></trkpt><trkpt lat="31.091772015214936" lon="-8.130914645408073"><ele>1085.0</ele><time>2026-04-27T10:43:07.001Z</time></trkpt><trkpt lat="31.09165032917179" lon="-8.130764158274047"><ele>1092.6666666666667</ele><time>2026-04-27T10:43:08.001Z</time></trkpt><trkpt lat="31.091514304948568" lon="-8.130614377646527"><ele>1100.3333333333333</ele><time>2026-04-27T10:43:09.001Z</time></trkpt><trkpt lat="31.09138010932259" lon="-8.130490066756634"><ele>1108.0</ele><time>2026-04-27T10:43:10.001Z</time></trkpt><trkpt lat="31.091243517721082" lon="-8.130398966772635"><ele>1108.0</ele><time>2026-04-27T10:43:11.001Z</time></trkpt><trkpt lat="31.091115017178986" lon="-8.130337315084722"><ele>1108.0</ele><time>2026-04-27T10:43:12.001Z</time></trkpt><trkpt lat="31.090993522739467" lon="-8.130305481425658"><ele>1108.0</ele><time>2026-04-27T10:43:13.001Z</time></trkpt><trkpt lat="31.090880987948744" lon="-8.130296891092463"><ele>1108.0</ele><time>2026-04-27T10:43:14.001Z</time></trkpt><trkpt lat="31.090770446463658" lon="-8.130308355970955"><ele>1112.0</ele><time>2026-04-27T10:43:15.001Z</time></trkpt><trkpt lat="31.0906616498367" lon="-8.130326995979352"><ele>1116.0</ele><time>2026-04-27T10:43:16.001Z</time></trkpt><trkpt lat="31.090555432552193" lon="-8.130369779042743"><ele>1120.0</ele><time>2026-04-27T10:43:17.001Z</time></trkpt><trkpt lat="31.09043997873148" lon="-8.13043381043897"><ele>1124.0</ele><time>2026-04-27T10:43:18.001Z</time></trkpt><trkpt lat="31.090307412117877" lon="-8.130516373915567"><ele>1124.0</ele><time>2026-04-27T10:43:19.001Z</time></trkpt><trkpt lat="31.09016832434491" lon="-8.13061774890442"><ele>1124.0</ele><time>2026-04-27T10:43:20.001Z</time></trkpt><trkpt lat="31.090026872852636" lon="-8.130722374290633"><ele>1124.0</ele><time>2026-04-27T10:43:21.001Z</time></trkpt><trkpt lat="31.089875203548345" lon="-8.130823521984563"><ele>1122.6666666666667</ele><time>2026-04-27T10:43:22.001Z</time></trkpt><trkpt lat="31.089724187250752" lon="-8.130909910480948"><ele>1121.3333333333333</ele><time>2026-04-27T10:43:23.001Z</time></trkpt><trkpt lat="31.089575756198425" lon="-8.130981140904789"><ele>1120.0</ele><time>2026-04-27T10:43:24.001Z</time></trkpt><trkpt lat="31.089440407939843" lon="-8.131048113095064"><ele>1120.0</ele><time>2026-04-27T10:43:25.001Z</time></trkpt><trkpt lat="31.08929594579874" lon="-8.131131926597321"><ele>1120.0</ele><time>2026-04-27T10:43:26.001Z</time></trkpt><trkpt lat="31.089183042806354" lon="-8.131201614126057"><ele>1120.0</ele><time>2026-04-27T10:43:27.001Z</time></trkpt><trkpt lat="31.089085068509647" lon="-8.131265391739614"><ele>1120.0</ele><time>2026-04-27T10:43:28.001Z</time></trkpt><trkpt lat="31.088981886654892" lon="-8.131337929638127"><ele>1119.8</ele><time>2026-04-27T10:43:29.001Z</time></trkpt><trkpt lat="31.0888816342549" lon="-8.131406098591071"><ele>1119.6</ele><time>2026-04-27T10:43:30.001Z</time></trkpt><trkpt lat="31.088792428530272" lon="-8.131474225574602"><ele>1119.4</ele><time>2026-04-27T10:43:31.001Z</time></trkpt><trkpt lat="31.088729062723324" lon="-8.131542137128147"><ele>1119.2</ele><time>2026-04-27T10:43:32.001Z</time></trkpt><trkpt lat="31.088666685852857" lon="-8.131630550072035"><ele>1119.0</ele><time>2026-04-27T10:43:33.001Z</time></trkpt><trkpt lat="31.088607786735615" lon="-8.131707721515495"><ele>1116.0</ele><time>2026-04-27T10:43:34.001Z</time></trkpt><trkpt lat="31.08853650835555" lon="-8.13175554368851"><ele>1113.0</ele><time>2026-04-27T10:43:35.001Z</time></trkpt><trkpt lat="31.08844972675395" lon="-8.13179222638857"><ele>1110.0</ele><time>2026-04-27T10:43:36.001Z</time></trkpt><trkpt lat="31.088355732180922" lon="-8.131821067887417"><ele>1107.0</ele><time>2026-04-27T10:43:37.001Z</time></trkpt><trkpt lat="31.088264344538853" lon="-8.13185023200341"><ele>1104.0</ele><time>2026-04-27T10:43:38.001Z</time></trkpt><trkpt lat="31.088171154636548" lon="-8.131876003166289"><ele>1104.0</ele><time>2026-04-27T10:43:39.001Z</time></trkpt><trkpt lat="31.0880799466945" lon="-8.131887696650686"><ele>1104.0</ele><time>2026-04-27T10:43:40.001Z</time></trkpt><trkpt lat="31.087980710543906" lon="-8.131902433992616"><ele>1104.0</ele><time>2026-04-27T10:43:41.001Z</time></trkpt><trkpt lat="31.087895025866946" lon="-8.131904884337828"><ele>1104.0</ele><time>2026-04-27T10:43:42.001Z</time></trkpt><trkpt lat="31.087816408527583" lon="-8.131899514694233"><ele>1104.0</ele><time>2026-04-27T10:43:43.001Z</time></trkpt><trkpt lat="31.087745606693314" lon="-8.131877512560273"><ele>1104.0</ele><time>2026-04-27T10:43:44.001Z</time></trkpt><trkpt lat="31.08768067675214" lon="-8.131835482022973"><ele>1104.0</ele><time>2026-04-27T10:43:45.001Z</time></trkpt><trkpt lat="31.08762125077533" lon="-8.13177349184524"><ele>1104.0</ele><time>2026-04-27T10:43:46.001Z</time></trkpt><trkpt lat="31.087564731411053" lon="-8.131677552646702"><ele>1104.0</ele><time>2026-04-27T10:43:48.001Z</time></trkpt><trkpt lat="31.087523073339508" lon="-8.131574919117094"><ele>1104.0</ele><time>2026-04-27T10:43:50.001Z</time></trkpt><trkpt lat="31.08753882748219" lon="-8.13146044721411"><ele>1104.0</ele><time>2026-04-27T10:43:52.001Z</time></trkpt><trkpt lat="31.087557664160137" lon="-8.131376397258848"><ele>1103.0</ele><time>2026-04-27T10:43:53.001Z</time></trkpt><trkpt lat="31.08757523439165" lon="-8.13127457676511"><ele>1102.0</ele><time>2026-04-27T10:43:54.001Z</time></trkpt><trkpt lat="31.087601716547155" lon="-8.131191609338515"><ele>1101.0</ele><time>2026-04-27T10:43:55.001Z</time></trkpt><trkpt lat="31.087646351670127" lon="-8.131121120686462"><ele>1100.0</ele><time>2026-04-27T10:43:56.001Z</time></trkpt><trkpt lat="31.08771656366329" lon="-8.131051000882907"><ele>1099.0</ele><time>2026-04-27T10:43:57.001Z</time></trkpt><trkpt lat="31.087818200768435" lon="-8.130969870934033"><ele>1099.0</ele><time>2026-04-27T10:43:58.001Z</time></trkpt><trkpt lat="31.087923924092784" lon="-8.130862151846754"><ele>1099.0</ele><time>2026-04-27T10:43:59.001Z</time></trkpt><trkpt lat="31.0880015345342" lon="-8.130745608747356"><ele>1099.0</ele><time>2026-04-27T10:44:00.001Z</time></trkpt><trkpt lat="31.08805807360642" lon="-8.130629550596638"><ele>1099.0</ele><time>2026-04-27T10:44:01.001Z</time></trkpt><trkpt lat="31.088104339197024" lon="-8.13051981571438"><ele>1102.2</ele><time>2026-04-27T10:44:02.001Z</time></trkpt><trkpt lat="31.088137428819405" lon="-8.130433254415749"><ele>1105.4</ele><time>2026-04-27T10:44:03.001Z</time></trkpt><trkpt lat="31.08815830436029" lon="-8.130349884146595"><ele>1108.6</ele><time>2026-04-27T10:44:04.001Z</time></trkpt><trkpt lat="31.088123285041803" lon="-8.130214476783799"><ele>1111.8</ele><time>2026-04-27T10:44:06.001Z</time></trkpt><trkpt lat="31.08800782013146" lon="-8.130153429789553"><ele>1115.0</ele><time>2026-04-27T10:44:08.001Z</time></trkpt><trkpt lat="31.08792994405409" lon="-8.130171328417637"><ele>1115.0</ele><time>2026-04-27T10:44:09.001Z</time></trkpt><trkpt lat="31.08784111110875" lon="-8.130226057301558"><ele>1115.0</ele><time>2026-04-27T10:44:10.001Z</time></trkpt><trkpt lat="31.08771900983152" lon="-8.130342739731436"><ele>1115.0</ele><time>2026-04-27T10:44:11.001Z</time></trkpt><trkpt lat="31.08758819142731" lon="-8.130468259991714"><ele>1115.0</ele><time>2026-04-27T10:44:12.001Z</time></trkpt><trkpt lat="31.08745611605989" lon="-8.130586386826801"><ele>1113.0</ele><time>2026-04-27T10:44:13.001Z</time></trkpt><trkpt lat="31.087317023046854" lon="-8.13069148689138"><ele>1111.0</ele><time>2026-04-27T10:44:14.001Z</time></trkpt><trkpt lat="31.0871888513253" lon="-8.130776820162275"><ele>1109.0</ele><time>2026-04-27T10:44:15.001Z</time></trkpt><trkpt lat="31.087074476062266" lon="-8.13085280195071"><ele>1107.0</ele><time>2026-04-27T10:44:16.001Z</time></trkpt><trkpt lat="31.086966968951455" lon="-8.130929147296698"><ele>1107.0</ele><time>2026-04-27T10:44:17.001Z</time></trkpt><trkpt lat="31.086841295929833" lon="-8.13103867612112"><ele>1107.0</ele><time>2026-04-27T10:44:18.001Z</time></trkpt><trkpt lat="31.086702366990167" lon="-8.131173096728569"><ele>1107.0</ele><time>2026-04-27T10:44:19.001Z</time></trkpt><trkpt lat="31.08656123832556" lon="-8.131310561516049"><ele>1106.0</ele><time>2026-04-27T10:44:20.001Z</time></trkpt><trkpt lat="31.0864284155972" lon="-8.131444702326977"><ele>1105.0</ele><time>2026-04-27T10:44:21.001Z</time></trkpt><trkpt lat="31.086308431538715" lon="-8.13159047291312"><ele>1104.0</ele><time>2026-04-27T10:44:22.001Z</time></trkpt><trkpt lat="31.08618557818903" lon="-8.13173616482074"><ele>1104.0</ele><time>2026-04-27T10:44:23.001Z</time></trkpt><trkpt lat="31.086050690854513" lon="-8.131877413140344"><ele>1104.0</ele><time>2026-04-27T10:44:24.001Z</time></trkpt><trkpt lat="31.085913863053644" lon="-8.132012523612294"><ele>1104.0</ele><time>2026-04-27T10:44:25.001Z</time></trkpt><trkpt lat="31.085766075545013" lon="-8.132156823877107"><ele>1099.3333333333333</ele><time>2026-04-27T10:44:26.001Z</time></trkpt><trkpt lat="31.085632936707754" lon="-8.132302382350284"><ele>1094.6666666666665</ele><time>2026-04-27T10:44:27.001Z</time></trkpt><trkpt lat="31.085509844587914" lon="-8.13246026815237"><ele>1090.0</ele><time>2026-04-27T10:44:28.001Z</time></trkpt><trkpt lat="31.085387451388687" lon="-8.132633583553128"><ele>1090.0</ele><time>2026-04-27T10:44:29.001Z</time></trkpt><trkpt lat="31.085264555438698" lon="-8.132785812809887"><ele>1090.0</ele><time>2026-04-27T10:44:30.001Z</time></trkpt><trkpt lat="31.08512940479756" lon="-8.132910969569789"><ele>1090.0</ele><time>2026-04-27T10:44:31.001Z</time></trkpt><trkpt lat="31.08497245578193" lon="-8.133039194109905"><ele>1093.0</ele><time>2026-04-27T10:44:32.001Z</time></trkpt><trkpt lat="31.084813126556934" lon="-8.133162945450636"><ele>1096.0</ele><time>2026-04-27T10:44:33.001Z</time></trkpt><trkpt lat="31.084664484438395" lon="-8.133275373583318"><ele>1099.0</ele><time>2026-04-27T10:44:34.001Z</time></trkpt><trkpt lat="31.084523981554653" lon="-8.133382064998624"><ele>1090.6666666666665</ele><time>2026-04-27T10:44:35.001Z</time></trkpt><trkpt lat="31.084390039367676" lon="-8.13349263676333"><ele>1082.3333333333333</ele><time>2026-04-27T10:44:36.001Z</time></trkpt><trkpt lat="31.08425989177648" lon="-8.133604892274672"><ele>1074.0</ele><time>2026-04-27T10:44:37.001Z</time></trkpt><trkpt lat="31.08414156930128" lon="-8.133703467662494"><ele>1072.5</ele><time>2026-04-27T10:44:38.001Z</time></trkpt><trkpt lat="31.084029321841246" lon="-8.133781980923914"><ele>1071.0</ele><time>2026-04-27T10:44:39.001Z</time></trkpt><trkpt lat="31.083916415490094" lon="-8.133837015406787"><ele>1069.5</ele><time>2026-04-27T10:44:40.001Z</time></trkpt><trkpt lat="31.08380583457486" lon="-8.13387391797964"><ele>1068.0</ele><time>2026-04-27T10:44:41.001Z</time></trkpt><trkpt lat="31.083698904639796" lon="-8.13389235563321"><ele>1068.0</ele><time>2026-04-27T10:44:42.001Z</time></trkpt><trkpt lat="31.08358265575041" lon="-8.133890655474465"><ele>1068.0</ele><time>2026-04-27T10:44:43.001Z</time></trkpt><trkpt lat="31.08347333510831" lon="-8.133863471430203"><ele>1068.0</ele><time>2026-04-27T10:44:44.001Z</time></trkpt><trkpt lat="31.08336349524259" lon="-8.13381018148625"><ele>1068.0</ele><time>2026-04-27T10:44:45.001Z</time></trkpt><trkpt lat="31.083260969835003" lon="-8.13373263059658"><ele>1061.6</ele><time>2026-04-27T10:44:46.001Z</time></trkpt><trkpt lat="31.083178583459272" lon="-8.133648861725145"><ele>1055.1999999999998</ele><time>2026-04-27T10:44:47.001Z</time></trkpt><trkpt lat="31.083111198591002" lon="-8.133541795853901"><ele>1048.8</ele><time>2026-04-27T10:44:48.001Z</time></trkpt><trkpt lat="31.083060053330765" lon="-8.133429058483626"><ele>1042.3999999999999</ele><time>2026-04-27T10:44:49.001Z</time></trkpt><trkpt lat="31.083020366787434" lon="-8.133302451818135"><ele>1036.0</ele><time>2026-04-27T10:44:50.001Z</time></trkpt><trkpt lat="31.08299226435794" lon="-8.133148993774808"><ele>1036.0</ele><time>2026-04-27T10:44:51.001Z</time></trkpt><trkpt lat="31.082977687470983" lon="-8.132965399407746"><ele>1036.0</ele><time>2026-04-27T10:44:52.001Z</time></trkpt><trkpt lat="31.082976680340252" lon="-8.132744889067013"><ele>1036.0</ele><time>2026-04-27T10:44:53.001Z</time></trkpt><trkpt lat="31.082983150331636" lon="-8.132529629435133"><ele>1036.6666666666665</ele><time>2026-04-27T10:44:54.001Z</time></trkpt><trkpt lat="31.082988343249962" lon="-8.13230416175962"><ele>1037.3333333333333</ele><time>2026-04-27T10:44:55.001Z</time></trkpt><trkpt lat="31.082990542660276" lon="-8.132077726410149"><ele>1038.0</ele><time>2026-04-27T10:44:56.001Z</time></trkpt><trkpt lat="31.08298995041577" lon="-8.131863393210292"><ele>1038.0</ele><time>2026-04-27T10:44:57.001Z</time></trkpt><trkpt lat="31.082987585703474" lon="-8.13165626238327"><ele>1038.0</ele><time>2026-04-27T10:44:58.001Z</time></trkpt><trkpt lat="31.082979704406362" lon="-8.131440270478972"><ele>1038.0</ele><time>2026-04-27T10:44:59.001Z</time></trkpt><trkpt lat="31.08296611631936" lon="-8.131235689921114"><ele>1039.25</ele><time>2026-04-27T10:45:00.001Z</time></trkpt><trkpt lat="31.082947548948987" lon="-8.131052796706934"><ele>1040.5</ele><time>2026-04-27T10:45:01.001Z</time></trkpt><trkpt lat="31.08292426171959" lon="-8.130886241506442"><ele>1041.75</ele><time>2026-04-27T10:45:02.001Z</time></trkpt><trkpt lat="31.082889354201587" lon="-8.13074015153701"><ele>1043.0</ele><time>2026-04-27T10:45:03.001Z</time></trkpt><trkpt lat="31.08284342428971" lon="-8.13060404766173"><ele>1052.0</ele><time>2026-04-27T10:45:04.001Z</time></trkpt><trkpt lat="31.08278882471521" lon="-8.130483512107071"><ele>1061.0</ele><time>2026-04-27T10:45:05.001Z</time></trkpt><trkpt lat="31.08271575023495" lon="-8.130376861836199"><ele>1070.0</ele><time>2026-04-27T10:45:06.001Z</time></trkpt><trkpt lat="31.082620642057133" lon="-8.13027942766716"><ele>1079.0</ele><time>2026-04-27T10:45:07.001Z</time></trkpt><trkpt lat="31.082507844038517" lon="-8.130189909984944"><ele>1071.6666666666667</ele><time>2026-04-27T10:45:08.001Z</time></trkpt><trkpt lat="31.08236476649918" lon="-8.130109881356407"><ele>1064.3333333333333</ele><time>2026-04-27T10:45:09.001Z</time></trkpt><trkpt lat="31.082205265269938" lon="-8.130046377538097"><ele>1057.0</ele><time>2026-04-27T10:45:10.001Z</time></trkpt><trkpt lat="31.082039165904668" lon="-8.130010394044929"><ele>1057.0</ele><time>2026-04-27T10:45:11.001Z</time></trkpt><trkpt lat="31.08185491008254" lon="-8.12999335353883"><ele>1057.0</ele><time>2026-04-27T10:45:12.001Z</time></trkpt><trkpt lat="31.081658920046994" lon="-8.129996505054187"><ele>1057.0</ele><time>2026-04-27T10:45:13.001Z</time></trkpt><trkpt lat="31.08146225952721" lon="-8.130022107959082"><ele>1060.3333333333333</ele><time>2026-04-27T10:45:14.001Z</time></trkpt><trkpt lat="31.08125323798769" lon="-8.130075476798755"><ele>1063.6666666666667</ele><time>2026-04-27T10:45:15.001Z</time></trkpt><trkpt lat="31.081040729693527" lon="-8.130161202564953"><ele>1067.0</ele><time>2026-04-27T10:45:16.001Z</time></trkpt><trkpt lat="31.08081786487406" lon="-8.130260673276652"><ele>1075.0</ele><time>2026-04-27T10:45:17.001Z</time></trkpt><trkpt lat="31.080593887786367" lon="-8.130344119571596"><ele>1083.0</ele><time>2026-04-27T10:45:18.001Z</time></trkpt><trkpt lat="31.08037019885128" lon="-8.130411755155869"><ele>1083.0</ele><time>2026-04-27T10:45:19.001Z</time></trkpt><trkpt lat="31.080150800455318" lon="-8.130458598313579"><ele>1083.0</ele><time>2026-04-27T10:45:20.001Z</time></trkpt><trkpt lat="31.079930544022414" lon="-8.130500858143625"><ele>1083.0</ele><time>2026-04-27T10:45:21.001Z</time></trkpt><trkpt lat="31.079726232734046" lon="-8.13053054315058"><ele>1085.0</ele><time>2026-04-27T10:45:22.001Z</time></trkpt><trkpt lat="31.07953176221702" lon="-8.130550626987775"><ele>1087.0</ele><time>2026-04-27T10:45:23.001Z</time></trkpt><trkpt lat="31.079345455512783" lon="-8.13055745335951"><ele>1089.0</ele><time>2026-04-27T10:45:24.001Z</time></trkpt><trkpt lat="31.079132454444302" lon="-8.130547055608591"><ele>1085.5</ele><time>2026-04-27T10:45:25.001Z</time></trkpt><trkpt lat="31.078890586746063" lon="-8.130514707708695"><ele>1082.0</ele><time>2026-04-27T10:45:26.001Z</time></trkpt><trkpt lat="31.078642407220933" lon="-8.130470543702224"><ele>1082.0</ele><time>2026-04-27T10:45:27.001Z</time></trkpt><trkpt lat="31.078418761898032" lon="-8.130435794977073"><ele>1082.0</ele><time>2026-04-27T10:45:28.001Z</time></trkpt><trkpt lat="31.078224447175824" lon="-8.130410604603483"><ele>1082.0</ele><time>2026-04-27T10:45:29.001Z</time></trkpt><trkpt lat="31.078041595916595" lon="-8.13039324293372"><ele>1081.0</ele><time>2026-04-27T10:45:30.001Z</time></trkpt><trkpt lat="31.077881566048355" lon="-8.130393369181478"><ele>1080.0</ele><time>2026-04-27T10:45:31.001Z</time></trkpt><trkpt lat="31.077737135555765" lon="-8.130406787944835"><ele>1079.0</ele><time>2026-04-27T10:45:32.001Z</time></trkpt><trkpt lat="31.077607220799038" lon="-8.130437728974337"><ele>1078.0</ele><time>2026-04-27T10:45:33.001Z</time></trkpt><trkpt lat="31.077464930409604" lon="-8.130500027379837"><ele>1082.6666666666665</ele><time>2026-04-27T10:45:34.001Z</time></trkpt><trkpt lat="31.07730538873214" lon="-8.130587525941722"><ele>1087.3333333333333</ele><time>2026-04-27T10:45:35.001Z</time></trkpt><trkpt lat="31.077125603654338" lon="-8.13067911293104"><ele>1092.0</ele><time>2026-04-27T10:45:36.001Z</time></trkpt><trkpt lat="31.0769369905521" lon="-8.130754447469233"><ele>1079.3333333333333</ele><time>2026-04-27T10:45:37.001Z</time></trkpt><trkpt lat="31.07676165574437" lon="-8.130812497478864"><ele>1066.6666666666665</ele><time>2026-04-27T10:45:38.001Z</time></trkpt><trkpt lat="31.076598281116617" lon="-8.13086175699685"><ele>1054.0</ele><time>2026-04-27T10:45:39.001Z</time></trkpt><trkpt lat="31.076452952724843" lon="-8.130905059391429"><ele>1054.0</ele><time>2026-04-27T10:45:40.001Z</time></trkpt><trkpt lat="31.07633168539026" lon="-8.130949543099046"><ele>1054.0</ele><time>2026-04-27T10:45:41.001Z</time></trkpt><trkpt lat="31.076224394953343" lon="-8.13099951026098"><ele>1054.0</ele><time>2026-04-27T10:45:42.001Z</time></trkpt><trkpt lat="31.076122035359898" lon="-8.131066392057264"><ele>1054.0</ele><time>2026-04-27T10:45:43.001Z</time></trkpt><trkpt lat="31.07602477446014" lon="-8.131151885306581"><ele>1054.0</ele><time>2026-04-27T10:45:44.001Z</time></trkpt><trkpt lat="31.075924364339773" lon="-8.131259767726005"><ele>1054.0</ele><time>2026-04-27T10:45:45.001Z</time></trkpt><trkpt lat="31.075816796267297" lon="-8.13135649791818"><ele>1054.0</ele><time>2026-04-27T10:45:46.001Z</time></trkpt><trkpt lat="31.075694698780755" lon="-8.131426229395261"><ele>1054.0</ele><time>2026-04-27T10:45:47.001Z</time></trkpt><trkpt lat="31.07554261020144" lon="-8.131495900933492"><ele>1050.0</ele><time>2026-04-27T10:45:48.001Z</time></trkpt><trkpt lat="31.075389444038677" lon="-8.131576344423806"><ele>1046.0</ele><time>2026-04-27T10:45:49.001Z</time></trkpt><trkpt lat="31.075230068932417" lon="-8.131677477288974"><ele>1042.0</ele><time>2026-04-27T10:45:50.001Z</time></trkpt><trkpt lat="31.0750665352412" lon="-8.131795395721763"><ele>1053.5</ele><time>2026-04-27T10:45:51.001Z</time></trkpt><trkpt lat="31.074928999098027" lon="-8.131897804615901"><ele>1065.0</ele><time>2026-04-27T10:45:52.001Z</time></trkpt><trkpt lat="31.07481723750327" lon="-8.131982989198253"><ele>1076.5</ele><time>2026-04-27T10:45:53.001Z</time></trkpt><trkpt lat="31.074713542594097" lon="-8.132070898292122"><ele>1088.0</ele><time>2026-04-27T10:45:54.001Z</time></trkpt><trkpt lat="31.07461806567008" lon="-8.132179413027727"><ele>1088.0</ele><time>2026-04-27T10:45:55.001Z</time></trkpt><trkpt lat="31.074525265428374" lon="-8.13231809453554"><ele>1088.0</ele><time>2026-04-27T10:45:56.001Z</time></trkpt><trkpt lat="31.074439193465047" lon="-8.132472907488646"><ele>1088.0</ele><time>2026-04-27T10:45:57.001Z</time></trkpt><trkpt lat="31.074368930158325" lon="-8.132637938001036"><ele>1077.0</ele><time>2026-04-27T10:45:58.001Z</time></trkpt><trkpt lat="31.07431596014726" lon="-8.132824250639553"><ele>1066.0</ele><time>2026-04-27T10:45:59.001Z</time></trkpt><trkpt lat="31.074263632181037" lon="-8.133045252521747"><ele>1055.0</ele><time>2026-04-27T10:46:00Z</time></trkpt><trkpt lat="31.074196078842576" lon="-8.133306015065758"><ele>1048.5</ele><time>2026-04-27T10:46:01Z</time></trkpt><trkpt lat="31.07412561432891" lon="-8.133579797308789"><ele>1042.0</ele><time>2026-04-27T10:46:02Z</time></trkpt><trkpt lat="31.07404342053196" lon="-8.13387944186045"><ele>1059.0</ele><time>2026-04-27T10:46:03Z</time></trkpt><trkpt lat="31.073962633605454" lon="-8.134180289673136"><ele>1076.0</ele><time>2026-04-27T10:46:04Z</time></trkpt><trkpt lat="31.073896012546136" lon="-8.134427525032107"><ele>1076.0</ele><time>2026-04-27T10:46:05Z</time></trkpt><trkpt lat="31.073833435216326" lon="-8.134653078190741"><ele>1076.0</ele><time>2026-04-27T10:46:06Z</time></trkpt><trkpt lat="31.073768216405966" lon="-8.134868293836547"><ele>1076.0</ele><time>2026-04-27T10:46:07Z</time></trkpt><trkpt lat="31.073699018032787" lon="-8.135079389635033"><ele>1067.6666666666667</ele><time>2026-04-27T10:46:08Z</time></trkpt><trkpt lat="31.073622418075317" lon="-8.1352895687128"><ele>1059.3333333333333</ele><time>2026-04-27T10:46:09Z</time></trkpt><trkpt lat="31.073529638451774" lon="-8.135513918073956"><ele>1051.0</ele><time>2026-04-27T10:46:10Z</time></trkpt><trkpt lat="31.07341896227227" lon="-8.135738068168822"><ele>1048.6666666666665</ele><time>2026-04-27T10:46:11Z</time></trkpt><trkpt lat="31.073303212970185" lon="-8.13595781866076"><ele>1046.3333333333333</ele><time>2026-04-27T10:46:12Z</time></trkpt><trkpt lat="31.07318677354146" lon="-8.136174724246873"><ele>1044.0</ele><time>2026-04-27T10:46:13Z</time></trkpt><trkpt lat="31.073066722062997" lon="-8.136381728320128"><ele>1048.3333333333333</ele><time>2026-04-27T10:46:14Z</time></trkpt><trkpt lat="31.072946884729262" lon="-8.136569114950328"><ele>1052.6666666666665</ele><time>2026-04-27T10:46:15Z</time></trkpt><trkpt lat="31.07281346388243" lon="-8.136748104854794"><ele>1057.0</ele><time>2026-04-27T10:46:16Z</time></trkpt><trkpt lat="31.07264689643931" lon="-8.136926047109032"><ele>1072.0</ele><time>2026-04-27T10:46:17Z</time></trkpt><trkpt lat="31.072435040794684" lon="-8.137110877136246"><ele>1087.0</ele><time>2026-04-27T10:46:18Z</time></trkpt><trkpt lat="31.07221915101364" lon="-8.13728349852762"><ele>1075.0</ele><time>2026-04-27T10:46:19Z</time></trkpt><trkpt lat="31.07203531198424" lon="-8.137423777057899"><ele>1063.0</ele><time>2026-04-27T10:46:20Z</time></trkpt><trkpt lat="31.07187432202114" lon="-8.13754367198771"><ele>1051.0</ele><time>2026-04-27T10:46:21Z</time></trkpt><trkpt lat="31.071730586590633" lon="-8.13763506559342"><ele>1053.3333333333333</ele><time>2026-04-27T10:46:22Z</time></trkpt><trkpt lat="31.071578356424492" lon="-8.137700842972183"><ele>1055.6666666666667</ele><time>2026-04-27T10:46:23Z</time></trkpt><trkpt lat="31.071395661774798" lon="-8.137753306286234"><ele>1058.0</ele><time>2026-04-27T10:46:24Z</time></trkpt><trkpt lat="31.071215173019848" lon="-8.13779985207826"><ele>1058.0</ele><time>2026-04-27T10:46:25Z</time></trkpt><trkpt lat="31.07105915666963" lon="-8.137830933585011"><ele>1058.0</ele><time>2026-04-27T10:46:26Z</time></trkpt><trkpt lat="31.070916017659403" lon="-8.137844017921148"><ele>1058.0</ele><time>2026-04-27T10:46:27Z</time></trkpt><trkpt lat="31.07076189591281" lon="-8.137826342539132"><ele>1053.0</ele><time>2026-04-27T10:46:28Z</time></trkpt><trkpt lat="31.070598555910557" lon="-8.137774676912194"><ele>1048.0</ele><time>2026-04-27T10:46:29Z</time></trkpt><trkpt lat="31.070450591487567" lon="-8.137691258242834"><ele>1043.0</ele><time>2026-04-27T10:46:30Z</time></trkpt><trkpt lat="31.07032906781155" lon="-8.137577780771046"><ele>1043.0</ele><time>2026-04-27T10:46:31Z</time></trkpt><trkpt lat="31.070242697703634" lon="-8.13745274576241"><ele>1043.0</ele><time>2026-04-27T10:46:32Z</time></trkpt><trkpt lat="31.07016608948917" lon="-8.1373332298279"><ele>1043.0</ele><time>2026-04-27T10:46:33Z</time></trkpt><trkpt lat="31.070088093639733" lon="-8.137216144981613"><ele>1043.0</ele><time>2026-04-27T10:46:34Z</time></trkpt><trkpt lat="31.07003474167664" lon="-8.137099927216074"><ele>1045.5</ele><time>2026-04-27T10:46:35Z</time></trkpt><trkpt lat="31.069997690585616" lon="-8.13696911929127"><ele>1048.0</ele><time>2026-04-27T10:46:36Z</time></trkpt><trkpt lat="31.069970907428836" lon="-8.136816950628319"><ele>1050.5</ele><time>2026-04-27T10:46:37Z</time></trkpt><trkpt lat="31.069961384117256" lon="-8.136655811382695"><ele>1053.0</ele><time>2026-04-27T10:46:38Z</time></trkpt><trkpt lat="31.06995491855628" lon="-8.136463734415589"><ele>1051.0</ele><time>2026-04-27T10:46:39Z</time></trkpt><trkpt lat="31.06992859846569" lon="-8.136272486948126"><ele>1049.0</ele><time>2026-04-27T10:46:40Z</time></trkpt><trkpt lat="31.06993916488375" lon="-8.136090778103329"><ele>1047.0</ele><time>2026-04-27T10:46:41Z</time></trkpt><trkpt lat="31.069926393815315" lon="-8.13589735624127"><ele>1047.0</ele><time>2026-04-27T10:46:42Z</time></trkpt><trkpt lat="31.069898782338832" lon="-8.135703731541746"><ele>1047.0</ele><time>2026-04-27T10:46:43Z</time></trkpt><trkpt lat="31.06985676224625" lon="-8.135505633429574"><ele>1047.0</ele><time>2026-04-27T10:46:44Z</time></trkpt><trkpt lat="31.06980601091563" lon="-8.13531173120344"><ele>1047.0</ele><time>2026-04-27T10:46:45Z</time></trkpt><trkpt lat="31.06974925586361" lon="-8.135106396570112"><ele>1047.0</ele><time>2026-04-27T10:46:46Z</time></trkpt><trkpt lat="31.069694889180433" lon="-8.134922680383513"><ele>1047.0</ele><time>2026-04-27T10:46:47Z</time></trkpt><trkpt lat="31.069628329836707" lon="-8.13475377544462"><ele>1049.6666666666667</ele><time>2026-04-27T10:46:48Z</time></trkpt><trkpt lat="31.069539639881704" lon="-8.134578090550766"><ele>1052.3333333333335</ele><time>2026-04-27T10:46:49Z</time></trkpt><trkpt lat="31.069447989596043" lon="-8.134403347319148"><ele>1055.0</ele><time>2026-04-27T10:46:50Z</time></trkpt><trkpt lat="31.06936294916881" lon="-8.134248393080155"><ele>1055.0</ele><time>2026-04-27T10:46:51Z</time></trkpt><trkpt lat="31.069268992589198" lon="-8.134102934567936"><ele>1055.0</ele><time>2026-04-27T10:46:52Z</time></trkpt><trkpt lat="31.069162950348773" lon="-8.133957198977473"><ele>1055.0</ele><time>2026-04-27T10:46:53Z</time></trkpt><trkpt lat="31.069052825168754" lon="-8.13381128984701"><ele>1053.6666666666667</ele><time>2026-04-27T10:46:54Z</time></trkpt><trkpt lat="31.068934192602836" lon="-8.133673023666303"><ele>1052.3333333333333</ele><time>2026-04-27T10:46:55Z</time></trkpt><trkpt lat="31.068805442935663" lon="-8.133519073237435"><ele>1051.0</ele><time>2026-04-27T10:46:56Z</time></trkpt><trkpt lat="31.068676633387376" lon="-8.133372582053333"><ele>1051.0</ele><time>2026-04-27T10:46:57Z</time></trkpt><trkpt lat="31.06853724989515" lon="-8.13323273703106"><ele>1051.0</ele><time>2026-04-27T10:46:58Z</time></trkpt><trkpt lat="31.068396152976945" lon="-8.133103709996314"><ele>1051.0</ele><time>2026-04-27T10:46:59Z</time></trkpt><trkpt lat="31.06824589816101" lon="-8.132988234857025"><ele>1054.6666666666665</ele><time>2026-04-27T10:47:00Z</time></trkpt><trkpt lat="31.068085882855307" lon="-8.132875818308113"><ele>1058.3333333333333</ele><time>2026-04-27T10:47:01Z</time></trkpt><trkpt lat="31.067909477180116" lon="-8.13277548337801"><ele>1062.0</ele><time>2026-04-27T10:47:02Z</time></trkpt><trkpt lat="31.067729910057558" lon="-8.132681719730446"><ele>1062.0</ele><time>2026-04-27T10:47:03Z</time></trkpt><trkpt lat="31.06754981034695" lon="-8.132595702042927"><ele>1062.0</ele><time>2026-04-27T10:47:04Z</time></trkpt><trkpt lat="31.06735989811507" lon="-8.132502302422463"><ele>1062.0</ele><time>2026-04-27T10:47:05Z</time></trkpt><trkpt lat="31.0671648363058" lon="-8.132417048073147"><ele>1073.6666666666667</ele><time>2026-04-27T10:47:06Z</time></trkpt><trkpt lat="31.06695497062846" lon="-8.132351147988862"><ele>1085.3333333333335</ele><time>2026-04-27T10:47:07Z</time></trkpt><trkpt lat="31.06673977471904" lon="-8.132313066146372"><ele>1097.0</ele><time>2026-04-27T10:47:08Z</time></trkpt><trkpt lat="31.066518064599265" lon="-8.132302017528751"><ele>1102.5</ele><time>2026-04-27T10:47:09Z</time></trkpt><trkpt lat="31.066283404487493" lon="-8.132311475924089"><ele>1108.0</ele><time>2026-04-27T10:47:10Z</time></trkpt><trkpt lat="31.066050575607054" lon="-8.132339960607052"><ele>1108.0</ele><time>2026-04-27T10:47:11Z</time></trkpt><trkpt lat="31.06578783428284" lon="-8.132382184652055"><ele>1108.0</ele><time>2026-04-27T10:47:12Z</time></trkpt><trkpt lat="31.065548901415905" lon="-8.132436056447954"><ele>1089.0</ele><time>2026-04-27T10:47:13Z</time></trkpt><trkpt lat="31.06532519842933" lon="-8.132505404792454"><ele>1070.0</ele><time>2026-04-27T10:47:14Z</time></trkpt><trkpt lat="31.065104696829582" lon="-8.132596951167116"><ele>1081.6666666666667</ele><time>2026-04-27T10:47:15Z</time></trkpt><trkpt lat="31.06490597295767" lon="-8.13270558899742"><ele>1093.3333333333333</ele><time>2026-04-27T10:47:16Z</time></trkpt><trkpt lat="31.064727097903774" lon="-8.132812620988808"><ele>1105.0</ele><time>2026-04-27T10:47:17Z</time></trkpt><trkpt lat="31.064567224314732" lon="-8.132915875249093"><ele>1105.0</ele><time>2026-04-27T10:47:18Z</time></trkpt><trkpt lat="31.0644231213499" lon="-8.133014140523565"><ele>1105.0</ele><time>2026-04-27T10:47:19Z</time></trkpt><trkpt lat="31.064298833022274" lon="-8.13311441795657"><ele>1105.0</ele><time>2026-04-27T10:47:20Z</time></trkpt><trkpt lat="31.06419193113038" lon="-8.133233033486286"><ele>1106.6666666666665</ele><time>2026-04-27T10:47:21Z</time></trkpt><trkpt lat="31.064087239481772" lon="-8.13339608442018"><ele>1108.3333333333333</ele><time>2026-04-27T10:47:22Z</time></trkpt><trkpt lat="31.063989714356772" lon="-8.133607260293166"><ele>1110.0</ele><time>2026-04-27T10:47:23Z</time></trkpt><trkpt lat="31.063910932925527" lon="-8.1338451893879"><ele>1101.0</ele><time>2026-04-27T10:47:24Z</time></trkpt><trkpt lat="31.06384710030178" lon="-8.134103890152012"><ele>1092.0</ele><time>2026-04-27T10:47:25Z</time></trkpt><trkpt lat="31.0637894542244" lon="-8.134377251386251"><ele>1092.0</ele><time>2026-04-27T10:47:26.001Z</time></trkpt><trkpt lat="31.063731784945524" lon="-8.13469062046695"><ele>1092.0</ele><time>2026-04-27T10:47:27.001Z</time></trkpt><trkpt lat="31.063676536452913" lon="-8.135030128873554"><ele>1093.0</ele><time>2026-04-27T10:47:28.001Z</time></trkpt><trkpt lat="31.063633597598848" lon="-8.135353628348431"><ele>1094.0</ele><time>2026-04-27T10:47:29.001Z</time></trkpt><trkpt lat="31.0636068373644" lon="-8.135632812114203"><ele>1090.6666666666667</ele><time>2026-04-27T10:47:30.001Z</time></trkpt><trkpt lat="31.063582355182024" lon="-8.135894848039959"><ele>1087.3333333333333</ele><time>2026-04-27T10:47:31.001Z</time></trkpt><trkpt lat="31.063562815883987" lon="-8.136139626815327"><ele>1084.0</ele><time>2026-04-27T10:47:32.001Z</time></trkpt><trkpt lat="31.063549912670638" lon="-8.136378323808998"><ele>1082.6666666666665</ele><time>2026-04-27T10:47:33.001Z</time></trkpt><trkpt lat="31.063531058668342" lon="-8.136590318330587"><ele>1081.3333333333333</ele><time>2026-04-27T10:47:34.001Z</time></trkpt><trkpt lat="31.063504445634393" lon="-8.136779278955855"><ele>1080.0</ele><time>2026-04-27T10:47:35.001Z</time></trkpt><trkpt lat="31.063465845339095" lon="-8.13695965570962"><ele>1080.0</ele><time>2026-04-27T10:47:36.001Z</time></trkpt><trkpt lat="31.06340528464185" lon="-8.137144010782642"><ele>1080.0</ele><time>2026-04-27T10:47:37.001Z</time></trkpt><trkpt lat="31.06331043221356" lon="-8.137330923475915"><ele>1080.0</ele><time>2026-04-27T10:47:38.001Z</time></trkpt><trkpt lat="31.06319410142481" lon="-8.137517044693215"><ele>1090.0</ele><time>2026-04-27T10:47:39.001Z</time></trkpt><trkpt lat="31.06304763003281" lon="-8.13770815123724"><ele>1100.0</ele><time>2026-04-27T10:47:40.001Z</time></trkpt><trkpt lat="31.06290165173979" lon="-8.137892814780166"><ele>1110.0</ele><time>2026-04-27T10:47:41.001Z</time></trkpt><trkpt lat="31.062778005790868" lon="-8.138056359158782"><ele>1110.0</ele><time>2026-04-27T10:47:42.001Z</time></trkpt><trkpt lat="31.06266832874159" lon="-8.13819650292613"><ele>1110.0</ele><time>2026-04-27T10:47:43.001Z</time></trkpt><trkpt lat="31.062560195046043" lon="-8.138317911465142"><ele>1110.0</ele><time>2026-04-27T10:47:44.001Z</time></trkpt><trkpt lat="31.062450934497022" lon="-8.138417839009955"><ele>1105.75</ele><time>2026-04-27T10:47:45.001Z</time></trkpt><trkpt lat="31.06234457109201" lon="-8.138494451938612"><ele>1101.5</ele><time>2026-04-27T10:47:46.001Z</time></trkpt><trkpt lat="31.06223196919873" lon="-8.13854459462282"><ele>1097.25</ele><time>2026-04-27T10:47:47.001Z</time></trkpt><trkpt lat="31.062112552085047" lon="-8.138571609868865"><ele>1093.0</ele><time>2026-04-27T10:47:48.001Z</time></trkpt><trkpt lat="31.061983814735562" lon="-8.13856545826816"><ele>1093.0</ele><time>2026-04-27T10:47:49.001Z</time></trkpt><trkpt lat="31.06184160963933" lon="-8.13852561136945"><ele>1093.0</ele><time>2026-04-27T10:47:50.001Z</time></trkpt><trkpt lat="31.06167486373404" lon="-8.138448555417225"><ele>1093.0</ele><time>2026-04-27T10:47:51Z</time></trkpt><trkpt lat="31.061492265332365" lon="-8.13834562396855"><ele>1090.6666666666665</ele><time>2026-04-27T10:47:52Z</time></trkpt><trkpt lat="31.06131788147739" lon="-8.138237440406934"><ele>1088.3333333333333</ele><time>2026-04-27T10:47:53Z</time></trkpt><trkpt lat="31.061142162346073" lon="-8.1381513585522"><ele>1086.0</ele><time>2026-04-27T10:47:54Z</time></trkpt><trkpt lat="31.06096987110787" lon="-8.138084660293664"><ele>1097.0</ele><time>2026-04-27T10:47:55Z</time></trkpt><trkpt lat="31.060813387230652" lon="-8.138030231973598"><ele>1108.0</ele><time>2026-04-27T10:47:56Z</time></trkpt><trkpt lat="31.060677405522085" lon="-8.137982260993802"><ele>1119.0</ele><time>2026-04-27T10:47:57Z</time></trkpt><trkpt lat="31.06055215566432" lon="-8.137935982950014"><ele>1130.0</ele><time>2026-04-27T10:47:58Z</time></trkpt><trkpt lat="31.060429409344696" lon="-8.137898414846838"><ele>1130.0</ele><time>2026-04-27T10:47:59Z</time></trkpt><trkpt lat="31.060297104527464" lon="-8.137875159113719"><ele>1130.0</ele><time>2026-04-27T10:48:00Z</time></trkpt><trkpt lat="31.06014400962379" lon="-8.137867594907895"><ele>1130.0</ele><time>2026-04-27T10:48:01Z</time></trkpt><trkpt lat="31.05997206991999" lon="-8.137873404851593"><ele>1132.3333333333335</ele><time>2026-04-27T10:48:02Z</time></trkpt><trkpt lat="31.059793090288018" lon="-8.137878555537048"><ele>1134.6666666666667</ele><time>2026-04-27T10:48:03Z</time></trkpt><trkpt lat="31.059615057914645" lon="-8.137888182519468"><ele>1137.0</ele><time>2026-04-27T10:48:04Z</time></trkpt><trkpt lat="31.05944988240965" lon="-8.137899502237717"><ele>1137.0</ele><time>2026-04-27T10:48:05Z</time></trkpt><trkpt lat="31.05929061391775" lon="-8.137918163990738"><ele>1137.0</ele><time>2026-04-27T10:48:06Z</time></trkpt><trkpt lat="31.059126392787682" lon="-8.137946914502571"><ele>1137.0</ele><time>2026-04-27T10:48:07Z</time></trkpt><trkpt lat="31.05896434698072" lon="-8.137989476563536"><ele>1140.3333333333333</ele><time>2026-04-27T10:48:08Z</time></trkpt><trkpt lat="31.058797937241863" lon="-8.138026512549237"><ele>1143.6666666666665</ele><time>2026-04-27T10:48:09Z</time></trkpt><trkpt lat="31.05861819067948" lon="-8.138068889272791"><ele>1147.0</ele><time>2026-04-27T10:48:10Z</time></trkpt><trkpt lat="31.058457371348837" lon="-8.138104724104416"><ele>1147.0</ele><time>2026-04-27T10:48:11Z</time></trkpt><trkpt lat="31.058298639437538" lon="-8.138141583554198"><ele>1147.0</ele><time>2026-04-27T10:48:12Z</time></trkpt><trkpt lat="31.058132580548538" lon="-8.1381776384801"><ele>1147.0</ele><time>2026-04-27T10:48:13Z</time></trkpt><trkpt lat="31.05796961155598" lon="-8.138216503620471"><ele>1137.0</ele><time>2026-04-27T10:48:14Z</time></trkpt><trkpt lat="31.05782116437592" lon="-8.138249920494818"><ele>1127.0</ele><time>2026-04-27T10:48:15Z</time></trkpt><trkpt lat="31.05769526487694" lon="-8.138275460542502"><ele>1117.0</ele><time>2026-04-27T10:48:16Z</time></trkpt><trkpt lat="31.057588705356014" lon="-8.138293100223303"><ele>1107.0</ele><time>2026-04-27T10:48:17Z</time></trkpt><trkpt lat="31.05748849779826" lon="-8.138307813917764"><ele>1108.2</ele><time>2026-04-27T10:48:18Z</time></trkpt><trkpt lat="31.057389187591657" lon="-8.13830305237676"><ele>1109.4</ele><time>2026-04-27T10:48:19Z</time></trkpt><trkpt lat="31.057287382555426" lon="-8.138279213013208"><ele>1110.6</ele><time>2026-04-27T10:48:20Z</time></trkpt><trkpt lat="31.057183106960387" lon="-8.138238323145485"><ele>1111.8</ele><time>2026-04-27T10:48:21Z</time></trkpt><trkpt lat="31.057090106299153" lon="-8.138172152552942"><ele>1113.0</ele><time>2026-04-27T10:48:22Z</time></trkpt><trkpt lat="31.057008249208593" lon="-8.13808310832124"><ele>1113.8</ele><time>2026-04-27T10:48:23Z</time></trkpt><trkpt lat="31.056938960305054" lon="-8.13797576203852"><ele>1114.6</ele><time>2026-04-27T10:48:24Z</time></trkpt><trkpt lat="31.056894546909785" lon="-8.13787517573767"><ele>1115.4</ele><time>2026-04-27T10:48:25Z</time></trkpt><trkpt lat="31.056854625298307" lon="-8.137774825525248"><ele>1116.2</ele><time>2026-04-27T10:48:26Z</time></trkpt><trkpt lat="31.056823339141314" lon="-8.137671991416886"><ele>1117.0</ele><time>2026-04-27T10:48:27Z</time></trkpt><trkpt lat="31.0568078983438" lon="-8.137562444491634"><ele>1117.0</ele><time>2026-04-27T10:48:28Z</time></trkpt><trkpt lat="31.056809486481676" lon="-8.13743942682278"><ele>1117.0</ele><time>2026-04-27T10:48:29Z</time></trkpt><trkpt lat="31.05683209176635" lon="-8.137314443905899"><ele>1117.0</ele><time>2026-04-27T10:48:30Z</time></trkpt><trkpt lat="31.056870920749738" lon="-8.1371834383803"><ele>1117.0</ele><time>2026-04-27T10:48:31Z</time></trkpt><trkpt lat="31.056924701889205" lon="-8.137070937481605"><ele>1117.0</ele><time>2026-04-27T10:48:32Z</time></trkpt><trkpt lat="31.056978735020067" lon="-8.136967272159364"><ele>1113.5</ele><time>2026-04-27T10:48:33Z</time></trkpt><trkpt lat="31.05701418792789" lon="-8.136878952906256"><ele>1110.0</ele><time>2026-04-27T10:48:34Z</time></trkpt><trkpt lat="31.057038288973278" lon="-8.136805962125344"><ele>1106.5</ele><time>2026-04-27T10:48:35Z</time></trkpt><trkpt lat="31.057091436229612" lon="-8.136692840141487"><ele>1103.0</ele><time>2026-04-27T10:48:37Z</time></trkpt><trkpt lat="31.05711865076768" lon="-8.136624426720108"><ele>1099.5</ele><time>2026-04-27T10:48:38Z</time></trkpt><trkpt lat="31.057160725607513" lon="-8.136493346291745"><ele>1096.0</ele><time>2026-04-27T10:48:40Z</time></trkpt><trkpt lat="31.057180572938005" lon="-8.136405495476543"><ele>1096.0</ele><time>2026-04-27T10:48:42Z</time></trkpt><trkpt lat="31.057234704968973" lon="-8.1361998523347"><ele>1096.0</ele><time>2026-04-27T10:53:20.999Z</time></trkpt><trkpt lat="31.05724014210795" lon="-8.136122005496127"><ele>1096.0</ele><time>2026-04-27T10:53:21.999Z</time></trkpt><trkpt lat="31.057244884120273" lon="-8.136032999565252"><ele>1096.0</ele><time>2026-04-27T10:53:22.999Z</time></trkpt><trkpt lat="31.057247163644607" lon="-8.135945027606896"><ele>1096.0</ele><time>2026-04-27T10:53:23.999Z</time></trkpt><trkpt lat="31.057246454324403" lon="-8.135863686975643"><ele>1096.0</ele><time>2026-04-27T10:53:25Z</time></trkpt><trkpt lat="31.057255532924728" lon="-8.135783188413768"><ele>1096.0</ele><time>2026-04-27T10:53:26Z</time></trkpt><trkpt lat="31.057255363781437" lon="-8.135688590505952"><ele>1096.0</ele><time>2026-04-27T10:53:27Z</time></trkpt><trkpt lat="31.057144279404937" lon="-8.135571526159497"><ele>1096.0</ele><time>2026-04-27T10:53:28Z</time></trkpt><trkpt lat="31.05711462400845" lon="-8.13544313914824"><ele>1096.0</ele><time>2026-04-27T10:53:29Z</time></trkpt><trkpt lat="31.057067578359597" lon="-8.135300203492887"><ele>1095.25</ele><time>2026-04-27T10:53:30Z</time></trkpt><trkpt lat="31.056960007182244" lon="-8.13520411453989"><ele>1094.5</ele><time>2026-04-27T10:53:31Z</time></trkpt><trkpt lat="31.056848851268644" lon="-8.135116247478804"><ele>1093.75</ele><time>2026-04-27T10:53:32Z</time></trkpt><trkpt lat="31.056714911191005" lon="-8.135016968066564"><ele>1093.0</ele><time>2026-04-27T10:53:33Z</time></trkpt><trkpt lat="31.056586853392904" lon="-8.13490313356059"><ele>1104.6666666666665</ele><time>2026-04-27T10:53:34Z</time></trkpt><trkpt lat="31.05644513824311" lon="-8.13477715886085"><ele>1116.3333333333333</ele><time>2026-04-27T10:53:35Z</time></trkpt><trkpt lat="31.056298487153132" lon="-8.134653752925423"><ele>1128.0</ele><time>2026-04-27T10:53:36Z</time></trkpt><trkpt lat="31.056140136828876" lon="-8.13452176078164"><ele>1128.0</ele><time>2026-04-27T10:53:37Z</time></trkpt><trkpt lat="31.05596701082327" lon="-8.134390628819"><ele>1128.0</ele><time>2026-04-27T10:53:38Z</time></trkpt><trkpt lat="31.05578625626806" lon="-8.134254646411108"><ele>1128.0</ele><time>2026-04-27T10:53:39Z</time></trkpt><trkpt lat="31.055615240437362" lon="-8.134123064570048"><ele>1130.0</ele><time>2026-04-27T10:53:40Z</time></trkpt><trkpt lat="31.055456954104663" lon="-8.133999412379517"><ele>1132.0</ele><time>2026-04-27T10:53:41Z</time></trkpt><trkpt lat="31.05531003999099" lon="-8.133881796467461"><ele>1134.0</ele><time>2026-04-27T10:53:42Z</time></trkpt><trkpt lat="31.055158675224984" lon="-8.133780102084527"><ele>1134.0</ele><time>2026-04-27T10:53:43Z</time></trkpt><trkpt lat="31.054977329170327" lon="-8.133651515001452"><ele>1134.0</ele><time>2026-04-27T10:53:44Z</time></trkpt><trkpt lat="31.054818417076895" lon="-8.133515752840138"><ele>1134.0</ele><time>2026-04-27T10:53:45Z</time></trkpt><trkpt lat="31.054678406801244" lon="-8.133387352383613"><ele>1139.3333333333333</ele><time>2026-04-27T10:53:46Z</time></trkpt><trkpt lat="31.054541739516484" lon="-8.13327064859373"><ele>1144.6666666666665</ele><time>2026-04-27T10:53:47Z</time></trkpt><trkpt lat="31.05441642177723" lon="-8.133164628459724"><ele>1150.0</ele><time>2026-04-27T10:53:48Z</time></trkpt><trkpt lat="31.054263967066365" lon="-8.133085053474288"><ele>1146.3333333333333</ele><time>2026-04-27T10:53:49Z</time></trkpt><trkpt lat="31.05410691101262" lon="-8.133002996192529"><ele>1142.6666666666667</ele><time>2026-04-27T10:53:50Z</time></trkpt><trkpt lat="31.05392592832828" lon="-8.132973438997231"><ele>1139.0</ele><time>2026-04-27T10:53:51Z</time></trkpt><trkpt lat="31.053752573323834" lon="-8.132928297862328"><ele>1139.0</ele><time>2026-04-27T10:53:52Z</time></trkpt><trkpt lat="31.0535811406542" lon="-8.132919251570543"><ele>1139.0</ele><time>2026-04-27T10:53:53Z</time></trkpt><trkpt lat="31.053421969046628" lon="-8.132918679016006"><ele>1139.0</ele><time>2026-04-27T10:53:54Z</time></trkpt><trkpt lat="31.05327876252201" lon="-8.13291970735227"><ele>1140.3333333333335</ele><time>2026-04-27T10:53:55Z</time></trkpt><trkpt lat="31.053147359756235" lon="-8.132943934291879"><ele>1141.6666666666667</ele><time>2026-04-27T10:53:56Z</time></trkpt><trkpt lat="31.052998531027697" lon="-8.132985430073312"><ele>1143.0</ele><time>2026-04-27T10:53:57Z</time></trkpt><trkpt lat="31.052833098804424" lon="-8.133023366231082"><ele>1143.0</ele><time>2026-04-27T10:53:58Z</time></trkpt><trkpt lat="31.05268611287933" lon="-8.133132370164333"><ele>1143.0</ele><time>2026-04-27T10:53:59Z</time></trkpt><trkpt lat="31.052538356888945" lon="-8.13321693133708"><ele>1143.0</ele><time>2026-04-27T10:54:00Z</time></trkpt><trkpt lat="31.052426968366788" lon="-8.133421815460924"><ele>1142.5</ele><time>2026-04-27T10:54:01Z</time></trkpt><trkpt lat="31.052319427769877" lon="-8.133559684755687"><ele>1142.0</ele><time>2026-04-27T10:54:02Z</time></trkpt><trkpt lat="31.052214156541563" lon="-8.133678107396861"><ele>1141.5</ele><time>2026-04-27T10:54:03Z</time></trkpt><trkpt lat="31.052106765823407" lon="-8.133772254188681"><ele>1141.0</ele><time>2026-04-27T10:54:04Z</time></trkpt><trkpt lat="31.05199603810269" lon="-8.133833305926554"><ele>1141.0</ele><time>2026-04-27T10:54:05Z</time></trkpt><trkpt lat="31.051883045019967" lon="-8.133864698987018"><ele>1141.0</ele><time>2026-04-27T10:54:06Z</time></trkpt><trkpt lat="31.05175587996401" lon="-8.133864900062772"><ele>1141.0</ele><time>2026-04-27T10:54:07Z</time></trkpt><trkpt lat="31.05161049095347" lon="-8.133847200993946"><ele>1141.0</ele><time>2026-04-27T10:54:08Z</time></trkpt><trkpt lat="31.051438218989276" lon="-8.133795166020066"><ele>1142.0</ele><time>2026-04-27T10:54:08.996Z</time></trkpt><trkpt lat="31.051256297214444" lon="-8.133709540928853"><ele>1143.0</ele><time>2026-04-27T10:54:09.996Z</time></trkpt><trkpt lat="31.05107595919208" lon="-8.133635245025312"><ele>1144.0</ele><time>2026-04-27T10:54:10.996Z</time></trkpt><trkpt lat="31.05091238680096" lon="-8.13356970464424"><ele>1138.0</ele><time>2026-04-27T10:54:11.996Z</time></trkpt><trkpt lat="31.050760974464218" lon="-8.133515934733392"><ele>1132.0</ele><time>2026-04-27T10:54:12.996Z</time></trkpt><trkpt lat="31.0506112066309" lon="-8.133466087852032"><ele>1126.0</ele><time>2026-04-27T10:54:13.996Z</time></trkpt><trkpt lat="31.05047087917245" lon="-8.133417367006373"><ele>1126.0</ele><time>2026-04-27T10:54:14.997Z</time></trkpt><trkpt lat="31.050339768815693" lon="-8.133369917952043"><ele>1126.0</ele><time>2026-04-27T10:54:15.997Z</time></trkpt><trkpt lat="31.05021511400112" lon="-8.133331339614099"><ele>1126.0</ele><time>2026-04-27T10:54:16.997Z</time></trkpt><trkpt lat="31.050092818157008" lon="-8.133301162705"><ele>1126.0</ele><time>2026-04-27T10:54:17.997Z</time></trkpt><trkpt lat="31.049967208775623" lon="-8.133283548486611"><ele>1123.0</ele><time>2026-04-27T10:54:18.997Z</time></trkpt><trkpt lat="31.04983680379097" lon="-8.133272683631168"><ele>1120.0</ele><time>2026-04-27T10:54:19.997Z</time></trkpt><trkpt lat="31.049705529409305" lon="-8.133264435961772"><ele>1117.0</ele><time>2026-04-27T10:54:20.997Z</time></trkpt><trkpt lat="31.04958011294109" lon="-8.133245066950979"><ele>1114.0</ele><time>2026-04-27T10:54:21.997Z</time></trkpt><trkpt lat="31.049458384212382" lon="-8.133222320242472"><ele>1127.0</ele><time>2026-04-27T10:54:22.997Z</time></trkpt><trkpt lat="31.049333946707442" lon="-8.133204389608526"><ele>1140.0</ele><time>2026-04-27T10:54:23.997Z</time></trkpt><trkpt lat="31.049214263294157" lon="-8.133193554507551"><ele>1153.0</ele><time>2026-04-27T10:54:24.997Z</time></trkpt><trkpt lat="31.049094196344107" lon="-8.13319021867251"><ele>1166.0</ele><time>2026-04-27T10:54:25.998Z</time></trkpt><trkpt lat="31.04897377171428" lon="-8.133196335420877"><ele>1167.8333333333335</ele><time>2026-04-27T10:54:26.998Z</time></trkpt><trkpt lat="31.048861425314715" lon="-8.133213177596165"><ele>1169.6666666666667</ele><time>2026-04-27T10:54:27.998Z</time></trkpt><trkpt lat="31.04876815710293" lon="-8.133242813554489"><ele>1171.5</ele><time>2026-04-27T10:54:28.998Z</time></trkpt><trkpt lat="31.04869067518203" lon="-8.13327743408259"><ele>1173.3333333333333</ele><time>2026-04-27T10:54:29.998Z</time></trkpt><trkpt lat="31.048618938719756" lon="-8.133307397503655"><ele>1175.1666666666665</ele><time>2026-04-27T10:54:30.998Z</time></trkpt><trkpt lat="31.04856073108304" lon="-8.133337007189168"><ele>1177.0</ele><time>2026-04-27T10:54:31.998Z</time></trkpt><trkpt lat="31.04850150701278" lon="-8.133386307758958"><ele>1177.5</ele><time>2026-04-27T10:54:32.998Z</time></trkpt><trkpt lat="31.048435769058216" lon="-8.133467563610086"><ele>1178.0</ele><time>2026-04-27T10:54:33.998Z</time></trkpt><trkpt lat="31.04836495881132" lon="-8.133591869940432"><ele>1178.5</ele><time>2026-04-27T10:54:34.998Z</time></trkpt><trkpt lat="31.048305448609337" lon="-8.133730709462554"><ele>1179.0</ele><time>2026-04-27T10:54:35.998Z</time></trkpt><trkpt lat="31.04824052654973" lon="-8.133908685922547"><ele>1169.0</ele><time>2026-04-27T10:54:36.998Z</time></trkpt><trkpt lat="31.048171902125148" lon="-8.134086885411588"><ele>1159.0</ele><time>2026-04-27T10:54:37.998Z</time></trkpt><trkpt lat="31.048105801469795" lon="-8.134250733913712"><ele>1149.0</ele><time>2026-04-27T10:54:38.998Z</time></trkpt><trkpt lat="31.048029911716814" lon="-8.134402547985452"><ele>1149.0</ele><time>2026-04-27T10:54:39.998Z</time></trkpt><trkpt lat="31.047936233088365" lon="-8.134548463854912"><ele>1149.0</ele><time>2026-04-27T10:54:40.999Z</time></trkpt><trkpt lat="31.047823870636794" lon="-8.134679872808604"><ele>1149.0</ele><time>2026-04-27T10:54:41.999Z</time></trkpt><trkpt lat="31.047712913153866" lon="-8.1347954839808"><ele>1147.5</ele><time>2026-04-27T10:54:42.999Z</time></trkpt><trkpt lat="31.047609975120015" lon="-8.134902595474756"><ele>1146.0</ele><time>2026-04-27T10:54:43.999Z</time></trkpt><trkpt lat="31.047507671583755" lon="-8.135021104146114"><ele>1144.5</ele><time>2026-04-27T10:54:44.999Z</time></trkpt><trkpt lat="31.04739820721689" lon="-8.135153129436796"><ele>1143.0</ele><time>2026-04-27T10:54:45.999Z</time></trkpt><trkpt lat="31.047290603509193" lon="-8.135288439681007"><ele>1143.0</ele><time>2026-04-27T10:54:46.999Z</time></trkpt><trkpt lat="31.04719532691882" lon="-8.135414470810254"><ele>1143.0</ele><time>2026-04-27T10:54:47.999Z</time></trkpt><trkpt lat="31.04710949695014" lon="-8.135536886197073"><ele>1143.0</ele><time>2026-04-27T10:54:48.999Z</time></trkpt><trkpt lat="31.047018936456325" lon="-8.135663252320251"><ele>1143.0</ele><time>2026-04-27T10:54:49.999Z</time></trkpt><trkpt lat="31.04692454605917" lon="-8.135800223712943"><ele>1134.3333333333333</ele><time>2026-04-27T10:54:50.999Z</time></trkpt><trkpt lat="31.046829701711896" lon="-8.135938587843402"><ele>1125.6666666666665</ele><time>2026-04-27T10:54:51.999Z</time></trkpt><trkpt lat="31.046736660981097" lon="-8.13607277024927"><ele>1117.0</ele><time>2026-04-27T10:54:52.999Z</time></trkpt><trkpt lat="31.04663963925192" lon="-8.136207541865065"><ele>1115.6666666666665</ele><time>2026-04-27T10:54:53.999Z</time></trkpt><trkpt lat="31.046532080293872" lon="-8.136345241818958"><ele>1114.3333333333333</ele><time>2026-04-27T10:54:54.999Z</time></trkpt><trkpt lat="31.04641462259965" lon="-8.136481949955161"><ele>1113.0</ele><time>2026-04-27T10:54:55.999Z</time></trkpt><trkpt lat="31.046293591598783" lon="-8.136598734852823"><ele>1113.0</ele><time>2026-04-27T10:54:56.999Z</time></trkpt><trkpt lat="31.04616078687556" lon="-8.136697257178495"><ele>1113.0</ele><time>2026-04-27T10:54:57.999Z</time></trkpt><trkpt lat="31.046015713769144" lon="-8.136789932362456"><ele>1113.0</ele><time>2026-04-27T10:54:58.999Z</time></trkpt><trkpt lat="31.045862789553542" lon="-8.136876409522369"><ele>1115.3333333333333</ele><time>2026-04-27T10:54:59.999Z</time></trkpt><trkpt lat="31.045713456111926" lon="-8.1369652174232"><ele>1117.6666666666665</ele><time>2026-04-27T10:55:00.999Z</time></trkpt><trkpt lat="31.045566619291414" lon="-8.137062811975616"><ele>1120.0</ele><time>2026-04-27T10:55:01.999Z</time></trkpt><trkpt lat="31.045424194746342" lon="-8.137179961037914"><ele>1120.0</ele><time>2026-04-27T10:55:02.999Z</time></trkpt><trkpt lat="31.045296717676493" lon="-8.137291097121162"><ele>1120.0</ele><time>2026-04-27T10:55:03.999Z</time></trkpt><trkpt lat="31.045175470597563" lon="-8.137383304676542"><ele>1120.0</ele><time>2026-04-27T10:55:04.999Z</time></trkpt><trkpt lat="31.04505236033063" lon="-8.13746425544607"><ele>1120.0</ele><time>2026-04-27T10:55:05.999Z</time></trkpt><trkpt lat="31.04493106963187" lon="-8.137524231548637"><ele>1113.25</ele><time>2026-04-27T10:55:06.999Z</time></trkpt><trkpt lat="31.04480824972717" lon="-8.137562054953213"><ele>1106.5</ele><time>2026-04-27T10:55:07.999Z</time></trkpt><trkpt lat="31.044674622036798" lon="-8.13757620893475"><ele>1099.75</ele><time>2026-04-27T10:55:08.999Z</time></trkpt><trkpt lat="31.04453236186722" lon="-8.137557901904524"><ele>1093.0</ele><time>2026-04-27T10:55:09.999Z</time></trkpt><trkpt lat="31.044393002237495" lon="-8.137520488452385"><ele>1093.0</ele><time>2026-04-27T10:55:10.999Z</time></trkpt><trkpt lat="31.044266577746143" lon="-8.137463170051577"><ele>1093.0</ele><time>2026-04-27T10:55:12Z</time></trkpt><trkpt lat="31.04415339335489" lon="-8.13737596428085"><ele>1093.0</ele><time>2026-04-27T10:55:13Z</time></trkpt><trkpt lat="31.04404571676547" lon="-8.13726233187552"><ele>1093.0</ele><time>2026-04-27T10:55:14Z</time></trkpt><trkpt lat="31.04395187744641" lon="-8.13711886036975"><ele>1093.0</ele><time>2026-04-27T10:55:15Z</time></trkpt><trkpt lat="31.04387699948715" lon="-8.136966094827812"><ele>1093.0</ele><time>2026-04-27T10:55:16Z</time></trkpt><trkpt lat="31.043834912949993" lon="-8.136811358331608"><ele>1093.0</ele><time>2026-04-27T10:55:17Z</time></trkpt><trkpt lat="31.04380490614454" lon="-8.136669504881857"><ele>1093.0</ele><time>2026-04-27T10:55:18Z</time></trkpt><trkpt lat="31.04376764761686" lon="-8.136538311887218"><ele>1093.0</ele><time>2026-04-27T10:55:19Z</time></trkpt><trkpt lat="31.043730275188278" lon="-8.136421612544463"><ele>1093.0</ele><time>2026-04-27T10:55:20Z</time></trkpt><trkpt lat="31.043697486542786" lon="-8.13632082417691"><ele>1093.0</ele><time>2026-04-27T10:55:21Z</time></trkpt><trkpt lat="31.043667415042137" lon="-8.136230913755643"><ele>1093.0</ele><time>2026-04-27T10:55:22Z</time></trkpt><trkpt lat="31.043640671267536" lon="-8.136151769248807"><ele>1093.0</ele><time>2026-04-27T10:55:23Z</time></trkpt><trkpt lat="31.04361509087861" lon="-8.13606989303561"><ele>1093.0</ele><time>2026-04-27T10:55:24Z</time></trkpt><trkpt lat="31.043586791538484" lon="-8.135977297273353"><ele>1093.0</ele><time>2026-04-27T10:55:25Z</time></trkpt><trkpt lat="31.043553672504604" lon="-8.135871178478068"><ele>1093.0</ele><time>2026-04-27T10:55:26Z</time></trkpt><trkpt lat="31.04352673198365" lon="-8.135793602912162"><ele>1093.0</ele><time>2026-04-27T10:55:27Z</time></trkpt><trkpt lat="31.0434910234723" lon="-8.135672278768967"><ele>1093.0</ele><time>2026-04-27T10:55:29Z</time></trkpt><trkpt lat="31.043445456888268" lon="-8.135528709741546"><ele>1093.0</ele><time>2026-04-27T10:55:31Z</time></trkpt><trkpt lat="31.043416812994145" lon="-8.135446622821387"><ele>1092.0</ele><time>2026-04-27T10:55:32Z</time></trkpt><trkpt lat="31.04338870139995" lon="-8.135354280921064"><ele>1091.0</ele><time>2026-04-27T10:55:33Z</time></trkpt><trkpt lat="31.043359068235656" lon="-8.135268648718498"><ele>1090.0</ele><time>2026-04-27T10:55:34Z</time></trkpt><trkpt lat="31.043335906027032" lon="-8.13517949189937"><ele>1089.0</ele><time>2026-04-27T10:55:35Z</time></trkpt><trkpt lat="31.043308981727346" lon="-8.13509220240717"><ele>1088.0</ele><time>2026-04-27T10:55:36Z</time></trkpt><trkpt lat="31.043290674022604" lon="-8.135015854950343"><ele>1087.0</ele><time>2026-04-27T10:55:37Z</time></trkpt><trkpt lat="31.043257096822128" lon="-8.134894404414293"><ele>1088.1666666666665</ele><time>2026-04-27T10:55:39Z</time></trkpt><trkpt lat="31.04322129897079" lon="-8.134809375584481"><ele>1089.3333333333333</ele><time>2026-04-27T10:55:41Z</time></trkpt><trkpt lat="31.043173614663882" lon="-8.134739077648028"><ele>1090.5</ele><time>2026-04-27T10:55:43Z</time></trkpt><trkpt lat="31.043147190710695" lon="-8.134654172718895"><ele>1091.6666666666667</ele><time>2026-04-27T10:55:45Z</time></trkpt><trkpt lat="31.043102562472328" lon="-8.134559135125148"><ele>1092.8333333333335</ele><time>2026-04-27T10:55:47Z</time></trkpt><trkpt lat="31.043038061266" lon="-8.134464240437545"><ele>1094.0</ele><time>2026-04-27T10:55:49Z</time></trkpt><trkpt lat="31.042972833267203" lon="-8.134346815988012"><ele>1094.0</ele><time>2026-04-27T10:55:51Z</time></trkpt><trkpt lat="31.04293780595537" lon="-8.13427860358655"><ele>1094.0</ele><time>2026-04-27T10:55:52Z</time></trkpt><trkpt lat="31.042878039953557" lon="-8.134181258129765"><ele>1094.0</ele><time>2026-04-27T10:55:54Z</time></trkpt><trkpt lat="31.042818752935865" lon="-8.13407407330182"><ele>1094.0</ele><time>2026-04-27T10:55:56Z</time></trkpt><trkpt lat="31.042749785173267" lon="-8.133965944045874"><ele>1094.0</ele><time>2026-04-27T10:55:58Z</time></trkpt><trkpt lat="31.042666767152905" lon="-8.13387198434435"><ele>1100.2</ele><time>2026-04-27T10:56:00.001Z</time></trkpt><trkpt lat="31.04257077146743" lon="-8.133790772249924"><ele>1106.4</ele><time>2026-04-27T10:56:02.001Z</time></trkpt><trkpt lat="31.042484259971424" lon="-8.133711013415397"><ele>1112.6</ele><time>2026-04-27T10:56:04.001Z</time></trkpt><trkpt lat="31.042406100362772" lon="-8.133653547757422"><ele>1118.8</ele><time>2026-04-27T10:56:06.001Z</time></trkpt><trkpt lat="31.042303161819714" lon="-8.133610359538928"><ele>1125.0</ele><time>2026-04-27T10:56:08.001Z</time></trkpt><trkpt lat="31.042202894507074" lon="-8.133598217856562"><ele>1125.0</ele><time>2026-04-27T10:56:10.001Z</time></trkpt><trkpt lat="31.042121709744283" lon="-8.133586527165294"><ele>1125.0</ele><time>2026-04-27T10:56:12.001Z</time></trkpt><trkpt lat="31.042045015795804" lon="-8.133582116982057"><ele>1125.0</ele><time>2026-04-27T10:56:14.001Z</time></trkpt><trkpt lat="31.041976816348104" lon="-8.133587862875522"><ele>1125.0</ele><time>2026-04-27T10:56:15.998Z</time></trkpt><trkpt lat="31.041906009630537" lon="-8.133589373428206"><ele>1125.0</ele><time>2026-04-27T10:56:17.998Z</time></trkpt><trkpt lat="31.041836332168426" lon="-8.133600617421557"><ele>1125.0</ele><time>2026-04-27T10:56:19.999Z</time></trkpt><trkpt lat="31.04174909128399" lon="-8.133625261195212"><ele>1125.0</ele><time>2026-04-27T10:56:21.999Z</time></trkpt><trkpt lat="31.04167217703751" lon="-8.133643220363208"><ele>1125.0</ele><time>2026-04-27T10:56:23.999Z</time></trkpt><trkpt lat="31.041595852427914" lon="-8.133645131530692"><ele>1125.0</ele><time>2026-04-27T10:56:26.999Z</time></trkpt><trkpt lat="31.041493263733816" lon="-8.13362799211842"><ele>1125.0</ele><time>2026-04-27T10:56:29.999Z</time></trkpt><trkpt lat="31.04139699139191" lon="-8.133620177345964"><ele>1125.0</ele><time>2026-04-27T10:56:31.999Z</time></trkpt><trkpt lat="31.041286136289262" lon="-8.133618389912128"><ele>1124.4</ele><time>2026-04-27T10:56:33.999Z</time></trkpt><trkpt lat="31.041176516522675" lon="-8.133608181013312"><ele>1123.8</ele><time>2026-04-27T10:56:35.999Z</time></trkpt><trkpt lat="31.041054161025055" lon="-8.133563663669076"><ele>1123.2</ele><time>2026-04-27T10:56:37.999Z</time></trkpt><trkpt lat="31.04099355247812" lon="-8.133536130253406"><ele>1122.6</ele><time>2026-04-27T10:56:38.999Z</time></trkpt><trkpt lat="31.04088364393256" lon="-8.133483286520182"><ele>1122.0</ele><time>2026-04-27T10:56:40.999Z</time></trkpt><trkpt lat="31.040817785992104" lon="-8.133479467100114"><ele>1125.5</ele><time>2026-04-27T10:56:42Z</time></trkpt><trkpt lat="31.040741443548992" lon="-8.133486327457625"><ele>1129.0</ele><time>2026-04-27T10:56:43Z</time></trkpt><trkpt lat="31.040663731237437" lon="-8.13349560138944"><ele>1132.5</ele><time>2026-04-27T10:56:44Z</time></trkpt><trkpt lat="31.04058649552845" lon="-8.133506285694212"><ele>1136.0</ele><time>2026-04-27T10:56:45Z</time></trkpt><trkpt lat="31.04050755418325" lon="-8.13352348157995"><ele>1139.5</ele><time>2026-04-27T10:56:46Z</time></trkpt><trkpt lat="31.040420567787315" lon="-8.133554724841142"><ele>1143.0</ele><time>2026-04-27T10:56:47Z</time></trkpt><trkpt lat="31.040337606575573" lon="-8.133604272329368"><ele>1143.0</ele><time>2026-04-27T10:56:48Z</time></trkpt><trkpt lat="31.04025357758073" lon="-8.13366631569147"><ele>1143.0</ele><time>2026-04-27T10:56:49Z</time></trkpt><trkpt lat="31.040163953485553" lon="-8.133731416446173"><ele>1143.0</ele><time>2026-04-27T10:56:50Z</time></trkpt><trkpt lat="31.040069849996517" lon="-8.133800487966349"><ele>1143.0</ele><time>2026-04-27T10:56:51Z</time></trkpt><trkpt lat="31.03997883798099" lon="-8.133870787139424"><ele>1143.0</ele><time>2026-04-27T10:56:52Z</time></trkpt><trkpt lat="31.03988824091953" lon="-8.133952191651305"><ele>1142.0</ele><time>2026-04-27T10:56:53Z</time></trkpt><trkpt lat="31.039799102630454" lon="-8.134038324302697"><ele>1141.0</ele><time>2026-04-27T10:56:54Z</time></trkpt><trkpt lat="31.03971428709927" lon="-8.134133767439026"><ele>1140.0</ele><time>2026-04-27T10:56:55Z</time></trkpt><trkpt lat="31.039636532840024" lon="-8.134226857995232"><ele>1139.0</ele><time>2026-04-27T10:56:56Z</time></trkpt><trkpt lat="31.039561090970007" lon="-8.134321536872507"><ele>1139.0</ele><time>2026-04-27T10:56:57Z</time></trkpt><trkpt lat="31.03948789846592" lon="-8.13442185952673"><ele>1139.0</ele><time>2026-04-27T10:56:58Z</time></trkpt><trkpt lat="31.03941940795283" lon="-8.134517198581468"><ele>1139.0</ele><time>2026-04-27T10:56:59Z</time></trkpt><trkpt lat="31.039358474659792" lon="-8.134613314349938"><ele>1139.0</ele><time>2026-04-27T10:57:00Z</time></trkpt><trkpt lat="31.039303239779684" lon="-8.134716318177503"><ele>1139.0</ele><time>2026-04-27T10:57:01Z</time></trkpt><trkpt lat="31.039256921129603" lon="-8.13482585739754"><ele>1131.25</ele><time>2026-04-27T10:57:02Z</time></trkpt><trkpt lat="31.039223535078484" lon="-8.134943936140134"><ele>1123.5</ele><time>2026-04-27T10:57:03Z</time></trkpt><trkpt lat="31.039195506926877" lon="-8.135070749635346"><ele>1115.75</ele><time>2026-04-27T10:57:04Z</time></trkpt><trkpt lat="31.039170248029773" lon="-8.135204144836582"><ele>1108.0</ele><time>2026-04-27T10:57:05Z</time></trkpt><trkpt lat="31.03914698610466" lon="-8.135335614125939"><ele>1122.4</ele><time>2026-04-27T10:57:06Z</time></trkpt><trkpt lat="31.039125181680788" lon="-8.135472969200713"><ele>1136.8</ele><time>2026-04-27T10:57:07Z</time></trkpt><trkpt lat="31.039101657148912" lon="-8.135602675503218"><ele>1151.2</ele><time>2026-04-27T10:57:08Z</time></trkpt><trkpt lat="31.0390757628744" lon="-8.135727145939233"><ele>1165.6</ele><time>2026-04-27T10:57:09Z</time></trkpt><trkpt lat="31.039056560391725" lon="-8.13584448882133"><ele>1180.0</ele><time>2026-04-27T10:57:10Z</time></trkpt><trkpt lat="31.039036947115033" lon="-8.135966319298298"><ele>1181.0</ele><time>2026-04-27T10:57:11Z</time></trkpt><trkpt lat="31.03902660745008" lon="-8.136096134296434"><ele>1182.0</ele><time>2026-04-27T10:57:12Z</time></trkpt><trkpt lat="31.039017726651604" lon="-8.136220680814771"><ele>1183.0</ele><time>2026-04-27T10:57:13Z</time></trkpt><trkpt lat="31.03901544442714" lon="-8.136360010943058"><ele>1184.0</ele><time>2026-04-27T10:57:14Z</time></trkpt><trkpt lat="31.039010717828692" lon="-8.136505506140855"><ele>1180.0</ele><time>2026-04-27T10:57:15.001Z</time></trkpt><trkpt lat="31.03899583042906" lon="-8.136658045703994"><ele>1176.0</ele><time>2026-04-27T10:57:16.001Z</time></trkpt><trkpt lat="31.0389762462288" lon="-8.136815057322732"><ele>1172.0</ele><time>2026-04-27T10:57:17.001Z</time></trkpt><trkpt lat="31.038954602902532" lon="-8.1369652303848"><ele>1168.0</ele><time>2026-04-27T10:57:18.001Z</time></trkpt><trkpt lat="31.038936920310075" lon="-8.137108945472985"><ele>1168.0</ele><time>2026-04-27T10:57:19.001Z</time></trkpt><trkpt lat="31.03891863450838" lon="-8.137236813833896"><ele>1168.0</ele><time>2026-04-27T10:57:20.001Z</time></trkpt><trkpt lat="31.038893279671175" lon="-8.13735513863616"><ele>1168.0</ele><time>2026-04-27T10:57:21.001Z</time></trkpt><trkpt lat="31.038857268964808" lon="-8.137472479730398"><ele>1168.0</ele><time>2026-04-27T10:57:22.001Z</time></trkpt><trkpt lat="31.038812090976688" lon="-8.137593066979424"><ele>1168.0</ele><time>2026-04-27T10:57:23.001Z</time></trkpt><trkpt lat="31.03877350085022" lon="-8.137713178990216"><ele>1163.4</ele><time>2026-04-27T10:57:24.001Z</time></trkpt><trkpt lat="31.038756027241845" lon="-8.137835220756477"><ele>1158.8</ele><time>2026-04-27T10:57:25.001Z</time></trkpt><trkpt lat="31.038741810108153" lon="-8.137954489396408"><ele>1154.2</ele><time>2026-04-27T10:57:26.001Z</time></trkpt><trkpt lat="31.038714656456353" lon="-8.138067779702288"><ele>1149.6</ele><time>2026-04-27T10:57:27.001Z</time></trkpt><trkpt lat="31.03867457982916" lon="-8.13817606248422"><ele>1145.0</ele><time>2026-04-27T10:57:28.001Z</time></trkpt><trkpt lat="31.038616621686778" lon="-8.138278358714487"><ele>1139.5</ele><time>2026-04-27T10:57:29.001Z</time></trkpt><trkpt lat="31.038543432203678" lon="-8.138372790585578"><ele>1134.0</ele><time>2026-04-27T10:57:30.001Z</time></trkpt><trkpt lat="31.038472585258813" lon="-8.138469020340768"><ele>1128.5</ele><time>2026-04-27T10:57:31.001Z</time></trkpt><trkpt lat="31.038397977224218" lon="-8.1385687571637"><ele>1123.0</ele><time>2026-04-27T10:57:32.001Z</time></trkpt><trkpt lat="31.038320545972518" lon="-8.138682161408365"><ele>1127.0</ele><time>2026-04-27T10:57:33.001Z</time></trkpt><trkpt lat="31.038256074889414" lon="-8.138782976942684"><ele>1131.0</ele><time>2026-04-27T10:57:34.001Z</time></trkpt><trkpt lat="31.03819320673779" lon="-8.138882456087941"><ele>1135.0</ele><time>2026-04-27T10:57:35.001Z</time></trkpt><trkpt lat="31.03812759998388" lon="-8.13897606319702"><ele>1139.0</ele><time>2026-04-27T10:57:36.001Z</time></trkpt><trkpt lat="31.038054533226703" lon="-8.139072543305485"><ele>1143.0</ele><time>2026-04-27T10:57:37.001Z</time></trkpt><trkpt lat="31.03798314208718" lon="-8.139162146693396"><ele>1143.0</ele><time>2026-04-27T10:57:38.001Z</time></trkpt><trkpt lat="31.037925515512963" lon="-8.139249121516892"><ele>1143.0</ele><time>2026-04-27T10:57:39.001Z</time></trkpt><trkpt lat="31.03786760223608" lon="-8.139346009316434"><ele>1143.0</ele><time>2026-04-27T10:57:40.001Z</time></trkpt><trkpt lat="31.03781662430278" lon="-8.139444843669354"><ele>1143.0</ele><time>2026-04-27T10:57:41.001Z</time></trkpt><trkpt lat="31.037766617422182" lon="-8.139552186789246"><ele>1143.0</ele><time>2026-04-27T10:57:42.001Z</time></trkpt><trkpt lat="31.037717184810788" lon="-8.139658244528755"><ele>1143.0</ele><time>2026-04-27T10:57:43.001Z</time></trkpt><trkpt lat="31.037668238699485" lon="-8.139761418262335"><ele>1143.0</ele><time>2026-04-27T10:57:44.001Z</time></trkpt><trkpt lat="31.037611239012058" lon="-8.13987176773994"><ele>1143.0</ele><time>2026-04-27T10:57:45.001Z</time></trkpt><trkpt lat="31.037561459687932" lon="-8.139985839354114"><ele>1143.0</ele><time>2026-04-27T10:57:46.001Z</time></trkpt><trkpt lat="31.037500465647604" lon="-8.140100131603967"><ele>1143.0</ele><time>2026-04-27T10:57:47.001Z</time></trkpt><trkpt lat="31.03744703042611" lon="-8.140214334414726"><ele>1142.0</ele><time>2026-04-27T10:57:48.001Z</time></trkpt><trkpt lat="31.037394211352876" lon="-8.140329735640329"><ele>1141.0</ele><time>2026-04-27T10:57:49.001Z</time></trkpt><trkpt lat="31.037352047317412" lon="-8.140437086909767"><ele>1140.0</ele><time>2026-04-27T10:57:50.001Z</time></trkpt><trkpt lat="31.037311520380143" lon="-8.140552102100097"><ele>1139.0</ele><time>2026-04-27T10:57:51.001Z</time></trkpt><trkpt lat="31.037268999079032" lon="-8.140653690288913"><ele>1138.0</ele><time>2026-04-27T10:57:52.001Z</time></trkpt><trkpt lat="31.037215709420153" lon="-8.14075196663582"><ele>1138.0</ele><time>2026-04-27T10:57:53.001Z</time></trkpt><trkpt lat="31.037155962319783" lon="-8.140844125091348"><ele>1138.0</ele><time>2026-04-27T10:57:54.001Z</time></trkpt><trkpt lat="31.03707892748979" lon="-8.140936918001366"><ele>1138.0</ele><time>2026-04-27T10:57:55.001Z</time></trkpt><trkpt lat="31.037001510607855" lon="-8.141020168749685"><ele>1138.0</ele><time>2026-04-27T10:57:56.001Z</time></trkpt><trkpt lat="31.036914737574232" lon="-8.141097841942917"><ele>1138.0</ele><time>2026-04-27T10:57:57.002Z</time></trkpt><trkpt lat="31.036824856826332" lon="-8.141165384417361"><ele>1138.0</ele><time>2026-04-27T10:57:58.002Z</time></trkpt><trkpt lat="31.03672840180439" lon="-8.141224282412082"><ele>1138.0</ele><time>2026-04-27T10:57:59.002Z</time></trkpt><trkpt lat="31.036633222722187" lon="-8.14128587281151"><ele>1138.0</ele><time>2026-04-27T10:58:00.002Z</time></trkpt><trkpt lat="31.036539898640918" lon="-8.141346762104739"><ele>1138.0</ele><time>2026-04-27T10:58:01.002Z</time></trkpt><trkpt lat="31.036450234434042" lon="-8.14140029288598"><ele>1138.0</ele><time>2026-04-27T10:58:02.002Z</time></trkpt><trkpt lat="31.03637337028405" lon="-8.141452361891325"><ele>1138.8333333333333</ele><time>2026-04-27T10:58:03.002Z</time></trkpt><trkpt lat="31.036304282691894" lon="-8.141503069349266"><ele>1139.6666666666665</ele><time>2026-04-27T10:58:04.002Z</time></trkpt><trkpt lat="31.03623681967162" lon="-8.14155328927666"><ele>1140.5</ele><time>2026-04-27T10:58:05.002Z</time></trkpt><trkpt lat="31.03616666406475" lon="-8.141602236618368"><ele>1141.3333333333333</ele><time>2026-04-27T10:58:06.002Z</time></trkpt><trkpt lat="31.036093736248155" lon="-8.141648225933126"><ele>1142.1666666666667</ele><time>2026-04-27T10:58:07.002Z</time></trkpt><trkpt lat="31.036018335231635" lon="-8.141697213655197"><ele>1143.0</ele><time>2026-04-27T10:58:08.002Z</time></trkpt><trkpt lat="31.0359404704139" lon="-8.141748293921502"><ele>1139.8</ele><time>2026-04-27T10:58:09.002Z</time></trkpt><trkpt lat="31.035868702344256" lon="-8.141797108358643"><ele>1136.6</ele><time>2026-04-27T10:58:10.002Z</time></trkpt><trkpt lat="31.035804777308933" lon="-8.141840125302933"><ele>1133.4</ele><time>2026-04-27T10:58:11.002Z</time></trkpt><trkpt lat="31.03568209489435" lon="-8.141887912713523"><ele>1130.2</ele><time>2026-04-27T10:58:13.002Z</time></trkpt><trkpt lat="31.035562595787308" lon="-8.141858774857754"><ele>1127.0</ele><time>2026-04-27T10:58:15.002Z</time></trkpt><trkpt lat="31.035478785134934" lon="-8.14174988759397"><ele>1124.8</ele><time>2026-04-27T10:58:17.002Z</time></trkpt><trkpt lat="31.03545689058937" lon="-8.141654271952868"><ele>1122.6</ele><time>2026-04-27T10:58:18.002Z</time></trkpt><trkpt lat="31.035454256429833" lon="-8.141546452430807"><ele>1120.3999999999999</ele><time>2026-04-27T10:58:19.002Z</time></trkpt><trkpt lat="31.035463609057878" lon="-8.141429420553877"><ele>1118.2</ele><time>2026-04-27T10:58:20.002Z</time></trkpt><trkpt lat="31.03549258515545" lon="-8.141287362229386"><ele>1116.0</ele><time>2026-04-27T10:58:21Z</time></trkpt><trkpt lat="31.03552837583047" lon="-8.141130924747385"><ele>1116.0</ele><time>2026-04-27T10:58:22Z</time></trkpt><trkpt lat="31.03556549947932" lon="-8.140987638314234"><ele>1116.0</ele><time>2026-04-27T10:58:23Z</time></trkpt><trkpt lat="31.035602384613835" lon="-8.14084108071827"><ele>1116.0</ele><time>2026-04-27T10:58:24Z</time></trkpt><trkpt lat="31.035623961939176" lon="-8.140699472342833"><ele>1116.0</ele><time>2026-04-27T10:58:25Z</time></trkpt><trkpt lat="31.035627060142172" lon="-8.1405699097156"><ele>1116.3999999999999</ele><time>2026-04-27T10:58:26Z</time></trkpt><trkpt lat="31.03561749031333" lon="-8.140446670446446"><ele>1116.8</ele><time>2026-04-27T10:58:27Z</time></trkpt><trkpt lat="31.03560332954427" lon="-8.14031989936282"><ele>1117.1999999999998</ele><time>2026-04-27T10:58:28Z</time></trkpt><trkpt lat="31.035589682190675" lon="-8.140192721344054"><ele>1117.6</ele><time>2026-04-27T10:58:29Z</time></trkpt><trkpt lat="31.035569580948586" lon="-8.14007153725089"><ele>1118.0</ele><time>2026-04-27T10:58:30Z</time></trkpt><trkpt lat="31.03553962482357" lon="-8.13996093841033"><ele>1120.6</ele><time>2026-04-27T10:58:31Z</time></trkpt><trkpt lat="31.035503814981954" lon="-8.13985088787772"><ele>1123.1999999999998</ele><time>2026-04-27T10:58:32Z</time></trkpt><trkpt lat="31.035460484960105" lon="-8.139746821293848"><ele>1125.8</ele><time>2026-04-27T10:58:33Z</time></trkpt><trkpt lat="31.03541084437562" lon="-8.139656982244837"><ele>1128.3999999999999</ele><time>2026-04-27T10:58:34Z</time></trkpt><trkpt lat="31.035373707448432" lon="-8.13959414294825"><ele>1131.0</ele><time>2026-04-27T10:58:35Z</time></trkpt><trkpt lat="31.03530953508385" lon="-8.139495273214727"><ele>1131.0</ele><time>2026-04-27T10:58:37Z</time></trkpt><trkpt lat="31.03525069229549" lon="-8.139390375099888"><ele>1131.0</ele><time>2026-04-27T10:58:39Z</time></trkpt><trkpt lat="31.0351969451447" lon="-8.139257025325456"><ele>1131.0</ele><time>2026-04-27T10:58:41Z</time></trkpt><trkpt lat="31.03518009592159" lon="-8.13917619278174"><ele>1131.0</ele><time>2026-04-27T10:58:42Z</time></trkpt><trkpt lat="31.03517016136256" lon="-8.139085277448286"><ele>1131.0</ele><time>2026-04-27T10:58:43Z</time></trkpt><trkpt lat="31.035161883044726" lon="-8.138975878004256"><ele>1134.3999999999999</ele><time>2026-04-27T10:58:44Z</time></trkpt><trkpt lat="31.03514437887574" lon="-8.13886332757762"><ele>1137.8</ele><time>2026-04-27T10:58:45Z</time></trkpt><trkpt lat="31.035115252454574" lon="-8.138755351403084"><ele>1141.1999999999998</ele><time>2026-04-27T10:58:46Z</time></trkpt><trkpt lat="31.035079360491316" lon="-8.138649758016502"><ele>1144.6</ele><time>2026-04-27T10:58:47Z</time></trkpt><trkpt lat="31.035037640463408" lon="-8.138546763558288"><ele>1148.0</ele><time>2026-04-27T10:58:48Z</time></trkpt><trkpt lat="31.034996544776327" lon="-8.138448008879067"><ele>1145.3333333333335</ele><time>2026-04-27T10:58:49Z</time></trkpt><trkpt lat="31.03495290215403" lon="-8.138358875323263"><ele>1142.6666666666667</ele><time>2026-04-27T10:58:50.001Z</time></trkpt><trkpt lat="31.03491386132277" lon="-8.138287496366207"><ele>1140.0</ele><time>2026-04-27T10:58:51.001Z</time></trkpt><trkpt lat="31.034881096594138" lon="-8.1382234080716"><ele>1137.3333333333333</ele><time>2026-04-27T10:58:52.001Z</time></trkpt><trkpt lat="31.03482536551331" lon="-8.138071671659485"><ele>1134.6666666666665</ele><time>2026-04-27T10:58:54.001Z</time></trkpt><trkpt lat="31.034796679510492" lon="-8.137985373280294"><ele>1132.0</ele><time>2026-04-27T10:58:55.001Z</time></trkpt><trkpt lat="31.034771612097234" lon="-8.137915495721764"><ele>1132.0</ele><time>2026-04-27T10:58:56.001Z</time></trkpt><trkpt lat="31.034720987586766" lon="-8.137787804938386"><ele>1132.0</ele><time>2026-04-27T10:58:58.001Z</time></trkpt><trkpt lat="31.03466595767331" lon="-8.137684257420668"><ele>1132.0</ele><time>2026-04-27T10:59:00.001Z</time></trkpt><trkpt lat="31.034625499304177" lon="-8.137564939180892"><ele>1132.0</ele><time>2026-04-27T10:59:02.001Z</time></trkpt><trkpt lat="31.034607577856775" lon="-8.137485410354866"><ele>1132.0</ele><time>2026-04-27T10:59:03.001Z</time></trkpt><trkpt lat="31.034540985948183" lon="-8.13737749595715"><ele>1137.5</ele><time>2026-04-27T10:59:05.001Z</time></trkpt><trkpt lat="31.0344982834499" lon="-8.13732119796412"><ele>1143.0</ele><time>2026-04-27T10:59:06.001Z</time></trkpt><trkpt lat="31.034445335214578" lon="-8.137247862872695"><ele>1148.5</ele><time>2026-04-27T10:59:07.001Z</time></trkpt><trkpt lat="31.034378139980078" lon="-8.137168442012594"><ele>1154.0</ele><time>2026-04-27T10:59:08.001Z</time></trkpt><trkpt lat="31.034306902572244" lon="-8.137105855404096"><ele>1159.5</ele><time>2026-04-27T10:59:09.001Z</time></trkpt><trkpt lat="31.034235090439264" lon="-8.137060461540575"><ele>1165.0</ele><time>2026-04-27T10:59:10.001Z</time></trkpt><trkpt lat="31.034161801622805" lon="-8.13701700386402"><ele>1163.0</ele><time>2026-04-27T10:59:11.001Z</time></trkpt><trkpt lat="31.034082955754194" lon="-8.136990582984698"><ele>1161.0</ele><time>2026-04-27T10:59:12.001Z</time></trkpt><trkpt lat="31.033994742723888" lon="-8.136958605407475"><ele>1159.0</ele><time>2026-04-27T10:59:13.001Z</time></trkpt><trkpt lat="31.033905657457108" lon="-8.136941359509036"><ele>1157.0</ele><time>2026-04-27T10:59:14.001Z</time></trkpt><trkpt lat="31.033833190974637" lon="-8.13692816027807"><ele>1155.0</ele><time>2026-04-27T10:59:15.001Z</time></trkpt><trkpt lat="31.033748207618057" lon="-8.136925081165137"><ele>1153.0</ele><time>2026-04-27T10:59:16.001Z</time></trkpt><trkpt lat="31.03368262235188" lon="-8.136937629408523"><ele>1153.0</ele><time>2026-04-27T10:59:17.001Z</time></trkpt><trkpt lat="31.03360549444816" lon="-8.13695540945602"><ele>1153.0</ele><time>2026-04-27T10:59:18.001Z</time></trkpt><trkpt lat="31.033546931141796" lon="-8.136986532621476"><ele>1153.0</ele><time>2026-04-27T10:59:19.001Z</time></trkpt><trkpt lat="31.03345188645808" lon="-8.137068156770445"><ele>1153.0</ele><time>2026-04-27T10:59:21.001Z</time></trkpt><trkpt lat="31.033378895589088" lon="-8.137140238626161"><ele>1153.0</ele><time>2026-04-27T10:59:23.001Z</time></trkpt><trkpt lat="31.033312529157854" lon="-8.13721733086275"><ele>1154.0</ele><time>2026-04-27T10:59:25.001Z</time></trkpt><trkpt lat="31.0332265648423" lon="-8.137273565999335"><ele>1155.0</ele><time>2026-04-27T10:59:27.001Z</time></trkpt><trkpt lat="31.033154688942087" lon="-8.137353577492153"><ele>1156.0</ele><time>2026-04-27T10:59:29.001Z</time></trkpt><trkpt lat="31.033114825979492" lon="-8.137423382424274"><ele>1157.0</ele><time>2026-04-27T10:59:30.001Z</time></trkpt><trkpt lat="31.033081006409063" lon="-8.137490228149785"><ele>1158.0</ele><time>2026-04-27T10:59:31.001Z</time></trkpt><trkpt lat="31.03304303221797" lon="-8.137554907138734"><ele>1159.0</ele><time>2026-04-27T10:59:32.001Z</time></trkpt><trkpt lat="31.032999762851865" lon="-8.137623944969869"><ele>1159.0</ele><time>2026-04-27T10:59:33.001Z</time></trkpt><trkpt lat="31.032933035112723" lon="-8.13772044412062"><ele>1159.0</ele><time>2026-04-27T10:59:35.001Z</time></trkpt><trkpt lat="31.032882584546513" lon="-8.137785460491129"><ele>1159.0</ele><time>2026-04-27T10:59:37.002Z</time></trkpt><trkpt lat="31.032832238874533" lon="-8.137854072156106"><ele>1159.0</ele><time>2026-04-27T10:59:39.002Z</time></trkpt><trkpt lat="31.03277294475866" lon="-8.137920392633129"><ele>1159.0</ele><time>2026-04-27T10:59:42.002Z</time></trkpt><trkpt lat="31.032738595211036" lon="-8.137986527590195"><ele>1159.0</ele><time>2026-04-27T11:05:35.001Z</time></trkpt><trkpt lat="31.032663582365878" lon="-8.138035580015801"><ele>1159.0</ele><time>2026-04-27T11:05:39.001Z</time></trkpt><trkpt lat="31.03254594350884" lon="-8.138080067510906"><ele>1159.0</ele><time>2026-04-27T11:05:41.001Z</time></trkpt><trkpt lat="31.032479448661277" lon="-8.138092581048841"><ele>1159.0</ele><time>2026-04-27T11:05:42.001Z</time></trkpt><trkpt lat="31.032403959756078" lon="-8.138084778459042"><ele>1159.0</ele><time>2026-04-27T11:05:43.001Z</time></trkpt><trkpt lat="31.032303591107457" lon="-8.138058647336901"><ele>1159.0</ele><time>2026-04-27T11:05:45.001Z</time></trkpt><trkpt lat="31.03222402801056" lon="-8.138044071566503"><ele>1155.8</ele><time>2026-04-27T11:05:48.001Z</time></trkpt><trkpt lat="31.032144860348236" lon="-8.138020896069257"><ele>1152.6000000000001</ele><time>2026-04-27T11:05:52.001Z</time></trkpt><trkpt lat="31.032046135059254" lon="-8.137985197844902"><ele>1149.4</ele><time>2026-04-27T11:05:55.001Z</time></trkpt><trkpt lat="31.03197363370039" lon="-8.137902158588334"><ele>1146.2</ele><time>2026-04-27T11:05:57.001Z</time></trkpt><trkpt lat="31.03192218740689" lon="-8.137832137840805"><ele>1143.0</ele><time>2026-04-27T11:05:59.002Z</time></trkpt><trkpt lat="31.031856192870052" lon="-8.137746720286556"><ele>1143.0</ele><time>2026-04-27T11:06:01.002Z</time></trkpt><trkpt lat="31.031801422134997" lon="-8.137675848009986"><ele>1143.0</ele><time>2026-04-27T11:06:02.002Z</time></trkpt><trkpt lat="31.031738454535837" lon="-8.13761857826273"><ele>1143.0</ele><time>2026-04-27T11:06:03.002Z</time></trkpt><trkpt lat="31.03166701323893" lon="-8.137571940905698"><ele>1143.0</ele><time>2026-04-27T11:06:04.002Z</time></trkpt><trkpt lat="31.031600589545963" lon="-8.137535944072736"><ele>1143.0</ele><time>2026-04-27T11:06:05.002Z</time></trkpt><trkpt lat="31.031526788782706" lon="-8.137489458484636"><ele>1143.0</ele><time>2026-04-27T11:06:06.002Z</time></trkpt><trkpt lat="31.031456073303666" lon="-8.137438212489045"><ele>1140.4285714285713</ele><time>2026-04-27T11:06:07.002Z</time></trkpt><trkpt lat="31.03139254792161" lon="-8.137395570483763"><ele>1137.8571428571427</ele><time>2026-04-27T11:06:08.002Z</time></trkpt><trkpt lat="31.031335498870487" lon="-8.137359342586942"><ele>1135.2857142857142</ele><time>2026-04-27T11:06:09.002Z</time></trkpt><trkpt lat="31.031277657044917" lon="-8.137327823789152"><ele>1132.7142857142858</ele><time>2026-04-27T11:06:10.002Z</time></trkpt><trkpt lat="31.031213626215" lon="-8.13729895543418"><ele>1130.1428571428573</ele><time>2026-04-27T11:06:11.002Z</time></trkpt><trkpt lat="31.03114518906063" lon="-8.137269096534004"><ele>1127.5714285714287</ele><time>2026-04-27T11:06:12.002Z</time></trkpt><trkpt lat="31.031082675332286" lon="-8.137251911363695"><ele>1125.0</ele><time>2026-04-27T11:06:13.002Z</time></trkpt><trkpt lat="31.03101331780098" lon="-8.137241323417244"><ele>1129.8</ele><time>2026-04-27T11:06:14.002Z</time></trkpt><trkpt lat="31.03094428115283" lon="-8.137230046321266"><ele>1134.6</ele><time>2026-04-27T11:06:15.002Z</time></trkpt><trkpt lat="31.030839719610363" lon="-8.13721614676419"><ele>1139.4</ele><time>2026-04-27T11:06:17.002Z</time></trkpt><trkpt lat="31.0307152324851" lon="-8.137182815856391"><ele>1144.2</ele><time>2026-04-27T11:06:19.002Z</time></trkpt><trkpt lat="31.030652395299352" lon="-8.137170006576186"><ele>1149.0</ele><time>2026-04-27T11:06:20.002Z</time></trkpt><trkpt lat="31.030533708786592" lon="-8.13715000524425"><ele>1149.0</ele><time>2026-04-27T11:06:22.002Z</time></trkpt><trkpt lat="31.030432483683317" lon="-8.13711501304258"><ele>1149.0</ele><time>2026-04-27T11:06:24.002Z</time></trkpt><trkpt lat="31.030368423978093" lon="-8.137090966649485"><ele>1149.0</ele><time>2026-04-27T11:06:25.002Z</time></trkpt><trkpt lat="31.030281601077597" lon="-8.137063889632175"><ele>1149.0</ele><time>2026-04-27T11:06:26.002Z</time></trkpt><trkpt lat="31.03018784001248" lon="-8.137025310120862"><ele>1149.0</ele><time>2026-04-27T11:06:27.002Z</time></trkpt><trkpt lat="31.03008453624283" lon="-8.136980923963542"><ele>1149.0</ele><time>2026-04-27T11:06:28.002Z</time></trkpt><trkpt lat="31.029976005617314" lon="-8.136932255243222"><ele>1149.0</ele><time>2026-04-27T11:06:29.002Z</time></trkpt><trkpt lat="31.02986627694614" lon="-8.136877164774585"><ele>1149.0</ele><time>2026-04-27T11:06:30.002Z</time></trkpt><trkpt lat="31.029743252981312" lon="-8.136826733967641"><ele>1149.0</ele><time>2026-04-27T11:06:31.002Z</time></trkpt><trkpt lat="31.02960744846847" lon="-8.136773887626944"><ele>1145.25</ele><time>2026-04-27T11:06:32.002Z</time></trkpt><trkpt lat="31.02946118259349" lon="-8.13672092757703"><ele>1141.5</ele><time>2026-04-27T11:06:33.002Z</time></trkpt><trkpt lat="31.029323751440717" lon="-8.136684949826632"><ele>1137.75</ele><time>2026-04-27T11:06:34.002Z</time></trkpt><trkpt lat="31.029200733370295" lon="-8.136662995339176"><ele>1134.0</ele><time>2026-04-27T11:06:35.002Z</time></trkpt><trkpt lat="31.029087809596138" lon="-8.136640005984512"><ele>1135.6000000000001</ele><time>2026-04-27T11:06:36.002Z</time></trkpt><trkpt lat="31.028986153576373" lon="-8.136614569312309"><ele>1137.2</ele><time>2026-04-27T11:06:37.002Z</time></trkpt><trkpt lat="31.02889085607541" lon="-8.136592506642648"><ele>1138.8000000000002</ele><time>2026-04-27T11:06:38.002Z</time></trkpt><trkpt lat="31.028797966852263" lon="-8.136561854299561"><ele>1140.4</ele><time>2026-04-27T11:06:39.003Z</time></trkpt><trkpt lat="31.028709843693246" lon="-8.136524823281498"><ele>1142.0</ele><time>2026-04-27T11:06:40.003Z</time></trkpt><trkpt lat="31.028615511188892" lon="-8.136486814839627"><ele>1142.0</ele><time>2026-04-27T11:06:41.003Z</time></trkpt><trkpt lat="31.02851208617307" lon="-8.13646392715733"><ele>1142.0</ele><time>2026-04-27T11:06:42.003Z</time></trkpt><trkpt lat="31.02841314889709" lon="-8.136444642914793"><ele>1142.0</ele><time>2026-04-27T11:06:43.003Z</time></trkpt><trkpt lat="31.028310872281537" lon="-8.136423409805232"><ele>1142.0</ele><time>2026-04-27T11:06:44.003Z</time></trkpt><trkpt lat="31.02821119355514" lon="-8.136397689776778"><ele>1142.0</ele><time>2026-04-27T11:06:45Z</time></trkpt><trkpt lat="31.028112343489283" lon="-8.136371459660705"><ele>1141.0</ele><time>2026-04-27T11:06:46Z</time></trkpt><trkpt lat="31.028023442098423" lon="-8.136331684849992"><ele>1140.0</ele><time>2026-04-27T11:06:47Z</time></trkpt><trkpt lat="31.02794622571831" lon="-8.136298089475861"><ele>1139.0</ele><time>2026-04-27T11:06:48Z</time></trkpt><trkpt lat="31.027869229190216" lon="-8.136259976218724"><ele>1138.0</ele><time>2026-04-27T11:06:49Z</time></trkpt><trkpt lat="31.02780994710758" lon="-8.136217413750595"><ele>1137.0</ele><time>2026-04-27T11:06:50Z</time></trkpt><trkpt lat="31.027759609970847" lon="-8.136167028450693"><ele>1136.0</ele><time>2026-04-27T11:06:51Z</time></trkpt><trkpt lat="31.027671971143093" lon="-8.136058229205181"><ele>1136.0</ele><time>2026-04-27T11:06:53Z</time></trkpt><trkpt lat="31.027629794752148" lon="-8.13599551305506"><ele>1136.0</ele><time>2026-04-27T11:06:54Z</time></trkpt><trkpt lat="31.027588595084644" lon="-8.135923611929691"><ele>1136.0</ele><time>2026-04-27T11:06:55Z</time></trkpt><trkpt lat="31.02749113401328" lon="-8.135832977875758"><ele>1136.0</ele><time>2026-04-27T11:06:57Z</time></trkpt><trkpt lat="31.02741877162721" lon="-8.135804572523611"><ele>1136.0</ele><time>2026-04-27T11:06:58Z</time></trkpt><trkpt lat="31.027322509067012" lon="-8.13579454019171"><ele>1136.0</ele><time>2026-04-27T11:06:59Z</time></trkpt><trkpt lat="31.027216690051134" lon="-8.135792623673401"><ele>1135.25</ele><time>2026-04-27T11:07:00Z</time></trkpt><trkpt lat="31.027099536959366" lon="-8.135791048678513"><ele>1134.5</ele><time>2026-04-27T11:07:01Z</time></trkpt><trkpt lat="31.02697211225097" lon="-8.13578859821714"><ele>1133.75</ele><time>2026-04-27T11:07:02Z</time></trkpt><trkpt lat="31.026838650315973" lon="-8.135785690691558"><ele>1133.0</ele><time>2026-04-27T11:07:03Z</time></trkpt><trkpt lat="31.026694663742283" lon="-8.135773377950038"><ele>1134.3333333333335</ele><time>2026-04-27T11:07:04Z</time></trkpt><trkpt lat="31.026539180419395" lon="-8.135760453535942"><ele>1135.6666666666667</ele><time>2026-04-27T11:07:05Z</time></trkpt><trkpt lat="31.026388206759428" lon="-8.135751342560829"><ele>1137.0</ele><time>2026-04-27T11:07:06Z</time></trkpt><trkpt lat="31.02622862732392" lon="-8.135741548233387"><ele>1137.0</ele><time>2026-04-27T11:07:07Z</time></trkpt><trkpt lat="31.026069822867903" lon="-8.135735543700664"><ele>1137.0</ele><time>2026-04-27T11:07:08Z</time></trkpt><trkpt lat="31.02590718885886" lon="-8.13572994245662"><ele>1137.0</ele><time>2026-04-27T11:07:09Z</time></trkpt><trkpt lat="31.025756291544656" lon="-8.135720913941963"><ele>1137.6666666666667</ele><time>2026-04-27T11:07:10Z</time></trkpt><trkpt lat="31.025611293820706" lon="-8.135712604735266"><ele>1138.3333333333335</ele><time>2026-04-27T11:07:11Z</time></trkpt><trkpt lat="31.02546510270988" lon="-8.135715180082359"><ele>1139.0</ele><time>2026-04-27T11:07:12.001Z</time></trkpt><trkpt lat="31.025305034709383" lon="-8.135741634765635"><ele>1139.0</ele><time>2026-04-27T11:07:13.001Z</time></trkpt><trkpt lat="31.02514359278671" lon="-8.135782017879269"><ele>1139.0</ele><time>2026-04-27T11:07:14.001Z</time></trkpt><trkpt lat="31.025001624268473" lon="-8.135835117906016"><ele>1139.0</ele><time>2026-04-27T11:07:15.001Z</time></trkpt><trkpt lat="31.024887511121833" lon="-8.135892447771825"><ele>1139.0</ele><time>2026-04-27T11:07:16.001Z</time></trkpt><trkpt lat="31.024785615604838" lon="-8.135946450972783"><ele>1141.2</ele><time>2026-04-27T11:07:17.001Z</time></trkpt><trkpt lat="31.024687729960824" lon="-8.136001016653546"><ele>1143.4</ele><time>2026-04-27T11:07:18.001Z</time></trkpt><trkpt lat="31.024607655360157" lon="-8.136042942359536"><ele>1145.6</ele><time>2026-04-27T11:07:19.001Z</time></trkpt><trkpt lat="31.024538912511364" lon="-8.136072053371846"><ele>1147.8</ele><time>2026-04-27T11:07:20.001Z</time></trkpt><trkpt lat="31.02444962952674" lon="-8.136119695024128"><ele>1150.0</ele><time>2026-04-27T11:07:21.001Z</time></trkpt><trkpt lat="31.02433772953514" lon="-8.136178457748754"><ele>1150.0</ele><time>2026-04-27T11:07:22.001Z</time></trkpt><trkpt lat="31.02422968987723" lon="-8.136239799889118"><ele>1150.0</ele><time>2026-04-27T11:07:23.001Z</time></trkpt><trkpt lat="31.02411649631236" lon="-8.136302107551803"><ele>1150.0</ele><time>2026-04-27T11:07:24.001Z</time></trkpt><trkpt lat="31.02399934176033" lon="-8.136366410077835"><ele>1150.0</ele><time>2026-04-27T11:07:25.001Z</time></trkpt><trkpt lat="31.02387628563435" lon="-8.136438995872842"><ele>1148.6666666666665</ele><time>2026-04-27T11:07:26.001Z</time></trkpt><trkpt lat="31.023749449723987" lon="-8.13652159790233"><ele>1147.3333333333333</ele><time>2026-04-27T11:07:27.001Z</time></trkpt><trkpt lat="31.023614995675526" lon="-8.136609904671626"><ele>1146.0</ele><time>2026-04-27T11:07:28.001Z</time></trkpt><trkpt lat="31.0234723341424" lon="-8.136709210938422"><ele>1146.0</ele><time>2026-04-27T11:07:29.001Z</time></trkpt><trkpt lat="31.023329869103264" lon="-8.136826312289994"><ele>1146.0</ele><time>2026-04-27T11:07:30.001Z</time></trkpt><trkpt lat="31.023194139101726" lon="-8.13695991009791"><ele>1146.0</ele><time>2026-04-27T11:07:31.001Z</time></trkpt><trkpt lat="31.023058838202036" lon="-8.137101226498864"><ele>1146.0</ele><time>2026-04-27T11:07:32.001Z</time></trkpt><trkpt lat="31.02292443097901" lon="-8.13724754969079"><ele>1146.0</ele><time>2026-04-27T11:07:33.001Z</time></trkpt><trkpt lat="31.022782723830915" lon="-8.137403344846723"><ele>1146.0</ele><time>2026-04-27T11:07:34.001Z</time></trkpt><trkpt lat="31.0226374524616" lon="-8.137562923774405"><ele>1146.0</ele><time>2026-04-27T11:07:35.001Z</time></trkpt><trkpt lat="31.022489558390028" lon="-8.137723668893663"><ele>1146.0</ele><time>2026-04-27T11:07:36.001Z</time></trkpt><trkpt lat="31.02234340177907" lon="-8.137890010030144"><ele>1146.0</ele><time>2026-04-27T11:07:37.001Z</time></trkpt><trkpt lat="31.022203944634672" lon="-8.13808808403874"><ele>1153.5</ele><time>2026-04-27T11:07:38.001Z</time></trkpt><trkpt lat="31.022070383839544" lon="-8.13831419799608"><ele>1161.0</ele><time>2026-04-27T11:07:39.001Z</time></trkpt><trkpt lat="31.021940938632884" lon="-8.138544320945053"><ele>1161.0</ele><time>2026-04-27T11:07:40.001Z</time></trkpt><trkpt lat="31.021811209683197" lon="-8.13876742652598"><ele>1161.0</ele><time>2026-04-27T11:07:41.001Z</time></trkpt><trkpt lat="31.021678464703236" lon="-8.138989470791483"><ele>1171.0</ele><time>2026-04-27T11:07:42.001Z</time></trkpt><trkpt lat="31.021538104076253" lon="-8.139208758794876"><ele>1181.0</ele><time>2026-04-27T11:07:43.001Z</time></trkpt><trkpt lat="31.021384049055204" lon="-8.139424568800408"><ele>1181.0</ele><time>2026-04-27T11:07:44.001Z</time></trkpt><trkpt lat="31.021218588173365" lon="-8.139622855930874"><ele>1181.0</ele><time>2026-04-27T11:07:45.001Z</time></trkpt><trkpt lat="31.021047989330036" lon="-8.139805608235418"><ele>1194.5</ele><time>2026-04-27T11:07:46.001Z</time></trkpt><trkpt lat="31.020884752638867" lon="-8.139988383181937"><ele>1208.0</ele><time>2026-04-27T11:07:47.001Z</time></trkpt><trkpt lat="31.020742517463784" lon="-8.140190438709151"><ele>1208.0</ele><time>2026-04-27T11:07:48.001Z</time></trkpt><trkpt lat="31.02062664034502" lon="-8.14042382577546"><ele>1208.0</ele><time>2026-04-27T11:07:49.001Z</time></trkpt><trkpt lat="31.020524571588787" lon="-8.140680028620478"><ele>1195.5</ele><time>2026-04-27T11:07:50.001Z</time></trkpt><trkpt lat="31.020440122421235" lon="-8.140955355170364"><ele>1183.0</ele><time>2026-04-27T11:07:51.001Z</time></trkpt><trkpt lat="31.020358545173078" lon="-8.141224378848266"><ele>1183.0</ele><time>2026-04-27T11:07:52.001Z</time></trkpt><trkpt lat="31.02028622369431" lon="-8.141487538742899"><ele>1183.0</ele><time>2026-04-27T11:07:53.001Z</time></trkpt><trkpt lat="31.02022737832668" lon="-8.14175447155457"><ele>1176.6666666666665</ele><time>2026-04-27T11:07:54.001Z</time></trkpt><trkpt lat="31.020184679692647" lon="-8.142019711886304"><ele>1170.3333333333333</ele><time>2026-04-27T11:07:55.001Z</time></trkpt><trkpt lat="31.02014284407172" lon="-8.142268112637517"><ele>1164.0</ele><time>2026-04-27T11:07:56.001Z</time></trkpt><trkpt lat="31.02009437520684" lon="-8.142501125870144"><ele>1163.0</ele><time>2026-04-27T11:07:57.002Z</time></trkpt><trkpt lat="31.020032191200595" lon="-8.14268974423168"><ele>1162.0</ele><time>2026-04-27T11:07:58.002Z</time></trkpt><trkpt lat="31.01995247363228" lon="-8.142845909046706"><ele>1161.0</ele><time>2026-04-27T11:07:59.002Z</time></trkpt><trkpt lat="31.01984510735745" lon="-8.142962531255156"><ele>1161.0</ele><time>2026-04-27T11:08:00.002Z</time></trkpt><trkpt lat="31.019708678503175" lon="-8.14306798180819"><ele>1161.0</ele><time>2026-04-27T11:08:01.002Z</time></trkpt><trkpt lat="31.019541682353303" lon="-8.143173402750422"><ele>1161.0</ele><time>2026-04-27T11:08:02.002Z</time></trkpt><trkpt lat="31.01937093940403" lon="-8.14328109710343"><ele>1157.0</ele><time>2026-04-27T11:08:03.002Z</time></trkpt><trkpt lat="31.019226795959156" lon="-8.143361248948581"><ele>1153.0</ele><time>2026-04-27T11:08:04.002Z</time></trkpt><trkpt lat="31.019087351669924" lon="-8.14342245613265"><ele>1149.0</ele><time>2026-04-27T11:08:05.002Z</time></trkpt><trkpt lat="31.018941043472417" lon="-8.143465328357532"><ele>1149.0</ele><time>2026-04-27T11:08:06.002Z</time></trkpt><trkpt lat="31.01877678631697" lon="-8.143489251365631"><ele>1149.0</ele><time>2026-04-27T11:08:07.002Z</time></trkpt><trkpt lat="31.01858226945752" lon="-8.143504156846694"><ele>1149.0</ele><time>2026-04-27T11:08:08.002Z</time></trkpt><trkpt lat="31.01838027305402" lon="-8.143521675706673"><ele>1152.3333333333333</ele><time>2026-04-27T11:08:09.002Z</time></trkpt><trkpt lat="31.01817295619212" lon="-8.14354379937872"><ele>1155.6666666666665</ele><time>2026-04-27T11:08:10.002Z</time></trkpt><trkpt lat="31.017965488214696" lon="-8.143561950016661"><ele>1159.0</ele><time>2026-04-27T11:08:11.002Z</time></trkpt><trkpt lat="31.017747786951567" lon="-8.143584049612778"><ele>1159.0</ele><time>2026-04-27T11:08:12.002Z</time></trkpt><trkpt lat="31.017523518085156" lon="-8.143604531087616"><ele>1159.0</ele><time>2026-04-27T11:08:13.002Z</time></trkpt><trkpt lat="31.017334604058053" lon="-8.143627165154992"><ele>1159.0</ele><time>2026-04-27T11:08:14.002Z</time></trkpt><trkpt lat="31.017160587157512" lon="-8.143656276496797"><ele>1164.0</ele><time>2026-04-27T11:08:15.002Z</time></trkpt><trkpt lat="31.01698664269142" lon="-8.143706095245955"><ele>1169.0</ele><time>2026-04-27T11:08:16.002Z</time></trkpt><trkpt lat="31.016820275709097" lon="-8.143790590794435"><ele>1174.0</ele><time>2026-04-27T11:08:17.002Z</time></trkpt><trkpt lat="31.01665682667675" lon="-8.143903044791417"><ele>1179.6666666666665</ele><time>2026-04-27T11:08:18.002Z</time></trkpt><trkpt lat="31.01650227297862" lon="-8.144051143633408"><ele>1185.3333333333333</ele><time>2026-04-27T11:08:19.002Z</time></trkpt><trkpt lat="31.016366040812652" lon="-8.14423427782385"><ele>1191.0</ele><time>2026-04-27T11:08:20.002Z</time></trkpt><trkpt lat="31.016250208221894" lon="-8.144447872447197"><ele>1191.0</ele><time>2026-04-27T11:08:21.002Z</time></trkpt><trkpt lat="31.01612936765434" lon="-8.144666990733866"><ele>1191.0</ele><time>2026-04-27T11:08:22.002Z</time></trkpt><trkpt lat="31.01600134973712" lon="-8.144898206277048"><ele>1198.6666666666667</ele><time>2026-04-27T11:08:23.002Z</time></trkpt><trkpt lat="31.015876312192702" lon="-8.145111881323889"><ele>1206.3333333333335</ele><time>2026-04-27T11:08:24.002Z</time></trkpt><trkpt lat="31.015755103049234" lon="-8.145293705329372"><ele>1214.0</ele><time>2026-04-27T11:08:25.002Z</time></trkpt><trkpt lat="31.015635630114613" lon="-8.145446362049183"><ele>1214.0</ele><time>2026-04-27T11:08:26.002Z</time></trkpt><trkpt lat="31.015527247644243" lon="-8.145556712558767"><ele>1214.0</ele><time>2026-04-27T11:08:27.002Z</time></trkpt><trkpt lat="31.015423649316386" lon="-8.145638565171884"><ele>1214.0</ele><time>2026-04-27T11:08:28.002Z</time></trkpt><trkpt lat="31.015340717598306" lon="-8.145688688669377"><ele>1214.0</ele><time>2026-04-27T11:08:29.002Z</time></trkpt><trkpt lat="31.0152604051504" lon="-8.145732008012844"><ele>1212.0</ele><time>2026-04-27T11:08:30.002Z</time></trkpt><trkpt lat="31.015175373517398" lon="-8.145753711777116"><ele>1210.0</ele><time>2026-04-27T11:08:31.002Z</time></trkpt><trkpt lat="31.015083512168776" lon="-8.14578833224898"><ele>1208.0</ele><time>2026-04-27T11:08:32.002Z</time></trkpt><trkpt lat="31.014956076363497" lon="-8.14584878214564"><ele>1206.0</ele><time>2026-04-27T11:08:33.002Z</time></trkpt><trkpt lat="31.01483214778164" lon="-8.14591894168043"><ele>1206.0</ele><time>2026-04-27T11:08:34.002Z</time></trkpt><trkpt lat="31.0147154434427" lon="-8.146001042856929"><ele>1206.0</ele><time>2026-04-27T11:08:35.002Z</time></trkpt><trkpt lat="31.014601206832417" lon="-8.146084752322393"><ele>1206.0</ele><time>2026-04-27T11:08:36.002Z</time></trkpt><trkpt lat="31.014469718841234" lon="-8.146162423605363"><ele>1206.0</ele><time>2026-04-27T11:08:37.002Z</time></trkpt><trkpt lat="31.014325374216057" lon="-8.146255873964469"><ele>1206.0</ele><time>2026-04-27T11:08:38.002Z</time></trkpt><trkpt lat="31.014192378932318" lon="-8.146352836812664"><ele>1206.0</ele><time>2026-04-27T11:08:39.002Z</time></trkpt><trkpt lat="31.014071556065378" lon="-8.14645686965959"><ele>1206.0</ele><time>2026-04-27T11:08:40.003Z</time></trkpt><trkpt lat="31.01396227696894" lon="-8.146585392058304"><ele>1209.3333333333333</ele><time>2026-04-27T11:08:41.003Z</time></trkpt><trkpt lat="31.01387205659158" lon="-8.146735006651175"><ele>1212.6666666666665</ele><time>2026-04-27T11:08:42.003Z</time></trkpt><trkpt lat="31.01379519723755" lon="-8.146901739195819"><ele>1216.0</ele><time>2026-04-27T11:08:43.003Z</time></trkpt><trkpt lat="31.01372490255328" lon="-8.147090633605464"><ele>1216.0</ele><time>2026-04-27T11:08:44.003Z</time></trkpt><trkpt lat="31.01364484758858" lon="-8.147296976766336"><ele>1216.0</ele><time>2026-04-27T11:08:45.003Z</time></trkpt><trkpt lat="31.013560162994843" lon="-8.14748472166502"><ele>1216.0</ele><time>2026-04-27T11:08:46.003Z</time></trkpt><trkpt lat="31.01346827667118" lon="-8.147698135533032"><ele>1222.6666666666665</ele><time>2026-04-27T11:08:47.003Z</time></trkpt><trkpt lat="31.013388893889967" lon="-8.147925300000171"><ele>1229.3333333333333</ele><time>2026-04-27T11:08:48.003Z</time></trkpt><trkpt lat="31.013324949930517" lon="-8.148151991379386"><ele>1236.0</ele><time>2026-04-27T11:08:49.003Z</time></trkpt><trkpt lat="31.013271828332968" lon="-8.148396894305327"><ele>1236.0</ele><time>2026-04-27T11:08:50.003Z</time></trkpt><trkpt lat="31.01322821351388" lon="-8.14865297708182"><ele>1236.0</ele><time>2026-04-27T11:08:51.001Z</time></trkpt><trkpt lat="31.01318432882886" lon="-8.148885968249596"><ele>1236.0</ele><time>2026-04-27T11:08:52.001Z</time></trkpt><trkpt lat="31.013133861258936" lon="-8.149114148183646"><ele>1227.6666666666667</ele><time>2026-04-27T11:08:53.001Z</time></trkpt><trkpt lat="31.013075144941165" lon="-8.149344274359935"><ele>1219.3333333333335</ele><time>2026-04-27T11:08:54.001Z</time></trkpt><trkpt lat="31.01300554876706" lon="-8.149577497220685"><ele>1211.0</ele><time>2026-04-27T11:08:55.001Z</time></trkpt><trkpt lat="31.012924997548694" lon="-8.14981000196218"><ele>1204.3333333333335</ele><time>2026-04-27T11:08:56.001Z</time></trkpt><trkpt lat="31.012839426054907" lon="-8.15005072050141"><ele>1197.6666666666667</ele><time>2026-04-27T11:08:57.001Z</time></trkpt><trkpt lat="31.012766649604426" lon="-8.150286848633105"><ele>1191.0</ele><time>2026-04-27T11:08:58.001Z</time></trkpt><trkpt lat="31.01270515912475" lon="-8.150534298656185"><ele>1183.5</ele><time>2026-04-27T11:08:59.001Z</time></trkpt><trkpt lat="31.01264090189921" lon="-8.150796877519449"><ele>1176.0</ele><time>2026-04-27T11:09:00.001Z</time></trkpt><trkpt lat="31.012582775837547" lon="-8.151059185913594"><ele>1176.0</ele><time>2026-04-27T11:09:01.001Z</time></trkpt><trkpt lat="31.012540217203497" lon="-8.151325254284584"><ele>1176.0</ele><time>2026-04-27T11:09:02.001Z</time></trkpt><trkpt lat="31.012520759229243" lon="-8.151603097220997"><ele>1172.5</ele><time>2026-04-27T11:09:03.001Z</time></trkpt><trkpt lat="31.012516905615936" lon="-8.151897332843568"><ele>1169.0</ele><time>2026-04-27T11:09:04.001Z</time></trkpt><trkpt lat="31.012526511281358" lon="-8.152183174298699"><ele>1170.3333333333335</ele><time>2026-04-27T11:09:05.001Z</time></trkpt><trkpt lat="31.01252608717557" lon="-8.152438668204757"><ele>1171.6666666666667</ele><time>2026-04-27T11:09:06.001Z</time></trkpt><trkpt lat="31.012514647879843" lon="-8.152672630808047"><ele>1173.0</ele><time>2026-04-27T11:09:07.001Z</time></trkpt><trkpt lat="31.01248295311154" lon="-8.152906687431477"><ele>1182.0</ele><time>2026-04-27T11:09:08.001Z</time></trkpt><trkpt lat="31.012429041553787" lon="-8.153145268586242"><ele>1191.0</ele><time>2026-04-27T11:09:09.001Z</time></trkpt><trkpt lat="31.01235034259848" lon="-8.153402184399146"><ele>1200.0</ele><time>2026-04-27T11:09:10.001Z</time></trkpt><trkpt lat="31.01224749471618" lon="-8.153662364695535"><ele>1200.0</ele><time>2026-04-27T11:09:11.001Z</time></trkpt><trkpt lat="31.012135566236083" lon="-8.15388896760049"><ele>1200.0</ele><time>2026-04-27T11:09:12.001Z</time></trkpt><trkpt lat="31.012028644980973" lon="-8.154080561256599"><ele>1200.0</ele><time>2026-04-27T11:09:13.001Z</time></trkpt><trkpt lat="31.011935640805564" lon="-8.154254108899774"><ele>1201.0</ele><time>2026-04-27T11:09:14.001Z</time></trkpt><trkpt lat="31.01185047203325" lon="-8.154399314283136"><ele>1202.0</ele><time>2026-04-27T11:09:15.001Z</time></trkpt><trkpt lat="31.01175323706675" lon="-8.154522458422166"><ele>1203.0</ele><time>2026-04-27T11:09:16.001Z</time></trkpt><trkpt lat="31.011638033379967" lon="-8.154616205056243"><ele>1204.0</ele><time>2026-04-27T11:09:17.001Z</time></trkpt><trkpt lat="31.011516329968426" lon="-8.154686469092146"><ele>1204.0</ele><time>2026-04-27T11:09:18.001Z</time></trkpt><trkpt lat="31.011377566554042" lon="-8.154716451259368"><ele>1204.0</ele><time>2026-04-27T11:09:19.001Z</time></trkpt><trkpt lat="31.01122485830112" lon="-8.15471635392948"><ele>1204.0</ele><time>2026-04-27T11:09:20.001Z</time></trkpt><trkpt lat="31.011044267360365" lon="-8.154685142000314"><ele>1204.0</ele><time>2026-04-27T11:09:21.001Z</time></trkpt><trkpt lat="31.01082690516473" lon="-8.154620653756911"><ele>1204.0</ele><time>2026-04-27T11:09:22.001Z</time></trkpt><trkpt lat="31.010584877354347" lon="-8.154552575071015"><ele>1202.0</ele><time>2026-04-27T11:09:23.001Z</time></trkpt><trkpt lat="31.010363366370825" lon="-8.154507125112977"><ele>1200.0</ele><time>2026-04-27T11:09:24.001Z</time></trkpt><trkpt lat="31.01016891971766" lon="-8.15447761215017"><ele>1198.0</ele><time>2026-04-27T11:09:25.001Z</time></trkpt><trkpt lat="31.00998988449942" lon="-8.154439083698055"><ele>1191.3333333333333</ele><time>2026-04-27T11:09:26.001Z</time></trkpt><trkpt lat="31.009826363890024" lon="-8.154376103695776"><ele>1184.6666666666667</ele><time>2026-04-27T11:09:27.001Z</time></trkpt><trkpt lat="31.009679512861847" lon="-8.154280540700531"><ele>1178.0</ele><time>2026-04-27T11:09:28.001Z</time></trkpt><trkpt lat="31.00953568386209" lon="-8.154143526041874"><ele>1183.6666666666667</ele><time>2026-04-27T11:09:29.001Z</time></trkpt><trkpt lat="31.009386347442344" lon="-8.153986838914124"><ele>1189.3333333333333</ele><time>2026-04-27T11:09:30.001Z</time></trkpt><trkpt lat="31.00923043874232" lon="-8.153855361795534"><ele>1195.0</ele><time>2026-04-27T11:09:31.001Z</time></trkpt><trkpt lat="31.009069608317436" lon="-8.153762039995087"><ele>1195.0</ele><time>2026-04-27T11:09:32.001Z</time></trkpt><trkpt lat="31.00890019311958" lon="-8.15369159147214"><ele>1195.0</ele><time>2026-04-27T11:09:33.001Z</time></trkpt><trkpt lat="31.008729231225" lon="-8.153629498835521"><ele>1195.0</ele><time>2026-04-27T11:09:34.001Z</time></trkpt><trkpt lat="31.008572120707058" lon="-8.153557085848501"><ele>1195.0</ele><time>2026-04-27T11:09:35.001Z</time></trkpt><trkpt lat="31.008409268192256" lon="-8.15344279248164"><ele>1195.0</ele><time>2026-04-27T11:09:36.001Z</time></trkpt><trkpt lat="31.00824588131398" lon="-8.153307364409768"><ele>1195.0</ele><time>2026-04-27T11:09:37.001Z</time></trkpt><trkpt lat="31.00809523157212" lon="-8.153184155153095"><ele>1200.3333333333333</ele><time>2026-04-27T11:09:38.001Z</time></trkpt><trkpt lat="31.00794452867531" lon="-8.153097998628635"><ele>1205.6666666666667</ele><time>2026-04-27T11:09:39.001Z</time></trkpt><trkpt lat="31.007788064203567" lon="-8.153028735642815"><ele>1211.0</ele><time>2026-04-27T11:09:40.001Z</time></trkpt><trkpt lat="31.007642504488018" lon="-8.152968443317308"><ele>1211.0</ele><time>2026-04-27T11:09:41.001Z</time></trkpt><trkpt lat="31.007505882290314" lon="-8.152910984864148"><ele>1211.0</ele><time>2026-04-27T11:09:42.001Z</time></trkpt><trkpt lat="31.00736906061542" lon="-8.152842997415128"><ele>1211.0</ele><time>2026-04-27T11:09:43.001Z</time></trkpt><trkpt lat="31.007257371742995" lon="-8.152782168336119"><ele>1211.0</ele><time>2026-04-27T11:09:44.001Z</time></trkpt><trkpt lat="31.007142496284278" lon="-8.152726510525051"><ele>1209.5</ele><time>2026-04-27T11:09:45.001Z</time></trkpt><trkpt lat="31.00702587074965" lon="-8.152690109241005"><ele>1208.0</ele><time>2026-04-27T11:09:46.001Z</time></trkpt><trkpt lat="31.006913303760502" lon="-8.152663261391579"><ele>1206.5</ele><time>2026-04-27T11:09:47.001Z</time></trkpt><trkpt lat="31.006792061747134" lon="-8.152650350992594"><ele>1205.0</ele><time>2026-04-27T11:09:48.001Z</time></trkpt><trkpt lat="31.006658424033997" lon="-8.152656303915814"><ele>1203.75</ele><time>2026-04-27T11:09:49.001Z</time></trkpt><trkpt lat="31.00651522616527" lon="-8.152675781832647"><ele>1202.5</ele><time>2026-04-27T11:09:50.001Z</time></trkpt><trkpt lat="31.006383061797393" lon="-8.15269896439806"><ele>1201.25</ele><time>2026-04-27T11:09:51.001Z</time></trkpt><trkpt lat="31.006263914251054" lon="-8.152710789434707"><ele>1200.0</ele><time>2026-04-27T11:09:52.001Z</time></trkpt><trkpt lat="31.006151006857475" lon="-8.152716594622056"><ele>1200.0</ele><time>2026-04-27T11:09:53.001Z</time></trkpt><trkpt lat="31.006033935488762" lon="-8.152720772059043"><ele>1200.0</ele><time>2026-04-27T11:09:54.001Z</time></trkpt><trkpt lat="31.005913926677806" lon="-8.15271670272663"><ele>1200.0</ele><time>2026-04-27T11:09:55.001Z</time></trkpt><trkpt lat="31.0058136565445" lon="-8.152696801990535"><ele>1200.0</ele><time>2026-04-27T11:09:56.001Z</time></trkpt><trkpt lat="31.005707353848937" lon="-8.152666723044467"><ele>1200.0</ele><time>2026-04-27T11:09:57.001Z</time></trkpt><trkpt lat="31.005586238373038" lon="-8.15263274853201"><ele>1203.6</ele><time>2026-04-27T11:09:58.001Z</time></trkpt><trkpt lat="31.005484121056007" lon="-8.15262009863562"><ele>1207.2</ele><time>2026-04-27T11:09:59.002Z</time></trkpt><trkpt lat="31.005404065045695" lon="-8.152633930763242"><ele>1210.8</ele><time>2026-04-27T11:10:00.002Z</time></trkpt><trkpt lat="31.005317374924516" lon="-8.152683443337878"><ele>1214.4</ele><time>2026-04-27T11:10:01.002Z</time></trkpt><trkpt lat="31.005211568237208" lon="-8.152750739023263"><ele>1218.0</ele><time>2026-04-27T11:10:02.002Z</time></trkpt><trkpt lat="31.005087615515656" lon="-8.152836931799863"><ele>1221.5</ele><time>2026-04-27T11:10:03.002Z</time></trkpt><trkpt lat="31.00496600880048" lon="-8.152895828597066"><ele>1225.0</ele><time>2026-04-27T11:10:04.002Z</time></trkpt><trkpt lat="31.004852806687055" lon="-8.152920280841256"><ele>1228.5</ele><time>2026-04-27T11:10:05.002Z</time></trkpt><trkpt lat="31.00474998047267" lon="-8.152937137760063"><ele>1232.0</ele><time>2026-04-27T11:10:06.002Z</time></trkpt><trkpt lat="31.004639947897516" lon="-8.15296084060043"><ele>1232.0</ele><time>2026-04-27T11:10:07.002Z</time></trkpt><trkpt lat="31.004512891744454" lon="-8.152999224888969"><ele>1232.0</ele><time>2026-04-27T11:10:08.002Z</time></trkpt><trkpt lat="31.0043628992535" lon="-8.15303934568597"><ele>1232.0</ele><time>2026-04-27T11:10:09.002Z</time></trkpt><trkpt lat="31.004218322156238" lon="-8.15307083726885"><ele>1232.0</ele><time>2026-04-27T11:10:10.002Z</time></trkpt><trkpt lat="31.004094366328278" lon="-8.15310917015738"><ele>1227.0</ele><time>2026-04-27T11:10:11.002Z</time></trkpt><trkpt lat="31.00398247683954" lon="-8.153175797812496"><ele>1222.0</ele><time>2026-04-27T11:10:12.002Z</time></trkpt><trkpt lat="31.003867003690548" lon="-8.153282551752204"><ele>1217.0</ele><time>2026-04-27T11:10:13.002Z</time></trkpt><trkpt lat="31.00374669208694" lon="-8.153414829697194"><ele>1212.0</ele><time>2026-04-27T11:10:14.002Z</time></trkpt><trkpt lat="31.003618190690993" lon="-8.153545963147641"><ele>1212.0</ele><time>2026-04-27T11:10:15.002Z</time></trkpt><trkpt lat="31.003483786624777" lon="-8.15366541079996"><ele>1212.0</ele><time>2026-04-27T11:10:16.002Z</time></trkpt><trkpt lat="31.00333245502936" lon="-8.153781416261767"><ele>1212.0</ele><time>2026-04-27T11:10:17.002Z</time></trkpt><trkpt lat="31.003180528932596" lon="-8.153892517802962"><ele>1215.3333333333333</ele><time>2026-04-27T11:10:18.002Z</time></trkpt><trkpt lat="31.003037957581935" lon="-8.154014230717928"><ele>1218.6666666666665</ele><time>2026-04-27T11:10:19.002Z</time></trkpt><trkpt lat="31.002907622676165" lon="-8.154161689147834"><ele>1222.0</ele><time>2026-04-27T11:10:20.002Z</time></trkpt><trkpt lat="31.002782271276615" lon="-8.154339134380557"><ele>1222.0</ele><time>2026-04-27T11:10:21.002Z</time></trkpt><trkpt lat="31.002667160770276" lon="-8.154533556074414"><ele>1222.0</ele><time>2026-04-27T11:10:22.002Z</time></trkpt><trkpt lat="31.002556056500097" lon="-8.154713636674895"><ele>1222.0</ele><time>2026-04-27T11:10:23.002Z</time></trkpt><trkpt lat="31.00245201043616" lon="-8.154859782507934"><ele>1215.25</ele><time>2026-04-27T11:10:24.002Z</time></trkpt><trkpt lat="31.00234616126532" lon="-8.15499058590237"><ele>1208.5</ele><time>2026-04-27T11:10:25.002Z</time></trkpt><trkpt lat="31.00224359923769" lon="-8.155096991435279"><ele>1201.75</ele><time>2026-04-27T11:10:26.002Z</time></trkpt><trkpt lat="31.002138285448186" lon="-8.155179274900204"><ele>1195.0</ele><time>2026-04-27T11:10:27.002Z</time></trkpt><trkpt lat="31.00202888782639" lon="-8.155244745579633"><ele>1195.0</ele><time>2026-04-27T11:10:28.002Z</time></trkpt><trkpt lat="31.00191459623613" lon="-8.155282062360794"><ele>1195.0</ele><time>2026-04-27T11:10:29.002Z</time></trkpt><trkpt lat="31.00178535282775" lon="-8.15528696496156"><ele>1195.0</ele><time>2026-04-27T11:10:30.002Z</time></trkpt><trkpt lat="31.001612840002906" lon="-8.155277289446154"><ele>1195.0</ele><time>2026-04-27T11:10:31.002Z</time></trkpt><trkpt lat="31.00142998687989" lon="-8.155247679182215"><ele>1195.25</ele><time>2026-04-27T11:10:32.002Z</time></trkpt><trkpt lat="31.001273431206464" lon="-8.155227308593819"><ele>1195.5</ele><time>2026-04-27T11:10:33.002Z</time></trkpt><trkpt lat="31.001131966746453" lon="-8.155230705470448"><ele>1195.75</ele><time>2026-04-27T11:10:34.002Z</time></trkpt><trkpt lat="31.00100281843704" lon="-8.155271798843845"><ele>1196.0</ele><time>2026-04-27T11:10:35.002Z</time></trkpt><trkpt lat="31.000866388420782" lon="-8.155341198048056"><ele>1196.6666666666667</ele><time>2026-04-27T11:10:36.002Z</time></trkpt><trkpt lat="31.0007305529611" lon="-8.155442399215499"><ele>1197.3333333333333</ele><time>2026-04-27T11:10:37.002Z</time></trkpt><trkpt lat="31.000591361149453" lon="-8.155579024699694"><ele>1198.0</ele><time>2026-04-27T11:10:38.002Z</time></trkpt><trkpt lat="31.00045552390682" lon="-8.155734798954352"><ele>1198.0</ele><time>2026-04-27T11:10:39.002Z</time></trkpt><trkpt lat="31.000327349205083" lon="-8.155889648419684"><ele>1198.0</ele><time>2026-04-27T11:10:40.002Z</time></trkpt><trkpt lat="31.000209445072866" lon="-8.156038218396034"><ele>1198.0</ele><time>2026-04-27T11:10:41.002Z</time></trkpt><trkpt lat="31.000098761643414" lon="-8.156175029554278"><ele>1198.0</ele><time>2026-04-27T11:10:42.002Z</time></trkpt><trkpt lat="30.999990885147042" lon="-8.15629059293464"><ele>1198.0</ele><time>2026-04-27T11:10:43.002Z</time></trkpt><trkpt lat="30.99987763841314" lon="-8.15639028073883"><ele>1198.0</ele><time>2026-04-27T11:10:44.002Z</time></trkpt><trkpt lat="30.99976638229523" lon="-8.156476149210144"><ele>1198.0</ele><time>2026-04-27T11:10:45.002Z</time></trkpt><trkpt lat="30.99966172454486" lon="-8.15654832173527"><ele>1195.0</ele><time>2026-04-27T11:10:46.003Z</time></trkpt><trkpt lat="30.99955897922045" lon="-8.15660981656131"><ele>1192.0</ele><time>2026-04-27T11:10:47.003Z</time></trkpt><trkpt lat="30.999447929900562" lon="-8.156671074292788"><ele>1189.0</ele><time>2026-04-27T11:10:48.003Z</time></trkpt><trkpt lat="30.999348408979845" lon="-8.156732325585693"><ele>1186.0</ele><time>2026-04-27T11:10:49.003Z</time></trkpt><trkpt lat="30.99925987170716" lon="-8.156782474003766"><ele>1183.0</ele><time>2026-04-27T11:10:50.003Z</time></trkpt><trkpt lat="30.999137982185477" lon="-8.15683640301273"><ele>1183.0</ele><time>2026-04-27T11:10:51.003Z</time></trkpt><trkpt lat="30.9989962992702" lon="-8.15688924678017"><ele>1183.0</ele><time>2026-04-27T11:10:52.003Z</time></trkpt><trkpt lat="30.998853944912216" lon="-8.156947427214163"><ele>1183.0</ele><time>2026-04-27T11:10:53.003Z</time></trkpt><trkpt lat="30.998718287169197" lon="-8.157005677400527"><ele>1183.0</ele><time>2026-04-27T11:10:54.003Z</time></trkpt><trkpt lat="30.998606601059368" lon="-8.15705877984693"><ele>1183.0</ele><time>2026-04-27T11:10:55.003Z</time></trkpt><trkpt lat="30.99851372619449" lon="-8.157105558410462"><ele>1183.0</ele><time>2026-04-27T11:10:56.003Z</time></trkpt><trkpt lat="30.99844237739581" lon="-8.15714857116893"><ele>1183.0</ele><time>2026-04-27T11:10:57.002Z</time></trkpt><trkpt lat="30.998370150581948" lon="-8.157259053029078"><ele>1183.0</ele><time>2026-04-27T11:10:59.002Z</time></trkpt><trkpt lat="30.99834043770134" lon="-8.157333944722042"><ele>1183.0</ele><time>2026-04-27T11:11:00.002Z</time></trkpt><trkpt lat="30.998321854976293" lon="-8.157411522346317"><ele>1183.0</ele><time>2026-04-27T11:11:01.002Z</time></trkpt><trkpt lat="30.99831214693362" lon="-8.157542875675224"><ele>1180.857142857143</ele><time>2026-04-27T11:11:03.002Z</time></trkpt><trkpt lat="30.99834354954691" lon="-8.157614756474558"><ele>1178.7142857142858</ele><time>2026-04-27T11:11:05.001Z</time></trkpt><trkpt lat="30.99836850544832" lon="-8.157703133931081"><ele>1176.5714285714284</ele><time>2026-04-27T11:11:43.001Z</time></trkpt><trkpt lat="30.998403366508732" lon="-8.157773772786243"><ele>1174.4285714285716</ele><time>2026-04-27T11:11:44.001Z</time></trkpt><trkpt lat="30.998459236308367" lon="-8.157827471320013"><ele>1172.2857142857142</ele><time>2026-04-27T11:11:45.001Z</time></trkpt><trkpt lat="30.998535549595996" lon="-8.15786771426869"><ele>1170.142857142857</ele><time>2026-04-27T11:11:46.001Z</time></trkpt><trkpt lat="30.998602038567856" lon="-8.157897209416644"><ele>1168.0</ele><time>2026-04-27T11:11:47.001Z</time></trkpt><trkpt lat="30.99866568528803" lon="-8.157918852169496"><ele>1168.0</ele><time>2026-04-27T11:11:48.001Z</time></trkpt><trkpt lat="30.998736782357383" lon="-8.157934000548877"><ele>1168.0</ele><time>2026-04-27T11:11:49.001Z</time></trkpt><trkpt lat="30.998808619387184" lon="-8.15794553116884"><ele>1168.0</ele><time>2026-04-27T11:11:50.001Z</time></trkpt><trkpt lat="30.998885687574408" lon="-8.157956056359389"><ele>1168.0</ele><time>2026-04-27T11:11:51.001Z</time></trkpt><trkpt lat="30.998962023007877" lon="-8.157968875154914"><ele>1168.0</ele><time>2026-04-27T11:11:52.001Z</time></trkpt><trkpt lat="30.999038085845424" lon="-8.157987287664561"><ele>1168.0</ele><time>2026-04-27T11:11:53.001Z</time></trkpt><trkpt lat="30.999112803082976" lon="-8.158009111231884"><ele>1167.6</ele><time>2026-04-27T11:11:54.001Z</time></trkpt><trkpt lat="30.999221702169848" lon="-8.158046949311215"><ele>1167.1999999999998</ele><time>2026-04-27T11:11:56.001Z</time></trkpt><trkpt lat="30.999339337638524" lon="-8.158087851818127"><ele>1166.8</ele><time>2026-04-27T11:11:58.001Z</time></trkpt><trkpt lat="30.99941813412307" lon="-8.158116113644223"><ele>1166.3999999999999</ele><time>2026-04-27T11:11:59.001Z</time></trkpt><trkpt lat="30.999489207521062" lon="-8.158145425707255"><ele>1166.0</ele><time>2026-04-27T11:12:00.001Z</time></trkpt><trkpt lat="30.99956165121704" lon="-8.158171177284249"><ele>1166.0</ele><time>2026-04-27T11:12:01.001Z</time></trkpt><trkpt lat="30.999623427624876" lon="-8.158192857713248"><ele>1166.0</ele><time>2026-04-27T11:12:02.001Z</time></trkpt><trkpt lat="30.99973933029988" lon="-8.158238610804393"><ele>1166.0</ele><time>2026-04-27T11:12:04.002Z</time></trkpt><trkpt lat="30.9998088929096" lon="-8.158282683398065"><ele>1166.0</ele><time>2026-04-27T11:12:05.002Z</time></trkpt><trkpt lat="30.999866633724398" lon="-8.158349643821177"><ele>1166.0</ele><time>2026-04-27T11:12:06.002Z</time></trkpt><trkpt lat="30.99990064638783" lon="-8.158424213388527"><ele>1166.0</ele><time>2026-04-27T11:12:07.002Z</time></trkpt><trkpt lat="30.99991603186464" lon="-8.158515517219614"><ele>1167.25</ele><time>2026-04-27T11:12:08.002Z</time></trkpt><trkpt lat="30.999906674916634" lon="-8.158622891239604"><ele>1168.5</ele><time>2026-04-27T11:12:09.002Z</time></trkpt><trkpt lat="30.99988332473364" lon="-8.158759044606045"><ele>1169.75</ele><time>2026-04-27T11:12:10.002Z</time></trkpt><trkpt lat="30.99985442904084" lon="-8.1589261929452"><ele>1171.0</ele><time>2026-04-27T11:12:11.002Z</time></trkpt><trkpt lat="30.999833533425267" lon="-8.159097322533855"><ele>1171.6666666666665</ele><time>2026-04-27T11:12:12.002Z</time></trkpt><trkpt lat="30.999819160460582" lon="-8.15927499950249"><ele>1172.3333333333333</ele><time>2026-04-27T11:12:13.002Z</time></trkpt><trkpt lat="30.999813111464736" lon="-8.159469491863879"><ele>1173.0</ele><time>2026-04-27T11:12:14.002Z</time></trkpt><trkpt lat="30.999817191446017" lon="-8.159664640803308"><ele>1173.0</ele><time>2026-04-27T11:12:15.002Z</time></trkpt><trkpt lat="30.999830454220255" lon="-8.159851126644046"><ele>1173.0</ele><time>2026-04-27T11:12:16.002Z</time></trkpt><trkpt lat="30.99982767831214" lon="-8.160038253567285"><ele>1173.0</ele><time>2026-04-27T11:12:17.002Z</time></trkpt><trkpt lat="30.99981104230378" lon="-8.160233188062909"><ele>1172.6666666666667</ele><time>2026-04-27T11:12:18.002Z</time></trkpt><trkpt lat="30.99976846324843" lon="-8.160448563937168"><ele>1172.3333333333335</ele><time>2026-04-27T11:12:19.002Z</time></trkpt><trkpt lat="30.999701482581827" lon="-8.160688187778344"><ele>1172.0</ele><time>2026-04-27T11:12:20.002Z</time></trkpt><trkpt lat="30.99962143357856" lon="-8.160959017314061"><ele>1172.0</ele><time>2026-04-27T11:12:21.002Z</time></trkpt><trkpt lat="30.999555834613172" lon="-8.161201104944253"><ele>1172.0</ele><time>2026-04-27T11:12:22.002Z</time></trkpt><trkpt lat="30.99950013638366" lon="-8.161417305119057"><ele>1172.0</ele><time>2026-04-27T11:12:23.002Z</time></trkpt><trkpt lat="30.999440323946267" lon="-8.161645441246923"><ele>1172.6666666666667</ele><time>2026-04-27T11:12:24.002Z</time></trkpt><trkpt lat="30.999385393922044" lon="-8.16185958179518"><ele>1173.3333333333333</ele><time>2026-04-27T11:12:25.002Z</time></trkpt><trkpt lat="30.99933519472912" lon="-8.162057280225074"><ele>1174.0</ele><time>2026-04-27T11:12:26.002Z</time></trkpt><trkpt lat="30.999285672073203" lon="-8.162265036014395"><ele>1173.6666666666665</ele><time>2026-04-27T11:12:27.002Z</time></trkpt><trkpt lat="30.99923369415842" lon="-8.162471992543926"><ele>1173.3333333333333</ele><time>2026-04-27T11:12:28.002Z</time></trkpt><trkpt lat="30.99917994517788" lon="-8.162683736996422"><ele>1173.0</ele><time>2026-04-27T11:12:29.002Z</time></trkpt><trkpt lat="30.999123999423897" lon="-8.162895269418135"><ele>1175.0</ele><time>2026-04-27T11:12:30.002Z</time></trkpt><trkpt lat="30.999071673849265" lon="-8.163100415614975"><ele>1177.0</ele><time>2026-04-27T11:12:31.002Z</time></trkpt><trkpt lat="30.999019301617814" lon="-8.16330907858026"><ele>1179.0</ele><time>2026-04-27T11:12:32.002Z</time></trkpt><trkpt lat="30.998965931066675" lon="-8.163529502065323"><ele>1179.0</ele><time>2026-04-27T11:12:33.002Z</time></trkpt><trkpt lat="30.998919374104947" lon="-8.163758314627085"><ele>1179.0</ele><time>2026-04-27T11:12:34.002Z</time></trkpt><trkpt lat="30.99888080544137" lon="-8.16398990758174"><ele>1179.0</ele><time>2026-04-27T11:12:35.002Z</time></trkpt><trkpt lat="30.99884779378021" lon="-8.164220394693961"><ele>1179.0</ele><time>2026-04-27T11:12:36.002Z</time></trkpt><trkpt lat="30.998820494003226" lon="-8.164443554552246"><ele>1179.0</ele><time>2026-04-27T11:12:37.002Z</time></trkpt><trkpt lat="30.998790420065994" lon="-8.164669747031006"><ele>1179.0</ele><time>2026-04-27T11:12:38.002Z</time></trkpt><trkpt lat="30.998754726413438" lon="-8.164902836599083"><ele>1179.0</ele><time>2026-04-27T11:12:39.002Z</time></trkpt><trkpt lat="30.998718140286392" lon="-8.16513617119629"><ele>1179.0</ele><time>2026-04-27T11:12:40.002Z</time></trkpt><trkpt lat="30.998684441895655" lon="-8.165368160225352"><ele>1179.0</ele><time>2026-04-27T11:12:41.002Z</time></trkpt><trkpt lat="30.99864872350038" lon="-8.165597677529583"><ele>1178.0</ele><time>2026-04-27T11:12:42.002Z</time></trkpt><trkpt lat="30.99861517673289" lon="-8.165831257338738"><ele>1177.0</ele><time>2026-04-27T11:12:43.002Z</time></trkpt><trkpt lat="30.99858637199758" lon="-8.16607439305612"><ele>1176.0</ele><time>2026-04-27T11:12:44.002Z</time></trkpt><trkpt lat="30.998560036735054" lon="-8.166321314184934"><ele>1175.0</ele><time>2026-04-27T11:12:45.002Z</time></trkpt><trkpt lat="30.99853752235737" lon="-8.166575337099784"><ele>1174.0</ele><time>2026-04-27T11:12:46.002Z</time></trkpt><trkpt lat="30.998509097333923" lon="-8.16683452447821"><ele>1173.0</ele><time>2026-04-27T11:12:47.002Z</time></trkpt><trkpt lat="30.998483029857248" lon="-8.167094215702122"><ele>1173.0</ele><time>2026-04-27T11:12:48.002Z</time></trkpt><trkpt lat="30.99846707139428" lon="-8.167349726090714"><ele>1173.0</ele><time>2026-04-27T11:12:49.002Z</time></trkpt><trkpt lat="30.998449203103352" lon="-8.167591691569056"><ele>1173.0</ele><time>2026-04-27T11:12:50.002Z</time></trkpt><trkpt lat="30.99843036006037" lon="-8.167822016372584"><ele>1172.0</ele><time>2026-04-27T11:12:51.002Z</time></trkpt><trkpt lat="30.998433289077607" lon="-8.168041333330587"><ele>1171.0</ele><time>2026-04-27T11:12:52.002Z</time></trkpt><trkpt lat="30.99842258327927" lon="-8.168245946673112"><ele>1170.0</ele><time>2026-04-27T11:12:53.002Z</time></trkpt><trkpt lat="30.99841198496487" lon="-8.168436787507934"><ele>1169.75</ele><time>2026-04-27T11:12:54.002Z</time></trkpt><trkpt lat="30.998404366758567" lon="-8.168604912907263"><ele>1169.5</ele><time>2026-04-27T11:12:55.002Z</time></trkpt><trkpt lat="30.998341604129575" lon="-8.168757114133799"><ele>1169.25</ele><time>2026-04-27T11:12:56.002Z</time></trkpt><trkpt lat="30.998249928680437" lon="-8.168881224809285"><ele>1169.0</ele><time>2026-04-27T11:12:57.002Z</time></trkpt><trkpt lat="30.998139592240822" lon="-8.169012696454256"><ele>1170.0</ele><time>2026-04-27T11:12:58.002Z</time></trkpt><trkpt lat="30.997991329591944" lon="-8.169139244222768"><ele>1171.0</ele><time>2026-04-27T11:12:59.002Z</time></trkpt><trkpt lat="30.99781296651329" lon="-8.16927464820838"><ele>1172.0</ele><time>2026-04-27T11:13:00.002Z</time></trkpt><trkpt lat="30.99764067455571" lon="-8.169418236405622"><ele>1173.3333333333335</ele><time>2026-04-27T11:13:01.002Z</time></trkpt><trkpt lat="30.9974861263022" lon="-8.169571925961995"><ele>1174.6666666666667</ele><time>2026-04-27T11:13:02.002Z</time></trkpt><trkpt lat="30.99733950236061" lon="-8.16973952776656"><ele>1176.0</ele><time>2026-04-27T11:13:03.001Z</time></trkpt><trkpt lat="30.997194513926548" lon="-8.169916573449623"><ele>1176.6666666666667</ele><time>2026-04-27T11:13:04.001Z</time></trkpt><trkpt lat="30.997051351248093" lon="-8.170092483805892"><ele>1177.3333333333335</ele><time>2026-04-27T11:13:05.001Z</time></trkpt><trkpt lat="30.996913613237755" lon="-8.170264584079462"><ele>1178.0</ele><time>2026-04-27T11:13:06.001Z</time></trkpt><trkpt lat="30.996779069589703" lon="-8.17042682035629"><ele>1179.0</ele><time>2026-04-27T11:13:07.001Z</time></trkpt><trkpt lat="30.99664160882205" lon="-8.170591187963451"><ele>1180.0</ele><time>2026-04-27T11:13:08.001Z</time></trkpt><trkpt lat="30.99650250573483" lon="-8.170755413181274"><ele>1181.0</ele><time>2026-04-27T11:13:09.001Z</time></trkpt><trkpt lat="30.99636688697638" lon="-8.170918505996832"><ele>1181.0</ele><time>2026-04-27T11:13:10.001Z</time></trkpt><trkpt lat="30.996236587324663" lon="-8.171072878878343"><ele>1181.0</ele><time>2026-04-27T11:13:11.001Z</time></trkpt><trkpt lat="30.99611029484145" lon="-8.171222032335638"><ele>1181.0</ele><time>2026-04-27T11:13:12.001Z</time></trkpt><trkpt lat="30.99599360756249" lon="-8.171363456524753"><ele>1181.0</ele><time>2026-04-27T11:13:13.001Z</time></trkpt><trkpt lat="30.99588828525804" lon="-8.171494179819788"><ele>1181.0</ele><time>2026-04-27T11:13:14.001Z</time></trkpt><trkpt lat="30.995789442595527" lon="-8.17162885622003"><ele>1181.0</ele><time>2026-04-27T11:13:15.001Z</time></trkpt><trkpt lat="30.995707879378163" lon="-8.171755509612364"><ele>1181.0</ele><time>2026-04-27T11:13:16.001Z</time></trkpt><trkpt lat="30.99563881338174" lon="-8.171879202613184"><ele>1181.25</ele><time>2026-04-27T11:13:17.001Z</time></trkpt><trkpt lat="30.9955729478033" lon="-8.17201842489568"><ele>1181.5</ele><time>2026-04-27T11:13:18.001Z</time></trkpt><trkpt lat="30.995510364315255" lon="-8.172174645649497"><ele>1181.75</ele><time>2026-04-27T11:13:19.001Z</time></trkpt><trkpt lat="30.995457250338315" lon="-8.172343064526684"><ele>1182.0</ele><time>2026-04-27T11:13:20.001Z</time></trkpt><trkpt lat="30.9954120667245" lon="-8.172515726507896"><ele>1182.6666666666667</ele><time>2026-04-27T11:13:21.001Z</time></trkpt><trkpt lat="30.995368505563373" lon="-8.172694274382563"><ele>1183.3333333333335</ele><time>2026-04-27T11:13:22.001Z</time></trkpt><trkpt lat="30.995330575956064" lon="-8.172875275190725"><ele>1184.0</ele><time>2026-04-27T11:13:23.001Z</time></trkpt><trkpt lat="30.99529201826086" lon="-8.173048474393244"><ele>1183.75</ele><time>2026-04-27T11:13:24.001Z</time></trkpt><trkpt lat="30.995248773061665" lon="-8.173219539795168"><ele>1183.5</ele><time>2026-04-27T11:13:25.001Z</time></trkpt><trkpt lat="30.995214956948505" lon="-8.17337152888212"><ele>1183.25</ele><time>2026-04-27T11:13:26.001Z</time></trkpt><trkpt lat="30.995185787749644" lon="-8.17351359468245"><ele>1183.0</ele><time>2026-04-27T11:13:27.001Z</time></trkpt><trkpt lat="30.995156485500825" lon="-8.173652099039863"><ele>1183.0</ele><time>2026-04-27T11:13:28.001Z</time></trkpt><trkpt lat="30.99511012185938" lon="-8.173789992257964"><ele>1183.0</ele><time>2026-04-27T11:13:29.001Z</time></trkpt><trkpt lat="30.995038439048212" lon="-8.173925107324182"><ele>1183.0</ele><time>2026-04-27T11:13:30.001Z</time></trkpt><trkpt lat="30.994948319520873" lon="-8.174048812599255"><ele>1183.0</ele><time>2026-04-27T11:13:31.001Z</time></trkpt><trkpt lat="30.994837089401624" lon="-8.174152770004715"><ele>1184.0</ele><time>2026-04-27T11:13:32.001Z</time></trkpt><trkpt lat="30.994714927880807" lon="-8.174239563658613"><ele>1185.0</ele><time>2026-04-27T11:13:33.001Z</time></trkpt><trkpt lat="30.994593590936997" lon="-8.174328559435533"><ele>1186.0</ele><time>2026-04-27T11:13:34.001Z</time></trkpt><trkpt lat="30.994483189967823" lon="-8.174419570956113"><ele>1187.0</ele><time>2026-04-27T11:13:35.001Z</time></trkpt><trkpt lat="30.99438145676094" lon="-8.174522002361675"><ele>1187.0</ele><time>2026-04-27T11:13:36.001Z</time></trkpt><trkpt lat="30.994281737282016" lon="-8.174642008152007"><ele>1187.0</ele><time>2026-04-27T11:13:37.001Z</time></trkpt><trkpt lat="30.994189528749587" lon="-8.174773630075368"><ele>1187.0</ele><time>2026-04-27T11:13:38.001Z</time></trkpt><trkpt lat="30.994109788667934" lon="-8.174916189365913"><ele>1187.0</ele><time>2026-04-27T11:13:39.001Z</time></trkpt><trkpt lat="30.99405252311416" lon="-8.175077178590085"><ele>1187.6666666666667</ele><time>2026-04-27T11:13:40.001Z</time></trkpt><trkpt lat="30.994012774663435" lon="-8.175259066197162"><ele>1188.3333333333333</ele><time>2026-04-27T11:13:41.001Z</time></trkpt><trkpt lat="30.993998626720725" lon="-8.175460326179605"><ele>1189.0</ele><time>2026-04-27T11:13:42.001Z</time></trkpt><trkpt lat="30.994016178851396" lon="-8.175671429163103"><ele>1188.0</ele><time>2026-04-27T11:13:43.001Z</time></trkpt><trkpt lat="30.994030767818042" lon="-8.175869821195107"><ele>1187.0</ele><time>2026-04-27T11:13:44.001Z</time></trkpt><trkpt lat="30.99401448129479" lon="-8.176073141033624"><ele>1186.0</ele><time>2026-04-27T11:13:45.001Z</time></trkpt><trkpt lat="30.99398365808438" lon="-8.17628057315714"><ele>1186.0</ele><time>2026-04-27T11:13:46.001Z</time></trkpt><trkpt lat="30.993944140694" lon="-8.176485370545441"><ele>1186.0</ele><time>2026-04-27T11:13:47.001Z</time></trkpt><trkpt lat="30.99389238555976" lon="-8.176693210272473"><ele>1186.0</ele><time>2026-04-27T11:13:48.001Z</time></trkpt><trkpt lat="30.993843242625527" lon="-8.176901567701895"><ele>1186.3333333333333</ele><time>2026-04-27T11:13:49.001Z</time></trkpt><trkpt lat="30.993802906337404" lon="-8.177104996554737"><ele>1186.6666666666667</ele><time>2026-04-27T11:13:50.001Z</time></trkpt><trkpt lat="30.99376565159109" lon="-8.177299790228306"><ele>1187.0</ele><time>2026-04-27T11:13:51.001Z</time></trkpt><trkpt lat="30.993729239286218" lon="-8.177494026514742"><ele>1188.3333333333335</ele><time>2026-04-27T11:13:52.001Z</time></trkpt><trkpt lat="30.99372346993198" lon="-8.17768599449953"><ele>1189.6666666666667</ele><time>2026-04-27T11:13:53.001Z</time></trkpt><trkpt lat="30.993795583041134" lon="-8.177872071499587"><ele>1191.0</ele><time>2026-04-27T11:13:54.001Z</time></trkpt><trkpt lat="30.993875123295556" lon="-8.178064773096944"><ele>1191.0</ele><time>2026-04-27T11:13:55.001Z</time></trkpt><trkpt lat="30.994005230660356" lon="-8.17824262025906"><ele>1191.0</ele><time>2026-04-27T11:13:56.001Z</time></trkpt><trkpt lat="30.994151394201655" lon="-8.178424242626129"><ele>1191.0</ele><time>2026-04-27T11:13:57.001Z</time></trkpt><trkpt lat="30.99429006866766" lon="-8.178607520932447"><ele>1191.0</ele><time>2026-04-27T11:13:58.001Z</time></trkpt><trkpt lat="30.994416607456394" lon="-8.178781825709446"><ele>1191.0</ele><time>2026-04-27T11:13:59.001Z</time></trkpt><trkpt lat="30.994529092863015" lon="-8.17894856579408"><ele>1191.0</ele><time>2026-04-27T11:14:00.001Z</time></trkpt><trkpt lat="30.994623092992754" lon="-8.179107079737774"><ele>1194.3333333333333</ele><time>2026-04-27T11:14:01.001Z</time></trkpt><trkpt lat="30.994717550595947" lon="-8.179266749093344"><ele>1197.6666666666665</ele><time>2026-04-27T11:14:02.001Z</time></trkpt><trkpt lat="30.99478715017371" lon="-8.179432949766465"><ele>1201.0</ele><time>2026-04-27T11:14:03.001Z</time></trkpt><trkpt lat="30.99487097385955" lon="-8.179583885111988"><ele>1201.0</ele><time>2026-04-27T11:14:04.001Z</time></trkpt><trkpt lat="30.994936864640685" lon="-8.179739125781763"><ele>1201.0</ele><time>2026-04-27T11:14:05.001Z</time></trkpt><trkpt lat="30.994985967502156" lon="-8.179903710016623"><ele>1201.0</ele><time>2026-04-27T11:14:06.001Z</time></trkpt><trkpt lat="30.99501351230264" lon="-8.180087180058681"><ele>1201.3333333333333</ele><time>2026-04-27T11:14:07.001Z</time></trkpt><trkpt lat="30.99501811916675" lon="-8.180285096134222"><ele>1201.6666666666667</ele><time>2026-04-27T11:14:08.001Z</time></trkpt><trkpt lat="30.994998955271885" lon="-8.180492898464527"><ele>1202.0</ele><time>2026-04-27T11:14:09.001Z</time></trkpt><trkpt lat="30.994973837216488" lon="-8.180712359767798"><ele>1203.0</ele><time>2026-04-27T11:14:10.001Z</time></trkpt><trkpt lat="30.994954630911508" lon="-8.180932657586915"><ele>1204.0</ele><time>2026-04-27T11:14:11.001Z</time></trkpt><trkpt lat="30.99493177505191" lon="-8.181143668985616"><ele>1205.0</ele><time>2026-04-27T11:14:12.001Z</time></trkpt><trkpt lat="30.994893378707072" lon="-8.181325806061697"><ele>1205.0</ele><time>2026-04-27T11:14:13.001Z</time></trkpt><trkpt lat="30.994831006320798" lon="-8.181476743318903"><ele>1205.0</ele><time>2026-04-27T11:14:14.001Z</time></trkpt><trkpt lat="30.994750255351146" lon="-8.181590544660539"><ele>1205.0</ele><time>2026-04-27T11:14:15.001Z</time></trkpt><trkpt lat="30.99465458947623" lon="-8.181699481512515"><ele>1205.0</ele><time>2026-04-27T11:14:16.001Z</time></trkpt><trkpt lat="30.994550375699703" lon="-8.181800033211012"><ele>1203.0</ele><time>2026-04-27T11:14:17.001Z</time></trkpt><trkpt lat="30.994435614926914" lon="-8.181889488833342"><ele>1201.0</ele><time>2026-04-27T11:14:18.001Z</time></trkpt><trkpt lat="30.99430185652271" lon="-8.181985849890456"><ele>1199.0</ele><time>2026-04-27T11:14:19.001Z</time></trkpt><trkpt lat="30.9941870925053" lon="-8.182078819986385"><ele>1197.0</ele><time>2026-04-27T11:14:20.001Z</time></trkpt><trkpt lat="30.994093358299065" lon="-8.18217216278659"><ele>1197.75</ele><time>2026-04-27T11:14:21.001Z</time></trkpt><trkpt lat="30.993999236047586" lon="-8.182278853273296"><ele>1198.5</ele><time>2026-04-27T11:14:22.001Z</time></trkpt><trkpt lat="30.99390222212016" lon="-8.182382247787915"><ele>1199.25</ele><time>2026-04-27T11:14:23.001Z</time></trkpt><trkpt lat="30.993803162096786" lon="-8.182483854394544"><ele>1200.0</ele><time>2026-04-27T11:14:24.001Z</time></trkpt><trkpt lat="30.99369727426248" lon="-8.18258987348018"><ele>1200.0</ele><time>2026-04-27T11:14:25.001Z</time></trkpt><trkpt lat="30.993598095068055" lon="-8.18266373999221"><ele>1200.0</ele><time>2026-04-27T11:14:26.001Z</time></trkpt><trkpt lat="30.993492561052598" lon="-8.182732398240212"><ele>1200.0</ele><time>2026-04-27T11:14:27.001Z</time></trkpt><trkpt lat="30.99340768565222" lon="-8.182817735458679"><ele>1200.0</ele><time>2026-04-27T11:14:28.001Z</time></trkpt><trkpt lat="30.993325641600546" lon="-8.1828743033274"><ele>1200.0</ele><time>2026-04-27T11:14:29.001Z</time></trkpt><trkpt lat="30.99325413227882" lon="-8.182942941138954"><ele>1204.0</ele><time>2026-04-27T11:14:30.001Z</time></trkpt><trkpt lat="30.993170206031067" lon="-8.182988338191794"><ele>1208.0</ele><time>2026-04-27T11:14:31.001Z</time></trkpt><trkpt lat="30.993070228974958" lon="-8.183015287321963"><ele>1212.0</ele><time>2026-04-27T11:14:32.001Z</time></trkpt><trkpt lat="30.99296363227663" lon="-8.183027173133638"><ele>1216.0</ele><time>2026-04-27T11:14:33.002Z</time></trkpt><trkpt lat="30.992843792753032" lon="-8.183043189971624"><ele>1220.0</ele><time>2026-04-27T11:14:34.002Z</time></trkpt><trkpt lat="30.99271992071503" lon="-8.18306957034294"><ele>1220.0</ele><time>2026-04-27T11:14:35.002Z</time></trkpt><trkpt lat="30.992582111310888" lon="-8.183096536665841"><ele>1220.0</ele><time>2026-04-27T11:14:36.002Z</time></trkpt><trkpt lat="30.992439250301125" lon="-8.183126358168293"><ele>1220.0</ele><time>2026-04-27T11:14:37.002Z</time></trkpt><trkpt lat="30.992289039609016" lon="-8.183154971043848"><ele>1220.0</ele><time>2026-04-27T11:14:38.002Z</time></trkpt><trkpt lat="30.992133909135234" lon="-8.183188627262018"><ele>1220.5</ele><time>2026-04-27T11:14:39.002Z</time></trkpt><trkpt lat="30.991980942909898" lon="-8.183221576339434"><ele>1221.0</ele><time>2026-04-27T11:14:40.002Z</time></trkpt><trkpt lat="30.991841936564747" lon="-8.183247021873688"><ele>1221.5</ele><time>2026-04-27T11:14:41.002Z</time></trkpt><trkpt lat="30.991712606751943" lon="-8.183274021075372"><ele>1222.0</ele><time>2026-04-27T11:14:42.002Z</time></trkpt><trkpt lat="30.991585222167565" lon="-8.183297149102629"><ele>1222.25</ele><time>2026-04-27T11:14:43.002Z</time></trkpt><trkpt lat="30.99145993921681" lon="-8.183319731980104"><ele>1222.5</ele><time>2026-04-27T11:14:44.002Z</time></trkpt><trkpt lat="30.99132408847738" lon="-8.183344547767758"><ele>1222.75</ele><time>2026-04-27T11:14:45.002Z</time></trkpt><trkpt lat="30.99118856580039" lon="-8.183374696887359"><ele>1223.0</ele><time>2026-04-27T11:14:46.002Z</time></trkpt><trkpt lat="30.991056304903992" lon="-8.183405694043271"><ele>1223.0</ele><time>2026-04-27T11:14:47.002Z</time></trkpt><trkpt lat="30.99092915761852" lon="-8.18343083181257"><ele>1223.0</ele><time>2026-04-27T11:14:48.002Z</time></trkpt><trkpt lat="30.99080451054389" lon="-8.18345399759901"><ele>1223.0</ele><time>2026-04-27T11:14:49.002Z</time></trkpt><trkpt lat="30.99067853543796" lon="-8.183475420929563"><ele>1223.0</ele><time>2026-04-27T11:14:50.002Z</time></trkpt><trkpt lat="30.99056614713394" lon="-8.183498651377043"><ele>1222.8</ele><time>2026-04-27T11:14:51.002Z</time></trkpt><trkpt lat="30.990464140714714" lon="-8.183520618002081"><ele>1222.6</ele><time>2026-04-27T11:14:52.002Z</time></trkpt><trkpt lat="30.990370140956273" lon="-8.183541212604762"><ele>1222.4</ele><time>2026-04-27T11:14:53.002Z</time></trkpt><trkpt lat="30.990282434582774" lon="-8.183557786652107"><ele>1222.2</ele><time>2026-04-27T11:14:54.002Z</time></trkpt><trkpt lat="30.99019356128692" lon="-8.18357610631458"><ele>1222.0</ele><time>2026-04-27T11:14:55.002Z</time></trkpt><trkpt lat="30.990102212186454" lon="-8.183595428706909"><ele>1222.0</ele><time>2026-04-27T11:14:56.002Z</time></trkpt><trkpt lat="30.99001173299678" lon="-8.183617204752672"><ele>1222.0</ele><time>2026-04-27T11:14:57.002Z</time></trkpt><trkpt lat="30.989915311147296" lon="-8.183639599988238"><ele>1222.0</ele><time>2026-04-27T11:14:58.002Z</time></trkpt><trkpt lat="30.9898144798475" lon="-8.183655865882082"><ele>1222.0</ele><time>2026-04-27T11:14:59.002Z</time></trkpt><trkpt lat="30.9897113465318" lon="-8.18367210305694"><ele>1222.0</ele><time>2026-04-27T11:15:00.002Z</time></trkpt><trkpt lat="30.989611529980262" lon="-8.183694326228675"><ele>1222.4</ele><time>2026-04-27T11:15:01.002Z</time></trkpt><trkpt lat="30.989509747794852" lon="-8.18371678289961"><ele>1222.8000000000002</ele><time>2026-04-27T11:15:02.002Z</time></trkpt><trkpt lat="30.98940641584192" lon="-8.183740122753232"><ele>1223.2</ele><time>2026-04-27T11:15:03.002Z</time></trkpt><trkpt lat="30.98930133440998" lon="-8.183762769981572"><ele>1223.6000000000001</ele><time>2026-04-27T11:15:04.002Z</time></trkpt><trkpt lat="30.98919145933014" lon="-8.183785812877051"><ele>1224.0</ele><time>2026-04-27T11:15:05.002Z</time></trkpt><trkpt lat="30.98908641133409" lon="-8.183806590269427"><ele>1225.2</ele><time>2026-04-27T11:15:06.002Z</time></trkpt><trkpt lat="30.98898085259093" lon="-8.183825913061861"><ele>1226.4</ele><time>2026-04-27T11:15:07.002Z</time></trkpt><trkpt lat="30.988880981432548" lon="-8.18384106859731"><ele>1227.6</ele><time>2026-04-27T11:15:08.002Z</time></trkpt><trkpt lat="30.988784029219012" lon="-8.1838647999309"><ele>1228.8</ele><time>2026-04-27T11:15:09.001Z</time></trkpt><trkpt lat="30.98870192817499" lon="-8.183925950740111"><ele>1230.0</ele><time>2026-04-27T11:15:10.001Z</time></trkpt><trkpt lat="30.988607503182042" lon="-8.184014630522435"><ele>1230.0</ele><time>2026-04-27T11:15:11.001Z</time></trkpt><trkpt lat="30.988547745978106" lon="-8.184136914882641"><ele>1230.0</ele><time>2026-04-27T11:15:12.001Z</time></trkpt><trkpt lat="30.988485123367067" lon="-8.184262517456263"><ele>1230.0</ele><time>2026-04-27T11:15:13.001Z</time></trkpt><trkpt lat="30.988416310774877" lon="-8.184398153153282"><ele>1230.0</ele><time>2026-04-27T11:15:14.001Z</time></trkpt><trkpt lat="30.9883651581945" lon="-8.1845335639701"><ele>1231.4</ele><time>2026-04-27T11:15:15.001Z</time></trkpt><trkpt lat="30.988315996729416" lon="-8.184663704367408"><ele>1232.8</ele><time>2026-04-27T11:15:16.001Z</time></trkpt><trkpt lat="30.988271586197357" lon="-8.184781268353312"><ele>1234.2</ele><time>2026-04-27T11:15:17.001Z</time></trkpt><trkpt lat="30.988233127701232" lon="-8.184883757117456"><ele>1235.6</ele><time>2026-04-27T11:15:18.001Z</time></trkpt><trkpt lat="30.988204256014097" lon="-8.184960659790697"><ele>1237.0</ele><time>2026-04-27T11:15:19.001Z</time></trkpt><trkpt lat="30.988174650289398" lon="-8.18504125792013"><ele>1237.0</ele><time>2026-04-27T11:15:21.001Z</time></trkpt><trkpt lat="30.98806281908743" lon="-8.184966115473971"><ele>1237.0</ele><time>2026-04-27T11:15:30.001Z</time></trkpt><trkpt lat="30.98814703996673" lon="-8.184870764580145"><ele>1237.0</ele><time>2026-04-27T11:15:32.001Z</time></trkpt><trkpt lat="30.98817993232593" lon="-8.184795481822855"><ele>1237.0</ele><time>2026-04-27T11:15:33.001Z</time></trkpt><trkpt lat="30.988221454020923" lon="-8.184728251540013"><ele>1237.0</ele><time>2026-04-27T11:15:34.001Z</time></trkpt><trkpt lat="30.988274274932884" lon="-8.18464098554051"><ele>1237.0</ele><time>2026-04-27T11:15:35.001Z</time></trkpt><trkpt lat="30.988324563911117" lon="-8.184547593747142"><ele>1237.0</ele><time>2026-04-27T11:15:36.001Z</time></trkpt><trkpt lat="30.988373786429634" lon="-8.184439854791249"><ele>1237.0</ele><time>2026-04-27T11:15:37.001Z</time></trkpt><trkpt lat="30.988422475709058" lon="-8.184329083914474"><ele>1237.0</ele><time>2026-04-27T11:15:38.001Z</time></trkpt><trkpt lat="30.98846843716351" lon="-8.184227928752318"><ele>1237.0</ele><time>2026-04-27T11:15:39.001Z</time></trkpt><trkpt lat="30.988504915937078" lon="-8.184132862849982"><ele>1235.6</ele><time>2026-04-27T11:15:40.001Z</time></trkpt><trkpt lat="30.988540290869977" lon="-8.184033272310725"><ele>1234.2</ele><time>2026-04-27T11:15:41.001Z</time></trkpt><trkpt lat="30.98858917587573" lon="-8.183953239627707"><ele>1232.8</ele><time>2026-04-27T11:15:42.001Z</time></trkpt><trkpt lat="30.988652941450336" lon="-8.183885639982414"><ele>1231.4</ele><time>2026-04-27T11:15:43.001Z</time></trkpt><trkpt lat="30.98873327850267" lon="-8.183822729016946"><ele>1230.0</ele><time>2026-04-27T11:15:44.001Z</time></trkpt><trkpt lat="30.988829097218865" lon="-8.183773164927397"><ele>1230.0</ele><time>2026-04-27T11:15:45.001Z</time></trkpt><trkpt lat="30.988945938033297" lon="-8.183747962803972"><ele>1230.0</ele><time>2026-04-27T11:15:46.001Z</time></trkpt><trkpt lat="30.989073769564076" lon="-8.183741044108189"><ele>1230.0</ele><time>2026-04-27T11:15:47.001Z</time></trkpt><trkpt lat="30.989195261804543" lon="-8.183716668944824"><ele>1230.0</ele><time>2026-04-27T11:15:48.001Z</time></trkpt><trkpt lat="30.989303547669593" lon="-8.18369454289509"><ele>1228.5</ele><time>2026-04-27T11:15:49.001Z</time></trkpt><trkpt lat="30.989425800235832" lon="-8.183673236007408"><ele>1227.0</ele><time>2026-04-27T11:15:50.001Z</time></trkpt><trkpt lat="30.98954888571875" lon="-8.183655554408148"><ele>1225.5</ele><time>2026-04-27T11:15:51.001Z</time></trkpt><trkpt lat="30.989667379354923" lon="-8.18363416891909"><ele>1224.0</ele><time>2026-04-27T11:15:52.001Z</time></trkpt><trkpt lat="30.989777791589784" lon="-8.183612027279475"><ele>1224.0</ele><time>2026-04-27T11:15:53.001Z</time></trkpt><trkpt lat="30.98988664673176" lon="-8.18358879522886"><ele>1224.0</ele><time>2026-04-27T11:15:54.001Z</time></trkpt><trkpt lat="30.989997838206843" lon="-8.183565455743416"><ele>1224.0</ele><time>2026-04-27T11:15:55.001Z</time></trkpt><trkpt lat="30.99011028170759" lon="-8.1835403590507"><ele>1224.0</ele><time>2026-04-27T11:15:56.001Z</time></trkpt><trkpt lat="30.99022188998937" lon="-8.183514930668144"><ele>1223.6000000000001</ele><time>2026-04-27T11:15:57.001Z</time></trkpt><trkpt lat="30.99034096624845" lon="-8.183492696587285"><ele>1223.2</ele><time>2026-04-27T11:15:58.001Z</time></trkpt><trkpt lat="30.990445103604905" lon="-8.183471788327173"><ele>1222.8000000000002</ele><time>2026-04-27T11:15:59.001Z</time></trkpt><trkpt lat="30.99054674912765" lon="-8.183450541765717"><ele>1222.4</ele><time>2026-04-27T11:16:00.001Z</time></trkpt><trkpt lat="30.990651055736457" lon="-8.183430510206625"><ele>1222.0</ele><time>2026-04-27T11:16:01.001Z</time></trkpt><trkpt lat="30.99075820742054" lon="-8.183409541685103"><ele>1222.25</ele><time>2026-04-27T11:16:02.001Z</time></trkpt><trkpt lat="30.99086938655791" lon="-8.18338898058568"><ele>1222.5</ele><time>2026-04-27T11:16:03.001Z</time></trkpt><trkpt lat="30.99098447617105" lon="-8.183367586461864"><ele>1222.75</ele><time>2026-04-27T11:16:04.001Z</time></trkpt><trkpt lat="30.9911068930686" lon="-8.183346732231794"><ele>1223.0</ele><time>2026-04-27T11:16:05.001Z</time></trkpt><trkpt lat="30.99123669281262" lon="-8.183322404884308"><ele>1223.0</ele><time>2026-04-27T11:16:06.001Z</time></trkpt><trkpt lat="30.991354983089245" lon="-8.183296349067014"><ele>1223.0</ele><time>2026-04-27T11:16:07.001Z</time></trkpt><trkpt lat="30.991471016519064" lon="-8.183272211475469"><ele>1223.0</ele><time>2026-04-27T11:16:08.001Z</time></trkpt><trkpt lat="30.99159021727474" lon="-8.183246396831445"><ele>1223.0</ele><time>2026-04-27T11:16:09.001Z</time></trkpt><trkpt lat="30.991709883331936" lon="-8.183223401442389"><ele>1222.75</ele><time>2026-04-27T11:16:10.001Z</time></trkpt><trkpt lat="30.991831275339614" lon="-8.183201755814428"><ele>1222.5</ele><time>2026-04-27T11:16:11.001Z</time></trkpt><trkpt lat="30.991951209622602" lon="-8.183178329628165"><ele>1222.25</ele><time>2026-04-27T11:16:12.001Z</time></trkpt><trkpt lat="30.99207787309885" lon="-8.18315234257536"><ele>1222.0</ele><time>2026-04-27T11:16:13.001Z</time></trkpt><trkpt lat="30.992206059364143" lon="-8.183126071200439"><ele>1222.0</ele><time>2026-04-27T11:16:14.001Z</time></trkpt><trkpt lat="30.992328094033812" lon="-8.183097241778656"><ele>1222.0</ele><time>2026-04-27T11:16:15.001Z</time></trkpt><trkpt lat="30.992440421395738" lon="-8.183071488223888"><ele>1222.0</ele><time>2026-04-27T11:16:16.001Z</time></trkpt><trkpt lat="30.9925442830434" lon="-8.183050852591467"><ele>1222.0</ele><time>2026-04-27T11:16:17.001Z</time></trkpt><trkpt lat="30.992651707339157" lon="-8.183030010572146"><ele>1221.6666666666665</ele><time>2026-04-27T11:16:18.001Z</time></trkpt><trkpt lat="30.992756743342174" lon="-8.18301093248692"><ele>1221.3333333333333</ele><time>2026-04-27T11:16:19.001Z</time></trkpt><trkpt lat="30.9928492130922" lon="-8.182986098417212"><ele>1221.0</ele><time>2026-04-27T11:16:20.001Z</time></trkpt><trkpt lat="30.99293642946942" lon="-8.182967567939308"><ele>1220.6666666666667</ele><time>2026-04-27T11:16:21.001Z</time></trkpt><trkpt lat="30.99301986843004" lon="-8.182945051170757"><ele>1220.3333333333335</ele><time>2026-04-27T11:16:22.001Z</time></trkpt><trkpt lat="30.993090666291383" lon="-8.182924708874499"><ele>1220.0</ele><time>2026-04-27T11:16:23.001Z</time></trkpt><trkpt lat="30.993154293885134" lon="-8.182908792540411"><ele>1220.0</ele><time>2026-04-27T11:16:24.001Z</time></trkpt><trkpt lat="30.993257501085342" lon="-8.182879928968468"><ele>1220.0</ele><time>2026-04-27T11:16:26.001Z</time></trkpt><trkpt lat="30.99327027826788" lon="-8.183062657682177"><ele>1220.0</ele><time>2026-04-27T11:16:30.001Z</time></trkpt><trkpt lat="30.993232577468465" lon="-8.183142106849875"><ele>1220.0</ele><time>2026-04-27T11:16:31.001Z</time></trkpt><trkpt lat="30.993130264352985" lon="-8.183173491802917"><ele>1220.0</ele><time>2026-04-27T11:16:33.001Z</time></trkpt><trkpt lat="30.993058455021018" lon="-8.183230598670567"><ele>1218.3333333333335</ele><time>2026-04-27T11:16:34.001Z</time></trkpt><trkpt lat="30.992973172233384" lon="-8.183296262681981"><ele>1216.6666666666667</ele><time>2026-04-27T11:16:35.001Z</time></trkpt><trkpt lat="30.992914734544787" lon="-8.183348030959515"><ele>1215.0</ele><time>2026-04-27T11:16:36.001Z</time></trkpt><trkpt lat="30.992840966773763" lon="-8.18341244096951"><ele>1213.3333333333333</ele><time>2026-04-27T11:16:37.001Z</time></trkpt><trkpt lat="30.992771182126138" lon="-8.183473480245736"><ele>1211.6666666666665</ele><time>2026-04-27T11:16:38.001Z</time></trkpt><trkpt lat="30.99271228728336" lon="-8.183524688717062"><ele>1210.0</ele><time>2026-04-27T11:16:39.001Z</time></trkpt><trkpt lat="30.9926493381269" lon="-8.183579407216067"><ele>1210.0</ele><time>2026-04-27T11:16:40.001Z</time></trkpt><trkpt lat="30.992572615259967" lon="-8.183646096996553"><ele>1210.0</ele><time>2026-04-27T11:16:41.001Z</time></trkpt><trkpt lat="30.99250473887374" lon="-8.183700972757988"><ele>1210.0</ele><time>2026-04-27T11:16:42.001Z</time></trkpt><trkpt lat="30.992426294678964" lon="-8.183765807641219"><ele>1210.0</ele><time>2026-04-27T11:16:43.001Z</time></trkpt><trkpt lat="30.992343506099488" lon="-8.183833815434019"><ele>1210.0</ele><time>2026-04-27T11:16:44.001Z</time></trkpt><trkpt lat="30.99224790637634" lon="-8.183910871395558"><ele>1210.5</ele><time>2026-04-27T11:16:45.001Z</time></trkpt><trkpt lat="30.992096821736837" lon="-8.184015725317709"><ele>1211.0</ele><time>2026-04-27T11:16:46.001Z</time></trkpt><trkpt lat="30.992001572882106" lon="-8.184126933298247"><ele>1211.5</ele><time>2026-04-27T11:16:47.001Z</time></trkpt><trkpt lat="30.991911490193946" lon="-8.184234640885625"><ele>1212.0</ele><time>2026-04-27T11:16:48.001Z</time></trkpt><trkpt lat="30.991823933722586" lon="-8.18434088042585"><ele>1212.0</ele><time>2026-04-27T11:16:49.001Z</time></trkpt><trkpt lat="30.991734560346682" lon="-8.184459216045664"><ele>1212.0</ele><time>2026-04-27T11:16:50.001Z</time></trkpt><trkpt lat="30.991652716667296" lon="-8.184567529081013"><ele>1212.0</ele><time>2026-04-27T11:16:51.001Z</time></trkpt><trkpt lat="30.991560158282283" lon="-8.184710013904448"><ele>1212.0</ele><time>2026-04-27T11:16:52.001Z</time></trkpt><trkpt lat="30.991511142618872" lon="-8.184781878477517"><ele>1212.0</ele><time>2026-04-27T11:16:53.002Z</time></trkpt><trkpt lat="30.991402427029964" lon="-8.18490967278823"><ele>1212.0</ele><time>2026-04-27T11:16:54.002Z</time></trkpt><trkpt lat="30.99131852858308" lon="-8.185017762536773"><ele>1212.0</ele><time>2026-04-27T11:16:55.002Z</time></trkpt><trkpt lat="30.991242192237056" lon="-8.185116531065242"><ele>1212.0</ele><time>2026-04-27T11:16:56.002Z</time></trkpt><trkpt lat="30.991162786221953" lon="-8.185233081814447"><ele>1212.0</ele><time>2026-04-27T11:16:57.002Z</time></trkpt><trkpt lat="30.991093488352348" lon="-8.1853307134318"><ele>1212.0</ele><time>2026-04-27T11:16:58.002Z</time></trkpt><trkpt lat="30.99103172380617" lon="-8.185417732330462"><ele>1212.0</ele><time>2026-04-27T11:16:59.002Z</time></trkpt><trkpt lat="30.99097045175248" lon="-8.185504057375258"><ele>1212.0</ele><time>2026-04-27T11:17:00.002Z</time></trkpt><trkpt lat="30.990906598498015" lon="-8.185594019025151"><ele>1212.0</ele><time>2026-04-27T11:17:01.002Z</time></trkpt><trkpt lat="30.990952936829466" lon="-8.185770003753248"><ele>1211.25</ele><time>2026-04-27T11:17:02.002Z</time></trkpt><trkpt lat="30.990876398849647" lon="-8.18583052145953"><ele>1210.5</ele><time>2026-04-27T11:17:03.002Z</time></trkpt><trkpt lat="30.990795491072937" lon="-8.185929541983793"><ele>1209.75</ele><time>2026-04-27T11:17:04.002Z</time></trkpt><trkpt lat="30.990740532935213" lon="-8.186101491244544"><ele>1209.0</ele><time>2026-04-27T11:17:05.002Z</time></trkpt><trkpt lat="30.990629009884827" lon="-8.186214062491814"><ele>1209.0</ele><time>2026-04-27T11:17:06.002Z</time></trkpt><trkpt lat="30.99051904615706" lon="-8.186324089770842"><ele>1209.0</ele><time>2026-04-27T11:17:07.002Z</time></trkpt><trkpt lat="30.990412505682382" lon="-8.186432850895008"><ele>1209.0</ele><time>2026-04-27T11:17:08.002Z</time></trkpt><trkpt lat="30.990319344120827" lon="-8.18652969878376"><ele>1209.0</ele><time>2026-04-27T11:17:09.002Z</time></trkpt><trkpt lat="30.990236775004252" lon="-8.186615640046258"><ele>1209.5</ele><time>2026-04-27T11:17:10.002Z</time></trkpt><trkpt lat="30.99015818120988" lon="-8.186697510420593"><ele>1210.0</ele><time>2026-04-27T11:17:11.002Z</time></trkpt><trkpt lat="30.99009112514677" lon="-8.186762918952505"><ele>1210.5</ele><time>2026-04-27T11:17:12.002Z</time></trkpt><trkpt lat="30.990035780786563" lon="-8.186816903482084"><ele>1211.0</ele><time>2026-04-27T11:17:13.002Z</time></trkpt><trkpt lat="30.98996934258192" lon="-8.186882121625876"><ele>1211.5</ele><time>2026-04-27T11:17:15.001Z</time></trkpt><trkpt lat="30.989912098151162" lon="-8.186957136479261"><ele>1212.0</ele><time>2026-04-27T11:17:18.001Z</time></trkpt><trkpt lat="30.989863179514707" lon="-8.187021240958948"><ele>1212.0</ele><time>2026-04-27T11:17:21.001Z</time></trkpt><trkpt lat="30.989799665555115" lon="-8.187123907393886"><ele>1212.0</ele><time>2026-04-27T11:20:19.001Z</time></trkpt><trkpt lat="30.989763129929234" lon="-8.187185430691075"><ele>1212.0</ele><time>2026-04-27T11:20:21.001Z</time></trkpt><trkpt lat="30.989713405421547" lon="-8.187271180159673"><ele>1212.0</ele><time>2026-04-27T11:20:28.001Z</time></trkpt><trkpt lat="30.989665574322565" lon="-8.187388893710521"><ele>1212.0</ele><time>2026-04-27T11:20:30.001Z</time></trkpt><trkpt lat="30.9896278635221" lon="-8.187467709481043"><ele>1210.0</ele><time>2026-04-27T11:20:33.001Z</time></trkpt><trkpt lat="30.98959748201477" lon="-8.18755897351727"><ele>1208.0</ele><time>2026-04-27T11:20:42.001Z</time></trkpt><trkpt lat="30.989568240416457" lon="-8.18762886156823"><ele>1206.0</ele><time>2026-04-27T11:20:45.001Z</time></trkpt><trkpt lat="30.989489012147367" lon="-8.187782619564402"><ele>1204.0</ele><time>2026-04-27T11:20:47.001Z</time></trkpt><trkpt lat="30.989450640726012" lon="-8.187881417126945"><ele>1202.0</ele><time>2026-04-27T11:20:48.001Z</time></trkpt><trkpt lat="30.98940887363103" lon="-8.188003076603687"><ele>1202.0</ele><time>2026-04-27T11:20:49.001Z</time></trkpt><trkpt lat="30.989366708570543" lon="-8.188136628380528"><ele>1202.0</ele><time>2026-04-27T11:20:50.001Z</time></trkpt><trkpt lat="30.989324657074352" lon="-8.188291773728453"><ele>1202.0</ele><time>2026-04-27T11:20:51.001Z</time></trkpt><trkpt lat="30.98928110267461" lon="-8.188477086423614"><ele>1202.0</ele><time>2026-04-27T11:20:52.001Z</time></trkpt><trkpt lat="30.98922862204573" lon="-8.188700126962225"><ele>1202.25</ele><time>2026-04-27T11:20:53.001Z</time></trkpt><trkpt lat="30.989181455399457" lon="-8.188891187195278"><ele>1202.5</ele><time>2026-04-27T11:20:54.001Z</time></trkpt><trkpt lat="30.989134364241757" lon="-8.189047310707489"><ele>1202.75</ele><time>2026-04-27T11:20:55.001Z</time></trkpt><trkpt lat="30.989096522395577" lon="-8.189181721497354"><ele>1203.0</ele><time>2026-04-27T11:20:56.001Z</time></trkpt><trkpt lat="30.98906823880912" lon="-8.189311686698012"><ele>1204.6666666666667</ele><time>2026-04-27T11:20:57.001Z</time></trkpt><trkpt lat="30.989048584257898" lon="-8.189462866468274"><ele>1206.3333333333335</ele><time>2026-04-27T11:20:58.001Z</time></trkpt><trkpt lat="30.98903254083722" lon="-8.189640491261331"><ele>1208.0</ele><time>2026-04-27T11:20:59.001Z</time></trkpt><trkpt lat="30.98902402090388" lon="-8.18984103033876"><ele>1208.0</ele><time>2026-04-27T11:21:00.001Z</time></trkpt><trkpt lat="30.989025950699713" lon="-8.190047769090794"><ele>1208.0</ele><time>2026-04-27T11:21:01.001Z</time></trkpt><trkpt lat="30.989052031940183" lon="-8.190254794676123"><ele>1208.0</ele><time>2026-04-27T11:21:02.001Z</time></trkpt><trkpt lat="30.989055064298363" lon="-8.190477125816244"><ele>1208.3333333333335</ele><time>2026-04-27T11:21:03.001Z</time></trkpt><trkpt lat="30.989084210606883" lon="-8.190706328401765"><ele>1208.6666666666667</ele><time>2026-04-27T11:21:04.001Z</time></trkpt><trkpt lat="30.989119816081402" lon="-8.190953743317504"><ele>1209.0</ele><time>2026-04-27T11:21:05.001Z</time></trkpt><trkpt lat="30.98916078898" lon="-8.191180761202444"><ele>1207.6666666666667</ele><time>2026-04-27T11:21:06.001Z</time></trkpt><trkpt lat="30.989209381563246" lon="-8.191389618001896"><ele>1206.3333333333335</ele><time>2026-04-27T11:21:07.001Z</time></trkpt><trkpt lat="30.98926093074144" lon="-8.191611741753881"><ele>1205.0</ele><time>2026-04-27T11:21:08.001Z</time></trkpt><trkpt lat="30.98931986148456" lon="-8.191816342183142"><ele>1205.0</ele><time>2026-04-27T11:21:09.001Z</time></trkpt><trkpt lat="30.989398621404156" lon="-8.192000712599201"><ele>1205.0</ele><time>2026-04-27T11:21:10.001Z</time></trkpt><trkpt lat="30.98947426625989" lon="-8.19219044924285"><ele>1205.0</ele><time>2026-04-27T11:21:11.001Z</time></trkpt><trkpt lat="30.989553118112266" lon="-8.192404645059867"><ele>1205.6666666666667</ele><time>2026-04-27T11:21:12.001Z</time></trkpt><trkpt lat="30.989625027891904" lon="-8.192599672156764"><ele>1206.3333333333333</ele><time>2026-04-27T11:21:13.001Z</time></trkpt><trkpt lat="30.989693907868347" lon="-8.192787294709579"><ele>1207.0</ele><time>2026-04-27T11:21:14.001Z</time></trkpt><trkpt lat="30.98975089786559" lon="-8.192986543452747"><ele>1207.0</ele><time>2026-04-27T11:21:15.001Z</time></trkpt><trkpt lat="30.989817551166173" lon="-8.19315136541499"><ele>1207.0</ele><time>2026-04-27T11:21:16.001Z</time></trkpt><trkpt lat="30.989894389743036" lon="-8.193284893270532"><ele>1207.0</ele><time>2026-04-27T11:21:17.001Z</time></trkpt><trkpt lat="30.989947273265358" lon="-8.193405099506283"><ele>1207.0</ele><time>2026-04-27T11:21:18.001Z</time></trkpt><trkpt lat="30.99000128922548" lon="-8.193540238894196"><ele>1207.25</ele><time>2026-04-27T11:21:19.001Z</time></trkpt><trkpt lat="30.99003708500167" lon="-8.193686561812306"><ele>1207.5</ele><time>2026-04-27T11:21:20.001Z</time></trkpt><trkpt lat="30.99009631487533" lon="-8.193832365978366"><ele>1207.75</ele><time>2026-04-27T11:21:21.001Z</time></trkpt><trkpt lat="30.99013715705217" lon="-8.193991795338217"><ele>1208.0</ele><time>2026-04-27T11:21:22.001Z</time></trkpt><trkpt lat="30.990176777714126" lon="-8.194182677510232"><ele>1208.0</ele><time>2026-04-27T11:21:23.001Z</time></trkpt><trkpt lat="30.990221453794955" lon="-8.194411066165365"><ele>1208.0</ele><time>2026-04-27T11:21:24.001Z</time></trkpt><trkpt lat="30.99026627508673" lon="-8.194628397344593"><ele>1208.0</ele><time>2026-04-27T11:21:25.001Z</time></trkpt><trkpt lat="30.990303077842384" lon="-8.194811805878663"><ele>1208.5</ele><time>2026-04-27T11:21:26.001Z</time></trkpt><trkpt lat="30.99033456930297" lon="-8.194973888641591"><ele>1209.0</ele><time>2026-04-27T11:21:26.999Z</time></trkpt><trkpt lat="30.990367806095588" lon="-8.19512298502867"><ele>1209.5</ele><time>2026-04-27T11:21:27.999Z</time></trkpt><trkpt lat="30.990401688527527" lon="-8.195262458068978"><ele>1210.0</ele><time>2026-04-27T11:21:28.999Z</time></trkpt><trkpt lat="30.990433594607733" lon="-8.195394536305024"><ele>1210.0</ele><time>2026-04-27T11:21:29.999Z</time></trkpt><trkpt lat="30.990464172522422" lon="-8.195537473835003"><ele>1210.0</ele><time>2026-04-27T11:21:30.999Z</time></trkpt><trkpt lat="30.990494280701405" lon="-8.195680154860876"><ele>1210.0</ele><time>2026-04-27T11:21:31.999Z</time></trkpt><trkpt lat="30.990521897516903" lon="-8.19582529681782"><ele>1210.0</ele><time>2026-04-27T11:21:32.999Z</time></trkpt><trkpt lat="30.99054399450731" lon="-8.195975649885527"><ele>1210.0</ele><time>2026-04-27T11:21:33.999Z</time></trkpt><trkpt lat="30.99057333378099" lon="-8.196128837429809"><ele>1210.0</ele><time>2026-04-27T11:21:34.999Z</time></trkpt><trkpt lat="30.990580116371902" lon="-8.196283616304967"><ele>1210.0</ele><time>2026-04-27T11:21:35.999Z</time></trkpt><trkpt lat="30.990560956776818" lon="-8.196430004918835"><ele>1210.0</ele><time>2026-04-27T11:21:37Z</time></trkpt><trkpt lat="30.99054709855814" lon="-8.196569440230997"><ele>1210.0</ele><time>2026-04-27T11:21:38Z</time></trkpt><trkpt lat="30.990528238793406" lon="-8.19671052964937"><ele>1210.0</ele><time>2026-04-27T11:21:39Z</time></trkpt><trkpt lat="30.990499997227026" lon="-8.196860326465647"><ele>1210.0</ele><time>2026-04-27T11:21:40Z</time></trkpt><trkpt lat="30.990466670839517" lon="-8.197049379696821"><ele>1210.0</ele><time>2026-04-27T11:21:41Z</time></trkpt><trkpt lat="30.990421361156436" lon="-8.197265956522163"><ele>1209.0</ele><time>2026-04-27T11:21:42Z</time></trkpt><trkpt lat="30.990365549268166" lon="-8.197502798325392"><ele>1208.0</ele><time>2026-04-27T11:21:43Z</time></trkpt><trkpt lat="30.99031177575662" lon="-8.197729510813437"><ele>1207.0</ele><time>2026-04-27T11:21:44Z</time></trkpt><trkpt lat="30.99026620177314" lon="-8.197931647078152"><ele>1207.0</ele><time>2026-04-27T11:21:45Z</time></trkpt><trkpt lat="30.990229968104266" lon="-8.198116244678479"><ele>1207.0</ele><time>2026-04-27T11:21:46Z</time></trkpt><trkpt lat="30.99020081090296" lon="-8.198290442864437"><ele>1207.0</ele><time>2026-04-27T11:21:47Z</time></trkpt><trkpt lat="30.99019899271377" lon="-8.198470675654056"><ele>1207.3333333333333</ele><time>2026-04-27T11:21:48Z</time></trkpt><trkpt lat="30.990193886789847" lon="-8.198673131131347"><ele>1207.6666666666667</ele><time>2026-04-27T11:21:49Z</time></trkpt><trkpt lat="30.990207416092357" lon="-8.198891178997378"><ele>1208.0</ele><time>2026-04-27T11:21:50Z</time></trkpt><trkpt lat="30.990226765327833" lon="-8.199115481679092"><ele>1207.3333333333335</ele><time>2026-04-27T11:21:51Z</time></trkpt><trkpt lat="30.990251967125328" lon="-8.199347419739835"><ele>1206.6666666666667</ele><time>2026-04-27T11:21:52Z</time></trkpt><trkpt lat="30.990280206922087" lon="-8.199613009149903"><ele>1206.0</ele><time>2026-04-27T11:21:53Z</time></trkpt><trkpt lat="30.990291519131304" lon="-8.199895107375617"><ele>1206.0</ele><time>2026-04-27T11:21:54Z</time></trkpt><trkpt lat="30.990321465400978" lon="-8.200171901935937"><ele>1206.0</ele><time>2026-04-27T11:21:55Z</time></trkpt><trkpt lat="30.9903340218155" lon="-8.20043157395749"><ele>1205.6666666666667</ele><time>2026-04-27T11:21:56Z</time></trkpt><trkpt lat="30.990334380651753" lon="-8.200686173931713"><ele>1205.3333333333335</ele><time>2026-04-27T11:21:57Z</time></trkpt><trkpt lat="30.990325727782253" lon="-8.200930536747265"><ele>1205.0</ele><time>2026-04-27T11:21:58Z</time></trkpt><trkpt lat="30.990307521134422" lon="-8.201156665347066"><ele>1205.0</ele><time>2026-04-27T11:21:59Z</time></trkpt><trkpt lat="30.990290069233602" lon="-8.201356901343386"><ele>1205.0</ele><time>2026-04-27T11:22:00Z</time></trkpt><trkpt lat="30.990278794518538" lon="-8.201541326151844"><ele>1205.0</ele><time>2026-04-27T11:22:01Z</time></trkpt><trkpt lat="30.990289087878125" lon="-8.201725527501857"><ele>1205.0</ele><time>2026-04-27T11:22:02Z</time></trkpt><trkpt lat="30.990298712487515" lon="-8.201905024229958"><ele>1205.0</ele><time>2026-04-27T11:22:03Z</time></trkpt><trkpt lat="30.990313081245908" lon="-8.20206216645725"><ele>1205.0</ele><time>2026-04-27T11:22:04Z</time></trkpt><trkpt lat="30.990329259714297" lon="-8.202201009957093"><ele>1205.0</ele><time>2026-04-27T11:22:05Z</time></trkpt><trkpt lat="30.9903299999899" lon="-8.202341938980585"><ele>1204.25</ele><time>2026-04-27T11:22:06Z</time></trkpt><trkpt lat="30.990327025892014" lon="-8.202481302474165"><ele>1203.5</ele><time>2026-04-27T11:22:07Z</time></trkpt><trkpt lat="30.99029865453028" lon="-8.20263062966797"><ele>1202.75</ele><time>2026-04-27T11:22:08Z</time></trkpt><trkpt lat="30.990245216893296" lon="-8.202772067464059"><ele>1202.0</ele><time>2026-04-27T11:22:09Z</time></trkpt><trkpt lat="30.990162082725995" lon="-8.20290366332421"><ele>1202.0</ele><time>2026-04-27T11:22:10Z</time></trkpt><trkpt lat="30.990037398079618" lon="-8.203029999296811"><ele>1202.0</ele><time>2026-04-27T11:22:11Z</time></trkpt><trkpt lat="30.98988699636005" lon="-8.20317057445908"><ele>1202.0</ele><time>2026-04-27T11:22:12Z</time></trkpt><trkpt lat="30.989729642803947" lon="-8.20333562561255"><ele>1202.6666666666667</ele><time>2026-04-27T11:22:13Z</time></trkpt><trkpt lat="30.989578574599438" lon="-8.203521949275647"><ele>1203.3333333333333</ele><time>2026-04-27T11:22:14Z</time></trkpt><trkpt lat="30.9894227541618" lon="-8.203712771068743"><ele>1204.0</ele><time>2026-04-27T11:22:15Z</time></trkpt><trkpt lat="30.989246502685774" lon="-8.203921143388708"><ele>1205.0</ele><time>2026-04-27T11:22:16Z</time></trkpt><trkpt lat="30.989046940321717" lon="-8.204136854892269"><ele>1206.0</ele><time>2026-04-27T11:22:17Z</time></trkpt><trkpt lat="30.988839858342445" lon="-8.204358554450287"><ele>1206.0</ele><time>2026-04-27T11:22:18Z</time></trkpt><trkpt lat="30.988654994580187" lon="-8.204571213063332"><ele>1206.0</ele><time>2026-04-27T11:22:19Z</time></trkpt><trkpt lat="30.988469438007947" lon="-8.204808411659934"><ele>1211.0</ele><time>2026-04-27T11:22:20Z</time></trkpt><trkpt lat="30.988293081504093" lon="-8.205065517680826"><ele>1216.0</ele><time>2026-04-27T11:22:21Z</time></trkpt><trkpt lat="30.98813069143546" lon="-8.205333825943633"><ele>1216.0</ele><time>2026-04-27T11:22:22Z</time></trkpt><trkpt lat="30.98796304738471" lon="-8.205623401094895"><ele>1216.0</ele><time>2026-04-27T11:22:23Z</time></trkpt><trkpt lat="30.987801399753568" lon="-8.205926370449408"><ele>1214.0</ele><time>2026-04-27T11:22:24Z</time></trkpt><trkpt lat="30.98765064580493" lon="-8.206213952709009"><ele>1212.0</ele><time>2026-04-27T11:22:25Z</time></trkpt><trkpt lat="30.987515420509336" lon="-8.206468341805063"><ele>1216.0</ele><time>2026-04-27T11:22:26Z</time></trkpt><trkpt lat="30.987393529264946" lon="-8.206687491970202"><ele>1220.0</ele><time>2026-04-27T11:22:27Z</time></trkpt><trkpt lat="30.987277573958217" lon="-8.206892200427717"><ele>1224.0</ele><time>2026-04-27T11:22:28Z</time></trkpt><trkpt lat="30.987180415808442" lon="-8.207059465423185"><ele>1224.0</ele><time>2026-04-27T11:22:29Z</time></trkpt><trkpt lat="30.98709348766342" lon="-8.207205137537668"><ele>1224.0</ele><time>2026-04-27T11:22:30Z</time></trkpt><trkpt lat="30.987008895539745" lon="-8.207318900739539"><ele>1224.0</ele><time>2026-04-27T11:22:31Z</time></trkpt><trkpt lat="30.986911197989784" lon="-8.20740074664767"><ele>1224.0</ele><time>2026-04-27T11:22:32Z</time></trkpt><trkpt lat="30.986779913134214" lon="-8.207486431306533"><ele>1228.0</ele><time>2026-04-27T11:22:33Z</time></trkpt><trkpt lat="30.986646679119694" lon="-8.207579621711627"><ele>1232.0</ele><time>2026-04-27T11:22:34Z</time></trkpt><trkpt lat="30.986534986104996" lon="-8.207693333594348"><ele>1236.0</ele><time>2026-04-27T11:22:35Z</time></trkpt><trkpt lat="30.986434124461958" lon="-8.20783827892303"><ele>1236.0</ele><time>2026-04-27T11:22:36Z</time></trkpt><trkpt lat="30.986348761448383" lon="-8.207979986519474"><ele>1236.0</ele><time>2026-04-27T11:22:37Z</time></trkpt><trkpt lat="30.98627224471947" lon="-8.208113509817746"><ele>1236.0</ele><time>2026-04-27T11:22:38Z</time></trkpt><trkpt lat="30.98620833890338" lon="-8.208261367655883"><ele>1236.0</ele><time>2026-04-27T11:22:39Z</time></trkpt><trkpt lat="30.986159680166576" lon="-8.208454929985198"><ele>1228.6666666666667</ele><time>2026-04-27T11:22:40Z</time></trkpt><trkpt lat="30.9861186968167" lon="-8.208692314791204"><ele>1221.3333333333335</ele><time>2026-04-27T11:22:41Z</time></trkpt><trkpt lat="30.98608251072525" lon="-8.208944564558424"><ele>1214.0</ele><time>2026-04-27T11:22:42Z</time></trkpt><trkpt lat="30.986042292482807" lon="-8.209191907886112"><ele>1212.6666666666667</ele><time>2026-04-27T11:22:43Z</time></trkpt><trkpt lat="30.986008901594765" lon="-8.209417105545096"><ele>1211.3333333333333</ele><time>2026-04-27T11:22:44Z</time></trkpt><trkpt lat="30.985984311574818" lon="-8.20963892438711"><ele>1210.0</ele><time>2026-04-27T11:22:45Z</time></trkpt><trkpt lat="30.985949931512547" lon="-8.209872202026604"><ele>1209.5</ele><time>2026-04-27T11:22:46Z</time></trkpt><trkpt lat="30.98588051557452" lon="-8.210131809797987"><ele>1209.0</ele><time>2026-04-27T11:22:47Z</time></trkpt><trkpt lat="30.9857776325592" lon="-8.210404570124393"><ele>1212.6666666666667</ele><time>2026-04-27T11:22:48Z</time></trkpt><trkpt lat="30.985694353500833" lon="-8.210644695746483"><ele>1216.3333333333335</ele><time>2026-04-27T11:22:49Z</time></trkpt><trkpt lat="30.98560512532187" lon="-8.210866747025664"><ele>1220.0</ele><time>2026-04-27T11:22:50Z</time></trkpt><trkpt lat="30.98551257894521" lon="-8.211070957515183"><ele>1220.0</ele><time>2026-04-27T11:22:51Z</time></trkpt><trkpt lat="30.985400386953245" lon="-8.211281847940812"><ele>1220.0</ele><time>2026-04-27T11:22:52Z</time></trkpt><trkpt lat="30.98526503367984" lon="-8.211525579804265"><ele>1215.0</ele><time>2026-04-27T11:22:53Z</time></trkpt><trkpt lat="30.985122986477638" lon="-8.21179335409009"><ele>1210.0</ele><time>2026-04-27T11:22:54Z</time></trkpt><trkpt lat="30.985009721725294" lon="-8.212022047206716"><ele>1214.6666666666665</ele><time>2026-04-27T11:22:55Z</time></trkpt><trkpt lat="30.98491308476323" lon="-8.212222929915212"><ele>1219.3333333333333</ele><time>2026-04-27T11:22:56Z</time></trkpt><trkpt lat="30.984824422980115" lon="-8.2124080515586"><ele>1224.0</ele><time>2026-04-27T11:22:57Z</time></trkpt><trkpt lat="30.984735775964438" lon="-8.212578665688234"><ele>1224.0</ele><time>2026-04-27T11:22:58Z</time></trkpt><trkpt lat="30.984645671748737" lon="-8.212727304198088"><ele>1224.0</ele><time>2026-04-27T11:22:59Z</time></trkpt><trkpt lat="30.9845621831449" lon="-8.212860580366044"><ele>1224.0</ele><time>2026-04-27T11:23:00Z</time></trkpt><trkpt lat="30.984494782655258" lon="-8.212986271157531"><ele>1224.0</ele><time>2026-04-27T11:23:01Z</time></trkpt><trkpt lat="30.984479077792507" lon="-8.213133772119798"><ele>1221.75</ele><time>2026-04-27T11:23:02.001Z</time></trkpt><trkpt lat="30.9844200782402" lon="-8.213279825161433"><ele>1219.5</ele><time>2026-04-27T11:23:03.001Z</time></trkpt><trkpt lat="30.98437772862527" lon="-8.213462736628394"><ele>1217.25</ele><time>2026-04-27T11:23:04.001Z</time></trkpt><trkpt lat="30.984317274560564" lon="-8.213583017109475"><ele>1215.0</ele><time>2026-04-27T11:23:05.001Z</time></trkpt><trkpt lat="30.984277651842792" lon="-8.213716606532222"><ele>1215.0</ele><time>2026-04-27T11:23:06.001Z</time></trkpt><trkpt lat="30.984264437066212" lon="-8.213866985138036"><ele>1215.0</ele><time>2026-04-27T11:23:07.001Z</time></trkpt><trkpt lat="30.984269210202754" lon="-8.214042721732394"><ele>1215.0</ele><time>2026-04-27T11:23:08.001Z</time></trkpt><trkpt lat="30.984273531309828" lon="-8.214223618026304"><ele>1215.0</ele><time>2026-04-27T11:23:09.001Z</time></trkpt><trkpt lat="30.984275993817715" lon="-8.21442206765764"><ele>1216.3333333333333</ele><time>2026-04-27T11:23:10.001Z</time></trkpt><trkpt lat="30.984273105423416" lon="-8.214623056382143"><ele>1217.6666666666665</ele><time>2026-04-27T11:23:11.001Z</time></trkpt><trkpt lat="30.984266794343664" lon="-8.214826556065166"><ele>1219.0</ele><time>2026-04-27T11:23:12.001Z</time></trkpt><trkpt lat="30.984247167834823" lon="-8.215043605727509"><ele>1219.3333333333333</ele><time>2026-04-27T11:23:13.001Z</time></trkpt><trkpt lat="30.984222700769415" lon="-8.215267009524371"><ele>1219.6666666666667</ele><time>2026-04-27T11:23:14.001Z</time></trkpt><trkpt lat="30.9841898500988" lon="-8.21549460503848"><ele>1220.0</ele><time>2026-04-27T11:23:15.001Z</time></trkpt><trkpt lat="30.984147058178863" lon="-8.21573397898831"><ele>1225.0</ele><time>2026-04-27T11:23:16.001Z</time></trkpt><trkpt lat="30.984087079188278" lon="-8.215989668778672"><ele>1230.0</ele><time>2026-04-27T11:23:17.001Z</time></trkpt><trkpt lat="30.98402073622019" lon="-8.216256746254192"><ele>1226.0</ele><time>2026-04-27T11:23:18.001Z</time></trkpt><trkpt lat="30.98395809095554" lon="-8.216494244652406"><ele>1222.0</ele><time>2026-04-27T11:23:19.001Z</time></trkpt><trkpt lat="30.98389688160733" lon="-8.216724316987994"><ele>1218.0</ele><time>2026-04-27T11:23:20.001Z</time></trkpt><trkpt lat="30.9838407688616" lon="-8.21695369280464"><ele>1218.0</ele><time>2026-04-27T11:23:21.001Z</time></trkpt><trkpt lat="30.983778393339065" lon="-8.217163267460366"><ele>1218.0</ele><time>2026-04-27T11:23:22.001Z</time></trkpt><trkpt lat="30.983704350229186" lon="-8.217349547513422"><ele>1218.0</ele><time>2026-04-27T11:23:23.001Z</time></trkpt><trkpt lat="30.983599574124746" lon="-8.217553790369852"><ele>1218.0</ele><time>2026-04-27T11:23:24.001Z</time></trkpt><trkpt lat="30.983456180014983" lon="-8.217783585682387"><ele>1218.0</ele><time>2026-04-27T11:23:25.001Z</time></trkpt><trkpt lat="30.98332056356431" lon="-8.218010950250402"><ele>1220.6666666666667</ele><time>2026-04-27T11:23:26.001Z</time></trkpt><trkpt lat="30.983220770191362" lon="-8.218221568053357"><ele>1223.3333333333335</ele><time>2026-04-27T11:23:27.001Z</time></trkpt><trkpt lat="30.983138750371502" lon="-8.2184432361224"><ele>1226.0</ele><time>2026-04-27T11:23:28.001Z</time></trkpt><trkpt lat="30.98306972204402" lon="-8.218678512641775"><ele>1226.0</ele><time>2026-04-27T11:23:29.001Z</time></trkpt><trkpt lat="30.983011446732203" lon="-8.218917222346137"><ele>1226.0</ele><time>2026-04-27T11:23:30.001Z</time></trkpt><trkpt lat="30.982951770623288" lon="-8.21917149561761"><ele>1226.0</ele><time>2026-04-27T11:23:31.001Z</time></trkpt><trkpt lat="30.982881611428045" lon="-8.219430999709912"><ele>1224.5</ele><time>2026-04-27T11:23:32.001Z</time></trkpt><trkpt lat="30.982808736790737" lon="-8.219686951054536"><ele>1223.0</ele><time>2026-04-27T11:23:32.999Z</time></trkpt><trkpt lat="30.982740220332335" lon="-8.219946301352104"><ele>1222.3333333333335</ele><time>2026-04-27T11:23:33.999Z</time></trkpt><trkpt lat="30.982674470097535" lon="-8.220197978538"><ele>1221.6666666666667</ele><time>2026-04-27T11:23:34.999Z</time></trkpt><trkpt lat="30.982611298488752" lon="-8.220443414957288"><ele>1221.0</ele><time>2026-04-27T11:23:35.999Z</time></trkpt><trkpt lat="30.982551369175784" lon="-8.220682522846873"><ele>1224.0</ele><time>2026-04-27T11:23:36.999Z</time></trkpt><trkpt lat="30.98248712423485" lon="-8.22091189832787"><ele>1227.0</ele><time>2026-04-27T11:23:37.999Z</time></trkpt><trkpt lat="30.982413988045877" lon="-8.221119273594475"><ele>1230.0</ele><time>2026-04-27T11:23:38.999Z</time></trkpt><trkpt lat="30.98233558063257" lon="-8.221313963125816"><ele>1227.3333333333333</ele><time>2026-04-27T11:23:39.999Z</time></trkpt><trkpt lat="30.982261287816723" lon="-8.221497221985867"><ele>1224.6666666666665</ele><time>2026-04-27T11:23:40.999Z</time></trkpt><trkpt lat="30.982197440517922" lon="-8.221679112244782"><ele>1222.0</ele><time>2026-04-27T11:23:41.999Z</time></trkpt><trkpt lat="30.982138738932804" lon="-8.221827737240199"><ele>1222.0</ele><time>2026-04-27T11:23:42.999Z</time></trkpt><trkpt lat="30.982088378311833" lon="-8.221937685284537"><ele>1222.0</ele><time>2026-04-27T11:23:43.999Z</time></trkpt><trkpt lat="30.982035828565497" lon="-8.222043915092815"><ele>1222.0</ele><time>2026-04-27T11:23:44.999Z</time></trkpt><trkpt lat="30.981969586114232" lon="-8.222141240890009"><ele>1222.0</ele><time>2026-04-27T11:23:45.999Z</time></trkpt><trkpt lat="30.98187879403673" lon="-8.22223408316331"><ele>1222.0</ele><time>2026-04-27T11:23:47Z</time></trkpt><trkpt lat="30.981766568973693" lon="-8.222333616739196"><ele>1225.6666666666665</ele><time>2026-04-27T11:23:48Z</time></trkpt><trkpt lat="30.98165371122217" lon="-8.222439137956874"><ele>1229.3333333333333</ele><time>2026-04-27T11:23:49Z</time></trkpt><trkpt lat="30.98154294600641" lon="-8.222559812223848"><ele>1233.0</ele><time>2026-04-27T11:23:50Z</time></trkpt><trkpt lat="30.98144056710442" lon="-8.222694930545353"><ele>1233.0</ele><time>2026-04-27T11:23:51Z</time></trkpt><trkpt lat="30.981352071460883" lon="-8.222860480754278"><ele>1233.0</ele><time>2026-04-27T11:23:52Z</time></trkpt><trkpt lat="30.981282485482645" lon="-8.223040169611117"><ele>1233.0</ele><time>2026-04-27T11:23:53Z</time></trkpt><trkpt lat="30.981227036011287" lon="-8.223208291566968"><ele>1231.0</ele><time>2026-04-27T11:23:54Z</time></trkpt><trkpt lat="30.981175444986693" lon="-8.223358173109288"><ele>1229.0</ele><time>2026-04-27T11:23:55Z</time></trkpt><trkpt lat="30.981127992022248" lon="-8.223493350591095"><ele>1227.0</ele><time>2026-04-27T11:23:56Z</time></trkpt><trkpt lat="30.98108904083635" lon="-8.223615560061646"><ele>1225.0</ele><time>2026-04-27T11:23:57Z</time></trkpt><trkpt lat="30.981062174110853" lon="-8.223743631791885"><ele>1225.0</ele><time>2026-04-27T11:23:58Z</time></trkpt><trkpt lat="30.98104199893081" lon="-8.223885539719195"><ele>1225.0</ele><time>2026-04-27T11:23:59Z</time></trkpt><trkpt lat="30.981036520247173" lon="-8.224050252709336"><ele>1225.0</ele><time>2026-04-27T11:24:00Z</time></trkpt><trkpt lat="30.981047281724233" lon="-8.224241004325911"><ele>1225.0</ele><time>2026-04-27T11:24:01Z</time></trkpt><trkpt lat="30.981059698134356" lon="-8.224441431285683"><ele>1225.6666666666665</ele><time>2026-04-27T11:24:02Z</time></trkpt><trkpt lat="30.981091810244" lon="-8.224637103678377"><ele>1226.3333333333333</ele><time>2026-04-27T11:24:03Z</time></trkpt><trkpt lat="30.981108189142546" lon="-8.22484390085422"><ele>1227.0</ele><time>2026-04-27T11:24:04Z</time></trkpt><trkpt lat="30.98113231215703" lon="-8.225049364673579"><ele>1227.0</ele><time>2026-04-27T11:24:05Z</time></trkpt><trkpt lat="30.981153736431093" lon="-8.225237733286376"><ele>1227.0</ele><time>2026-04-27T11:24:06Z</time></trkpt><trkpt lat="30.981167748650286" lon="-8.225429786375598"><ele>1227.0</ele><time>2026-04-27T11:24:07Z</time></trkpt><trkpt lat="30.981181547674286" lon="-8.225610890196677"><ele>1227.25</ele><time>2026-04-27T11:24:08Z</time></trkpt><trkpt lat="30.98121268138919" lon="-8.225774770552992"><ele>1227.5</ele><time>2026-04-27T11:24:09Z</time></trkpt><trkpt lat="30.981256011310073" lon="-8.225937228894656"><ele>1227.75</ele><time>2026-04-27T11:24:10Z</time></trkpt><trkpt lat="30.981315288567057" lon="-8.22609568700302"><ele>1228.0</ele><time>2026-04-27T11:24:11Z</time></trkpt><trkpt lat="30.981361332893737" lon="-8.226263620653873"><ele>1228.0</ele><time>2026-04-27T11:24:12Z</time></trkpt><trkpt lat="30.98142994288589" lon="-8.226417237396745"><ele>1228.0</ele><time>2026-04-27T11:24:13Z</time></trkpt><trkpt lat="30.981477534899046" lon="-8.226591609710079"><ele>1228.0</ele><time>2026-04-27T11:24:14Z</time></trkpt><trkpt lat="30.981497521376845" lon="-8.22680004028661"><ele>1229.0</ele><time>2026-04-27T11:24:15Z</time></trkpt><trkpt lat="30.98152522166557" lon="-8.227025211000527"><ele>1230.0</ele><time>2026-04-27T11:24:16Z</time></trkpt><trkpt lat="30.981553273668055" lon="-8.227243086200785"><ele>1231.0</ele><time>2026-04-27T11:24:17Z</time></trkpt><trkpt lat="30.981591980621754" lon="-8.22745308214538"><ele>1233.0</ele><time>2026-04-27T11:24:18Z</time></trkpt><trkpt lat="30.98163002626015" lon="-8.227644396760871"><ele>1235.0</ele><time>2026-04-27T11:24:19Z</time></trkpt><trkpt lat="30.981654439135287" lon="-8.227825125867144"><ele>1237.0</ele><time>2026-04-27T11:24:20Z</time></trkpt><trkpt lat="30.981661043982175" lon="-8.228006232502128"><ele>1237.0</ele><time>2026-04-27T11:24:21Z</time></trkpt><trkpt lat="30.981640591460735" lon="-8.228199007796222"><ele>1237.0</ele><time>2026-04-27T11:24:22Z</time></trkpt><trkpt lat="30.98158731953048" lon="-8.228417243033372"><ele>1237.0</ele><time>2026-04-27T11:24:23Z</time></trkpt><trkpt lat="30.98151921917467" lon="-8.228641619108794"><ele>1237.0</ele><time>2026-04-27T11:24:24Z</time></trkpt><trkpt lat="30.981455748542988" lon="-8.228866889528092"><ele>1237.0</ele><time>2026-04-27T11:24:25Z</time></trkpt><trkpt lat="30.981393043029648" lon="-8.229079377465625"><ele>1237.0</ele><time>2026-04-27T11:24:26Z</time></trkpt><trkpt lat="30.981342468045582" lon="-8.22927060144271"><ele>1238.0</ele><time>2026-04-27T11:24:27Z</time></trkpt><trkpt lat="30.981303513341352" lon="-8.229469319740474"><ele>1239.0</ele><time>2026-04-27T11:24:28Z</time></trkpt><trkpt lat="30.981285368632324" lon="-8.22966209168731"><ele>1240.0</ele><time>2026-04-27T11:24:29Z</time></trkpt><trkpt lat="30.981269813255288" lon="-8.229837342275284"><ele>1240.0</ele><time>2026-04-27T11:24:30Z</time></trkpt><trkpt lat="30.98124216721709" lon="-8.230014257605937"><ele>1240.0</ele><time>2026-04-27T11:24:31Z</time></trkpt><trkpt lat="30.981213658158026" lon="-8.230218352407409"><ele>1240.0</ele><time>2026-04-27T11:24:32Z</time></trkpt><trkpt lat="30.98118081105676" lon="-8.230442310215848"><ele>1239.3333333333333</ele><time>2026-04-27T11:24:33Z</time></trkpt><trkpt lat="30.981144570029073" lon="-8.230670286091202"><ele>1238.6666666666667</ele><time>2026-04-27T11:24:34Z</time></trkpt><trkpt lat="30.98109670528756" lon="-8.230889228931886"><ele>1238.0</ele><time>2026-04-27T11:24:35Z</time></trkpt><trkpt lat="30.981040427438117" lon="-8.231084041349622"><ele>1238.0</ele><time>2026-04-27T11:24:36Z</time></trkpt><trkpt lat="30.980981686333724" lon="-8.231262521323153"><ele>1238.0</ele><time>2026-04-27T11:24:37Z</time></trkpt><trkpt lat="30.980932373667105" lon="-8.231422669191447"><ele>1238.0</ele><time>2026-04-27T11:24:38Z</time></trkpt><trkpt lat="30.980883260389405" lon="-8.231568837128272"><ele>1238.0</ele><time>2026-04-27T11:24:39Z</time></trkpt><trkpt lat="30.980819394211142" lon="-8.231699997622949"><ele>1238.0</ele><time>2026-04-27T11:24:40Z</time></trkpt><trkpt lat="30.98073088816105" lon="-8.231799145166933"><ele>1238.0</ele><time>2026-04-27T11:24:41Z</time></trkpt><trkpt lat="30.98061187785482" lon="-8.231869151298936"><ele>1238.0</ele><time>2026-04-27T11:24:42Z</time></trkpt><trkpt lat="30.980448470808728" lon="-8.231929159762709"><ele>1238.0</ele><time>2026-04-27T11:24:43Z</time></trkpt><trkpt lat="30.98027394371916" lon="-8.231993930742242"><ele>1238.0</ele><time>2026-04-27T11:24:44Z</time></trkpt><trkpt lat="30.980102822109572" lon="-8.232063785639044"><ele>1238.0</ele><time>2026-04-27T11:24:45Z</time></trkpt><trkpt lat="30.97995489909189" lon="-8.232125426895113"><ele>1238.0</ele><time>2026-04-27T11:24:46Z</time></trkpt><trkpt lat="30.979818468018646" lon="-8.232186195255041"><ele>1237.5</ele><time>2026-04-27T11:24:47Z</time></trkpt><trkpt lat="30.979685565046424" lon="-8.232246134129834"><ele>1237.0</ele><time>2026-04-27T11:24:48Z</time></trkpt><trkpt lat="30.979546559957743" lon="-8.232298469043005"><ele>1236.5</ele><time>2026-04-27T11:24:49Z</time></trkpt><trkpt lat="30.979407070189342" lon="-8.232342131110965"><ele>1236.0</ele><time>2026-04-27T11:24:50.001Z</time></trkpt><trkpt lat="30.979273947992624" lon="-8.232377992851077"><ele>1237.0</ele><time>2026-04-27T11:24:51.001Z</time></trkpt><trkpt lat="30.97915254674978" lon="-8.232408062696656"><ele>1238.0</ele><time>2026-04-27T11:24:52.001Z</time></trkpt><trkpt lat="30.97904548786954" lon="-8.23243673794"><ele>1239.0</ele><time>2026-04-27T11:24:53.001Z</time></trkpt><trkpt lat="30.97895582989087" lon="-8.232462354542323"><ele>1240.0</ele><time>2026-04-27T11:24:54.001Z</time></trkpt><trkpt lat="30.978869907774154" lon="-8.232487618971282"><ele>1241.0</ele><time>2026-04-27T11:24:55.001Z</time></trkpt><trkpt lat="30.97879674124195" lon="-8.232512313709792"><ele>1241.0</ele><time>2026-04-27T11:24:56.001Z</time></trkpt><trkpt lat="30.978733015829523" lon="-8.232536742037263"><ele>1241.0</ele><time>2026-04-27T11:24:57.001Z</time></trkpt><trkpt lat="30.97864052925093" lon="-8.232579340597338"><ele>1241.0</ele><time>2026-04-27T11:24:59.001Z</time></trkpt><trkpt lat="30.978583542240685" lon="-8.232614190880136"><ele>1241.0</ele><time>2026-04-27T11:25:01.001Z</time></trkpt><trkpt lat="30.97852064585582" lon="-8.232645264279622"><ele>1241.0</ele><time>2026-04-27T11:54:22Z</time></trkpt><trkpt lat="30.978460437505856" lon="-8.232672389290347"><ele>1241.0</ele><time>2026-04-27T11:54:24Z</time></trkpt><trkpt lat="30.978409859255656" lon="-8.232727429961594"><ele>1241.0</ele><time>2026-04-27T11:54:29Z</time></trkpt><trkpt lat="30.97836455703232" lon="-8.232788415841053"><ele>1242.6666666666667</ele><time>2026-04-27T11:54:32Z</time></trkpt><trkpt lat="30.978298291233312" lon="-8.232832429218897"><ele>1244.3333333333335</ele><time>2026-04-27T11:57:42Z</time></trkpt><trkpt lat="30.97822917150182" lon="-8.232864750463376"><ele>1246.0</ele><time>2026-04-27T11:57:45Z</time></trkpt><trkpt lat="30.978140068904967" lon="-8.232920315874152"><ele>1247.6666666666667</ele><time>2026-04-27T11:57:48Z</time></trkpt><trkpt lat="30.978076251828504" lon="-8.232969812705694"><ele>1249.3333333333333</ele><time>2026-04-27T11:57:50Z</time></trkpt><trkpt lat="30.978006181469457" lon="-8.233012439300945"><ele>1251.0</ele><time>2026-04-27T11:57:52Z</time></trkpt><trkpt lat="30.977925554431387" lon="-8.233049711615717"><ele>1251.0</ele><time>2026-04-27T11:57:54Z</time></trkpt><trkpt lat="30.97783501919792" lon="-8.23307702148854"><ele>1251.0</ele><time>2026-04-27T11:57:56Z</time></trkpt><trkpt lat="30.977718405418464" lon="-8.233107353092592"><ele>1251.0</ele><time>2026-04-27T11:57:58Z</time></trkpt><trkpt lat="30.977657450068147" lon="-8.233141175420739"><ele>1251.0</ele><time>2026-04-27T11:57:59Z</time></trkpt><trkpt lat="30.977554826261528" lon="-8.233193963371635"><ele>1251.0</ele><time>2026-04-27T11:58:01Z</time></trkpt><trkpt lat="30.97746841194234" lon="-8.233241387246345"><ele>1250.3999999999999</ele><time>2026-04-27T11:58:03Z</time></trkpt><trkpt lat="30.977396579954327" lon="-8.233274176755009"><ele>1249.8</ele><time>2026-04-27T11:58:04Z</time></trkpt><trkpt lat="30.977291423656997" lon="-8.233322881072606"><ele>1249.1999999999998</ele><time>2026-04-27T11:58:05Z</time></trkpt><trkpt lat="30.97717976643492" lon="-8.233380972257612"><ele>1248.6</ele><time>2026-04-27T11:58:06Z</time></trkpt><trkpt lat="30.97709850829326" lon="-8.233434796901507"><ele>1248.0</ele><time>2026-04-27T11:58:07Z</time></trkpt><trkpt lat="30.97701408299125" lon="-8.233489664989282"><ele>1248.0</ele><time>2026-04-27T11:58:08Z</time></trkpt><trkpt lat="30.976929211845132" lon="-8.23354013209597"><ele>1248.0</ele><time>2026-04-27T11:58:09Z</time></trkpt><trkpt lat="30.976842634544404" lon="-8.233588275973286"><ele>1248.0</ele><time>2026-04-27T11:58:10Z</time></trkpt><trkpt lat="30.976747366976088" lon="-8.233642494521721"><ele>1248.0</ele><time>2026-04-27T11:58:11Z</time></trkpt><trkpt lat="30.976644819282065" lon="-8.233711794731878"><ele>1248.0</ele><time>2026-04-27T11:58:12Z</time></trkpt><trkpt lat="30.97654565558155" lon="-8.233801903299751"><ele>1246.75</ele><time>2026-04-27T11:58:13Z</time></trkpt><trkpt lat="30.97646331977925" lon="-8.233919646023532"><ele>1245.5</ele><time>2026-04-27T11:58:14Z</time></trkpt><trkpt lat="30.97638577205751" lon="-8.234064763615363"><ele>1244.25</ele><time>2026-04-27T11:58:15Z</time></trkpt><trkpt lat="30.97631433549987" lon="-8.23418742607394"><ele>1243.0</ele><time>2026-04-27T11:58:16Z</time></trkpt><trkpt lat="30.9762346811471" lon="-8.234274717541712"><ele>1243.0</ele><time>2026-04-27T11:58:17Z</time></trkpt><trkpt lat="30.97615315131918" lon="-8.234342889053586"><ele>1243.0</ele><time>2026-04-27T11:58:18Z</time></trkpt><trkpt lat="30.976085639578145" lon="-8.234395128609979"><ele>1243.0</ele><time>2026-04-27T11:58:19Z</time></trkpt><trkpt lat="30.97603201099679" lon="-8.234453053306055"><ele>1243.0</ele><time>2026-04-27T11:58:20Z</time></trkpt><trkpt lat="30.97598866901639" lon="-8.234517207375877"><ele>1243.0</ele><time>2026-04-27T11:58:21Z</time></trkpt><trkpt lat="30.97595249718226" lon="-8.234599612949038"><ele>1243.0</ele><time>2026-04-27T11:58:22Z</time></trkpt><trkpt lat="30.975913041810276" lon="-8.234698428906139"><ele>1243.0</ele><time>2026-04-27T11:58:23Z</time></trkpt><trkpt lat="30.975890810060932" lon="-8.234792792394156"><ele>1243.0</ele><time>2026-04-27T11:58:24Z</time></trkpt><trkpt lat="30.975875117043962" lon="-8.234874509708208"><ele>1243.0</ele><time>2026-04-27T11:58:25Z</time></trkpt><trkpt lat="30.975857121484474" lon="-8.234956061572023"><ele>1243.0</ele><time>2026-04-27T11:58:26Z</time></trkpt><trkpt lat="30.97582929677791" lon="-8.235054317366455"><ele>1243.0</ele><time>2026-04-27T11:58:27Z</time></trkpt><trkpt lat="30.975796743977337" lon="-8.235164246141064"><ele>1243.0</ele><time>2026-04-27T11:58:28Z</time></trkpt><trkpt lat="30.975752611651235" lon="-8.235258132071952"><ele>1243.6666666666665</ele><time>2026-04-27T11:58:29Z</time></trkpt><trkpt lat="30.975707963557014" lon="-8.235347580987884"><ele>1244.3333333333333</ele><time>2026-04-27T11:58:30Z</time></trkpt><trkpt lat="30.975663476990537" lon="-8.23543108676507"><ele>1245.0</ele><time>2026-04-27T11:58:31Z</time></trkpt><trkpt lat="30.975628186037923" lon="-8.235520161901055"><ele>1245.6666666666667</ele><time>2026-04-27T11:58:32Z</time></trkpt><trkpt lat="30.97560421682135" lon="-8.235610264355172"><ele>1246.3333333333335</ele><time>2026-04-27T11:58:33Z</time></trkpt><trkpt lat="30.975595085632865" lon="-8.235695608717105"><ele>1247.0</ele><time>2026-04-27T11:58:34Z</time></trkpt><trkpt lat="30.975603831658283" lon="-8.235783101596272"><ele>1247.0</ele><time>2026-04-27T11:58:35Z</time></trkpt><trkpt lat="30.97559451674629" lon="-8.235885491830917"><ele>1247.0</ele><time>2026-04-27T11:58:36Z</time></trkpt><trkpt lat="30.975622241335603" lon="-8.236015653270401"><ele>1247.0</ele><time>2026-04-27T11:58:37Z</time></trkpt><trkpt lat="30.97566096655717" lon="-8.23614143096282"><ele>1247.0</ele><time>2026-04-27T11:58:38Z</time></trkpt><trkpt lat="30.975717865127272" lon="-8.23629782710198"><ele>1248.0</ele><time>2026-04-27T11:58:39Z</time></trkpt><trkpt lat="30.975742503315498" lon="-8.236474292622594"><ele>1249.0</ele><time>2026-04-27T11:58:40.001Z</time></trkpt><trkpt lat="30.97576701535522" lon="-8.236622326893231"><ele>1250.0</ele><time>2026-04-27T11:58:41.001Z</time></trkpt><trkpt lat="30.975791612401473" lon="-8.23675513829461"><ele>1251.0</ele><time>2026-04-27T11:58:42.001Z</time></trkpt><trkpt lat="30.97582728761758" lon="-8.236895919702569"><ele>1251.0</ele><time>2026-04-27T11:58:43.001Z</time></trkpt><trkpt lat="30.975872113280868" lon="-8.237014598161503"><ele>1251.0</ele><time>2026-04-27T11:58:44.001Z</time></trkpt><trkpt lat="30.97590020968383" lon="-8.237110765348252"><ele>1251.0</ele><time>2026-04-27T11:58:45.001Z</time></trkpt><trkpt lat="30.975889503304177" lon="-8.237195780421324"><ele>1251.0</ele><time>2026-04-27T11:58:46.001Z</time></trkpt><trkpt lat="30.975842278307105" lon="-8.237277149289332"><ele>1251.0</ele><time>2026-04-27T11:58:47.001Z</time></trkpt><trkpt lat="30.97576061315715" lon="-8.237359039196127"><ele>1251.25</ele><time>2026-04-27T11:58:48.001Z</time></trkpt><trkpt lat="30.975646152284376" lon="-8.237408486987505"><ele>1251.5</ele><time>2026-04-27T11:58:49.001Z</time></trkpt><trkpt lat="30.97549799956962" lon="-8.237430917313445"><ele>1251.75</ele><time>2026-04-27T11:58:50.001Z</time></trkpt><trkpt lat="30.97534277923578" lon="-8.237426636668404"><ele>1252.0</ele><time>2026-04-27T11:58:51.001Z</time></trkpt><trkpt lat="30.975179865623442" lon="-8.237416466301053"><ele>1256.0</ele><time>2026-04-27T11:58:52.001Z</time></trkpt><trkpt lat="30.975016935611862" lon="-8.237430329572385"><ele>1260.0</ele><time>2026-04-27T11:58:53.001Z</time></trkpt><trkpt lat="30.974863023425897" lon="-8.237469707799681"><ele>1264.0</ele><time>2026-04-27T11:58:54.001Z</time></trkpt><trkpt lat="30.974694398059345" lon="-8.237528590457957"><ele>1264.0</ele><time>2026-04-27T11:58:55.001Z</time></trkpt><trkpt lat="30.974529326242383" lon="-8.237606232864794"><ele>1264.0</ele><time>2026-04-27T11:58:56.001Z</time></trkpt><trkpt lat="30.974377652150334" lon="-8.237702694645673"><ele>1264.0</ele><time>2026-04-27T11:58:57.001Z</time></trkpt><trkpt lat="30.974241061330805" lon="-8.237823987871"><ele>1263.6666666666665</ele><time>2026-04-27T11:58:58.001Z</time></trkpt><trkpt lat="30.974116356197563" lon="-8.23793916143103"><ele>1263.3333333333333</ele><time>2026-04-27T11:58:59.001Z</time></trkpt><trkpt lat="30.97400364033371" lon="-8.238067268404244"><ele>1263.0</ele><time>2026-04-27T11:59:00.001Z</time></trkpt><trkpt lat="30.973896972712026" lon="-8.238232989856526"><ele>1263.0</ele><time>2026-04-27T11:59:01.001Z</time></trkpt><trkpt lat="30.973799546356055" lon="-8.238428632084268"><ele>1263.0</ele><time>2026-04-27T11:59:02.001Z</time></trkpt><trkpt lat="30.973707753371666" lon="-8.238620999451651"><ele>1263.0</ele><time>2026-04-27T11:59:03.001Z</time></trkpt><trkpt lat="30.97358751634351" lon="-8.238798435760053"><ele>1261.6666666666667</ele><time>2026-04-27T11:59:04.001Z</time></trkpt><trkpt lat="30.973448238902712" lon="-8.238972372743026"><ele>1260.3333333333335</ele><time>2026-04-27T11:59:05.001Z</time></trkpt><trkpt lat="30.973320324766725" lon="-8.23915162466257"><ele>1259.0</ele><time>2026-04-27T11:59:06.001Z</time></trkpt><trkpt lat="30.973212223687263" lon="-8.239328046512204"><ele>1259.6666666666667</ele><time>2026-04-27T11:59:07.001Z</time></trkpt><trkpt lat="30.97311442226577" lon="-8.239515196048616"><ele>1260.3333333333333</ele><time>2026-04-27T11:59:08.001Z</time></trkpt><trkpt lat="30.97302556314236" lon="-8.239714813301198"><ele>1261.0</ele><time>2026-04-27T11:59:09.001Z</time></trkpt><trkpt lat="30.97293963226353" lon="-8.23991315321176"><ele>1261.0</ele><time>2026-04-27T11:59:10.001Z</time></trkpt><trkpt lat="30.972862382142818" lon="-8.24008986522071"><ele>1261.0</ele><time>2026-04-27T11:59:11.001Z</time></trkpt><trkpt lat="30.972788271418505" lon="-8.240250498908106"><ele>1261.0</ele><time>2026-04-27T11:59:12.001Z</time></trkpt><trkpt lat="30.972706372048286" lon="-8.240408880287273"><ele>1261.0</ele><time>2026-04-27T11:59:13.001Z</time></trkpt><trkpt lat="30.972616775781347" lon="-8.240547397569568"><ele>1261.0</ele><time>2026-04-27T11:59:14.001Z</time></trkpt><trkpt lat="30.972526414120402" lon="-8.24065379451011"><ele>1261.0</ele><time>2026-04-27T11:59:14.999Z</time></trkpt><trkpt lat="30.97244155515714" lon="-8.240727078301736"><ele>1261.0</ele><time>2026-04-27T11:59:15.999Z</time></trkpt><trkpt lat="30.972357696515868" lon="-8.240796081028314"><ele>1262.25</ele><time>2026-04-27T11:59:16.999Z</time></trkpt><trkpt lat="30.972251737671755" lon="-8.24087521776259"><ele>1263.5</ele><time>2026-04-27T11:59:17.999Z</time></trkpt><trkpt lat="30.972137845123118" lon="-8.240966118108993"><ele>1264.75</ele><time>2026-04-27T11:59:18.999Z</time></trkpt><trkpt lat="30.972021901465684" lon="-8.241061491927464"><ele>1266.0</ele><time>2026-04-27T11:59:19.999Z</time></trkpt><trkpt lat="30.97190768668034" lon="-8.241150797792917"><ele>1266.0</ele><time>2026-04-27T11:59:20.999Z</time></trkpt><trkpt lat="30.97179631833846" lon="-8.241235035238333"><ele>1266.0</ele><time>2026-04-27T11:59:21.999Z</time></trkpt><trkpt lat="30.971692317464512" lon="-8.24131580986436"><ele>1266.0</ele><time>2026-04-27T11:59:22.999Z</time></trkpt><trkpt lat="30.97158579485888" lon="-8.241394448147794"><ele>1266.0</ele><time>2026-04-27T11:59:23.999Z</time></trkpt><trkpt lat="30.971467415399673" lon="-8.2414622306752"><ele>1265.6666666666667</ele><time>2026-04-27T11:59:24.999Z</time></trkpt><trkpt lat="30.971332410216647" lon="-8.24153362990646"><ele>1265.3333333333335</ele><time>2026-04-27T11:59:25.999Z</time></trkpt><trkpt lat="30.971181153767557" lon="-8.24159759701454"><ele>1265.0</ele><time>2026-04-27T11:59:26.999Z</time></trkpt><trkpt lat="30.971009224566455" lon="-8.241637187042235"><ele>1267.0</ele><time>2026-04-27T11:59:27.999Z</time></trkpt><trkpt lat="30.970813082127435" lon="-8.241662260488894"><ele>1269.0</ele><time>2026-04-27T11:59:28.999Z</time></trkpt><trkpt lat="30.970601270318298" lon="-8.241686527382187"><ele>1271.0</ele><time>2026-04-27T11:59:29.999Z</time></trkpt><trkpt lat="30.970422584446727" lon="-8.241696340898812"><ele>1271.0</ele><time>2026-04-27T11:59:30.999Z</time></trkpt><trkpt lat="30.970262190045776" lon="-8.2416836085716"><ele>1271.0</ele><time>2026-04-27T11:59:31.999Z</time></trkpt><trkpt lat="30.970110513266953" lon="-8.241648838039422"><ele>1271.0</ele><time>2026-04-27T11:59:32.999Z</time></trkpt><trkpt lat="30.96995428731047" lon="-8.241577043683048"><ele>1279.6666666666667</ele><time>2026-04-27T11:59:33.999Z</time></trkpt><trkpt lat="30.96979198041382" lon="-8.241464099299582"><ele>1288.3333333333333</ele><time>2026-04-27T11:59:34.999Z</time></trkpt><trkpt lat="30.969622539084174" lon="-8.241335178715044"><ele>1297.0</ele><time>2026-04-27T11:59:35.999Z</time></trkpt><trkpt lat="30.969456723313208" lon="-8.24123081032876"><ele>1297.0</ele><time>2026-04-27T11:59:36.999Z</time></trkpt><trkpt lat="30.96929511895168" lon="-8.24116500968008"><ele>1297.0</ele><time>2026-04-27T11:59:37.999Z</time></trkpt><trkpt lat="30.96911030568437" lon="-8.241135268740143"><ele>1297.0</ele><time>2026-04-27T11:59:39Z</time></trkpt><trkpt lat="30.968901973680957" lon="-8.241147217204743"><ele>1296.3333333333333</ele><time>2026-04-27T11:59:40Z</time></trkpt><trkpt lat="30.968702228129555" lon="-8.241170008149549"><ele>1295.6666666666667</ele><time>2026-04-27T11:59:41Z</time></trkpt><trkpt lat="30.968496339623233" lon="-8.241180641410518"><ele>1295.0</ele><time>2026-04-27T11:59:42Z</time></trkpt><trkpt lat="30.96828408842682" lon="-8.241179069451299"><ele>1290.0</ele><time>2026-04-27T11:59:43Z</time></trkpt><trkpt lat="30.96806152571284" lon="-8.24116749349473"><ele>1285.0</ele><time>2026-04-27T11:59:44Z</time></trkpt><trkpt lat="30.967832592712334" lon="-8.241143898535013"><ele>1285.0</ele><time>2026-04-27T11:59:45Z</time></trkpt><trkpt lat="30.967600281226854" lon="-8.241109124039458"><ele>1285.0</ele><time>2026-04-27T11:59:46Z</time></trkpt><trkpt lat="30.967370273476536" lon="-8.241070080870317"><ele>1284.0</ele><time>2026-04-27T11:59:47Z</time></trkpt><trkpt lat="30.967141025839634" lon="-8.24102726547299"><ele>1283.0</ele><time>2026-04-27T11:59:48Z</time></trkpt><trkpt lat="30.966933163490943" lon="-8.24098504147105"><ele>1282.0</ele><time>2026-04-27T11:59:49Z</time></trkpt><trkpt lat="30.96675486288882" lon="-8.240951832941573"><ele>1280.25</ele><time>2026-04-27T11:59:50Z</time></trkpt><trkpt lat="30.966589288776415" lon="-8.2409225422361"><ele>1278.5</ele><time>2026-04-27T11:59:51Z</time></trkpt><trkpt lat="30.966445478338766" lon="-8.240896303863911"><ele>1276.75</ele><time>2026-04-27T11:59:52Z</time></trkpt><trkpt lat="30.966319815488077" lon="-8.2408625789866"><ele>1275.0</ele><time>2026-04-27T11:59:53Z</time></trkpt><trkpt lat="30.966198095371805" lon="-8.240817471832994"><ele>1275.0</ele><time>2026-04-27T11:59:54Z</time></trkpt><trkpt lat="30.9660548708549" lon="-8.240767148680943"><ele>1275.0</ele><time>2026-04-27T11:59:55Z</time></trkpt><trkpt lat="30.96592516320596" lon="-8.240727903025949"><ele>1275.0</ele><time>2026-04-27T11:59:56Z</time></trkpt><trkpt lat="30.965810119712806" lon="-8.240699559945586"><ele>1275.0</ele><time>2026-04-27T11:59:57Z</time></trkpt><trkpt lat="30.96569224917965" lon="-8.240677517361584"><ele>1274.0</ele><time>2026-04-27T11:59:58Z</time></trkpt><trkpt lat="30.965587624327032" lon="-8.240668930487775"><ele>1273.0</ele><time>2026-04-27T11:59:59Z</time></trkpt><trkpt lat="30.965507517469785" lon="-8.24067916885364"><ele>1272.0</ele><time>2026-04-27T12:00:00Z</time></trkpt><trkpt lat="30.965444050210312" lon="-8.240711617330476"><ele>1271.0</ele><time>2026-04-27T12:00:01Z</time></trkpt><trkpt lat="30.96536849890724" lon="-8.24077036388663"><ele>1270.0</ele><time>2026-04-27T12:00:02Z</time></trkpt><trkpt lat="30.965268998609865" lon="-8.240860471391095"><ele>1270.0</ele><time>2026-04-27T12:00:03Z</time></trkpt><trkpt lat="30.965149380425096" lon="-8.24095450436981"><ele>1270.0</ele><time>2026-04-27T12:00:04Z</time></trkpt><trkpt lat="30.965041679146097" lon="-8.241048637986829"><ele>1270.0</ele><time>2026-04-27T12:00:05Z</time></trkpt><trkpt lat="30.964940772152826" lon="-8.241151436384058"><ele>1270.0</ele><time>2026-04-27T12:00:06Z</time></trkpt><trkpt lat="30.964835349956207" lon="-8.241273817792992"><ele>1268.75</ele><time>2026-04-27T12:00:07Z</time></trkpt><trkpt lat="30.964732183250078" lon="-8.24140839184056"><ele>1267.5</ele><time>2026-04-27T12:00:08Z</time></trkpt><trkpt lat="30.964644419232066" lon="-8.24152321290121"><ele>1266.25</ele><time>2026-04-27T12:00:09Z</time></trkpt><trkpt lat="30.964567974196495" lon="-8.241622322639401"><ele>1265.0</ele><time>2026-04-27T12:00:10Z</time></trkpt><trkpt lat="30.96450917225479" lon="-8.241714811245009"><ele>1265.0</ele><time>2026-04-27T12:00:11Z</time></trkpt><trkpt lat="30.964478132790973" lon="-8.241802968125983"><ele>1265.0</ele><time>2026-04-27T12:00:12Z</time></trkpt><trkpt lat="30.96446116108547" lon="-8.241904607032417"><ele>1265.0</ele><time>2026-04-27T12:00:13Z</time></trkpt><trkpt lat="30.964449961870642" lon="-8.24200248737706"><ele>1265.0</ele><time>2026-04-27T12:00:14Z</time></trkpt><trkpt lat="30.96444799372135" lon="-8.242083614764075"><ele>1265.0</ele><time>2026-04-27T12:00:15Z</time></trkpt><trkpt lat="30.964401655086295" lon="-8.24218646608424"><ele>1265.0</ele><time>2026-04-27T12:00:17Z</time></trkpt><trkpt lat="30.964352324476877" lon="-8.242269922349621"><ele>1264.2</ele><time>2026-04-27T12:00:19Z</time></trkpt><trkpt lat="30.964272163586884" lon="-8.242377922633084"><ele>1263.4</ele><time>2026-04-27T12:00:21Z</time></trkpt><trkpt lat="30.964219999963433" lon="-8.242447254581894"><ele>1262.6</ele><time>2026-04-27T12:00:22Z</time></trkpt><trkpt lat="30.964161268899517" lon="-8.242527211116466"><ele>1261.8</ele><time>2026-04-27T12:00:23Z</time></trkpt><trkpt lat="30.964099388734805" lon="-8.2426097345347"><ele>1261.0</ele><time>2026-04-27T12:00:24Z</time></trkpt><trkpt lat="30.964039555164465" lon="-8.242694429098869"><ele>1264.25</ele><time>2026-04-27T12:00:25Z</time></trkpt><trkpt lat="30.963962169482574" lon="-8.242790328601977"><ele>1267.5</ele><time>2026-04-27T12:00:26.001Z</time></trkpt><trkpt lat="30.96387994622906" lon="-8.242891318019339"><ele>1270.75</ele><time>2026-04-27T12:00:27.001Z</time></trkpt><trkpt lat="30.963801565629335" lon="-8.24298321057879"><ele>1274.0</ele><time>2026-04-27T12:00:28.001Z</time></trkpt><trkpt lat="30.963708311766673" lon="-8.243077869247484"><ele>1271.0</ele><time>2026-04-27T12:00:29.001Z</time></trkpt><trkpt lat="30.96359772503457" lon="-8.243178765625226"><ele>1268.0</ele><time>2026-04-27T12:00:30.001Z</time></trkpt><trkpt lat="30.96348229073566" lon="-8.243293685725329"><ele>1265.0</ele><time>2026-04-27T12:00:31.001Z</time></trkpt><trkpt lat="30.963356314109898" lon="-8.243415985048003"><ele>1271.6666666666667</ele><time>2026-04-27T12:00:32.001Z</time></trkpt><trkpt lat="30.963223265236593" lon="-8.243555731275693"><ele>1278.3333333333333</ele><time>2026-04-27T12:00:33.001Z</time></trkpt><trkpt lat="30.963102674654117" lon="-8.243714946753586"><ele>1285.0</ele><time>2026-04-27T12:00:34.001Z</time></trkpt><trkpt lat="30.96299321550088" lon="-8.243874576534154"><ele>1280.3333333333333</ele><time>2026-04-27T12:00:35.001Z</time></trkpt><trkpt lat="30.962887559069102" lon="-8.24403803750953"><ele>1275.6666666666667</ele><time>2026-04-27T12:00:36.001Z</time></trkpt><trkpt lat="30.96276845435005" lon="-8.24420818967352"><ele>1271.0</ele><time>2026-04-27T12:00:37.001Z</time></trkpt><trkpt lat="30.962646998180873" lon="-8.244373797790324"><ele>1271.0</ele><time>2026-04-27T12:00:38.001Z</time></trkpt><trkpt lat="30.962539889975563" lon="-8.244520284986395"><ele>1271.0</ele><time>2026-04-27T12:00:39.001Z</time></trkpt><trkpt lat="30.962432557484185" lon="-8.244663085155313"><ele>1271.0</ele><time>2026-04-27T12:00:40.001Z</time></trkpt><trkpt lat="30.96232610718633" lon="-8.24480490345196"><ele>1272.6666666666667</ele><time>2026-04-27T12:00:41.001Z</time></trkpt><trkpt lat="30.96222236832969" lon="-8.244941010611115"><ele>1274.3333333333333</ele><time>2026-04-27T12:00:42.001Z</time></trkpt><trkpt lat="30.962106059197712" lon="-8.24507590957093"><ele>1276.0</ele><time>2026-04-27T12:00:43.001Z</time></trkpt><trkpt lat="30.961976156767946" lon="-8.24520565166421"><ele>1276.0</ele><time>2026-04-27T12:00:44.001Z</time></trkpt><trkpt lat="30.961837192366087" lon="-8.245340368379269"><ele>1276.0</ele><time>2026-04-27T12:00:45.001Z</time></trkpt><trkpt lat="30.96169508694725" lon="-8.245477044175475"><ele>1276.0</ele><time>2026-04-27T12:00:46.001Z</time></trkpt><trkpt lat="30.96153593296434" lon="-8.24562762535656"><ele>1277.0</ele><time>2026-04-27T12:00:47.001Z</time></trkpt><trkpt lat="30.961378684509384" lon="-8.245782000002231"><ele>1278.0</ele><time>2026-04-27T12:00:48.001Z</time></trkpt><trkpt lat="30.961232660957645" lon="-8.245928570702366"><ele>1279.0</ele><time>2026-04-27T12:00:49.001Z</time></trkpt><trkpt lat="30.961081901286715" lon="-8.246073291336428"><ele>1279.0</ele><time>2026-04-27T12:00:50.001Z</time></trkpt><trkpt lat="30.960929709496465" lon="-8.246211968103404"><ele>1279.0</ele><time>2026-04-27T12:00:51.001Z</time></trkpt><trkpt lat="30.960772095376566" lon="-8.246332758608458"><ele>1279.0</ele><time>2026-04-27T12:00:52.001Z</time></trkpt><trkpt lat="30.9606401752476" lon="-8.24648936794041"><ele>1279.3333333333333</ele><time>2026-04-27T12:00:53.001Z</time></trkpt><trkpt lat="30.96050088114108" lon="-8.24660010913671"><ele>1279.6666666666667</ele><time>2026-04-27T12:00:54.001Z</time></trkpt><trkpt lat="30.9603823328182" lon="-8.246712060888344"><ele>1280.0</ele><time>2026-04-27T12:00:55.001Z</time></trkpt><trkpt lat="30.960232370832173" lon="-8.24681600263958"><ele>1280.0</ele><time>2026-04-27T12:00:56.001Z</time></trkpt><trkpt lat="30.960097812418464" lon="-8.246879026227768"><ele>1280.0</ele><time>2026-04-27T12:00:57.001Z</time></trkpt><trkpt lat="30.959942775861848" lon="-8.246914081978053"><ele>1280.0</ele><time>2026-04-27T12:00:58.001Z</time></trkpt><trkpt lat="30.959789081958515" lon="-8.246948029060572"><ele>1286.0</ele><time>2026-04-27T12:00:59.001Z</time></trkpt><trkpt lat="30.959624962436713" lon="-8.246968451034626"><ele>1292.0</ele><time>2026-04-27T12:01:00.001Z</time></trkpt><trkpt lat="30.95946312484687" lon="-8.246967397623822"><ele>1298.0</ele><time>2026-04-27T12:01:01.001Z</time></trkpt><trkpt lat="30.95930614101525" lon="-8.246956291074516"><ele>1298.0</ele><time>2026-04-27T12:01:02.001Z</time></trkpt><trkpt lat="30.959151478371247" lon="-8.246904493504427"><ele>1298.0</ele><time>2026-04-27T12:01:03.001Z</time></trkpt><trkpt lat="30.959020673217736" lon="-8.24683392937925"><ele>1298.0</ele><time>2026-04-27T12:01:04.001Z</time></trkpt><trkpt lat="30.958882647372654" lon="-8.24676471020008"><ele>1298.0</ele><time>2026-04-27T12:01:05.001Z</time></trkpt><trkpt lat="30.95873772184992" lon="-8.246675864778537"><ele>1298.0</ele><time>2026-04-27T12:01:06.001Z</time></trkpt><trkpt lat="30.958568966745723" lon="-8.246568848083045"><ele>1298.0</ele><time>2026-04-27T12:01:07.001Z</time></trkpt><trkpt lat="30.958375923486877" lon="-8.24644941095216"><ele>1304.0</ele><time>2026-04-27T12:01:08.001Z</time></trkpt><trkpt lat="30.958181234358253" lon="-8.246337594088612"><ele>1310.0</ele><time>2026-04-27T12:01:09.001Z</time></trkpt><trkpt lat="30.957996676605564" lon="-8.246231014604065"><ele>1316.0</ele><time>2026-04-27T12:01:10.001Z</time></trkpt><trkpt lat="30.957809119845898" lon="-8.246126342483656"><ele>1316.0</ele><time>2026-04-27T12:01:11.001Z</time></trkpt><trkpt lat="30.9576371956193" lon="-8.246036810528869"><ele>1316.0</ele><time>2026-04-27T12:01:12.001Z</time></trkpt><trkpt lat="30.95747679588626" lon="-8.245957393690702"><ele>1316.0</ele><time>2026-04-27T12:01:13.001Z</time></trkpt><trkpt lat="30.957335717221092" lon="-8.245885975261393"><ele>1311.25</ele><time>2026-04-27T12:01:14.001Z</time></trkpt><trkpt lat="30.957203201847662" lon="-8.245826538255798"><ele>1306.5</ele><time>2026-04-27T12:01:15.001Z</time></trkpt><trkpt lat="30.95707212588575" lon="-8.245794095779203"><ele>1301.75</ele><time>2026-04-27T12:01:16.001Z</time></trkpt><trkpt lat="30.956921783291037" lon="-8.245779274345214"><ele>1297.0</ele><time>2026-04-27T12:01:17.001Z</time></trkpt><trkpt lat="30.956748244137053" lon="-8.245784343018443"><ele>1296.3333333333333</ele><time>2026-04-27T12:01:18.001Z</time></trkpt><trkpt lat="30.95657769821513" lon="-8.245802805494264"><ele>1295.6666666666667</ele><time>2026-04-27T12:01:19.001Z</time></trkpt><trkpt lat="30.95640445649146" lon="-8.245828296965625"><ele>1295.0</ele><time>2026-04-27T12:01:20.001Z</time></trkpt><trkpt lat="30.95621754474106" lon="-8.245859733037996"><ele>1295.0</ele><time>2026-04-27T12:01:21Z</time></trkpt><trkpt lat="30.956018044104223" lon="-8.245886680051102"><ele>1295.0</ele><time>2026-04-27T12:01:22Z</time></trkpt><trkpt lat="30.955806880636363" lon="-8.245939694960366"><ele>1295.0</ele><time>2026-04-27T12:01:23Z</time></trkpt><trkpt lat="30.955587184304488" lon="-8.245962951463762"><ele>1297.0</ele><time>2026-04-27T12:01:24Z</time></trkpt><trkpt lat="30.955391739743085" lon="-8.246008363709594"><ele>1299.0</ele><time>2026-04-27T12:01:25Z</time></trkpt><trkpt lat="30.95519715871434" lon="-8.246050831130187"><ele>1301.0</ele><time>2026-04-27T12:01:26Z</time></trkpt><trkpt lat="30.95501165349353" lon="-8.246088277073222"><ele>1304.0</ele><time>2026-04-27T12:01:27Z</time></trkpt><trkpt lat="30.9548363431595" lon="-8.246121393283484"><ele>1307.0</ele><time>2026-04-27T12:01:28Z</time></trkpt><trkpt lat="30.954680016054862" lon="-8.246156026647473"><ele>1310.0</ele><time>2026-04-27T12:01:29Z</time></trkpt><trkpt lat="30.95454109114852" lon="-8.246196790541404"><ele>1310.0</ele><time>2026-04-27T12:01:30Z</time></trkpt><trkpt lat="30.954416748194358" lon="-8.246248548000633"><ele>1310.0</ele><time>2026-04-27T12:01:31Z</time></trkpt><trkpt lat="30.954268141410605" lon="-8.246319213133177"><ele>1310.0</ele><time>2026-04-27T12:01:32Z</time></trkpt><trkpt lat="30.954128207760085" lon="-8.246394064954664"><ele>1310.0</ele><time>2026-04-27T12:01:33Z</time></trkpt><trkpt lat="30.954013266295604" lon="-8.246461577138023"><ele>1303.75</ele><time>2026-04-27T12:01:34Z</time></trkpt><trkpt lat="30.953896108484223" lon="-8.246529317429967"><ele>1297.5</ele><time>2026-04-27T12:01:35Z</time></trkpt><trkpt lat="30.953778370218032" lon="-8.246574976157627"><ele>1291.25</ele><time>2026-04-27T12:01:36Z</time></trkpt><trkpt lat="30.953665527660494" lon="-8.246616383761399"><ele>1285.0</ele><time>2026-04-27T12:01:37Z</time></trkpt><trkpt lat="30.953560426190244" lon="-8.24666056774695"><ele>1285.0</ele><time>2026-04-27T12:01:38Z</time></trkpt><trkpt lat="30.953478119772694" lon="-8.246705310205297"><ele>1285.0</ele><time>2026-04-27T12:01:39Z</time></trkpt><trkpt lat="30.95342591154615" lon="-8.246754482488349"><ele>1285.0</ele><time>2026-04-27T12:01:40Z</time></trkpt><trkpt lat="30.95337619615202" lon="-8.246807382403437"><ele>1285.0</ele><time>2026-04-27T12:01:41Z</time></trkpt><trkpt lat="30.95330191212432" lon="-8.246899174570153"><ele>1285.0</ele><time>2026-04-27T12:01:42Z</time></trkpt><trkpt lat="30.953212447613016" lon="-8.247010692475056"><ele>1286.0</ele><time>2026-04-27T12:01:43Z</time></trkpt><trkpt lat="30.95311471355574" lon="-8.247138393617709"><ele>1287.0</ele><time>2026-04-27T12:01:44Z</time></trkpt><trkpt lat="30.953014454451285" lon="-8.24726135096307"><ele>1288.0</ele><time>2026-04-27T12:01:45Z</time></trkpt><trkpt lat="30.952927154103946" lon="-8.24737919818215"><ele>1289.0</ele><time>2026-04-27T12:01:46Z</time></trkpt><trkpt lat="30.952853344093757" lon="-8.247500779683355"><ele>1289.0</ele><time>2026-04-27T12:01:47Z</time></trkpt><trkpt lat="30.952811290354553" lon="-8.247638247729844"><ele>1289.0</ele><time>2026-04-27T12:01:48Z</time></trkpt><trkpt lat="30.952749186230886" lon="-8.247778735169236"><ele>1289.0</ele><time>2026-04-27T12:01:49Z</time></trkpt><trkpt lat="30.952719338102213" lon="-8.247912912976487"><ele>1289.0</ele><time>2026-04-27T12:01:50Z</time></trkpt><trkpt lat="30.952692779673864" lon="-8.248059835010222"><ele>1287.0</ele><time>2026-04-27T12:01:51Z</time></trkpt><trkpt lat="30.952658973282592" lon="-8.248207117704741"><ele>1285.0</ele><time>2026-04-27T12:01:52Z</time></trkpt><trkpt lat="30.952622304577925" lon="-8.248348146772356"><ele>1283.0</ele><time>2026-04-27T12:01:53Z</time></trkpt><trkpt lat="30.95259616539736" lon="-8.248483463633256"><ele>1281.0</ele><time>2026-04-27T12:01:54Z</time></trkpt><trkpt lat="30.952594116731895" lon="-8.248632352369857"><ele>1281.0</ele><time>2026-04-27T12:01:55Z</time></trkpt><trkpt lat="30.952612337669237" lon="-8.24880895881449"><ele>1281.0</ele><time>2026-04-27T12:01:56Z</time></trkpt><trkpt lat="30.952640955341" lon="-8.249002284106531"><ele>1281.0</ele><time>2026-04-27T12:01:57Z</time></trkpt><trkpt lat="30.95268258174056" lon="-8.249194025796335"><ele>1281.6666666666667</ele><time>2026-04-27T12:01:58Z</time></trkpt><trkpt lat="30.95276386391882" lon="-8.249383029682392"><ele>1282.3333333333335</ele><time>2026-04-27T12:01:59Z</time></trkpt><trkpt lat="30.952849681827782" lon="-8.249576368111828"><ele>1283.0</ele><time>2026-04-27T12:02:00Z</time></trkpt><trkpt lat="30.952943439770205" lon="-8.249783742038487"><ele>1285.3333333333335</ele><time>2026-04-27T12:02:01Z</time></trkpt><trkpt lat="30.953032253339515" lon="-8.250008074040375"><ele>1287.6666666666667</ele><time>2026-04-27T12:02:02Z</time></trkpt><trkpt lat="30.953148299009715" lon="-8.250242840385484"><ele>1290.0</ele><time>2026-04-27T12:02:03Z</time></trkpt><trkpt lat="30.953257365954048" lon="-8.250475497201156"><ele>1288.6666666666667</ele><time>2026-04-27T12:02:04.001Z</time></trkpt><trkpt lat="30.95335246798204" lon="-8.250699904864506"><ele>1287.3333333333335</ele><time>2026-04-27T12:02:05.001Z</time></trkpt><trkpt lat="30.95343658099485" lon="-8.250917489804884"><ele>1286.0</ele><time>2026-04-27T12:02:06.001Z</time></trkpt><trkpt lat="30.953515841741247" lon="-8.251124752224898"><ele>1286.0</ele><time>2026-04-27T12:02:07.001Z</time></trkpt><trkpt lat="30.953582438049985" lon="-8.25131210374521"><ele>1286.0</ele><time>2026-04-27T12:02:08.001Z</time></trkpt><trkpt lat="30.953650116449058" lon="-8.251492269322393"><ele>1286.0</ele><time>2026-04-27T12:02:09.001Z</time></trkpt><trkpt lat="30.953719632268214" lon="-8.251672086122458"><ele>1287.5</ele><time>2026-04-27T12:02:10.001Z</time></trkpt><trkpt lat="30.953780169385816" lon="-8.251839272853523"><ele>1289.0</ele><time>2026-04-27T12:02:11.001Z</time></trkpt><trkpt lat="30.9538196832896" lon="-8.251988156901183"><ele>1290.5</ele><time>2026-04-27T12:02:12.001Z</time></trkpt><trkpt lat="30.95384377459131" lon="-8.252134484080095"><ele>1292.0</ele><time>2026-04-27T12:02:13.001Z</time></trkpt><trkpt lat="30.953844450128756" lon="-8.252292543983518"><ele>1292.3333333333335</ele><time>2026-04-27T12:02:14.001Z</time></trkpt><trkpt lat="30.953813836739986" lon="-8.252481327765933"><ele>1292.6666666666667</ele><time>2026-04-27T12:02:15.001Z</time></trkpt><trkpt lat="30.95374740725601" lon="-8.252688033788369"><ele>1293.0</ele><time>2026-04-27T12:02:16.001Z</time></trkpt><trkpt lat="30.953669661082586" lon="-8.25288783199166"><ele>1293.0</ele><time>2026-04-27T12:02:17.001Z</time></trkpt><trkpt lat="30.953596738252095" lon="-8.253070045614876"><ele>1293.0</ele><time>2026-04-27T12:02:18.001Z</time></trkpt><trkpt lat="30.953534764351023" lon="-8.253213975901254"><ele>1293.0</ele><time>2026-04-27T12:02:19.001Z</time></trkpt><trkpt lat="30.95347082439601" lon="-8.253327473524452"><ele>1293.0</ele><time>2026-04-27T12:02:20.001Z</time></trkpt><trkpt lat="30.953400103401687" lon="-8.253407162189058"><ele>1293.75</ele><time>2026-04-27T12:02:21.001Z</time></trkpt><trkpt lat="30.953306512901587" lon="-8.253461828031595"><ele>1294.5</ele><time>2026-04-27T12:02:22.001Z</time></trkpt><trkpt lat="30.953189028536183" lon="-8.253495410905373"><ele>1295.25</ele><time>2026-04-27T12:02:23.001Z</time></trkpt><trkpt lat="30.953060926425565" lon="-8.253500273211232"><ele>1296.0</ele><time>2026-04-27T12:02:24.001Z</time></trkpt><trkpt lat="30.95293431430667" lon="-8.253497599938475"><ele>1296.0</ele><time>2026-04-27T12:02:25.001Z</time></trkpt><trkpt lat="30.95281083538011" lon="-8.253496339991564"><ele>1296.0</ele><time>2026-04-27T12:02:26.001Z</time></trkpt><trkpt lat="30.95267879909649" lon="-8.253493128985987"><ele>1296.0</ele><time>2026-04-27T12:02:27.001Z</time></trkpt><trkpt lat="30.952538396804922" lon="-8.253493144567162"><ele>1296.0</ele><time>2026-04-27T12:02:28.001Z</time></trkpt><trkpt lat="30.952377476138132" lon="-8.253486535640443"><ele>1299.6666666666667</ele><time>2026-04-27T12:02:29.001Z</time></trkpt><trkpt lat="30.952187091117484" lon="-8.25346346782371"><ele>1303.3333333333335</ele><time>2026-04-27T12:02:30.001Z</time></trkpt><trkpt lat="30.95200065177008" lon="-8.253431526571664"><ele>1307.0</ele><time>2026-04-27T12:02:31.001Z</time></trkpt><trkpt lat="30.951830644150952" lon="-8.253404342769073"><ele>1308.3333333333335</ele><time>2026-04-27T12:02:32.001Z</time></trkpt><trkpt lat="30.951648768358762" lon="-8.253400181729386"><ele>1309.6666666666667</ele><time>2026-04-27T12:02:33.001Z</time></trkpt><trkpt lat="30.95145468364754" lon="-8.25343445751518"><ele>1311.0</ele><time>2026-04-27T12:02:34.001Z</time></trkpt><trkpt lat="30.95126541213906" lon="-8.253492319513585"><ele>1311.0</ele><time>2026-04-27T12:02:35.001Z</time></trkpt><trkpt lat="30.951089240487452" lon="-8.253561762297007"><ele>1311.0</ele><time>2026-04-27T12:02:36.001Z</time></trkpt><trkpt lat="30.950916110919273" lon="-8.253641978572276"><ele>1311.0</ele><time>2026-04-27T12:02:37.001Z</time></trkpt><trkpt lat="30.95072844888014" lon="-8.253726601804939"><ele>1315.6666666666667</ele><time>2026-04-27T12:02:38.001Z</time></trkpt><trkpt lat="30.950542857992907" lon="-8.253811414643417"><ele>1320.3333333333335</ele><time>2026-04-27T12:02:39.001Z</time></trkpt><trkpt lat="30.95037112835657" lon="-8.253911193621471"><ele>1325.0</ele><time>2026-04-27T12:02:40.001Z</time></trkpt><trkpt lat="30.950212754300846" lon="-8.254030692248477"><ele>1319.0</ele><time>2026-04-27T12:02:41.001Z</time></trkpt><trkpt lat="30.95005186992815" lon="-8.254166150397568"><ele>1313.0</ele><time>2026-04-27T12:02:42.001Z</time></trkpt><trkpt lat="30.94991175932772" lon="-8.254300694743588"><ele>1307.0</ele><time>2026-04-27T12:02:43.001Z</time></trkpt><trkpt lat="30.949793592595157" lon="-8.254432007488683"><ele>1307.0</ele><time>2026-04-27T12:02:44.001Z</time></trkpt><trkpt lat="30.949691072044978" lon="-8.254572107459007"><ele>1307.0</ele><time>2026-04-27T12:02:45.001Z</time></trkpt><trkpt lat="30.949595128845267" lon="-8.254739687923152"><ele>1307.0</ele><time>2026-04-27T12:02:46.001Z</time></trkpt><trkpt lat="30.949501369292786" lon="-8.25491979301308"><ele>1303.0</ele><time>2026-04-27T12:02:47.001Z</time></trkpt><trkpt lat="30.949420312405906" lon="-8.255083611091797"><ele>1299.0</ele><time>2026-04-27T12:02:48.001Z</time></trkpt><trkpt lat="30.949358941118014" lon="-8.255232398947225"><ele>1295.0</ele><time>2026-04-27T12:02:49.001Z</time></trkpt><trkpt lat="30.949312069001593" lon="-8.255396569354359"><ele>1295.0</ele><time>2026-04-27T12:02:50.001Z</time></trkpt><trkpt lat="30.94926431961797" lon="-8.25558816332447"><ele>1295.0</ele><time>2026-04-27T12:02:51.001Z</time></trkpt><trkpt lat="30.94924139945093" lon="-8.255776347788528"><ele>1295.0</ele><time>2026-04-27T12:02:52.001Z</time></trkpt><trkpt lat="30.94922681093216" lon="-8.255948287118427"><ele>1294.6666666666667</ele><time>2026-04-27T12:02:53.001Z</time></trkpt><trkpt lat="30.949252688603476" lon="-8.256125594566385"><ele>1294.3333333333333</ele><time>2026-04-27T12:02:54.001Z</time></trkpt><trkpt lat="30.949289613488098" lon="-8.25629982200792"><ele>1294.0</ele><time>2026-04-27T12:02:55.001Z</time></trkpt><trkpt lat="30.949347239287537" lon="-8.256492148921671"><ele>1295.0</ele><time>2026-04-27T12:02:56.001Z</time></trkpt><trkpt lat="30.94943206348562" lon="-8.25668350354248"><ele>1296.0</ele><time>2026-04-27T12:02:57.001Z</time></trkpt><trkpt lat="30.9494973268733" lon="-8.256861936555751"><ele>1297.0</ele><time>2026-04-27T12:02:58.001Z</time></trkpt><trkpt lat="30.949569799359033" lon="-8.257017980815263"><ele>1297.0</ele><time>2026-04-27T12:02:59.001Z</time></trkpt><trkpt lat="30.94962511222115" lon="-8.257172834008498"><ele>1297.0</ele><time>2026-04-27T12:03:00.001Z</time></trkpt><trkpt lat="30.94967049232921" lon="-8.257353205147064"><ele>1297.0</ele><time>2026-04-27T12:03:01.001Z</time></trkpt><trkpt lat="30.949756445988516" lon="-8.257542659831165"><ele>1298.0</ele><time>2026-04-27T12:03:02.001Z</time></trkpt><trkpt lat="30.949835664471205" lon="-8.257733247922106"><ele>1299.0</ele><time>2026-04-27T12:03:03.001Z</time></trkpt><trkpt lat="30.94993105921379" lon="-8.257931659837949"><ele>1300.0</ele><time>2026-04-27T12:03:04.001Z</time></trkpt><trkpt lat="30.95002613968236" lon="-8.258130870407136"><ele>1300.0</ele><time>2026-04-27T12:03:05.002Z</time></trkpt><trkpt lat="30.950124142141753" lon="-8.25833370386324"><ele>1300.0</ele><time>2026-04-27T12:03:06.002Z</time></trkpt><trkpt lat="30.950227900831443" lon="-8.258536926359723"><ele>1300.0</ele><time>2026-04-27T12:03:07.002Z</time></trkpt><trkpt lat="30.950342611625253" lon="-8.25875182443422"><ele>1303.0</ele><time>2026-04-27T12:03:08.002Z</time></trkpt><trkpt lat="30.950469631611615" lon="-8.258967758272325"><ele>1306.0</ele><time>2026-04-27T12:03:09.002Z</time></trkpt><trkpt lat="30.950588453569075" lon="-8.259187799415239"><ele>1309.0</ele><time>2026-04-27T12:03:10.002Z</time></trkpt><trkpt lat="30.950705371803227" lon="-8.25940618293423"><ele>1309.0</ele><time>2026-04-27T12:03:11.002Z</time></trkpt><trkpt lat="30.95081204219493" lon="-8.259628730110236"><ele>1309.0</ele><time>2026-04-27T12:03:12.002Z</time></trkpt><trkpt lat="30.950890719592707" lon="-8.25983543788267"><ele>1309.0</ele><time>2026-04-27T12:03:13.002Z</time></trkpt><trkpt lat="30.9509839422709" lon="-8.260040920971786"><ele>1309.0</ele><time>2026-04-27T12:03:14.002Z</time></trkpt><trkpt lat="30.95109387090897" lon="-8.260242117828552"><ele>1309.0</ele><time>2026-04-27T12:03:15.002Z</time></trkpt><trkpt lat="30.951159195727016" lon="-8.260474071952869"><ele>1309.0</ele><time>2026-04-27T12:03:16.002Z</time></trkpt><trkpt lat="30.95123371069944" lon="-8.260693448691718"><ele>1309.0</ele><time>2026-04-27T12:03:17.002Z</time></trkpt><trkpt lat="30.95130115568167" lon="-8.260935174437035"><ele>1309.0</ele><time>2026-04-27T12:03:18.002Z</time></trkpt><trkpt lat="30.951360450003374" lon="-8.261172100216156"><ele>1309.0</ele><time>2026-04-27T12:03:19.002Z</time></trkpt><trkpt lat="30.951413865588673" lon="-8.261413172386506"><ele>1312.3333333333333</ele><time>2026-04-27T12:03:20.002Z</time></trkpt><trkpt lat="30.95148568906384" lon="-8.261655366920523"><ele>1315.6666666666667</ele><time>2026-04-27T12:03:21.002Z</time></trkpt><trkpt lat="30.951545854573414" lon="-8.261902025065783"><ele>1319.0</ele><time>2026-04-27T12:03:22.002Z</time></trkpt><trkpt lat="30.951579097051955" lon="-8.262157153167365"><ele>1320.3333333333335</ele><time>2026-04-27T12:03:23.002Z</time></trkpt><trkpt lat="30.95160314663223" lon="-8.262377218913773"><ele>1321.6666666666667</ele><time>2026-04-27T12:03:24.002Z</time></trkpt><trkpt lat="30.951625868914736" lon="-8.262582464435837"><ele>1323.0</ele><time>2026-04-27T12:03:25.002Z</time></trkpt><trkpt lat="30.95164750961266" lon="-8.26277328866145"><ele>1323.0</ele><time>2026-04-27T12:03:26.002Z</time></trkpt><trkpt lat="30.951666869969582" lon="-8.26294841993918"><ele>1323.0</ele><time>2026-04-27T12:03:27.001Z</time></trkpt><trkpt lat="30.951675710431875" lon="-8.263101726950277"><ele>1323.0</ele><time>2026-04-27T12:03:28.001Z</time></trkpt><trkpt lat="30.951683954159403" lon="-8.263232192908305"><ele>1323.0</ele><time>2026-04-27T12:03:29.001Z</time></trkpt><trkpt lat="30.95168169012352" lon="-8.26334744804781"><ele>1323.25</ele><time>2026-04-27T12:03:30.001Z</time></trkpt><trkpt lat="30.951662801978344" lon="-8.263458291794374"><ele>1323.5</ele><time>2026-04-27T12:03:31.001Z</time></trkpt><trkpt lat="30.951604337610842" lon="-8.263587655939867"><ele>1323.75</ele><time>2026-04-27T12:03:32.001Z</time></trkpt><trkpt lat="30.951509254220642" lon="-8.26368089353085"><ele>1324.0</ele><time>2026-04-27T12:03:33.001Z</time></trkpt><trkpt lat="30.951363695897435" lon="-8.263748164443227"><ele>1324.0</ele><time>2026-04-27T12:03:34.001Z</time></trkpt><trkpt lat="30.951207743462085" lon="-8.263803336588953"><ele>1324.0</ele><time>2026-04-27T12:03:35.001Z</time></trkpt><trkpt lat="30.9510721877467" lon="-8.263855004424519"><ele>1324.0</ele><time>2026-04-27T12:03:36.001Z</time></trkpt><trkpt lat="30.95092563442242" lon="-8.263899942350031"><ele>1328.75</ele><time>2026-04-27T12:03:37.001Z</time></trkpt><trkpt lat="30.95077460036917" lon="-8.263915471459736"><ele>1333.5</ele><time>2026-04-27T12:03:38.001Z</time></trkpt><trkpt lat="30.95062675682222" lon="-8.26391022537643"><ele>1338.25</ele><time>2026-04-27T12:03:39.001Z</time></trkpt><trkpt lat="30.950495385276543" lon="-8.26388387925089"><ele>1343.0</ele><time>2026-04-27T12:03:40.001Z</time></trkpt><trkpt lat="30.950365534500165" lon="-8.263842061329761"><ele>1343.0</ele><time>2026-04-27T12:03:41.001Z</time></trkpt><trkpt lat="30.950217880398796" lon="-8.263766725222908"><ele>1343.0</ele><time>2026-04-27T12:03:42.001Z</time></trkpt><trkpt lat="30.950068033278825" lon="-8.263677997484075"><ele>1343.0</ele><time>2026-04-27T12:03:43.001Z</time></trkpt><trkpt lat="30.949904079798348" lon="-8.263565279475051"><ele>1342.0</ele><time>2026-04-27T12:03:44.001Z</time></trkpt><trkpt lat="30.94975193139128" lon="-8.263458112660517"><ele>1341.0</ele><time>2026-04-27T12:03:45.001Z</time></trkpt><trkpt lat="30.949623485968143" lon="-8.263374487275163"><ele>1340.0</ele><time>2026-04-27T12:03:46.001Z</time></trkpt><trkpt lat="30.949503714508126" lon="-8.263343343998265"><ele>1339.0</ele><time>2026-04-27T12:03:47.001Z</time></trkpt><trkpt lat="30.949370151381377" lon="-8.263334613593399"><ele>1336.0</ele><time>2026-04-27T12:03:48.001Z</time></trkpt><trkpt lat="30.949200971930882" lon="-8.263328307217924"><ele>1333.0</ele><time>2026-04-27T12:03:49.001Z</time></trkpt><trkpt lat="30.949023860929014" lon="-8.26332797698668"><ele>1330.0</ele><time>2026-04-27T12:03:50.001Z</time></trkpt><trkpt lat="30.94885526468314" lon="-8.263346362771344"><ele>1330.0</ele><time>2026-04-27T12:03:51.001Z</time></trkpt><trkpt lat="30.948695676742215" lon="-8.263385848369404"><ele>1330.0</ele><time>2026-04-27T12:03:52.001Z</time></trkpt><trkpt lat="30.94853089145393" lon="-8.26343121541733"><ele>1330.0</ele><time>2026-04-27T12:03:53.001Z</time></trkpt><trkpt lat="30.948374386988156" lon="-8.263499074428694"><ele>1333.6666666666665</ele><time>2026-04-27T12:03:54.001Z</time></trkpt><trkpt lat="30.948218497265966" lon="-8.263564529132713"><ele>1337.3333333333333</ele><time>2026-04-27T12:03:55.001Z</time></trkpt><trkpt lat="30.94807586485136" lon="-8.263644681577901"><ele>1341.0</ele><time>2026-04-27T12:03:56.001Z</time></trkpt><trkpt lat="30.94790445895023" lon="-8.263741442647481"><ele>1341.0</ele><time>2026-04-27T12:03:57.001Z</time></trkpt><trkpt lat="30.947745498215735" lon="-8.263844243575154"><ele>1341.0</ele><time>2026-04-27T12:03:58.001Z</time></trkpt><trkpt lat="30.947601873673385" lon="-8.263948392914088"><ele>1341.0</ele><time>2026-04-27T12:03:59.001Z</time></trkpt><trkpt lat="30.94747743300591" lon="-8.26404431292806"><ele>1336.75</ele><time>2026-04-27T12:04:00.001Z</time></trkpt><trkpt lat="30.947364716675967" lon="-8.264133366736223"><ele>1332.5</ele><time>2026-04-27T12:04:01.001Z</time></trkpt><trkpt lat="30.947261135203206" lon="-8.264219496830854"><ele>1328.25</ele><time>2026-04-27T12:04:02.001Z</time></trkpt><trkpt lat="30.947224866112766" lon="-8.26434969542335"><ele>1324.0</ele><time>2026-04-27T12:04:03.001Z</time></trkpt><trkpt lat="30.94718061796115" lon="-8.264507398244994"><ele>1324.0</ele><time>2026-04-27T12:04:04.001Z</time></trkpt><trkpt lat="30.94714354824849" lon="-8.264704240797982"><ele>1324.0</ele><time>2026-04-27T12:04:05.001Z</time></trkpt><trkpt lat="30.947093665994068" lon="-8.26494429821319"><ele>1324.0</ele><time>2026-04-27T12:04:06.001Z</time></trkpt><trkpt lat="30.947051908342747" lon="-8.26517995933257"><ele>1322.0</ele><time>2026-04-27T12:04:07.001Z</time></trkpt><trkpt lat="30.947013537167674" lon="-8.265404946455625"><ele>1320.0</ele><time>2026-04-27T12:04:08.001Z</time></trkpt><trkpt lat="30.946957266958528" lon="-8.265646453942018"><ele>1318.0</ele><time>2026-04-27T12:04:09.001Z</time></trkpt><trkpt lat="30.946880970174085" lon="-8.265879297089235"><ele>1318.0</ele><time>2026-04-27T12:04:10.001Z</time></trkpt><trkpt lat="30.94679186051315" lon="-8.266097945414593"><ele>1318.0</ele><time>2026-04-27T12:04:11.001Z</time></trkpt><trkpt lat="30.94670292643941" lon="-8.266277830861886"><ele>1318.0</ele><time>2026-04-27T12:04:12.001Z</time></trkpt><trkpt lat="30.946637272490467" lon="-8.266443783752946"><ele>1322.5</ele><time>2026-04-27T12:04:13.001Z</time></trkpt><trkpt lat="30.946595043334074" lon="-8.266593084732648"><ele>1327.0</ele><time>2026-04-27T12:04:14.001Z</time></trkpt><trkpt lat="30.94658068348954" lon="-8.266732669285203"><ele>1331.5</ele><time>2026-04-27T12:04:15.001Z</time></trkpt><trkpt lat="30.94658480557671" lon="-8.26687558760037"><ele>1336.0</ele><time>2026-04-27T12:04:16.001Z</time></trkpt><trkpt lat="30.94661873131375" lon="-8.267028376806081"><ele>1336.0</ele><time>2026-04-27T12:04:17.001Z</time></trkpt><trkpt lat="30.94669615511112" lon="-8.267196057502952"><ele>1336.0</ele><time>2026-04-27T12:04:18.001Z</time></trkpt><trkpt lat="30.94676705451682" lon="-8.26739222538765"><ele>1336.0</ele><time>2026-04-27T12:04:19.001Z</time></trkpt><trkpt lat="30.946852303967734" lon="-8.267594334003796"><ele>1335.6666666666665</ele><time>2026-04-27T12:04:20.001Z</time></trkpt><trkpt lat="30.946954888807056" lon="-8.267797002430806"><ele>1335.3333333333333</ele><time>2026-04-27T12:04:21.001Z</time></trkpt><trkpt lat="30.94703411041834" lon="-8.268005925503244"><ele>1335.0</ele><time>2026-04-27T12:04:22.001Z</time></trkpt><trkpt lat="30.947114707676622" lon="-8.268218331263755"><ele>1335.0</ele><time>2026-04-27T12:04:23.001Z</time></trkpt><trkpt lat="30.947180371822895" lon="-8.268436155812612"><ele>1335.0</ele><time>2026-04-27T12:04:24.001Z</time></trkpt><trkpt lat="30.947260206662424" lon="-8.268631929507308"><ele>1335.0</ele><time>2026-04-27T12:04:25.001Z</time></trkpt><trkpt lat="30.947333452010227" lon="-8.268804919203879"><ele>1334.3333333333333</ele><time>2026-04-27T12:04:26.001Z</time></trkpt><trkpt lat="30.947412545054757" lon="-8.268981324856364"><ele>1333.6666666666665</ele><time>2026-04-27T12:04:27.001Z</time></trkpt><trkpt lat="30.947486515232853" lon="-8.269160191771816"><ele>1333.0</ele><time>2026-04-27T12:04:28.001Z</time></trkpt><trkpt lat="30.94756204573323" lon="-8.269336962236684"><ele>1333.0</ele><time>2026-04-27T12:04:29.001Z</time></trkpt><trkpt lat="30.947642291598672" lon="-8.269476636741478"><ele>1333.0</ele><time>2026-04-27T12:04:30.001Z</time></trkpt><trkpt lat="30.947700877931915" lon="-8.269598365861718"><ele>1333.0</ele><time>2026-04-27T12:04:31.001Z</time></trkpt><trkpt lat="30.94773135612467" lon="-8.269696142170774"><ele>1333.0</ele><time>2026-04-27T12:04:32.001Z</time></trkpt><trkpt lat="30.947746371007888" lon="-8.269790815166964"><ele>1333.0</ele><time>2026-04-27T12:04:33.001Z</time></trkpt><trkpt lat="30.947727970055134" lon="-8.269900774152116"><ele>1333.0</ele><time>2026-04-27T12:04:34.001Z</time></trkpt><trkpt lat="30.947658189564823" lon="-8.270009342757742"><ele>1333.0</ele><time>2026-04-27T12:04:35.001Z</time></trkpt><trkpt lat="30.947504046871895" lon="-8.270040654653778"><ele>1333.0</ele><time>2026-04-27T12:04:36.001Z</time></trkpt><trkpt lat="30.94737247158614" lon="-8.270025756662893"><ele>1333.0</ele><time>2026-04-27T12:04:37.001Z</time></trkpt><trkpt lat="30.94723356295368" lon="-8.26997987569809"><ele>1334.0</ele><time>2026-04-27T12:04:38.001Z</time></trkpt><trkpt lat="30.94708833550618" lon="-8.269933408684308"><ele>1335.0</ele><time>2026-04-27T12:04:39.001Z</time></trkpt><trkpt lat="30.946951408855032" lon="-8.269884953081043"><ele>1336.0</ele><time>2026-04-27T12:04:40.001Z</time></trkpt><trkpt lat="30.946807790777527" lon="-8.269830438761819"><ele>1337.0</ele><time>2026-04-27T12:04:41.001Z</time></trkpt><trkpt lat="30.946661995847666" lon="-8.269773751650073"><ele>1342.25</ele><time>2026-04-27T12:04:42.001Z</time></trkpt><trkpt lat="30.946524892307483" lon="-8.269720953906148"><ele>1347.5</ele><time>2026-04-27T12:04:43.001Z</time></trkpt><trkpt lat="30.946401659089425" lon="-8.269680729613656"><ele>1352.75</ele><time>2026-04-27T12:04:44.001Z</time></trkpt><trkpt lat="30.94627796971315" lon="-8.26964035641058"><ele>1358.0</ele><time>2026-04-27T12:04:45.001Z</time></trkpt><trkpt lat="30.946150644298882" lon="-8.269599180353579"><ele>1358.0</ele><time>2026-04-27T12:04:46.001Z</time></trkpt><trkpt lat="30.94602246498402" lon="-8.26956091461947"><ele>1358.0</ele><time>2026-04-27T12:04:47.001Z</time></trkpt><trkpt lat="30.94589316284369" lon="-8.269521673473431"><ele>1358.0</ele><time>2026-04-27T12:04:48.001Z</time></trkpt><trkpt lat="30.94576397652872" lon="-8.269487910269433"><ele>1358.0</ele><time>2026-04-27T12:04:49.001Z</time></trkpt><trkpt lat="30.945630050027724" lon="-8.269456697193386"><ele>1358.6666666666667</ele><time>2026-04-27T12:04:50.001Z</time></trkpt><trkpt lat="30.9454698112478" lon="-8.269422456632924"><ele>1359.3333333333333</ele><time>2026-04-27T12:04:51.001Z</time></trkpt><trkpt lat="30.945309002332387" lon="-8.26939042040164"><ele>1360.0</ele><time>2026-04-27T12:04:52.001Z</time></trkpt><trkpt lat="30.945150694979247" lon="-8.269330156135782"><ele>1357.3333333333333</ele><time>2026-04-27T12:04:53.001Z</time></trkpt><trkpt lat="30.944990868434306" lon="-8.269261471172667"><ele>1354.6666666666667</ele><time>2026-04-27T12:04:54.001Z</time></trkpt><trkpt lat="30.944831051036033" lon="-8.269215739488578"><ele>1352.0</ele><time>2026-04-27T12:04:55.001Z</time></trkpt><trkpt lat="30.944674964604935" lon="-8.269184786904308"><ele>1352.0</ele><time>2026-04-27T12:04:56.001Z</time></trkpt><trkpt lat="30.944511031298784" lon="-8.269168703017987"><ele>1352.0</ele><time>2026-04-27T12:04:57.001Z</time></trkpt><trkpt lat="30.944333998051675" lon="-8.269164099596303"><ele>1352.0</ele><time>2026-04-27T12:04:58.001Z</time></trkpt><trkpt lat="30.944142606949256" lon="-8.269164755677918"><ele>1351.3333333333335</ele><time>2026-04-27T12:04:59.001Z</time></trkpt><trkpt lat="30.943957359975737" lon="-8.269203623755741"><ele>1350.6666666666667</ele><time>2026-04-27T12:05:00.001Z</time></trkpt><trkpt lat="30.94376440901222" lon="-8.26925516471569"><ele>1350.0</ele><time>2026-04-27T12:05:01.001Z</time></trkpt><trkpt lat="30.943559401857083" lon="-8.269305094233209"><ele>1354.5</ele><time>2026-04-27T12:05:02.001Z</time></trkpt><trkpt lat="30.943352093011207" lon="-8.269392257788846"><ele>1359.0</ele><time>2026-04-27T12:05:03.001Z</time></trkpt><trkpt lat="30.94314331865346" lon="-8.269505016500027"><ele>1359.0</ele><time>2026-04-27T12:05:04.002Z</time></trkpt><trkpt lat="30.942945082289064" lon="-8.26961236901673"><ele>1359.0</ele><time>2026-04-27T12:05:05.002Z</time></trkpt><trkpt lat="30.942746188947172" lon="-8.269719951665541"><ele>1359.0</ele><time>2026-04-27T12:05:06.002Z</time></trkpt><trkpt lat="30.942545678746672" lon="-8.26982446521043"><ele>1356.6666666666667</ele><time>2026-04-27T12:05:07.002Z</time></trkpt><trkpt lat="30.942345327590544" lon="-8.269927552210095"><ele>1354.3333333333335</ele><time>2026-04-27T12:05:08.002Z</time></trkpt><trkpt lat="30.942156088744554" lon="-8.270059471892644"><ele>1352.0</ele><time>2026-04-27T12:05:09.002Z</time></trkpt><trkpt lat="30.941946848526324" lon="-8.270174215360326"><ele>1352.0</ele><time>2026-04-27T12:05:10.002Z</time></trkpt><trkpt lat="30.94175431626951" lon="-8.27031582646934"><ele>1352.0</ele><time>2026-04-27T12:05:11.002Z</time></trkpt><trkpt lat="30.94156339344566" lon="-8.27045536901999"><ele>1352.3333333333335</ele><time>2026-04-27T12:05:12.002Z</time></trkpt><trkpt lat="30.94139555260565" lon="-8.27057036628168"><ele>1352.6666666666667</ele><time>2026-04-27T12:05:13.002Z</time></trkpt><trkpt lat="30.94124103678698" lon="-8.270668308556582"><ele>1353.0</ele><time>2026-04-27T12:05:14.002Z</time></trkpt><trkpt lat="30.94107526393811" lon="-8.270770199355313"><ele>1353.0</ele><time>2026-04-27T12:05:15.002Z</time></trkpt><trkpt lat="30.940903666429286" lon="-8.270862379073964"><ele>1353.0</ele><time>2026-04-27T12:05:16.002Z</time></trkpt><trkpt lat="30.940722975498005" lon="-8.270947881087634"><ele>1353.0</ele><time>2026-04-27T12:05:17.002Z</time></trkpt><trkpt lat="30.94054452979488" lon="-8.271012635487153"><ele>1358.6666666666667</ele><time>2026-04-27T12:05:18.002Z</time></trkpt><trkpt lat="30.94037566065458" lon="-8.271069014760284"><ele>1364.3333333333335</ele><time>2026-04-27T12:05:19.002Z</time></trkpt><trkpt lat="30.940213452240805" lon="-8.271119962151326"><ele>1370.0</ele><time>2026-04-27T12:05:20.002Z</time></trkpt><trkpt lat="30.94005229717578" lon="-8.271167113905793"><ele>1374.0</ele><time>2026-04-27T12:05:21.002Z</time></trkpt><trkpt lat="30.939898354864656" lon="-8.27120166645746"><ele>1378.0</ele><time>2026-04-27T12:05:22.002Z</time></trkpt><trkpt lat="30.93975847201669" lon="-8.271239079353252"><ele>1382.0</ele><time>2026-04-27T12:05:23.002Z</time></trkpt><trkpt lat="30.939644258082016" lon="-8.271286079813933"><ele>1386.0</ele><time>2026-04-27T12:05:24.002Z</time></trkpt><trkpt lat="30.939527640974795" lon="-8.27134945268472"><ele>1386.0</ele><time>2026-04-27T12:05:25.002Z</time></trkpt><trkpt lat="30.939380311156427" lon="-8.271440173052165"><ele>1386.0</ele><time>2026-04-27T12:05:26.002Z</time></trkpt><trkpt lat="30.93925293016647" lon="-8.271529958475611"><ele>1386.0</ele><time>2026-04-27T12:05:27.002Z</time></trkpt><trkpt lat="30.93915177190753" lon="-8.271618748018135"><ele>1386.0</ele><time>2026-04-27T12:05:28.002Z</time></trkpt><trkpt lat="30.939060351752683" lon="-8.271691906388122"><ele>1383.8</ele><time>2026-04-27T12:05:29.002Z</time></trkpt><trkpt lat="30.938975815520486" lon="-8.271733962521083"><ele>1381.6</ele><time>2026-04-27T12:05:30.002Z</time></trkpt><trkpt lat="30.9388900238387" lon="-8.271737931952392"><ele>1379.4</ele><time>2026-04-27T12:05:31.002Z</time></trkpt><trkpt lat="30.938806929602418" lon="-8.271743050453646"><ele>1377.2</ele><time>2026-04-27T12:05:32.002Z</time></trkpt><trkpt lat="30.938709372535495" lon="-8.27168399726141"><ele>1375.0</ele><time>2026-04-27T12:05:33.001Z</time></trkpt><trkpt lat="30.938614287745" lon="-8.271633394058046"><ele>1375.0</ele><time>2026-04-27T12:05:34.001Z</time></trkpt><trkpt lat="30.93853274637129" lon="-8.271454158648845"><ele>1375.0</ele><time>2026-04-27T12:05:35.001Z</time></trkpt><trkpt lat="30.938464693383725" lon="-8.271298345519725"><ele>1375.0</ele><time>2026-04-27T12:05:36.001Z</time></trkpt><trkpt lat="30.938398378756087" lon="-8.271161951969123"><ele>1377.6</ele><time>2026-04-27T12:05:37.001Z</time></trkpt><trkpt lat="30.938345935968588" lon="-8.271054089225034"><ele>1380.2</ele><time>2026-04-27T12:05:38.001Z</time></trkpt><trkpt lat="30.938282843942442" lon="-8.27100201159695"><ele>1382.8000000000002</ele><time>2026-04-27T12:05:39.001Z</time></trkpt><trkpt lat="30.938228153797567" lon="-8.270932856001174"><ele>1385.4</ele><time>2026-04-27T12:05:40.001Z</time></trkpt><trkpt lat="30.938120147914915" lon="-8.270879084896748"><ele>1388.0</ele><time>2026-04-27T12:05:42.001Z</time></trkpt><trkpt lat="30.93805879648669" lon="-8.270840972969356"><ele>1388.0</ele><time>2026-04-27T12:05:43.001Z</time></trkpt><trkpt lat="30.937963162564422" lon="-8.270788213760419"><ele>1388.0</ele><time>2026-04-27T12:05:44.001Z</time></trkpt><trkpt lat="30.937858193296595" lon="-8.270730304442825"><ele>1388.0</ele><time>2026-04-27T12:05:45.001Z</time></trkpt><trkpt lat="30.937764919653745" lon="-8.270679269283043"><ele>1388.0</ele><time>2026-04-27T12:05:46.001Z</time></trkpt><trkpt lat="30.937651952364135" lon="-8.270618614478998"><ele>1388.0</ele><time>2026-04-27T12:05:47.001Z</time></trkpt><trkpt lat="30.937532610681565" lon="-8.270529183250924"><ele>1389.3333333333335</ele><time>2026-04-27T12:05:48.001Z</time></trkpt><trkpt lat="30.937408675993954" lon="-8.270438326377324"><ele>1390.6666666666667</ele><time>2026-04-27T12:05:49.001Z</time></trkpt><trkpt lat="30.93728619046579" lon="-8.27027438869256"><ele>1392.0</ele><time>2026-04-27T12:05:50.001Z</time></trkpt><trkpt lat="30.93714071681768" lon="-8.270104159229582"><ele>1392.0</ele><time>2026-04-27T12:05:51.001Z</time></trkpt><trkpt lat="30.937003643945495" lon="-8.26991199382166"><ele>1392.0</ele><time>2026-04-27T12:05:52.001Z</time></trkpt><trkpt lat="30.93687662695945" lon="-8.269729418321443"><ele>1392.0</ele><time>2026-04-27T12:05:53.001Z</time></trkpt><trkpt lat="30.936765005059392" lon="-8.2695680124035"><ele>1394.0</ele><time>2026-04-27T12:05:54.001Z</time></trkpt><trkpt lat="30.936674865264628" lon="-8.26940910696595"><ele>1396.0</ele><time>2026-04-27T12:05:55.001Z</time></trkpt><trkpt lat="30.93658119697767" lon="-8.269253871824022"><ele>1398.0</ele><time>2026-04-27T12:05:56.001Z</time></trkpt><trkpt lat="30.936503454133643" lon="-8.269101054765448"><ele>1398.0</ele><time>2026-04-27T12:05:57.001Z</time></trkpt><trkpt lat="30.936444702651805" lon="-8.268966227850019"><ele>1398.0</ele><time>2026-04-27T12:05:58.001Z</time></trkpt><trkpt lat="30.936394258951534" lon="-8.268841236836364"><ele>1398.0</ele><time>2026-04-27T12:05:59.001Z</time></trkpt><trkpt lat="30.936334002473977" lon="-8.268741058454758"><ele>1398.0</ele><time>2026-04-27T12:06:00.001Z</time></trkpt><trkpt lat="30.936276370518886" lon="-8.26866038358394"><ele>1398.0</ele><time>2026-04-27T12:06:01.001Z</time></trkpt><trkpt lat="30.936223983226714" lon="-8.26859714595766"><ele>1399.2</ele><time>2026-04-27T12:06:02.001Z</time></trkpt><trkpt lat="30.936174546575003" lon="-8.268534226882107"><ele>1400.4</ele><time>2026-04-27T12:06:03.001Z</time></trkpt><trkpt lat="30.936087966569215" lon="-8.268527531055351"><ele>1401.6000000000001</ele><time>2026-04-27T12:06:04.001Z</time></trkpt><trkpt lat="30.93598909958201" lon="-8.26855964128031"><ele>1402.8000000000002</ele><time>2026-04-27T12:06:05.001Z</time></trkpt><trkpt lat="30.935902713190973" lon="-8.268629927577287"><ele>1404.0</ele><time>2026-04-27T12:06:06.001Z</time></trkpt><trkpt lat="30.935839397434147" lon="-8.26872824051567"><ele>1404.0</ele><time>2026-04-27T12:06:07.001Z</time></trkpt><trkpt lat="30.935813344474255" lon="-8.268850845817804"><ele>1404.0</ele><time>2026-04-27T12:06:08.001Z</time></trkpt><trkpt lat="30.935822132420775" lon="-8.26897790280232"><ele>1404.0</ele><time>2026-04-27T12:06:09.001Z</time></trkpt><trkpt lat="30.935865049483912" lon="-8.269098377120073"><ele>1404.0</ele><time>2026-04-27T12:06:10.001Z</time></trkpt><trkpt lat="30.93593498648192" lon="-8.269236235241378"><ele>1402.8000000000002</ele><time>2026-04-27T12:06:11.001Z</time></trkpt><trkpt lat="30.935991446511757" lon="-8.2693561717164"><ele>1401.6000000000001</ele><time>2026-04-27T12:06:12.001Z</time></trkpt><trkpt lat="30.936025301259868" lon="-8.269462181886752"><ele>1400.4</ele><time>2026-04-27T12:06:13.001Z</time></trkpt><trkpt lat="30.936029611401413" lon="-8.269564687906737"><ele>1399.2</ele><time>2026-04-27T12:06:14.001Z</time></trkpt><trkpt lat="30.936005526348005" lon="-8.269673407350203"><ele>1398.0</ele><time>2026-04-27T12:06:15.001Z</time></trkpt><trkpt lat="30.935953299921458" lon="-8.269780298440397"><ele>1399.75</ele><time>2026-04-27T12:06:16.001Z</time></trkpt><trkpt lat="30.93586649137998" lon="-8.269877320529371"><ele>1401.5</ele><time>2026-04-27T12:06:17.001Z</time></trkpt><trkpt lat="30.935740799196182" lon="-8.26997053479247"><ele>1403.25</ele><time>2026-04-27T12:06:18.001Z</time></trkpt><trkpt lat="30.935596390307087" lon="-8.270059516745015"><ele>1405.0</ele><time>2026-04-27T12:06:19.001Z</time></trkpt><trkpt lat="30.935454210354653" lon="-8.270140829795277"><ele>1405.0</ele><time>2026-04-27T12:06:20.001Z</time></trkpt><trkpt lat="30.93534164014524" lon="-8.270218573297608"><ele>1405.0</ele><time>2026-04-27T12:06:21.001Z</time></trkpt><trkpt lat="30.935269386874005" lon="-8.270323177221519"><ele>1405.0</ele><time>2026-04-27T12:06:22.001Z</time></trkpt><trkpt lat="30.935228456797816" lon="-8.270462890122085"><ele>1405.0</ele><time>2026-04-27T12:06:23.001Z</time></trkpt><trkpt lat="30.93521994889849" lon="-8.27064503246793"><ele>1402.3333333333333</ele><time>2026-04-27T12:06:24.001Z</time></trkpt><trkpt lat="30.935234132710598" lon="-8.270837285510764"><ele>1399.6666666666667</ele><time>2026-04-27T12:06:25.001Z</time></trkpt><trkpt lat="30.935262796533326" lon="-8.271033649195846"><ele>1397.0</ele><time>2026-04-27T12:06:26.001Z</time></trkpt><trkpt lat="30.935277473090263" lon="-8.271217521643347"><ele>1397.0</ele><time>2026-04-27T12:06:27.001Z</time></trkpt><trkpt lat="30.93527673681238" lon="-8.271379868502816"><ele>1397.0</ele><time>2026-04-27T12:06:28.001Z</time></trkpt><trkpt lat="30.93526246932828" lon="-8.27153410440493"><ele>1397.0</ele><time>2026-04-27T12:06:29.001Z</time></trkpt><trkpt lat="30.93521715408839" lon="-8.271673791279111"><ele>1397.0</ele><time>2026-04-27T12:06:30.001Z</time></trkpt><trkpt lat="30.935139426324355" lon="-8.271783957371387"><ele>1402.6666666666667</ele><time>2026-04-27T12:06:31.001Z</time></trkpt><trkpt lat="30.935020022989526" lon="-8.27186340255595"><ele>1408.3333333333333</ele><time>2026-04-27T12:06:32.001Z</time></trkpt><trkpt lat="30.934876993326625" lon="-8.27191191202238"><ele>1414.0</ele><time>2026-04-27T12:06:33.001Z</time></trkpt><trkpt lat="30.934708989064298" lon="-8.2719195972053"><ele>1414.0</ele><time>2026-04-27T12:06:34.001Z</time></trkpt><trkpt lat="30.93451538396243" lon="-8.271896552516994"><ele>1414.0</ele><time>2026-04-27T12:06:35.001Z</time></trkpt><trkpt lat="30.934297761938748" lon="-8.271846542016892"><ele>1414.0</ele><time>2026-04-27T12:06:36.001Z</time></trkpt><trkpt lat="30.934100527720624" lon="-8.271800654659394"><ele>1415.2</ele><time>2026-04-27T12:06:37.001Z</time></trkpt><trkpt lat="30.933955472214045" lon="-8.271805673921087"><ele>1416.4</ele><time>2026-04-27T12:06:38.001Z</time></trkpt><trkpt lat="30.933844415015166" lon="-8.271814005726922"><ele>1417.6</ele><time>2026-04-27T12:06:39.001Z</time></trkpt><trkpt lat="30.933768814191072" lon="-8.27183070540858"><ele>1418.8</ele><time>2026-04-27T12:06:40.001Z</time></trkpt><trkpt lat="30.933693561380252" lon="-8.27184892679411"><ele>1420.0</ele><time>2026-04-27T12:06:41.001Z</time></trkpt><trkpt lat="30.933549156623467" lon="-8.271932401234714"><ele>1420.0</ele><time>2026-04-27T12:06:43.001Z</time></trkpt><trkpt lat="30.933425056276935" lon="-8.2720253339655"><ele>1420.0</ele><time>2026-04-27T12:06:44.001Z</time></trkpt><trkpt lat="30.93334569249967" lon="-8.272127880825296"><ele>1420.0</ele><time>2026-04-27T12:06:45.001Z</time></trkpt><trkpt lat="30.93322607325603" lon="-8.27219263227373"><ele>1420.0</ele><time>2026-04-27T12:06:46.001Z</time></trkpt><trkpt lat="30.933062148551183" lon="-8.272227740534078"><ele>1421.6666666666665</ele><time>2026-04-27T12:06:47.001Z</time></trkpt><trkpt lat="30.932865044092814" lon="-8.272225197517782"><ele>1423.3333333333333</ele><time>2026-04-27T12:06:48.001Z</time></trkpt><trkpt lat="30.932650527642277" lon="-8.272194338396709"><ele>1425.0</ele><time>2026-04-27T12:06:49.001Z</time></trkpt><trkpt lat="30.932451787755934" lon="-8.272135293336543"><ele>1427.75</ele><time>2026-04-27T12:06:50.001Z</time></trkpt><trkpt lat="30.93229040853416" lon="-8.272149015598002"><ele>1430.5</ele><time>2026-04-27T12:06:51.001Z</time></trkpt><trkpt lat="30.932161031089056" lon="-8.272161432849527"><ele>1433.25</ele><time>2026-04-27T12:06:52.001Z</time></trkpt><trkpt lat="30.932075540345274" lon="-8.27219266581076"><ele>1436.0</ele><time>2026-04-27T12:06:53.001Z</time></trkpt><trkpt lat="30.93199423892295" lon="-8.272216118287416"><ele>1436.0</ele><time>2026-04-27T12:06:54.001Z</time></trkpt><trkpt lat="30.931924871683943" lon="-8.272236128207188"><ele>1436.0</ele><time>2026-04-27T12:06:55.001Z</time></trkpt><trkpt lat="30.931867146839434" lon="-8.272312429362508"><ele>1436.0</ele><time>2026-04-27T12:06:57.001Z</time></trkpt><trkpt lat="30.93177327853121" lon="-8.272388843786311"><ele>1436.0</ele><time>2026-04-27T12:06:59.001Z</time></trkpt><trkpt lat="30.93169150022177" lon="-8.272460546582026"><ele>1436.0</ele><time>2026-04-27T12:07:00.001Z</time></trkpt><trkpt lat="30.93161757931779" lon="-8.272539314030945"><ele>1434.75</ele><time>2026-04-27T12:07:01.001Z</time></trkpt><trkpt lat="30.9315218013538" lon="-8.27264516974484"><ele>1433.5</ele><time>2026-04-27T12:07:02.001Z</time></trkpt><trkpt lat="30.931402741015514" lon="-8.272753117564541"><ele>1432.25</ele><time>2026-04-27T12:07:03.001Z</time></trkpt><trkpt lat="30.931278579994547" lon="-8.272845923275193"><ele>1431.0</ele><time>2026-04-27T12:07:04.001Z</time></trkpt><trkpt lat="30.93117629010991" lon="-8.272946240071109"><ele>1431.0</ele><time>2026-04-27T12:07:05.001Z</time></trkpt><trkpt lat="30.931089692596988" lon="-8.273076851442195"><ele>1431.0</ele><time>2026-04-27T12:07:06.001Z</time></trkpt><trkpt lat="30.93101285841616" lon="-8.273232712442397"><ele>1431.0</ele><time>2026-04-27T12:07:07.001Z</time></trkpt><trkpt lat="30.93095870907979" lon="-8.27342801158105"><ele>1429.3333333333333</ele><time>2026-04-27T12:07:08.001Z</time></trkpt><trkpt lat="30.93093656265929" lon="-8.27365102517769"><ele>1427.6666666666665</ele><time>2026-04-27T12:07:09.001Z</time></trkpt><trkpt lat="30.93093617162197" lon="-8.273906698459253"><ele>1426.0</ele><time>2026-04-27T12:07:10.001Z</time></trkpt><trkpt lat="30.930939052588865" lon="-8.274140976700147"><ele>1425.8</ele><time>2026-04-27T12:07:11.001Z</time></trkpt><trkpt lat="30.930935515592296" lon="-8.27429137335341"><ele>1425.6</ele><time>2026-04-27T12:07:12.001Z</time></trkpt><trkpt lat="30.930926288345233" lon="-8.27438934271715"><ele>1425.4</ele><time>2026-04-27T12:07:13.001Z</time></trkpt><trkpt lat="30.930907192163517" lon="-8.274508707851767"><ele>1425.2</ele><time>2026-04-27T12:07:15.002Z</time></trkpt><trkpt lat="30.930885931596215" lon="-8.274658514685576"><ele>1425.0</ele><time>2026-04-27T12:07:17.002Z</time></trkpt><trkpt lat="30.930883733011832" lon="-8.274801283093142"><ele>1429.25</ele><time>2026-04-27T12:07:18.002Z</time></trkpt><trkpt lat="30.93082266773666" lon="-8.274953866633629"><ele>1433.5</ele><time>2026-04-27T12:07:19.002Z</time></trkpt><trkpt lat="30.930732222973027" lon="-8.275040149218398"><ele>1437.75</ele><time>2026-04-27T12:07:20.002Z</time></trkpt><trkpt lat="30.930598788580017" lon="-8.275145003982562"><ele>1442.0</ele><time>2026-04-27T12:07:21.002Z</time></trkpt><trkpt lat="30.93045073983621" lon="-8.275163631781247"><ele>1442.0</ele><time>2026-04-27T12:07:22.002Z</time></trkpt><trkpt lat="30.93030968518741" lon="-8.275146064464849"><ele>1442.0</ele><time>2026-04-27T12:07:23.002Z</time></trkpt><trkpt lat="30.93018552062581" lon="-8.274892891635595"><ele>1442.0</ele><time>2026-04-27T12:07:24.002Z</time></trkpt><trkpt lat="30.93010886262419" lon="-8.27479608234868"><ele>1447.3333333333335</ele><time>2026-04-27T12:07:25.002Z</time></trkpt><trkpt lat="30.93000656980127" lon="-8.27466648424495"><ele>1452.6666666666667</ele><time>2026-04-27T12:07:26.002Z</time></trkpt><trkpt lat="30.92987388228648" lon="-8.274496169700306"><ele>1458.0</ele><time>2026-04-27T12:07:27.002Z</time></trkpt><trkpt lat="30.929734960152913" lon="-8.274304683930643"><ele>1458.0</ele><time>2026-04-27T12:07:28.002Z</time></trkpt><trkpt lat="30.929607819399468" lon="-8.274133737138479"><ele>1458.0</ele><time>2026-04-27T12:07:29.002Z</time></trkpt><trkpt lat="30.929507402047314" lon="-8.27399810531934"><ele>1458.0</ele><time>2026-04-27T12:07:30.002Z</time></trkpt><trkpt lat="30.929408374692006" lon="-8.273867582464476"><ele>1459.25</ele><time>2026-04-27T12:07:31.002Z</time></trkpt><trkpt lat="30.929314073842544" lon="-8.273752328239762"><ele>1460.5</ele><time>2026-04-27T12:07:32.002Z</time></trkpt><trkpt lat="30.92922624630081" lon="-8.273645333250185"><ele>1461.75</ele><time>2026-04-27T12:07:33.002Z</time></trkpt><trkpt lat="30.929150994880036" lon="-8.273553920568387"><ele>1463.0</ele><time>2026-04-27T12:07:34.002Z</time></trkpt><trkpt lat="30.929066119860185" lon="-8.273450098701373"><ele>1463.0</ele><time>2026-04-27T12:07:35.002Z</time></trkpt><trkpt lat="30.928968889757222" lon="-8.27333699448637"><ele>1463.0</ele><time>2026-04-27T12:07:36.002Z</time></trkpt><trkpt lat="30.928847675607916" lon="-8.27321941159413"><ele>1463.0</ele><time>2026-04-27T12:07:37.002Z</time></trkpt><trkpt lat="30.92871914942769" lon="-8.273050247868811"><ele>1468.6666666666667</ele><time>2026-04-27T12:07:38.002Z</time></trkpt><trkpt lat="30.92860137408706" lon="-8.272870726286612"><ele>1474.3333333333333</ele><time>2026-04-27T12:07:39.001Z</time></trkpt><trkpt lat="30.928488117372943" lon="-8.272707071919124"><ele>1480.0</ele><time>2026-04-27T12:07:40.001Z</time></trkpt><trkpt lat="30.928402272154454" lon="-8.272585879396901"><ele>1478.6</ele><time>2026-04-27T12:07:41.001Z</time></trkpt><trkpt lat="30.928321890818406" lon="-8.272504954939764"><ele>1477.2</ele><time>2026-04-27T12:07:42.001Z</time></trkpt><trkpt lat="30.928259751655688" lon="-8.272428140266975"><ele>1475.8000000000002</ele><time>2026-04-27T12:07:43.001Z</time></trkpt><trkpt lat="30.928199290678176" lon="-8.272353665031684"><ele>1474.4</ele><time>2026-04-27T12:07:44.001Z</time></trkpt><trkpt lat="30.92814720622115" lon="-8.27225227706049"><ele>1473.0</ele><time>2026-04-27T12:07:45.001Z</time></trkpt><trkpt lat="30.928071437289255" lon="-8.272117258892978"><ele>1473.0</ele><time>2026-04-27T12:07:47.001Z</time></trkpt><trkpt lat="30.92796501256435" lon="-8.272238370727706"><ele>1473.0</ele><time>2026-04-27T12:07:49.001Z</time></trkpt><trkpt lat="30.927831470826145" lon="-8.272211585904955"><ele>1473.0</ele><time>2026-04-27T12:07:51.001Z</time></trkpt><trkpt lat="30.927695714427564" lon="-8.272291534237457"><ele>1473.0</ele><time>2026-04-27T12:07:52.001Z</time></trkpt><trkpt lat="30.927576251035727" lon="-8.272439009628847"><ele>1470.0</ele><time>2026-04-27T12:07:53.001Z</time></trkpt><trkpt lat="30.927463528169802" lon="-8.2726086627396"><ele>1467.0</ele><time>2026-04-27T12:07:54.001Z</time></trkpt><trkpt lat="30.92734464522868" lon="-8.272811140269635"><ele>1464.0</ele><time>2026-04-27T12:07:55.001Z</time></trkpt><trkpt lat="30.927222764137333" lon="-8.27301388274765"><ele>1462.0</ele><time>2026-04-27T12:07:56.001Z</time></trkpt><trkpt lat="30.927120230681034" lon="-8.27316721338928"><ele>1460.0</ele><time>2026-04-27T12:07:57.001Z</time></trkpt><trkpt lat="30.92703225536563" lon="-8.273285960334544"><ele>1458.0</ele><time>2026-04-27T12:07:58.001Z</time></trkpt><trkpt lat="30.926951235153506" lon="-8.273394453045102"><ele>1456.0</ele><time>2026-04-27T12:07:59.001Z</time></trkpt><trkpt lat="30.926860219961842" lon="-8.273505060874598"><ele>1456.0</ele><time>2026-04-27T12:08:00.001Z</time></trkpt><trkpt lat="30.92676606984329" lon="-8.27360033262986"><ele>1456.0</ele><time>2026-04-27T12:08:01.001Z</time></trkpt><trkpt lat="30.926704071918866" lon="-8.273675396731749"><ele>1456.0</ele><time>2026-04-27T12:08:02.001Z</time></trkpt><trkpt lat="30.92665260658014" lon="-8.273737397969944"><ele>1456.0</ele><time>2026-04-27T12:08:03.001Z</time></trkpt><trkpt lat="30.926603186613658" lon="-8.273796934857314"><ele>1456.0</ele><time>2026-04-27T12:08:04.001Z</time></trkpt><trkpt lat="30.92654919097595" lon="-8.273863683574879"><ele>1456.0</ele><time>2026-04-27T12:08:05.001Z</time></trkpt><trkpt lat="30.9264817369878" lon="-8.273944204627686"><ele>1456.25</ele><time>2026-04-27T12:08:06.001Z</time></trkpt><trkpt lat="30.926414557694198" lon="-8.27404381590835"><ele>1456.5</ele><time>2026-04-27T12:08:07.001Z</time></trkpt><trkpt lat="30.926333033964777" lon="-8.274181151707637"><ele>1456.75</ele><time>2026-04-27T12:08:08.001Z</time></trkpt><trkpt lat="30.926241263438158" lon="-8.274289467327858"><ele>1457.0</ele><time>2026-04-27T12:08:09.001Z</time></trkpt><trkpt lat="30.92616439928435" lon="-8.274368427898834"><ele>1457.0</ele><time>2026-04-27T12:08:10.001Z</time></trkpt><trkpt lat="30.926086922554457" lon="-8.274469129528779"><ele>1457.0</ele><time>2026-04-27T12:08:11.001Z</time></trkpt><trkpt lat="30.926030659189422" lon="-8.274615674565995"><ele>1457.0</ele><time>2026-04-27T12:08:12.001Z</time></trkpt><trkpt lat="30.9259867477726" lon="-8.274746712700226"><ele>1457.0</ele><time>2026-04-27T12:08:13.001Z</time></trkpt><trkpt lat="30.926016712183507" lon="-8.27522830241479"><ele>1455.0</ele><time>2026-04-27T12:08:14.001Z</time></trkpt><trkpt lat="30.925905703428203" lon="-8.27528019757589"><ele>1453.0</ele><time>2026-04-27T12:08:15.001Z</time></trkpt><trkpt lat="30.925738569121684" lon="-8.275125230464264"><ele>1451.0</ele><time>2026-04-27T12:08:16.001Z</time></trkpt><trkpt lat="30.92565573964583" lon="-8.275155000797582"><ele>1449.0</ele><time>2026-04-27T12:08:17.001Z</time></trkpt><trkpt lat="30.925556350667716" lon="-8.275159189018812"><ele>1454.0</ele><time>2026-04-27T12:08:18.001Z</time></trkpt><trkpt lat="30.925451105415483" lon="-8.27522323538738"><ele>1459.0</ele><time>2026-04-27T12:08:19.001Z</time></trkpt><trkpt lat="30.925352696087582" lon="-8.275306744970157"><ele>1464.0</ele><time>2026-04-27T12:08:20.001Z</time></trkpt><trkpt lat="30.925223221791395" lon="-8.275403140445947"><ele>1469.0</ele><time>2026-04-27T12:08:21.001Z</time></trkpt><trkpt lat="30.925073311538277" lon="-8.275520689804619"><ele>1468.0</ele><time>2026-04-27T12:08:22.001Z</time></trkpt><trkpt lat="30.92491887025781" lon="-8.275638991638445"><ele>1467.0</ele><time>2026-04-27T12:08:23.001Z</time></trkpt><trkpt lat="30.92477639583991" lon="-8.275726501584604"><ele>1466.0</ele><time>2026-04-27T12:08:24.001Z</time></trkpt><trkpt lat="30.924635390838688" lon="-8.275797695346812"><ele>1466.0</ele><time>2026-04-27T12:08:25.001Z</time></trkpt><trkpt lat="30.924492975926423" lon="-8.275835389891649"><ele>1466.0</ele><time>2026-04-27T12:08:26.001Z</time></trkpt><trkpt lat="30.9243451280242" lon="-8.275860212922623"><ele>1466.0</ele><time>2026-04-27T12:08:27.001Z</time></trkpt><trkpt lat="30.92417456670243" lon="-8.275893569914833"><ele>1471.3333333333335</ele><time>2026-04-27T12:08:28.001Z</time></trkpt><trkpt lat="30.923993555599996" lon="-8.275929340723325"><ele>1476.6666666666667</ele><time>2026-04-27T12:08:29.001Z</time></trkpt><trkpt lat="30.92383380622204" lon="-8.275947318131022"><ele>1482.0</ele><time>2026-04-27T12:08:30.001Z</time></trkpt><trkpt lat="30.923692762959462" lon="-8.275974045559128"><ele>1482.0</ele><time>2026-04-27T12:08:31.001Z</time></trkpt><trkpt lat="30.923557129257084" lon="-8.276028089380754"><ele>1482.0</ele><time>2026-04-27T12:08:32.001Z</time></trkpt><trkpt lat="30.923428919528398" lon="-8.27611973867618"><ele>1482.0</ele><time>2026-04-27T12:08:33.001Z</time></trkpt><trkpt lat="30.923321581202234" lon="-8.276251887246115"><ele>1481.3999999999999</ele><time>2026-04-27T12:08:34.001Z</time></trkpt><trkpt lat="30.923244556062457" lon="-8.276383986851636"><ele>1480.8</ele><time>2026-04-27T12:08:35.001Z</time></trkpt><trkpt lat="30.923176741694103" lon="-8.276480751497138"><ele>1480.2</ele><time>2026-04-27T12:08:36.001Z</time></trkpt><trkpt lat="30.923096550511747" lon="-8.276534900343373"><ele>1479.6</ele><time>2026-04-27T12:08:37.001Z</time></trkpt><trkpt lat="30.92300496781613" lon="-8.276542409325343"><ele>1479.0</ele><time>2026-04-27T12:08:38.001Z</time></trkpt><trkpt lat="30.922924279296332" lon="-8.27650149294274"><ele>1479.0</ele><time>2026-04-27T12:08:39.001Z</time></trkpt><trkpt lat="30.922790356354504" lon="-8.276449976964281"><ele>1479.0</ele><time>2026-04-27T12:08:40.001Z</time></trkpt><trkpt lat="30.9226416980776" lon="-8.276362488965946"><ele>1479.0</ele><time>2026-04-27T12:08:41.001Z</time></trkpt><trkpt lat="30.92250812735541" lon="-8.27628042318559"><ele>1482.8000000000002</ele><time>2026-04-27T12:08:42.001Z</time></trkpt><trkpt lat="30.922398096149323" lon="-8.27622758491833"><ele>1486.6000000000001</ele><time>2026-04-27T12:08:43.001Z</time></trkpt><trkpt lat="30.922301238719182" lon="-8.27620991374214"><ele>1490.4</ele><time>2026-04-27T12:08:44.001Z</time></trkpt><trkpt lat="30.92220930565342" lon="-8.27623122040489"><ele>1494.2</ele><time>2026-04-27T12:08:45.001Z</time></trkpt><trkpt lat="30.92211052681302" lon="-8.276292935010938"><ele>1498.0</ele><time>2026-04-27T12:08:46.001Z</time></trkpt><trkpt lat="30.922019235385008" lon="-8.276394499490124"><ele>1492.6666666666665</ele><time>2026-04-27T12:08:47.001Z</time></trkpt><trkpt lat="30.92193331092624" lon="-8.27654696461377"><ele>1487.3333333333333</ele><time>2026-04-27T12:08:48.001Z</time></trkpt><trkpt lat="30.921869234524994" lon="-8.276731029706525"><ele>1482.0</ele><time>2026-04-27T12:08:49.001Z</time></trkpt><trkpt lat="30.92181753737462" lon="-8.27692698734802"><ele>1482.0</ele><time>2026-04-27T12:08:50.001Z</time></trkpt><trkpt lat="30.921760070621243" lon="-8.277104658852505"><ele>1482.0</ele><time>2026-04-27T12:08:51.001Z</time></trkpt><trkpt lat="30.921692460365623" lon="-8.277241152296568"><ele>1482.0</ele><time>2026-04-27T12:08:52.001Z</time></trkpt><trkpt lat="30.921618652954965" lon="-8.277353710579286"><ele>1482.0</ele><time>2026-04-27T12:08:53.001Z</time></trkpt><trkpt lat="30.921550578614518" lon="-8.27744001164729"><ele>1482.8</ele><time>2026-04-27T12:08:54.001Z</time></trkpt><trkpt lat="30.921486472776433" lon="-8.277509816425294"><ele>1483.6</ele><time>2026-04-27T12:08:55.001Z</time></trkpt><trkpt lat="30.92140259903674" lon="-8.27756402815679"><ele>1484.3999999999999</ele><time>2026-04-27T12:08:56.001Z</time></trkpt><trkpt lat="30.921301827020958" lon="-8.277596135924576"><ele>1485.1999999999998</ele><time>2026-04-27T12:08:57.001Z</time></trkpt><trkpt lat="30.921202098156815" lon="-8.27759979005311"><ele>1486.0</ele><time>2026-04-27T12:08:58.001Z</time></trkpt><trkpt lat="30.921114941063138" lon="-8.277577488013616"><ele>1486.0</ele><time>2026-04-27T12:08:59.001Z</time></trkpt><trkpt lat="30.921034701315783" lon="-8.277515320994693"><ele>1486.0</ele><time>2026-04-27T12:09:00.001Z</time></trkpt><trkpt lat="30.920937119794715" lon="-8.27740558829457"><ele>1486.0</ele><time>2026-04-27T12:09:01.001Z</time></trkpt><trkpt lat="30.920839176865865" lon="-8.277271466067317"><ele>1486.0</ele><time>2026-04-27T12:09:02.001Z</time></trkpt><trkpt lat="30.920754256156474" lon="-8.277160470619874"><ele>1489.25</ele><time>2026-04-27T12:09:03.001Z</time></trkpt><trkpt lat="30.92066406716284" lon="-8.277090669443362"><ele>1492.5</ele><time>2026-04-27T12:09:04.001Z</time></trkpt><trkpt lat="30.92053585832382" lon="-8.277093984710586"><ele>1495.75</ele><time>2026-04-27T12:09:05.001Z</time></trkpt><trkpt lat="30.920377016085173" lon="-8.277086429647705"><ele>1499.0</ele><time>2026-04-27T12:09:06.001Z</time></trkpt><trkpt lat="30.920208662464212" lon="-8.277080094352486"><ele>1497.6666666666667</ele><time>2026-04-27T12:09:07.001Z</time></trkpt><trkpt lat="30.920033617971434" lon="-8.277085762785733"><ele>1496.3333333333333</ele><time>2026-04-27T12:09:08.001Z</time></trkpt><trkpt lat="30.919828708970247" lon="-8.277087115094668"><ele>1495.0</ele><time>2026-04-27T12:09:09.001Z</time></trkpt><trkpt lat="30.919601186895747" lon="-8.277100219207533"><ele>1495.0</ele><time>2026-04-27T12:09:10.001Z</time></trkpt><trkpt lat="30.919397438587815" lon="-8.277112363343608"><ele>1495.0</ele><time>2026-04-27T12:09:11.001Z</time></trkpt><trkpt lat="30.919211743240734" lon="-8.2771147849113"><ele>1495.0</ele><time>2026-04-27T12:09:12.001Z</time></trkpt><trkpt lat="30.91904325969559" lon="-8.277130819379"><ele>1496.0</ele><time>2026-04-27T12:09:13.001Z</time></trkpt><trkpt lat="30.9188948703649" lon="-8.277145283962426"><ele>1497.0</ele><time>2026-04-27T12:09:14.001Z</time></trkpt><trkpt lat="30.91875870700357" lon="-8.27715325036927"><ele>1498.0</ele><time>2026-04-27T12:09:15.001Z</time></trkpt><trkpt lat="30.918618398562035" lon="-8.277153250369167"><ele>1499.0</ele><time>2026-04-27T12:09:16.001Z</time></trkpt><trkpt lat="30.918490210848212" lon="-8.277145671608"><ele>1497.6</ele><time>2026-04-27T12:09:17.001Z</time></trkpt><trkpt lat="30.918385515625506" lon="-8.277132349303157"><ele>1496.2</ele><time>2026-04-27T12:09:18.001Z</time></trkpt><trkpt lat="30.918311512410806" lon="-8.277097578922037"><ele>1494.8</ele><time>2026-04-27T12:09:19.001Z</time></trkpt><trkpt lat="30.918237797088896" lon="-8.277011635819218"><ele>1493.3999999999999</ele><time>2026-04-27T12:09:21.001Z</time></trkpt><trkpt lat="30.918128127639694" lon="-8.276884700299195"><ele>1492.0</ele><time>2026-04-27T12:09:23.001Z</time></trkpt><trkpt lat="30.91804179503096" lon="-8.276802744171377"><ele>1492.0</ele><time>2026-04-27T12:09:24.001Z</time></trkpt><trkpt lat="30.917956611077873" lon="-8.276744206325356"><ele>1492.0</ele><time>2026-04-27T12:09:25.001Z</time></trkpt><trkpt lat="30.91788048979062" lon="-8.276722863218636"><ele>1492.0</ele><time>2026-04-27T12:09:26.001Z</time></trkpt><trkpt lat="30.9178075596394" lon="-8.276750035375752"><ele>1492.0</ele><time>2026-04-27T12:09:27.001Z</time></trkpt><trkpt lat="30.91774691997321" lon="-8.276783362140685"><ele>1492.0</ele><time>2026-04-27T12:09:28.001Z</time></trkpt><trkpt lat="30.917699095638085" lon="-8.276860302844305"><ele>1492.0</ele><time>2026-04-27T12:09:29.001Z</time></trkpt><trkpt lat="30.91768469734076" lon="-8.276962865807034"><ele>1492.0</ele><time>2026-04-27T12:09:30.001Z</time></trkpt><trkpt lat="30.91774445903376" lon="-8.277068482848737"><ele>1492.0</ele><time>2026-04-27T12:09:31.001Z</time></trkpt><trkpt lat="30.917781648103155" lon="-8.277162402455053"><ele>1492.0</ele><time>2026-04-27T12:09:32.001Z</time></trkpt><trkpt lat="30.91781693107355" lon="-8.277253535377513"><ele>1492.0</ele><time>2026-04-27T12:09:33.001Z</time></trkpt><trkpt lat="30.917852123060673" lon="-8.277342803021495"><ele>1492.0</ele><time>2026-04-27T12:09:34.001Z</time></trkpt><trkpt lat="30.91789596281361" lon="-8.277412397828778"><ele>1492.0</ele><time>2026-04-27T12:09:35.001Z</time></trkpt><trkpt lat="30.917936451320873" lon="-8.277473786741085"><ele>1489.3333333333333</ele><time>2026-04-27T12:09:36.001Z</time></trkpt><trkpt lat="30.917978749624385" lon="-8.277537919698593"><ele>1486.6666666666665</ele><time>2026-04-27T12:09:37.001Z</time></trkpt><trkpt lat="30.918025121482746" lon="-8.277592468535328"><ele>1484.0</ele><time>2026-04-27T12:09:38.001Z</time></trkpt><trkpt lat="30.91807717257601" lon="-8.277655666779689"><ele>1481.3333333333333</ele><time>2026-04-27T12:09:39.001Z</time></trkpt><trkpt lat="30.91813006783732" lon="-8.277720501623584"><ele>1478.6666666666667</ele><time>2026-04-27T12:09:40.001Z</time></trkpt><trkpt lat="30.918199700434347" lon="-8.277790646992797"><ele>1476.0</ele><time>2026-04-27T12:09:41.001Z</time></trkpt><trkpt lat="30.918274322462864" lon="-8.277865818656315"><ele>1476.0</ele><time>2026-04-27T12:09:42.001Z</time></trkpt><trkpt lat="30.918333003687277" lon="-8.277944342176943"><ele>1476.0</ele><time>2026-04-27T12:09:43.001Z</time></trkpt><trkpt lat="30.918386642727377" lon="-8.278015226860065"><ele>1476.0</ele><time>2026-04-27T12:09:44.001Z</time></trkpt><trkpt lat="30.918431528139905" lon="-8.27811446756902"><ele>1476.0</ele><time>2026-04-27T12:09:45.001Z</time></trkpt><trkpt lat="30.91843116031567" lon="-8.278244763803823"><ele>1476.0</ele><time>2026-04-27T12:09:46.001Z</time></trkpt><trkpt lat="30.918399124645248" lon="-8.278366214450946"><ele>1474.75</ele><time>2026-04-27T12:09:47.001Z</time></trkpt><trkpt lat="30.918390311970434" lon="-8.27848333837597"><ele>1473.5</ele><time>2026-04-27T12:09:48.001Z</time></trkpt><trkpt lat="30.918387882564772" lon="-8.278623503138668"><ele>1472.25</ele><time>2026-04-27T12:09:49.001Z</time></trkpt><trkpt lat="30.918417562434588" lon="-8.278782820427336"><ele>1471.0</ele><time>2026-04-27T12:09:50.001Z</time></trkpt><trkpt lat="30.918467386160902" lon="-8.27895627913686"><ele>1471.0</ele><time>2026-04-27T12:09:51.001Z</time></trkpt><trkpt lat="30.918509980558714" lon="-8.279142857983299"><ele>1471.0</ele><time>2026-04-27T12:09:52.001Z</time></trkpt><trkpt lat="30.918510293950067" lon="-8.279341618358325"><ele>1471.0</ele><time>2026-04-27T12:09:53.001Z</time></trkpt><trkpt lat="30.918504265741596" lon="-8.279541213979357"><ele>1471.0</ele><time>2026-04-27T12:09:54.001Z</time></trkpt><trkpt lat="30.91846800073396" lon="-8.279752343475066"><ele>1471.0</ele><time>2026-04-27T12:09:55.001Z</time></trkpt><trkpt lat="30.918409342154916" lon="-8.279960285456527"><ele>1471.0</ele><time>2026-04-27T12:09:56.001Z</time></trkpt><trkpt lat="30.91837786953187" lon="-8.28015265033911"><ele>1475.0</ele><time>2026-04-27T12:09:57.001Z</time></trkpt><trkpt lat="30.91833117005195" lon="-8.28030917331125"><ele>1479.0</ele><time>2026-04-27T12:09:58.001Z</time></trkpt><trkpt lat="30.918266257107792" lon="-8.280445037099842"><ele>1483.0</ele><time>2026-04-27T12:09:59.001Z</time></trkpt><trkpt lat="30.91817485913645" lon="-8.280556617986923"><ele>1487.0</ele><time>2026-04-27T12:10:00.001Z</time></trkpt><trkpt lat="30.918054037047646" lon="-8.280626674945175"><ele>1487.0</ele><time>2026-04-27T12:10:01.001Z</time></trkpt><trkpt lat="30.917947595158118" lon="-8.280711390368172"><ele>1487.0</ele><time>2026-04-27T12:10:02.001Z</time></trkpt><trkpt lat="30.917901091118015" lon="-8.280821392461627"><ele>1487.0</ele><time>2026-04-27T12:10:03.001Z</time></trkpt><trkpt lat="30.91790144073626" lon="-8.280925970555165"><ele>1487.0</ele><time>2026-04-27T12:10:04.001Z</time></trkpt><trkpt lat="30.91790436080103" lon="-8.281037564084889"><ele>1487.0</ele><time>2026-04-27T12:10:05.001Z</time></trkpt><trkpt lat="30.917978914469522" lon="-8.281149923493704"><ele>1487.0</ele><time>2026-04-27T12:10:06.001Z</time></trkpt><trkpt lat="30.918005426054048" lon="-8.281289942134602"><ele>1487.0</ele><time>2026-04-27T12:10:07.001Z</time></trkpt><trkpt lat="30.91799969635464" lon="-8.281432394064252"><ele>1487.0</ele><time>2026-04-27T12:10:08.001Z</time></trkpt><trkpt lat="30.917970923796258" lon="-8.281535872732377"><ele>1487.0</ele><time>2026-04-27T12:10:09.001Z</time></trkpt><trkpt lat="30.917925952099733" lon="-8.281642462435633"><ele>1487.0</ele><time>2026-04-27T12:10:10.001Z</time></trkpt><trkpt lat="30.91784786297243" lon="-8.281730080595066"><ele>1487.75</ele><time>2026-04-27T12:10:11.001Z</time></trkpt><trkpt lat="30.917765891076822" lon="-8.28181381827939"><ele>1488.5</ele><time>2026-04-27T12:10:12.001Z</time></trkpt><trkpt lat="30.9176522057788" lon="-8.281891079886597"><ele>1489.25</ele><time>2026-04-27T12:10:13.001Z</time></trkpt><trkpt lat="30.91757737157017" lon="-8.28196428135201"><ele>1490.0</ele><time>2026-04-27T12:10:14.001Z</time></trkpt><trkpt lat="30.917508864444653" lon="-8.28206753982863"><ele>1489.0</ele><time>2026-04-27T12:10:15.001Z</time></trkpt><trkpt lat="30.917445188581873" lon="-8.282186598865946"><ele>1488.0</ele><time>2026-04-27T12:10:16.001Z</time></trkpt><trkpt lat="30.917355576380093" lon="-8.28230420765692"><ele>1487.0</ele><time>2026-04-27T12:10:17.001Z</time></trkpt><trkpt lat="30.91725539564203" lon="-8.282390631162292"><ele>1486.0</ele><time>2026-04-27T12:10:18.001Z</time></trkpt><trkpt lat="30.917148057820995" lon="-8.282479383195861"><ele>1486.0</ele><time>2026-04-27T12:10:19.001Z</time></trkpt><trkpt lat="30.91703235088402" lon="-8.282580832605616"><ele>1486.0</ele><time>2026-04-27T12:10:20.001Z</time></trkpt><trkpt lat="30.916936389075847" lon="-8.282671121778984"><ele>1486.0</ele><time>2026-04-27T12:10:21.001Z</time></trkpt><trkpt lat="30.916842810717807" lon="-8.282764997650434"><ele>1486.0</ele><time>2026-04-27T12:10:22.001Z</time></trkpt><trkpt lat="30.916771446411143" lon="-8.282836631829564"><ele>1486.1666666666665</ele><time>2026-04-27T12:10:23.001Z</time></trkpt><trkpt lat="30.91671455897514" lon="-8.282885618932111"><ele>1486.3333333333333</ele><time>2026-04-27T12:10:24.001Z</time></trkpt><trkpt lat="30.916649214139166" lon="-8.282943175190914"><ele>1486.5</ele><time>2026-04-27T12:10:26.001Z</time></trkpt><trkpt lat="30.916575452226688" lon="-8.283000695298075"><ele>1486.6666666666667</ele><time>2026-04-27T12:10:29.001Z</time></trkpt><trkpt lat="30.916509252804456" lon="-8.283042801214691"><ele>1486.8333333333335</ele><time>2026-04-27T12:10:33.001Z</time></trkpt><trkpt lat="30.91643590940951" lon="-8.28308976145851"><ele>1487.0</ele><time>2026-04-27T12:11:04.001Z</time></trkpt><trkpt lat="30.916373505191434" lon="-8.2831298054733"><ele>1487.0</ele><time>2026-04-27T12:11:10.001Z</time></trkpt><trkpt lat="30.91630128895051" lon="-8.283180255042426"><ele>1487.0</ele><time>2026-04-27T12:16:48Z</time></trkpt><trkpt lat="30.9162273074585" lon="-8.283238682692867"><ele>1487.0</ele><time>2026-04-27T12:16:50Z</time></trkpt><trkpt lat="30.91616726905684" lon="-8.283287230071126"><ele>1487.0</ele><time>2026-04-27T12:16:52Z</time></trkpt><trkpt lat="30.91610668255897" lon="-8.283341095420758"><ele>1487.0</ele><time>2026-04-27T12:16:55Z</time></trkpt><trkpt lat="30.91602977406339" lon="-8.283409596546162"><ele>1487.0</ele><time>2026-04-27T12:16:57Z</time></trkpt><trkpt lat="30.915962365554584" lon="-8.283469926691158"><ele>1493.6</ele><time>2026-04-27T12:16:59Z</time></trkpt><trkpt lat="30.915879221370595" lon="-8.283543734248855"><ele>1500.1999999999998</ele><time>2026-04-27T12:17:01Z</time></trkpt><trkpt lat="30.915819281381093" lon="-8.283596943364161"><ele>1506.8</ele><time>2026-04-27T12:17:02Z</time></trkpt><trkpt lat="30.91574038126221" lon="-8.283665312809376"><ele>1513.4</ele><time>2026-04-27T12:17:03Z</time></trkpt><trkpt lat="30.915658953622792" lon="-8.283736772137244"><ele>1520.0</ele><time>2026-04-27T12:17:04Z</time></trkpt><trkpt lat="30.915571939117314" lon="-8.283805152303888"><ele>1520.0</ele><time>2026-04-27T12:17:05Z</time></trkpt><trkpt lat="30.91547057883754" lon="-8.283867242922184"><ele>1520.0</ele><time>2026-04-27T12:17:06Z</time></trkpt><trkpt lat="30.915336304539462" lon="-8.283901195567092"><ele>1520.0</ele><time>2026-04-27T12:17:07Z</time></trkpt><trkpt lat="30.915204955066887" lon="-8.283891126653183"><ele>1520.0</ele><time>2026-04-27T12:17:08Z</time></trkpt><trkpt lat="30.915104313163365" lon="-8.283886308025773"><ele>1518.1666666666667</ele><time>2026-04-27T12:17:09Z</time></trkpt><trkpt lat="30.915021515268123" lon="-8.283889044294375"><ele>1516.3333333333335</ele><time>2026-04-27T12:17:10Z</time></trkpt><trkpt lat="30.9149431726468" lon="-8.283915247276473"><ele>1514.5</ele><time>2026-04-27T12:17:11Z</time></trkpt><trkpt lat="30.914875976199287" lon="-8.2839674306635"><ele>1512.6666666666667</ele><time>2026-04-27T12:17:12Z</time></trkpt><trkpt lat="30.914834518556386" lon="-8.284045821175459"><ele>1510.8333333333333</ele><time>2026-04-27T12:17:13Z</time></trkpt><trkpt lat="30.914763347809142" lon="-8.28415114974789"><ele>1509.0</ele><time>2026-04-27T12:17:14Z</time></trkpt><trkpt lat="30.914671300599892" lon="-8.284258550893128"><ele>1509.0</ele><time>2026-04-27T12:17:15Z</time></trkpt><trkpt lat="30.91457511861238" lon="-8.284350477200274"><ele>1509.0</ele><time>2026-04-27T12:17:16Z</time></trkpt><trkpt lat="30.914451813382406" lon="-8.284429500783716"><ele>1509.0</ele><time>2026-04-27T12:17:17Z</time></trkpt><trkpt lat="30.914325693222228" lon="-8.28451078872858"><ele>1509.0</ele><time>2026-04-27T12:17:18Z</time></trkpt><trkpt lat="30.914178087170963" lon="-8.284594126784095"><ele>1508.5</ele><time>2026-04-27T12:17:19Z</time></trkpt><trkpt lat="30.91406108896042" lon="-8.28470532508548"><ele>1508.0</ele><time>2026-04-27T12:17:20Z</time></trkpt><trkpt lat="30.913966448510617" lon="-8.284799401822227"><ele>1507.5</ele><time>2026-04-27T12:17:21Z</time></trkpt><trkpt lat="30.913861448634847" lon="-8.28490751209745"><ele>1507.0</ele><time>2026-04-27T12:17:22Z</time></trkpt><trkpt lat="30.913764560042203" lon="-8.285007715595437"><ele>1507.0</ele><time>2026-04-27T12:17:23Z</time></trkpt><trkpt lat="30.913702589811944" lon="-8.285071458566396"><ele>1507.0</ele><time>2026-04-27T12:17:24Z</time></trkpt><trkpt lat="30.913653544563086" lon="-8.285122467607225"><ele>1507.0</ele><time>2026-04-27T12:17:25Z</time></trkpt><trkpt lat="30.91360432946092" lon="-8.285174385713189"><ele>1507.0</ele><time>2026-04-27T12:17:26Z</time></trkpt><trkpt lat="30.913496095952734" lon="-8.28532069514615"><ele>1507.0</ele><time>2026-04-27T12:17:28Z</time></trkpt><trkpt lat="30.913455467016103" lon="-8.285416384341103"><ele>1509.75</ele><time>2026-04-27T12:17:29Z</time></trkpt><trkpt lat="30.913400914234025" lon="-8.285557300464435"><ele>1512.5</ele><time>2026-04-27T12:17:30Z</time></trkpt><trkpt lat="30.913323278942343" lon="-8.285712357798555"><ele>1515.25</ele><time>2026-04-27T12:17:31Z</time></trkpt><trkpt lat="30.91324143967186" lon="-8.285862351841487"><ele>1518.0</ele><time>2026-04-27T12:17:32Z</time></trkpt><trkpt lat="30.913154170806397" lon="-8.286009341426679"><ele>1518.0</ele><time>2026-04-27T12:17:33Z</time></trkpt><trkpt lat="30.91306379929687" lon="-8.286146470708369"><ele>1518.0</ele><time>2026-04-27T12:17:34Z</time></trkpt><trkpt lat="30.912975543414102" lon="-8.286262637600649"><ele>1518.0</ele><time>2026-04-27T12:17:35Z</time></trkpt><trkpt lat="30.91289260027133" lon="-8.28635880116251"><ele>1518.0</ele><time>2026-04-27T12:17:36Z</time></trkpt><trkpt lat="30.91280565754755" lon="-8.286425747785422"><ele>1515.8000000000002</ele><time>2026-04-27T12:17:37Z</time></trkpt><trkpt lat="30.912723055067573" lon="-8.286448020730939"><ele>1513.6</ele><time>2026-04-27T12:17:38Z</time></trkpt><trkpt lat="30.91265171904153" lon="-8.2864323517726"><ele>1511.4</ele><time>2026-04-27T12:17:39Z</time></trkpt><trkpt lat="30.912569792650277" lon="-8.286399310316982"><ele>1509.1999999999998</ele><time>2026-04-27T12:17:40Z</time></trkpt><trkpt lat="30.91248383559442" lon="-8.286336379795303"><ele>1507.0</ele><time>2026-04-27T12:17:41Z</time></trkpt><trkpt lat="30.912367547307305" lon="-8.286246991705193"><ele>1516.8</ele><time>2026-04-27T12:17:42Z</time></trkpt><trkpt lat="30.91225487148786" lon="-8.286206420045481"><ele>1526.6</ele><time>2026-04-27T12:17:43Z</time></trkpt><trkpt lat="30.912174182722598" lon="-8.286185357342298"><ele>1536.3999999999999</ele><time>2026-04-27T12:17:44Z</time></trkpt><trkpt lat="30.912102748398386" lon="-8.286165967755332"><ele>1546.1999999999998</ele><time>2026-04-27T12:17:45Z</time></trkpt><trkpt lat="30.912022842911696" lon="-8.28617137479395"><ele>1556.0</ele><time>2026-04-27T12:17:46Z</time></trkpt><trkpt lat="30.911895693358087" lon="-8.286179227055912"><ele>1556.0</ele><time>2026-04-27T12:17:47Z</time></trkpt><trkpt lat="30.911755304425945" lon="-8.286159583747512"><ele>1556.0</ele><time>2026-04-27T12:17:48Z</time></trkpt><trkpt lat="30.91164032720218" lon="-8.28612496931356"><ele>1556.0</ele><time>2026-04-27T12:17:49Z</time></trkpt><trkpt lat="30.911514417982282" lon="-8.286084821137113"><ele>1556.0</ele><time>2026-04-27T12:17:50Z</time></trkpt><trkpt lat="30.911383325374683" lon="-8.286053002660946"><ele>1555.0</ele><time>2026-04-27T12:17:51Z</time></trkpt><trkpt lat="30.911257737705302" lon="-8.286078048294515"><ele>1554.0</ele><time>2026-04-27T12:17:52Z</time></trkpt><trkpt lat="30.91115851929931" lon="-8.286106818071518"><ele>1553.0</ele><time>2026-04-27T12:17:53Z</time></trkpt><trkpt lat="30.911064570246307" lon="-8.28615931733964"><ele>1552.0</ele><time>2026-04-27T12:17:54Z</time></trkpt><trkpt lat="30.91095984757118" lon="-8.28624126035276"><ele>1553.0</ele><time>2026-04-27T12:17:55Z</time></trkpt><trkpt lat="30.91085407602676" lon="-8.286332010765804"><ele>1554.0</ele><time>2026-04-27T12:17:56Z</time></trkpt><trkpt lat="30.910776410491966" lon="-8.286411343997298"><ele>1555.0</ele><time>2026-04-27T12:17:57Z</time></trkpt><trkpt lat="30.91071594708088" lon="-8.286473104253881"><ele>1556.0</ele><time>2026-04-27T12:17:58Z</time></trkpt><trkpt lat="30.910693955236134" lon="-8.286576645974147"><ele>1557.0</ele><time>2026-04-27T12:18:00Z</time></trkpt><trkpt lat="30.91073557191508" lon="-8.286716227226943"><ele>1553.3999999999999</ele><time>2026-04-27T12:18:03Z</time></trkpt><trkpt lat="30.910744646184618" lon="-8.286823342969734"><ele>1549.8</ele><time>2026-04-27T12:18:04Z</time></trkpt><trkpt lat="30.910744782464622" lon="-8.286931273914185"><ele>1546.2</ele><time>2026-04-27T12:18:05Z</time></trkpt><trkpt lat="30.910706347373075" lon="-8.287046366722523"><ele>1542.6</ele><time>2026-04-27T12:18:06Z</time></trkpt><trkpt lat="30.910671218796054" lon="-8.287186523978638"><ele>1539.0</ele><time>2026-04-27T12:18:07Z</time></trkpt><trkpt lat="30.91061165951267" lon="-8.287339082244923"><ele>1538.0</ele><time>2026-04-27T12:18:08Z</time></trkpt><trkpt lat="30.910591050892712" lon="-8.287518248307567"><ele>1537.0</ele><time>2026-04-27T12:18:09Z</time></trkpt><trkpt lat="30.910585468169806" lon="-8.28770550343601"><ele>1536.0</ele><time>2026-04-27T12:18:10Z</time></trkpt><trkpt lat="30.910611516673775" lon="-8.287917232726189"><ele>1538.0</ele><time>2026-04-27T12:18:11Z</time></trkpt><trkpt lat="30.910620686471113" lon="-8.288111520056374"><ele>1540.0</ele><time>2026-04-27T12:18:12Z</time></trkpt><trkpt lat="30.91062738246124" lon="-8.288283400658594"><ele>1542.0</ele><time>2026-04-27T12:18:13Z</time></trkpt><trkpt lat="30.910628205453772" lon="-8.288437982003408"><ele>1544.0</ele><time>2026-04-27T12:18:14Z</time></trkpt><trkpt lat="30.910628582459328" lon="-8.288586650102486"><ele>1543.9999999999998</ele><time>2026-04-27T12:18:15Z</time></trkpt><trkpt lat="30.91063025389161" lon="-8.288716346795363"><ele>1544.0</ele><time>2026-04-27T12:18:16Z</time></trkpt><trkpt lat="30.910640119385956" lon="-8.28883048456057"><ele>1544.0</ele><time>2026-04-27T12:18:17Z</time></trkpt><trkpt lat="30.910653423534146" lon="-8.288921838720471"><ele>1544.0</ele><time>2026-04-27T12:18:18Z</time></trkpt><trkpt lat="30.91065055103549" lon="-8.28900002695481"><ele>1543.9999999999998</ele><time>2026-04-27T12:18:19Z</time></trkpt><trkpt lat="30.910710061408903" lon="-8.28902851980174"><ele>1544.0</ele><time>2026-04-27T12:18:20Z</time></trkpt><trkpt lat="30.910849400126047" lon="-8.289034669100072"><ele>1547.0</ele><time>2026-04-27T12:18:22Z</time></trkpt><trkpt lat="30.910914351861056" lon="-8.28897474160681"><ele>1550.0</ele><time>2026-04-27T12:18:23Z</time></trkpt><trkpt lat="30.91096414533052" lon="-8.288879346430724"><ele>1553.0</ele><time>2026-04-27T12:18:24Z</time></trkpt><trkpt lat="30.911006584886163" lon="-8.288750019256097"><ele>1556.0</ele><time>2026-04-27T12:18:25Z</time></trkpt><trkpt lat="30.91102756534958" lon="-8.288589261183768"><ele>1559.0</ele><time>2026-04-27T12:18:26Z</time></trkpt><trkpt lat="30.91103779264712" lon="-8.288439736071123"><ele>1559.0</ele><time>2026-04-27T12:18:27Z</time></trkpt><trkpt lat="30.911055258911595" lon="-8.288326111823729"><ele>1559.0</ele><time>2026-04-27T12:18:28Z</time></trkpt><trkpt lat="30.911082938208043" lon="-8.288232389115548"><ele>1559.0</ele><time>2026-04-27T12:18:29Z</time></trkpt><trkpt lat="30.911119716146857" lon="-8.28815394741706"><ele>1559.0</ele><time>2026-04-27T12:18:30Z</time></trkpt><trkpt lat="30.91117726437384" lon="-8.28806738065684"><ele>1559.0</ele><time>2026-04-27T12:18:31Z</time></trkpt><trkpt lat="30.91123818112897" lon="-8.287950469031124"><ele>1553.0</ele><time>2026-04-27T12:18:32Z</time></trkpt><trkpt lat="30.911349802748557" lon="-8.287870667318336"><ele>1547.0</ele><time>2026-04-27T12:18:33Z</time></trkpt><trkpt lat="30.91145713737106" lon="-8.287769986700392"><ele>1541.0</ele><time>2026-04-27T12:18:34Z</time></trkpt><trkpt lat="30.91157755388639" lon="-8.287698614872067"><ele>1535.0</ele><time>2026-04-27T12:18:35Z</time></trkpt><trkpt lat="30.91167214834484" lon="-8.287650056658528"><ele>1530.4</ele><time>2026-04-27T12:18:36Z</time></trkpt><trkpt lat="30.91174408031109" lon="-8.287624788958174"><ele>1525.8</ele><time>2026-04-27T12:18:37Z</time></trkpt><trkpt lat="30.911848922638836" lon="-8.287658632264229"><ele>1521.1999999999998</ele><time>2026-04-27T12:18:39Z</time></trkpt><trkpt lat="30.911914259977227" lon="-8.287763957831139"><ele>1516.6</ele><time>2026-04-27T12:18:40Z</time></trkpt><trkpt lat="30.91197805083915" lon="-8.287891959528743"><ele>1512.0</ele><time>2026-04-27T12:18:41Z</time></trkpt><trkpt lat="30.91202604185168" lon="-8.28804315278835"><ele>1516.25</ele><time>2026-04-27T12:18:42Z</time></trkpt><trkpt lat="30.912084275854177" lon="-8.288179341670938"><ele>1520.5</ele><time>2026-04-27T12:18:43Z</time></trkpt><trkpt lat="30.912130210333764" lon="-8.288328678213153"><ele>1524.75</ele><time>2026-04-27T12:18:44Z</time></trkpt><trkpt lat="30.912191453593046" lon="-8.288488130959038"><ele>1529.0</ele><time>2026-04-27T12:18:45Z</time></trkpt><trkpt lat="30.91223921408884" lon="-8.288643927784914"><ele>1529.0</ele><time>2026-04-27T12:18:46Z</time></trkpt><trkpt lat="30.912279474970404" lon="-8.288783005366607"><ele>1529.0</ele><time>2026-04-27T12:18:47Z</time></trkpt><trkpt lat="30.91231327129649" lon="-8.288897114151204"><ele>1529.0</ele><time>2026-04-27T12:18:48Z</time></trkpt><trkpt lat="30.91236353471196" lon="-8.288976829986405"><ele>1529.0</ele><time>2026-04-27T12:18:49Z</time></trkpt><trkpt lat="30.912428333404883" lon="-8.289020135542287"><ele>1529.0</ele><time>2026-04-27T12:18:50Z</time></trkpt><trkpt lat="30.912503590710912" lon="-8.289045180140137"><ele>1533.5</ele><time>2026-04-27T12:18:51Z</time></trkpt><trkpt lat="30.91258509840257" lon="-8.289032894643512"><ele>1538.0</ele><time>2026-04-27T12:18:52Z</time></trkpt><trkpt lat="30.91273347952011" lon="-8.289046498307366"><ele>1542.5</ele><time>2026-04-27T12:18:53Z</time></trkpt><trkpt lat="30.91287273824603" lon="-8.289075355517193"><ele>1547.0</ele><time>2026-04-27T12:18:54Z</time></trkpt><trkpt lat="30.91298900028424" lon="-8.289142149966409"><ele>1547.0</ele><time>2026-04-27T12:18:55Z</time></trkpt><trkpt lat="30.91309474702844" lon="-8.28919559945788"><ele>1547.0</ele><time>2026-04-27T12:18:56Z</time></trkpt><trkpt lat="30.913191925367016" lon="-8.289240977463797"><ele>1547.0</ele><time>2026-04-27T12:18:57Z</time></trkpt><trkpt lat="30.91327510695812" lon="-8.289274948830599"><ele>1547.0</ele><time>2026-04-27T12:18:58Z</time></trkpt><trkpt lat="30.91336120229067" lon="-8.289341880418599"><ele>1547.0</ele><time>2026-04-27T12:18:59Z</time></trkpt><trkpt lat="30.913423293643227" lon="-8.28945825003283"><ele>1548.75</ele><time>2026-04-27T12:19:00Z</time></trkpt><trkpt lat="30.913475355526348" lon="-8.28956414496736"><ele>1550.5</ele><time>2026-04-27T12:19:01Z</time></trkpt><trkpt lat="30.913445256743266" lon="-8.28975514692133"><ele>1552.25</ele><time>2026-04-27T12:19:02Z</time></trkpt><trkpt lat="30.91349352232295" lon="-8.289893179349873"><ele>1554.0</ele><time>2026-04-27T12:19:03Z</time></trkpt><trkpt lat="30.91355234997233" lon="-8.289992155129381"><ele>1554.0</ele><time>2026-04-27T12:19:04Z</time></trkpt><trkpt lat="30.913617154782" lon="-8.290049544486862"><ele>1554.0</ele><time>2026-04-27T12:19:05Z</time></trkpt><trkpt lat="30.91371172132311" lon="-8.29003644394433"><ele>1554.0</ele><time>2026-04-27T12:19:06Z</time></trkpt><trkpt lat="30.91382205021596" lon="-8.290040829541615"><ele>1554.0</ele><time>2026-04-27T12:19:07Z</time></trkpt><trkpt lat="30.913941739361142" lon="-8.290057285690844"><ele>1554.0</ele><time>2026-04-27T12:19:08Z</time></trkpt><trkpt lat="30.91405136009104" lon="-8.290074722963778"><ele>1554.0</ele><time>2026-04-27T12:19:09Z</time></trkpt><trkpt lat="30.914151698718594" lon="-8.29010366691672"><ele>1554.0</ele><time>2026-04-27T12:19:10Z</time></trkpt><trkpt lat="30.914223864484665" lon="-8.290140089291437"><ele>1554.0</ele><time>2026-04-27T12:19:11Z</time></trkpt><trkpt lat="30.914285730202817" lon="-8.290174133864788"><ele>1554.0</ele><time>2026-04-27T12:19:12Z</time></trkpt><trkpt lat="30.914314864855687" lon="-8.290257023100756"><ele>1554.0</ele><time>2026-04-27T12:19:13Z</time></trkpt><trkpt lat="30.91441165840968" lon="-8.290331984758813"><ele>1554.0</ele><time>2026-04-27T12:19:15Z</time></trkpt><trkpt lat="30.91449428991212" lon="-8.290423348070112"><ele>1554.6666666666667</ele><time>2026-04-27T12:19:17Z</time></trkpt><trkpt lat="30.914513056359986" lon="-8.290496982301823"><ele>1555.3333333333335</ele><time>2026-04-27T12:19:18Z</time></trkpt><trkpt lat="30.9145573592111" lon="-8.290560609631399"><ele>1556.0</ele><time>2026-04-27T12:19:19Z</time></trkpt><trkpt lat="30.914599777890775" lon="-8.290643767599379"><ele>1556.6666666666667</ele><time>2026-04-27T12:19:20Z</time></trkpt><trkpt lat="30.91459775951905" lon="-8.290767536378773"><ele>1557.3333333333335</ele><time>2026-04-27T12:19:21Z</time></trkpt><trkpt lat="30.91462670179674" lon="-8.290860690001029"><ele>1558.0</ele><time>2026-04-27T12:19:22Z</time></trkpt><trkpt lat="30.91465247787107" lon="-8.290946727887107"><ele>1558.3333333333335</ele><time>2026-04-27T12:19:23Z</time></trkpt><trkpt lat="30.91480388222481" lon="-8.290991541694359"><ele>1558.6666666666665</ele><time>2026-04-27T12:19:24Z</time></trkpt><trkpt lat="30.914929446274293" lon="-8.291083511603013"><ele>1559.0</ele><time>2026-04-27T12:19:25Z</time></trkpt><trkpt lat="30.91508524138458" lon="-8.291183412810414"><ele>1559.0</ele><time>2026-04-27T12:19:26Z</time></trkpt><trkpt lat="30.91525851262701" lon="-8.291297896179277"><ele>1559.0</ele><time>2026-04-27T12:19:27Z</time></trkpt><trkpt lat="30.915397591013402" lon="-8.29141104269753"><ele>1559.0</ele><time>2026-04-27T12:19:28Z</time></trkpt><trkpt lat="30.91552799303663" lon="-8.291516514818426"><ele>1558.0</ele><time>2026-04-27T12:19:29Z</time></trkpt><trkpt lat="30.915639190948994" lon="-8.2916842369586"><ele>1557.0</ele><time>2026-04-27T12:19:30Z</time></trkpt><trkpt lat="30.915729679829244" lon="-8.291890384287976"><ele>1556.0</ele><time>2026-04-27T12:19:31Z</time></trkpt><trkpt lat="30.915822020068823" lon="-8.292114163182813"><ele>1551.6666666666665</ele><time>2026-04-27T12:19:32Z</time></trkpt><trkpt lat="30.915924776898613" lon="-8.292334301110547"><ele>1547.3333333333335</ele><time>2026-04-27T12:19:33Z</time></trkpt><trkpt lat="30.91601396302855" lon="-8.292511524776517"><ele>1543.0</ele><time>2026-04-27T12:19:34Z</time></trkpt><trkpt lat="30.9161000987874" lon="-8.292642567636792"><ele>1543.0</ele><time>2026-04-27T12:19:35Z</time></trkpt><trkpt lat="30.916196317170495" lon="-8.29272678761079"><ele>1543.0</ele><time>2026-04-27T12:19:36Z</time></trkpt><trkpt lat="30.91632476529198" lon="-8.292749623056704"><ele>1543.0</ele><time>2026-04-27T12:19:37Z</time></trkpt><trkpt lat="30.91640588566573" lon="-8.292829809482306"><ele>1543.0</ele><time>2026-04-27T12:19:38Z</time></trkpt><trkpt lat="30.91648614220825" lon="-8.292902393338348"><ele>1543.0</ele><time>2026-04-27T12:19:39Z</time></trkpt><trkpt lat="30.916524266138115" lon="-8.293018876780788"><ele>1543.0</ele><time>2026-04-27T12:19:40Z</time></trkpt><trkpt lat="30.916560075417507" lon="-8.293169885750807"><ele>1543.0</ele><time>2026-04-27T12:19:41Z</time></trkpt><trkpt lat="30.916597882402066" lon="-8.293295775589353"><ele>1543.0</ele><time>2026-04-27T12:19:42Z</time></trkpt><trkpt lat="30.91661412721325" lon="-8.293392044937809"><ele>1543.0</ele><time>2026-04-27T12:19:43Z</time></trkpt><trkpt lat="30.916722921553703" lon="-8.293353529707822"><ele>1543.0</ele><time>2026-04-27T12:19:44Z</time></trkpt><trkpt lat="30.916823514418454" lon="-8.293334892208867"><ele>1543.0</ele><time>2026-04-27T12:19:45Z</time></trkpt><trkpt lat="30.916955031687433" lon="-8.293299859328435"><ele>1543.0</ele><time>2026-04-27T12:19:46Z</time></trkpt><trkpt lat="30.917081103951165" lon="-8.29328565907936"><ele>1543.0</ele><time>2026-04-27T12:19:47Z</time></trkpt><trkpt lat="30.917211729609914" lon="-8.293331110059135"><ele>1543.0</ele><time>2026-04-27T12:19:48Z</time></trkpt><trkpt lat="30.91731468015757" lon="-8.293376873081735"><ele>1543.0</ele><time>2026-04-27T12:19:49Z</time></trkpt><trkpt lat="30.917378553904893" lon="-8.293416963992868"><ele>1543.0</ele><time>2026-04-27T12:19:50Z</time></trkpt><trkpt lat="30.917387799616915" lon="-8.293582114480301"><ele>1543.0</ele><time>2026-04-27T12:19:51Z</time></trkpt><trkpt lat="30.91739656207924" lon="-8.293744513383995"><ele>1543.0</ele><time>2026-04-27T12:19:52Z</time></trkpt><trkpt lat="30.91741621251735" lon="-8.293919659717167"><ele>1543.0</ele><time>2026-04-27T12:19:53Z</time></trkpt><trkpt lat="30.917452381170452" lon="-8.294087097743564"><ele>1543.0</ele><time>2026-04-27T12:19:54Z</time></trkpt><trkpt lat="30.91745531066565" lon="-8.294236968273285"><ele>1543.0</ele><time>2026-04-27T12:19:55Z</time></trkpt><trkpt lat="30.91744965252324" lon="-8.294341079461102"><ele>1545.0</ele><time>2026-04-27T12:19:56Z</time></trkpt><trkpt lat="30.917400866819154" lon="-8.29443145785289"><ele>1547.0</ele><time>2026-04-27T12:19:57Z</time></trkpt><trkpt lat="30.917336920898368" lon="-8.29452272361477"><ele>1549.0</ele><time>2026-04-27T12:19:58Z</time></trkpt><trkpt lat="30.917231762398814" lon="-8.2946132051946"><ele>1551.0</ele><time>2026-04-27T12:19:59Z</time></trkpt><trkpt lat="30.917102529197933" lon="-8.294743352391544"><ele>1545.6666666666667</ele><time>2026-04-27T12:20:00Z</time></trkpt><trkpt lat="30.91696520532791" lon="-8.294885172082049"><ele>1540.3333333333335</ele><time>2026-04-27T12:20:01Z</time></trkpt><trkpt lat="30.916831248512565" lon="-8.295062255510379"><ele>1535.0</ele><time>2026-04-27T12:20:02Z</time></trkpt><trkpt lat="30.916708786563976" lon="-8.295209056677582"><ele>1543.75</ele><time>2026-04-27T12:20:03Z</time></trkpt><trkpt lat="30.91660569683862" lon="-8.29531765928396"><ele>1552.5</ele><time>2026-04-27T12:20:04Z</time></trkpt><trkpt lat="30.916584900042643" lon="-8.295462627557319"><ele>1561.25</ele><time>2026-04-27T12:20:05Z</time></trkpt><trkpt lat="30.916593466620263" lon="-8.295584066977073"><ele>1570.0</ele><time>2026-04-27T12:20:06Z</time></trkpt><trkpt lat="30.91660321471589" lon="-8.295743256694122"><ele>1570.0</ele><time>2026-04-27T12:20:07Z</time></trkpt><trkpt lat="30.916628065506014" lon="-8.295925074925451"><ele>1570.0</ele><time>2026-04-27T12:20:08Z</time></trkpt><trkpt lat="30.91665146281919" lon="-8.29608241282775"><ele>1570.0</ele><time>2026-04-27T12:20:09Z</time></trkpt><trkpt lat="30.91664280233299" lon="-8.296200800978687"><ele>1570.0</ele><time>2026-04-27T12:20:10Z</time></trkpt><trkpt lat="30.9166155640092" lon="-8.296286207024643"><ele>1570.0</ele><time>2026-04-27T12:20:11Z</time></trkpt><trkpt lat="30.916529867579683" lon="-8.296380251004782"><ele>1570.0</ele><time>2026-04-27T12:20:13Z</time></trkpt><trkpt lat="30.916402598391365" lon="-8.29636926559408"><ele>1570.0</ele><time>2026-04-27T12:20:14Z</time></trkpt><trkpt lat="30.916270428073787" lon="-8.296370595063449"><ele>1570.0</ele><time>2026-04-27T12:20:15Z</time></trkpt><trkpt lat="30.916152782806076" lon="-8.296389977157318"><ele>1565.5</ele><time>2026-04-27T12:20:16Z</time></trkpt><trkpt lat="30.91611171373722" lon="-8.296512827135233"><ele>1561.0</ele><time>2026-04-27T12:20:17Z</time></trkpt><trkpt lat="30.916062984646633" lon="-8.296660795619944"><ele>1556.5</ele><time>2026-04-27T12:20:18Z</time></trkpt><trkpt lat="30.915979219874114" lon="-8.296834159815193"><ele>1552.0</ele><time>2026-04-27T12:20:19Z</time></trkpt><trkpt lat="30.915898476530934" lon="-8.297010117768114"><ele>1548.0</ele><time>2026-04-27T12:20:20Z</time></trkpt><trkpt lat="30.915852954875675" lon="-8.297143490763203"><ele>1544.0</ele><time>2026-04-27T12:20:21Z</time></trkpt><trkpt lat="30.915859994891257" lon="-8.297249825497893"><ele>1540.0</ele><time>2026-04-27T12:20:22Z</time></trkpt><trkpt lat="30.915910234830868" lon="-8.297357927179295"><ele>1536.0</ele><time>2026-04-27T12:20:23Z</time></trkpt><trkpt lat="30.915920536058586" lon="-8.297482278874586"><ele>1532.0</ele><time>2026-04-27T12:20:24Z</time></trkpt><trkpt lat="30.915929057733543" lon="-8.297585149745094"><ele>1544.25</ele><time>2026-04-27T12:20:25Z</time></trkpt><trkpt lat="30.915836381611726" lon="-8.297688293361778"><ele>1556.5</ele><time>2026-04-27T12:20:26Z</time></trkpt><trkpt lat="30.91574658976989" lon="-8.29782980316037"><ele>1568.75</ele><time>2026-04-27T12:20:27Z</time></trkpt><trkpt lat="30.915641968366437" lon="-8.297976231667487"><ele>1581.0</ele><time>2026-04-27T12:20:28Z</time></trkpt><trkpt lat="30.915531640932585" lon="-8.298043445233121"><ele>1575.25</ele><time>2026-04-27T12:20:29Z</time></trkpt><trkpt lat="30.915434160971852" lon="-8.298094238813606"><ele>1569.5</ele><time>2026-04-27T12:20:30Z</time></trkpt><trkpt lat="30.915299064713828" lon="-8.298101786270564"><ele>1563.75</ele><time>2026-04-27T12:20:31Z</time></trkpt><trkpt lat="30.915160199610792" lon="-8.298097466065045"><ele>1558.0</ele><time>2026-04-27T12:20:32Z</time></trkpt><trkpt lat="30.915091803550585" lon="-8.298181057305603"><ele>1566.2</ele><time>2026-04-27T12:20:33Z</time></trkpt><trkpt lat="30.915014237286066" lon="-8.298245100234496"><ele>1574.4</ele><time>2026-04-27T12:20:34Z</time></trkpt><trkpt lat="30.914999090065923" lon="-8.298348194421068"><ele>1582.6000000000001</ele><time>2026-04-27T12:20:35Z</time></trkpt><trkpt lat="30.91503578518425" lon="-8.298462506648828"><ele>1590.8000000000002</ele><time>2026-04-27T12:20:36Z</time></trkpt><trkpt lat="30.91504286545525" lon="-8.298624939013644"><ele>1599.0</ele><time>2026-04-27T12:20:37Z</time></trkpt><trkpt lat="30.915060060800297" lon="-8.298795217658775"><ele>1595.6</ele><time>2026-04-27T12:20:38Z</time></trkpt><trkpt lat="30.915045758698245" lon="-8.29893057109153"><ele>1592.2</ele><time>2026-04-27T12:20:39Z</time></trkpt><trkpt lat="30.91499693584893" lon="-8.299029233199704"><ele>1588.8</ele><time>2026-04-27T12:20:40Z</time></trkpt><trkpt lat="30.91493207135466" lon="-8.299111943142922"><ele>1585.3999999999999</ele><time>2026-04-27T12:20:41Z</time></trkpt><trkpt lat="30.91482557818527" lon="-8.299174926728172"><ele>1582.0</ele><time>2026-04-27T12:20:42Z</time></trkpt><trkpt lat="30.914699398673253" lon="-8.299241390177373"><ele>1582.0</ele><time>2026-04-27T12:20:43Z</time></trkpt><trkpt lat="30.914554483565485" lon="-8.299325384746686"><ele>1582.0</ele><time>2026-04-27T12:20:44Z</time></trkpt><trkpt lat="30.914402301026943" lon="-8.299337489450743"><ele>1582.0</ele><time>2026-04-27T12:20:45Z</time></trkpt><trkpt lat="30.914295541856852" lon="-8.299372973098537"><ele>1582.0</ele><time>2026-04-27T12:20:46Z</time></trkpt><trkpt lat="30.914210369437228" lon="-8.299409204560261"><ele>1587.25</ele><time>2026-04-27T12:20:47Z</time></trkpt><trkpt lat="30.914221751191157" lon="-8.29952194990948"><ele>1592.5</ele><time>2026-04-27T12:20:48Z</time></trkpt><trkpt lat="30.914207046754363" lon="-8.299644949448872"><ele>1597.75</ele><time>2026-04-27T12:20:49Z</time></trkpt><trkpt lat="30.914156366971085" lon="-8.299780280407097"><ele>1603.0</ele><time>2026-04-27T12:20:50Z</time></trkpt><trkpt lat="30.914066564602457" lon="-8.299898205071147"><ele>1603.0</ele><time>2026-04-27T12:20:51Z</time></trkpt><trkpt lat="30.913942709774084" lon="-8.300014924640681"><ele>1603.0</ele><time>2026-04-27T12:20:52Z</time></trkpt><trkpt lat="30.91387965260935" lon="-8.300150788819353"><ele>1603.0</ele><time>2026-04-27T12:20:53Z</time></trkpt><trkpt lat="30.913910482254987" lon="-8.300263256078495"><ele>1603.0</ele><time>2026-04-27T12:20:54Z</time></trkpt><trkpt lat="30.913933029357057" lon="-8.300424104394073"><ele>1603.0</ele><time>2026-04-27T12:20:55Z</time></trkpt><trkpt lat="30.91400321693355" lon="-8.300556451442985"><ele>1603.0</ele><time>2026-04-27T12:20:56Z</time></trkpt><trkpt lat="30.914111530981064" lon="-8.30070516808155"><ele>1603.0</ele><time>2026-04-27T12:20:57Z</time></trkpt><trkpt lat="30.914230436000583" lon="-8.300866120564969"><ele>1593.5</ele><time>2026-04-27T12:20:58Z</time></trkpt><trkpt lat="30.914307563449853" lon="-8.30098902671556"><ele>1584.0</ele><time>2026-04-27T12:20:59Z</time></trkpt><trkpt lat="30.914339139894413" lon="-8.301120860117264"><ele>1574.5</ele><time>2026-04-27T12:21:00Z</time></trkpt><trkpt lat="30.914338401607317" lon="-8.301242991436613"><ele>1565.0</ele><time>2026-04-27T12:21:01Z</time></trkpt><trkpt lat="30.91428276894586" lon="-8.301386826260027"><ele>1577.0</ele><time>2026-04-27T12:21:02Z</time></trkpt><trkpt lat="30.914204566574426" lon="-8.301548399866041"><ele>1589.0</ele><time>2026-04-27T12:21:03Z</time></trkpt><trkpt lat="30.914098538795027" lon="-8.301731781080402"><ele>1601.0</ele><time>2026-04-27T12:21:04Z</time></trkpt><trkpt lat="30.913962537581344" lon="-8.301927035208797"><ele>1601.0</ele><time>2026-04-27T12:21:05Z</time></trkpt><trkpt lat="30.91379940388432" lon="-8.302133019940134"><ele>1601.0</ele><time>2026-04-27T12:21:06Z</time></trkpt><trkpt lat="30.913631607100644" lon="-8.302303847704355"><ele>1609.0</ele><time>2026-04-27T12:21:07Z</time></trkpt><trkpt lat="30.91349245267793" lon="-8.302469288885444"><ele>1617.0</ele><time>2026-04-27T12:21:08Z</time></trkpt><trkpt lat="30.913375613835804" lon="-8.302622566730081"><ele>1625.0</ele><time>2026-04-27T12:21:09Z</time></trkpt><trkpt lat="30.913256961433422" lon="-8.302723593093578"><ele>1625.0</ele><time>2026-04-27T12:21:10Z</time></trkpt><trkpt lat="30.913158388207993" lon="-8.30279988378925"><ele>1625.0</ele><time>2026-04-27T12:21:11Z</time></trkpt><trkpt lat="30.913143207557674" lon="-8.302893044032263"><ele>1625.0</ele><time>2026-04-27T12:21:12Z</time></trkpt><trkpt lat="30.913112154235574" lon="-8.302965569826847"><ele>1625.0</ele><time>2026-04-27T12:21:13Z</time></trkpt><trkpt lat="30.913161788628713" lon="-8.30305374539591"><ele>1625.0</ele><time>2026-04-27T12:21:14Z</time></trkpt><trkpt lat="30.913197608429954" lon="-8.303204644744982"><ele>1618.0</ele><time>2026-04-27T12:21:15Z</time></trkpt><trkpt lat="30.91321675395239" lon="-8.3033741478176"><ele>1611.0</ele><time>2026-04-27T12:21:16Z</time></trkpt><trkpt lat="30.91316205490016" lon="-8.303570076249466"><ele>1604.0</ele><time>2026-04-27T12:21:17Z</time></trkpt><trkpt lat="30.913107657946956" lon="-8.303743601474169"><ele>1604.0</ele><time>2026-04-27T12:21:18Z</time></trkpt><trkpt lat="30.913053516640243" lon="-8.303894315571718"><ele>1604.0</ele><time>2026-04-27T12:21:19Z</time></trkpt><trkpt lat="30.91291715381925" lon="-8.303971229305848"><ele>1604.0</ele><time>2026-04-27T12:21:20Z</time></trkpt><trkpt lat="30.91278913052586" lon="-8.304057142131581"><ele>1604.0</ele><time>2026-04-27T12:21:21Z</time></trkpt><trkpt lat="30.912643483488317" lon="-8.304144095308361"><ele>1610.8000000000002</ele><time>2026-04-27T12:21:22Z</time></trkpt><trkpt lat="30.912532086839978" lon="-8.30422125978498"><ele>1617.6000000000001</ele><time>2026-04-27T12:21:23Z</time></trkpt><trkpt lat="30.912466446046267" lon="-8.304308424526178"><ele>1624.4</ele><time>2026-04-27T12:21:24Z</time></trkpt><trkpt lat="30.912441227147834" lon="-8.304408752959901"><ele>1631.2</ele><time>2026-04-27T12:21:25Z</time></trkpt><trkpt lat="30.912452146193022" lon="-8.30454228774929"><ele>1638.0</ele><time>2026-04-27T12:21:26Z</time></trkpt><trkpt lat="30.912475182195063" lon="-8.30468714933757"><ele>1637.25</ele><time>2026-04-27T12:21:27Z</time></trkpt><trkpt lat="30.912552176526315" lon="-8.304831562322251"><ele>1636.5</ele><time>2026-04-27T12:21:28Z</time></trkpt><trkpt lat="30.912587967759148" lon="-8.304992334441769"><ele>1635.75</ele><time>2026-04-27T12:21:29Z</time></trkpt><trkpt lat="30.912564609638146" lon="-8.305173344531733"><ele>1635.0</ele><time>2026-04-27T12:21:30Z</time></trkpt><trkpt lat="30.912614237093425" lon="-8.305337835931867"><ele>1623.3333333333335</ele><time>2026-04-27T12:21:31Z</time></trkpt><trkpt lat="30.91267410287185" lon="-8.305494526514826"><ele>1611.6666666666667</ele><time>2026-04-27T12:21:32Z</time></trkpt><trkpt lat="30.91272016661126" lon="-8.305698198074827"><ele>1600.0</ele><time>2026-04-27T12:21:33Z</time></trkpt><trkpt lat="30.91275847487885" lon="-8.305929885100374"><ele>1600.0</ele><time>2026-04-27T12:21:34Z</time></trkpt><trkpt lat="30.912789116440113" lon="-8.306149468286605"><ele>1600.0</ele><time>2026-04-27T12:21:35Z</time></trkpt><trkpt lat="30.912814349622767" lon="-8.306324565134215"><ele>1600.0</ele><time>2026-04-27T12:21:36Z</time></trkpt><trkpt lat="30.91281728215842" lon="-8.306482595998395"><ele>1599.0</ele><time>2026-04-27T12:21:37Z</time></trkpt><trkpt lat="30.9128033308475" lon="-8.306612964921825"><ele>1598.0</ele><time>2026-04-27T12:21:38Z</time></trkpt><trkpt lat="30.912771199308185" lon="-8.306729484200865"><ele>1597.0</ele><time>2026-04-27T12:21:39Z</time></trkpt><trkpt lat="30.912702776194987" lon="-8.306828730899953"><ele>1596.0</ele><time>2026-04-27T12:21:40Z</time></trkpt><trkpt lat="30.912632258619013" lon="-8.306898941665532"><ele>1595.0</ele><time>2026-04-27T12:21:41Z</time></trkpt><trkpt lat="30.912504837382677" lon="-8.306864584697955"><ele>1605.75</ele><time>2026-04-27T12:21:42Z</time></trkpt><trkpt lat="30.91240062882058" lon="-8.306847454778092"><ele>1616.5</ele><time>2026-04-27T12:21:43Z</time></trkpt><trkpt lat="30.912277194609903" lon="-8.306806881270177"><ele>1627.25</ele><time>2026-04-27T12:21:44Z</time></trkpt><trkpt lat="30.9121338848395" lon="-8.306808715854213"><ele>1638.0</ele><time>2026-04-27T12:21:45Z</time></trkpt><trkpt lat="30.91199669517295" lon="-8.306815542800056"><ele>1638.0</ele><time>2026-04-27T12:21:46Z</time></trkpt><trkpt lat="30.911894787883888" lon="-8.306920340612237"><ele>1638.0</ele><time>2026-04-27T12:21:47Z</time></trkpt><trkpt lat="30.911782062932787" lon="-8.30695968883134"><ele>1638.0</ele><time>2026-04-27T12:21:48Z</time></trkpt><trkpt lat="30.911690547939084" lon="-8.306963231752036"><ele>1638.0</ele><time>2026-04-27T12:21:49Z</time></trkpt><trkpt lat="30.911611404239448" lon="-8.306942605718945"><ele>1638.0</ele><time>2026-04-27T12:21:50Z</time></trkpt><trkpt lat="30.91149910636286" lon="-8.30689043911991"><ele>1642.25</ele><time>2026-04-27T12:21:51Z</time></trkpt><trkpt lat="30.911368500955657" lon="-8.30682655187099"><ele>1646.5</ele><time>2026-04-27T12:21:52Z</time></trkpt><trkpt lat="30.911227223385083" lon="-8.306840947970413"><ele>1650.75</ele><time>2026-04-27T12:21:53Z</time></trkpt><trkpt lat="30.911087366973607" lon="-8.306873990603517"><ele>1655.0</ele><time>2026-04-27T12:21:54Z</time></trkpt><trkpt lat="30.910957950248573" lon="-8.306930736585747"><ele>1657.0</ele><time>2026-04-27T12:21:55Z</time></trkpt><trkpt lat="30.910826915886293" lon="-8.306988366836423"><ele>1659.0</ele><time>2026-04-27T12:21:56Z</time></trkpt><trkpt lat="30.910726836264026" lon="-8.307023016598848"><ele>1661.0</ele><time>2026-04-27T12:21:57Z</time></trkpt><trkpt lat="30.910654556962484" lon="-8.307046967405348"><ele>1663.0</ele><time>2026-04-27T12:21:58Z</time></trkpt><trkpt lat="30.910563704308558" lon="-8.306989755302677"><ele>1665.0</ele><time>2026-04-27T12:21:59Z</time></trkpt><trkpt lat="30.9104684902476" lon="-8.30693457613358"><ele>1665.0</ele><time>2026-04-27T12:22:00Z</time></trkpt><trkpt lat="30.91035744809836" lon="-8.306845466329422"><ele>1665.0</ele><time>2026-04-27T12:22:01Z</time></trkpt><trkpt lat="30.91024623080285" lon="-8.30673172493971"><ele>1665.0</ele><time>2026-04-27T12:22:02Z</time></trkpt><trkpt lat="30.910145288277008" lon="-8.306598969582277"><ele>1665.0</ele><time>2026-04-27T12:22:03Z</time></trkpt><trkpt lat="30.910042841752407" lon="-8.306423306501348"><ele>1671.0</ele><time>2026-04-27T12:22:04Z</time></trkpt><trkpt lat="30.909955788892155" lon="-8.306230766151259"><ele>1677.0</ele><time>2026-04-27T12:22:05Z</time></trkpt><trkpt lat="30.909882167957505" lon="-8.306069016589246"><ele>1683.0</ele><time>2026-04-27T12:22:06Z</time></trkpt><trkpt lat="30.909782268618454" lon="-8.305907151202664"><ele>1683.0</ele><time>2026-04-27T12:22:07Z</time></trkpt><trkpt lat="30.9096564828852" lon="-8.305767847667775"><ele>1683.0</ele><time>2026-04-27T12:22:08Z</time></trkpt><trkpt lat="30.90955624063711" lon="-8.30567507388285"><ele>1683.0</ele><time>2026-04-27T12:22:09Z</time></trkpt><trkpt lat="30.909451877617148" lon="-8.305675763472406"><ele>1683.0</ele><time>2026-04-27T12:22:10Z</time></trkpt><trkpt lat="30.909365873488426" lon="-8.305685013057328"><ele>1683.0</ele><time>2026-04-27T12:22:11Z</time></trkpt><trkpt lat="30.909275387237084" lon="-8.30573254694582"><ele>1683.0</ele><time>2026-04-27T12:22:12Z</time></trkpt><trkpt lat="30.909147374371564" lon="-8.305744593106146"><ele>1683.0</ele><time>2026-04-27T12:22:13Z</time></trkpt><trkpt lat="30.908985893436455" lon="-8.305719204225374"><ele>1683.0</ele><time>2026-04-27T12:22:14Z</time></trkpt><trkpt lat="30.908808582354943" lon="-8.305668119475662"><ele>1690.3333333333335</ele><time>2026-04-27T12:22:15Z</time></trkpt><trkpt lat="30.908630576043034" lon="-8.305629782284505"><ele>1697.6666666666667</ele><time>2026-04-27T12:22:16Z</time></trkpt><trkpt lat="30.908425028967162" lon="-8.305601068300367"><ele>1705.0</ele><time>2026-04-27T12:22:17Z</time></trkpt><trkpt lat="30.90820151901574" lon="-8.305576321029049"><ele>1705.0</ele><time>2026-04-27T12:22:18Z</time></trkpt><trkpt lat="30.908020151523704" lon="-8.305560840771749"><ele>1705.0</ele><time>2026-04-27T12:22:19Z</time></trkpt><trkpt lat="30.90788793527315" lon="-8.305551915363878"><ele>1705.0</ele><time>2026-04-27T12:22:20Z</time></trkpt><trkpt lat="30.90779400061517" lon="-8.305595081661753"><ele>1705.0</ele><time>2026-04-27T12:22:21Z</time></trkpt><trkpt lat="30.90774859413742" lon="-8.305668316055936"><ele>1695.5</ele><time>2026-04-27T12:22:22Z</time></trkpt><trkpt lat="30.90775962508205" lon="-8.305755641586126"><ele>1686.0</ele><time>2026-04-27T12:22:23Z</time></trkpt><trkpt lat="30.907803501306542" lon="-8.305856300343471"><ele>1676.5</ele><time>2026-04-27T12:22:24Z</time></trkpt><trkpt lat="30.90782169504687" lon="-8.30603692194718"><ele>1667.0</ele><time>2026-04-27T12:22:25Z</time></trkpt><trkpt lat="30.90780920396287" lon="-8.306219492702015"><ele>1667.0</ele><time>2026-04-27T12:22:26Z</time></trkpt><trkpt lat="30.90778301319358" lon="-8.30640537541477"><ele>1667.0</ele><time>2026-04-27T12:22:27Z</time></trkpt><trkpt lat="30.907750287993693" lon="-8.306577908763549"><ele>1667.0</ele><time>2026-04-27T12:22:28Z</time></trkpt><trkpt lat="30.90770295479148" lon="-8.306695928976266"><ele>1667.0</ele><time>2026-04-27T12:22:29Z</time></trkpt><trkpt lat="30.907626294523666" lon="-8.30676104553981"><ele>1669.0</ele><time>2026-04-27T12:22:30Z</time></trkpt><trkpt lat="30.90751087204592" lon="-8.306750127358276"><ele>1671.0</ele><time>2026-04-27T12:22:31Z</time></trkpt><trkpt lat="30.90739359196213" lon="-8.30672253505693"><ele>1673.0</ele><time>2026-04-27T12:22:32Z</time></trkpt><trkpt lat="30.907248247149347" lon="-8.306678940194123"><ele>1675.0</ele><time>2026-04-27T12:22:33Z</time></trkpt><trkpt lat="30.907077529125615" lon="-8.306653264753997"><ele>1675.0</ele><time>2026-04-27T12:22:34Z</time></trkpt><trkpt lat="30.90689931049806" lon="-8.306627760417209"><ele>1675.0</ele><time>2026-04-27T12:22:35Z</time></trkpt><trkpt lat="30.90670256815032" lon="-8.306648458829354"><ele>1675.0</ele><time>2026-04-27T12:22:36Z</time></trkpt><trkpt lat="30.906523033108407" lon="-8.306637074102323"><ele>1676.4</ele><time>2026-04-27T12:22:37Z</time></trkpt><trkpt lat="30.90638258159724" lon="-8.30659565816239"><ele>1677.8</ele><time>2026-04-27T12:22:38Z</time></trkpt><trkpt lat="30.90627939738163" lon="-8.306606362753675"><ele>1679.1999999999998</ele><time>2026-04-27T12:22:39Z</time></trkpt><trkpt lat="30.906205454069394" lon="-8.306618686319311"><ele>1680.6</ele><time>2026-04-27T12:22:40Z</time></trkpt><trkpt lat="30.90617852582982" lon="-8.306692684467155"><ele>1682.0</ele><time>2026-04-27T12:22:41Z</time></trkpt><trkpt lat="30.90615959288318" lon="-8.306787573428918"><ele>1682.0</ele><time>2026-04-27T12:22:42Z</time></trkpt><trkpt lat="30.906095012023485" lon="-8.306882770628789"><ele>1682.0</ele><time>2026-04-27T12:22:43Z</time></trkpt><trkpt lat="30.906020441358105" lon="-8.306994691580428"><ele>1682.0</ele><time>2026-04-27T12:22:44Z</time></trkpt><trkpt lat="30.905924973302742" lon="-8.307061957284718"><ele>1682.0</ele><time>2026-04-27T12:22:45Z</time></trkpt><trkpt lat="30.905784550711466" lon="-8.307046642046076"><ele>1688.6666666666665</ele><time>2026-04-27T12:22:46Z</time></trkpt><trkpt lat="30.905622664514844" lon="-8.307051990929104"><ele>1695.3333333333335</ele><time>2026-04-27T12:22:47Z</time></trkpt><trkpt lat="30.90544808372531" lon="-8.307071022483177"><ele>1702.0</ele><time>2026-04-27T12:22:48Z</time></trkpt><trkpt lat="30.905278325148966" lon="-8.30711765626841"><ele>1702.0</ele><time>2026-04-27T12:22:49Z</time></trkpt><trkpt lat="30.905128430076967" lon="-8.307226428079083"><ele>1702.0</ele><time>2026-04-27T12:22:50Z</time></trkpt><trkpt lat="30.905018085683068" lon="-8.307369668938914"><ele>1702.0</ele><time>2026-04-27T12:22:51Z</time></trkpt><trkpt lat="30.904904294007643" lon="-8.307454432966784"><ele>1699.8</ele><time>2026-04-27T12:22:52Z</time></trkpt><trkpt lat="30.904767782036643" lon="-8.307472043900086"><ele>1697.6</ele><time>2026-04-27T12:22:53Z</time></trkpt><trkpt lat="30.904670666335004" lon="-8.307524030792965"><ele>1695.3999999999999</ele><time>2026-04-27T12:22:54Z</time></trkpt><trkpt lat="30.904598599725063" lon="-8.307568463842214"><ele>1693.1999999999998</ele><time>2026-04-27T12:22:55Z</time></trkpt><trkpt lat="30.90454475439125" lon="-8.307612136873935"><ele>1691.0</ele><time>2026-04-27T12:22:56Z</time></trkpt><trkpt lat="30.904531724890816" lon="-8.307720771696522"><ele>1691.0</ele><time>2026-04-27T12:22:57Z</time></trkpt><trkpt lat="30.90457475962578" lon="-8.307873721921787"><ele>1691.0</ele><time>2026-04-27T12:22:58Z</time></trkpt><trkpt lat="30.90455889367014" lon="-8.308000552696319"><ele>1691.0</ele><time>2026-04-27T12:22:59Z</time></trkpt><trkpt lat="30.90451040404905" lon="-8.308083412312627"><ele>1691.0</ele><time>2026-04-27T12:23:00Z</time></trkpt><trkpt lat="30.90445222191274" lon="-8.308174225301002"><ele>1691.0</ele><time>2026-04-27T12:23:01Z</time></trkpt><trkpt lat="30.90435539309259" lon="-8.308306802080349"><ele>1691.25</ele><time>2026-04-27T12:23:02Z</time></trkpt><trkpt lat="30.904246869714925" lon="-8.308463247810737"><ele>1691.5</ele><time>2026-04-27T12:23:03Z</time></trkpt><trkpt lat="30.904164751501412" lon="-8.308590461929642"><ele>1691.75</ele><time>2026-04-27T12:23:04Z</time></trkpt><trkpt lat="30.90409769708249" lon="-8.308668764962794"><ele>1692.0</ele><time>2026-04-27T12:23:05Z</time></trkpt><trkpt lat="30.904027548702285" lon="-8.308729768730878"><ele>1696.25</ele><time>2026-04-27T12:23:06Z</time></trkpt><trkpt lat="30.90388026693431" lon="-8.30871573246002"><ele>1700.5</ele><time>2026-04-27T12:23:07Z</time></trkpt><trkpt lat="30.903724629547835" lon="-8.308727165335434"><ele>1704.75</ele><time>2026-04-27T12:23:08Z</time></trkpt><trkpt lat="30.90358969723257" lon="-8.308783880887697"><ele>1709.0</ele><time>2026-04-27T12:23:09Z</time></trkpt><trkpt lat="30.903475476704596" lon="-8.308886016181065"><ele>1711.3333333333333</ele><time>2026-04-27T12:23:10Z</time></trkpt><trkpt lat="30.903378661782273" lon="-8.309022609955935"><ele>1713.6666666666665</ele><time>2026-04-27T12:23:11Z</time></trkpt><trkpt lat="30.903318281620503" lon="-8.30920680266364"><ele>1716.0</ele><time>2026-04-27T12:23:12Z</time></trkpt><trkpt lat="30.903290020051433" lon="-8.309418334195074"><ele>1716.0</ele><time>2026-04-27T12:23:13Z</time></trkpt><trkpt lat="30.903293671688555" lon="-8.309654684825793"><ele>1716.0</ele><time>2026-04-27T12:23:14Z</time></trkpt><trkpt lat="30.903309114555555" lon="-8.309907155350743"><ele>1716.0</ele><time>2026-04-27T12:23:15Z</time></trkpt><trkpt lat="30.90331707033549" lon="-8.310142248950116"><ele>1716.0</ele><time>2026-04-27T12:23:16Z</time></trkpt><trkpt lat="30.903328714156597" lon="-8.31032379170927"><ele>1716.0</ele><time>2026-04-27T12:23:17Z</time></trkpt><trkpt lat="30.903357200294174" lon="-8.310464096563772"><ele>1716.0</ele><time>2026-04-27T12:23:18Z</time></trkpt><trkpt lat="30.903394664744702" lon="-8.310565610884998"><ele>1716.0</ele><time>2026-04-27T12:23:19Z</time></trkpt><trkpt lat="30.90343292711465" lon="-8.310647747972416"><ele>1718.6666666666667</ele><time>2026-04-27T12:23:20Z</time></trkpt><trkpt lat="30.903488355932396" lon="-8.310687875555612"><ele>1721.3333333333335</ele><time>2026-04-27T12:23:21Z</time></trkpt><trkpt lat="30.90355421898694" lon="-8.31071120253752"><ele>1724.0</ele><time>2026-04-27T12:23:22Z</time></trkpt><trkpt lat="30.903631875884756" lon="-8.310657513378104"><ele>1726.6666666666667</ele><time>2026-04-27T12:23:23Z</time></trkpt><trkpt lat="30.903673453964775" lon="-8.310579852773415"><ele>1729.3333333333335</ele><time>2026-04-27T12:23:24Z</time></trkpt><trkpt lat="30.90365076751037" lon="-8.310481436316318"><ele>1732.0</ele><time>2026-04-27T12:23:25Z</time></trkpt><trkpt lat="30.90367633964744" lon="-8.310378079073379"><ele>1732.0</ele><time>2026-04-27T12:23:26Z</time></trkpt><trkpt lat="30.903695575633936" lon="-8.310221987559068"><ele>1732.0</ele><time>2026-04-27T12:23:27Z</time></trkpt><trkpt lat="30.903734732244402" lon="-8.310029004861173"><ele>1732.0</ele><time>2026-04-27T12:23:28Z</time></trkpt><trkpt lat="30.90379580191269" lon="-8.309874181758152"><ele>1727.1999999999998</ele><time>2026-04-27T12:23:29Z</time></trkpt><trkpt lat="30.90385021330778" lon="-8.309741597386772"><ele>1722.3999999999999</ele><time>2026-04-27T12:23:30Z</time></trkpt><trkpt lat="30.90391808051111" lon="-8.309647319971175"><ele>1717.6000000000001</ele><time>2026-04-27T12:23:31Z</time></trkpt><trkpt lat="30.90399607949351" lon="-8.309609037907078"><ele>1712.8000000000002</ele><time>2026-04-27T12:23:32Z</time></trkpt><trkpt lat="30.904072780568892" lon="-8.309606973138674"><ele>1708.0</ele><time>2026-04-27T12:23:33Z</time></trkpt><trkpt lat="30.904214833861367" lon="-8.309587017324963"><ele>1711.4</ele><time>2026-04-27T12:23:35Z</time></trkpt><trkpt lat="30.904318695752035" lon="-8.309570990817303"><ele>1714.8000000000002</ele><time>2026-04-27T12:23:36Z</time></trkpt><trkpt lat="30.90443447001306" lon="-8.309553178382096"><ele>1718.2</ele><time>2026-04-27T12:23:37Z</time></trkpt><trkpt lat="30.90453359420763" lon="-8.309515276844962"><ele>1721.6</ele><time>2026-04-27T12:23:38Z</time></trkpt><trkpt lat="30.904619752217545" lon="-8.30944637925861"><ele>1725.0</ele><time>2026-04-27T12:23:39Z</time></trkpt><trkpt lat="30.904726389823715" lon="-8.309356673883041"><ele>1725.0</ele><time>2026-04-27T12:23:40Z</time></trkpt><trkpt lat="30.904842290458525" lon="-8.309260773735058"><ele>1725.0</ele><time>2026-04-27T12:23:41Z</time></trkpt><trkpt lat="30.904937477231826" lon="-8.309187591441775"><ele>1725.0</ele><time>2026-04-27T12:23:42Z</time></trkpt><trkpt lat="30.90502655755219" lon="-8.309120930308607"><ele>1725.0</ele><time>2026-04-27T12:23:43Z</time></trkpt><trkpt lat="30.90510993317755" lon="-8.309064251017624"><ele>1722.75</ele><time>2026-04-27T12:23:44Z</time></trkpt><trkpt lat="30.905199519590358" lon="-8.309003476458289"><ele>1720.5</ele><time>2026-04-27T12:23:45Z</time></trkpt><trkpt lat="30.90529276843109" lon="-8.3089404667592"><ele>1718.25</ele><time>2026-04-27T12:23:46Z</time></trkpt><trkpt lat="30.90540495310476" lon="-8.308865359614023"><ele>1716.0</ele><time>2026-04-27T12:23:47Z</time></trkpt><trkpt lat="30.905521949152412" lon="-8.308787971958273"><ele>1716.0</ele><time>2026-04-27T12:23:48Z</time></trkpt><trkpt lat="30.905633450313477" lon="-8.308717387027746"><ele>1716.0</ele><time>2026-04-27T12:23:49Z</time></trkpt><trkpt lat="30.905727973843597" lon="-8.308658144583365"><ele>1716.0</ele><time>2026-04-27T12:23:50Z</time></trkpt><trkpt lat="30.905828706693246" lon="-8.308600562840326"><ele>1716.0</ele><time>2026-04-27T12:23:51Z</time></trkpt><trkpt lat="30.90595255810104" lon="-8.308550197128744"><ele>1718.0</ele><time>2026-04-27T12:23:52Z</time></trkpt><trkpt lat="30.906099163230902" lon="-8.308527926471852"><ele>1720.0</ele><time>2026-04-27T12:23:53Z</time></trkpt><trkpt lat="30.90622653090975" lon="-8.308503256881378"><ele>1722.0</ele><time>2026-04-27T12:23:54Z</time></trkpt><trkpt lat="30.90632900666312" lon="-8.30846520946148"><ele>1724.0</ele><time>2026-04-27T12:23:55Z</time></trkpt><trkpt lat="30.906417154877683" lon="-8.30841096275951"><ele>1724.0</ele><time>2026-04-27T12:23:56Z</time></trkpt><trkpt lat="30.90649801357817" lon="-8.308355490643804"><ele>1724.0</ele><time>2026-04-27T12:23:57Z</time></trkpt><trkpt lat="30.90656943749244" lon="-8.308300653760579"><ele>1724.0</ele><time>2026-04-27T12:23:58Z</time></trkpt><trkpt lat="30.906695558463905" lon="-8.308291793714837"><ele>1724.0</ele><time>2026-04-27T12:24:00Z</time></trkpt><trkpt lat="30.90679513699416" lon="-8.308327638636733"><ele>1724.0</ele><time>2026-04-27T12:24:02Z</time></trkpt><trkpt lat="30.906876006201536" lon="-8.308411413137835"><ele>1718.9999999999998</ele><time>2026-04-27T12:24:04Z</time></trkpt><trkpt lat="30.90691582230737" lon="-8.308484037677026"><ele>1714.0</ele><time>2026-04-27T12:24:05Z</time></trkpt><trkpt lat="30.90696720087174" lon="-8.308584362889787"><ele>1709.0</ele><time>2026-04-27T12:24:06Z</time></trkpt><trkpt lat="30.907013873333927" lon="-8.308650822638237"><ele>1704.0</ele><time>2026-04-27T12:24:07Z</time></trkpt><trkpt lat="30.907072745337665" lon="-8.30873604867924"><ele>1698.9999999999998</ele><time>2026-04-27T12:24:08Z</time></trkpt><trkpt lat="30.907133287326612" lon="-8.308812459770598"><ele>1694.0</ele><time>2026-04-27T12:24:09Z</time></trkpt><trkpt lat="30.90718604248715" lon="-8.308878697059198"><ele>1701.4999999999998</ele><time>2026-04-27T12:24:10Z</time></trkpt><trkpt lat="30.907232133535665" lon="-8.308936125978557"><ele>1709.0</ele><time>2026-04-27T12:24:11Z</time></trkpt><trkpt lat="30.907295846826077" lon="-8.309015512066917"><ele>1716.5</ele><time>2026-04-27T12:24:12Z</time></trkpt><trkpt lat="30.90735569886362" lon="-8.309081268849381"><ele>1724.0</ele><time>2026-04-27T12:24:13Z</time></trkpt><trkpt lat="30.907416910059823" lon="-8.30914720262379"><ele>1731.4999999999998</ele><time>2026-04-27T12:24:14Z</time></trkpt><trkpt lat="30.90747767686025" lon="-8.309207349858546"><ele>1739.0</ele><time>2026-04-27T12:24:15Z</time></trkpt><trkpt lat="30.90755682034669" lon="-8.309273850304708"><ele>1731.0</ele><time>2026-04-27T12:24:16Z</time></trkpt><trkpt lat="30.907644389543833" lon="-8.309342070461552"><ele>1723.0</ele><time>2026-04-27T12:24:17Z</time></trkpt><trkpt lat="30.907747321045115" lon="-8.309419483862012"><ele>1715.0</ele><time>2026-04-27T12:24:18Z</time></trkpt><trkpt lat="30.907851431687064" lon="-8.309494586932301"><ele>1707.0</ele><time>2026-04-27T12:24:19Z</time></trkpt><trkpt lat="30.907949371673173" lon="-8.309572481068674"><ele>1707.0</ele><time>2026-04-27T12:24:20Z</time></trkpt><trkpt lat="30.908029126517267" lon="-8.309680110681292"><ele>1707.0</ele><time>2026-04-27T12:24:21Z</time></trkpt><trkpt lat="30.908079636075392" lon="-8.309805688294789"><ele>1707.0</ele><time>2026-04-27T12:24:22Z</time></trkpt><trkpt lat="30.908106082841172" lon="-8.309956541058545"><ele>1707.0</ele><time>2026-04-27T12:24:23Z</time></trkpt><trkpt lat="30.908083314683882" lon="-8.310140667625037"><ele>1709.75</ele><time>2026-04-27T12:24:24Z</time></trkpt><trkpt lat="30.90808765484263" lon="-8.310291696038943"><ele>1712.5</ele><time>2026-04-27T12:24:25Z</time></trkpt><trkpt lat="30.908097071673517" lon="-8.3104290179249"><ele>1715.25</ele><time>2026-04-27T12:24:26Z</time></trkpt><trkpt lat="30.90809259566849" lon="-8.310571456003549"><ele>1718.0</ele><time>2026-04-27T12:24:27Z</time></trkpt><trkpt lat="30.908078248803793" lon="-8.310700165488"><ele>1718.0</ele><time>2026-04-27T12:24:28Z</time></trkpt><trkpt lat="30.908021247396217" lon="-8.31083048363078"><ele>1718.0</ele><time>2026-04-27T12:24:29Z</time></trkpt><trkpt lat="30.90800188280618" lon="-8.310967720233384"><ele>1718.0</ele><time>2026-04-27T12:24:30Z</time></trkpt><trkpt lat="30.907978752974522" lon="-8.311119622505547"><ele>1718.0</ele><time>2026-04-27T12:24:31Z</time></trkpt><trkpt lat="30.90795340299405" lon="-8.311293167720615"><ele>1719.6666666666665</ele><time>2026-04-27T12:24:32Z</time></trkpt><trkpt lat="30.90792248437086" lon="-8.311493361538018"><ele>1721.3333333333335</ele><time>2026-04-27T12:24:33Z</time></trkpt><trkpt lat="30.907900311722337" lon="-8.311695392962426"><ele>1723.0</ele><time>2026-04-27T12:24:34Z</time></trkpt><trkpt lat="30.907917425863264" lon="-8.311886757031123"><ele>1723.0</ele><time>2026-04-27T12:24:35Z</time></trkpt><trkpt lat="30.90792516841682" lon="-8.31203308975774"><ele>1723.0</ele><time>2026-04-27T12:24:36Z</time></trkpt><trkpt lat="30.907908229008516" lon="-8.312154618656127"><ele>1723.0</ele><time>2026-04-27T12:24:37Z</time></trkpt><trkpt lat="30.907887580954778" lon="-8.312258486248185"><ele>1723.0</ele><time>2026-04-27T12:24:38Z</time></trkpt><trkpt lat="30.907760505340818" lon="-8.312351499439934"><ele>1719.25</ele><time>2026-04-27T12:24:39Z</time></trkpt><trkpt lat="30.907672216475337" lon="-8.31247595611523"><ele>1715.5</ele><time>2026-04-27T12:24:40Z</time></trkpt><trkpt lat="30.907598899842124" lon="-8.31259850115024"><ele>1711.75</ele><time>2026-04-27T12:24:41Z</time></trkpt><trkpt lat="30.907539703636377" lon="-8.31274108513977"><ele>1708.0</ele><time>2026-04-27T12:24:42Z</time></trkpt><trkpt lat="30.907506385469617" lon="-8.31291767212873"><ele>1728.3333333333335</ele><time>2026-04-27T12:24:43Z</time></trkpt><trkpt lat="30.907489692413023" lon="-8.313119907347408"><ele>1748.6666666666665</ele><time>2026-04-27T12:24:44Z</time></trkpt><trkpt lat="30.907431854163473" lon="-8.313333927209717"><ele>1769.0</ele><time>2026-04-27T12:24:45Z</time></trkpt><trkpt lat="30.90740071003865" lon="-8.313538851528397"><ele>1769.0</ele><time>2026-04-27T12:24:46Z</time></trkpt><trkpt lat="30.90738664043462" lon="-8.313706049897972"><ele>1769.0</ele><time>2026-04-27T12:24:47Z</time></trkpt><trkpt lat="30.907374827665702" lon="-8.31383953748513"><ele>1769.0</ele><time>2026-04-27T12:24:48Z</time></trkpt><trkpt lat="30.90735769647858" lon="-8.313979991404906"><ele>1769.0</ele><time>2026-04-27T12:24:49Z</time></trkpt><trkpt lat="30.907312125815633" lon="-8.314136642130963"><ele>1763.3333333333333</ele><time>2026-04-27T12:24:50Z</time></trkpt><trkpt lat="30.907241271408097" lon="-8.314304999383209"><ele>1757.6666666666665</ele><time>2026-04-27T12:24:51Z</time></trkpt><trkpt lat="30.90714842813759" lon="-8.314492864809143"><ele>1752.0</ele><time>2026-04-27T12:24:52Z</time></trkpt><trkpt lat="30.907078378035827" lon="-8.314667356803584"><ele>1749.75</ele><time>2026-04-27T12:24:53Z</time></trkpt><trkpt lat="30.90702051011815" lon="-8.314821173235257"><ele>1747.5</ele><time>2026-04-27T12:24:54Z</time></trkpt><trkpt lat="30.906971314886835" lon="-8.314971104229405"><ele>1745.25</ele><time>2026-04-27T12:24:55Z</time></trkpt><trkpt lat="30.90692200582328" lon="-8.315130559432898"><ele>1743.0</ele><time>2026-04-27T12:24:56Z</time></trkpt><trkpt lat="30.90689701898278" lon="-8.31528800363519"><ele>1743.0</ele><time>2026-04-27T12:24:57Z</time></trkpt><trkpt lat="30.906926105201048" lon="-8.315445494364527"><ele>1743.0</ele><time>2026-04-27T12:24:58Z</time></trkpt><trkpt lat="30.90694499385328" lon="-8.315605225284614"><ele>1743.0</ele><time>2026-04-27T12:24:59Z</time></trkpt><trkpt lat="30.906958672721547" lon="-8.31577099950084"><ele>1743.0</ele><time>2026-04-27T12:25:00Z</time></trkpt><trkpt lat="30.906938563919784" lon="-8.315935996466116"><ele>1746.25</ele><time>2026-04-27T12:25:01Z</time></trkpt><trkpt lat="30.906908606151184" lon="-8.316082577087633"><ele>1749.5</ele><time>2026-04-27T12:25:02Z</time></trkpt><trkpt lat="30.906853997004134" lon="-8.316236263314336"><ele>1752.75</ele><time>2026-04-27T12:25:03Z</time></trkpt><trkpt lat="30.906765875749624" lon="-8.316412517451278"><ele>1756.0</ele><time>2026-04-27T12:25:04Z</time></trkpt><trkpt lat="30.906666903259364" lon="-8.316593954619146"><ele>1768.6666666666667</ele><time>2026-04-27T12:25:05Z</time></trkpt><trkpt lat="30.90660875557774" lon="-8.316781915610264"><ele>1781.3333333333335</ele><time>2026-04-27T12:25:06Z</time></trkpt><trkpt lat="30.906554164140122" lon="-8.316947881512498"><ele>1794.0</ele><time>2026-04-27T12:25:07Z</time></trkpt><trkpt lat="30.906505670367373" lon="-8.317113892616353"><ele>1792.5</ele><time>2026-04-27T12:25:08Z</time></trkpt><trkpt lat="30.90646656741091" lon="-8.317279632364318"><ele>1791.0</ele><time>2026-04-27T12:25:09Z</time></trkpt><trkpt lat="30.906423362424658" lon="-8.317442697371293"><ele>1789.5</ele><time>2026-04-27T12:25:10Z</time></trkpt><trkpt lat="30.906381433986372" lon="-8.317598238417409"><ele>1788.0</ele><time>2026-04-27T12:25:11Z</time></trkpt><trkpt lat="30.906347613739722" lon="-8.317735189833359"><ele>1788.0</ele><time>2026-04-27T12:25:12Z</time></trkpt><trkpt lat="30.906320127425055" lon="-8.317870496703144"><ele>1788.0000000000002</ele><time>2026-04-27T12:25:13Z</time></trkpt><trkpt lat="30.906312055548074" lon="-8.31800016250305"><ele>1788.0000000000002</ele><time>2026-04-27T12:25:14Z</time></trkpt><trkpt lat="30.906309431100834" lon="-8.31812127498606"><ele>1788.0</ele><time>2026-04-27T12:25:15Z</time></trkpt><trkpt lat="30.90633869816695" lon="-8.318231668694601"><ele>1788.0</ele><time>2026-04-27T12:25:16Z</time></trkpt><trkpt lat="30.906383752425043" lon="-8.318349715478615"><ele>1788.6000000000001</ele><time>2026-04-27T12:25:17Z</time></trkpt><trkpt lat="30.906406590277715" lon="-8.318473413759106"><ele>1789.2000000000003</ele><time>2026-04-27T12:25:18Z</time></trkpt><trkpt lat="30.906436810462097" lon="-8.318578820521841"><ele>1789.8</ele><time>2026-04-27T12:25:19Z</time></trkpt><trkpt lat="30.90643542546281" lon="-8.318705005056758"><ele>1790.4</ele><time>2026-04-27T12:25:20Z</time></trkpt><trkpt lat="30.906413895806637" lon="-8.318829577398999"><ele>1791.0</ele><time>2026-04-27T12:25:21Z</time></trkpt><trkpt lat="30.906381773892104" lon="-8.318960216051135"><ele>1794.6</ele><time>2026-04-27T12:25:22Z</time></trkpt><trkpt lat="30.906335094663483" lon="-8.319106913608158"><ele>1798.1999999999998</ele><time>2026-04-27T12:25:23Z</time></trkpt><trkpt lat="30.90629555349275" lon="-8.31923327694009"><ele>1801.8000000000002</ele><time>2026-04-27T12:25:24Z</time></trkpt><trkpt lat="30.906300910428875" lon="-8.31933972564313"><ele>1805.4</ele><time>2026-04-27T12:25:25Z</time></trkpt><trkpt lat="30.906297259438578" lon="-8.319424443808007"><ele>1809.0</ele><time>2026-04-27T12:25:26Z</time></trkpt><trkpt lat="30.906345689126915" lon="-8.319500829647978"><ele>1809.0</ele><time>2026-04-27T12:25:27Z</time></trkpt><trkpt lat="30.906452899402634" lon="-8.319518211921208"><ele>1809.0</ele><time>2026-04-27T12:25:28Z</time></trkpt><trkpt lat="30.906528827034165" lon="-8.319492171953739"><ele>1809.0</ele><time>2026-04-27T12:25:29Z</time></trkpt><trkpt lat="30.90663507654811" lon="-8.319473153465431"><ele>1809.0</ele><time>2026-04-27T12:25:30Z</time></trkpt><trkpt lat="30.90672191499623" lon="-8.319426196218851"><ele>1809.0</ele><time>2026-04-27T12:25:31Z</time></trkpt><trkpt lat="30.906799327863936" lon="-8.319336472180233"><ele>1812.6</ele><time>2026-04-27T12:25:32Z</time></trkpt><trkpt lat="30.906878403885777" lon="-8.319229752794062"><ele>1816.2</ele><time>2026-04-27T12:25:33Z</time></trkpt><trkpt lat="30.906954396935117" lon="-8.319146688540934"><ele>1819.7999999999997</ele><time>2026-04-27T12:25:34Z</time></trkpt><trkpt lat="30.907022094692746" lon="-8.319079593985865"><ele>1823.3999999999999</ele><time>2026-04-27T12:25:35Z</time></trkpt><trkpt lat="30.90708616717959" lon="-8.319025307875972"><ele>1827.0</ele><time>2026-04-27T12:25:36Z</time></trkpt><trkpt lat="30.907163389505193" lon="-8.318966283417014"><ele>1827.0</ele><time>2026-04-27T12:25:37Z</time></trkpt><trkpt lat="30.907238760023837" lon="-8.318925302368923"><ele>1826.9999999999998</ele><time>2026-04-27T12:25:38Z</time></trkpt><trkpt lat="30.90730428849881" lon="-8.318890285359965"><ele>1826.9999999999998</ele><time>2026-04-27T12:25:39Z</time></trkpt><trkpt lat="30.90739091428229" lon="-8.318803072552301"><ele>1827.0</ele><time>2026-04-27T12:25:41Z</time></trkpt><trkpt lat="30.907417638510562" lon="-8.3187068785014"><ele>1827.0</ele><time>2026-04-27T12:25:42Z</time></trkpt><trkpt lat="30.90738923732095" lon="-8.318556641535821"><ele>1822.5</ele><time>2026-04-27T12:25:43Z</time></trkpt><trkpt lat="30.907413828102637" lon="-8.318414159965304"><ele>1818.0</ele><time>2026-04-27T12:25:44Z</time></trkpt><trkpt lat="30.907463552413127" lon="-8.318297538398216"><ele>1813.5</ele><time>2026-04-27T12:25:45Z</time></trkpt><trkpt lat="30.90753892194474" lon="-8.31820203929692"><ele>1809.0</ele><time>2026-04-27T12:25:46Z</time></trkpt><trkpt lat="30.90767018069218" lon="-8.318132451034076"><ele>1812.5</ele><time>2026-04-27T12:25:47Z</time></trkpt><trkpt lat="30.907800230618907" lon="-8.31812180575692"><ele>1816.0</ele><time>2026-04-27T12:25:48Z</time></trkpt><trkpt lat="30.907906408261603" lon="-8.318103908966178"><ele>1819.5</ele><time>2026-04-27T12:25:49Z</time></trkpt><trkpt lat="30.908006980270272" lon="-8.318080986818954"><ele>1823.0</ele><time>2026-04-27T12:25:50Z</time></trkpt><trkpt lat="30.908113795334714" lon="-8.318027734064358"><ele>1823.0</ele><time>2026-04-27T12:25:51Z</time></trkpt><trkpt lat="30.90818070716174" lon="-8.317969901116514"><ele>1823.0000000000002</ele><time>2026-04-27T12:25:52Z</time></trkpt><trkpt lat="30.908234409208195" lon="-8.31789290280462"><ele>1823.0000000000002</ele><time>2026-04-27T12:25:53Z</time></trkpt><trkpt lat="30.908306444587616" lon="-8.317775336635998"><ele>1823.0</ele><time>2026-04-27T12:25:54Z</time></trkpt><trkpt lat="30.908341048391332" lon="-8.317653790094118"><ele>1823.0</ele><time>2026-04-27T12:25:55Z</time></trkpt><trkpt lat="30.908338217030117" lon="-8.317505017382393"><ele>1823.0</ele><time>2026-04-27T12:25:56Z</time></trkpt><trkpt lat="30.908371321108692" lon="-8.317397697204758"><ele>1823.0000000000002</ele><time>2026-04-27T12:25:57Z</time></trkpt><trkpt lat="30.908421847020644" lon="-8.317290759681079"><ele>1823.0000000000002</ele><time>2026-04-27T12:25:58Z</time></trkpt><trkpt lat="30.908490894138044" lon="-8.317170975188342"><ele>1823.0</ele><time>2026-04-27T12:25:59Z</time></trkpt><trkpt lat="30.908564708082366" lon="-8.317081602856204"><ele>1823.0</ele><time>2026-04-27T12:26:00Z</time></trkpt><trkpt lat="30.908661133795793" lon="-8.317038726461675"><ele>1824.0</ele><time>2026-04-27T12:26:01Z</time></trkpt><trkpt lat="30.908768848827023" lon="-8.317110157934724"><ele>1825.0000000000002</ele><time>2026-04-27T12:26:02Z</time></trkpt><trkpt lat="30.90887369129776" lon="-8.317130543794526"><ele>1826.0000000000002</ele><time>2026-04-27T12:26:03Z</time></trkpt><trkpt lat="30.908964875327797" lon="-8.31715644385675"><ele>1827.0</ele><time>2026-04-27T12:26:04Z</time></trkpt><trkpt lat="30.909044926573003" lon="-8.31714205353396"><ele>1828.0</ele><time>2026-04-27T12:26:05Z</time></trkpt><trkpt lat="30.909126182681465" lon="-8.317105090021737"><ele>1828.0</ele><time>2026-04-27T12:26:06Z</time></trkpt><trkpt lat="30.90918315136139" lon="-8.317015866390989"><ele>1828.0</ele><time>2026-04-27T12:26:07Z</time></trkpt><trkpt lat="30.909272070726423" lon="-8.316936373202243"><ele>1828.0</ele><time>2026-04-27T12:26:08Z</time></trkpt><trkpt lat="30.909364771770516" lon="-8.316815833742387"><ele>1828.0</ele><time>2026-04-27T12:26:09Z</time></trkpt><trkpt lat="30.909451060802088" lon="-8.316687826136228"><ele>1836.25</ele><time>2026-04-27T12:26:10Z</time></trkpt><trkpt lat="30.90949927452092" lon="-8.316550499112278"><ele>1844.5</ele><time>2026-04-27T12:26:11Z</time></trkpt><trkpt lat="30.909541527905724" lon="-8.316416624302013"><ele>1852.75</ele><time>2026-04-27T12:26:12Z</time></trkpt><trkpt lat="30.90959434072532" lon="-8.316251127328979"><ele>1861.0</ele><time>2026-04-27T12:26:13Z</time></trkpt><trkpt lat="30.909583181834964" lon="-8.316070945522867"><ele>1861.0</ele><time>2026-04-27T12:26:14Z</time></trkpt><trkpt lat="30.909576916388325" lon="-8.315916783560361"><ele>1861.0</ele><time>2026-04-27T12:26:15Z</time></trkpt><trkpt lat="30.909588570028177" lon="-8.31579305470134"><ele>1861.0</ele><time>2026-04-27T12:26:16Z</time></trkpt><trkpt lat="30.909686865954335" lon="-8.315681576077566"><ele>1861.0</ele><time>2026-04-27T12:26:17Z</time></trkpt><trkpt lat="30.90977664833635" lon="-8.31556529869735"><ele>1853.6666666666667</ele><time>2026-04-27T12:26:18Z</time></trkpt><trkpt lat="30.909905698277058" lon="-8.315435317319206"><ele>1846.3333333333335</ele><time>2026-04-27T12:26:19Z</time></trkpt><trkpt lat="30.910055482313243" lon="-8.315317415328693"><ele>1839.0</ele><time>2026-04-27T12:26:20Z</time></trkpt><trkpt lat="30.910154060010374" lon="-8.315210119681046"><ele>1852.75</ele><time>2026-04-27T12:26:21Z</time></trkpt><trkpt lat="30.910245212800355" lon="-8.315151366114227"><ele>1866.5</ele><time>2026-04-27T12:26:22Z</time></trkpt><trkpt lat="30.910297163900594" lon="-8.315047852406366"><ele>1880.25</ele><time>2026-04-27T12:26:23Z</time></trkpt><trkpt lat="30.910329579195707" lon="-8.314919612151536"><ele>1894.0</ele><time>2026-04-27T12:26:24Z</time></trkpt><trkpt lat="30.910347745125037" lon="-8.314765874939708"><ele>1886.0</ele><time>2026-04-27T12:26:25Z</time></trkpt><trkpt lat="30.910325145233784" lon="-8.314597602927902"><ele>1878.0</ele><time>2026-04-27T12:26:26Z</time></trkpt><trkpt lat="30.91034260931426" lon="-8.314464576651236"><ele>1870.0</ele><time>2026-04-27T12:26:27Z</time></trkpt><trkpt lat="30.91042004130698" lon="-8.314356061531447"><ele>1862.0</ele><time>2026-04-27T12:26:28Z</time></trkpt><trkpt lat="30.910489938445536" lon="-8.31423379141979"><ele>1862.0</ele><time>2026-04-27T12:26:29Z</time></trkpt><trkpt lat="30.910593337403025" lon="-8.314089726268588"><ele>1862.0</ele><time>2026-04-27T12:26:30Z</time></trkpt><trkpt lat="30.910702865556726" lon="-8.313941610798215"><ele>1862.0</ele><time>2026-04-27T12:26:31Z</time></trkpt><trkpt lat="30.910796844143363" lon="-8.313813901170196"><ele>1855.3999999999999</ele><time>2026-04-27T12:26:32Z</time></trkpt><trkpt lat="30.91088232710519" lon="-8.313720479749005"><ele>1848.7999999999997</ele><time>2026-04-27T12:26:33Z</time></trkpt><trkpt lat="30.910965857745207" lon="-8.313672019406042"><ele>1842.2</ele><time>2026-04-27T12:26:34Z</time></trkpt><trkpt lat="30.91102018021321" lon="-8.313603065304235"><ele>1835.6</ele><time>2026-04-27T12:26:35Z</time></trkpt><trkpt lat="30.911110178162158" lon="-8.313616966616747"><ele>1829.0</ele><time>2026-04-27T12:26:36Z</time></trkpt><trkpt lat="30.911193294124633" lon="-8.31362926913714"><ele>1829.0</ele><time>2026-04-27T12:26:37Z</time></trkpt><trkpt lat="30.91128820012857" lon="-8.313657132579774"><ele>1829.0</ele><time>2026-04-27T12:26:38Z</time></trkpt><trkpt lat="30.911389820777764" lon="-8.31369374087893"><ele>1829.0</ele><time>2026-04-27T12:26:39Z</time></trkpt><trkpt lat="30.91148148588857" lon="-8.313747570991909"><ele>1829.0</ele><time>2026-04-27T12:26:40Z</time></trkpt><trkpt lat="30.911584562882837" lon="-8.313806826059805"><ele>1829.0</ele><time>2026-04-27T12:26:41Z</time></trkpt><trkpt lat="30.911698401835075" lon="-8.313871502655477"><ele>1837.8000000000002</ele><time>2026-04-27T12:26:42Z</time></trkpt><trkpt lat="30.911816200847568" lon="-8.313929160036876"><ele>1846.6000000000001</ele><time>2026-04-27T12:26:43Z</time></trkpt><trkpt lat="30.91191076654373" lon="-8.313984303467683"><ele>1855.4</ele><time>2026-04-27T12:26:44Z</time></trkpt><trkpt lat="30.911985190815138" lon="-8.314059631740797"><ele>1864.2</ele><time>2026-04-27T12:26:45Z</time></trkpt><trkpt lat="30.912059511799793" lon="-8.31412524193307"><ele>1873.0</ele><time>2026-04-27T12:26:46Z</time></trkpt><trkpt lat="30.91211880865848" lon="-8.314190787784241"><ele>1873.0</ele><time>2026-04-27T12:26:47Z</time></trkpt><trkpt lat="30.91221731020738" lon="-8.314277666347529"><ele>1873.0000000000002</ele><time>2026-04-27T12:26:48Z</time></trkpt><trkpt lat="30.912289689020046" lon="-8.314304890765232"><ele>1873.0000000000002</ele><time>2026-04-27T12:26:49Z</time></trkpt><trkpt lat="30.912355127419758" lon="-8.314309927589807"><ele>1873.0</ele><time>2026-04-27T12:26:50Z</time></trkpt><trkpt lat="30.912495180544695" lon="-8.314228307714679"><ele>1873.0</ele><time>2026-04-27T12:26:52Z</time></trkpt><trkpt lat="30.912596256800647" lon="-8.314129376261267"><ele>1875.0</ele><time>2026-04-27T12:26:53Z</time></trkpt><trkpt lat="30.91272255037694" lon="-8.31400139791636"><ele>1877.0</ele><time>2026-04-27T12:26:54Z</time></trkpt><trkpt lat="30.91280091836898" lon="-8.313831499967277"><ele>1879.0</ele><time>2026-04-27T12:26:55Z</time></trkpt><trkpt lat="30.912845787771452" lon="-8.313647803659908"><ele>1879.0</ele><time>2026-04-27T12:26:56Z</time></trkpt><trkpt lat="30.912916608732278" lon="-8.313495001508572"><ele>1879.0</ele><time>2026-04-27T12:26:57Z</time></trkpt><trkpt lat="30.913005655898093" lon="-8.313355277318182"><ele>1879.0</ele><time>2026-04-27T12:26:58Z</time></trkpt><trkpt lat="30.91311571303141" lon="-8.313190786989596"><ele>1876.6666666666667</ele><time>2026-04-27T12:26:59Z</time></trkpt><trkpt lat="30.913232260576443" lon="-8.313031729880645"><ele>1874.3333333333335</ele><time>2026-04-27T12:27:00Z</time></trkpt><trkpt lat="30.913336803625448" lon="-8.312884731300285"><ele>1872.0</ele><time>2026-04-27T12:27:01Z</time></trkpt><trkpt lat="30.91343263297788" lon="-8.31275676305599"><ele>1872.0</ele><time>2026-04-27T12:27:02Z</time></trkpt><trkpt lat="30.91354918163119" lon="-8.312686957547347"><ele>1871.9999999999998</ele><time>2026-04-27T12:27:03Z</time></trkpt><trkpt lat="30.9136224299995" lon="-8.31263205804089"><ele>1871.9999999999998</ele><time>2026-04-27T12:27:04Z</time></trkpt><trkpt lat="30.913727337526574" lon="-8.312679374049432"><ele>1872.0</ele><time>2026-04-27T12:27:05Z</time></trkpt><trkpt lat="30.913818349245464" lon="-8.312696885294121"><ele>1872.0</ele><time>2026-04-27T12:27:06Z</time></trkpt><trkpt lat="30.91393066264417" lon="-8.312697869568092"><ele>1872.0</ele><time>2026-04-27T12:27:07Z</time></trkpt><trkpt lat="30.914033793799597" lon="-8.31260704413704"><ele>1872.0</ele><time>2026-04-27T12:27:08Z</time></trkpt><trkpt lat="30.91414558386111" lon="-8.312520014278071"><ele>1872.0</ele><time>2026-04-27T12:27:09Z</time></trkpt><trkpt lat="30.91424692437211" lon="-8.312418628131553"><ele>1872.0</ele><time>2026-04-27T12:27:10Z</time></trkpt><trkpt lat="30.914327924421276" lon="-8.312350418912127"><ele>1868.3333333333333</ele><time>2026-04-27T12:27:11Z</time></trkpt><trkpt lat="30.914398577449695" lon="-8.312336696038987"><ele>1864.6666666666665</ele><time>2026-04-27T12:27:12Z</time></trkpt><trkpt lat="30.914460250961298" lon="-8.31237525950422"><ele>1861.0</ele><time>2026-04-27T12:27:13Z</time></trkpt><trkpt lat="30.914559176807355" lon="-8.312470941345229"><ele>1857.3333333333333</ele><time>2026-04-27T12:27:15Z</time></trkpt><trkpt lat="30.914591686901343" lon="-8.312544697808008"><ele>1853.6666666666665</ele><time>2026-04-27T12:27:16Z</time></trkpt><trkpt lat="30.914599935286336" lon="-8.312629673683212"><ele>1850.0</ele><time>2026-04-27T12:27:17Z</time></trkpt><trkpt lat="30.914582136324736" lon="-8.312717018988916"><ele>1850.0</ele><time>2026-04-27T12:27:18Z</time></trkpt><trkpt lat="30.91453693848829" lon="-8.312796880546635"><ele>1850.0</ele><time>2026-04-27T12:27:19Z</time></trkpt><trkpt lat="30.91446505134588" lon="-8.312876773517269"><ele>1850.0</ele><time>2026-04-27T12:27:20Z</time></trkpt><trkpt lat="30.91438439537808" lon="-8.312945571827568"><ele>1850.0</ele><time>2026-04-27T12:27:21Z</time></trkpt><trkpt lat="30.914304585576332" lon="-8.313003094036763"><ele>1850.0</ele><time>2026-04-27T12:27:22Z</time></trkpt><trkpt lat="30.91420711926713" lon="-8.313052228309099"><ele>1853.8</ele><time>2026-04-27T12:27:23Z</time></trkpt><trkpt lat="30.914095542696572" lon="-8.313092679562372"><ele>1857.6</ele><time>2026-04-27T12:27:24Z</time></trkpt><trkpt lat="30.91397874724684" lon="-8.313125172701236"><ele>1861.4</ele><time>2026-04-27T12:27:25Z</time></trkpt><trkpt lat="30.913877464756013" lon="-8.313167195655259"><ele>1865.2</ele><time>2026-04-27T12:27:26Z</time></trkpt><trkpt lat="30.913795929510133" lon="-8.313243971038617"><ele>1869.0</ele><time>2026-04-27T12:27:27Z</time></trkpt><trkpt lat="30.913759977362417" lon="-8.313367258405094"><ele>1869.0</ele><time>2026-04-27T12:27:28Z</time></trkpt><trkpt lat="30.91369471640288" lon="-8.31349738917083"><ele>1869.0</ele><time>2026-04-27T12:27:29Z</time></trkpt><trkpt lat="30.91363792121313" lon="-8.313628166364749"><ele>1869.0</ele><time>2026-04-27T12:27:30Z</time></trkpt><trkpt lat="30.91355722655216" lon="-8.313739907986319"><ele>1869.0</ele><time>2026-04-27T12:27:31Z</time></trkpt><trkpt lat="30.913453225283668" lon="-8.313845403067372"><ele>1873.3333333333335</ele><time>2026-04-27T12:27:32Z</time></trkpt><trkpt lat="30.913332465683997" lon="-8.313963625757646"><ele>1877.6666666666667</ele><time>2026-04-27T12:27:33Z</time></trkpt><trkpt lat="30.913214211049755" lon="-8.314088747282346"><ele>1882.0</ele><time>2026-04-27T12:27:34Z</time></trkpt><trkpt lat="30.913083892026727" lon="-8.314235745399872"><ele>1882.0</ele><time>2026-04-27T12:27:35Z</time></trkpt><trkpt lat="30.91294450640549" lon="-8.314403914147206"><ele>1882.0</ele><time>2026-04-27T12:27:36Z</time></trkpt><trkpt lat="30.912823419011676" lon="-8.314547427938992"><ele>1882.0</ele><time>2026-04-27T12:27:37Z</time></trkpt><trkpt lat="30.91271318383541" lon="-8.314671494085692"><ele>1882.6666666666667</ele><time>2026-04-27T12:27:38Z</time></trkpt><trkpt lat="30.912594251965565" lon="-8.314801734586588"><ele>1883.3333333333335</ele><time>2026-04-27T12:27:39Z</time></trkpt><trkpt lat="30.91247529431485" lon="-8.314926275410574"><ele>1884.0</ele><time>2026-04-27T12:27:40Z</time></trkpt><trkpt lat="30.912359688892987" lon="-8.315020910517774"><ele>1889.0</ele><time>2026-04-27T12:27:41Z</time></trkpt><trkpt lat="30.912233520972947" lon="-8.315095187527138"><ele>1894.0</ele><time>2026-04-27T12:27:42Z</time></trkpt><trkpt lat="30.9121128572606" lon="-8.315145487766397"><ele>1899.0</ele><time>2026-04-27T12:27:43Z</time></trkpt><trkpt lat="30.91200985117557" lon="-8.315158989214675"><ele>1904.0</ele><time>2026-04-27T12:27:44Z</time></trkpt><trkpt lat="30.91192465347158" lon="-8.315141745793106"><ele>1904.0</ele><time>2026-04-27T12:27:45Z</time></trkpt><trkpt lat="30.911853110126664" lon="-8.31509397877354"><ele>1904.0</ele><time>2026-04-27T12:27:46Z</time></trkpt><trkpt lat="30.911796069513713" lon="-8.315017021367836"><ele>1904.0</ele><time>2026-04-27T12:27:47Z</time></trkpt><trkpt lat="30.91173870246788" lon="-8.314894923631241"><ele>1904.0</ele><time>2026-04-27T12:27:48Z</time></trkpt><trkpt lat="30.911637248706647" lon="-8.314783554248345"><ele>1904.0</ele><time>2026-04-27T12:27:49Z</time></trkpt><trkpt lat="30.911554763126933" lon="-8.31466858026832"><ele>1898.9999999999998</ele><time>2026-04-27T12:27:50Z</time></trkpt><trkpt lat="30.911478804867368" lon="-8.314622579309466"><ele>1894.0</ele><time>2026-04-27T12:27:51Z</time></trkpt><trkpt lat="30.91141673266149" lon="-8.314580299317829"><ele>1889.0</ele><time>2026-04-27T12:27:52Z</time></trkpt><trkpt lat="30.91134695989004" lon="-8.314592234991283"><ele>1884.0</ele><time>2026-04-27T12:27:53Z</time></trkpt><trkpt lat="30.911250409980347" lon="-8.314596871702776"><ele>1878.9999999999998</ele><time>2026-04-27T12:27:54Z</time></trkpt><trkpt lat="30.911176018774686" lon="-8.314634113996055"><ele>1874.0</ele><time>2026-04-27T12:27:55Z</time></trkpt><trkpt lat="30.91112130926298" lon="-8.314688896817563"><ele>1881.2</ele><time>2026-04-27T12:27:56Z</time></trkpt><trkpt lat="30.911082202412587" lon="-8.314752903673034"><ele>1888.4</ele><time>2026-04-27T12:27:57Z</time></trkpt><trkpt lat="30.911063351887147" lon="-8.314830077243641"><ele>1895.6</ele><time>2026-04-27T12:27:58Z</time></trkpt><trkpt lat="30.911098616494886" lon="-8.314927788732403"><ele>1902.8</ele><time>2026-04-27T12:27:59Z</time></trkpt><trkpt lat="30.91109266416709" lon="-8.315073489929825"><ele>1910.0</ele><time>2026-04-27T12:28:00Z</time></trkpt><trkpt lat="30.911068786069997" lon="-8.315240994127226"><ele>1910.0</ele><time>2026-04-27T12:28:01Z</time></trkpt><trkpt lat="30.911041072395104" lon="-8.315413990973935"><ele>1910.0</ele><time>2026-04-27T12:28:02Z</time></trkpt><trkpt lat="30.91099603061518" lon="-8.315589449816416"><ele>1910.0</ele><time>2026-04-27T12:28:03Z</time></trkpt><trkpt lat="30.910946752310497" lon="-8.31574413133637"><ele>1911.8</ele><time>2026-04-27T12:28:04Z</time></trkpt><trkpt lat="30.91089259412016" lon="-8.315858006915226"><ele>1913.6</ele><time>2026-04-27T12:28:05Z</time></trkpt><trkpt lat="30.91081607492485" lon="-8.315957793954803"><ele>1915.4</ele><time>2026-04-27T12:28:06Z</time></trkpt><trkpt lat="30.910740967323537" lon="-8.31605692729661"><ele>1917.2</ele><time>2026-04-27T12:28:07Z</time></trkpt><trkpt lat="30.910724156345577" lon="-8.316140408019592"><ele>1919.0</ele><time>2026-04-27T12:28:08Z</time></trkpt><trkpt lat="30.91072374805359" lon="-8.316228346527057"><ele>1919.0</ele><time>2026-04-27T12:28:09Z</time></trkpt><trkpt lat="30.910738041631717" lon="-8.316334686916631"><ele>1919.0</ele><time>2026-04-27T12:28:10Z</time></trkpt><trkpt lat="30.910757838572604" lon="-8.316483911059388"><ele>1919.0</ele><time>2026-04-27T12:28:11Z</time></trkpt><trkpt lat="30.91076890305462" lon="-8.316663905058327"><ele>1919.0</ele><time>2026-04-27T12:28:12Z</time></trkpt><trkpt lat="30.910748481403125" lon="-8.316849542560306"><ele>1925.6666666666665</ele><time>2026-04-27T12:28:13Z</time></trkpt><trkpt lat="30.910712059542018" lon="-8.31704406364436"><ele>1932.3333333333335</ele><time>2026-04-27T12:28:14Z</time></trkpt><trkpt lat="30.91068122212346" lon="-8.317245578279392"><ele>1939.0</ele><time>2026-04-27T12:28:15Z</time></trkpt><trkpt lat="30.910658600893658" lon="-8.317449983536704"><ele>1942.5</ele><time>2026-04-27T12:28:16Z</time></trkpt><trkpt lat="30.910636219034657" lon="-8.31762872661069"><ele>1946.0</ele><time>2026-04-27T12:28:17Z</time></trkpt><trkpt lat="30.91059807326686" lon="-8.31775753125442"><ele>1949.5</ele><time>2026-04-27T12:28:18Z</time></trkpt><trkpt lat="30.91048430093217" lon="-8.31784603328428"><ele>1953.0</ele><time>2026-04-27T12:28:19Z</time></trkpt><trkpt lat="30.910396116540007" lon="-8.317960093308487"><ele>1958.75</ele><time>2026-04-27T12:28:20Z</time></trkpt><trkpt lat="30.910287815321695" lon="-8.318075663871506"><ele>1964.5</ele><time>2026-04-27T12:28:21Z</time></trkpt><trkpt lat="30.910190230007053" lon="-8.318189078141728"><ele>1970.25</ele><time>2026-04-27T12:28:22Z</time></trkpt><trkpt lat="30.910134847869017" lon="-8.31827967532995"><ele>1976.0</ele><time>2026-04-27T12:28:23Z</time></trkpt><trkpt lat="30.910100137778976" lon="-8.318360147247384"><ele>1967.0</ele><time>2026-04-27T12:28:24Z</time></trkpt><trkpt lat="30.910074711950653" lon="-8.31849227001281"><ele>1958.0</ele><time>2026-04-27T12:28:25Z</time></trkpt><trkpt lat="30.910023522979422" lon="-8.318589852342647"><ele>1949.0</ele><time>2026-04-27T12:28:26Z</time></trkpt><trkpt lat="30.909934929175233" lon="-8.318644045319921"><ele>1940.0</ele><time>2026-04-27T12:28:27Z</time></trkpt><trkpt lat="30.909822936142913" lon="-8.318715744443763"><ele>1931.0</ele><time>2026-04-27T12:28:28Z</time></trkpt><trkpt lat="30.909713339416726" lon="-8.318831382581854"><ele>1943.0</ele><time>2026-04-27T12:28:29Z</time></trkpt><trkpt lat="30.909587014660705" lon="-8.318935850757338"><ele>1955.0</ele><time>2026-04-27T12:28:30Z</time></trkpt><trkpt lat="30.90950408209103" lon="-8.319048494584761"><ele>1967.0</ele><time>2026-04-27T12:28:31Z</time></trkpt><trkpt lat="30.909438047950918" lon="-8.31916057872606"><ele>1979.0</ele><time>2026-04-27T12:28:32Z</time></trkpt><trkpt lat="30.9093830551872" lon="-8.319283960878561"><ele>1979.0</ele><time>2026-04-27T12:28:33Z</time></trkpt><trkpt lat="30.9093506547484" lon="-8.31940468077273"><ele>1979.0</ele><time>2026-04-27T12:28:34Z</time></trkpt><trkpt lat="30.90934106525242" lon="-8.319540930333758"><ele>1979.0</ele><time>2026-04-27T12:28:35Z</time></trkpt><trkpt lat="30.90933624193741" lon="-8.319705389134683"><ele>1979.0</ele><time>2026-04-27T12:28:36Z</time></trkpt><trkpt lat="30.90933162031927" lon="-8.319885965915773"><ele>1984.75</ele><time>2026-04-27T12:28:37Z</time></trkpt><trkpt lat="30.909340781370815" lon="-8.320053136077522"><ele>1990.5</ele><time>2026-04-27T12:28:38Z</time></trkpt><trkpt lat="30.909340781367497" lon="-8.320198029584082"><ele>1996.25</ele><time>2026-04-27T12:28:39Z</time></trkpt><trkpt lat="30.909330654787812" lon="-8.320354911014583"><ele>2002.0</ele><time>2026-04-27T12:28:40Z</time></trkpt><trkpt lat="30.90930378060241" lon="-8.320522618261437"><ele>2004.3333333333335</ele><time>2026-04-27T12:28:41Z</time></trkpt><trkpt lat="30.909261720390322" lon="-8.320717651334341"><ele>2006.6666666666665</ele><time>2026-04-27T12:28:42Z</time></trkpt><trkpt lat="30.909201785876967" lon="-8.32090981950455"><ele>2009.0</ele><time>2026-04-27T12:28:43Z</time></trkpt><trkpt lat="30.90910604483646" lon="-8.321071498913964"><ele>2004.3333333333333</ele><time>2026-04-27T12:28:44Z</time></trkpt><trkpt lat="30.9090313843818" lon="-8.321244117687169"><ele>1999.6666666666665</ele><time>2026-04-27T12:28:45Z</time></trkpt><trkpt lat="30.908909843615383" lon="-8.321401117311327"><ele>1995.0</ele><time>2026-04-27T12:28:46Z</time></trkpt><trkpt lat="30.90879274868711" lon="-8.321555609831336"><ele>1995.0</ele><time>2026-04-27T12:28:47Z</time></trkpt><trkpt lat="30.9086586995765" lon="-8.321686671975128"><ele>1995.0</ele><time>2026-04-27T12:28:48Z</time></trkpt><trkpt lat="30.908506165356165" lon="-8.321814041658277"><ele>1995.0</ele><time>2026-04-27T12:28:49Z</time></trkpt><trkpt lat="30.908374651333503" lon="-8.321922148550575"><ele>1993.25</ele><time>2026-04-27T12:28:50Z</time></trkpt><trkpt lat="30.908287856240968" lon="-8.322027572520982"><ele>1991.5</ele><time>2026-04-27T12:28:51Z</time></trkpt><trkpt lat="30.908213350463953" lon="-8.322155221197312"><ele>1989.75</ele><time>2026-04-27T12:28:52Z</time></trkpt><trkpt lat="30.908113630887833" lon="-8.322281377644131"><ele>1988.0</ele><time>2026-04-27T12:28:53Z</time></trkpt><trkpt lat="30.90797759281345" lon="-8.322389789797136"><ele>1988.0</ele><time>2026-04-27T12:28:54Z</time></trkpt><trkpt lat="30.907857557082618" lon="-8.322476458661436"><ele>1988.0000000000002</ele><time>2026-04-27T12:28:55Z</time></trkpt><trkpt lat="30.90778762538564" lon="-8.322545866904418"><ele>1988.0000000000002</ele><time>2026-04-27T12:28:56Z</time></trkpt><trkpt lat="30.90774942996412" lon="-8.322623444193818"><ele>1988.0</ele><time>2026-04-27T12:28:57Z</time></trkpt><trkpt lat="30.90773249454437" lon="-8.32273847810126"><ele>1988.0</ele><time>2026-04-27T12:28:58Z</time></trkpt><trkpt lat="30.90772026331046" lon="-8.322891338635449"><ele>1988.0</ele><time>2026-04-27T12:28:59Z</time></trkpt><trkpt lat="30.907696904010816" lon="-8.323059561712565"><ele>1988.0</ele><time>2026-04-27T12:29:00Z</time></trkpt><trkpt lat="30.9076361184164" lon="-8.32323573142538"><ele>1988.0</ele><time>2026-04-27T12:29:01Z</time></trkpt><trkpt lat="30.907544132892543" lon="-8.323418983417307"><ele>1983.3333333333333</ele><time>2026-04-27T12:29:02Z</time></trkpt><trkpt lat="30.907424481938463" lon="-8.323599317275765"><ele>1978.6666666666665</ele><time>2026-04-27T12:29:03Z</time></trkpt><trkpt lat="30.907304551646273" lon="-8.323752906040312"><ele>1974.0</ele><time>2026-04-27T12:29:04Z</time></trkpt><trkpt lat="30.90721918581323" lon="-8.323867399440006"><ele>1981.0</ele><time>2026-04-27T12:29:05Z</time></trkpt><trkpt lat="30.90715664495889" lon="-8.323983288782076"><ele>1988.0</ele><time>2026-04-27T12:29:06Z</time></trkpt><trkpt lat="30.90711707059653" lon="-8.324135983372546"><ele>1995.0</ele><time>2026-04-27T12:29:07Z</time></trkpt><trkpt lat="30.907085747171294" lon="-8.32433110874907"><ele>2002.0</ele><time>2026-04-27T12:29:08Z</time></trkpt><trkpt lat="30.90704673822494" lon="-8.32453086557"><ele>2002.0</ele><time>2026-04-27T12:29:09Z</time></trkpt><trkpt lat="30.906990159281566" lon="-8.324688779552732"><ele>2002.0</ele><time>2026-04-27T12:29:10Z</time></trkpt><trkpt lat="30.906930301134906" lon="-8.324821108911346"><ele>2002.0</ele><time>2026-04-27T12:29:11Z</time></trkpt><trkpt lat="30.9068598052018" lon="-8.324919562136046"><ele>2002.0</ele><time>2026-04-27T12:29:12Z</time></trkpt><trkpt lat="30.90677075818945" lon="-8.324984313444576"><ele>1998.5</ele><time>2026-04-27T12:29:13Z</time></trkpt><trkpt lat="30.90664897799339" lon="-8.325032804796761"><ele>1995.0</ele><time>2026-04-27T12:29:14Z</time></trkpt><trkpt lat="30.90650989135544" lon="-8.325071082488796"><ele>1991.5</ele><time>2026-04-27T12:29:15Z</time></trkpt><trkpt lat="30.906391727850185" lon="-8.325116611123677"><ele>1988.0</ele><time>2026-04-27T12:29:16Z</time></trkpt><trkpt lat="30.906308340962205" lon="-8.325189103409325"><ele>1988.0</ele><time>2026-04-27T12:29:17Z</time></trkpt><trkpt lat="30.906245287333228" lon="-8.325283228084926"><ele>1988.0</ele><time>2026-04-27T12:29:18Z</time></trkpt><trkpt lat="30.90619622624489" lon="-8.325398736268033"><ele>1988.0</ele><time>2026-04-27T12:29:19Z</time></trkpt><trkpt lat="30.906152052775433" lon="-8.32554016441849"><ele>1988.0</ele><time>2026-04-27T12:29:20Z</time></trkpt><trkpt lat="30.906102409420328" lon="-8.325689794567134"><ele>1986.0</ele><time>2026-04-27T12:29:21Z</time></trkpt><trkpt lat="30.90607461066082" lon="-8.325845323335873"><ele>1984.0</ele><time>2026-04-27T12:29:22Z</time></trkpt><trkpt lat="30.906003963710976" lon="-8.325989624550518"><ele>1982.0</ele><time>2026-04-27T12:29:23Z</time></trkpt><trkpt lat="30.905919026054285" lon="-8.326143088863224"><ele>1980.0</ele><time>2026-04-27T12:29:24Z</time></trkpt><trkpt lat="30.905837495343683" lon="-8.326309951778656"><ele>1986.5</ele><time>2026-04-27T12:29:25Z</time></trkpt><trkpt lat="30.90577372811345" lon="-8.32645151468841"><ele>1993.0</ele><time>2026-04-27T12:29:26Z</time></trkpt><trkpt lat="30.90570554640413" lon="-8.326565654099419"><ele>1999.5</ele><time>2026-04-27T12:29:27Z</time></trkpt><trkpt lat="30.905611183797618" lon="-8.326657970571853"><ele>2006.0</ele><time>2026-04-27T12:29:28Z</time></trkpt><trkpt lat="30.905504831651275" lon="-8.326718999712693"><ele>2006.0</ele><time>2026-04-27T12:29:29Z</time></trkpt><trkpt lat="30.90540113949901" lon="-8.326740767624807"><ele>2006.0</ele><time>2026-04-27T12:29:30Z</time></trkpt><trkpt lat="30.905289444220607" lon="-8.326723971980924"><ele>2006.0</ele><time>2026-04-27T12:29:31Z</time></trkpt><trkpt lat="30.90514604939539" lon="-8.326674064984605"><ele>2006.0</ele><time>2026-04-27T12:29:32Z</time></trkpt><trkpt lat="30.905021366464265" lon="-8.326632249807611"><ele>2004.0</ele><time>2026-04-27T12:29:33Z</time></trkpt><trkpt lat="30.904928389875256" lon="-8.326630610469566"><ele>2002.0</ele><time>2026-04-27T12:29:34Z</time></trkpt><trkpt lat="30.904838757855625" lon="-8.32665926825685"><ele>2000.0</ele><time>2026-04-27T12:29:35Z</time></trkpt><trkpt lat="30.90471763907913" lon="-8.326719219725053"><ele>1998.0</ele><time>2026-04-27T12:29:36Z</time></trkpt><trkpt lat="30.904580101923845" lon="-8.32677909252063"><ele>1998.0</ele><time>2026-04-27T12:29:37Z</time></trkpt><trkpt lat="30.904440403434258" lon="-8.326797977435236"><ele>1998.0</ele><time>2026-04-27T12:29:38Z</time></trkpt><trkpt lat="30.90429958888522" lon="-8.326783664611233"><ele>1998.0</ele><time>2026-04-27T12:29:39Z</time></trkpt><trkpt lat="30.904182609349185" lon="-8.326749119327646"><ele>1998.0</ele><time>2026-04-27T12:29:40Z</time></trkpt><trkpt lat="30.90409783726491" lon="-8.326700067935844"><ele>1997.0</ele><time>2026-04-27T12:29:41Z</time></trkpt><trkpt lat="30.904041565035513" lon="-8.32662946094338"><ele>1996.0000000000002</ele><time>2026-04-27T12:29:42Z</time></trkpt><trkpt lat="30.903995468542224" lon="-8.326557287466892"><ele>1995.0000000000002</ele><time>2026-04-27T12:29:43Z</time></trkpt><trkpt lat="30.903980157381714" lon="-8.3264296428295"><ele>1994.0</ele><time>2026-04-27T12:29:44Z</time></trkpt><trkpt lat="30.903995732913987" lon="-8.326265859028307"><ele>1993.0</ele><time>2026-04-27T12:29:45Z</time></trkpt><trkpt lat="30.903992577270085" lon="-8.32611489209251"><ele>1993.0</ele><time>2026-04-27T12:29:46Z</time></trkpt><trkpt lat="30.903932117751825" lon="-8.326042834226701"><ele>1993.0000000000002</ele><time>2026-04-27T12:29:47Z</time></trkpt><trkpt lat="30.903866173771394" lon="-8.326019102522965"><ele>1993.0000000000002</ele><time>2026-04-27T12:29:48Z</time></trkpt><trkpt lat="30.903781499243063" lon="-8.326014106373195"><ele>1993.0</ele><time>2026-04-27T12:29:49Z</time></trkpt><trkpt lat="30.903662622942875" lon="-8.325955961822542"><ele>1993.0</ele><time>2026-04-27T12:29:50Z</time></trkpt><trkpt lat="30.903543321595457" lon="-8.325929385939315"><ele>1993.0</ele><time>2026-04-27T12:29:51Z</time></trkpt><trkpt lat="30.90341760843842" lon="-8.325934663761137"><ele>1993.0</ele><time>2026-04-27T12:29:52Z</time></trkpt><trkpt lat="30.903270384415784" lon="-8.325979137888252"><ele>1993.0</ele><time>2026-04-27T12:29:53Z</time></trkpt><trkpt lat="30.90311243773703" lon="-8.326045189768713"><ele>1993.0</ele><time>2026-04-27T12:29:54Z</time></trkpt><trkpt lat="30.902957753409225" lon="-8.32612835419999"><ele>1997.6666666666667</ele><time>2026-04-27T12:29:55Z</time></trkpt><trkpt lat="30.902826095168535" lon="-8.326179530898774"><ele>2002.3333333333335</ele><time>2026-04-27T12:29:56Z</time></trkpt><trkpt lat="30.90265679847757" lon="-8.326164370986998"><ele>2007.0</ele><time>2026-04-27T12:29:57Z</time></trkpt><trkpt lat="30.902472665978646" lon="-8.326128428007138"><ele>2008.0</ele><time>2026-04-27T12:29:58Z</time></trkpt><trkpt lat="30.902275147724694" lon="-8.32609233969913"><ele>2009.0</ele><time>2026-04-27T12:29:59Z</time></trkpt><trkpt lat="30.902099889856654" lon="-8.326021092955555"><ele>2010.0</ele><time>2026-04-27T12:30:00Z</time></trkpt><trkpt lat="30.901962166611586" lon="-8.325993342513893"><ele>2010.0</ele><time>2026-04-27T12:30:01Z</time></trkpt><trkpt lat="30.901856242750316" lon="-8.325946314273809"><ele>2010.0</ele><time>2026-04-27T12:30:02Z</time></trkpt><trkpt lat="30.901774892145177" lon="-8.325885094346992"><ele>2010.0</ele><time>2026-04-27T12:30:03Z</time></trkpt><trkpt lat="30.901719242423933" lon="-8.32582244302483"><ele>2010.0</ele><time>2026-04-27T12:30:04Z</time></trkpt><trkpt lat="30.901642566534907" lon="-8.325776129054645"><ele>2010.0</ele><time>2026-04-27T12:30:06Z</time></trkpt><trkpt lat="30.901590390738754" lon="-8.325721768464806"><ele>2010.0</ele><time>2026-04-27T12:30:10Z</time></trkpt><trkpt lat="30.90172319876729" lon="-8.32547815740076"><ele>2011.0</ele><time>2026-04-27T12:30:11Z</time></trkpt><trkpt lat="30.901739559005435" lon="-8.3254009614929"><ele>2012.0</ele><time>2026-04-27T12:30:15Z</time></trkpt><trkpt lat="30.901802294363097" lon="-8.325426923771396"><ele>2013.0</ele><time>2026-04-27T12:30:20Z</time></trkpt><trkpt lat="30.90174630679203" lon="-8.325519843816345"><ele>2014.0</ele><time>2026-04-27T12:36:04Z</time></trkpt><trkpt lat="30.90168734225079" lon="-8.32559243400113"><ele>2015.0</ele><time>2026-04-27T12:36:05Z</time></trkpt><trkpt lat="30.901612043749573" lon="-8.32567711181541"><ele>2016.0</ele><time>2026-04-27T12:36:06Z</time></trkpt><trkpt lat="30.901543170150024" lon="-8.32578490119127"><ele>2017.5</ele><time>2026-04-27T12:36:07Z</time></trkpt><trkpt lat="30.901467140267037" lon="-8.3258866267975"><ele>2019.0</ele><time>2026-04-27T12:36:08Z</time></trkpt><trkpt lat="30.90139453366815" lon="-8.325988933658609"><ele>2020.5</ele><time>2026-04-27T12:36:09Z</time></trkpt><trkpt lat="30.90131530909843" lon="-8.326108298656553"><ele>2022.0</ele><time>2026-04-27T12:36:10Z</time></trkpt><trkpt lat="30.901291777303108" lon="-8.326252692350462"><ele>2026.6666666666665</ele><time>2026-04-27T12:36:11Z</time></trkpt><trkpt lat="30.901252357552785" lon="-8.32641648507395"><ele>2031.3333333333333</ele><time>2026-04-27T12:36:12Z</time></trkpt><trkpt lat="30.90123612357841" lon="-8.32659964152721"><ele>2036.0</ele><time>2026-04-27T12:36:13Z</time></trkpt><trkpt lat="30.90122461448193" lon="-8.326794374831746"><ele>2036.0</ele><time>2026-04-27T12:36:14Z</time></trkpt><trkpt lat="30.90119341411032" lon="-8.32695985464894"><ele>2036.0</ele><time>2026-04-27T12:36:15Z</time></trkpt><trkpt lat="30.90118997681005" lon="-8.327098053650204"><ele>2036.0</ele><time>2026-04-27T12:36:16Z</time></trkpt><trkpt lat="30.901098048814767" lon="-8.327214564775595"><ele>2036.0</ele><time>2026-04-27T12:36:17Z</time></trkpt><trkpt lat="30.90096303983138" lon="-8.327303782334361"><ele>2033.6666666666665</ele><time>2026-04-27T12:36:18Z</time></trkpt><trkpt lat="30.90081341969376" lon="-8.327408727509095"><ele>2031.3333333333335</ele><time>2026-04-27T12:36:19Z</time></trkpt><trkpt lat="30.90067773182618" lon="-8.327556344249272"><ele>2029.0</ele><time>2026-04-27T12:36:20Z</time></trkpt><trkpt lat="30.900543028960605" lon="-8.327714467887686"><ele>2029.0</ele><time>2026-04-27T12:36:21Z</time></trkpt><trkpt lat="30.900413995674064" lon="-8.327880823305437"><ele>2029.0</ele><time>2026-04-27T12:36:22Z</time></trkpt><trkpt lat="30.900280377601145" lon="-8.328028127408814"><ele>2029.0</ele><time>2026-04-27T12:36:23Z</time></trkpt><trkpt lat="30.90017008674836" lon="-8.328181935711608"><ele>2029.75</ele><time>2026-04-27T12:36:24Z</time></trkpt><trkpt lat="30.900082707497774" lon="-8.328303294782454"><ele>2030.5</ele><time>2026-04-27T12:36:25Z</time></trkpt><trkpt lat="30.90001854266239" lon="-8.328426031234486"><ele>2031.25</ele><time>2026-04-27T12:36:26Z</time></trkpt><trkpt lat="30.89997378618091" lon="-8.328595306740631"><ele>2032.0</ele><time>2026-04-27T12:36:27Z</time></trkpt><trkpt lat="30.89995441038392" lon="-8.328808249345867"><ele>2036.0</ele><time>2026-04-27T12:36:28Z</time></trkpt><trkpt lat="30.89993817239741" lon="-8.329034928808953"><ele>2040.0</ele><time>2026-04-27T12:36:29Z</time></trkpt><trkpt lat="30.899917197588902" lon="-8.329252454528802"><ele>2044.0</ele><time>2026-04-27T12:36:30Z</time></trkpt><trkpt lat="30.899908953232046" lon="-8.329440637940738"><ele>2044.0</ele><time>2026-04-27T12:36:31Z</time></trkpt><trkpt lat="30.899920462513787" lon="-8.329603067730824"><ele>2044.0</ele><time>2026-04-27T12:36:32Z</time></trkpt><trkpt lat="30.899991923084247" lon="-8.329746007255746"><ele>2044.0</ele><time>2026-04-27T12:36:33Z</time></trkpt><trkpt lat="30.899990279570314" lon="-8.329870167932423"><ele>2044.0</ele><time>2026-04-27T12:36:34Z</time></trkpt><trkpt lat="30.899981856028806" lon="-8.329988652925381"><ele>2045.75</ele><time>2026-04-27T12:36:35Z</time></trkpt><trkpt lat="30.899891321223098" lon="-8.33010251076743"><ele>2047.5</ele><time>2026-04-27T12:36:36Z</time></trkpt><trkpt lat="30.899791695541335" lon="-8.330221430108821"><ele>2049.25</ele><time>2026-04-27T12:36:37Z</time></trkpt><trkpt lat="30.8996706432798" lon="-8.33036115858085"><ele>2051.0</ele><time>2026-04-27T12:36:38Z</time></trkpt><trkpt lat="30.89956530673575" lon="-8.330507035938648"><ele>2050.0</ele><time>2026-04-27T12:36:39Z</time></trkpt><trkpt lat="30.899438353871112" lon="-8.33065765531767"><ele>2049.0</ele><time>2026-04-27T12:36:40Z</time></trkpt><trkpt lat="30.899323556279267" lon="-8.330795531980295"><ele>2048.0</ele><time>2026-04-27T12:36:41Z</time></trkpt><trkpt lat="30.89923603631222" lon="-8.330940359651724"><ele>2048.0</ele><time>2026-04-27T12:36:42Z</time></trkpt><trkpt lat="30.89915211861311" lon="-8.331087176907756"><ele>2048.0</ele><time>2026-04-27T12:36:43Z</time></trkpt><trkpt lat="30.89907175606766" lon="-8.331259476844158"><ele>2048.0</ele><time>2026-04-27T12:36:44Z</time></trkpt><trkpt lat="30.899041029287925" lon="-8.331486789349348"><ele>2052.333333333333</ele><time>2026-04-27T12:36:45Z</time></trkpt><trkpt lat="30.89897840082037" lon="-8.331718083412866"><ele>2056.6666666666665</ele><time>2026-04-27T12:36:46Z</time></trkpt><trkpt lat="30.898965573702885" lon="-8.331951673674412"><ele>2061.0</ele><time>2026-04-27T12:36:47Z</time></trkpt><trkpt lat="30.898904897345442" lon="-8.332180738306787"><ele>2067.3333333333335</ele><time>2026-04-27T12:36:48Z</time></trkpt><trkpt lat="30.898823641880846" lon="-8.332416056043606"><ele>2073.666666666667</ele><time>2026-04-27T12:36:49Z</time></trkpt><trkpt lat="30.89871306843397" lon="-8.33264976696067"><ele>2080.0</ele><time>2026-04-27T12:36:50Z</time></trkpt><trkpt lat="30.898635298364056" lon="-8.33286383771901"><ele>2080.0</ele><time>2026-04-27T12:36:51Z</time></trkpt><trkpt lat="30.89860357207041" lon="-8.333055408363773"><ele>2080.0</ele><time>2026-04-27T12:36:52Z</time></trkpt><trkpt lat="30.898574090476632" lon="-8.333285702442376"><ele>2080.0</ele><time>2026-04-27T12:36:53Z</time></trkpt><trkpt lat="30.898530173484925" lon="-8.333522571184204"><ele>2078.666666666667</ele><time>2026-04-27T12:36:54Z</time></trkpt><trkpt lat="30.898483244412052" lon="-8.333755238967546"><ele>2077.3333333333335</ele><time>2026-04-27T12:36:55Z</time></trkpt><trkpt lat="30.898409910857595" lon="-8.333998023750208"><ele>2076.0</ele><time>2026-04-27T12:36:56Z</time></trkpt><trkpt lat="30.898299165460752" lon="-8.33421220561538"><ele>2076.0</ele><time>2026-04-27T12:36:57Z</time></trkpt><trkpt lat="30.898182761528105" lon="-8.334441606774414"><ele>2076.0</ele><time>2026-04-27T12:36:58Z</time></trkpt><trkpt lat="30.89807370166331" lon="-8.334694171184044"><ele>2078.6666666666665</ele><time>2026-04-27T12:36:59Z</time></trkpt><trkpt lat="30.897949687996395" lon="-8.334915891860751"><ele>2081.333333333333</ele><time>2026-04-27T12:37:00Z</time></trkpt><trkpt lat="30.897881419723547" lon="-8.335145107427486"><ele>2084.0</ele><time>2026-04-27T12:37:01Z</time></trkpt><trkpt lat="30.89781822024192" lon="-8.335355711651275"><ele>2084.0</ele><time>2026-04-27T12:37:02Z</time></trkpt><trkpt lat="30.89774086813237" lon="-8.335549324821965"><ele>2084.0</ele><time>2026-04-27T12:37:03Z</time></trkpt><trkpt lat="30.897650534695998" lon="-8.335721423283227"><ele>2084.0</ele><time>2026-04-27T12:37:04Z</time></trkpt><trkpt lat="30.897549970448594" lon="-8.335894071111293"><ele>2082.6666666666665</ele><time>2026-04-27T12:37:05Z</time></trkpt><trkpt lat="30.897428265336522" lon="-8.336047381210983"><ele>2081.3333333333335</ele><time>2026-04-27T12:37:06Z</time></trkpt><trkpt lat="30.897289337854833" lon="-8.33617290382486"><ele>2080.0</ele><time>2026-04-27T12:37:07Z</time></trkpt><trkpt lat="30.897137997309592" lon="-8.336275645328813"><ele>2080.0</ele><time>2026-04-27T12:37:08Z</time></trkpt><trkpt lat="30.897011308136985" lon="-8.33638612299039"><ele>2080.0</ele><time>2026-04-27T12:37:09Z</time></trkpt><trkpt lat="30.896904613768672" lon="-8.336470135014968"><ele>2080.0</ele><time>2026-04-27T12:37:10Z</time></trkpt><trkpt lat="30.896840438866832" lon="-8.336581890359032"><ele>2080.0</ele><time>2026-04-27T12:37:11Z</time></trkpt><trkpt lat="30.896792166474278" lon="-8.336721889256744"><ele>2081.25</ele><time>2026-04-27T12:37:12Z</time></trkpt><trkpt lat="30.89674669302041" lon="-8.336887909654472"><ele>2082.5</ele><time>2026-04-27T12:37:13Z</time></trkpt><trkpt lat="30.896688088182685" lon="-8.337042069371373"><ele>2083.75</ele><time>2026-04-27T12:37:14Z</time></trkpt><trkpt lat="30.89664432956863" lon="-8.337181638995446"><ele>2085.0</ele><time>2026-04-27T12:37:15Z</time></trkpt><trkpt lat="30.896572597329353" lon="-8.337297234255045"><ele>2086.5</ele><time>2026-04-27T12:37:16Z</time></trkpt><trkpt lat="30.89647878333545" lon="-8.337397131055026"><ele>2088.0</ele><time>2026-04-27T12:37:17Z</time></trkpt><trkpt lat="30.896368044341806" lon="-8.337484826938619"><ele>2089.5</ele><time>2026-04-27T12:37:18Z</time></trkpt><trkpt lat="30.896248360047032" lon="-8.337592159708247"><ele>2091.0</ele><time>2026-04-27T12:37:19Z</time></trkpt><trkpt lat="30.89612704897568" lon="-8.337696295886339"><ele>2091.0</ele><time>2026-04-27T12:37:20Z</time></trkpt><trkpt lat="30.896024311417264" lon="-8.337796524020847"><ele>2091.0</ele><time>2026-04-27T12:37:21Z</time></trkpt><trkpt lat="30.89590873326062" lon="-8.337901762688094"><ele>2091.0</ele><time>2026-04-27T12:37:22Z</time></trkpt><trkpt lat="30.89579993857138" lon="-8.33800472664539"><ele>2091.0</ele><time>2026-04-27T12:37:23Z</time></trkpt><trkpt lat="30.89570308068912" lon="-8.338101714490609"><ele>2089.3333333333335</ele><time>2026-04-27T12:37:24Z</time></trkpt><trkpt lat="30.89563912167345" lon="-8.338217199703873"><ele>2087.6666666666665</ele><time>2026-04-27T12:37:25Z</time></trkpt><trkpt lat="30.895566872086427" lon="-8.338286603357343"><ele>2086.0</ele><time>2026-04-27T12:37:26Z</time></trkpt><trkpt lat="30.895502993028252" lon="-8.338336844695654"><ele>2084.333333333333</ele><time>2026-04-27T12:37:27Z</time></trkpt><trkpt lat="30.895457598697906" lon="-8.338409081817723"><ele>2082.6666666666665</ele><time>2026-04-27T12:37:28Z</time></trkpt><trkpt lat="30.89542490216386" lon="-8.338495588899194"><ele>2081.0</ele><time>2026-04-27T12:37:29Z</time></trkpt><trkpt lat="30.895393299544146" lon="-8.338582034179595"><ele>2081.0</ele><time>2026-04-27T12:37:30Z</time></trkpt><trkpt lat="30.89535131926574" lon="-8.338657104016177"><ele>2081.0</ele><time>2026-04-27T12:37:31Z</time></trkpt><trkpt lat="30.895319810719673" lon="-8.338733442194698"><ele>2081.0</ele><time>2026-04-27T12:37:32Z</time></trkpt><trkpt lat="30.89527696102165" lon="-8.338813188272066"><ele>2081.0</ele><time>2026-04-27T12:37:33Z</time></trkpt><trkpt lat="30.89523370640983" lon="-8.338893687918459"><ele>2081.0</ele><time>2026-04-27T12:37:34Z</time></trkpt><trkpt lat="30.895053628025508" lon="-8.338879970994629"><ele>2079.4</ele><time>2026-04-27T12:37:35Z</time></trkpt><trkpt lat="30.89499006203507" lon="-8.338923010588376"><ele>2077.8</ele><time>2026-04-27T12:37:36Z</time></trkpt><trkpt lat="30.894912519079636" lon="-8.33893838181322"><ele>2076.2000000000003</ele><time>2026-04-27T12:37:38Z</time></trkpt><trkpt lat="30.894813647751644" lon="-8.33884439145029"><ele>2074.6</ele><time>2026-04-27T12:37:40Z</time></trkpt><trkpt lat="30.894744909101995" lon="-8.338751313833841"><ele>2073.0</ele><time>2026-04-27T12:37:41Z</time></trkpt><trkpt lat="30.894654067195564" lon="-8.338638490099138"><ele>2078.4</ele><time>2026-04-27T12:37:42Z</time></trkpt><trkpt lat="30.894582182715983" lon="-8.338538589194215"><ele>2083.8</ele><time>2026-04-27T12:37:43Z</time></trkpt><trkpt lat="30.89451842289113" lon="-8.338469492987702"><ele>2089.2</ele><time>2026-04-27T12:37:44Z</time></trkpt><trkpt lat="30.894452879980374" lon="-8.338415130360147"><ele>2094.6</ele><time>2026-04-27T12:37:45Z</time></trkpt><trkpt lat="30.89437047718581" lon="-8.338364496500336"><ele>2100.0</ele><time>2026-04-27T12:37:46Z</time></trkpt><trkpt lat="30.894287418390128" lon="-8.33832372763335"><ele>2098.0</ele><time>2026-04-27T12:37:47Z</time></trkpt><trkpt lat="30.894218514449808" lon="-8.338299310838906"><ele>2096.0</ele><time>2026-04-27T12:37:48Z</time></trkpt><trkpt lat="30.894146496449448" lon="-8.338289409405792"><ele>2094.0</ele><time>2026-04-27T12:37:49Z</time></trkpt><trkpt lat="30.89406050921502" lon="-8.33828305449308"><ele>2092.0</ele><time>2026-04-27T12:37:50Z</time></trkpt><trkpt lat="30.893973073177094" lon="-8.33828317750226"><ele>2090.0</ele><time>2026-04-27T12:37:51Z</time></trkpt><trkpt lat="30.893897741136996" lon="-8.33829176907435"><ele>2088.0</ele><time>2026-04-27T12:37:52Z</time></trkpt><trkpt lat="30.893800024219477" lon="-8.338370949523481"><ele>2088.0</ele><time>2026-04-27T12:37:54Z</time></trkpt><trkpt lat="30.893731619648538" lon="-8.338461715288208"><ele>2088.0</ele><time>2026-04-27T12:37:55Z</time></trkpt><trkpt lat="30.893651238204402" lon="-8.338594604051853"><ele>2088.0</ele><time>2026-04-27T12:37:56Z</time></trkpt><trkpt lat="30.893549783173004" lon="-8.338757393597326"><ele>2088.0</ele><time>2026-04-27T12:37:57Z</time></trkpt><trkpt lat="30.89344405842042" lon="-8.338942742696684"><ele>2089.5</ele><time>2026-04-27T12:37:58Z</time></trkpt><trkpt lat="30.893349836497983" lon="-8.33909679833017"><ele>2091.0</ele><time>2026-04-27T12:37:59Z</time></trkpt><trkpt lat="30.893252577419457" lon="-8.339206010285727"><ele>2092.5</ele><time>2026-04-27T12:38:00Z</time></trkpt><trkpt lat="30.893144103551055" lon="-8.339302982960723"><ele>2094.0</ele><time>2026-04-27T12:38:01Z</time></trkpt><trkpt lat="30.89303602016604" lon="-8.339397707343922"><ele>2094.0</ele><time>2026-04-27T12:38:02Z</time></trkpt><trkpt lat="30.892936019179036" lon="-8.339503888176319"><ele>2094.0</ele><time>2026-04-27T12:38:03Z</time></trkpt><trkpt lat="30.892856942779595" lon="-8.339621439506303"><ele>2094.0</ele><time>2026-04-27T12:38:04Z</time></trkpt><trkpt lat="30.892807646219246" lon="-8.339751631658672"><ele>2094.0</ele><time>2026-04-27T12:38:05Z</time></trkpt><trkpt lat="30.892771092670138" lon="-8.339887530956736"><ele>2099.75</ele><time>2026-04-27T12:38:06Z</time></trkpt><trkpt lat="30.89272103225341" lon="-8.340032053398696"><ele>2105.5</ele><time>2026-04-27T12:38:07Z</time></trkpt><trkpt lat="30.892659671646285" lon="-8.340161993851115"><ele>2111.25</ele><time>2026-04-27T12:38:08Z</time></trkpt><trkpt lat="30.892580095841527" lon="-8.34028185667646"><ele>2117.0</ele><time>2026-04-27T12:38:09Z</time></trkpt><trkpt lat="30.892481918794694" lon="-8.340406418740052"><ele>2117.0</ele><time>2026-04-27T12:38:10Z</time></trkpt><trkpt lat="30.89235744208857" lon="-8.340531468719702"><ele>2117.0</ele><time>2026-04-27T12:38:11Z</time></trkpt><trkpt lat="30.89220305499139" lon="-8.340669278714046"><ele>2117.0</ele><time>2026-04-27T12:38:12Z</time></trkpt><trkpt lat="30.89205665968753" lon="-8.340809676023774"><ele>2106.75</ele><time>2026-04-27T12:38:13Z</time></trkpt><trkpt lat="30.891946780344686" lon="-8.340957447618674"><ele>2096.5</ele><time>2026-04-27T12:38:14Z</time></trkpt><trkpt lat="30.89186836871948" lon="-8.34108863746802"><ele>2086.25</ele><time>2026-04-27T12:38:15Z</time></trkpt><trkpt lat="30.891818548559726" lon="-8.341208329204663"><ele>2076.0</ele><time>2026-04-27T12:38:16Z</time></trkpt><trkpt lat="30.891786927056742" lon="-8.341341072482557"><ele>2069.0</ele><time>2026-04-27T12:38:17Z</time></trkpt><trkpt lat="30.891768183907686" lon="-8.34150108208988"><ele>2062.0</ele><time>2026-04-27T12:38:18Z</time></trkpt><trkpt lat="30.891751139943683" lon="-8.341674109372056"><ele>2055.0</ele><time>2026-04-27T12:38:19Z</time></trkpt><trkpt lat="30.891719222692327" lon="-8.341842115296224"><ele>2048.0</ele><time>2026-04-27T12:38:20Z</time></trkpt><trkpt lat="30.89166457049012" lon="-8.341991752751946"><ele>2064.0</ele><time>2026-04-27T12:38:21Z</time></trkpt><trkpt lat="30.891594129687345" lon="-8.342158194104472"><ele>2080.0</ele><time>2026-04-27T12:38:22Z</time></trkpt><trkpt lat="30.891507676952035" lon="-8.342341403221143"><ele>2096.0</ele><time>2026-04-27T12:38:23Z</time></trkpt><trkpt lat="30.891410191360475" lon="-8.342546121291132"><ele>2096.0</ele><time>2026-04-27T12:38:24Z</time></trkpt><trkpt lat="30.89131681570319" lon="-8.342758817280213"><ele>2096.0</ele><time>2026-04-27T12:38:25Z</time></trkpt><trkpt lat="30.891245799536193" lon="-8.34295052086807"><ele>2096.0</ele><time>2026-04-27T12:38:26Z</time></trkpt><trkpt lat="30.89119173073209" lon="-8.34315790019874"><ele>2090.5</ele><time>2026-04-27T12:38:27Z</time></trkpt><trkpt lat="30.89115459957735" lon="-8.343346340178355"><ele>2085.0</ele><time>2026-04-27T12:38:28Z</time></trkpt><trkpt lat="30.891120797347266" lon="-8.343505102939911"><ele>2079.5</ele><time>2026-04-27T12:38:29Z</time></trkpt><trkpt lat="30.891081815398003" lon="-8.3436510922132"><ele>2074.0</ele><time>2026-04-27T12:38:30Z</time></trkpt><trkpt lat="30.89103764769692" lon="-8.34378759854368"><ele>2072.75</ele><time>2026-04-27T12:38:31Z</time></trkpt><trkpt lat="30.89097847490171" lon="-8.343917176149596"><ele>2071.5</ele><time>2026-04-27T12:38:32Z</time></trkpt><trkpt lat="30.89090099523463" lon="-8.344023429519545"><ele>2070.25</ele><time>2026-04-27T12:38:33Z</time></trkpt><trkpt lat="30.890787896714475" lon="-8.344135190843264"><ele>2069.0</ele><time>2026-04-27T12:38:34Z</time></trkpt><trkpt lat="30.890656428521257" lon="-8.344230731672665"><ele>2079.0</ele><time>2026-04-27T12:38:35Z</time></trkpt><trkpt lat="30.890556195684717" lon="-8.344314192230161"><ele>2089.0</ele><time>2026-04-27T12:38:36Z</time></trkpt><trkpt lat="30.89048175218762" lon="-8.34441266928671"><ele>2099.0</ele><time>2026-04-27T12:38:37Z</time></trkpt><trkpt lat="30.890434957951115" lon="-8.344530262739521"><ele>2109.0</ele><time>2026-04-27T12:38:38Z</time></trkpt><trkpt lat="30.890399675462998" lon="-8.344684115616191"><ele>2104.0</ele><time>2026-04-27T12:38:39Z</time></trkpt><trkpt lat="30.89037467400305" lon="-8.344876773673455"><ele>2099.0</ele><time>2026-04-27T12:38:40Z</time></trkpt><trkpt lat="30.89034609645436" lon="-8.345073070722203"><ele>2094.0</ele><time>2026-04-27T12:38:41Z</time></trkpt><trkpt lat="30.890309370821246" lon="-8.345259227086501"><ele>2094.0</ele><time>2026-04-27T12:38:42Z</time></trkpt><trkpt lat="30.89025802812362" lon="-8.345429787900832"><ele>2094.0</ele><time>2026-04-27T12:38:43Z</time></trkpt><trkpt lat="30.890189535052368" lon="-8.345581754886933"><ele>2094.0</ele><time>2026-04-27T12:38:44Z</time></trkpt><trkpt lat="30.890105060101714" lon="-8.345722216351417"><ele>2099.3333333333335</ele><time>2026-04-27T12:38:45Z</time></trkpt><trkpt lat="30.88999187410083" lon="-8.345860821274558"><ele>2104.666666666667</ele><time>2026-04-27T12:38:46Z</time></trkpt><trkpt lat="30.889859246576677" lon="-8.345996766837148"><ele>2110.0</ele><time>2026-04-27T12:38:47Z</time></trkpt><trkpt lat="30.889724733627567" lon="-8.346099206664732"><ele>2110.0</ele><time>2026-04-27T12:38:48Z</time></trkpt><trkpt lat="30.88959923798065" lon="-8.346189097339451"><ele>2110.0</ele><time>2026-04-27T12:38:49Z</time></trkpt><trkpt lat="30.889479301982142" lon="-8.346309366137088"><ele>2110.0</ele><time>2026-04-27T12:38:50Z</time></trkpt><trkpt lat="30.88937641306721" lon="-8.34645446306915"><ele>2113.666666666667</ele><time>2026-04-27T12:38:51Z</time></trkpt><trkpt lat="30.8892825738634" lon="-8.34659790159305"><ele>2117.3333333333335</ele><time>2026-04-27T12:38:52Z</time></trkpt><trkpt lat="30.88918857256051" lon="-8.346747535467074"><ele>2121.0</ele><time>2026-04-27T12:38:53Z</time></trkpt><trkpt lat="30.88910218248507" lon="-8.346904408819562"><ele>2121.0</ele><time>2026-04-27T12:38:54Z</time></trkpt><trkpt lat="30.88903437581028" lon="-8.347055620226875"><ele>2121.0</ele><time>2026-04-27T12:38:55Z</time></trkpt><trkpt lat="30.888977333182396" lon="-8.347178354165807"><ele>2121.0</ele><time>2026-04-27T12:38:56Z</time></trkpt><trkpt lat="30.888921705621705" lon="-8.347267799843806"><ele>2121.0</ele><time>2026-04-27T12:38:57Z</time></trkpt><trkpt lat="30.888853447396336" lon="-8.347328093001769"><ele>2121.0</ele><time>2026-04-27T12:38:58Z</time></trkpt><trkpt lat="30.888769206812324" lon="-8.347360730987209"><ele>2119.5</ele><time>2026-04-27T12:38:59Z</time></trkpt><trkpt lat="30.888652105483562" lon="-8.347358395219707"><ele>2118.0</ele><time>2026-04-27T12:39:00Z</time></trkpt><trkpt lat="30.888516526083155" lon="-8.347327770613825"><ele>2116.5</ele><time>2026-04-27T12:39:01Z</time></trkpt><trkpt lat="30.888385943953356" lon="-8.34731272639851"><ele>2115.0</ele><time>2026-04-27T12:39:02Z</time></trkpt><trkpt lat="30.88826378171504" lon="-8.34733432757572"><ele>2115.0</ele><time>2026-04-27T12:39:03Z</time></trkpt><trkpt lat="30.888139918151484" lon="-8.347382753680339"><ele>2115.0</ele><time>2026-04-27T12:39:04Z</time></trkpt><trkpt lat="30.88800952964936" lon="-8.347446050447799"><ele>2115.0</ele><time>2026-04-27T12:39:05Z</time></trkpt><trkpt lat="30.887865647089733" lon="-8.347528659864452"><ele>2115.0</ele><time>2026-04-27T12:39:06Z</time></trkpt><trkpt lat="30.88772398614513" lon="-8.347632770456602"><ele>2109.6666666666665</ele><time>2026-04-27T12:39:07Z</time></trkpt><trkpt lat="30.88759089949831" lon="-8.347770104117085"><ele>2104.333333333333</ele><time>2026-04-27T12:39:08Z</time></trkpt><trkpt lat="30.88747353984707" lon="-8.347918061047526"><ele>2099.0</ele><time>2026-04-27T12:39:09Z</time></trkpt><trkpt lat="30.887345893638138" lon="-8.348050916886017"><ele>2099.0</ele><time>2026-04-27T12:39:10Z</time></trkpt><trkpt lat="30.887188787015553" lon="-8.34816114942902"><ele>2099.0</ele><time>2026-04-27T12:39:11Z</time></trkpt><trkpt lat="30.887034697093227" lon="-8.348249481535472"><ele>2099.0</ele><time>2026-04-27T12:39:12Z</time></trkpt><trkpt lat="30.886906645191527" lon="-8.348345819604944"><ele>2099.0</ele><time>2026-04-27T12:39:13Z</time></trkpt><trkpt lat="30.886795369054255" lon="-8.348479058515101"><ele>2099.0</ele><time>2026-04-27T12:39:14Z</time></trkpt><trkpt lat="30.886690324733706" lon="-8.348640382265668"><ele>2099.0</ele><time>2026-04-27T12:39:15Z</time></trkpt><trkpt lat="30.886579303216486" lon="-8.348790109591885"><ele>2098.5</ele><time>2026-04-27T12:39:16Z</time></trkpt><trkpt lat="30.8864592189592" lon="-8.348923697546518"><ele>2098.0</ele><time>2026-04-27T12:39:17Z</time></trkpt><trkpt lat="30.886346435636437" lon="-8.349032621383778"><ele>2097.5</ele><time>2026-04-27T12:39:18Z</time></trkpt><trkpt lat="30.88623814899397" lon="-8.349129052912796"><ele>2097.0</ele><time>2026-04-27T12:39:19Z</time></trkpt><trkpt lat="30.886150860391602" lon="-8.34923684907553"><ele>2097.0</ele><time>2026-04-27T12:39:20Z</time></trkpt><trkpt lat="30.886091114110993" lon="-8.34937212596077"><ele>2097.0</ele><time>2026-04-27T12:39:21Z</time></trkpt><trkpt lat="30.88605175046005" lon="-8.34950155074945"><ele>2097.0</ele><time>2026-04-27T12:39:22Z</time></trkpt><trkpt lat="30.88598438032149" lon="-8.349642763842064"><ele>2097.0</ele><time>2026-04-27T12:39:23Z</time></trkpt><trkpt lat="30.885878546485518" lon="-8.349801879268762"><ele>2106.0</ele><time>2026-04-27T12:39:24Z</time></trkpt><trkpt lat="30.885753940617356" lon="-8.34996286208079"><ele>2115.0</ele><time>2026-04-27T12:39:25Z</time></trkpt><trkpt lat="30.885606869782222" lon="-8.350109561681315"><ele>2124.0</ele><time>2026-04-27T12:39:26Z</time></trkpt><trkpt lat="30.885478139565915" lon="-8.350240707455862"><ele>2124.0</ele><time>2026-04-27T12:39:27Z</time></trkpt><trkpt lat="30.885371891159863" lon="-8.350360859574023"><ele>2124.0</ele><time>2026-04-27T12:39:28Z</time></trkpt><trkpt lat="30.88527729586935" lon="-8.350463129977921"><ele>2124.0</ele><time>2026-04-27T12:39:29Z</time></trkpt><trkpt lat="30.885156121491743" lon="-8.350544934881546"><ele>2124.0</ele><time>2026-04-27T12:39:30Z</time></trkpt><trkpt lat="30.885004818424054" lon="-8.35062098900781"><ele>2118.3333333333335</ele><time>2026-04-27T12:39:31Z</time></trkpt><trkpt lat="30.884833489720634" lon="-8.3506979225079"><ele>2112.666666666667</ele><time>2026-04-27T12:39:32Z</time></trkpt><trkpt lat="30.884650662834353" lon="-8.35078816763972"><ele>2107.0</ele><time>2026-04-27T12:39:33Z</time></trkpt><trkpt lat="30.88449828180589" lon="-8.350874870980826"><ele>2107.0</ele><time>2026-04-27T12:39:34Z</time></trkpt><trkpt lat="30.884379107689544" lon="-8.35096588662554"><ele>2107.0</ele><time>2026-04-27T12:39:35Z</time></trkpt><trkpt lat="30.884296740452672" lon="-8.351070934327"><ele>2107.0</ele><time>2026-04-27T12:39:36Z</time></trkpt><trkpt lat="30.88422740694884" lon="-8.351166920474295"><ele>2107.0</ele><time>2026-04-27T12:39:37Z</time></trkpt><trkpt lat="30.884155173445485" lon="-8.351226263015812"><ele>2109.7999999999997</ele><time>2026-04-27T12:39:38Z</time></trkpt><trkpt lat="30.884070926318383" lon="-8.351247785770656"><ele>2112.6</ele><time>2026-04-27T12:39:39Z</time></trkpt><trkpt lat="30.88398706417338" lon="-8.351239012922592"><ele>2115.3999999999996</ele><time>2026-04-27T12:39:40Z</time></trkpt><trkpt lat="30.883914306196058" lon="-8.351178441493053"><ele>2118.2</ele><time>2026-04-27T12:39:41Z</time></trkpt><trkpt lat="30.883844350791737" lon="-8.351091426138082"><ele>2121.0</ele><time>2026-04-27T12:39:42Z</time></trkpt><trkpt lat="30.883775305697135" lon="-8.350984278242024"><ele>2121.0</ele><time>2026-04-27T12:39:43Z</time></trkpt><trkpt lat="30.88371326357346" lon="-8.350857256133699"><ele>2121.0</ele><time>2026-04-27T12:39:44Z</time></trkpt><trkpt lat="30.883657433203414" lon="-8.350713079583906"><ele>2121.0</ele><time>2026-04-27T12:39:45Z</time></trkpt><trkpt lat="30.883609153521725" lon="-8.350534433021007"><ele>2121.0</ele><time>2026-04-27T12:39:46Z</time></trkpt><trkpt lat="30.883559216960947" lon="-8.350328816089544"><ele>2126.6666666666665</ele><time>2026-04-27T12:39:47Z</time></trkpt><trkpt lat="30.88351839792443" lon="-8.350141288071177"><ele>2132.333333333333</ele><time>2026-04-27T12:39:48Z</time></trkpt><trkpt lat="30.88347234211224" lon="-8.34996889548915"><ele>2138.0</ele><time>2026-04-27T12:39:49Z</time></trkpt><trkpt lat="30.88345065556942" lon="-8.349794757562384"><ele>2140.333333333333</ele><time>2026-04-27T12:39:50Z</time></trkpt><trkpt lat="30.883454098567853" lon="-8.34959920988532"><ele>2142.6666666666665</ele><time>2026-04-27T12:39:51Z</time></trkpt><trkpt lat="30.883486275918774" lon="-8.349399226967343"><ele>2145.0</ele><time>2026-04-27T12:39:52Z</time></trkpt><trkpt lat="30.883522176404526" lon="-8.349209024904805"><ele>2145.0</ele><time>2026-04-27T12:39:53Z</time></trkpt><trkpt lat="30.883537487224654" lon="-8.348997646163042"><ele>2145.0</ele><time>2026-04-27T12:39:54Z</time></trkpt><trkpt lat="30.883533501167513" lon="-8.348792660836905"><ele>2145.0</ele><time>2026-04-27T12:39:55Z</time></trkpt><trkpt lat="30.883523498487037" lon="-8.348599784892365"><ele>2146.6666666666665</ele><time>2026-04-27T12:39:56Z</time></trkpt><trkpt lat="30.883503210234757" lon="-8.348413150682811"><ele>2148.333333333333</ele><time>2026-04-27T12:39:57Z</time></trkpt><trkpt lat="30.883462517606496" lon="-8.348230948335036"><ele>2150.0</ele><time>2026-04-27T12:39:58Z</time></trkpt><trkpt lat="30.883399640233563" lon="-8.348053337306814"><ele>2140.0</ele><time>2026-04-27T12:39:59Z</time></trkpt><trkpt lat="30.88334189954262" lon="-8.34789420935848"><ele>2130.0</ele><time>2026-04-27T12:40:00Z</time></trkpt><trkpt lat="30.88329810226141" lon="-8.347742663566047"><ele>2120.0</ele><time>2026-04-27T12:40:01Z</time></trkpt><trkpt lat="30.88326258218882" lon="-8.34759612679192"><ele>2110.0</ele><time>2026-04-27T12:40:02Z</time></trkpt><trkpt lat="30.88324833230476" lon="-8.34744312036492"><ele>2110.0</ele><time>2026-04-27T12:40:03Z</time></trkpt><trkpt lat="30.883258185800475" lon="-8.347292079446527"><ele>2110.0</ele><time>2026-04-27T12:40:04Z</time></trkpt><trkpt lat="30.883276675948256" lon="-8.347152298283955"><ele>2110.0</ele><time>2026-04-27T12:40:05Z</time></trkpt><trkpt lat="30.88328337400406" lon="-8.347023035777587"><ele>2110.0</ele><time>2026-04-27T12:40:06Z</time></trkpt><trkpt lat="30.883256795032867" lon="-8.346913114594578"><ele>2111.0</ele><time>2026-04-27T12:40:07Z</time></trkpt><trkpt lat="30.883189231469714" lon="-8.34683204354809"><ele>2112.0</ele><time>2026-04-27T12:40:08Z</time></trkpt><trkpt lat="30.883094462123523" lon="-8.346792767711785"><ele>2113.0</ele><time>2026-04-27T12:40:09Z</time></trkpt><trkpt lat="30.882974486379705" lon="-8.346809300310266"><ele>2114.0</ele><time>2026-04-27T12:40:10Z</time></trkpt><trkpt lat="30.882844997317815" lon="-8.346865464036629"><ele>2114.0</ele><time>2026-04-27T12:40:11Z</time></trkpt><trkpt lat="30.882743815845245" lon="-8.346934861191226"><ele>2114.0</ele><time>2026-04-27T12:40:12Z</time></trkpt><trkpt lat="30.882664103152475" lon="-8.347024225335034"><ele>2114.0</ele><time>2026-04-27T12:40:13Z</time></trkpt><trkpt lat="30.882615838965723" lon="-8.347141784408617"><ele>2114.0</ele><time>2026-04-27T12:40:14Z</time></trkpt><trkpt lat="30.88259628724872" lon="-8.347271741731715"><ele>2112.5</ele><time>2026-04-27T12:40:15Z</time></trkpt><trkpt lat="30.882564633463716" lon="-8.347416681934774"><ele>2111.0</ele><time>2026-04-27T12:40:16Z</time></trkpt><trkpt lat="30.88250009391981" lon="-8.347558303363941"><ele>2109.5</ele><time>2026-04-27T12:40:17Z</time></trkpt><trkpt lat="30.882411729179907" lon="-8.347690808928704"><ele>2108.0</ele><time>2026-04-27T12:40:18Z</time></trkpt><trkpt lat="30.88228438046285" lon="-8.347823268904431"><ele>2108.0</ele><time>2026-04-27T12:40:19Z</time></trkpt><trkpt lat="30.882111204912427" lon="-8.347947204527141"><ele>2108.0</ele><time>2026-04-27T12:40:20Z</time></trkpt><trkpt lat="30.881909213581128" lon="-8.348059032947997"><ele>2108.0</ele><time>2026-04-27T12:40:21Z</time></trkpt><trkpt lat="30.88171805349219" lon="-8.348159430791842"><ele>2103.0</ele><time>2026-04-27T12:40:22Z</time></trkpt><trkpt lat="30.881548602491527" lon="-8.34826818832924"><ele>2098.0</ele><time>2026-04-27T12:40:23Z</time></trkpt><trkpt lat="30.881372537652908" lon="-8.348391128025344"><ele>2093.0</ele><time>2026-04-27T12:40:24Z</time></trkpt><trkpt lat="30.881197694041788" lon="-8.348519243642373"><ele>2093.0</ele><time>2026-04-27T12:40:25Z</time></trkpt><trkpt lat="30.881023579778077" lon="-8.34865033750006"><ele>2093.0</ele><time>2026-04-27T12:40:26Z</time></trkpt><trkpt lat="30.880851827564648" lon="-8.348815526215057"><ele>2093.0</ele><time>2026-04-27T12:40:27Z</time></trkpt><trkpt lat="30.880686623460836" lon="-8.349023410003927"><ele>2091.0</ele><time>2026-04-27T12:40:28Z</time></trkpt><trkpt lat="30.88051787639689" lon="-8.34922786357971"><ele>2089.0</ele><time>2026-04-27T12:40:29Z</time></trkpt><trkpt lat="30.880369201744926" lon="-8.349392386854767"><ele>2087.0</ele><time>2026-04-27T12:40:30Z</time></trkpt><trkpt lat="30.880243824317066" lon="-8.349538233414483"><ele>2087.0</ele><time>2026-04-27T12:40:31Z</time></trkpt><trkpt lat="30.88013219940712" lon="-8.349685473837733"><ele>2087.0</ele><time>2026-04-27T12:40:32Z</time></trkpt><trkpt lat="30.88003933635425" lon="-8.349846360985934"><ele>2087.0</ele><time>2026-04-27T12:40:33Z</time></trkpt><trkpt lat="30.87998005482279" lon="-8.350044136110018"><ele>2087.333333333333</ele><time>2026-04-27T12:40:34Z</time></trkpt><trkpt lat="30.87993392207132" lon="-8.35023151502385"><ele>2087.6666666666665</ele><time>2026-04-27T12:40:35Z</time></trkpt><trkpt lat="30.87985976547308" lon="-8.350395101170859"><ele>2088.0</ele><time>2026-04-27T12:40:36Z</time></trkpt><trkpt lat="30.87974437592353" lon="-8.350538977775052"><ele>2086.75</ele><time>2026-04-27T12:40:37Z</time></trkpt><trkpt lat="30.879600284251104" lon="-8.35063681976036"><ele>2085.5</ele><time>2026-04-27T12:40:38Z</time></trkpt><trkpt lat="30.879466192333414" lon="-8.350675969157564"><ele>2084.25</ele><time>2026-04-27T12:40:39Z</time></trkpt><trkpt lat="30.87935542178666" lon="-8.350710646984759"><ele>2083.0</ele><time>2026-04-27T12:40:40Z</time></trkpt><trkpt lat="30.879264803776636" lon="-8.350778426093592"><ele>2083.0</ele><time>2026-04-27T12:40:41Z</time></trkpt><trkpt lat="30.879185507944026" lon="-8.350864844011314"><ele>2083.0</ele><time>2026-04-27T12:40:42Z</time></trkpt><trkpt lat="30.87910251231649" lon="-8.35097924649599"><ele>2083.0</ele><time>2026-04-27T12:40:43Z</time></trkpt><trkpt lat="30.87900968294444" lon="-8.35112941676521"><ele>2083.0</ele><time>2026-04-27T12:40:44Z</time></trkpt><trkpt lat="30.878899917631752" lon="-8.35128189612296"><ele>2074.3333333333335</ele><time>2026-04-27T12:40:45Z</time></trkpt><trkpt lat="30.878761388257796" lon="-8.351435289549984"><ele>2065.6666666666665</ele><time>2026-04-27T12:40:46Z</time></trkpt><trkpt lat="30.878631404614328" lon="-8.351566318558943"><ele>2057.0</ele><time>2026-04-27T12:40:47Z</time></trkpt><trkpt lat="30.878516858519763" lon="-8.351671985469737"><ele>2061.25</ele><time>2026-04-27T12:40:48Z</time></trkpt><trkpt lat="30.878407561182524" lon="-8.351751441990045"><ele>2065.5</ele><time>2026-04-27T12:40:49Z</time></trkpt><trkpt lat="30.878290803386594" lon="-8.351807651627274"><ele>2069.75</ele><time>2026-04-27T12:40:50Z</time></trkpt><trkpt lat="30.878174748151064" lon="-8.351855148273657"><ele>2074.0</ele><time>2026-04-27T12:40:51Z</time></trkpt><trkpt lat="30.878080691951812" lon="-8.351902715029714"><ele>2074.0</ele><time>2026-04-27T12:40:52Z</time></trkpt><trkpt lat="30.878004709933933" lon="-8.351958805304736"><ele>2074.0</ele><time>2026-04-27T12:40:53Z</time></trkpt><trkpt lat="30.877942303852247" lon="-8.352025535408785"><ele>2074.0</ele><time>2026-04-27T12:40:54Z</time></trkpt><trkpt lat="30.877899656221153" lon="-8.352102437319317"><ele>2074.0</ele><time>2026-04-27T12:40:55Z</time></trkpt><trkpt lat="30.877870894049238" lon="-8.352232854960697"><ele>2074.0</ele><time>2026-04-27T12:40:56Z</time></trkpt><trkpt lat="30.877853571232084" lon="-8.352423123683344"><ele>2067.3333333333335</ele><time>2026-04-27T12:40:57Z</time></trkpt><trkpt lat="30.877855498146374" lon="-8.352637303288454"><ele>2060.6666666666665</ele><time>2026-04-27T12:40:58Z</time></trkpt><trkpt lat="30.87785165095795" lon="-8.352867236600762"><ele>2054.0</ele><time>2026-04-27T12:40:59Z</time></trkpt><trkpt lat="30.87782083160758" lon="-8.35309659553755"><ele>2049.333333333333</ele><time>2026-04-27T12:41:00Z</time></trkpt><trkpt lat="30.877765447876264" lon="-8.35332412598983"><ele>2044.6666666666665</ele><time>2026-04-27T12:41:01Z</time></trkpt><trkpt lat="30.877690613634798" lon="-8.35354105415561"><ele>2040.0</ele><time>2026-04-27T12:41:02Z</time></trkpt><trkpt lat="30.877620030556873" lon="-8.353741364875114"><ele>2045.3333333333335</ele><time>2026-04-27T12:41:03Z</time></trkpt><trkpt lat="30.877554119917264" lon="-8.353925072497134"><ele>2050.666666666667</ele><time>2026-04-27T12:41:04Z</time></trkpt><trkpt lat="30.87749207563908" lon="-8.354100165217865"><ele>2056.0</ele><time>2026-04-27T12:41:05Z</time></trkpt><trkpt lat="30.87743588157796" lon="-8.354244036138216"><ele>2056.0</ele><time>2026-04-27T12:41:06Z</time></trkpt><trkpt lat="30.877362686329924" lon="-8.35436797458524"><ele>2056.0</ele><time>2026-04-27T12:41:07Z</time></trkpt><trkpt lat="30.877263070199266" lon="-8.354453203618787"><ele>2056.0</ele><time>2026-04-27T12:41:08Z</time></trkpt><trkpt lat="30.87715045903146" lon="-8.354499247494715"><ele>2056.0</ele><time>2026-04-27T12:41:09Z</time></trkpt><trkpt lat="30.877021145703154" lon="-8.354547621342297"><ele>2056.0</ele><time>2026-04-27T12:41:10Z</time></trkpt><trkpt lat="30.87689027676992" lon="-8.354632587274175"><ele>2056.0</ele><time>2026-04-27T12:41:11Z</time></trkpt><trkpt lat="30.876790351808626" lon="-8.354733220760894"><ele>2056.0</ele><time>2026-04-27T12:41:12Z</time></trkpt><trkpt lat="30.87671333193052" lon="-8.354833822292921"><ele>2056.0</ele><time>2026-04-27T12:41:13Z</time></trkpt><trkpt lat="30.876658162102952" lon="-8.354944050618267"><ele>2056.5</ele><time>2026-04-27T12:41:14Z</time></trkpt><trkpt lat="30.876631405000694" lon="-8.355072697401548"><ele>2057.0</ele><time>2026-04-27T12:41:15Z</time></trkpt><trkpt lat="30.876603100055227" lon="-8.35522697510182"><ele>2057.5</ele><time>2026-04-27T12:41:16Z</time></trkpt><trkpt lat="30.87655240963417" lon="-8.35535958198642"><ele>2058.0</ele><time>2026-04-27T12:41:17Z</time></trkpt><trkpt lat="30.87648958988759" lon="-8.35547365386526"><ele>2052.5</ele><time>2026-04-27T12:41:18Z</time></trkpt><trkpt lat="30.876410568237738" lon="-8.355608747773067"><ele>2047.0</ele><time>2026-04-27T12:41:19Z</time></trkpt><trkpt lat="30.876334059024558" lon="-8.355737295259134"><ele>2041.5</ele><time>2026-04-27T12:41:20Z</time></trkpt><trkpt lat="30.87628360139831" lon="-8.355870223559595"><ele>2036.0</ele><time>2026-04-27T12:41:21Z</time></trkpt><trkpt lat="30.876271438249216" lon="-8.356034203684937"><ele>2036.0</ele><time>2026-04-27T12:41:22Z</time></trkpt><trkpt lat="30.876277750266862" lon="-8.356239680238911"><ele>2036.0</ele><time>2026-04-27T12:41:23Z</time></trkpt><trkpt lat="30.876277931647003" lon="-8.35646490395478"><ele>2036.0</ele><time>2026-04-27T12:41:24Z</time></trkpt><trkpt lat="30.87627219553771" lon="-8.356655824940471"><ele>2033.1999999999998</ele><time>2026-04-27T12:41:25Z</time></trkpt><trkpt lat="30.876254112558804" lon="-8.356809715469794"><ele>2030.3999999999999</ele><time>2026-04-27T12:41:26Z</time></trkpt><trkpt lat="30.87622405429167" lon="-8.356942192336504"><ele>2027.6</ele><time>2026-04-27T12:41:27Z</time></trkpt><trkpt lat="30.876179249486633" lon="-8.357052492861339"><ele>2024.8</ele><time>2026-04-27T12:41:28Z</time></trkpt><trkpt lat="30.87611242920763" lon="-8.357126292561704"><ele>2022.0</ele><time>2026-04-27T12:41:29Z</time></trkpt><trkpt lat="30.8760301866534" lon="-8.357157058097341"><ele>2024.0</ele><time>2026-04-27T12:41:30Z</time></trkpt><trkpt lat="30.875925232669147" lon="-8.357182112579178"><ele>2026.0</ele><time>2026-04-27T12:41:31Z</time></trkpt><trkpt lat="30.875788445933104" lon="-8.357205748810042"><ele>2028.0</ele><time>2026-04-27T12:41:32Z</time></trkpt><trkpt lat="30.875641471443053" lon="-8.357232771486002"><ele>2030.0</ele><time>2026-04-27T12:41:33Z</time></trkpt><trkpt lat="30.8755259079499" lon="-8.357249735072369"><ele>2029.9999999999998</ele><time>2026-04-27T12:41:34Z</time></trkpt><trkpt lat="30.87543102465819" lon="-8.357241286469662"><ele>2030.0</ele><time>2026-04-27T12:41:35Z</time></trkpt><trkpt lat="30.87535551998617" lon="-8.357222155922281"><ele>2030.0</ele><time>2026-04-27T12:41:36Z</time></trkpt><trkpt lat="30.87530112665194" lon="-8.357183840772892"><ele>2030.0</ele><time>2026-04-27T12:41:37Z</time></trkpt><trkpt lat="30.87524465418887" lon="-8.357130482814007"><ele>2029.9999999999998</ele><time>2026-04-27T12:41:38Z</time></trkpt><trkpt lat="30.87517064580051" lon="-8.357075585523958"><ele>2030.0</ele><time>2026-04-27T12:41:39Z</time></trkpt><trkpt lat="30.875088290136386" lon="-8.357011466201095"><ele>2040.0</ele><time>2026-04-27T12:41:40Z</time></trkpt><trkpt lat="30.875000131767177" lon="-8.356947390582171"><ele>2050.0</ele><time>2026-04-27T12:41:41Z</time></trkpt><trkpt lat="30.8749131338122" lon="-8.356910459706592"><ele>2060.0</ele><time>2026-04-27T12:41:42Z</time></trkpt><trkpt lat="30.874821777238303" lon="-8.356907996486115"><ele>2070.0</ele><time>2026-04-27T12:41:43Z</time></trkpt><trkpt lat="30.87473477004509" lon="-8.356938088987826"><ele>2080.0</ele><time>2026-04-27T12:41:44Z</time></trkpt><trkpt lat="30.87463358334454" lon="-8.356994884655462"><ele>2080.0</ele><time>2026-04-27T12:41:45Z</time></trkpt><trkpt lat="30.874519976168827" lon="-8.357072403371133"><ele>2080.0</ele><time>2026-04-27T12:41:46Z</time></trkpt><trkpt lat="30.87440455121067" lon="-8.357125432772467"><ele>2080.0</ele><time>2026-04-27T12:41:47Z</time></trkpt><trkpt lat="30.87426864674156" lon="-8.35715051429127"><ele>2080.0</ele><time>2026-04-27T12:41:48Z</time></trkpt><trkpt lat="30.874143964227276" lon="-8.357153228691347"><ele>2078.75</ele><time>2026-04-27T12:41:49Z</time></trkpt><trkpt lat="30.874026552624326" lon="-8.357129074916434"><ele>2077.5</ele><time>2026-04-27T12:41:50Z</time></trkpt><trkpt lat="30.873894971537098" lon="-8.35707075087638"><ele>2076.25</ele><time>2026-04-27T12:41:51Z</time></trkpt><trkpt lat="30.87376705653935" lon="-8.357007551655384"><ele>2075.0</ele><time>2026-04-27T12:41:52Z</time></trkpt><trkpt lat="30.87365633480954" lon="-8.356970315558947"><ele>2075.0</ele><time>2026-04-27T12:41:53Z</time></trkpt><trkpt lat="30.873555808466122" lon="-8.356963385248294"><ele>2075.0</ele><time>2026-04-27T12:41:54Z</time></trkpt><trkpt lat="30.873476633224424" lon="-8.356992782804557"><ele>2075.0</ele><time>2026-04-27T12:41:55Z</time></trkpt><trkpt lat="30.873415107927887" lon="-8.357069028576499"><ele>2075.0</ele><time>2026-04-27T12:41:56Z</time></trkpt><trkpt lat="30.87338720701424" lon="-8.357164409310181"><ele>2075.0</ele><time>2026-04-27T12:41:57Z</time></trkpt><trkpt lat="30.873389754350104" lon="-8.357270102688375"><ele>2071.5</ele><time>2026-04-27T12:41:58Z</time></trkpt><trkpt lat="30.87341403833196" lon="-8.357403069962286"><ele>2068.0</ele><time>2026-04-27T12:41:59Z</time></trkpt><trkpt lat="30.873454444341352" lon="-8.357546178955753"><ele>2064.5</ele><time>2026-04-27T12:42:00Z</time></trkpt><trkpt lat="30.873503169926035" lon="-8.357669071505004"><ele>2061.0</ele><time>2026-04-27T12:42:01Z</time></trkpt><trkpt lat="30.873551047182183" lon="-8.357758056629907"><ele>2058.0</ele><time>2026-04-27T12:42:02Z</time></trkpt><trkpt lat="30.873609878986976" lon="-8.357844618623272"><ele>2055.0</ele><time>2026-04-27T12:42:03Z</time></trkpt><trkpt lat="30.873688756435726" lon="-8.35792127314425"><ele>2052.0</ele><time>2026-04-27T12:42:04Z</time></trkpt><trkpt lat="30.873807276500735" lon="-8.35800693961807"><ele>2049.0</ele><time>2026-04-27T12:42:05Z</time></trkpt><trkpt lat="30.873936610158104" lon="-8.358123750786007"><ele>2049.0</ele><time>2026-04-27T12:42:06Z</time></trkpt><trkpt lat="30.87405196137842" lon="-8.358266011681046"><ele>2049.0</ele><time>2026-04-27T12:42:07Z</time></trkpt><trkpt lat="30.874154306060866" lon="-8.358382399528999"><ele>2049.0</ele><time>2026-04-27T12:42:08Z</time></trkpt><trkpt lat="30.874237223667073" lon="-8.358492579025091"><ele>2049.0</ele><time>2026-04-27T12:42:09Z</time></trkpt><trkpt lat="30.87430691016208" lon="-8.358657485097998"><ele>2039.3333333333335</ele><time>2026-04-27T12:42:10Z</time></trkpt><trkpt lat="30.87437738734881" lon="-8.358868719661501"><ele>2029.6666666666667</ele><time>2026-04-27T12:42:11Z</time></trkpt><trkpt lat="30.874454196831856" lon="-8.359099048340815"><ele>2020.0</ele><time>2026-04-27T12:42:12Z</time></trkpt><trkpt lat="30.874534904094375" lon="-8.359294445921195"><ele>2020.0</ele><time>2026-04-27T12:42:13Z</time></trkpt><trkpt lat="30.874614746186232" lon="-8.359431679939457"><ele>2020.0</ele><time>2026-04-27T12:42:14Z</time></trkpt><trkpt lat="30.874693060961373" lon="-8.35953510290759"><ele>2020.0</ele><time>2026-04-27T12:42:15Z</time></trkpt><trkpt lat="30.87475654855247" lon="-8.359631626502512"><ele>2020.0</ele><time>2026-04-27T12:42:16Z</time></trkpt><trkpt lat="30.87478430554002" lon="-8.359730288975918"><ele>2024.25</ele><time>2026-04-27T12:42:17Z</time></trkpt><trkpt lat="30.874788050679978" lon="-8.359833269930965"><ele>2028.5</ele><time>2026-04-27T12:42:18Z</time></trkpt><trkpt lat="30.87475050893706" lon="-8.359949221424673"><ele>2032.75</ele><time>2026-04-27T12:42:19Z</time></trkpt><trkpt lat="30.87468010089107" lon="-8.360066749120476"><ele>2037.0</ele><time>2026-04-27T12:42:20Z</time></trkpt><trkpt lat="30.874568564741175" lon="-8.360189167115498"><ele>2037.0</ele><time>2026-04-27T12:42:21Z</time></trkpt><trkpt lat="30.87446147031056" lon="-8.36029969555953"><ele>2037.0</ele><time>2026-04-27T12:42:22Z</time></trkpt><trkpt lat="30.87437758366831" lon="-8.360386629636487"><ele>2037.0</ele><time>2026-04-27T12:42:23Z</time></trkpt><trkpt lat="30.874291398875993" lon="-8.36045436843509"><ele>2037.0</ele><time>2026-04-27T12:42:24Z</time></trkpt><trkpt lat="30.874179644733236" lon="-8.360506233698576"><ele>2039.25</ele><time>2026-04-27T12:42:25Z</time></trkpt><trkpt lat="30.87404715669643" lon="-8.36054276389507"><ele>2041.5</ele><time>2026-04-27T12:42:26Z</time></trkpt><trkpt lat="30.873932809737035" lon="-8.360592575000293"><ele>2043.75</ele><time>2026-04-27T12:42:27Z</time></trkpt><trkpt lat="30.873841047890316" lon="-8.360667296917244"><ele>2046.0</ele><time>2026-04-27T12:42:28Z</time></trkpt><trkpt lat="30.873775570355555" lon="-8.360775660584641"><ele>2046.0</ele><time>2026-04-27T12:42:29Z</time></trkpt><trkpt lat="30.873735954761397" lon="-8.360922412648888"><ele>2046.0</ele><time>2026-04-27T12:42:30Z</time></trkpt><trkpt lat="30.873704893049403" lon="-8.361072525281356"><ele>2046.0</ele><time>2026-04-27T12:42:31Z</time></trkpt><trkpt lat="30.873647415066102" lon="-8.361211080885283"><ele>2046.0</ele><time>2026-04-27T12:42:32Z</time></trkpt><trkpt lat="30.873557071241844" lon="-8.361340745580087"><ele>2051.25</ele><time>2026-04-27T12:42:33Z</time></trkpt><trkpt lat="30.873452501802824" lon="-8.36146516875726"><ele>2056.5</ele><time>2026-04-27T12:42:34Z</time></trkpt><trkpt lat="30.873356832591025" lon="-8.361577800560111"><ele>2061.75</ele><time>2026-04-27T12:42:35Z</time></trkpt><trkpt lat="30.87326837552459" lon="-8.361680550645389"><ele>2067.0</ele><time>2026-04-27T12:42:36Z</time></trkpt><trkpt lat="30.873181781310933" lon="-8.361767237190499"><ele>2067.0</ele><time>2026-04-27T12:42:37Z</time></trkpt><trkpt lat="30.87311126617777" lon="-8.36183133359119"><ele>2067.0</ele><time>2026-04-27T12:42:38Z</time></trkpt><trkpt lat="30.87307065140799" lon="-8.361890489764365"><ele>2067.0</ele><time>2026-04-27T12:42:39Z</time></trkpt><trkpt lat="30.873100186616554" lon="-8.362040243032565"><ele>2067.0</ele><time>2026-04-27T12:42:41Z</time></trkpt><trkpt lat="30.87314964772054" lon="-8.362116341858416"><ele>2067.0</ele><time>2026-04-27T12:42:42Z</time></trkpt><trkpt lat="30.873241420768814" lon="-8.362190079660532"><ele>2066.75</ele><time>2026-04-27T12:42:43Z</time></trkpt><trkpt lat="30.87335966960233" lon="-8.362267808889206"><ele>2066.5</ele><time>2026-04-27T12:42:44Z</time></trkpt><trkpt lat="30.87348828894697" lon="-8.362340432686398"><ele>2066.25</ele><time>2026-04-27T12:42:45Z</time></trkpt><trkpt lat="30.873580833560816" lon="-8.362403758009286"><ele>2066.0</ele><time>2026-04-27T12:42:46Z</time></trkpt><trkpt lat="30.87364239177195" lon="-8.362473278531304"><ele>2056.4</ele><time>2026-04-27T12:42:47Z</time></trkpt><trkpt lat="30.873684539856715" lon="-8.362556644805679"><ele>2046.8</ele><time>2026-04-27T12:42:48Z</time></trkpt><trkpt lat="30.873716354487424" lon="-8.362673386307385"><ele>2037.2000000000003</ele><time>2026-04-27T12:42:49Z</time></trkpt><trkpt lat="30.87373127631777" lon="-8.36282284210596"><ele>2027.6000000000001</ele><time>2026-04-27T12:42:50Z</time></trkpt><trkpt lat="30.87372557990352" lon="-8.362948685440404"><ele>2018.0</ele><time>2026-04-27T12:42:51Z</time></trkpt><trkpt lat="30.87368409043212" lon="-8.363068675116667"><ele>2018.0</ele><time>2026-04-27T12:42:52Z</time></trkpt><trkpt lat="30.873624003037115" lon="-8.363187910553744"><ele>2018.0</ele><time>2026-04-27T12:42:53Z</time></trkpt><trkpt lat="30.873549304923774" lon="-8.363308011543673"><ele>2018.0</ele><time>2026-04-27T12:42:54Z</time></trkpt><trkpt lat="30.87346327584324" lon="-8.363441160390709"><ele>2018.0</ele><time>2026-04-27T12:42:55Z</time></trkpt><trkpt lat="30.873394968580303" lon="-8.363573512512739"><ele>2027.2</ele><time>2026-04-27T12:42:56Z</time></trkpt><trkpt lat="30.873344014397976" lon="-8.363690637167242"><ele>2036.4</ele><time>2026-04-27T12:42:57Z</time></trkpt><trkpt lat="30.873301911952847" lon="-8.363803627545998"><ele>2045.6000000000001</ele><time>2026-04-27T12:42:58Z</time></trkpt><trkpt lat="30.873270114868248" lon="-8.363909754329292"><ele>2054.8</ele><time>2026-04-27T12:42:59Z</time></trkpt><trkpt lat="30.873276977216836" lon="-8.364014507199009"><ele>2064.0</ele><time>2026-04-27T12:43:00Z</time></trkpt><trkpt lat="30.873321944336215" lon="-8.364127522684447"><ele>2064.0</ele><time>2026-04-27T12:43:01Z</time></trkpt><trkpt lat="30.87340347374008" lon="-8.364232586984743"><ele>2064.0</ele><time>2026-04-27T12:43:02Z</time></trkpt><trkpt lat="30.873516140182456" lon="-8.364351482629454"><ele>2064.0</ele><time>2026-04-27T12:43:03Z</time></trkpt><trkpt lat="30.873632636977323" lon="-8.3644664646792"><ele>2064.0</ele><time>2026-04-27T12:43:04Z</time></trkpt><trkpt lat="30.873723908214338" lon="-8.36458647287154"><ele>2052.3333333333335</ele><time>2026-04-27T12:43:05Z</time></trkpt><trkpt lat="30.873783274237653" lon="-8.364733914471662"><ele>2040.6666666666667</ele><time>2026-04-27T12:43:06Z</time></trkpt><trkpt lat="30.873809417344432" lon="-8.364919819623356"><ele>2029.0</ele><time>2026-04-27T12:43:07Z</time></trkpt><trkpt lat="30.87381447392584" lon="-8.365144754576267"><ele>2029.0</ele><time>2026-04-27T12:43:08Z</time></trkpt><trkpt lat="30.873817180949374" lon="-8.365385639082348"><ele>2029.0</ele><time>2026-04-27T12:43:09Z</time></trkpt><trkpt lat="30.87383603420426" lon="-8.365617602926296"><ele>2029.0</ele><time>2026-04-27T12:43:10Z</time></trkpt><trkpt lat="30.873857698114424" lon="-8.365816676246862"><ele>2031.2</ele><time>2026-04-27T12:43:11Z</time></trkpt><trkpt lat="30.873867899732197" lon="-8.365977767780704"><ele>2033.4</ele><time>2026-04-27T12:43:12Z</time></trkpt><trkpt lat="30.873874920161036" lon="-8.366108583273027"><ele>2035.6</ele><time>2026-04-27T12:43:13Z</time></trkpt><trkpt lat="30.873878712373923" lon="-8.366184200380633"><ele>2037.8</ele><time>2026-04-27T12:43:14Z</time></trkpt><trkpt lat="30.873909235727012" lon="-8.36626213224322"><ele>2040.0</ele><time>2026-04-27T12:43:17Z</time></trkpt><trkpt lat="30.87388725896458" lon="-8.366335080229856"><ele>2040.0</ele><time>2026-04-27T12:43:24Z</time></trkpt><trkpt lat="30.87381704919713" lon="-8.36635351233652"><ele>2040.0</ele><time>2026-04-27T12:43:27Z</time></trkpt><trkpt lat="30.873785804765724" lon="-8.366271472670775"><ele>2040.0</ele><time>2026-04-27T12:43:29Z</time></trkpt><trkpt lat="30.873806828014054" lon="-8.36616364213399"><ele>2040.0</ele><time>2026-04-27T12:43:31Z</time></trkpt><trkpt lat="30.87384532709027" lon="-8.36603962139534"><ele>2040.0</ele><time>2026-04-27T12:43:33Z</time></trkpt><trkpt lat="30.873870320482045" lon="-8.365969776481839"><ele>2040.0</ele><time>2026-04-27T12:43:35Z</time></trkpt><trkpt lat="30.873909331865473" lon="-8.36590929667186"><ele>2040.0</ele><time>2026-04-27T12:43:38Z</time></trkpt><trkpt lat="30.87398360051466" lon="-8.365978553718136"><ele>2040.0</ele><time>2026-04-27T12:43:41Z</time></trkpt><trkpt lat="30.873993950483094" lon="-8.366089345908437"><ele>2040.0</ele><time>2026-04-27T12:43:43Z</time></trkpt><trkpt lat="30.874008985845812" lon="-8.366168526125668"><ele>2040.0</ele><time>2026-04-27T12:43:45Z</time></trkpt><trkpt lat="30.87401538804734" lon="-8.366271718900812"><ele>2040.0</ele><time>2026-04-27T12:43:48Z</time></trkpt><trkpt lat="30.87402754654323" lon="-8.366344146006693"><ele>2040.0</ele><time>2026-04-27T12:43:51Z</time></trkpt><trkpt lat="30.874019938903096" lon="-8.366420789133025"><ele>2040.0</ele><time>2026-04-27T12:46:13Z</time></trkpt><trkpt lat="30.873954510940052" lon="-8.366397475080754"><ele>2040.0</ele><time>2026-04-27T13:47:49Z</time></trkpt><trkpt lat="30.874012021821994" lon="-8.36643882523157"><ele>2040.0</ele><time>2026-04-27T13:48:25.001Z</time></trkpt><trkpt lat="30.874099146311067" lon="-8.366451328509584"><ele>2040.0</ele><time>2026-04-27T13:48:35Z</time></trkpt><trkpt lat="30.874024512225205" lon="-8.366377223489947"><ele>2040.0</ele><time>2026-04-27T13:51:22Z</time></trkpt><trkpt lat="30.873960092647515" lon="-8.366325560728137"><ele>2040.0</ele><time>2026-04-27T13:56:46.001Z</time></trkpt><trkpt lat="30.873967660515433" lon="-8.366165449440269"><ele>2040.0</ele><time>2026-04-27T13:56:48.001Z</time></trkpt><trkpt lat="30.873962142976925" lon="-8.366061386299764"><ele>2040.0</ele><time>2026-04-27T13:56:49.001Z</time></trkpt><trkpt lat="30.87395088786283" lon="-8.36598168936273"><ele>2040.0</ele><time>2026-04-27T13:56:50Z</time></trkpt><trkpt lat="30.87390288601955" lon="-8.365883964841586"><ele>2040.0</ele><time>2026-04-27T13:56:52Z</time></trkpt><trkpt lat="30.873828218181327" lon="-8.36593189565405"><ele>2040.0</ele><time>2026-04-27T13:56:55Z</time></trkpt><trkpt lat="30.873820377582543" lon="-8.36608063292236"><ele>2040.0</ele><time>2026-04-27T13:56:57Z</time></trkpt><trkpt lat="30.87383261236913" lon="-8.366198111951606"><ele>2040.0</ele><time>2026-04-27T13:56:58Z</time></trkpt><trkpt lat="30.873837699064342" lon="-8.366308025547914"><ele>2040.0</ele><time>2026-04-27T13:56:59Z</time></trkpt><trkpt lat="30.873833007884993" lon="-8.366402213575887"><ele>2040.0</ele><time>2026-04-27T13:57:00Z</time></trkpt><trkpt lat="30.873826544479456" lon="-8.366479551338495"><ele>2040.0</ele><time>2026-04-27T13:57:01Z</time></trkpt><trkpt lat="30.87380164603431" lon="-8.36661072203641"><ele>2041.1666666666667</ele><time>2026-04-27T13:57:03Z</time></trkpt><trkpt lat="30.87376583428323" lon="-8.366682499060186"><ele>2042.3333333333335</ele><time>2026-04-27T13:57:04Z</time></trkpt><trkpt lat="30.873711522879855" lon="-8.366748525155772"><ele>2043.5</ele><time>2026-04-27T13:57:05Z</time></trkpt><trkpt lat="30.87364505679428" lon="-8.366809080626174"><ele>2044.6666666666667</ele><time>2026-04-27T13:57:06Z</time></trkpt><trkpt lat="30.873574712139078" lon="-8.36686400776814"><ele>2045.8333333333335</ele><time>2026-04-27T13:57:07Z</time></trkpt><trkpt lat="30.87350595393129" lon="-8.366919814386991"><ele>2047.0</ele><time>2026-04-27T13:57:08Z</time></trkpt><trkpt lat="30.87343561325484" lon="-8.366973416724813"><ele>2044.5</ele><time>2026-04-27T13:57:09Z</time></trkpt><trkpt lat="30.873356978511975" lon="-8.367032890573702"><ele>2042.0</ele><time>2026-04-27T13:57:10Z</time></trkpt><trkpt lat="30.873262108966895" lon="-8.367108522928492"><ele>2039.5</ele><time>2026-04-27T13:57:11Z</time></trkpt><trkpt lat="30.873152463094566" lon="-8.367199637656933"><ele>2037.0</ele><time>2026-04-27T13:57:12Z</time></trkpt><trkpt lat="30.873041189931715" lon="-8.36728798818488"><ele>2037.0</ele><time>2026-04-27T13:57:13Z</time></trkpt><trkpt lat="30.872932482616786" lon="-8.367377136918739"><ele>2037.0</ele><time>2026-04-27T13:57:14Z</time></trkpt><trkpt lat="30.87283109130141" lon="-8.3674542527311"><ele>2037.0</ele><time>2026-04-27T13:57:15Z</time></trkpt><trkpt lat="30.872735038681864" lon="-8.36752437861454"><ele>2037.0</ele><time>2026-04-27T13:57:16Z</time></trkpt><trkpt lat="30.872646324368823" lon="-8.36759085388903"><ele>2040.8333333333333</ele><time>2026-04-27T13:57:17Z</time></trkpt><trkpt lat="30.872567352718253" lon="-8.367646191239103"><ele>2044.6666666666665</ele><time>2026-04-27T13:57:18Z</time></trkpt><trkpt lat="30.872499550892428" lon="-8.367697301031969"><ele>2048.5</ele><time>2026-04-27T13:57:19Z</time></trkpt><trkpt lat="30.872443252104674" lon="-8.367738010347272"><ele>2052.333333333333</ele><time>2026-04-27T13:57:20Z</time></trkpt><trkpt lat="30.87234811209247" lon="-8.367789475421315"><ele>2056.1666666666665</ele><time>2026-04-27T13:57:22Z</time></trkpt><trkpt lat="30.872274570055957" lon="-8.36783689317748"><ele>2060.0</ele><time>2026-04-27T13:57:24Z</time></trkpt><trkpt lat="30.872193374241675" lon="-8.367874103306432"><ele>2060.0</ele><time>2026-04-27T13:57:27Z</time></trkpt><trkpt lat="30.872134134810597" lon="-8.367903432225248"><ele>2060.0</ele><time>2026-04-27T13:57:30Z</time></trkpt><trkpt lat="30.87206545659699" lon="-8.367924582951439"><ele>2060.0</ele><time>2026-04-27T14:01:35Z</time></trkpt><trkpt lat="30.8719817134325" lon="-8.367950373201124"><ele>2060.0</ele><time>2026-04-27T14:01:37Z</time></trkpt><trkpt lat="30.871887516181403" lon="-8.3679847098069"><ele>2060.0</ele><time>2026-04-27T14:01:39Z</time></trkpt><trkpt lat="30.87175479237944" lon="-8.368017820653513"><ele>2058.1428571428573</ele><time>2026-04-27T14:01:41Z</time></trkpt><trkpt lat="30.87168165035077" lon="-8.368025762844045"><ele>2056.285714285714</ele><time>2026-04-27T14:01:42Z</time></trkpt><trkpt lat="30.871618452695625" lon="-8.368013536690045"><ele>2054.4285714285716</ele><time>2026-04-27T14:01:43Z</time></trkpt><trkpt lat="30.871549557748676" lon="-8.368062785590531"><ele>2052.5714285714284</ele><time>2026-04-27T14:01:45Z</time></trkpt><trkpt lat="30.87148386733882" lon="-8.368083203677418"><ele>2050.714285714286</ele><time>2026-04-27T14:01:49Z</time></trkpt><trkpt lat="30.871440069927466" lon="-8.368165389567178"><ele>2048.857142857143</ele><time>2026-04-27T14:01:53Z</time></trkpt><trkpt lat="30.87143914992531" lon="-8.368248084183286"><ele>2047.0</ele><time>2026-04-27T14:01:59Z</time></trkpt><trkpt lat="30.871562069884813" lon="-8.368517398372036"><ele>2047.0000000000002</ele><time>2026-04-27T14:02:16Z</time></trkpt><trkpt lat="30.871550634891726" lon="-8.368592987273512"><ele>2047.0</ele><time>2026-04-27T14:02:23Z</time></trkpt><trkpt lat="30.871514352101684" lon="-8.368665088664509"><ele>2047.0</ele><time>2026-04-27T14:02:28.001Z</time></trkpt><trkpt lat="30.871504604408276" lon="-8.368761512202171"><ele>2047.0</ele><time>2026-04-27T14:02:30.001Z</time></trkpt><trkpt lat="30.87146521353623" lon="-8.368823160481629"><ele>2047.0000000000002</ele><time>2026-04-27T14:02:31.001Z</time></trkpt><trkpt lat="30.871388611757187" lon="-8.36887259011387"><ele>2047.0</ele><time>2026-04-27T14:02:32.001Z</time></trkpt><trkpt lat="30.871322851716233" lon="-8.368932464992337"><ele>2049.25</ele><time>2026-04-27T14:02:33.001Z</time></trkpt><trkpt lat="30.871229309795574" lon="-8.368999570389024"><ele>2051.5</ele><time>2026-04-27T14:02:34.001Z</time></trkpt><trkpt lat="30.871139256297088" lon="-8.369054130800116"><ele>2053.75</ele><time>2026-04-27T14:02:35.001Z</time></trkpt><trkpt lat="30.871017145476937" lon="-8.369138173393814"><ele>2056.0</ele><time>2026-04-27T14:02:36.001Z</time></trkpt><trkpt lat="30.870867273564482" lon="-8.369167092744348"><ele>2056.0</ele><time>2026-04-27T14:02:37.001Z</time></trkpt><trkpt lat="30.87071810182116" lon="-8.369216244117695"><ele>2056.0</ele><time>2026-04-27T14:02:38.001Z</time></trkpt><trkpt lat="30.870598202059224" lon="-8.369287176189136"><ele>2056.0</ele><time>2026-04-27T14:02:39.001Z</time></trkpt><trkpt lat="30.87049189137146" lon="-8.369337446622833"><ele>2056.0</ele><time>2026-04-27T14:02:40.001Z</time></trkpt><trkpt lat="30.87040451440716" lon="-8.369368410741863"><ele>2056.0</ele><time>2026-04-27T14:02:41.001Z</time></trkpt><trkpt lat="30.870353656838386" lon="-8.369426059160595"><ele>2056.0</ele><time>2026-04-27T14:02:42.001Z</time></trkpt><trkpt lat="30.870334626306736" lon="-8.369497517238385"><ele>2056.0</ele><time>2026-04-27T14:02:43.001Z</time></trkpt><trkpt lat="30.870337701878356" lon="-8.369578929695118"><ele>2056.0</ele><time>2026-04-27T14:02:44.001Z</time></trkpt><trkpt lat="30.870358877451654" lon="-8.369685915645377"><ele>2056.0</ele><time>2026-04-27T14:02:45.001Z</time></trkpt><trkpt lat="30.870403640575294" lon="-8.369836873654265"><ele>2056.0</ele><time>2026-04-27T14:02:46.001Z</time></trkpt><trkpt lat="30.870466013360804" lon="-8.370015925066111"><ele>2052.25</ele><time>2026-04-27T14:02:47.001Z</time></trkpt><trkpt lat="30.870506411341594" lon="-8.370208446562396"><ele>2048.5</ele><time>2026-04-27T14:02:48.001Z</time></trkpt><trkpt lat="30.870524955514124" lon="-8.370362549832716"><ele>2044.75</ele><time>2026-04-27T14:02:49.001Z</time></trkpt><trkpt lat="30.870538114867262" lon="-8.3704486540212"><ele>2041.0</ele><time>2026-04-27T14:02:50.001Z</time></trkpt><trkpt lat="30.870544761763462" lon="-8.370581400169321"><ele>2040.75</ele><time>2026-04-27T14:02:52.001Z</time></trkpt><trkpt lat="30.87058120395847" lon="-8.37073571581937"><ele>2040.5</ele><time>2026-04-27T14:02:53.001Z</time></trkpt><trkpt lat="30.87054538511398" lon="-8.370831733593038"><ele>2040.25</ele><time>2026-04-27T14:02:54.001Z</time></trkpt><trkpt lat="30.87044477675027" lon="-8.370997527914284"><ele>2040.0</ele><time>2026-04-27T14:02:55.001Z</time></trkpt><trkpt lat="30.870375880509794" lon="-8.371067769323748"><ele>2040.0</ele><time>2026-04-27T14:02:56.001Z</time></trkpt><trkpt lat="30.87017658828157" lon="-8.371055214565747"><ele>2040.0</ele><time>2026-04-27T14:02:57.001Z</time></trkpt><trkpt lat="30.87008056056021" lon="-8.3710425823831"><ele>2040.0</ele><time>2026-04-27T14:02:58.001Z</time></trkpt><trkpt lat="30.86999717066866" lon="-8.37105646067814"><ele>2040.0</ele><time>2026-04-27T14:02:59.001Z</time></trkpt><trkpt lat="30.869921159931536" lon="-8.371100746457127"><ele>2045.1666666666667</ele><time>2026-04-27T14:03:00.001Z</time></trkpt><trkpt lat="30.869841758140293" lon="-8.371148740898425"><ele>2050.3333333333335</ele><time>2026-04-27T14:03:01.001Z</time></trkpt><trkpt lat="30.869773557162237" lon="-8.371178520199878"><ele>2055.5</ele><time>2026-04-27T14:03:02.001Z</time></trkpt><trkpt lat="30.869706362547735" lon="-8.371207860060982"><ele>2060.666666666667</ele><time>2026-04-27T14:03:04.001Z</time></trkpt><trkpt lat="30.869610178283402" lon="-8.371248154638762"><ele>2065.8333333333335</ele><time>2026-04-27T14:03:06.001Z</time></trkpt><trkpt lat="30.86952148190931" lon="-8.371294272020986"><ele>2071.0</ele><time>2026-04-27T14:03:08Z</time></trkpt><trkpt lat="30.869480447183104" lon="-8.371353528103862"><ele>2066.166666666667</ele><time>2026-04-27T14:03:10Z</time></trkpt><trkpt lat="30.86947240289228" lon="-8.371462460805434"><ele>2061.3333333333335</ele><time>2026-04-27T14:03:12Z</time></trkpt><trkpt lat="30.869496243890882" lon="-8.371594704770448"><ele>2056.5</ele><time>2026-04-27T14:03:14Z</time></trkpt><trkpt lat="30.869521433122756" lon="-8.371670681785007"><ele>2051.6666666666665</ele><time>2026-04-27T14:03:15Z</time></trkpt><trkpt lat="30.869548065090118" lon="-8.371755116273038"><ele>2046.8333333333333</ele><time>2026-04-27T14:03:16Z</time></trkpt><trkpt lat="30.869573972279888" lon="-8.371836793836014"><ele>2042.0</ele><time>2026-04-27T14:03:17Z</time></trkpt><trkpt lat="30.86960595120848" lon="-8.371937461254094"><ele>2042.0</ele><time>2026-04-27T14:03:18Z</time></trkpt><trkpt lat="30.86963545196455" lon="-8.372049044016876"><ele>2042.0</ele><time>2026-04-27T14:03:19Z</time></trkpt><trkpt lat="30.86966914803944" lon="-8.372173533864805"><ele>2042.0</ele><time>2026-04-27T14:03:20Z</time></trkpt><trkpt lat="30.869690241561905" lon="-8.372325040005007"><ele>2042.0</ele><time>2026-04-27T14:03:21Z</time></trkpt><trkpt lat="30.869698923495775" lon="-8.3724751373137"><ele>2043.0</ele><time>2026-04-27T14:03:22Z</time></trkpt><trkpt lat="30.86970786817818" lon="-8.372610798377627"><ele>2043.9999999999998</ele><time>2026-04-27T14:03:23Z</time></trkpt><trkpt lat="30.86968069614973" lon="-8.372735648300653"><ele>2044.9999999999998</ele><time>2026-04-27T14:03:24Z</time></trkpt><trkpt lat="30.86964912961072" lon="-8.372855064328437"><ele>2046.0</ele><time>2026-04-27T14:03:25Z</time></trkpt><trkpt lat="30.86959814306871" lon="-8.372970608832958"><ele>2047.0</ele><time>2026-04-27T14:03:26Z</time></trkpt><trkpt lat="30.86956144112774" lon="-8.373090283793909"><ele>2047.0</ele><time>2026-04-27T14:03:27Z</time></trkpt><trkpt lat="30.869497927422007" lon="-8.37321818687612"><ele>2047.0</ele><time>2026-04-27T14:03:28Z</time></trkpt><trkpt lat="30.869425326138785" lon="-8.373360149857552"><ele>2047.0</ele><time>2026-04-27T14:03:29Z</time></trkpt><trkpt lat="30.86934824415321" lon="-8.373508724123559"><ele>2047.0</ele><time>2026-04-27T14:03:30Z</time></trkpt><trkpt lat="30.869284681588166" lon="-8.373645136362782"><ele>2051.0</ele><time>2026-04-27T14:03:31Z</time></trkpt><trkpt lat="30.869239171751115" lon="-8.373768534619959"><ele>2055.0</ele><time>2026-04-27T14:03:32Z</time></trkpt><trkpt lat="30.86917570573042" lon="-8.37389840625287"><ele>2059.0</ele><time>2026-04-27T14:03:33Z</time></trkpt><trkpt lat="30.869092470873092" lon="-8.37400669960955"><ele>2063.0</ele><time>2026-04-27T14:03:34Z</time></trkpt><trkpt lat="30.86897602490415" lon="-8.374099621159857"><ele>2063.0</ele><time>2026-04-27T14:03:35Z</time></trkpt><trkpt lat="30.86883296933996" lon="-8.374165670974616"><ele>2063.0</ele><time>2026-04-27T14:03:36Z</time></trkpt><trkpt lat="30.86867276785703" lon="-8.37421551872913"><ele>2063.0</ele><time>2026-04-27T14:03:37Z</time></trkpt><trkpt lat="30.86851190978096" lon="-8.3742553203615"><ele>2070.75</ele><time>2026-04-27T14:03:38Z</time></trkpt><trkpt lat="30.868376618818555" lon="-8.374287193474373"><ele>2078.5</ele><time>2026-04-27T14:03:39Z</time></trkpt><trkpt lat="30.868268719223938" lon="-8.37432715956321"><ele>2086.25</ele><time>2026-04-27T14:03:40Z</time></trkpt><trkpt lat="30.868190084892355" lon="-8.374398695652232"><ele>2094.0</ele><time>2026-04-27T14:03:41Z</time></trkpt><trkpt lat="30.868148558812962" lon="-8.374530278034662"><ele>2094.0</ele><time>2026-04-27T14:03:42Z</time></trkpt><trkpt lat="30.868055926101384" lon="-8.374659547885122"><ele>2094.0</ele><time>2026-04-27T14:03:43Z</time></trkpt><trkpt lat="30.86794866042197" lon="-8.374772249937458"><ele>2094.0</ele><time>2026-04-27T14:03:44Z</time></trkpt><trkpt lat="30.867855109426223" lon="-8.37486531902523"><ele>2094.0</ele><time>2026-04-27T14:03:45Z</time></trkpt><trkpt lat="30.867799453831488" lon="-8.374950889829087"><ele>2088.8333333333335</ele><time>2026-04-27T14:03:46Z</time></trkpt><trkpt lat="30.867776109767124" lon="-8.375030415262238"><ele>2083.6666666666665</ele><time>2026-04-27T14:03:47Z</time></trkpt><trkpt lat="30.86781079833225" lon="-8.375117262447928"><ele>2078.5</ele><time>2026-04-27T14:03:48Z</time></trkpt><trkpt lat="30.867883488054353" lon="-8.375188317957432"><ele>2073.333333333333</ele><time>2026-04-27T14:03:49Z</time></trkpt><trkpt lat="30.86793043974897" lon="-8.375250427708245"><ele>2068.1666666666665</ele><time>2026-04-27T14:03:50Z</time></trkpt><trkpt lat="30.86798820246754" lon="-8.375318203789156"><ele>2063.0</ele><time>2026-04-27T14:03:51Z</time></trkpt><trkpt lat="30.868026641493188" lon="-8.375386250111438"><ele>2063.0</ele><time>2026-04-27T14:03:52Z</time></trkpt><trkpt lat="30.86805981482922" lon="-8.375479086856183"><ele>2063.0</ele><time>2026-04-27T14:03:53Z</time></trkpt><trkpt lat="30.86807736072874" lon="-8.375549614493774"><ele>2063.0</ele><time>2026-04-27T14:03:54Z</time></trkpt><trkpt lat="30.868092481124094" lon="-8.375664234104098"><ele>2063.0</ele><time>2026-04-27T14:03:56Z</time></trkpt><trkpt lat="30.868092481124332" lon="-8.375742704557483"><ele>2063.0</ele><time>2026-04-27T14:03:57Z</time></trkpt><trkpt lat="30.868073980112456" lon="-8.375841008610378"><ele>2063.0</ele><time>2026-04-27T14:03:58Z</time></trkpt><trkpt lat="30.868060025844155" lon="-8.37592107758844"><ele>2064.5</ele><time>2026-04-27T14:03:59Z</time></trkpt><trkpt lat="30.868047569107667" lon="-8.376005773113999"><ele>2066.0</ele><time>2026-04-27T14:04:00Z</time></trkpt><trkpt lat="30.868034424939605" lon="-8.376080518071575"><ele>2067.5</ele><time>2026-04-27T14:04:01Z</time></trkpt><trkpt lat="30.868039423396237" lon="-8.376233057654948"><ele>2069.0</ele><time>2026-04-27T14:04:03Z</time></trkpt><trkpt lat="30.86807450126959" lon="-8.37630590228901"><ele>2070.5</ele><time>2026-04-27T14:04:04Z</time></trkpt><trkpt lat="30.868109274762645" lon="-8.376369369951707"><ele>2072.0</ele><time>2026-04-27T14:04:05Z</time></trkpt><trkpt lat="30.86817950091544" lon="-8.376500198320663"><ele>2073.0</ele><time>2026-04-27T14:04:07Z</time></trkpt><trkpt lat="30.868209214797456" lon="-8.37657053115137"><ele>2074.0</ele><time>2026-04-27T14:04:08Z</time></trkpt><trkpt lat="30.86821374441781" lon="-8.376708535265479"><ele>2075.0</ele><time>2026-04-27T14:04:10Z</time></trkpt><trkpt lat="30.868188931664704" lon="-8.376776515568046"><ele>2076.0</ele><time>2026-04-27T14:04:11Z</time></trkpt><trkpt lat="30.868185760908894" lon="-8.376917534070708"><ele>2077.0</ele><time>2026-04-27T14:04:13Z</time></trkpt><trkpt lat="30.868200460402488" lon="-8.377065625084803"><ele>2077.0</ele><time>2026-04-27T14:04:15Z</time></trkpt><trkpt lat="30.868217066212775" lon="-8.37716829175987"><ele>2077.0</ele><time>2026-04-27T14:04:16Z</time></trkpt><trkpt lat="30.868226673246145" lon="-8.377264209342101"><ele>2077.0</ele><time>2026-04-27T14:04:17Z</time></trkpt><trkpt lat="30.86823114524363" lon="-8.377375849009905"><ele>2077.0</ele><time>2026-04-27T14:04:18Z</time></trkpt><trkpt lat="30.868233479351904" lon="-8.377492087611914"><ele>2077.0</ele><time>2026-04-27T14:04:19Z</time></trkpt><trkpt lat="30.868222054427157" lon="-8.377597885673417"><ele>2077.714285714286</ele><time>2026-04-27T14:04:20Z</time></trkpt><trkpt lat="30.86821349109731" lon="-8.37768478487706"><ele>2078.4285714285716</ele><time>2026-04-27T14:04:21.001Z</time></trkpt><trkpt lat="30.868205947054" lon="-8.377759621041672"><ele>2079.1428571428573</ele><time>2026-04-27T14:04:22.001Z</time></trkpt><trkpt lat="30.86819838510912" lon="-8.377834582955542"><ele>2079.857142857143</ele><time>2026-04-27T14:04:23.001Z</time></trkpt><trkpt lat="30.86817548479057" lon="-8.377912281402805"><ele>2080.571428571429</ele><time>2026-04-27T14:04:24.001Z</time></trkpt><trkpt lat="30.868197215178242" lon="-8.378001716452898"><ele>2081.285714285714</ele><time>2026-04-27T14:04:25.001Z</time></trkpt><trkpt lat="30.86822458014775" lon="-8.378085506174855"><ele>2082.0</ele><time>2026-04-27T14:04:26.001Z</time></trkpt><trkpt lat="30.86825169458621" lon="-8.378185586347273"><ele>2083.3333333333335</ele><time>2026-04-27T14:04:27.001Z</time></trkpt><trkpt lat="30.868264449490493" lon="-8.378282718984742"><ele>2084.6666666666665</ele><time>2026-04-27T14:04:28.001Z</time></trkpt><trkpt lat="30.86826329072701" lon="-8.378383242821862"><ele>2086.0</ele><time>2026-04-27T14:04:29.001Z</time></trkpt><trkpt lat="30.86826097776383" lon="-8.378473242012413"><ele>2087.333333333333</ele><time>2026-04-27T14:04:30.001Z</time></trkpt><trkpt lat="30.868256826153672" lon="-8.378566710519891"><ele>2088.6666666666665</ele><time>2026-04-27T14:04:31.001Z</time></trkpt><trkpt lat="30.868249777712105" lon="-8.378653504247467"><ele>2090.0</ele><time>2026-04-27T14:04:32.001Z</time></trkpt><trkpt lat="30.868238339503698" lon="-8.37874355735018"><ele>2090.0</ele><time>2026-04-27T14:04:33.001Z</time></trkpt><trkpt lat="30.868225075024053" lon="-8.378832546997032"><ele>2090.0</ele><time>2026-04-27T14:04:34.001Z</time></trkpt><trkpt lat="30.868228768942778" lon="-8.378927303264101"><ele>2090.0</ele><time>2026-04-27T14:04:35.001Z</time></trkpt><trkpt lat="30.868212464790687" lon="-8.378999377826037"><ele>2090.0</ele><time>2026-04-27T14:04:36.001Z</time></trkpt><trkpt lat="30.868170663363617" lon="-8.379106803816562"><ele>2090.0</ele><time>2026-04-27T14:04:38.001Z</time></trkpt><trkpt lat="30.868141086181083" lon="-8.379171959569826"><ele>2090.0</ele><time>2026-04-27T14:04:39.001Z</time></trkpt><trkpt lat="30.868073149342234" lon="-8.379222651232443"><ele>2091.2</ele><time>2026-04-27T14:04:40.001Z</time></trkpt><trkpt lat="30.868012159662626" lon="-8.379286325353247"><ele>2092.4</ele><time>2026-04-27T14:04:41.001Z</time></trkpt><trkpt lat="30.86794329832658" lon="-8.37934836728328"><ele>2093.6</ele><time>2026-04-27T14:04:42.001Z</time></trkpt><trkpt lat="30.867850445842443" lon="-8.379403371761516"><ele>2094.8</ele><time>2026-04-27T14:04:43.001Z</time></trkpt><trkpt lat="30.867745672915486" lon="-8.37945125747426"><ele>2096.0</ele><time>2026-04-27T14:04:44.001Z</time></trkpt><trkpt lat="30.867626686680314" lon="-8.379489992398351"><ele>2098.0</ele><time>2026-04-27T14:04:45.001Z</time></trkpt><trkpt lat="30.867498562614518" lon="-8.379514180629378"><ele>2100.0</ele><time>2026-04-27T14:04:46.001Z</time></trkpt><trkpt lat="30.86738957526363" lon="-8.379594265277888"><ele>2102.0</ele><time>2026-04-27T14:04:47.001Z</time></trkpt><trkpt lat="30.86726422198819" lon="-8.379670673582707"><ele>2104.0</ele><time>2026-04-27T14:04:48.001Z</time></trkpt><trkpt lat="30.867112584435482" lon="-8.379756190646022"><ele>2096.666666666667</ele><time>2026-04-27T14:04:49.001Z</time></trkpt><trkpt lat="30.86694377957678" lon="-8.379840883868212"><ele>2089.3333333333335</ele><time>2026-04-27T14:04:50.001Z</time></trkpt><trkpt lat="30.866759212452806" lon="-8.379927857293886"><ele>2082.0</ele><time>2026-04-27T14:04:51.001Z</time></trkpt><trkpt lat="30.86656927339682" lon="-8.380017326782566"><ele>2082.0</ele><time>2026-04-27T14:04:52.001Z</time></trkpt><trkpt lat="30.8663882309862" lon="-8.380102636712987"><ele>2082.0</ele><time>2026-04-27T14:04:53.001Z</time></trkpt><trkpt lat="30.866220859913533" lon="-8.380184772256618"><ele>2082.0</ele><time>2026-04-27T14:04:54.001Z</time></trkpt><trkpt lat="30.86605346011778" lon="-8.380244023287808"><ele>2084.3333333333335</ele><time>2026-04-27T14:04:55.001Z</time></trkpt><trkpt lat="30.865901084229627" lon="-8.380321125492078"><ele>2086.666666666667</ele><time>2026-04-27T14:04:56.001Z</time></trkpt><trkpt lat="30.86575323366947" lon="-8.380373983826631"><ele>2089.0</ele><time>2026-04-27T14:04:57.001Z</time></trkpt><trkpt lat="30.865612319970936" lon="-8.380406934965558"><ele>2089.0</ele><time>2026-04-27T14:04:58.001Z</time></trkpt><trkpt lat="30.865475124269548" lon="-8.380407764746606"><ele>2089.0</ele><time>2026-04-27T14:04:59.001Z</time></trkpt><trkpt lat="30.865339813538593" lon="-8.38038296102015"><ele>2089.0</ele><time>2026-04-27T14:05:00.001Z</time></trkpt><trkpt lat="30.865216168154785" lon="-8.380321366355652"><ele>2089.0</ele><time>2026-04-27T14:05:01.001Z</time></trkpt><trkpt lat="30.86511645834321" lon="-8.380206969593187"><ele>2088.0</ele><time>2026-04-27T14:05:02.001Z</time></trkpt><trkpt lat="30.865049175845485" lon="-8.3801211093458"><ele>2087.0</ele><time>2026-04-27T14:05:03.001Z</time></trkpt><trkpt lat="30.865021038973527" lon="-8.379981792886044"><ele>2086.0</ele><time>2026-04-27T14:05:04.001Z</time></trkpt><trkpt lat="30.8649775337726" lon="-8.379869966865938"><ele>2085.0</ele><time>2026-04-27T14:05:05.001Z</time></trkpt><trkpt lat="30.864939754703197" lon="-8.379749331219744"><ele>2084.0</ele><time>2026-04-27T14:05:06.001Z</time></trkpt><trkpt lat="30.864903212610773" lon="-8.379628352408508"><ele>2084.0</ele><time>2026-04-27T14:05:07.001Z</time></trkpt><trkpt lat="30.864869412723472" lon="-8.37950977884748"><ele>2084.0</ele><time>2026-04-27T14:05:08.001Z</time></trkpt><trkpt lat="30.864842861813518" lon="-8.37939194386168"><ele>2084.0</ele><time>2026-04-27T14:05:09.001Z</time></trkpt><trkpt lat="30.864813366182467" lon="-8.379261039944266"><ele>2084.0</ele><time>2026-04-27T14:05:10.001Z</time></trkpt><trkpt lat="30.864780031748854" lon="-8.379113099153807"><ele>2084.0</ele><time>2026-04-27T14:05:11.001Z</time></trkpt><trkpt lat="30.864749761242546" lon="-8.378933939007437"><ele>2084.0</ele><time>2026-04-27T14:05:12.001Z</time></trkpt><trkpt lat="30.86472220876654" lon="-8.37876262863521"><ele>2084.0</ele><time>2026-04-27T14:05:13.001Z</time></trkpt><trkpt lat="30.864695605474385" lon="-8.37857180777313"><ele>2088.0</ele><time>2026-04-27T14:05:14Z</time></trkpt><trkpt lat="30.86464830982855" lon="-8.378422485931715"><ele>2092.0</ele><time>2026-04-27T14:05:15Z</time></trkpt><trkpt lat="30.864545541194378" lon="-8.378369201481894"><ele>2096.0</ele><time>2026-04-27T14:05:16Z</time></trkpt><trkpt lat="30.864421924371857" lon="-8.378265820501113"><ele>2100.0</ele><time>2026-04-27T14:05:17Z</time></trkpt><trkpt lat="30.864309566124085" lon="-8.378159320956511"><ele>2096.3333333333335</ele><time>2026-04-27T14:05:18Z</time></trkpt><trkpt lat="30.86421287535222" lon="-8.37806463046118"><ele>2092.666666666667</ele><time>2026-04-27T14:05:19Z</time></trkpt><trkpt lat="30.86408677722761" lon="-8.377951864088299"><ele>2089.0</ele><time>2026-04-27T14:05:20Z</time></trkpt><trkpt lat="30.863963755812506" lon="-8.37782275542413"><ele>2089.0</ele><time>2026-04-27T14:05:21Z</time></trkpt><trkpt lat="30.86382525383283" lon="-8.377759233952201"><ele>2089.0</ele><time>2026-04-27T14:05:22Z</time></trkpt><trkpt lat="30.863676569237118" lon="-8.377722731296785"><ele>2089.0</ele><time>2026-04-27T14:05:23Z</time></trkpt><trkpt lat="30.863544810904443" lon="-8.377664113293346"><ele>2089.0</ele><time>2026-04-27T14:05:24Z</time></trkpt><trkpt lat="30.86343582600006" lon="-8.377503749222061"><ele>2087.0</ele><time>2026-04-27T14:05:25Z</time></trkpt><trkpt lat="30.86333488572097" lon="-8.37733942681078"><ele>2085.0</ele><time>2026-04-27T14:05:26Z</time></trkpt><trkpt lat="30.863222887022733" lon="-8.377177942274729"><ele>2083.0</ele><time>2026-04-27T14:05:27Z</time></trkpt><trkpt lat="30.863116876712198" lon="-8.37702496444532"><ele>2083.0</ele><time>2026-04-27T14:05:28Z</time></trkpt><trkpt lat="30.863021084883837" lon="-8.376897682465362"><ele>2083.0</ele><time>2026-04-27T14:05:29Z</time></trkpt><trkpt lat="30.86291833954582" lon="-8.37673273449143"><ele>2083.0</ele><time>2026-04-27T14:05:30Z</time></trkpt><trkpt lat="30.862857079514136" lon="-8.376632947630458"><ele>2083.0</ele><time>2026-04-27T14:05:31Z</time></trkpt><trkpt lat="30.862784735193745" lon="-8.376558414691734"><ele>2083.0</ele><time>2026-04-27T14:05:32Z</time></trkpt><trkpt lat="30.862707858649426" lon="-8.37651604757345"><ele>2083.0</ele><time>2026-04-27T14:05:33Z</time></trkpt><trkpt lat="30.862625527617887" lon="-8.376490659834742"><ele>2083.0</ele><time>2026-04-27T14:05:34Z</time></trkpt><trkpt lat="30.862473025482576" lon="-8.376542902198691"><ele>2083.0</ele><time>2026-04-27T14:05:36Z</time></trkpt><trkpt lat="30.862352266484145" lon="-8.376577034168722"><ele>2074.5</ele><time>2026-04-27T14:05:37Z</time></trkpt><trkpt lat="30.862235397451435" lon="-8.376612069886578"><ele>2066.0</ele><time>2026-04-27T14:05:38Z</time></trkpt><trkpt lat="30.862091754173953" lon="-8.376669112710418"><ele>2057.5</ele><time>2026-04-27T14:05:39Z</time></trkpt><trkpt lat="30.861939289044948" lon="-8.376727887580227"><ele>2049.0</ele><time>2026-04-27T14:05:40Z</time></trkpt><trkpt lat="30.861789854679" lon="-8.376769412474442"><ele>2050.25</ele><time>2026-04-27T14:05:41Z</time></trkpt><trkpt lat="30.861653808254193" lon="-8.376807295865088"><ele>2051.5</ele><time>2026-04-27T14:05:42Z</time></trkpt><trkpt lat="30.861512436290663" lon="-8.376849807747218"><ele>2052.75</ele><time>2026-04-27T14:05:43Z</time></trkpt><trkpt lat="30.86136222035153" lon="-8.376897149124053"><ele>2054.0</ele><time>2026-04-27T14:05:44Z</time></trkpt><trkpt lat="30.86119678454733" lon="-8.376897569104667"><ele>2054.0</ele><time>2026-04-27T14:05:45Z</time></trkpt><trkpt lat="30.86103471057004" lon="-8.376871499829418"><ele>2054.0</ele><time>2026-04-27T14:05:46Z</time></trkpt><trkpt lat="30.86090710336412" lon="-8.376843282940467"><ele>2054.0</ele><time>2026-04-27T14:05:47Z</time></trkpt><trkpt lat="30.860807478105833" lon="-8.37671724706904"><ele>2054.0</ele><time>2026-04-27T14:05:48Z</time></trkpt><trkpt lat="30.860711533073154" lon="-8.376713849292655"><ele>2051.4</ele><time>2026-04-27T14:05:49Z</time></trkpt><trkpt lat="30.860639353225256" lon="-8.376729983430605"><ele>2048.8</ele><time>2026-04-27T14:05:50Z</time></trkpt><trkpt lat="30.860555576971063" lon="-8.376811116838105"><ele>2046.1999999999998</ele><time>2026-04-27T14:05:52Z</time></trkpt><trkpt lat="30.860547932581344" lon="-8.376932623686907"><ele>2043.6</ele><time>2026-04-27T14:05:54Z</time></trkpt><trkpt lat="30.8605907570464" lon="-8.377012135130327"><ele>2041.0</ele><time>2026-04-27T14:05:56Z</time></trkpt><trkpt lat="30.860635102766608" lon="-8.377132473026656"><ele>2041.0</ele><time>2026-04-27T14:06:17Z</time></trkpt><trkpt lat="30.86069942717188" lon="-8.37715075757779"><ele>2041.0</ele><time>2026-04-27T14:06:18Z</time></trkpt><trkpt lat="30.86076431368924" lon="-8.377185620480498"><ele>2041.0</ele><time>2026-04-27T14:06:19Z</time></trkpt><trkpt lat="30.860854531865794" lon="-8.377103176814263"><ele>2041.0</ele><time>2026-04-27T14:06:20Z</time></trkpt><trkpt lat="30.860966889618982" lon="-8.377079944651141"><ele>2041.0</ele><time>2026-04-27T14:06:21Z</time></trkpt><trkpt lat="30.861105014736776" lon="-8.377052773364001"><ele>2045.3333333333335</ele><time>2026-04-27T14:06:22Z</time></trkpt><trkpt lat="30.861258237960257" lon="-8.377036487762746"><ele>2049.6666666666665</ele><time>2026-04-27T14:06:23Z</time></trkpt><trkpt lat="30.86142508138505" lon="-8.377014171945772"><ele>2054.0</ele><time>2026-04-27T14:06:24Z</time></trkpt><trkpt lat="30.861592765226607" lon="-8.37697670543371"><ele>2054.0</ele><time>2026-04-27T14:06:25Z</time></trkpt><trkpt lat="30.861747146346577" lon="-8.376942323035925"><ele>2054.0</ele><time>2026-04-27T14:06:26Z</time></trkpt><trkpt lat="30.861897861005886" lon="-8.376907502022334"><ele>2054.0</ele><time>2026-04-27T14:06:27Z</time></trkpt><trkpt lat="30.862043527963223" lon="-8.376874205893802"><ele>2053.0</ele><time>2026-04-27T14:06:28Z</time></trkpt><trkpt lat="30.862178236440005" lon="-8.376845832301006"><ele>2052.0</ele><time>2026-04-27T14:06:29Z</time></trkpt><trkpt lat="30.8623039461334" lon="-8.376821190722298"><ele>2051.0</ele><time>2026-04-27T14:06:30Z</time></trkpt><trkpt lat="30.862408948945866" lon="-8.376804372544985"><ele>2050.0</ele><time>2026-04-27T14:06:31Z</time></trkpt><trkpt lat="30.862483105157327" lon="-8.376823588392412"><ele>2049.0</ele><time>2026-04-27T14:06:32Z</time></trkpt><trkpt lat="30.862588697482042" lon="-8.376848909746451"><ele>2049.0</ele><time>2026-04-27T14:06:34Z</time></trkpt><trkpt lat="30.862654181382535" lon="-8.376873115049554"><ele>2049.0</ele><time>2026-04-27T14:06:35Z</time></trkpt><trkpt lat="30.862712140345664" lon="-8.376924789262134"><ele>2049.0</ele><time>2026-04-27T14:06:36Z</time></trkpt><trkpt lat="30.862771771352413" lon="-8.377001710453563"><ele>2049.0</ele><time>2026-04-27T14:06:37Z</time></trkpt><trkpt lat="30.86282535251792" lon="-8.377097922280237"><ele>2049.0</ele><time>2026-04-27T14:06:38Z</time></trkpt><trkpt lat="30.862878917701472" lon="-8.377200039734603"><ele>2049.0</ele><time>2026-04-27T14:06:39Z</time></trkpt><trkpt lat="30.86291918095721" lon="-8.377347547807705"><ele>2049.0</ele><time>2026-04-27T14:06:40Z</time></trkpt><trkpt lat="30.86296731035118" lon="-8.377519516299465"><ele>2049.0</ele><time>2026-04-27T14:06:41Z</time></trkpt><trkpt lat="30.86300907135216" lon="-8.377688990229045"><ele>2049.0</ele><time>2026-04-27T14:06:42Z</time></trkpt><trkpt lat="30.863047116743655" lon="-8.377848948156688"><ele>2049.0</ele><time>2026-04-27T14:06:43Z</time></trkpt><trkpt lat="30.86308346847071" lon="-8.377980369468165"><ele>2049.0</ele><time>2026-04-27T14:06:44Z</time></trkpt><trkpt lat="30.863122521011427" lon="-8.378082403425674"><ele>2049.0</ele><time>2026-04-27T14:06:45Z</time></trkpt><trkpt lat="30.86316881284615" lon="-8.378158142124326"><ele>2049.0</ele><time>2026-04-27T14:06:46Z</time></trkpt><trkpt lat="30.863220672257416" lon="-8.378213945228834"><ele>2049.0</ele><time>2026-04-27T14:06:47Z</time></trkpt><trkpt lat="30.863292155678995" lon="-8.37824315303882"><ele>2049.0</ele><time>2026-04-27T14:06:48Z</time></trkpt><trkpt lat="30.863392298840527" lon="-8.378258763441837"><ele>2049.0</ele><time>2026-04-27T14:06:49Z</time></trkpt><trkpt lat="30.863517053051723" lon="-8.37826491886396"><ele>2049.0</ele><time>2026-04-27T14:06:50Z</time></trkpt><trkpt lat="30.863622952772097" lon="-8.378270258885186"><ele>2049.0</ele><time>2026-04-27T14:06:51Z</time></trkpt><trkpt lat="30.863715319396807" lon="-8.378281746983273"><ele>2049.0</ele><time>2026-04-27T14:06:52Z</time></trkpt><trkpt lat="30.863803404756073" lon="-8.378360678738149"><ele>2049.0</ele><time>2026-04-27T14:06:53Z</time></trkpt><trkpt lat="30.86389066981601" lon="-8.37845243388091"><ele>2049.0</ele><time>2026-04-27T14:06:54Z</time></trkpt><trkpt lat="30.86397068320697" lon="-8.378564575277768"><ele>2049.0</ele><time>2026-04-27T14:06:55Z</time></trkpt><trkpt lat="30.86403192322227" lon="-8.378688888284408"><ele>2049.0</ele><time>2026-04-27T14:06:56Z</time></trkpt><trkpt lat="30.86407671281249" lon="-8.378829508395095"><ele>2049.0</ele><time>2026-04-27T14:06:57Z</time></trkpt><trkpt lat="30.864101335505207" lon="-8.378994616476115"><ele>2049.0</ele><time>2026-04-27T14:06:58Z</time></trkpt><trkpt lat="30.864111074337835" lon="-8.379184255400697"><ele>2042.3333333333335</ele><time>2026-04-27T14:06:59Z</time></trkpt><trkpt lat="30.864112217065582" lon="-8.379402054674047"><ele>2035.6666666666667</ele><time>2026-04-27T14:07:00Z</time></trkpt><trkpt lat="30.864109384190098" lon="-8.379621905530335"><ele>2029.0</ele><time>2026-04-27T14:07:01Z</time></trkpt><trkpt lat="30.86412645614479" lon="-8.379832611861188"><ele>2025.3333333333335</ele><time>2026-04-27T14:07:02.001Z</time></trkpt><trkpt lat="30.864117203741607" lon="-8.380042711071727"><ele>2021.6666666666665</ele><time>2026-04-27T14:07:03.001Z</time></trkpt><trkpt lat="30.86419182861879" lon="-8.380260980522483"><ele>2018.0</ele><time>2026-04-27T14:07:04.001Z</time></trkpt><trkpt lat="30.864206736256506" lon="-8.380498537237784"><ele>2015.0</ele><time>2026-04-27T14:07:05.001Z</time></trkpt><trkpt lat="30.864227082018523" lon="-8.38072044430659"><ele>2012.0</ele><time>2026-04-27T14:07:06.001Z</time></trkpt><trkpt lat="30.864265864350813" lon="-8.380931594557884"><ele>2009.0</ele><time>2026-04-27T14:07:07.001Z</time></trkpt><trkpt lat="30.864279851336967" lon="-8.381133256417149"><ele>2012.75</ele><time>2026-04-27T14:07:08.001Z</time></trkpt><trkpt lat="30.864316263579436" lon="-8.381305325967517"><ele>2016.5</ele><time>2026-04-27T14:07:09.001Z</time></trkpt><trkpt lat="30.864354954053105" lon="-8.381450090035496"><ele>2020.25</ele><time>2026-04-27T14:07:10.001Z</time></trkpt><trkpt lat="30.864409614269718" lon="-8.381577689700935"><ele>2024.0</ele><time>2026-04-27T14:07:11.001Z</time></trkpt><trkpt lat="30.864483611298645" lon="-8.381691250662625"><ele>2024.0</ele><time>2026-04-27T14:07:12.001Z</time></trkpt><trkpt lat="30.864574660757338" lon="-8.381784974228157"><ele>2024.0</ele><time>2026-04-27T14:07:13.001Z</time></trkpt><trkpt lat="30.86468906845797" lon="-8.381865179769134"><ele>2024.0</ele><time>2026-04-27T14:07:14.001Z</time></trkpt><trkpt lat="30.8648165530096" lon="-8.381920810350262"><ele>2024.0</ele><time>2026-04-27T14:07:15.001Z</time></trkpt><trkpt lat="30.864961378153353" lon="-8.38195008000692"><ele>2022.75</ele><time>2026-04-27T14:07:16.001Z</time></trkpt><trkpt lat="30.865126712738174" lon="-8.381967176029342"><ele>2021.5</ele><time>2026-04-27T14:07:17.001Z</time></trkpt><trkpt lat="30.86527332695279" lon="-8.381990932512316"><ele>2020.25</ele><time>2026-04-27T14:07:18.001Z</time></trkpt><trkpt lat="30.865392289870936" lon="-8.382032282234906"><ele>2019.0</ele><time>2026-04-27T14:07:19.001Z</time></trkpt><trkpt lat="30.865479411499102" lon="-8.382084279388025"><ele>2019.0</ele><time>2026-04-27T14:07:20Z</time></trkpt><trkpt lat="30.865543127221468" lon="-8.38215809503383"><ele>2019.0</ele><time>2026-04-27T14:07:21Z</time></trkpt><trkpt lat="30.86559085166455" lon="-8.38225477135375"><ele>2019.0</ele><time>2026-04-27T14:07:22Z</time></trkpt><trkpt lat="30.86561917403331" lon="-8.382378100356116"><ele>2019.0</ele><time>2026-04-27T14:07:23Z</time></trkpt><trkpt lat="30.865621054025922" lon="-8.382505404939081"><ele>2019.0</ele><time>2026-04-27T14:07:24Z</time></trkpt><trkpt lat="30.865591098310784" lon="-8.382635714067158"><ele>2013.75</ele><time>2026-04-27T14:07:25Z</time></trkpt><trkpt lat="30.86556753550531" lon="-8.382788211314509"><ele>2008.5</ele><time>2026-04-27T14:07:26Z</time></trkpt><trkpt lat="30.865517816146976" lon="-8.38296090268224"><ele>2003.25</ele><time>2026-04-27T14:07:27Z</time></trkpt><trkpt lat="30.86541993190958" lon="-8.38309454610175"><ele>1998.0</ele><time>2026-04-27T14:07:28Z</time></trkpt><trkpt lat="30.86534057760348" lon="-8.383163465505556"><ele>1995.2</ele><time>2026-04-27T14:07:29Z</time></trkpt><trkpt lat="30.865297942820316" lon="-8.383225009916151"><ele>1992.4</ele><time>2026-04-27T14:07:30Z</time></trkpt><trkpt lat="30.86519828380273" lon="-8.383323369184968"><ele>1989.6000000000001</ele><time>2026-04-27T14:07:32Z</time></trkpt><trkpt lat="30.86511284386329" lon="-8.38334283740643"><ele>1986.8000000000002</ele><time>2026-04-27T14:07:33Z</time></trkpt><trkpt lat="30.865049412510928" lon="-8.383336204429192"><ele>1984.0</ele><time>2026-04-27T14:07:34Z</time></trkpt><trkpt lat="30.864970782858506" lon="-8.383247883026813"><ele>1983.75</ele><time>2026-04-27T14:07:35Z</time></trkpt><trkpt lat="30.864933313006574" lon="-8.3830837042438"><ele>1983.5</ele><time>2026-04-27T14:07:36Z</time></trkpt><trkpt lat="30.864944055230573" lon="-8.382912371719243"><ele>1983.25</ele><time>2026-04-27T14:07:37Z</time></trkpt><trkpt lat="30.864939468705703" lon="-8.38274386666322"><ele>1983.0</ele><time>2026-04-27T14:07:38Z</time></trkpt><trkpt lat="30.864944013276137" lon="-8.382590937789786"><ele>1986.4</ele><time>2026-04-27T14:07:39Z</time></trkpt><trkpt lat="30.864952695705632" lon="-8.382468561147263"><ele>1989.8000000000002</ele><time>2026-04-27T14:07:40Z</time></trkpt><trkpt lat="30.864864343833347" lon="-8.3824136380115"><ele>1993.2</ele><time>2026-04-27T14:07:41Z</time></trkpt><trkpt lat="30.864798183622813" lon="-8.382357718201224"><ele>1996.6</ele><time>2026-04-27T14:07:42Z</time></trkpt><trkpt lat="30.864716189227803" lon="-8.382297200630056"><ele>2000.0</ele><time>2026-04-27T14:07:43Z</time></trkpt><trkpt lat="30.864601639344574" lon="-8.382265340257181"><ele>2000.0</ele><time>2026-04-27T14:07:44Z</time></trkpt><trkpt lat="30.864461429644518" lon="-8.382208815354065"><ele>2000.0</ele><time>2026-04-27T14:07:45Z</time></trkpt><trkpt lat="30.86433209215752" lon="-8.382164747641509"><ele>2000.0</ele><time>2026-04-27T14:07:46Z</time></trkpt><trkpt lat="30.864219358630145" lon="-8.382037920680842"><ele>2000.0</ele><time>2026-04-27T14:07:47Z</time></trkpt><trkpt lat="30.864096059428622" lon="-8.381935428282667"><ele>1999.0</ele><time>2026-04-27T14:07:48Z</time></trkpt><trkpt lat="30.864009100810677" lon="-8.381767279453689"><ele>1998.0</ele><time>2026-04-27T14:07:49Z</time></trkpt><trkpt lat="30.86392301695499" lon="-8.381600110060795"><ele>1997.0</ele><time>2026-04-27T14:07:50Z</time></trkpt><trkpt lat="30.863844426084462" lon="-8.381412783197332"><ele>2001.0</ele><time>2026-04-27T14:07:51Z</time></trkpt><trkpt lat="30.86375695493846" lon="-8.381219561053129"><ele>2005.0</ele><time>2026-04-27T14:07:52Z</time></trkpt><trkpt lat="30.863681052272074" lon="-8.381034792260719"><ele>2009.0</ele><time>2026-04-27T14:07:53Z</time></trkpt><trkpt lat="30.863629289537023" lon="-8.380854399483725"><ele>2009.0</ele><time>2026-04-27T14:07:54Z</time></trkpt><trkpt lat="30.86357068374642" lon="-8.380654242461553"><ele>2009.0</ele><time>2026-04-27T14:07:55Z</time></trkpt><trkpt lat="30.86354824785186" lon="-8.380425575782962"><ele>2009.0</ele><time>2026-04-27T14:07:56Z</time></trkpt><trkpt lat="30.863527145642934" lon="-8.380204386881612"><ele>2012.0</ele><time>2026-04-27T14:07:57Z</time></trkpt><trkpt lat="30.863505050990433" lon="-8.380002481574804"><ele>2015.0</ele><time>2026-04-27T14:07:58Z</time></trkpt><trkpt lat="30.86342878213089" lon="-8.379838626920767"><ele>2018.0</ele><time>2026-04-27T14:07:59Z</time></trkpt><trkpt lat="30.863389664185625" lon="-8.379672839767263"><ele>2012.4</ele><time>2026-04-27T14:08:00Z</time></trkpt><trkpt lat="30.863404025144174" lon="-8.379478458321703"><ele>2006.8000000000002</ele><time>2026-04-27T14:08:01Z</time></trkpt><trkpt lat="30.863410126211562" lon="-8.37934871392006"><ele>2001.2</ele><time>2026-04-27T14:08:02Z</time></trkpt><trkpt lat="30.863400600007804" lon="-8.379268669460897"><ele>1995.6</ele><time>2026-04-27T14:08:03Z</time></trkpt><trkpt lat="30.863374764621728" lon="-8.379173596107867"><ele>1990.0</ele><time>2026-04-27T14:08:04Z</time></trkpt><trkpt lat="30.863312490865894" lon="-8.379119314443654"><ele>1990.0</ele><time>2026-04-27T14:08:05Z</time></trkpt><trkpt lat="30.863224122617865" lon="-8.379073269384001"><ele>1990.0</ele><time>2026-04-27T14:08:06Z</time></trkpt><trkpt lat="30.863107800599025" lon="-8.379100900393771"><ele>1990.0</ele><time>2026-04-27T14:08:07Z</time></trkpt><trkpt lat="30.863004208938396" lon="-8.379151128970099"><ele>1990.0</ele><time>2026-04-27T14:08:08Z</time></trkpt><trkpt lat="30.862796576424568" lon="-8.379211546770746"><ele>1990.0</ele><time>2026-04-27T14:08:09Z</time></trkpt><trkpt lat="30.862650453488083" lon="-8.379152016500981"><ele>1990.0</ele><time>2026-04-27T14:08:10Z</time></trkpt><trkpt lat="30.86250973506854" lon="-8.379008146167806"><ele>1990.0</ele><time>2026-04-27T14:08:11Z</time></trkpt><trkpt lat="30.862405188848367" lon="-8.378899409811327"><ele>1989.3333333333335</ele><time>2026-04-27T14:08:12Z</time></trkpt><trkpt lat="30.862301985598783" lon="-8.378749385423118"><ele>1988.6666666666665</ele><time>2026-04-27T14:08:13Z</time></trkpt><trkpt lat="30.862218039665056" lon="-8.378581369129636"><ele>1988.0</ele><time>2026-04-27T14:08:14Z</time></trkpt><trkpt lat="30.862166551704544" lon="-8.378400544719383"><ele>1988.0</ele><time>2026-04-27T14:08:15Z</time></trkpt><trkpt lat="30.862129496939765" lon="-8.378316756331639"><ele>1988.0000000000002</ele><time>2026-04-27T14:08:16Z</time></trkpt><trkpt lat="30.862077371785062" lon="-8.378235655830727"><ele>1988.0000000000002</ele><time>2026-04-27T14:08:17Z</time></trkpt><trkpt lat="30.861988787078424" lon="-8.378153914221794"><ele>1988.0</ele><time>2026-04-27T14:08:18Z</time></trkpt><trkpt lat="30.86189355790041" lon="-8.378131424671002"><ele>1988.0</ele><time>2026-04-27T14:08:19Z</time></trkpt><trkpt lat="30.861775343796435" lon="-8.378132328597479"><ele>1980.0</ele><time>2026-04-27T14:08:20Z</time></trkpt><trkpt lat="30.861696942059396" lon="-8.378227118715763"><ele>1972.0</ele><time>2026-04-27T14:08:21Z</time></trkpt><trkpt lat="30.861548019610787" lon="-8.37831649127774"><ele>1964.0</ele><time>2026-04-27T14:08:22Z</time></trkpt><trkpt lat="30.861386385018506" lon="-8.378397047471307"><ele>1964.0</ele><time>2026-04-27T14:08:23Z</time></trkpt><trkpt lat="30.861240530005034" lon="-8.378484193476254"><ele>1964.0</ele><time>2026-04-27T14:08:24Z</time></trkpt><trkpt lat="30.86110816099848" lon="-8.378605716328513"><ele>1964.0</ele><time>2026-04-27T14:08:25Z</time></trkpt><trkpt lat="30.860978175878465" lon="-8.378721090327126"><ele>1959.6666666666665</ele><time>2026-04-27T14:08:26Z</time></trkpt><trkpt lat="30.860846749074387" lon="-8.378830743491884"><ele>1955.3333333333335</ele><time>2026-04-27T14:08:27Z</time></trkpt><trkpt lat="30.860716325710357" lon="-8.378920950388071"><ele>1951.0</ele><time>2026-04-27T14:08:28Z</time></trkpt><trkpt lat="30.860589980723994" lon="-8.379007665475823"><ele>1951.0</ele><time>2026-04-27T14:08:29Z</time></trkpt><trkpt lat="30.8604637673041" lon="-8.379079702209967"><ele>1951.0</ele><time>2026-04-27T14:08:30Z</time></trkpt><trkpt lat="30.860337936403887" lon="-8.379146741963314"><ele>1951.0</ele><time>2026-04-27T14:08:31Z</time></trkpt><trkpt lat="30.860213881160895" lon="-8.379207400249804"><ele>1951.0</ele><time>2026-04-27T14:08:32Z</time></trkpt><trkpt lat="30.860086574105104" lon="-8.379245122275693"><ele>1949.75</ele><time>2026-04-27T14:08:33Z</time></trkpt><trkpt lat="30.859969003693074" lon="-8.379272564044014"><ele>1948.5</ele><time>2026-04-27T14:08:34Z</time></trkpt><trkpt lat="30.859837709190344" lon="-8.37923646668293"><ele>1947.25</ele><time>2026-04-27T14:08:35Z</time></trkpt><trkpt lat="30.859715620962458" lon="-8.37917712114061"><ele>1946.0</ele><time>2026-04-27T14:08:36Z</time></trkpt><trkpt lat="30.8595959416036" lon="-8.37910901661291"><ele>1946.0</ele><time>2026-04-27T14:08:37Z</time></trkpt><trkpt lat="30.859478321444062" lon="-8.379032646577775"><ele>1946.0</ele><time>2026-04-27T14:08:38Z</time></trkpt><trkpt lat="30.859370856482116" lon="-8.378895146914955"><ele>1946.0</ele><time>2026-04-27T14:08:39Z</time></trkpt><trkpt lat="30.85925699708161" lon="-8.378771237035142"><ele>1947.3333333333333</ele><time>2026-04-27T14:08:40.001Z</time></trkpt><trkpt lat="30.859153914345075" lon="-8.378640451393236"><ele>1948.6666666666665</ele><time>2026-04-27T14:08:41.001Z</time></trkpt><trkpt lat="30.859070078071806" lon="-8.378490741231507"><ele>1950.0</ele><time>2026-04-27T14:08:42.001Z</time></trkpt><trkpt lat="30.858998176673357" lon="-8.37833168544552"><ele>1950.0</ele><time>2026-04-27T14:08:43.001Z</time></trkpt><trkpt lat="30.858955130289438" lon="-8.378166291924385"><ele>1950.0</ele><time>2026-04-27T14:08:44.001Z</time></trkpt><trkpt lat="30.85891788659728" lon="-8.378008251653759"><ele>1950.0</ele><time>2026-04-27T14:08:45.001Z</time></trkpt><trkpt lat="30.858885393028853" lon="-8.377852927476008"><ele>1950.0</ele><time>2026-04-27T14:08:46.001Z</time></trkpt><trkpt lat="30.85886271314369" lon="-8.377683124173865"><ele>1950.0</ele><time>2026-04-27T14:08:47.001Z</time></trkpt><trkpt lat="30.858855702121968" lon="-8.377520567518433"><ele>1950.0</ele><time>2026-04-27T14:08:48.001Z</time></trkpt><trkpt lat="30.858890662921354" lon="-8.377326199668587"><ele>1950.0</ele><time>2026-04-27T14:08:49.001Z</time></trkpt><trkpt lat="30.858931168618867" lon="-8.37714898741139"><ele>1945.3333333333335</ele><time>2026-04-27T14:08:50.001Z</time></trkpt><trkpt lat="30.858973930792466" lon="-8.376960818279585"><ele>1940.6666666666667</ele><time>2026-04-27T14:08:51.001Z</time></trkpt><trkpt lat="30.859012526982497" lon="-8.37677244356841"><ele>1936.0</ele><time>2026-04-27T14:08:52.001Z</time></trkpt><trkpt lat="30.85903445843035" lon="-8.376572533917207"><ele>1936.0</ele><time>2026-04-27T14:08:53.001Z</time></trkpt><trkpt lat="30.85907641106894" lon="-8.376395338280028"><ele>1936.0</ele><time>2026-04-27T14:08:54.001Z</time></trkpt><trkpt lat="30.85912584908516" lon="-8.376218970524809"><ele>1936.0</ele><time>2026-04-27T14:08:55.001Z</time></trkpt><trkpt lat="30.859179157472134" lon="-8.37605592641328"><ele>1933.5</ele><time>2026-04-27T14:08:56.001Z</time></trkpt><trkpt lat="30.859220881389817" lon="-8.375903092309033"><ele>1931.0</ele><time>2026-04-27T14:08:57.001Z</time></trkpt><trkpt lat="30.85924722311205" lon="-8.375731878380009"><ele>1928.5</ele><time>2026-04-27T14:08:58.001Z</time></trkpt><trkpt lat="30.859242073832828" lon="-8.375578326141659"><ele>1926.0</ele><time>2026-04-27T14:08:59.001Z</time></trkpt><trkpt lat="30.85923187872033" lon="-8.375420213164361"><ele>1926.0</ele><time>2026-04-27T14:09:00.001Z</time></trkpt><trkpt lat="30.85922209207861" lon="-8.375263415174631"><ele>1926.0</ele><time>2026-04-27T14:09:01.001Z</time></trkpt><trkpt lat="30.859212644694004" lon="-8.37512156480903"><ele>1926.0</ele><time>2026-04-27T14:09:02.001Z</time></trkpt><trkpt lat="30.859202807581934" lon="-8.374998420012428"><ele>1926.0</ele><time>2026-04-27T14:09:03.001Z</time></trkpt><trkpt lat="30.85918612225096" lon="-8.374921118585968"><ele>1926.0</ele><time>2026-04-27T14:09:04.001Z</time></trkpt><trkpt lat="30.859150206218107" lon="-8.374828759615532"><ele>1926.0</ele><time>2026-04-27T14:09:05.001Z</time></trkpt><trkpt lat="30.859085190553678" lon="-8.37478007029801"><ele>1926.0</ele><time>2026-04-27T14:09:06.001Z</time></trkpt><trkpt lat="30.858979681848158" lon="-8.374762288458085"><ele>1926.0</ele><time>2026-04-27T14:09:07.001Z</time></trkpt><trkpt lat="30.858877454205746" lon="-8.374690173051732"><ele>1926.0</ele><time>2026-04-27T14:09:08.001Z</time></trkpt><trkpt lat="30.858789019398248" lon="-8.374624755410496"><ele>1926.0</ele><time>2026-04-27T14:09:09.001Z</time></trkpt><trkpt lat="30.858702388095104" lon="-8.374507799515262"><ele>1932.3333333333335</ele><time>2026-04-27T14:09:10.001Z</time></trkpt><trkpt lat="30.858702659875007" lon="-8.374286505524504"><ele>1938.6666666666667</ele><time>2026-04-27T14:09:11.001Z</time></trkpt><trkpt lat="30.85868922656325" lon="-8.374133006972423"><ele>1945.0</ele><time>2026-04-27T14:09:12.001Z</time></trkpt><trkpt lat="30.85868116894723" lon="-8.373940149845058"><ele>1943.0</ele><time>2026-04-27T14:09:13.001Z</time></trkpt><trkpt lat="30.858706041535704" lon="-8.373683429032887"><ele>1941.0</ele><time>2026-04-27T14:09:14.001Z</time></trkpt><trkpt lat="30.858750215658624" lon="-8.373488004170246"><ele>1939.0</ele><time>2026-04-27T14:09:15.001Z</time></trkpt><trkpt lat="30.85877244024807" lon="-8.373303759826277"><ele>1939.0</ele><time>2026-04-27T14:09:16.001Z</time></trkpt><trkpt lat="30.858793194861466" lon="-8.373126685100473"><ele>1939.0</ele><time>2026-04-27T14:09:17.001Z</time></trkpt><trkpt lat="30.858765910825685" lon="-8.372938413356112"><ele>1939.0</ele><time>2026-04-27T14:09:18.001Z</time></trkpt><trkpt lat="30.858829040940225" lon="-8.372704260628698"><ele>1933.0</ele><time>2026-04-27T14:09:19.001Z</time></trkpt><trkpt lat="30.858936684215745" lon="-8.37255764778162"><ele>1927.0</ele><time>2026-04-27T14:09:20.001Z</time></trkpt><trkpt lat="30.85897548686717" lon="-8.372397751329743"><ele>1921.0</ele><time>2026-04-27T14:09:21.001Z</time></trkpt><trkpt lat="30.859008005294577" lon="-8.37221706172715"><ele>1917.75</ele><time>2026-04-27T14:09:22.001Z</time></trkpt><trkpt lat="30.859061170384177" lon="-8.37202133622164"><ele>1914.5</ele><time>2026-04-27T14:09:23.001Z</time></trkpt><trkpt lat="30.859131224994385" lon="-8.37187688115773"><ele>1911.25</ele><time>2026-04-27T14:09:24.001Z</time></trkpt><trkpt lat="30.85916075887441" lon="-8.371804381807188"><ele>1908.0</ele><time>2026-04-27T14:09:25.001Z</time></trkpt><trkpt lat="30.85916612818166" lon="-8.371686627882422"><ele>1908.0</ele><time>2026-04-27T14:09:26Z</time></trkpt><trkpt lat="30.85916325728547" lon="-8.371590928511958"><ele>1908.0</ele><time>2026-04-27T14:09:27Z</time></trkpt><trkpt lat="30.859079953459347" lon="-8.371452948288084"><ele>1908.0</ele><time>2026-04-27T14:09:29Z</time></trkpt><trkpt lat="30.858952787019525" lon="-8.371352303076637"><ele>1908.0</ele><time>2026-04-27T14:09:30Z</time></trkpt><trkpt lat="30.858857684739746" lon="-8.371192856135497"><ele>1913.75</ele><time>2026-04-27T14:09:31Z</time></trkpt><trkpt lat="30.858780228104454" lon="-8.371083777237741"><ele>1919.5</ele><time>2026-04-27T14:09:32Z</time></trkpt><trkpt lat="30.85871044225822" lon="-8.370984833973132"><ele>1925.25</ele><time>2026-04-27T14:09:33Z</time></trkpt><trkpt lat="30.858643489802105" lon="-8.370891410459468"><ele>1931.0</ele><time>2026-04-27T14:09:34Z</time></trkpt><trkpt lat="30.85853767256724" lon="-8.370751118206094"><ele>1932.0</ele><time>2026-04-27T14:09:35Z</time></trkpt><trkpt lat="30.85850863441442" lon="-8.370502281370232"><ele>1933.0</ele><time>2026-04-27T14:09:36Z</time></trkpt><trkpt lat="30.85863819132842" lon="-8.370306319001935"><ele>1934.0</ele><time>2026-04-27T14:09:37Z</time></trkpt><trkpt lat="30.85865285741712" lon="-8.370153695414453"><ele>1934.0</ele><time>2026-04-27T14:09:38Z</time></trkpt><trkpt lat="30.858617561183024" lon="-8.36993211135362"><ele>1934.0</ele><time>2026-04-27T14:09:39Z</time></trkpt><trkpt lat="30.858643032388727" lon="-8.369768762559463"><ele>1934.0</ele><time>2026-04-27T14:09:40Z</time></trkpt><trkpt lat="30.85866731716502" lon="-8.36961505952039"><ele>1936.8000000000002</ele><time>2026-04-27T14:09:41Z</time></trkpt><trkpt lat="30.858664523681117" lon="-8.369518432619238"><ele>1939.6000000000001</ele><time>2026-04-27T14:09:42Z</time></trkpt><trkpt lat="30.85864948837819" lon="-8.36940089532292"><ele>1942.4</ele><time>2026-04-27T14:09:43Z</time></trkpt><trkpt lat="30.858558855935954" lon="-8.369318590506973"><ele>1945.2</ele><time>2026-04-27T14:09:45Z</time></trkpt><trkpt lat="30.858467897557844" lon="-8.369313951285088"><ele>1948.0</ele><time>2026-04-27T14:09:46Z</time></trkpt><trkpt lat="30.858290386603475" lon="-8.369290931562853"><ele>1932.0</ele><time>2026-04-27T14:09:47Z</time></trkpt><trkpt lat="30.85810163882083" lon="-8.369138332001944"><ele>1916.0</ele><time>2026-04-27T14:09:48Z</time></trkpt><trkpt lat="30.857990178900188" lon="-8.369032716412194"><ele>1900.0</ele><time>2026-04-27T14:09:49Z</time></trkpt><trkpt lat="30.857854937078866" lon="-8.369028857093092"><ele>1900.0</ele><time>2026-04-27T14:09:50Z</time></trkpt><trkpt lat="30.857702754894092" lon="-8.369056994000841"><ele>1900.0</ele><time>2026-04-27T14:09:51Z</time></trkpt><trkpt lat="30.857521347219876" lon="-8.36912674149534"><ele>1900.0</ele><time>2026-04-27T14:09:52Z</time></trkpt><trkpt lat="30.85727519792054" lon="-8.369197410776524"><ele>1891.0</ele><time>2026-04-27T14:09:53Z</time></trkpt><trkpt lat="30.857017101196266" lon="-8.369230336434887"><ele>1882.0</ele><time>2026-04-27T14:09:54Z</time></trkpt><trkpt lat="30.856801719154454" lon="-8.36925454623937"><ele>1886.3333333333335</ele><time>2026-04-27T14:09:55Z</time></trkpt><trkpt lat="30.85659080864758" lon="-8.369304274376056"><ele>1890.6666666666665</ele><time>2026-04-27T14:09:56Z</time></trkpt><trkpt lat="30.85637922187093" lon="-8.369363981475654"><ele>1895.0</ele><time>2026-04-27T14:09:57Z</time></trkpt><trkpt lat="30.856184124036723" lon="-8.369418767895176"><ele>1895.0</ele><time>2026-04-27T14:09:58Z</time></trkpt><trkpt lat="30.856033665830967" lon="-8.369549422032199"><ele>1895.0</ele><time>2026-04-27T14:09:59Z</time></trkpt><trkpt lat="30.85585605386206" lon="-8.369639616519146"><ele>1895.0</ele><time>2026-04-27T14:10:00Z</time></trkpt><trkpt lat="30.85569506727724" lon="-8.369688641452292"><ele>1882.0</ele><time>2026-04-27T14:10:01Z</time></trkpt><trkpt lat="30.855541251205093" lon="-8.369729670395358"><ele>1869.0</ele><time>2026-04-27T14:10:02Z</time></trkpt><trkpt lat="30.855392714563475" lon="-8.369769815364451"><ele>1856.0</ele><time>2026-04-27T14:10:03Z</time></trkpt><trkpt lat="30.855255391888996" lon="-8.369814338325094"><ele>1858.25</ele><time>2026-04-27T14:10:04Z</time></trkpt><trkpt lat="30.8551159815889" lon="-8.369856651309906"><ele>1860.5</ele><time>2026-04-27T14:10:05Z</time></trkpt><trkpt lat="30.854988221037136" lon="-8.369890355228366"><ele>1862.75</ele><time>2026-04-27T14:10:06Z</time></trkpt><trkpt lat="30.854858153198556" lon="-8.3699183849809"><ele>1865.0</ele><time>2026-04-27T14:10:07Z</time></trkpt><trkpt lat="30.854721661511494" lon="-8.369942417529384"><ele>1865.0</ele><time>2026-04-27T14:10:08Z</time></trkpt><trkpt lat="30.85459591987565" lon="-8.369947738119041"><ele>1865.0</ele><time>2026-04-27T14:10:09Z</time></trkpt><trkpt lat="30.854440603942933" lon="-8.36990775854596"><ele>1865.0</ele><time>2026-04-27T14:10:10Z</time></trkpt><trkpt lat="30.85428250815881" lon="-8.36981562171149"><ele>1862.0</ele><time>2026-04-27T14:10:11Z</time></trkpt><trkpt lat="30.854154182730852" lon="-8.369728330298068"><ele>1859.0</ele><time>2026-04-27T14:10:12Z</time></trkpt><trkpt lat="30.854043800033075" lon="-8.369653806370417"><ele>1856.0</ele><time>2026-04-27T14:10:13Z</time></trkpt><trkpt lat="30.853916861764695" lon="-8.369638744792864"><ele>1853.0</ele><time>2026-04-27T14:10:14Z</time></trkpt><trkpt lat="30.85378895198128" lon="-8.369652846477791"><ele>1855.5</ele><time>2026-04-27T14:10:15Z</time></trkpt><trkpt lat="30.853668701246754" lon="-8.369646833912379"><ele>1858.0</ele><time>2026-04-27T14:10:16Z</time></trkpt><trkpt lat="30.853550515946743" lon="-8.369640700414363"><ele>1860.5</ele><time>2026-04-27T14:10:17Z</time></trkpt><trkpt lat="30.853390838649428" lon="-8.369613605091006"><ele>1863.0</ele><time>2026-04-27T14:10:18Z</time></trkpt><trkpt lat="30.853287540913012" lon="-8.369558171623776"><ele>1863.0</ele><time>2026-04-27T14:10:19Z</time></trkpt><trkpt lat="30.853168213890953" lon="-8.369433376135724"><ele>1863.0</ele><time>2026-04-27T14:10:20Z</time></trkpt><trkpt lat="30.853091251074932" lon="-8.369248469413076"><ele>1863.0</ele><time>2026-04-27T14:10:21Z</time></trkpt><trkpt lat="30.853120769633403" lon="-8.368976514423201"><ele>1864.0</ele><time>2026-04-27T14:10:22Z</time></trkpt><trkpt lat="30.853109178392213" lon="-8.368766397062355"><ele>1865.0</ele><time>2026-04-27T14:10:23Z</time></trkpt><trkpt lat="30.85308683193885" lon="-8.368513100990555"><ele>1866.0</ele><time>2026-04-27T14:10:24Z</time></trkpt><trkpt lat="30.853080595030082" lon="-8.368205831990158"><ele>1867.3333333333335</ele><time>2026-04-27T14:10:25Z</time></trkpt><trkpt lat="30.85307483672963" lon="-8.367943784787638"><ele>1868.6666666666667</ele><time>2026-04-27T14:10:26Z</time></trkpt><trkpt lat="30.85305938376897" lon="-8.367693760209065"><ele>1870.0</ele><time>2026-04-27T14:10:27Z</time></trkpt><trkpt lat="30.853039434378694" lon="-8.367457916354054"><ele>1870.0</ele><time>2026-04-27T14:10:28Z</time></trkpt><trkpt lat="30.853014865478222" lon="-8.36724708183922"><ele>1870.0</ele><time>2026-04-27T14:10:29Z</time></trkpt><trkpt lat="30.85298319107428" lon="-8.367055400241705"><ele>1870.0</ele><time>2026-04-27T14:10:30Z</time></trkpt><trkpt lat="30.852934941525522" lon="-8.366870157066947"><ele>1871.6666666666667</ele><time>2026-04-27T14:10:31Z</time></trkpt><trkpt lat="30.85286802878974" lon="-8.36666790088631"><ele>1873.3333333333335</ele><time>2026-04-27T14:10:32Z</time></trkpt><trkpt lat="30.852777610219576" lon="-8.366503434060837"><ele>1875.0</ele><time>2026-04-27T14:10:33Z</time></trkpt><trkpt lat="30.852686579111797" lon="-8.366329466688228"><ele>1865.0</ele><time>2026-04-27T14:10:34Z</time></trkpt><trkpt lat="30.852597511650565" lon="-8.36615668042504"><ele>1855.0</ele><time>2026-04-27T14:10:35Z</time></trkpt><trkpt lat="30.852514995860137" lon="-8.365992998548155"><ele>1845.0</ele><time>2026-04-27T14:10:36Z</time></trkpt><trkpt lat="30.852436318382924" lon="-8.36583624520553"><ele>1845.0</ele><time>2026-04-27T14:10:37Z</time></trkpt><trkpt lat="30.852359752794147" lon="-8.36568369945638"><ele>1845.0</ele><time>2026-04-27T14:10:38Z</time></trkpt><trkpt lat="30.85228944813743" lon="-8.365544174471358"><ele>1845.0</ele><time>2026-04-27T14:10:39Z</time></trkpt><trkpt lat="30.85222411010164" lon="-8.365397643729871"><ele>1845.0</ele><time>2026-04-27T14:10:40Z</time></trkpt><trkpt lat="30.852190086049" lon="-8.365167977198936"><ele>1843.6666666666665</ele><time>2026-04-27T14:10:41Z</time></trkpt><trkpt lat="30.852244482129272" lon="-8.364945608478005"><ele>1842.3333333333333</ele><time>2026-04-27T14:10:42Z</time></trkpt><trkpt lat="30.852315061533062" lon="-8.364795621019878"><ele>1841.0</ele><time>2026-04-27T14:10:43Z</time></trkpt><trkpt lat="30.85237880135683" lon="-8.364678322419929"><ele>1841.0</ele><time>2026-04-27T14:10:44Z</time></trkpt><trkpt lat="30.85241953119317" lon="-8.364552198166642"><ele>1841.0</ele><time>2026-04-27T14:10:45Z</time></trkpt><trkpt lat="30.85237530082608" lon="-8.36445087473365"><ele>1841.0</ele><time>2026-04-27T14:10:46Z</time></trkpt><trkpt lat="30.85235550913011" lon="-8.364360569060391"><ele>1841.0</ele><time>2026-04-27T14:10:47Z</time></trkpt><trkpt lat="30.852304266796494" lon="-8.364315153966128"><ele>1841.0</ele><time>2026-04-27T14:10:48Z</time></trkpt><trkpt lat="30.852204416998894" lon="-8.364285298991785"><ele>1841.0</ele><time>2026-04-27T14:10:50Z</time></trkpt><trkpt lat="30.852129020627416" lon="-8.364267849835691"><ele>1841.0</ele><time>2026-04-27T14:10:51Z</time></trkpt><trkpt lat="30.85207101155709" lon="-8.364335617084702"><ele>1841.0</ele><time>2026-04-27T14:10:52Z</time></trkpt><trkpt lat="30.852036891136695" lon="-8.364432533349591"><ele>1841.0</ele><time>2026-04-27T14:10:53Z</time></trkpt><trkpt lat="30.852029263445168" lon="-8.364564098099088"><ele>1841.0</ele><time>2026-04-27T14:10:54.001Z</time></trkpt><trkpt lat="30.85203735157211" lon="-8.36472718091386"><ele>1845.0</ele><time>2026-04-27T14:10:55.001Z</time></trkpt><trkpt lat="30.85205000609311" lon="-8.364917171462029"><ele>1849.0</ele><time>2026-04-27T14:10:56.001Z</time></trkpt><trkpt lat="30.852068423659247" lon="-8.365118082833712"><ele>1853.0</ele><time>2026-04-27T14:10:57.001Z</time></trkpt><trkpt lat="30.852114683027473" lon="-8.365341856480226"><ele>1850.3333333333333</ele><time>2026-04-27T14:10:58.001Z</time></trkpt><trkpt lat="30.852193106968386" lon="-8.365575398699463"><ele>1847.6666666666665</ele><time>2026-04-27T14:10:59.001Z</time></trkpt><trkpt lat="30.852293492755948" lon="-8.365821498092192"><ele>1845.0</ele><time>2026-04-27T14:11:00.001Z</time></trkpt><trkpt lat="30.852383890908857" lon="-8.366057807240459"><ele>1845.0</ele><time>2026-04-27T14:11:01.001Z</time></trkpt><trkpt lat="30.85246794885782" lon="-8.366282536740583"><ele>1845.0</ele><time>2026-04-27T14:11:02.001Z</time></trkpt><trkpt lat="30.852536191826463" lon="-8.366504081956599"><ele>1845.0</ele><time>2026-04-27T14:11:03.001Z</time></trkpt><trkpt lat="30.85258560946127" lon="-8.366720969271139"><ele>1853.3333333333335</ele><time>2026-04-27T14:11:04.001Z</time></trkpt><trkpt lat="30.852627170778767" lon="-8.366935614641706"><ele>1861.6666666666667</ele><time>2026-04-27T14:11:05.001Z</time></trkpt><trkpt lat="30.852662880697437" lon="-8.36714586799602"><ele>1870.0</ele><time>2026-04-27T14:11:06.001Z</time></trkpt><trkpt lat="30.852686633886222" lon="-8.3673626109495"><ele>1870.0</ele><time>2026-04-27T14:11:07.001Z</time></trkpt><trkpt lat="30.85269201845659" lon="-8.367587144585414"><ele>1870.0</ele><time>2026-04-27T14:11:08.001Z</time></trkpt><trkpt lat="30.85267917435639" lon="-8.36782302636419"><ele>1870.0</ele><time>2026-04-27T14:11:09.001Z</time></trkpt><trkpt lat="30.852648440156788" lon="-8.36806188659945"><ele>1853.3333333333335</ele><time>2026-04-27T14:11:10.001Z</time></trkpt><trkpt lat="30.852609023247112" lon="-8.36828965636364"><ele>1836.6666666666665</ele><time>2026-04-27T14:11:11.001Z</time></trkpt><trkpt lat="30.852562983806948" lon="-8.368511837703014"><ele>1820.0</ele><time>2026-04-27T14:11:12.001Z</time></trkpt><trkpt lat="30.85250544207176" lon="-8.36872912133026"><ele>1821.0</ele><time>2026-04-27T14:11:13.001Z</time></trkpt><trkpt lat="30.85243753861836" lon="-8.368944707255043"><ele>1822.0</ele><time>2026-04-27T14:11:14.001Z</time></trkpt><trkpt lat="30.85231734187577" lon="-8.36911711796837"><ele>1823.0</ele><time>2026-04-27T14:11:15.001Z</time></trkpt><trkpt lat="30.852278424978103" lon="-8.369312016979416"><ele>1823.0</ele><time>2026-04-27T14:11:16.001Z</time></trkpt><trkpt lat="30.852252694608545" lon="-8.369478477634843"><ele>1823.0</ele><time>2026-04-27T14:11:17.001Z</time></trkpt><trkpt lat="30.852207655973757" lon="-8.369622311917238"><ele>1823.0</ele><time>2026-04-27T14:11:18.001Z</time></trkpt><trkpt lat="30.85217973071187" lon="-8.369748963949258"><ele>1823.0</ele><time>2026-04-27T14:11:19.001Z</time></trkpt><trkpt lat="30.85217502910302" lon="-8.369878021012541"><ele>1822.25</ele><time>2026-04-27T14:11:20.001Z</time></trkpt><trkpt lat="30.852157620718895" lon="-8.369999271953805"><ele>1821.5</ele><time>2026-04-27T14:11:21.001Z</time></trkpt><trkpt lat="30.85219818913339" lon="-8.370152425069662"><ele>1820.75</ele><time>2026-04-27T14:11:22.001Z</time></trkpt><trkpt lat="30.852302078932336" lon="-8.370281975059525"><ele>1820.0</ele><time>2026-04-27T14:11:23.001Z</time></trkpt><trkpt lat="30.852406544129916" lon="-8.370406478710196"><ele>1820.0</ele><time>2026-04-27T14:11:24.001Z</time></trkpt><trkpt lat="30.85252661465725" lon="-8.370506367847408"><ele>1820.0</ele><time>2026-04-27T14:11:25.001Z</time></trkpt><trkpt lat="30.85263591823021" lon="-8.370600952428276"><ele>1820.0</ele><time>2026-04-27T14:11:26.001Z</time></trkpt><trkpt lat="30.852771544213322" lon="-8.370640156940414"><ele>1820.0</ele><time>2026-04-27T14:11:27.001Z</time></trkpt><trkpt lat="30.85291460188457" lon="-8.37066918504916"><ele>1814.75</ele><time>2026-04-27T14:11:28.001Z</time></trkpt><trkpt lat="30.853045487659127" lon="-8.370671491736125"><ele>1809.5</ele><time>2026-04-27T14:11:29.001Z</time></trkpt><trkpt lat="30.853180357746965" lon="-8.370666885999006"><ele>1804.25</ele><time>2026-04-27T14:11:30.001Z</time></trkpt><trkpt lat="30.853311512009014" lon="-8.370670556100007"><ele>1799.0</ele><time>2026-04-27T14:11:31.001Z</time></trkpt><trkpt lat="30.85343429381572" lon="-8.370704625080416"><ele>1802.25</ele><time>2026-04-27T14:11:32Z</time></trkpt><trkpt lat="30.853561273557034" lon="-8.370741627315956"><ele>1805.5</ele><time>2026-04-27T14:11:33Z</time></trkpt><trkpt lat="30.85369659303532" lon="-8.370782220556103"><ele>1808.75</ele><time>2026-04-27T14:11:34Z</time></trkpt><trkpt lat="30.853836754333585" lon="-8.370830256142948"><ele>1812.0</ele><time>2026-04-27T14:11:35Z</time></trkpt><trkpt lat="30.85397616184218" lon="-8.370934268143577"><ele>1812.0</ele><time>2026-04-27T14:11:36Z</time></trkpt><trkpt lat="30.854109285816612" lon="-8.371043710428678"><ele>1812.0</ele><time>2026-04-27T14:11:37Z</time></trkpt><trkpt lat="30.85423175040699" lon="-8.371150202372018"><ele>1812.0</ele><time>2026-04-27T14:11:38Z</time></trkpt><trkpt lat="30.854347069493613" lon="-8.371247086359908"><ele>1813.6</ele><time>2026-04-27T14:11:39Z</time></trkpt><trkpt lat="30.854453690568803" lon="-8.371328523297791"><ele>1815.1999999999998</ele><time>2026-04-27T14:11:40Z</time></trkpt><trkpt lat="30.85454841154413" lon="-8.371390348737446"><ele>1816.8</ele><time>2026-04-27T14:11:41Z</time></trkpt><trkpt lat="30.854647399595507" lon="-8.371426773003167"><ele>1818.4</ele><time>2026-04-27T14:11:42Z</time></trkpt><trkpt lat="30.85474477445055" lon="-8.37141722708152"><ele>1820.0</ele><time>2026-04-27T14:11:43Z</time></trkpt><trkpt lat="30.8548422947365" lon="-8.371374632269998"><ele>1820.0</ele><time>2026-04-27T14:11:44Z</time></trkpt><trkpt lat="30.854953338907542" lon="-8.371299482475662"><ele>1820.0</ele><time>2026-04-27T14:11:45Z</time></trkpt><trkpt lat="30.855089230486488" lon="-8.371236525532394"><ele>1820.0</ele><time>2026-04-27T14:11:46Z</time></trkpt><trkpt lat="30.85523326724871" lon="-8.37117349874799"><ele>1820.0</ele><time>2026-04-27T14:11:47Z</time></trkpt><trkpt lat="30.855400014367067" lon="-8.371144337150024"><ele>1814.0</ele><time>2026-04-27T14:11:48Z</time></trkpt><trkpt lat="30.855569153508895" lon="-8.371117427138232"><ele>1808.0</ele><time>2026-04-27T14:11:49Z</time></trkpt><trkpt lat="30.85575113331669" lon="-8.371105910950492"><ele>1802.0</ele><time>2026-04-27T14:11:50Z</time></trkpt><trkpt lat="30.85593809703741" lon="-8.371097195078884"><ele>1800.3333333333333</ele><time>2026-04-27T14:11:51Z</time></trkpt><trkpt lat="30.856114214272043" lon="-8.37108993373259"><ele>1798.6666666666665</ele><time>2026-04-27T14:11:52Z</time></trkpt><trkpt lat="30.8562838300327" lon="-8.371058399145157"><ele>1797.0</ele><time>2026-04-27T14:11:53Z</time></trkpt><trkpt lat="30.85642704900459" lon="-8.37096693973966"><ele>1797.0</ele><time>2026-04-27T14:11:54Z</time></trkpt><trkpt lat="30.856549992137584" lon="-8.370899199122324"><ele>1797.0</ele><time>2026-04-27T14:11:55Z</time></trkpt><trkpt lat="30.85666188845193" lon="-8.370826799545153"><ele>1797.0</ele><time>2026-04-27T14:11:56Z</time></trkpt><trkpt lat="30.856750994735137" lon="-8.370757099120794"><ele>1797.0</ele><time>2026-04-27T14:11:57Z</time></trkpt><trkpt lat="30.856844190507843" lon="-8.370718986664809"><ele>1799.6666666666667</ele><time>2026-04-27T14:11:58Z</time></trkpt><trkpt lat="30.85692967589221" lon="-8.370703588463984"><ele>1802.3333333333335</ele><time>2026-04-27T14:11:59Z</time></trkpt><trkpt lat="30.856999991913376" lon="-8.370749173660963"><ele>1805.0</ele><time>2026-04-27T14:12:00Z</time></trkpt><trkpt lat="30.85707140531479" lon="-8.370784103094387"><ele>1807.6666666666667</ele><time>2026-04-27T14:12:01Z</time></trkpt><trkpt lat="30.857142171520902" lon="-8.370829867162206"><ele>1810.3333333333335</ele><time>2026-04-27T14:12:02Z</time></trkpt><trkpt lat="30.85719543487028" lon="-8.37093544870068"><ele>1813.0</ele><time>2026-04-27T14:12:03Z</time></trkpt><trkpt lat="30.857234816466693" lon="-8.37105251088043"><ele>1813.0</ele><time>2026-04-27T14:12:04Z</time></trkpt><trkpt lat="30.857260595496424" lon="-8.371177124753455"><ele>1813.0</ele><time>2026-04-27T14:12:05Z</time></trkpt><trkpt lat="30.85727013005108" lon="-8.37130511918912"><ele>1813.0</ele><time>2026-04-27T14:12:06Z</time></trkpt><trkpt lat="30.857300627882392" lon="-8.371458619108662"><ele>1813.0</ele><time>2026-04-27T14:12:07Z</time></trkpt><trkpt lat="30.85737806947978" lon="-8.371595189693728"><ele>1811.0</ele><time>2026-04-27T14:12:08Z</time></trkpt><trkpt lat="30.857410837522718" lon="-8.371754264447082"><ele>1809.0</ele><time>2026-04-27T14:12:09Z</time></trkpt><trkpt lat="30.857416874655414" lon="-8.371909322577855"><ele>1807.0</ele><time>2026-04-27T14:12:10Z</time></trkpt><trkpt lat="30.857385439032374" lon="-8.372061993370826"><ele>1805.0</ele><time>2026-04-27T14:12:11Z</time></trkpt><trkpt lat="30.85733154560765" lon="-8.372213386253678"><ele>1805.0</ele><time>2026-04-27T14:12:12Z</time></trkpt><trkpt lat="30.857254326909434" lon="-8.37234594939904"><ele>1805.0</ele><time>2026-04-27T14:12:13Z</time></trkpt><trkpt lat="30.85718167171495" lon="-8.372459317984456"><ele>1805.0</ele><time>2026-04-27T14:12:14Z</time></trkpt><trkpt lat="30.85710879388731" lon="-8.372569645546664"><ele>1805.0</ele><time>2026-04-27T14:12:15Z</time></trkpt><trkpt lat="30.85710449829482" lon="-8.372749366315041"><ele>1805.0</ele><time>2026-04-27T14:12:16Z</time></trkpt><trkpt lat="30.85709760932117" lon="-8.372935728679009"><ele>1805.0</ele><time>2026-04-27T14:12:17Z</time></trkpt><trkpt lat="30.857114566281382" lon="-8.373150872267354"><ele>1805.0</ele><time>2026-04-27T14:12:18Z</time></trkpt><trkpt lat="30.85718011667413" lon="-8.373335366485467"><ele>1806.3333333333333</ele><time>2026-04-27T14:12:19Z</time></trkpt><trkpt lat="30.857192129804478" lon="-8.373526829225497"><ele>1807.6666666666665</ele><time>2026-04-27T14:12:20Z</time></trkpt><trkpt lat="30.85720585985834" lon="-8.373728044929164"><ele>1809.0</ele><time>2026-04-27T14:12:21Z</time></trkpt><trkpt lat="30.85722609724191" lon="-8.373942887725509"><ele>1805.3333333333335</ele><time>2026-04-27T14:12:22Z</time></trkpt><trkpt lat="30.857248021486914" lon="-8.374173335618229"><ele>1801.6666666666667</ele><time>2026-04-27T14:12:23Z</time></trkpt><trkpt lat="30.85726758799035" lon="-8.374414600703261"><ele>1798.0</ele><time>2026-04-27T14:12:24Z</time></trkpt><trkpt lat="30.857282223222363" lon="-8.374643966380056"><ele>1793.0</ele><time>2026-04-27T14:12:25Z</time></trkpt><trkpt lat="30.857299431186412" lon="-8.374858820020007"><ele>1788.0</ele><time>2026-04-27T14:12:26Z</time></trkpt><trkpt lat="30.857316851280906" lon="-8.37505362524169"><ele>1783.0</ele><time>2026-04-27T14:12:27Z</time></trkpt><trkpt lat="30.85732985813624" lon="-8.375216524130424"><ele>1783.0</ele><time>2026-04-27T14:12:28Z</time></trkpt><trkpt lat="30.857333024577134" lon="-8.375360199099616"><ele>1783.0</ele><time>2026-04-27T14:12:29Z</time></trkpt><trkpt lat="30.857344227592744" lon="-8.375486558632739"><ele>1783.0</ele><time>2026-04-27T14:12:30Z</time></trkpt><trkpt lat="30.857274993806318" lon="-8.375612744197083"><ele>1783.0</ele><time>2026-04-27T14:12:31Z</time></trkpt><trkpt lat="30.857172931788995" lon="-8.375693490652303"><ele>1786.6666666666667</ele><time>2026-04-27T14:12:32Z</time></trkpt><trkpt lat="30.85707717584118" lon="-8.375830706405065"><ele>1790.3333333333335</ele><time>2026-04-27T14:12:33Z</time></trkpt><trkpt lat="30.856946509017433" lon="-8.375955727064339"><ele>1794.0</ele><time>2026-04-27T14:12:34Z</time></trkpt><trkpt lat="30.856825780870828" lon="-8.376078933172248"><ele>1785.25</ele><time>2026-04-27T14:12:35Z</time></trkpt><trkpt lat="30.856730707559233" lon="-8.376202421644473"><ele>1776.5</ele><time>2026-04-27T14:12:36Z</time></trkpt><trkpt lat="30.85665153084174" lon="-8.376336673199264"><ele>1767.75</ele><time>2026-04-27T14:12:37Z</time></trkpt><trkpt lat="30.85656065559302" lon="-8.37645347203669"><ele>1759.0</ele><time>2026-04-27T14:12:38Z</time></trkpt><trkpt lat="30.856559838671465" lon="-8.376648368332585"><ele>1759.0</ele><time>2026-04-27T14:12:39Z</time></trkpt><trkpt lat="30.856555506024556" lon="-8.37680611524876"><ele>1759.0</ele><time>2026-04-27T14:12:40Z</time></trkpt><trkpt lat="30.856564189921375" lon="-8.376968037203795"><ele>1759.0</ele><time>2026-04-27T14:12:41Z</time></trkpt><trkpt lat="30.85656151512572" lon="-8.377134687273493"><ele>1759.0</ele><time>2026-04-27T14:12:42Z</time></trkpt><trkpt lat="30.856500075251926" lon="-8.377278987741606"><ele>1762.5</ele><time>2026-04-27T14:12:43Z</time></trkpt><trkpt lat="30.8564722189163" lon="-8.377423250242336"><ele>1766.0</ele><time>2026-04-27T14:12:44Z</time></trkpt><trkpt lat="30.856441507544307" lon="-8.377571684723584"><ele>1769.5</ele><time>2026-04-27T14:12:45Z</time></trkpt><trkpt lat="30.856412037401" lon="-8.37772500639655"><ele>1773.0</ele><time>2026-04-27T14:12:46Z</time></trkpt><trkpt lat="30.85632163963709" lon="-8.377863072841212"><ele>1773.0</ele><time>2026-04-27T14:12:47Z</time></trkpt><trkpt lat="30.856194645505052" lon="-8.3779930448567"><ele>1773.0</ele><time>2026-04-27T14:12:48Z</time></trkpt><trkpt lat="30.856047104854287" lon="-8.378130901121391"><ele>1773.0</ele><time>2026-04-27T14:12:49Z</time></trkpt><trkpt lat="30.855891461508588" lon="-8.378252293335697"><ele>1763.6666666666665</ele><time>2026-04-27T14:12:50Z</time></trkpt><trkpt lat="30.85574439563716" lon="-8.378352159514643"><ele>1754.3333333333333</ele><time>2026-04-27T14:12:51Z</time></trkpt><trkpt lat="30.85560436955646" lon="-8.378438510486383"><ele>1745.0</ele><time>2026-04-27T14:12:52Z</time></trkpt><trkpt lat="30.855479139972548" lon="-8.37850698043739"><ele>1745.0</ele><time>2026-04-27T14:12:53Z</time></trkpt><trkpt lat="30.85537176702163" lon="-8.378569939839748"><ele>1745.0</ele><time>2026-04-27T14:12:54Z</time></trkpt><trkpt lat="30.85527994932737" lon="-8.378642290650747"><ele>1745.0</ele><time>2026-04-27T14:12:55Z</time></trkpt><trkpt lat="30.855209755411146" lon="-8.378726558216911"><ele>1745.0</ele><time>2026-04-27T14:12:56Z</time></trkpt><trkpt lat="30.85511574606715" lon="-8.378774426820561"><ele>1745.0</ele><time>2026-04-27T14:12:57Z</time></trkpt><trkpt lat="30.855076365918485" lon="-8.37893820960004"><ele>1747.0</ele><time>2026-04-27T14:12:58Z</time></trkpt><trkpt lat="30.855084417534858" lon="-8.379048657789792"><ele>1749.0</ele><time>2026-04-27T14:12:59Z</time></trkpt><trkpt lat="30.855268941009605" lon="-8.37912558328989"><ele>1751.0</ele><time>2026-04-27T14:13:00Z</time></trkpt><trkpt lat="30.85536897002254" lon="-8.379199524067115"><ele>1753.0</ele><time>2026-04-27T14:13:01Z</time></trkpt><trkpt lat="30.855483736804807" lon="-8.379272548265124"><ele>1753.0</ele><time>2026-04-27T14:13:02Z</time></trkpt><trkpt lat="30.855592381915784" lon="-8.37936099092927"><ele>1753.0</ele><time>2026-04-27T14:13:03Z</time></trkpt><trkpt lat="30.855667758781337" lon="-8.379464770935888"><ele>1753.0</ele><time>2026-04-27T14:13:04Z</time></trkpt><trkpt lat="30.85571415950068" lon="-8.379591554022364"><ele>1753.0</ele><time>2026-04-27T14:13:05Z</time></trkpt><trkpt lat="30.85574483733347" lon="-8.379753009670186"><ele>1747.25</ele><time>2026-04-27T14:13:06Z</time></trkpt><trkpt lat="30.85574532888739" lon="-8.379941652448396"><ele>1741.5</ele><time>2026-04-27T14:13:07Z</time></trkpt><trkpt lat="30.855815437254606" lon="-8.380080651432426"><ele>1735.75</ele><time>2026-04-27T14:13:08Z</time></trkpt><trkpt lat="30.855917520724027" lon="-8.38019266279496"><ele>1730.0</ele><time>2026-04-27T14:13:09Z</time></trkpt><trkpt lat="30.85602089862356" lon="-8.380289841535118"><ele>1740.75</ele><time>2026-04-27T14:13:10Z</time></trkpt><trkpt lat="30.85611010369298" lon="-8.38038464932233"><ele>1751.5</ele><time>2026-04-27T14:13:11Z</time></trkpt><trkpt lat="30.856155594537093" lon="-8.380500854755187"><ele>1762.25</ele><time>2026-04-27T14:13:12Z</time></trkpt><trkpt lat="30.85620252216961" lon="-8.38062905152992"><ele>1773.0</ele><time>2026-04-27T14:13:13Z</time></trkpt><trkpt lat="30.856132760425474" lon="-8.380811192562232"><ele>1773.0</ele><time>2026-04-27T14:13:14Z</time></trkpt><trkpt lat="30.856058666360713" lon="-8.380970709754827"><ele>1773.0</ele><time>2026-04-27T14:13:15Z</time></trkpt><trkpt lat="30.85605392505261" lon="-8.381141758951635"><ele>1773.0</ele><time>2026-04-27T14:13:16Z</time></trkpt><trkpt lat="30.8560207158586" lon="-8.381294671517706"><ele>1773.0</ele><time>2026-04-27T14:13:17Z</time></trkpt><trkpt lat="30.855981634015414" lon="-8.381432779027717"><ele>1762.0</ele><time>2026-04-27T14:13:18Z</time></trkpt><trkpt lat="30.855932314424603" lon="-8.381556442854444"><ele>1751.0</ele><time>2026-04-27T14:13:19Z</time></trkpt><trkpt lat="30.855866581237777" lon="-8.381652486765043"><ele>1740.0</ele><time>2026-04-27T14:13:20Z</time></trkpt><trkpt lat="30.855772724495697" lon="-8.381714350054484"><ele>1729.0</ele><time>2026-04-27T14:13:21Z</time></trkpt><trkpt lat="30.855652988755722" lon="-8.38175863161893"><ele>1729.0</ele><time>2026-04-27T14:13:22Z</time></trkpt><trkpt lat="30.855515790107525" lon="-8.381804018398098"><ele>1729.0</ele><time>2026-04-27T14:13:23Z</time></trkpt><trkpt lat="30.855377879498644" lon="-8.381844254507408"><ele>1729.0</ele><time>2026-04-27T14:13:24Z</time></trkpt><trkpt lat="30.85525062761837" lon="-8.38187220861968"><ele>1729.0</ele><time>2026-04-27T14:13:25Z</time></trkpt><trkpt lat="30.855134003938325" lon="-8.381894113404002"><ele>1728.8000000000002</ele><time>2026-04-27T14:13:26Z</time></trkpt><trkpt lat="30.855026061917165" lon="-8.381920909493964"><ele>1728.6000000000001</ele><time>2026-04-27T14:13:27Z</time></trkpt><trkpt lat="30.854939037993987" lon="-8.381949981739101"><ele>1728.4</ele><time>2026-04-27T14:13:28Z</time></trkpt><trkpt lat="30.85486222268974" lon="-8.38195853866653"><ele>1728.2</ele><time>2026-04-27T14:13:29Z</time></trkpt><trkpt lat="30.85478262343491" lon="-8.382069841072225"><ele>1728.0</ele><time>2026-04-27T14:13:30Z</time></trkpt><trkpt lat="30.854714726322538" lon="-8.382187659439655"><ele>1728.0</ele><time>2026-04-27T14:13:31Z</time></trkpt><trkpt lat="30.854660036409534" lon="-8.382280002806462"><ele>1728.0</ele><time>2026-04-27T14:13:32Z</time></trkpt><trkpt lat="30.85461387693322" lon="-8.382353285708833"><ele>1728.0</ele><time>2026-04-27T14:13:33Z</time></trkpt><trkpt lat="30.854584878427442" lon="-8.382423732583522"><ele>1728.0</ele><time>2026-04-27T14:13:34Z</time></trkpt><trkpt lat="30.85456133038463" lon="-8.38252366072356"><ele>1728.0</ele><time>2026-04-27T14:13:35Z</time></trkpt><trkpt lat="30.854548903326396" lon="-8.382623408569385"><ele>1728.0</ele><time>2026-04-27T14:13:36Z</time></trkpt><trkpt lat="30.854554613328858" lon="-8.38271511890451"><ele>1728.0</ele><time>2026-04-27T14:13:37Z</time></trkpt><trkpt lat="30.854579850705782" lon="-8.382821262867846"><ele>1728.0</ele><time>2026-04-27T14:13:38Z</time></trkpt><trkpt lat="30.85463182969929" lon="-8.382961736558748"><ele>1728.0</ele><time>2026-04-27T14:13:39Z</time></trkpt><trkpt lat="30.8547025051371" lon="-8.383114863455567"><ele>1728.0</ele><time>2026-04-27T14:13:40Z</time></trkpt><trkpt lat="30.854775220656943" lon="-8.383260191831363"><ele>1726.0</ele><time>2026-04-27T14:13:41Z</time></trkpt><trkpt lat="30.85482424891354" lon="-8.383399307899523"><ele>1724.0</ele><time>2026-04-27T14:13:42Z</time></trkpt><trkpt lat="30.854842694473135" lon="-8.383549223480525"><ele>1722.0</ele><time>2026-04-27T14:13:43Z</time></trkpt><trkpt lat="30.854844737547097" lon="-8.383705078550413"><ele>1720.0</ele><time>2026-04-27T14:13:44Z</time></trkpt><trkpt lat="30.854850221525304" lon="-8.38385653900902"><ele>1717.25</ele><time>2026-04-27T14:13:45Z</time></trkpt><trkpt lat="30.854854508121296" lon="-8.383993047381743"><ele>1714.5</ele><time>2026-04-27T14:13:46Z</time></trkpt><trkpt lat="30.8548499842344" lon="-8.384122053712739"><ele>1711.75</ele><time>2026-04-27T14:13:47Z</time></trkpt><trkpt lat="30.854859076199194" lon="-8.384248278870666"><ele>1709.0</ele><time>2026-04-27T14:13:48Z</time></trkpt><trkpt lat="30.854955808657756" lon="-8.3843529080413"><ele>1709.0</ele><time>2026-04-27T14:13:49Z</time></trkpt><trkpt lat="30.855008106474585" lon="-8.384440339501015"><ele>1709.0</ele><time>2026-04-27T14:13:50Z</time></trkpt><trkpt lat="30.855074962523158" lon="-8.38454367631998"><ele>1709.0</ele><time>2026-04-27T14:13:51Z</time></trkpt><trkpt lat="30.855162784075567" lon="-8.38459864758292"><ele>1709.0</ele><time>2026-04-27T14:13:52Z</time></trkpt><trkpt lat="30.855271130244933" lon="-8.384676881453254"><ele>1709.0</ele><time>2026-04-27T14:13:53Z</time></trkpt><trkpt lat="30.85536772055781" lon="-8.384775967384336"><ele>1713.25</ele><time>2026-04-27T14:13:54Z</time></trkpt><trkpt lat="30.855436504512966" lon="-8.384966100792859"><ele>1717.5</ele><time>2026-04-27T14:13:55Z</time></trkpt><trkpt lat="30.855453713678855" lon="-8.385100087296848"><ele>1721.75</ele><time>2026-04-27T14:13:56Z</time></trkpt><trkpt lat="30.855479977881803" lon="-8.385233589967282"><ele>1726.0</ele><time>2026-04-27T14:13:57Z</time></trkpt><trkpt lat="30.85552789882546" lon="-8.385405996782806"><ele>1717.75</ele><time>2026-04-27T14:13:58Z</time></trkpt><trkpt lat="30.85558463935752" lon="-8.385589537158815"><ele>1709.5</ele><time>2026-04-27T14:13:59Z</time></trkpt><trkpt lat="30.85564299908109" lon="-8.385733528787599"><ele>1701.25</ele><time>2026-04-27T14:14:00Z</time></trkpt><trkpt lat="30.855700425667475" lon="-8.385842684281098"><ele>1693.0</ele><time>2026-04-27T14:14:01Z</time></trkpt><trkpt lat="30.855763640859244" lon="-8.385902729111463"><ele>1693.0</ele><time>2026-04-27T14:14:02Z</time></trkpt><trkpt lat="30.855842720440727" lon="-8.385992306511096"><ele>1693.0</ele><time>2026-04-27T14:14:03Z</time></trkpt><trkpt lat="30.855959112932368" lon="-8.386072211528166"><ele>1693.0</ele><time>2026-04-27T14:14:04Z</time></trkpt><trkpt lat="30.85606034096193" lon="-8.386184411185358"><ele>1693.0</ele><time>2026-04-27T14:14:05Z</time></trkpt><trkpt lat="30.85615040840568" lon="-8.386283892554667"><ele>1697.25</ele><time>2026-04-27T14:14:06Z</time></trkpt><trkpt lat="30.856230280614806" lon="-8.386372643799413"><ele>1701.5</ele><time>2026-04-27T14:14:07Z</time></trkpt><trkpt lat="30.856286903661804" lon="-8.386485666339027"><ele>1705.75</ele><time>2026-04-27T14:14:08Z</time></trkpt><trkpt lat="30.856320225399116" lon="-8.386613458456889"><ele>1710.0</ele><time>2026-04-27T14:14:09Z</time></trkpt><trkpt lat="30.856330257159478" lon="-8.386768365868825"><ele>1710.0</ele><time>2026-04-27T14:14:10Z</time></trkpt><trkpt lat="30.8563308822464" lon="-8.386922762649908"><ele>1710.0</ele><time>2026-04-27T14:14:11Z</time></trkpt><trkpt lat="30.856331482217897" lon="-8.387090429530367"><ele>1710.0</ele><time>2026-04-27T14:14:12Z</time></trkpt><trkpt lat="30.856336035207427" lon="-8.387250608301882"><ele>1710.0</ele><time>2026-04-27T14:14:13Z</time></trkpt><trkpt lat="30.85635475173438" lon="-8.387380092613562"><ele>1705.4</ele><time>2026-04-27T14:14:14Z</time></trkpt><trkpt lat="30.856383773831404" lon="-8.387501986218789"><ele>1700.8</ele><time>2026-04-27T14:14:15Z</time></trkpt><trkpt lat="30.856444841504686" lon="-8.387558729904017"><ele>1696.1999999999998</ele><time>2026-04-27T14:14:16Z</time></trkpt><trkpt lat="30.856505397647375" lon="-8.387609307619186"><ele>1691.6</ele><time>2026-04-27T14:14:17Z</time></trkpt><trkpt lat="30.85657028339576" lon="-8.387671449127987"><ele>1687.0</ele><time>2026-04-27T14:14:18Z</time></trkpt><trkpt lat="30.856665155213015" lon="-8.387749883642"><ele>1687.0</ele><time>2026-04-27T14:14:19Z</time></trkpt><trkpt lat="30.856704729990444" lon="-8.387809723043324"><ele>1687.0</ele><time>2026-04-27T14:14:20Z</time></trkpt><trkpt lat="30.856783692121954" lon="-8.387929117647813"><ele>1687.0</ele><time>2026-04-27T14:14:22Z</time></trkpt><trkpt lat="30.856834663857807" lon="-8.388006190031568"><ele>1687.0</ele><time>2026-04-27T14:14:23Z</time></trkpt><trkpt lat="30.85688458107495" lon="-8.388141603616207"><ele>1687.0</ele><time>2026-04-27T14:14:24Z</time></trkpt><trkpt lat="30.856927391529435" lon="-8.388305622279326"><ele>1686.0</ele><time>2026-04-27T14:14:25Z</time></trkpt><trkpt lat="30.856974662092085" lon="-8.38845552964827"><ele>1685.0</ele><time>2026-04-27T14:14:26Z</time></trkpt><trkpt lat="30.85704324913915" lon="-8.388616630493875"><ele>1684.0</ele><time>2026-04-27T14:14:27Z</time></trkpt><trkpt lat="30.85715890225692" lon="-8.388703569041057"><ele>1683.0</ele><time>2026-04-27T14:14:28Z</time></trkpt><trkpt lat="30.857301103434786" lon="-8.388798188485687"><ele>1675.0</ele><time>2026-04-27T14:14:29Z</time></trkpt><trkpt lat="30.85748030505755" lon="-8.38888765454791"><ele>1667.0</ele><time>2026-04-27T14:14:30Z</time></trkpt><trkpt lat="30.85765682882837" lon="-8.388999960330864"><ele>1659.0</ele><time>2026-04-27T14:14:31Z</time></trkpt><trkpt lat="30.85781685267764" lon="-8.38912758232075"><ele>1657.3333333333335</ele><time>2026-04-27T14:14:32Z</time></trkpt><trkpt lat="30.85795352658299" lon="-8.38924678065136"><ele>1655.6666666666667</ele><time>2026-04-27T14:14:33Z</time></trkpt><trkpt lat="30.85808959638386" lon="-8.389368677264534"><ele>1654.0</ele><time>2026-04-27T14:14:34Z</time></trkpt><trkpt lat="30.85821555331167" lon="-8.38945561986129"><ele>1654.0</ele><time>2026-04-27T14:14:35Z</time></trkpt><trkpt lat="30.85832881872247" lon="-8.389511867865329"><ele>1654.0</ele><time>2026-04-27T14:14:36Z</time></trkpt><trkpt lat="30.858430526815575" lon="-8.389559475649467"><ele>1654.0</ele><time>2026-04-27T14:14:37Z</time></trkpt><trkpt lat="30.858522515881365" lon="-8.389635048740232"><ele>1654.0</ele><time>2026-04-27T14:14:38Z</time></trkpt><trkpt lat="30.858590783391538" lon="-8.389738153891143"><ele>1645.3333333333335</ele><time>2026-04-27T14:14:39Z</time></trkpt><trkpt lat="30.85862382438702" lon="-8.38988383951673"><ele>1636.6666666666665</ele><time>2026-04-27T14:14:40Z</time></trkpt><trkpt lat="30.858612382280036" lon="-8.390059126362896"><ele>1628.0</ele><time>2026-04-27T14:14:41Z</time></trkpt><trkpt lat="30.858537646749497" lon="-8.390247310023007"><ele>1625.5</ele><time>2026-04-27T14:14:42Z</time></trkpt><trkpt lat="30.85844806627603" lon="-8.39041151316141"><ele>1623.0</ele><time>2026-04-27T14:14:43Z</time></trkpt><trkpt lat="30.85833240354978" lon="-8.390521133861117"><ele>1620.5</ele><time>2026-04-27T14:14:44Z</time></trkpt><trkpt lat="30.858214632102417" lon="-8.390593141307056"><ele>1618.0</ele><time>2026-04-27T14:14:45Z</time></trkpt><trkpt lat="30.858089066685547" lon="-8.390616787131052"><ele>1618.0</ele><time>2026-04-27T14:14:46Z</time></trkpt><trkpt lat="30.857964150586863" lon="-8.390616967138316"><ele>1618.0</ele><time>2026-04-27T14:14:47Z</time></trkpt><trkpt lat="30.857856491598636" lon="-8.390575531010908"><ele>1618.0</ele><time>2026-04-27T14:14:48Z</time></trkpt><trkpt lat="30.8577864766952" lon="-8.390491704899697"><ele>1618.0</ele><time>2026-04-27T14:14:49Z</time></trkpt><trkpt lat="30.857751447960336" lon="-8.390369792797962"><ele>1618.0</ele><time>2026-04-27T14:14:50Z</time></trkpt><trkpt lat="30.857754956661353" lon="-8.390226885910332"><ele>1624.8000000000002</ele><time>2026-04-27T14:14:51Z</time></trkpt><trkpt lat="30.857787152812936" lon="-8.390064029802057"><ele>1631.6</ele><time>2026-04-27T14:14:52Z</time></trkpt><trkpt lat="30.857805563711658" lon="-8.389915434848234"><ele>1638.4</ele><time>2026-04-27T14:14:53Z</time></trkpt><trkpt lat="30.857795277183513" lon="-8.389812202934888"><ele>1645.1999999999998</ele><time>2026-04-27T14:14:54Z</time></trkpt><trkpt lat="30.857763082016504" lon="-8.389739190865544"><ele>1652.0</ele><time>2026-04-27T14:14:55Z</time></trkpt><trkpt lat="30.857737992553037" lon="-8.389645166563778"><ele>1652.3999999999999</ele><time>2026-04-27T14:14:56Z</time></trkpt><trkpt lat="30.857664353177835" lon="-8.389528867130858"><ele>1652.8</ele><time>2026-04-27T14:14:57Z</time></trkpt><trkpt lat="30.85758445836355" lon="-8.389439014691993"><ele>1653.2</ele><time>2026-04-27T14:14:58Z</time></trkpt><trkpt lat="30.857491721004692" lon="-8.389374061624311"><ele>1653.6</ele><time>2026-04-27T14:14:59Z</time></trkpt><trkpt lat="30.857425345130242" lon="-8.389303904181507"><ele>1654.0</ele><time>2026-04-27T14:15:00Z</time></trkpt><trkpt lat="30.85734474098543" lon="-8.389254390572217"><ele>1655.25</ele><time>2026-04-27T14:15:01Z</time></trkpt><trkpt lat="30.85722925301017" lon="-8.389210337045904"><ele>1656.5</ele><time>2026-04-27T14:15:02Z</time></trkpt><trkpt lat="30.85707718707785" lon="-8.389165311249439"><ele>1657.75</ele><time>2026-04-27T14:15:03Z</time></trkpt><trkpt lat="30.856911835555284" lon="-8.389128343809508"><ele>1659.0</ele><time>2026-04-27T14:15:04Z</time></trkpt><trkpt lat="30.856775252550296" lon="-8.389086148398334"><ele>1660.0</ele><time>2026-04-27T14:15:05Z</time></trkpt><trkpt lat="30.856673610545805" lon="-8.389024584265076"><ele>1661.0</ele><time>2026-04-27T14:15:06Z</time></trkpt><trkpt lat="30.856603693626635" lon="-8.388944394286739"><ele>1662.0</ele><time>2026-04-27T14:15:07Z</time></trkpt><trkpt lat="30.856542196362103" lon="-8.3888322566958"><ele>1663.0</ele><time>2026-04-27T14:15:08Z</time></trkpt><trkpt lat="30.856491578878266" lon="-8.388702427369934"><ele>1664.0</ele><time>2026-04-27T14:15:09Z</time></trkpt><trkpt lat="30.856444211443677" lon="-8.388613975291422"><ele>1664.0</ele><time>2026-04-27T14:15:10Z</time></trkpt><trkpt lat="30.856345102824015" lon="-8.388567133951515"><ele>1664.0</ele><time>2026-04-27T14:15:12Z</time></trkpt><trkpt lat="30.85624666981229" lon="-8.388596953236135"><ele>1664.0</ele><time>2026-04-27T14:15:14Z</time></trkpt><trkpt lat="30.85615608778721" lon="-8.388601886668381"><ele>1664.0</ele><time>2026-04-27T14:15:15Z</time></trkpt><trkpt lat="30.856052899529494" lon="-8.388592746521473"><ele>1664.0</ele><time>2026-04-27T14:15:16Z</time></trkpt><trkpt lat="30.85594844280072" lon="-8.388581967292799"><ele>1653.5</ele><time>2026-04-27T14:15:17Z</time></trkpt><trkpt lat="30.85587151336382" lon="-8.388527395334329"><ele>1643.0</ele><time>2026-04-27T14:15:18Z</time></trkpt><trkpt lat="30.855817562304907" lon="-8.388418022392422"><ele>1632.5</ele><time>2026-04-27T14:15:19Z</time></trkpt><trkpt lat="30.85578530802108" lon="-8.388245314804852"><ele>1622.0</ele><time>2026-04-27T14:15:20Z</time></trkpt><trkpt lat="30.855757685124892" lon="-8.388063931949013"><ele>1627.6666666666665</ele><time>2026-04-27T14:15:21Z</time></trkpt><trkpt lat="30.85572238064749" lon="-8.387879797025118"><ele>1633.3333333333335</ele><time>2026-04-27T14:15:22Z</time></trkpt><trkpt lat="30.855688181738785" lon="-8.387693570315395"><ele>1639.0</ele><time>2026-04-27T14:15:23Z</time></trkpt><trkpt lat="30.85566583490749" lon="-8.387510041897066"><ele>1639.0</ele><time>2026-04-27T14:15:24Z</time></trkpt><trkpt lat="30.85566736289181" lon="-8.387345780438032"><ele>1639.0</ele><time>2026-04-27T14:15:25Z</time></trkpt><trkpt lat="30.855671073947885" lon="-8.387188512195735"><ele>1639.0</ele><time>2026-04-27T14:15:26Z</time></trkpt><trkpt lat="30.855646777791595" lon="-8.387050736020596"><ele>1639.0</ele><time>2026-04-27T14:15:27Z</time></trkpt><trkpt lat="30.85561221586077" lon="-8.386941546861053"><ele>1644.2</ele><time>2026-04-27T14:15:28Z</time></trkpt><trkpt lat="30.855568481170238" lon="-8.38685969865011"><ele>1649.4</ele><time>2026-04-27T14:15:29Z</time></trkpt><trkpt lat="30.855509072973295" lon="-8.3867893893912"><ele>1654.6</ele><time>2026-04-27T14:15:30Z</time></trkpt><trkpt lat="30.855411446604375" lon="-8.386745051304025"><ele>1659.8</ele><time>2026-04-27T14:15:31Z</time></trkpt><trkpt lat="30.855302839617263" lon="-8.386652691998618"><ele>1665.0</ele><time>2026-04-27T14:15:32Z</time></trkpt><trkpt lat="30.855179493718143" lon="-8.386563170839068"><ele>1659.6666666666665</ele><time>2026-04-27T14:15:33Z</time></trkpt><trkpt lat="30.855064533331937" lon="-8.386457029684273"><ele>1654.3333333333333</ele><time>2026-04-27T14:15:34Z</time></trkpt><trkpt lat="30.854954997966242" lon="-8.386322222113368"><ele>1649.0</ele><time>2026-04-27T14:15:35Z</time></trkpt><trkpt lat="30.854859524564123" lon="-8.386177854462572"><ele>1649.0</ele><time>2026-04-27T14:15:36Z</time></trkpt><trkpt lat="30.854774059195897" lon="-8.386028448649325"><ele>1649.0</ele><time>2026-04-27T14:15:37Z</time></trkpt><trkpt lat="30.854676730351013" lon="-8.385888034823267"><ele>1649.0</ele><time>2026-04-27T14:15:38Z</time></trkpt><trkpt lat="30.854558480029596" lon="-8.385788100316951"><ele>1649.0</ele><time>2026-04-27T14:15:39Z</time></trkpt><trkpt lat="30.854422822876117" lon="-8.38569233552693"><ele>1649.0</ele><time>2026-04-27T14:15:40Z</time></trkpt><trkpt lat="30.85429711120493" lon="-8.38558141719229"><ele>1649.0</ele><time>2026-04-27T14:15:41Z</time></trkpt><trkpt lat="30.854185694565217" lon="-8.385464707445516"><ele>1645.0</ele><time>2026-04-27T14:15:42Z</time></trkpt><trkpt lat="30.85407979858599" lon="-8.385354254394132"><ele>1641.0</ele><time>2026-04-27T14:15:43Z</time></trkpt><trkpt lat="30.853988410437715" lon="-8.385261670783718"><ele>1637.0</ele><time>2026-04-27T14:15:44Z</time></trkpt><trkpt lat="30.85391615510731" lon="-8.385177747362007"><ele>1633.0</ele><time>2026-04-27T14:15:45Z</time></trkpt><trkpt lat="30.853874666468137" lon="-8.385087994528085"><ele>1633.0</ele><time>2026-04-27T14:15:46Z</time></trkpt><trkpt lat="30.85385713378701" lon="-8.384967493522861"><ele>1633.0</ele><time>2026-04-27T14:15:47Z</time></trkpt><trkpt lat="30.853858907304147" lon="-8.38481083258384"><ele>1633.0</ele><time>2026-04-27T14:15:48Z</time></trkpt><trkpt lat="30.85384675349441" lon="-8.3846462091706"><ele>1633.0</ele><time>2026-04-27T14:15:49Z</time></trkpt><trkpt lat="30.853826523032293" lon="-8.384470837901645"><ele>1638.5</ele><time>2026-04-27T14:15:50Z</time></trkpt><trkpt lat="30.85380386351683" lon="-8.384309532148336"><ele>1644.0</ele><time>2026-04-27T14:15:51Z</time></trkpt><trkpt lat="30.85378209990755" lon="-8.384178485573049"><ele>1649.5</ele><time>2026-04-27T14:15:52Z</time></trkpt><trkpt lat="30.85376428079038" lon="-8.384063107177786"><ele>1655.0</ele><time>2026-04-27T14:15:53Z</time></trkpt><trkpt lat="30.85374468329665" lon="-8.383949220072616"><ele>1659.0</ele><time>2026-04-27T14:15:54Z</time></trkpt><trkpt lat="30.853704097459428" lon="-8.383827333082662"><ele>1663.0</ele><time>2026-04-27T14:15:55Z</time></trkpt><trkpt lat="30.853634768084582" lon="-8.383698547688818"><ele>1667.0</ele><time>2026-04-27T14:15:56Z</time></trkpt><trkpt lat="30.85353418747192" lon="-8.383576249420763"><ele>1671.0</ele><time>2026-04-27T14:15:57Z</time></trkpt><trkpt lat="30.85339911763325" lon="-8.383453447653674"><ele>1651.0</ele><time>2026-04-27T14:15:58Z</time></trkpt><trkpt lat="30.85325783490681" lon="-8.383325562761478"><ele>1631.0</ele><time>2026-04-27T14:15:59Z</time></trkpt><trkpt lat="30.85313221773248" lon="-8.38320555974897"><ele>1611.0</ele><time>2026-04-27T14:16:00Z</time></trkpt><trkpt lat="30.85302264536613" lon="-8.38308305843307"><ele>1614.75</ele><time>2026-04-27T14:16:01Z</time></trkpt><trkpt lat="30.85292634164575" lon="-8.382962235120205"><ele>1618.5</ele><time>2026-04-27T14:16:02Z</time></trkpt><trkpt lat="30.8528366258983" lon="-8.382842778860267"><ele>1622.25</ele><time>2026-04-27T14:16:03Z</time></trkpt><trkpt lat="30.85276637044629" lon="-8.38273647194257"><ele>1626.0</ele><time>2026-04-27T14:16:04Z</time></trkpt><trkpt lat="30.852718637654192" lon="-8.382628769368807"><ele>1626.0</ele><time>2026-04-27T14:16:05Z</time></trkpt><trkpt lat="30.852703844232572" lon="-8.38250404872471"><ele>1626.0</ele><time>2026-04-27T14:16:06Z</time></trkpt><trkpt lat="30.85272267557248" lon="-8.382365986627452"><ele>1626.0</ele><time>2026-04-27T14:16:07Z</time></trkpt><trkpt lat="30.85277001405221" lon="-8.382238602076951"><ele>1626.0</ele><time>2026-04-27T14:16:08Z</time></trkpt><trkpt lat="30.8528091015957" lon="-8.38211257652064"><ele>1621.1999999999998</ele><time>2026-04-27T14:16:09Z</time></trkpt><trkpt lat="30.85292293941147" lon="-8.381998646072947"><ele>1616.3999999999999</ele><time>2026-04-27T14:16:10Z</time></trkpt><trkpt lat="30.85300718211157" lon="-8.381905827574736"><ele>1611.6</ele><time>2026-04-27T14:16:11Z</time></trkpt><trkpt lat="30.85307603041983" lon="-8.381833340512992"><ele>1606.8</ele><time>2026-04-27T14:16:12Z</time></trkpt><trkpt lat="30.85313878604594" lon="-8.381772993729054"><ele>1602.0</ele><time>2026-04-27T14:16:13Z</time></trkpt><trkpt lat="30.85319381606987" lon="-8.381719957490771"><ele>1602.0</ele><time>2026-04-27T14:16:14Z</time></trkpt><trkpt lat="30.853245370870333" lon="-8.381670237360414"><ele>1602.0</ele><time>2026-04-27T14:16:15Z</time></trkpt><trkpt lat="30.853294260371232" lon="-8.38162308229636"><ele>1602.0</ele><time>2026-04-27T14:16:16Z</time></trkpt><trkpt lat="30.85338400596209" lon="-8.381536224385476"><ele>1602.0</ele><time>2026-04-27T14:16:18Z</time></trkpt><trkpt lat="30.853447349676006" lon="-8.38147554240401"><ele>1602.0</ele><time>2026-04-27T14:16:20Z</time></trkpt><trkpt lat="30.8535033271629" lon="-8.381421916986564"><ele>1602.0</ele><time>2026-04-27T14:16:22Z</time></trkpt><trkpt lat="30.853572979602433" lon="-8.381355164056457"><ele>1604.1999999999998</ele><time>2026-04-27T14:16:24Z</time></trkpt><trkpt lat="30.853621432008445" lon="-8.38130722119326"><ele>1606.4</ele><time>2026-04-27T14:16:42Z</time></trkpt><trkpt lat="30.85370392139627" lon="-8.381220777232038"><ele>1608.6</ele><time>2026-04-27T14:17:29Z</time></trkpt><trkpt lat="30.853805221449417" lon="-8.381111755252933"><ele>1610.8000000000002</ele><time>2026-04-27T14:17:31Z</time></trkpt><trkpt lat="30.853872516588897" lon="-8.381023028679131"><ele>1613.0</ele><time>2026-04-27T14:17:32Z</time></trkpt><trkpt lat="30.853926533738388" lon="-8.380894273739813"><ele>1613.0</ele><time>2026-04-27T14:17:33Z</time></trkpt><trkpt lat="30.85396525943642" lon="-8.380777870327881"><ele>1613.0</ele><time>2026-04-27T14:17:34Z</time></trkpt><trkpt lat="30.85398323953531" lon="-8.380674628594587"><ele>1613.0</ele><time>2026-04-27T14:17:35Z</time></trkpt><trkpt lat="30.853979766811452" lon="-8.380571076360685"><ele>1613.0</ele><time>2026-04-27T14:17:36Z</time></trkpt><trkpt lat="30.853956264541793" lon="-8.380452874712184"><ele>1613.0</ele><time>2026-04-27T14:17:37Z</time></trkpt><trkpt lat="30.85390102289163" lon="-8.380356072454093"><ele>1617.25</ele><time>2026-04-27T14:17:38Z</time></trkpt><trkpt lat="30.85380783192034" lon="-8.380255461821323"><ele>1621.5</ele><time>2026-04-27T14:17:39Z</time></trkpt><trkpt lat="30.85370215035255" lon="-8.380141011848297"><ele>1625.75</ele><time>2026-04-27T14:17:40Z</time></trkpt><trkpt lat="30.853608338894652" lon="-8.380018765499988"><ele>1630.0</ele><time>2026-04-27T14:17:41Z</time></trkpt><trkpt lat="30.85351150732637" lon="-8.379887384361197"><ele>1626.0</ele><time>2026-04-27T14:17:42Z</time></trkpt><trkpt lat="30.853429438818214" lon="-8.379753969687066"><ele>1622.0</ele><time>2026-04-27T14:17:43Z</time></trkpt><trkpt lat="30.85336271554184" lon="-8.3796363955689"><ele>1618.0</ele><time>2026-04-27T14:17:44Z</time></trkpt><trkpt lat="30.853310616059325" lon="-8.379514498795974"><ele>1614.0</ele><time>2026-04-27T14:17:45Z</time></trkpt><trkpt lat="30.853258461178797" lon="-8.379379776164804"><ele>1614.0</ele><time>2026-04-27T14:17:46Z</time></trkpt><trkpt lat="30.853195903948908" lon="-8.379240711216895"><ele>1614.0</ele><time>2026-04-27T14:17:47Z</time></trkpt><trkpt lat="30.853125610761914" lon="-8.379092267300926"><ele>1614.0</ele><time>2026-04-27T14:17:48Z</time></trkpt><trkpt lat="30.85305197646431" lon="-8.378970173254555"><ele>1614.0</ele><time>2026-04-27T14:17:49Z</time></trkpt><trkpt lat="30.852991407126506" lon="-8.378859916613235"><ele>1615.6</ele><time>2026-04-27T14:17:50Z</time></trkpt><trkpt lat="30.85294724930002" lon="-8.378759547416971"><ele>1617.2</ele><time>2026-04-27T14:17:51Z</time></trkpt><trkpt lat="30.852916608142067" lon="-8.378665328528221"><ele>1618.8</ele><time>2026-04-27T14:17:52Z</time></trkpt><trkpt lat="30.852895510484903" lon="-8.378571354299833"><ele>1620.3999999999999</ele><time>2026-04-27T14:17:53Z</time></trkpt><trkpt lat="30.85288553782227" lon="-8.378461350169134"><ele>1622.0</ele><time>2026-04-27T14:17:54Z</time></trkpt><trkpt lat="30.852895477535668" lon="-8.378338751586178"><ele>1622.0</ele><time>2026-04-27T14:17:55Z</time></trkpt><trkpt lat="30.852926974000816" lon="-8.378201076888601"><ele>1622.0</ele><time>2026-04-27T14:17:56Z</time></trkpt><trkpt lat="30.852950830569018" lon="-8.378051318057203"><ele>1622.0</ele><time>2026-04-27T14:17:57Z</time></trkpt><trkpt lat="30.85299919424653" lon="-8.377916770130446"><ele>1622.0</ele><time>2026-04-27T14:17:58Z</time></trkpt><trkpt lat="30.853044871304313" lon="-8.377803190753447"><ele>1623.25</ele><time>2026-04-27T14:17:59Z</time></trkpt><trkpt lat="30.85311934431538" lon="-8.377709030179245"><ele>1624.5</ele><time>2026-04-27T14:18:00Z</time></trkpt><trkpt lat="30.853218530626783" lon="-8.377628044535147"><ele>1625.75</ele><time>2026-04-27T14:18:01Z</time></trkpt><trkpt lat="30.853344452019478" lon="-8.377551777929993"><ele>1627.0</ele><time>2026-04-27T14:18:02Z</time></trkpt><trkpt lat="30.853464489259466" lon="-8.377478973770558"><ele>1627.0</ele><time>2026-04-27T14:18:03Z</time></trkpt><trkpt lat="30.853570484827046" lon="-8.37740886780855"><ele>1627.0</ele><time>2026-04-27T14:18:04Z</time></trkpt><trkpt lat="30.85366222458695" lon="-8.377348251795214"><ele>1627.0</ele><time>2026-04-27T14:18:05Z</time></trkpt><trkpt lat="30.853740131533133" lon="-8.377288865104692"><ele>1627.0</ele><time>2026-04-27T14:18:06Z</time></trkpt><trkpt lat="30.853809844343193" lon="-8.377242395445545"><ele>1627.0</ele><time>2026-04-27T14:18:07Z</time></trkpt><trkpt lat="30.853838347805162" lon="-8.377166110334898"><ele>1624.3999999999999</ele><time>2026-04-27T14:18:08Z</time></trkpt><trkpt lat="30.853852005350912" lon="-8.377073660447351"><ele>1621.8</ele><time>2026-04-27T14:18:09Z</time></trkpt><trkpt lat="30.853847520988054" lon="-8.37697996054444"><ele>1619.2</ele><time>2026-04-27T14:18:10Z</time></trkpt><trkpt lat="30.853843502157236" lon="-8.376870345052442"><ele>1616.6</ele><time>2026-04-27T14:18:11Z</time></trkpt><trkpt lat="30.85378216029682" lon="-8.376741459146393"><ele>1614.0</ele><time>2026-04-27T14:18:12Z</time></trkpt><trkpt lat="30.85368220218058" lon="-8.376634368348824"><ele>1614.0</ele><time>2026-04-27T14:18:13Z</time></trkpt><trkpt lat="30.853618264202712" lon="-8.376509547376811"><ele>1614.0</ele><time>2026-04-27T14:18:14Z</time></trkpt><trkpt lat="30.853532100084326" lon="-8.376406285730662"><ele>1614.0</ele><time>2026-04-27T14:18:15Z</time></trkpt><trkpt lat="30.85342296771078" lon="-8.376324511937703"><ele>1614.0</ele><time>2026-04-27T14:18:16Z</time></trkpt><trkpt lat="30.85334944805966" lon="-8.376215011523716"><ele>1611.4</ele><time>2026-04-27T14:18:17Z</time></trkpt><trkpt lat="30.853323724419507" lon="-8.376061556840055"><ele>1608.8000000000002</ele><time>2026-04-27T14:18:18Z</time></trkpt><trkpt lat="30.853333480566732" lon="-8.37590763956945"><ele>1606.1999999999998</ele><time>2026-04-27T14:18:19Z</time></trkpt><trkpt lat="30.853371089404302" lon="-8.375802058059984"><ele>1603.6</ele><time>2026-04-27T14:18:20Z</time></trkpt><trkpt lat="30.853398708380734" lon="-8.37571901941378"><ele>1601.0</ele><time>2026-04-27T14:18:21Z</time></trkpt><trkpt lat="30.85351105253325" lon="-8.375664229222082"><ele>1601.0</ele><time>2026-04-27T14:18:22Z</time></trkpt><trkpt lat="30.853668444972858" lon="-8.375644144287934"><ele>1601.0</ele><time>2026-04-27T14:18:23Z</time></trkpt><trkpt lat="30.85383532344671" lon="-8.375622773702958"><ele>1601.0</ele><time>2026-04-27T14:18:24Z</time></trkpt><trkpt lat="30.853992933800054" lon="-8.375592944197408"><ele>1601.0</ele><time>2026-04-27T14:18:25Z</time></trkpt><trkpt lat="30.85411472186005" lon="-8.375539688085068"><ele>1601.0</ele><time>2026-04-27T14:18:26Z</time></trkpt><trkpt lat="30.854225779996284" lon="-8.375483030106565"><ele>1601.0</ele><time>2026-04-27T14:18:27Z</time></trkpt><trkpt lat="30.85430204498147" lon="-8.375404927958328"><ele>1601.0</ele><time>2026-04-27T14:18:28Z</time></trkpt><trkpt lat="30.854361886183103" lon="-8.375331175066696"><ele>1601.0</ele><time>2026-04-27T14:18:29Z</time></trkpt><trkpt lat="30.854405562771863" lon="-8.375220422236268"><ele>1598.0</ele><time>2026-04-27T14:18:31Z</time></trkpt><trkpt lat="30.85439280529826" lon="-8.375120510909525"><ele>1595.0</ele><time>2026-04-27T14:18:33Z</time></trkpt><trkpt lat="30.85432264743378" lon="-8.375103209929991"><ele>1592.0</ele><time>2026-04-27T14:18:34Z</time></trkpt><trkpt lat="30.85417898708399" lon="-8.37501407190278"><ele>1589.0</ele><time>2026-04-27T14:18:36Z</time></trkpt><trkpt lat="30.854029874405636" lon="-8.375001970153214"><ele>1589.0</ele><time>2026-04-27T14:18:37Z</time></trkpt><trkpt lat="30.853899139090924" lon="-8.374966472600622"><ele>1589.0</ele><time>2026-04-27T14:18:38Z</time></trkpt><trkpt lat="30.853769539000385" lon="-8.374890345103514"><ele>1589.0</ele><time>2026-04-27T14:18:39Z</time></trkpt><trkpt lat="30.853628005046087" lon="-8.374763312593377"><ele>1592.0</ele><time>2026-04-27T14:18:40Z</time></trkpt><trkpt lat="30.853490874585" lon="-8.37459570022942"><ele>1595.0</ele><time>2026-04-27T14:18:41Z</time></trkpt><trkpt lat="30.853373793137127" lon="-8.37445834599588"><ele>1598.0</ele><time>2026-04-27T14:18:42Z</time></trkpt><trkpt lat="30.85324314178656" lon="-8.374368684955131"><ele>1598.0</ele><time>2026-04-27T14:18:43Z</time></trkpt><trkpt lat="30.853094024331025" lon="-8.37431051936029"><ele>1598.0</ele><time>2026-04-27T14:18:44Z</time></trkpt><trkpt lat="30.852961333011326" lon="-8.374249874125537"><ele>1598.0</ele><time>2026-04-27T14:18:45Z</time></trkpt><trkpt lat="30.85284117340918" lon="-8.37421555274569"><ele>1598.0</ele><time>2026-04-27T14:18:46Z</time></trkpt><trkpt lat="30.85272431104313" lon="-8.374251736460792"><ele>1597.2</ele><time>2026-04-27T14:18:47Z</time></trkpt><trkpt lat="30.852615536436378" lon="-8.374269417033114"><ele>1596.4</ele><time>2026-04-27T14:18:48Z</time></trkpt><trkpt lat="30.85252036243005" lon="-8.374285183555923"><ele>1595.6000000000001</ele><time>2026-04-27T14:18:49Z</time></trkpt><trkpt lat="30.85243537645845" lon="-8.374267905495193"><ele>1594.8000000000002</ele><time>2026-04-27T14:18:50Z</time></trkpt><trkpt lat="30.852346579079175" lon="-8.374261247958353"><ele>1594.0</ele><time>2026-04-27T14:18:51Z</time></trkpt><trkpt lat="30.85225627566742" lon="-8.374295145836571"><ele>1594.0</ele><time>2026-04-27T14:18:52Z</time></trkpt><trkpt lat="30.85217824557766" lon="-8.374365559406895"><ele>1594.0</ele><time>2026-04-27T14:18:53Z</time></trkpt><trkpt lat="30.852140098873072" lon="-8.374486082836452"><ele>1594.0</ele><time>2026-04-27T14:18:54Z</time></trkpt><trkpt lat="30.85207800930862" lon="-8.374605309084208"><ele>1594.0</ele><time>2026-04-27T14:18:55Z</time></trkpt><trkpt lat="30.852030160043224" lon="-8.374752771709352"><ele>1580.5</ele><time>2026-04-27T14:18:56Z</time></trkpt><trkpt lat="30.851988723871855" lon="-8.374904665738613"><ele>1567.0</ele><time>2026-04-27T14:18:57Z</time></trkpt><trkpt lat="30.851956254941804" lon="-8.375070094988093"><ele>1553.5</ele><time>2026-04-27T14:18:58Z</time></trkpt><trkpt lat="30.851903937799136" lon="-8.375205661719308"><ele>1540.0</ele><time>2026-04-27T14:18:59Z</time></trkpt><trkpt lat="30.851858071995743" lon="-8.375328807294226"><ele>1540.0</ele><time>2026-04-27T14:19:00Z</time></trkpt><trkpt lat="30.85182152212789" lon="-8.375448969843436"><ele>1540.0</ele><time>2026-04-27T14:19:01Z</time></trkpt><trkpt lat="30.851730817180936" lon="-8.375529953554532"><ele>1540.0</ele><time>2026-04-27T14:19:02Z</time></trkpt><trkpt lat="30.851637789059197" lon="-8.375613113714179"><ele>1540.0</ele><time>2026-04-27T14:19:03Z</time></trkpt><trkpt lat="30.851527591983427" lon="-8.375683451598594"><ele>1541.0</ele><time>2026-04-27T14:19:04Z</time></trkpt><trkpt lat="30.85141081823732" lon="-8.375750292652757"><ele>1542.0</ele><time>2026-04-27T14:19:05Z</time></trkpt><trkpt lat="30.85127960264366" lon="-8.375789211906113"><ele>1543.0</ele><time>2026-04-27T14:19:06Z</time></trkpt><trkpt lat="30.85115638532748" lon="-8.375824413275849"><ele>1544.0</ele><time>2026-04-27T14:19:07Z</time></trkpt><trkpt lat="30.851037475411683" lon="-8.375852067834234"><ele>1548.5</ele><time>2026-04-27T14:19:08Z</time></trkpt><trkpt lat="30.850922850257913" lon="-8.37587890264053"><ele>1553.0</ele><time>2026-04-27T14:19:09Z</time></trkpt><trkpt lat="30.850790248934107" lon="-8.375908661468731"><ele>1557.5</ele><time>2026-04-27T14:19:10Z</time></trkpt><trkpt lat="30.850650292400672" lon="-8.375904327751753"><ele>1562.0</ele><time>2026-04-27T14:19:11Z</time></trkpt><trkpt lat="30.8505364075927" lon="-8.375883223924886"><ele>1562.0</ele><time>2026-04-27T14:19:12Z</time></trkpt><trkpt lat="30.85043465285426" lon="-8.375864597818143"><ele>1562.0</ele><time>2026-04-27T14:19:13Z</time></trkpt><trkpt lat="30.85031981167051" lon="-8.375821266573215"><ele>1562.0</ele><time>2026-04-27T14:19:14Z</time></trkpt><trkpt lat="30.850203544805527" lon="-8.375767587366823"><ele>1562.0</ele><time>2026-04-27T14:19:15Z</time></trkpt><trkpt lat="30.850107651766447" lon="-8.375712282636409"><ele>1559.5</ele><time>2026-04-27T14:19:16Z</time></trkpt><trkpt lat="30.850037576343507" lon="-8.375697736981007"><ele>1557.0</ele><time>2026-04-27T14:19:17Z</time></trkpt><trkpt lat="30.84988956819715" lon="-8.375673551557338"><ele>1554.5</ele><time>2026-04-27T14:19:19Z</time></trkpt><trkpt lat="30.84982238556166" lon="-8.375725513727739"><ele>1552.0</ele><time>2026-04-27T14:19:20Z</time></trkpt><trkpt lat="30.849744843051486" lon="-8.375877028517884"><ele>1552.0</ele><time>2026-04-27T14:19:21Z</time></trkpt><trkpt lat="30.84970556462526" lon="-8.376041608817689"><ele>1552.0</ele><time>2026-04-27T14:19:22Z</time></trkpt><trkpt lat="30.84964756995139" lon="-8.376150021297708"><ele>1552.0</ele><time>2026-04-27T14:19:23Z</time></trkpt><trkpt lat="30.84960101555556" lon="-8.37624569109453"><ele>1552.0</ele><time>2026-04-27T14:19:24Z</time></trkpt><trkpt lat="30.849609849921414" lon="-8.376359094051356"><ele>1552.0</ele><time>2026-04-27T14:19:25Z</time></trkpt><trkpt lat="30.849555652232855" lon="-8.376442042514975"><ele>1553.3333333333335</ele><time>2026-04-27T14:19:27Z</time></trkpt><trkpt lat="30.84950899265893" lon="-8.376498439221818"><ele>1554.6666666666667</ele><time>2026-04-27T14:19:34Z</time></trkpt><trkpt lat="30.84947462634687" lon="-8.376566888542742"><ele>1556.0</ele><time>2026-04-27T14:19:36Z</time></trkpt><trkpt lat="30.84943120281607" lon="-8.376694332286638"><ele>1557.3333333333335</ele><time>2026-04-27T14:19:38Z</time></trkpt><trkpt lat="30.84939422014776" lon="-8.376783818232449"><ele>1558.6666666666667</ele><time>2026-04-27T14:19:39Z</time></trkpt><trkpt lat="30.849361544490968" lon="-8.376862882606785"><ele>1560.0</ele><time>2026-04-27T14:19:40Z</time></trkpt><trkpt lat="30.849276100022358" lon="-8.376936659707846"><ele>1560.0</ele><time>2026-04-27T14:19:41Z</time></trkpt><trkpt lat="30.849182371968922" lon="-8.377004856695642"><ele>1560.0</ele><time>2026-04-27T14:19:42Z</time></trkpt><trkpt lat="30.849094765630085" lon="-8.377071353317163"><ele>1560.0</ele><time>2026-04-27T14:19:43Z</time></trkpt><trkpt lat="30.8490306207236" lon="-8.377169291220145"><ele>1560.0</ele><time>2026-04-27T14:19:44Z</time></trkpt><trkpt lat="30.848987985912682" lon="-8.377279966048183"><ele>1560.0</ele><time>2026-04-27T14:19:45Z</time></trkpt><trkpt lat="30.84897295213444" lon="-8.377388890853286"><ele>1553.25</ele><time>2026-04-27T14:19:46Z</time></trkpt><trkpt lat="30.84903640654782" lon="-8.377493069329974"><ele>1546.5</ele><time>2026-04-27T14:19:47Z</time></trkpt><trkpt lat="30.849046623782634" lon="-8.377632112304811"><ele>1539.75</ele><time>2026-04-27T14:19:48Z</time></trkpt><trkpt lat="30.849015889852293" lon="-8.37776965805227"><ele>1533.0</ele><time>2026-04-27T14:19:49Z</time></trkpt><trkpt lat="30.848958096900432" lon="-8.377901020704986"><ele>1526.0</ele><time>2026-04-27T14:19:50Z</time></trkpt><trkpt lat="30.848851325056202" lon="-8.378030183126139"><ele>1519.0</ele><time>2026-04-27T14:19:51Z</time></trkpt><trkpt lat="30.84875540959066" lon="-8.37815867215992"><ele>1512.0</ele><time>2026-04-27T14:19:52Z</time></trkpt><trkpt lat="30.848651724052075" lon="-8.378259954009827"><ele>1505.0</ele><time>2026-04-27T14:19:53Z</time></trkpt><trkpt lat="30.848543542713955" lon="-8.378358884276265"><ele>1516.5</ele><time>2026-04-27T14:19:54Z</time></trkpt><trkpt lat="30.848434475914686" lon="-8.378441674763287"><ele>1528.0</ele><time>2026-04-27T14:19:55Z</time></trkpt><trkpt lat="30.848321803943925" lon="-8.378492506292446"><ele>1539.5</ele><time>2026-04-27T14:19:56Z</time></trkpt><trkpt lat="30.84822774740229" lon="-8.378558212143671"><ele>1551.0</ele><time>2026-04-27T14:19:57Z</time></trkpt><trkpt lat="30.848149608913356" lon="-8.378626920153993"><ele>1551.0</ele><time>2026-04-27T14:19:58Z</time></trkpt><trkpt lat="30.848140589763403" lon="-8.378736223793375"><ele>1551.0</ele><time>2026-04-27T14:19:59Z</time></trkpt><trkpt lat="30.8481273828173" lon="-8.378833829135072"><ele>1551.0</ele><time>2026-04-27T14:20:00Z</time></trkpt><trkpt lat="30.848138343360517" lon="-8.378975991529286"><ele>1551.0</ele><time>2026-04-27T14:20:01Z</time></trkpt><trkpt lat="30.848110438497073" lon="-8.379129335056758"><ele>1551.0</ele><time>2026-04-27T14:20:02Z</time></trkpt><trkpt lat="30.848084147232143" lon="-8.3792470168453"><ele>1544.0</ele><time>2026-04-27T14:20:03Z</time></trkpt><trkpt lat="30.847967298866113" lon="-8.379360287746236"><ele>1537.0</ele><time>2026-04-27T14:20:04Z</time></trkpt><trkpt lat="30.84783794109711" lon="-8.379361150252173"><ele>1530.0</ele><time>2026-04-27T14:20:05Z</time></trkpt><trkpt lat="30.847741511008245" lon="-8.379408408452774"><ele>1523.0</ele><time>2026-04-27T14:20:06Z</time></trkpt><trkpt lat="30.84766961225402" lon="-8.379504887782623"><ele>1525.0</ele><time>2026-04-27T14:20:07Z</time></trkpt><trkpt lat="30.847597859771593" lon="-8.379553169885462"><ele>1527.0</ele><time>2026-04-27T14:20:08Z</time></trkpt><trkpt lat="30.847557491366004" lon="-8.37976936268273"><ele>1529.0</ele><time>2026-04-27T14:20:09Z</time></trkpt><trkpt lat="30.847592148249817" lon="-8.379910738676491"><ele>1531.0</ele><time>2026-04-27T14:20:10Z</time></trkpt><trkpt lat="30.847569974394307" lon="-8.38006353261079"><ele>1531.0</ele><time>2026-04-27T14:20:11Z</time></trkpt><trkpt lat="30.847547383714904" lon="-8.380233928561545"><ele>1531.0</ele><time>2026-04-27T14:20:12Z</time></trkpt><trkpt lat="30.847504607771896" lon="-8.380403795123714"><ele>1531.0</ele><time>2026-04-27T14:20:13Z</time></trkpt><trkpt lat="30.847510684612402" lon="-8.380592070958244"><ele>1528.5</ele><time>2026-04-27T14:20:14Z</time></trkpt><trkpt lat="30.84752708484515" lon="-8.380763702403511"><ele>1526.0</ele><time>2026-04-27T14:20:15Z</time></trkpt><trkpt lat="30.847550849373828" lon="-8.380911708226058"><ele>1523.5</ele><time>2026-04-27T14:20:16Z</time></trkpt><trkpt lat="30.847568788543967" lon="-8.381040328401726"><ele>1521.0</ele><time>2026-04-27T14:20:17Z</time></trkpt><trkpt lat="30.84755792828193" lon="-8.381178392478585"><ele>1521.0</ele><time>2026-04-27T14:20:18Z</time></trkpt><trkpt lat="30.847497061935957" lon="-8.381329476907503"><ele>1521.0</ele><time>2026-04-27T14:20:19Z</time></trkpt><trkpt lat="30.847396993347612" lon="-8.381470842192664"><ele>1521.0</ele><time>2026-04-27T14:20:20Z</time></trkpt><trkpt lat="30.84727993458474" lon="-8.381621949195264"><ele>1517.0</ele><time>2026-04-27T14:20:21Z</time></trkpt><trkpt lat="30.847175095983932" lon="-8.38180538720432"><ele>1513.0</ele><time>2026-04-27T14:20:22Z</time></trkpt><trkpt lat="30.847064017838406" lon="-8.381974866738314"><ele>1509.0</ele><time>2026-04-27T14:20:23Z</time></trkpt><trkpt lat="30.84696181401353" lon="-8.382109668591271"><ele>1507.75</ele><time>2026-04-27T14:20:24Z</time></trkpt><trkpt lat="30.846884819303327" lon="-8.382226037930902"><ele>1506.5</ele><time>2026-04-27T14:20:25Z</time></trkpt><trkpt lat="30.846796220266704" lon="-8.382325227222939"><ele>1505.25</ele><time>2026-04-27T14:20:26Z</time></trkpt><trkpt lat="30.846698987861373" lon="-8.382426009577685"><ele>1504.0</ele><time>2026-04-27T14:20:27Z</time></trkpt><trkpt lat="30.846556683469174" lon="-8.382499491669957"><ele>1504.0</ele><time>2026-04-27T14:20:28Z</time></trkpt><trkpt lat="30.846404806637484" lon="-8.38254999860263"><ele>1504.0</ele><time>2026-04-27T14:20:29Z</time></trkpt><trkpt lat="30.846257952223315" lon="-8.382574741263015"><ele>1504.0</ele><time>2026-04-27T14:20:30Z</time></trkpt><trkpt lat="30.84613684288975" lon="-8.382584688995513"><ele>1504.0</ele><time>2026-04-27T14:20:31Z</time></trkpt><trkpt lat="30.846021145146636" lon="-8.38250642114432"><ele>1504.5</ele><time>2026-04-27T14:20:32Z</time></trkpt><trkpt lat="30.845903838932955" lon="-8.38246388435852"><ele>1505.0</ele><time>2026-04-27T14:20:33Z</time></trkpt><trkpt lat="30.845780349754794" lon="-8.382421263080776"><ele>1505.5</ele><time>2026-04-27T14:20:34Z</time></trkpt><trkpt lat="30.8456601496107" lon="-8.382427571436201"><ele>1506.0</ele><time>2026-04-27T14:20:35Z</time></trkpt><trkpt lat="30.84555344080276" lon="-8.382478313727177"><ele>1506.0</ele><time>2026-04-27T14:20:36Z</time></trkpt><trkpt lat="30.845462488226566" lon="-8.38255404276627"><ele>1506.0</ele><time>2026-04-27T14:20:37Z</time></trkpt><trkpt lat="30.845388560968395" lon="-8.382642181880716"><ele>1506.0</ele><time>2026-04-27T14:20:38Z</time></trkpt><trkpt lat="30.845318002128586" lon="-8.38275799358085"><ele>1506.0</ele><time>2026-04-27T14:20:39Z</time></trkpt><trkpt lat="30.845242216355814" lon="-8.382905495308338"><ele>1499.0</ele><time>2026-04-27T14:20:40Z</time></trkpt><trkpt lat="30.845161220628327" lon="-8.383026390087835"><ele>1492.0</ele><time>2026-04-27T14:20:41Z</time></trkpt><trkpt lat="30.845049500348164" lon="-8.3831024905551"><ele>1485.0</ele><time>2026-04-27T14:20:42Z</time></trkpt><trkpt lat="30.844895496666222" lon="-8.383138816364882"><ele>1478.0</ele><time>2026-04-27T14:20:43Z</time></trkpt><trkpt lat="30.844734180039502" lon="-8.383137982743765"><ele>1478.0</ele><time>2026-04-27T14:20:44Z</time></trkpt><trkpt lat="30.844595114376524" lon="-8.383113160930195"><ele>1478.0</ele><time>2026-04-27T14:20:45Z</time></trkpt><trkpt lat="30.84449113202781" lon="-8.383064156810384"><ele>1478.0</ele><time>2026-04-27T14:20:46Z</time></trkpt><trkpt lat="30.84439358602129" lon="-8.382971593721532"><ele>1478.0</ele><time>2026-04-27T14:20:47Z</time></trkpt><trkpt lat="30.8443072396483" lon="-8.382820972095136"><ele>1479.6666666666667</ele><time>2026-04-27T14:20:48Z</time></trkpt><trkpt lat="30.844225491922728" lon="-8.38263374274448"><ele>1481.3333333333333</ele><time>2026-04-27T14:20:49Z</time></trkpt><trkpt lat="30.844139107619203" lon="-8.382434403665565"><ele>1483.0</ele><time>2026-04-27T14:20:50Z</time></trkpt><trkpt lat="30.84403418562621" lon="-8.382246158817715"><ele>1492.6666666666665</ele><time>2026-04-27T14:20:51Z</time></trkpt><trkpt lat="30.84391406785212" lon="-8.382076029208115"><ele>1502.3333333333333</ele><time>2026-04-27T14:20:52Z</time></trkpt><trkpt lat="30.84379552301418" lon="-8.38191696751217"><ele>1512.0</ele><time>2026-04-27T14:20:53Z</time></trkpt><trkpt lat="30.84368087127635" lon="-8.381761821480259"><ele>1512.0</ele><time>2026-04-27T14:20:54Z</time></trkpt><trkpt lat="30.84355899992694" lon="-8.381616931003338"><ele>1512.0</ele><time>2026-04-27T14:20:55Z</time></trkpt><trkpt lat="30.843442809528117" lon="-8.381489829699701"><ele>1512.0</ele><time>2026-04-27T14:20:56Z</time></trkpt><trkpt lat="30.843358321477567" lon="-8.381355868712964"><ele>1507.0</ele><time>2026-04-27T14:20:57Z</time></trkpt><trkpt lat="30.843275557371044" lon="-8.381234485135248"><ele>1502.0</ele><time>2026-04-27T14:20:58Z</time></trkpt><trkpt lat="30.843156291909022" lon="-8.381160764108317"><ele>1497.0</ele><time>2026-04-27T14:20:59Z</time></trkpt><trkpt lat="30.84304594741027" lon="-8.381070036370527"><ele>1492.0</ele><time>2026-04-27T14:21:00Z</time></trkpt><trkpt lat="30.842977120939185" lon="-8.38092687310371"><ele>1492.0</ele><time>2026-04-27T14:21:01Z</time></trkpt><trkpt lat="30.842905028354515" lon="-8.380791927228834"><ele>1492.0</ele><time>2026-04-27T14:21:02Z</time></trkpt><trkpt lat="30.84286976121274" lon="-8.38061735785999"><ele>1492.0</ele><time>2026-04-27T14:21:03Z</time></trkpt><trkpt lat="30.84290308148033" lon="-8.380466482601854"><ele>1492.0</ele><time>2026-04-27T14:21:04Z</time></trkpt><trkpt lat="30.842895680591177" lon="-8.380345654989684"><ele>1493.6</ele><time>2026-04-27T14:21:05Z</time></trkpt><trkpt lat="30.842863111524725" lon="-8.380254785828566"><ele>1495.1999999999998</ele><time>2026-04-27T14:21:06Z</time></trkpt><trkpt lat="30.84280117244335" lon="-8.380172753703384"><ele>1496.8</ele><time>2026-04-27T14:21:07Z</time></trkpt><trkpt lat="30.842713625852664" lon="-8.380130886941327"><ele>1498.4</ele><time>2026-04-27T14:21:08Z</time></trkpt><trkpt lat="30.842593118301977" lon="-8.380040763943665"><ele>1500.0</ele><time>2026-04-27T14:21:09Z</time></trkpt><trkpt lat="30.84247447686052" lon="-8.379949302080167"><ele>1498.8</ele><time>2026-04-27T14:21:10Z</time></trkpt><trkpt lat="30.842370041020878" lon="-8.379856211525643"><ele>1497.6</ele><time>2026-04-27T14:21:11Z</time></trkpt><trkpt lat="30.842271996604794" lon="-8.379787156423868"><ele>1496.4</ele><time>2026-04-27T14:21:12Z</time></trkpt><trkpt lat="30.842185784581492" lon="-8.37973486396925"><ele>1495.2</ele><time>2026-04-27T14:21:13Z</time></trkpt><trkpt lat="30.84211228454751" lon="-8.379702713935275"><ele>1494.0</ele><time>2026-04-27T14:21:14Z</time></trkpt><trkpt lat="30.84205101023546" lon="-8.379673187331566"><ele>1494.0</ele><time>2026-04-27T14:21:15Z</time></trkpt><trkpt lat="30.84197875090015" lon="-8.379573576233284"><ele>1494.0</ele><time>2026-04-27T14:21:17Z</time></trkpt><trkpt lat="30.841954957314965" lon="-8.379500959234814"><ele>1494.0</ele><time>2026-04-27T14:21:18Z</time></trkpt><trkpt lat="30.841899692095122" lon="-8.379427640394812"><ele>1494.0</ele><time>2026-04-27T14:21:19Z</time></trkpt><trkpt lat="30.84182669011793" lon="-8.379357570918863"><ele>1494.0</ele><time>2026-04-27T14:21:20Z</time></trkpt><trkpt lat="30.841761165325043" lon="-8.379293627730277"><ele>1494.0</ele><time>2026-04-27T14:21:21Z</time></trkpt><trkpt lat="30.84170596838579" lon="-8.379224718497133"><ele>1489.8333333333333</ele><time>2026-04-27T14:21:22Z</time></trkpt><trkpt lat="30.841620685229614" lon="-8.379199969911962"><ele>1485.6666666666667</ele><time>2026-04-27T14:21:23Z</time></trkpt><trkpt lat="30.8415332503028" lon="-8.379209036340146"><ele>1481.5</ele><time>2026-04-27T14:21:24Z</time></trkpt><trkpt lat="30.84145046430127" lon="-8.379257107074114"><ele>1477.3333333333335</ele><time>2026-04-27T14:21:25Z</time></trkpt><trkpt lat="30.841383227657037" lon="-8.379330250834514"><ele>1473.1666666666667</ele><time>2026-04-27T14:21:26Z</time></trkpt><trkpt lat="30.84134256370071" lon="-8.379418408417818"><ele>1469.0</ele><time>2026-04-27T14:21:27Z</time></trkpt><trkpt lat="30.841337487392902" lon="-8.379524564645633"><ele>1469.0</ele><time>2026-04-27T14:21:28Z</time></trkpt><trkpt lat="30.84136499856084" lon="-8.37965640532878"><ele>1469.0</ele><time>2026-04-27T14:21:29Z</time></trkpt><trkpt lat="30.841407929359413" lon="-8.379783909824686"><ele>1469.0</ele><time>2026-04-27T14:21:30Z</time></trkpt><trkpt lat="30.841459720624066" lon="-8.379923122683136"><ele>1469.0</ele><time>2026-04-27T14:21:31Z</time></trkpt><trkpt lat="30.841503988589945" lon="-8.380066123159505"><ele>1467.0</ele><time>2026-04-27T14:21:32Z</time></trkpt><trkpt lat="30.841529591827786" lon="-8.380215446811558"><ele>1465.0</ele><time>2026-04-27T14:21:33Z</time></trkpt><trkpt lat="30.841534162053133" lon="-8.38035979444144"><ele>1463.0</ele><time>2026-04-27T14:21:34Z</time></trkpt><trkpt lat="30.841526487247155" lon="-8.380483919568595"><ele>1461.0</ele><time>2026-04-27T14:21:35Z</time></trkpt><trkpt lat="30.841520991711214" lon="-8.380591800140476"><ele>1460.8333333333333</ele><time>2026-04-27T14:21:36Z</time></trkpt><trkpt lat="30.84152200645864" lon="-8.380665679778119"><ele>1460.6666666666667</ele><time>2026-04-27T14:21:37Z</time></trkpt><trkpt lat="30.841523931618717" lon="-8.380789184447863"><ele>1460.5</ele><time>2026-04-27T14:21:39Z</time></trkpt><trkpt lat="30.841514593007826" lon="-8.380872608555862"><ele>1460.3333333333335</ele><time>2026-04-27T14:21:40Z</time></trkpt><trkpt lat="30.841515940659608" lon="-8.380968029284093"><ele>1460.1666666666667</ele><time>2026-04-27T14:21:41Z</time></trkpt><trkpt lat="30.841537305817685" lon="-8.381055317067654"><ele>1460.0</ele><time>2026-04-27T14:21:42Z</time></trkpt><trkpt lat="30.841571818565363" lon="-8.381193836529066"><ele>1460.0</ele><time>2026-04-27T14:21:43Z</time></trkpt><trkpt lat="30.841611905587424" lon="-8.38134040822218"><ele>1460.0</ele><time>2026-04-27T14:21:44Z</time></trkpt><trkpt lat="30.841641420391223" lon="-8.381454662266618"><ele>1460.0</ele><time>2026-04-27T14:21:45Z</time></trkpt><trkpt lat="30.841661696346844" lon="-8.381548149160508"><ele>1460.0</ele><time>2026-04-27T14:21:46Z</time></trkpt><trkpt lat="30.84168311094162" lon="-8.381632862029806"><ele>1460.0</ele><time>2026-04-27T14:21:47Z</time></trkpt><trkpt lat="30.84170460828488" lon="-8.381730302115184"><ele>1460.5</ele><time>2026-04-27T14:21:48Z</time></trkpt><trkpt lat="30.841723610609016" lon="-8.381845646944"><ele>1461.0</ele><time>2026-04-27T14:21:49Z</time></trkpt><trkpt lat="30.841740116657185" lon="-8.381976084469455"><ele>1461.5</ele><time>2026-04-27T14:21:50Z</time></trkpt><trkpt lat="30.841752777417575" lon="-8.382116926622496"><ele>1462.0</ele><time>2026-04-27T14:21:51Z</time></trkpt><trkpt lat="30.84175597824209" lon="-8.38226546756691"><ele>1462.5</ele><time>2026-04-27T14:21:52Z</time></trkpt><trkpt lat="30.841752333085843" lon="-8.382423817134876"><ele>1463.0</ele><time>2026-04-27T14:21:53Z</time></trkpt><trkpt lat="30.84173977714062" lon="-8.382585971773443"><ele>1463.5</ele><time>2026-04-27T14:21:54Z</time></trkpt><trkpt lat="30.84171667064061" lon="-8.382732551698467"><ele>1464.0</ele><time>2026-04-27T14:21:55Z</time></trkpt><trkpt lat="30.841684971624808" lon="-8.382863770003192"><ele>1464.0</ele><time>2026-04-27T14:21:56Z</time></trkpt><trkpt lat="30.841651785652513" lon="-8.382994110110818"><ele>1464.0</ele><time>2026-04-27T14:21:57Z</time></trkpt><trkpt lat="30.841619218198396" lon="-8.383128585917603"><ele>1464.0</ele><time>2026-04-27T14:21:58Z</time></trkpt><trkpt lat="30.84158967299611" lon="-8.383256589339817"><ele>1464.0</ele><time>2026-04-27T14:21:59Z</time></trkpt><trkpt lat="30.841566854452758" lon="-8.383394936080942"><ele>1462.0</ele><time>2026-04-27T14:22:00Z</time></trkpt><trkpt lat="30.841554456511684" lon="-8.38353214786705"><ele>1460.0</ele><time>2026-04-27T14:22:01Z</time></trkpt><trkpt lat="30.841545907530573" lon="-8.383664704497816"><ele>1458.0</ele><time>2026-04-27T14:22:02Z</time></trkpt><trkpt lat="30.841531843301155" lon="-8.383786094605892"><ele>1456.0</ele><time>2026-04-27T14:22:03Z</time></trkpt><trkpt lat="30.841504428140897" lon="-8.383895404556117"><ele>1454.0</ele><time>2026-04-27T14:22:04Z</time></trkpt><trkpt lat="30.841468288461087" lon="-8.383992779408409"><ele>1451.8333333333335</ele><time>2026-04-27T14:22:05Z</time></trkpt><trkpt lat="30.84143221113306" lon="-8.38408618461676"><ele>1449.6666666666667</ele><time>2026-04-27T14:22:06Z</time></trkpt><trkpt lat="30.841401360988208" lon="-8.384181537089553"><ele>1447.5</ele><time>2026-04-27T14:22:07Z</time></trkpt><trkpt lat="30.841382624519294" lon="-8.384271927787147"><ele>1445.3333333333333</ele><time>2026-04-27T14:22:08Z</time></trkpt><trkpt lat="30.841374687170145" lon="-8.3843539372237"><ele>1443.1666666666665</ele><time>2026-04-27T14:22:09Z</time></trkpt><trkpt lat="30.841377208813867" lon="-8.384436366110243"><ele>1441.0</ele><time>2026-04-27T14:22:10Z</time></trkpt><trkpt lat="30.84138945449739" lon="-8.38453669298905"><ele>1441.0</ele><time>2026-04-27T14:22:11Z</time></trkpt><trkpt lat="30.841402292866338" lon="-8.384635567351404"><ele>1441.0</ele><time>2026-04-27T14:22:12Z</time></trkpt><trkpt lat="30.841412051474414" lon="-8.38473313919648"><ele>1441.0</ele><time>2026-04-27T14:22:13Z</time></trkpt><trkpt lat="30.84142610579716" lon="-8.384842515572204"><ele>1441.0</ele><time>2026-04-27T14:22:14Z</time></trkpt><trkpt lat="30.841459942966086" lon="-8.384964616427643"><ele>1441.0</ele><time>2026-04-27T14:22:15Z</time></trkpt><trkpt lat="30.84142607611555" lon="-8.38510982801373"><ele>1438.75</ele><time>2026-04-27T14:22:16Z</time></trkpt><trkpt lat="30.841404399237142" lon="-8.38525991308711"><ele>1436.5</ele><time>2026-04-27T14:22:17Z</time></trkpt><trkpt lat="30.841375762624562" lon="-8.385415046945107"><ele>1434.25</ele><time>2026-04-27T14:22:18Z</time></trkpt><trkpt lat="30.841353189292178" lon="-8.385576184250066"><ele>1432.0</ele><time>2026-04-27T14:22:19Z</time></trkpt><trkpt lat="30.8413447347448" lon="-8.385706607119477"><ele>1429.6</ele><time>2026-04-27T14:22:20Z</time></trkpt><trkpt lat="30.841337584350356" lon="-8.385842611534182"><ele>1427.1999999999998</ele><time>2026-04-27T14:22:21Z</time></trkpt><trkpt lat="30.841307069864477" lon="-8.38597220047054"><ele>1424.8</ele><time>2026-04-27T14:22:22Z</time></trkpt><trkpt lat="30.841257053103824" lon="-8.386080482005115"><ele>1422.4</ele><time>2026-04-27T14:22:23Z</time></trkpt><trkpt lat="30.841188174401058" lon="-8.386179116488664"><ele>1420.0</ele><time>2026-04-27T14:22:24Z</time></trkpt><trkpt lat="30.84112613425497" lon="-8.386283394306748"><ele>1420.0</ele><time>2026-04-27T14:22:25Z</time></trkpt><trkpt lat="30.841007972145555" lon="-8.386331909617555"><ele>1420.0</ele><time>2026-04-27T14:22:26Z</time></trkpt><trkpt lat="30.84087578597233" lon="-8.386352274464793"><ele>1420.0</ele><time>2026-04-27T14:22:27Z</time></trkpt><trkpt lat="30.84072682069831" lon="-8.386356634239501"><ele>1420.0</ele><time>2026-04-27T14:22:28Z</time></trkpt><trkpt lat="30.84056997351804" lon="-8.386356634243755"><ele>1421.25</ele><time>2026-04-27T14:22:29Z</time></trkpt><trkpt lat="30.84042125453266" lon="-8.386344568969044"><ele>1422.5</ele><time>2026-04-27T14:22:30Z</time></trkpt><trkpt lat="30.840292909718347" lon="-8.386335376499007"><ele>1423.75</ele><time>2026-04-27T14:22:31Z</time></trkpt><trkpt lat="30.84018622327269" lon="-8.386337799122451"><ele>1425.0</ele><time>2026-04-27T14:22:32Z</time></trkpt><trkpt lat="30.840083795693555" lon="-8.38634915176787"><ele>1425.0</ele><time>2026-04-27T14:22:33Z</time></trkpt><trkpt lat="30.840000264346074" lon="-8.38638396703439"><ele>1425.0</ele><time>2026-04-27T14:22:34Z</time></trkpt><trkpt lat="30.83992339625685" lon="-8.386437941712844"><ele>1425.0</ele><time>2026-04-27T14:22:35Z</time></trkpt><trkpt lat="30.839834785768474" lon="-8.386504600409268"><ele>1425.0</ele><time>2026-04-27T14:22:36Z</time></trkpt><trkpt lat="30.83974061070123" lon="-8.386595639684833"><ele>1425.0</ele><time>2026-04-27T14:22:37Z</time></trkpt><trkpt lat="30.83965914655166" lon="-8.38672988796967"><ele>1425.0</ele><time>2026-04-27T14:22:38Z</time></trkpt><trkpt lat="30.83958615808549" lon="-8.386874355974639"><ele>1425.0</ele><time>2026-04-27T14:22:39Z</time></trkpt><trkpt lat="30.839538811722395" lon="-8.38702577078664"><ele>1425.0</ele><time>2026-04-27T14:22:40Z</time></trkpt><trkpt lat="30.839516658059676" lon="-8.387169430171951"><ele>1425.0</ele><time>2026-04-27T14:22:41Z</time></trkpt><trkpt lat="30.83951195112223" lon="-8.387307667033864"><ele>1417.5</ele><time>2026-04-27T14:22:42Z</time></trkpt><trkpt lat="30.839493619606326" lon="-8.387449176797965"><ele>1410.0</ele><time>2026-04-27T14:22:43Z</time></trkpt><trkpt lat="30.83944441736122" lon="-8.387589668949762"><ele>1402.5</ele><time>2026-04-27T14:22:44Z</time></trkpt><trkpt lat="30.83940337967349" lon="-8.387731840735599"><ele>1395.0</ele><time>2026-04-27T14:22:45Z</time></trkpt><trkpt lat="30.839339647297564" lon="-8.387860285489564"><ele>1403.6666666666667</ele><time>2026-04-27T14:22:46Z</time></trkpt><trkpt lat="30.83923169401438" lon="-8.387958133595928"><ele>1412.3333333333335</ele><time>2026-04-27T14:22:47Z</time></trkpt><trkpt lat="30.839109922358748" lon="-8.388069937413675"><ele>1421.0</ele><time>2026-04-27T14:22:48Z</time></trkpt><trkpt lat="30.83896658237666" lon="-8.388178363476362"><ele>1421.0</ele><time>2026-04-27T14:22:49Z</time></trkpt><trkpt lat="30.83885815422976" lon="-8.388293896328733"><ele>1421.0</ele><time>2026-04-27T14:22:50Z</time></trkpt><trkpt lat="30.83878315767374" lon="-8.38840549146739"><ele>1421.0</ele><time>2026-04-27T14:22:51Z</time></trkpt><trkpt lat="30.83870504830311" lon="-8.38851438641044"><ele>1421.0</ele><time>2026-04-27T14:22:52Z</time></trkpt><trkpt lat="30.838686181445716" lon="-8.388631458861203"><ele>1421.0</ele><time>2026-04-27T14:22:53Z</time></trkpt><trkpt lat="30.838674889245254" lon="-8.388754158020369"><ele>1421.0</ele><time>2026-04-27T14:22:54Z</time></trkpt><trkpt lat="30.83867719036766" lon="-8.388905782817373"><ele>1421.0</ele><time>2026-04-27T14:22:55Z</time></trkpt><trkpt lat="30.83869096271393" lon="-8.38907360682172"><ele>1421.0</ele><time>2026-04-27T14:22:56Z</time></trkpt><trkpt lat="30.838704229652436" lon="-8.389227126252866"><ele>1418.6666666666667</ele><time>2026-04-27T14:22:57Z</time></trkpt><trkpt lat="30.83869848638963" lon="-8.389349131557779"><ele>1416.3333333333335</ele><time>2026-04-27T14:22:58Z</time></trkpt><trkpt lat="30.83872677391518" lon="-8.38945502843031"><ele>1414.0</ele><time>2026-04-27T14:23:00Z</time></trkpt><trkpt lat="30.83873860430908" lon="-8.389529970923329"><ele>1411.6666666666667</ele><time>2026-04-27T14:23:02Z</time></trkpt><trkpt lat="30.8387535404088" lon="-8.389627217916653"><ele>1409.3333333333333</ele><time>2026-04-27T14:23:04Z</time></trkpt><trkpt lat="30.838767238991007" lon="-8.38971640844919"><ele>1407.0</ele><time>2026-04-27T14:23:05Z</time></trkpt><trkpt lat="30.83880555303239" lon="-8.389812178413932"><ele>1406.6</ele><time>2026-04-27T14:23:06Z</time></trkpt><trkpt lat="30.838838119174753" lon="-8.389909192183097"><ele>1406.1999999999998</ele><time>2026-04-27T14:23:07Z</time></trkpt><trkpt lat="30.838860621296842" lon="-8.390029843895396"><ele>1405.8</ele><time>2026-04-27T14:23:08Z</time></trkpt><trkpt lat="30.838881491226974" lon="-8.390143949545283"><ele>1405.4</ele><time>2026-04-27T14:23:09Z</time></trkpt><trkpt lat="30.838847745157835" lon="-8.390274353443463"><ele>1405.0</ele><time>2026-04-27T14:23:10Z</time></trkpt><trkpt lat="30.83880782649134" lon="-8.390402309562084"><ele>1403.0</ele><time>2026-04-27T14:23:11Z</time></trkpt><trkpt lat="30.838739439700415" lon="-8.390527880534384"><ele>1401.0</ele><time>2026-04-27T14:23:12Z</time></trkpt><trkpt lat="30.838665222083144" lon="-8.390647888949907"><ele>1399.0</ele><time>2026-04-27T14:23:13Z</time></trkpt><trkpt lat="30.838588046364627" lon="-8.390774163794005"><ele>1397.0</ele><time>2026-04-27T14:23:14Z</time></trkpt><trkpt lat="30.838503709457846" lon="-8.390892156907944"><ele>1403.0</ele><time>2026-04-27T14:23:15Z</time></trkpt><trkpt lat="30.838425706983376" lon="-8.390985038011792"><ele>1409.0</ele><time>2026-04-27T14:23:16Z</time></trkpt><trkpt lat="30.838310982742858" lon="-8.391068931922183"><ele>1415.0</ele><time>2026-04-27T14:23:17Z</time></trkpt><trkpt lat="30.838185621146778" lon="-8.391149152681585"><ele>1421.0</ele><time>2026-04-27T14:23:18Z</time></trkpt><trkpt lat="30.838026242842492" lon="-8.391227275800164"><ele>1421.0</ele><time>2026-04-27T14:23:19Z</time></trkpt><trkpt lat="30.83786681826153" lon="-8.391289222276013"><ele>1421.0</ele><time>2026-04-27T14:23:20Z</time></trkpt><trkpt lat="30.837715964221378" lon="-8.391363929883353"><ele>1421.0</ele><time>2026-04-27T14:23:21Z</time></trkpt><trkpt lat="30.83759311941181" lon="-8.391446660422293"><ele>1418.6</ele><time>2026-04-27T14:23:22Z</time></trkpt><trkpt lat="30.837475952761544" lon="-8.391507134446073"><ele>1416.1999999999998</ele><time>2026-04-27T14:23:23Z</time></trkpt><trkpt lat="30.837385150085318" lon="-8.391571743445793"><ele>1413.8000000000002</ele><time>2026-04-27T14:23:24Z</time></trkpt><trkpt lat="30.837295985510814" lon="-8.39163750211501"><ele>1411.4</ele><time>2026-04-27T14:23:25Z</time></trkpt><trkpt lat="30.837230473494913" lon="-8.391717879111358"><ele>1409.0</ele><time>2026-04-27T14:23:26Z</time></trkpt><trkpt lat="30.83715720083479" lon="-8.391823999816113"><ele>1409.0</ele><time>2026-04-27T14:23:27Z</time></trkpt><trkpt lat="30.83708467185458" lon="-8.391951883470263"><ele>1409.0</ele><time>2026-04-27T14:23:28Z</time></trkpt><trkpt lat="30.837012653175375" lon="-8.392099267866147"><ele>1409.0</ele><time>2026-04-27T14:23:29Z</time></trkpt><trkpt lat="30.836923753516405" lon="-8.392245106606833"><ele>1409.0</ele><time>2026-04-27T14:23:30Z</time></trkpt><trkpt lat="30.83686671753508" lon="-8.392409144766441"><ele>1410.0</ele><time>2026-04-27T14:23:31Z</time></trkpt><trkpt lat="30.83676243212014" lon="-8.392527431067593"><ele>1411.0</ele><time>2026-04-27T14:23:32Z</time></trkpt><trkpt lat="30.83666500175826" lon="-8.392652630625822"><ele>1412.0</ele><time>2026-04-27T14:23:33Z</time></trkpt><trkpt lat="30.836602110179534" lon="-8.392799880179581"><ele>1413.0</ele><time>2026-04-27T14:23:34Z</time></trkpt><trkpt lat="30.836532933616535" lon="-8.392935759253458"><ele>1408.75</ele><time>2026-04-27T14:23:35Z</time></trkpt><trkpt lat="30.836461223175593" lon="-8.393076319572828"><ele>1404.5</ele><time>2026-04-27T14:23:36Z</time></trkpt><trkpt lat="30.836420278325125" lon="-8.39323254358516"><ele>1400.25</ele><time>2026-04-27T14:23:37Z</time></trkpt><trkpt lat="30.836378033387632" lon="-8.39337024180479"><ele>1396.0</ele><time>2026-04-27T14:23:38Z</time></trkpt><trkpt lat="30.83631112140811" lon="-8.393477285605888"><ele>1396.0</ele><time>2026-04-27T14:23:39Z</time></trkpt><trkpt lat="30.836201553173876" lon="-8.393564737600247"><ele>1396.0</ele><time>2026-04-27T14:23:40Z</time></trkpt><trkpt lat="30.83605423820745" lon="-8.39362982400388"><ele>1396.0</ele><time>2026-04-27T14:23:41Z</time></trkpt><trkpt lat="30.835883848441036" lon="-8.39368015363895"><ele>1401.6666666666665</ele><time>2026-04-27T14:23:42Z</time></trkpt><trkpt lat="30.835719994638886" lon="-8.393774126443882"><ele>1407.3333333333333</ele><time>2026-04-27T14:23:43Z</time></trkpt><trkpt lat="30.835549037640053" lon="-8.393852846764775"><ele>1413.0</ele><time>2026-04-27T14:23:44Z</time></trkpt><trkpt lat="30.8353854783051" lon="-8.393917315060333"><ele>1407.0</ele><time>2026-04-27T14:23:45Z</time></trkpt><trkpt lat="30.835245599839965" lon="-8.393996770310764"><ele>1401.0</ele><time>2026-04-27T14:23:46Z</time></trkpt><trkpt lat="30.835121514294435" lon="-8.394054537570089"><ele>1395.0</ele><time>2026-04-27T14:23:47Z</time></trkpt><trkpt lat="30.835005421585848" lon="-8.394079921229658"><ele>1389.0</ele><time>2026-04-27T14:23:48Z</time></trkpt><trkpt lat="30.83489194713261" lon="-8.394066589018761"><ele>1389.0</ele><time>2026-04-27T14:23:49Z</time></trkpt><trkpt lat="30.83477795961699" lon="-8.394050640438916"><ele>1389.0</ele><time>2026-04-27T14:23:50Z</time></trkpt><trkpt lat="30.83466592605883" lon="-8.393979284937998"><ele>1389.0</ele><time>2026-04-27T14:23:51Z</time></trkpt><trkpt lat="30.834558492438475" lon="-8.393947967437422"><ele>1389.0</ele><time>2026-04-27T14:23:52Z</time></trkpt><trkpt lat="30.83443954339478" lon="-8.393937484279977"><ele>1389.0</ele><time>2026-04-27T14:23:53Z</time></trkpt><trkpt lat="30.83432325190936" lon="-8.393958945802622"><ele>1389.0</ele><time>2026-04-27T14:23:54Z</time></trkpt><trkpt lat="30.834211900375305" lon="-8.393999479100414"><ele>1389.0</ele><time>2026-04-27T14:23:55Z</time></trkpt><trkpt lat="30.834113542733135" lon="-8.394021801722767"><ele>1389.0</ele><time>2026-04-27T14:23:56Z</time></trkpt><trkpt lat="30.83403144669277" lon="-8.394028128015023"><ele>1389.0</ele><time>2026-04-27T14:23:57Z</time></trkpt><trkpt lat="30.833967453724817" lon="-8.39406263200929"><ele>1390.0</ele><time>2026-04-27T14:23:58Z</time></trkpt><trkpt lat="30.833910552035384" lon="-8.394130180918642"><ele>1391.0</ele><time>2026-04-27T14:23:59Z</time></trkpt><trkpt lat="30.833867542048214" lon="-8.39420863453832"><ele>1392.0</ele><time>2026-04-27T14:24:00Z</time></trkpt><trkpt lat="30.83385246093588" lon="-8.394299208707713"><ele>1393.0</ele><time>2026-04-27T14:24:01Z</time></trkpt><trkpt lat="30.833873872400826" lon="-8.394380076540513"><ele>1394.0</ele><time>2026-04-27T14:24:02Z</time></trkpt><trkpt lat="30.833920021562342" lon="-8.394468257726945"><ele>1395.0</ele><time>2026-04-27T14:24:03Z</time></trkpt><trkpt lat="30.834021189508583" lon="-8.394564458837788"><ele>1395.0</ele><time>2026-04-27T14:24:04Z</time></trkpt><trkpt lat="30.834106400110596" lon="-8.394701613410614"><ele>1395.0</ele><time>2026-04-27T14:24:05Z</time></trkpt><trkpt lat="30.834211389594202" lon="-8.394808182908422"><ele>1395.0</ele><time>2026-04-27T14:24:06Z</time></trkpt><trkpt lat="30.83429060797507" lon="-8.394915538296628"><ele>1395.0</ele><time>2026-04-27T14:24:07Z</time></trkpt><trkpt lat="30.834335515461387" lon="-8.39503545149184"><ele>1393.75</ele><time>2026-04-27T14:24:08Z</time></trkpt><trkpt lat="30.834368196762355" lon="-8.39517254107659"><ele>1392.5</ele><time>2026-04-27T14:24:09Z</time></trkpt><trkpt lat="30.834361757982794" lon="-8.395344221694552"><ele>1391.25</ele><time>2026-04-27T14:24:10Z</time></trkpt><trkpt lat="30.834321474209382" lon="-8.395529447978104"><ele>1390.0</ele><time>2026-04-27T14:24:11Z</time></trkpt><trkpt lat="30.834244384386693" lon="-8.395707480121702"><ele>1390.0</ele><time>2026-04-27T14:24:12Z</time></trkpt><trkpt lat="30.834171362529336" lon="-8.395893506940176"><ele>1390.0</ele><time>2026-04-27T14:24:13Z</time></trkpt><trkpt lat="30.83410310524232" lon="-8.396079795944463"><ele>1390.0</ele><time>2026-04-27T14:24:14Z</time></trkpt><trkpt lat="30.83403425049252" lon="-8.39626966876051"><ele>1384.3333333333333</ele><time>2026-04-27T14:24:15Z</time></trkpt><trkpt lat="30.83396282204384" lon="-8.396459304049465"><ele>1378.6666666666667</ele><time>2026-04-27T14:24:16Z</time></trkpt><trkpt lat="30.833881025227306" lon="-8.39662475835854"><ele>1373.0</ele><time>2026-04-27T14:24:17Z</time></trkpt><trkpt lat="30.833825736019616" lon="-8.39678881721522"><ele>1373.0</ele><time>2026-04-27T14:24:18Z</time></trkpt><trkpt lat="30.833752704169907" lon="-8.396925405980939"><ele>1373.0</ele><time>2026-04-27T14:24:19Z</time></trkpt><trkpt lat="30.833680167835727" lon="-8.397039754038895"><ele>1373.0</ele><time>2026-04-27T14:24:20Z</time></trkpt><trkpt lat="30.833642249869136" lon="-8.39713685640788"><ele>1373.0</ele><time>2026-04-27T14:24:21Z</time></trkpt><trkpt lat="30.833637464921406" lon="-8.39723965850574"><ele>1373.0</ele><time>2026-04-27T14:24:22Z</time></trkpt><trkpt lat="30.833669392031805" lon="-8.397364923265425"><ele>1371.6666666666667</ele><time>2026-04-27T14:24:23Z</time></trkpt><trkpt lat="30.833736591771878" lon="-8.39750565979243"><ele>1370.3333333333333</ele><time>2026-04-27T14:24:24Z</time></trkpt><trkpt lat="30.83381318286831" lon="-8.397668046024334"><ele>1369.0</ele><time>2026-04-27T14:24:25Z</time></trkpt><trkpt lat="30.833888545788533" lon="-8.397827055359665"><ele>1370.6666666666665</ele><time>2026-04-27T14:24:26Z</time></trkpt><trkpt lat="30.83390830144682" lon="-8.398005019232832"><ele>1372.3333333333333</ele><time>2026-04-27T14:24:27Z</time></trkpt><trkpt lat="30.833913929704718" lon="-8.398183498809978"><ele>1374.0</ele><time>2026-04-27T14:24:28Z</time></trkpt><trkpt lat="30.83389560858527" lon="-8.398366665408297"><ele>1374.0</ele><time>2026-04-27T14:24:29Z</time></trkpt><trkpt lat="30.833847082114872" lon="-8.398527466310403"><ele>1374.0</ele><time>2026-04-27T14:24:30Z</time></trkpt><trkpt lat="30.833778997397815" lon="-8.3986769040222"><ele>1374.0</ele><time>2026-04-27T14:24:31Z</time></trkpt><trkpt lat="30.833691762664845" lon="-8.39883236974192"><ele>1372.0</ele><time>2026-04-27T14:24:32Z</time></trkpt><trkpt lat="30.83359989843031" lon="-8.398993373459238"><ele>1370.0</ele><time>2026-04-27T14:24:33Z</time></trkpt><trkpt lat="30.83355502601698" lon="-8.399154534097482"><ele>1368.0</ele><time>2026-04-27T14:24:34Z</time></trkpt><trkpt lat="30.833496345720732" lon="-8.399305336667906"><ele>1370.25</ele><time>2026-04-27T14:24:35Z</time></trkpt><trkpt lat="30.833448461273388" lon="-8.399467956129428"><ele>1372.5</ele><time>2026-04-27T14:24:36Z</time></trkpt><trkpt lat="30.83339386870755" lon="-8.399610405378201"><ele>1374.75</ele><time>2026-04-27T14:24:37Z</time></trkpt><trkpt lat="30.83331919556831" lon="-8.399759764120674"><ele>1377.0</ele><time>2026-04-27T14:24:38Z</time></trkpt><trkpt lat="30.833221386224498" lon="-8.399924825243811"><ele>1377.0</ele><time>2026-04-27T14:24:39Z</time></trkpt><trkpt lat="30.833132505169587" lon="-8.400099106217011"><ele>1377.0</ele><time>2026-04-27T14:24:40Z</time></trkpt><trkpt lat="30.83310999214269" lon="-8.40029875230314"><ele>1377.0</ele><time>2026-04-27T14:24:41Z</time></trkpt><trkpt lat="30.833093372196046" lon="-8.400491188137154"><ele>1372.75</ele><time>2026-04-27T14:24:42Z</time></trkpt><trkpt lat="30.833068513171273" lon="-8.400652534121162"><ele>1368.5</ele><time>2026-04-27T14:24:43Z</time></trkpt><trkpt lat="30.833015348109786" lon="-8.400799050932063"><ele>1364.25</ele><time>2026-04-27T14:24:44Z</time></trkpt><trkpt lat="30.832903366513325" lon="-8.400944890916483"><ele>1360.0</ele><time>2026-04-27T14:24:45Z</time></trkpt><trkpt lat="30.832747832331805" lon="-8.401082705258528"><ele>1361.6666666666665</ele><time>2026-04-27T14:24:46Z</time></trkpt><trkpt lat="30.83257429191641" lon="-8.40121581037575"><ele>1363.3333333333333</ele><time>2026-04-27T14:24:47Z</time></trkpt><trkpt lat="30.83241728012802" lon="-8.40133475711086"><ele>1365.0</ele><time>2026-04-27T14:24:48Z</time></trkpt><trkpt lat="30.83228954641434" lon="-8.401452333840336"><ele>1365.0</ele><time>2026-04-27T14:24:49Z</time></trkpt><trkpt lat="30.832183834354474" lon="-8.401580154230947"><ele>1365.0</ele><time>2026-04-27T14:24:50Z</time></trkpt><trkpt lat="30.832089247206998" lon="-8.401719388136337"><ele>1365.0</ele><time>2026-04-27T14:24:51Z</time></trkpt><trkpt lat="30.831982113594613" lon="-8.401883968753294"><ele>1365.0</ele><time>2026-04-27T14:24:52Z</time></trkpt><trkpt lat="30.831870247153805" lon="-8.402048962670461"><ele>1365.0</ele><time>2026-04-27T14:24:53Z</time></trkpt><trkpt lat="30.83175641871888" lon="-8.402211840918877"><ele>1365.0</ele><time>2026-04-27T14:24:54Z</time></trkpt><trkpt lat="30.83165842204568" lon="-8.402361419996085"><ele>1364.0</ele><time>2026-04-27T14:24:55Z</time></trkpt><trkpt lat="30.83156601615285" lon="-8.402506627232093"><ele>1363.0</ele><time>2026-04-27T14:24:56Z</time></trkpt><trkpt lat="30.831471806026617" lon="-8.40264925787096"><ele>1362.0</ele><time>2026-04-27T14:24:57Z</time></trkpt><trkpt lat="30.831369896739705" lon="-8.402782414940747"><ele>1362.0</ele><time>2026-04-27T14:24:58Z</time></trkpt><trkpt lat="30.831254448905305" lon="-8.402897666640563"><ele>1362.0</ele><time>2026-04-27T14:24:59Z</time></trkpt><trkpt lat="30.831111256507224" lon="-8.40299681205022"><ele>1362.0</ele><time>2026-04-27T14:25:00Z</time></trkpt><trkpt lat="30.83096522795218" lon="-8.403072442649444"><ele>1358.0</ele><time>2026-04-27T14:25:01Z</time></trkpt><trkpt lat="30.830823039026665" lon="-8.403126961287446"><ele>1354.0</ele><time>2026-04-27T14:25:02Z</time></trkpt><trkpt lat="30.830670618457408" lon="-8.403177330118407"><ele>1350.0</ele><time>2026-04-27T14:25:03Z</time></trkpt><trkpt lat="30.83051029167929" lon="-8.403214602871827"><ele>1350.0</ele><time>2026-04-27T14:25:04Z</time></trkpt><trkpt lat="30.83034179630395" lon="-8.403248317328147"><ele>1350.0</ele><time>2026-04-27T14:25:05Z</time></trkpt><trkpt lat="30.83017015809589" lon="-8.40328284608341"><ele>1350.0</ele><time>2026-04-27T14:25:06Z</time></trkpt><trkpt lat="30.830006777334543" lon="-8.403309164641124"><ele>1350.3333333333333</ele><time>2026-04-27T14:25:07Z</time></trkpt><trkpt lat="30.82984954441826" lon="-8.403311722607974"><ele>1350.6666666666665</ele><time>2026-04-27T14:25:08Z</time></trkpt><trkpt lat="30.829696578403777" lon="-8.403280854918235"><ele>1351.0</ele><time>2026-04-27T14:25:09Z</time></trkpt><trkpt lat="30.829553469873797" lon="-8.40324324323482"><ele>1351.0</ele><time>2026-04-27T14:25:10Z</time></trkpt><trkpt lat="30.82941931633113" lon="-8.403253393351589"><ele>1351.0</ele><time>2026-04-27T14:25:11Z</time></trkpt><trkpt lat="30.829307321331125" lon="-8.403296331306075"><ele>1351.0</ele><time>2026-04-27T14:25:12Z</time></trkpt><trkpt lat="30.829204757347142" lon="-8.40330800594224"><ele>1351.0</ele><time>2026-04-27T14:25:13Z</time></trkpt><trkpt lat="30.829112988339677" lon="-8.403318451587934"><ele>1351.0</ele><time>2026-04-27T14:25:14Z</time></trkpt><trkpt lat="30.829031633736566" lon="-8.4032938857331"><ele>1351.8</ele><time>2026-04-27T14:25:15Z</time></trkpt><trkpt lat="30.82896454054796" lon="-8.403264011180738"><ele>1352.6</ele><time>2026-04-27T14:25:16Z</time></trkpt><trkpt lat="30.828902170428414" lon="-8.403212543292085"><ele>1353.4</ele><time>2026-04-27T14:25:17Z</time></trkpt><trkpt lat="30.828829863069657" lon="-8.40315988366698"><ele>1354.2</ele><time>2026-04-27T14:25:18Z</time></trkpt><trkpt lat="30.828766361260737" lon="-8.403049363336653"><ele>1355.0</ele><time>2026-04-27T14:25:19Z</time></trkpt><trkpt lat="30.828727103096206" lon="-8.402924556506239"><ele>1355.0</ele><time>2026-04-27T14:25:20Z</time></trkpt><trkpt lat="30.828694342341283" lon="-8.402795224352742"><ele>1355.0</ele><time>2026-04-27T14:25:21Z</time></trkpt><trkpt lat="30.82865674942686" lon="-8.402641536729973"><ele>1355.0</ele><time>2026-04-27T14:25:22Z</time></trkpt><trkpt lat="30.828621140277654" lon="-8.402494954033365"><ele>1355.0</ele><time>2026-04-27T14:25:23Z</time></trkpt><trkpt lat="30.828575181827215" lon="-8.402339097843349"><ele>1355.0</ele><time>2026-04-27T14:25:24Z</time></trkpt><trkpt lat="30.82851303396025" lon="-8.402220126018726"><ele>1355.0</ele><time>2026-04-27T14:25:25Z</time></trkpt><trkpt lat="30.828440595353484" lon="-8.402138632786391"><ele>1355.0</ele><time>2026-04-27T14:25:26Z</time></trkpt><trkpt lat="30.82835435839234" lon="-8.402037042632644"><ele>1355.0</ele><time>2026-04-27T14:25:27Z</time></trkpt><trkpt lat="30.8282805490887" lon="-8.401944553757003"><ele>1350.6</ele><time>2026-04-27T14:25:28Z</time></trkpt><trkpt lat="30.82821969868087" lon="-8.401862470798102"><ele>1346.2</ele><time>2026-04-27T14:25:29Z</time></trkpt><trkpt lat="30.828200465142412" lon="-8.40175002916787"><ele>1341.8000000000002</ele><time>2026-04-27T14:25:30Z</time></trkpt><trkpt lat="30.828228498081604" lon="-8.401619988391163"><ele>1337.4</ele><time>2026-04-27T14:25:31Z</time></trkpt><trkpt lat="30.82828888975037" lon="-8.401496373652972"><ele>1333.0</ele><time>2026-04-27T14:25:32Z</time></trkpt><trkpt lat="30.828341928142077" lon="-8.401371649540184"><ele>1331.75</ele><time>2026-04-27T14:25:33Z</time></trkpt><trkpt lat="30.82839657397295" lon="-8.40124436643212"><ele>1330.5</ele><time>2026-04-27T14:25:34Z</time></trkpt><trkpt lat="30.828428450607987" lon="-8.401123156627744"><ele>1329.25</ele><time>2026-04-27T14:25:35Z</time></trkpt><trkpt lat="30.82843622854311" lon="-8.400980369702516"><ele>1328.0</ele><time>2026-04-27T14:25:36Z</time></trkpt><trkpt lat="30.828418902501603" lon="-8.40082954420572"><ele>1328.0</ele><time>2026-04-27T14:25:37Z</time></trkpt><trkpt lat="30.82839273239646" lon="-8.400656594199601"><ele>1328.0</ele><time>2026-04-27T14:25:38Z</time></trkpt><trkpt lat="30.82839744931072" lon="-8.400482404739765"><ele>1328.0</ele><time>2026-04-27T14:25:39Z</time></trkpt><trkpt lat="30.828401469599456" lon="-8.400320843764623"><ele>1328.0</ele><time>2026-04-27T14:25:40Z</time></trkpt><trkpt lat="30.828408429292214" lon="-8.400160952422121"><ele>1327.75</ele><time>2026-04-27T14:25:41Z</time></trkpt><trkpt lat="30.828416949010244" lon="-8.400009684335071"><ele>1327.5</ele><time>2026-04-27T14:25:42Z</time></trkpt><trkpt lat="30.828394618205706" lon="-8.399877391453066"><ele>1327.25</ele><time>2026-04-27T14:25:43Z</time></trkpt><trkpt lat="30.828366587298" lon="-8.399743971097873"><ele>1327.0</ele><time>2026-04-27T14:25:44Z</time></trkpt><trkpt lat="30.82830286898191" lon="-8.399640050315245"><ele>1328.25</ele><time>2026-04-27T14:25:45Z</time></trkpt><trkpt lat="30.828234469807164" lon="-8.3995063117782"><ele>1329.5</ele><time>2026-04-27T14:25:46Z</time></trkpt><trkpt lat="30.828162379484684" lon="-8.39936710787007"><ele>1330.75</ele><time>2026-04-27T14:25:47Z</time></trkpt><trkpt lat="30.828110079217144" lon="-8.399243954931599"><ele>1332.0</ele><time>2026-04-27T14:25:48Z</time></trkpt><trkpt lat="30.828075493839183" lon="-8.399125891525594"><ele>1332.0</ele><time>2026-04-27T14:25:49Z</time></trkpt><trkpt lat="30.82804656324333" lon="-8.399005227215133"><ele>1332.0</ele><time>2026-04-27T14:25:50Z</time></trkpt><trkpt lat="30.82804657351988" lon="-8.39884828395802"><ele>1332.0</ele><time>2026-04-27T14:25:51Z</time></trkpt><trkpt lat="30.828025036328526" lon="-8.398689321054915"><ele>1332.0</ele><time>2026-04-27T14:25:52Z</time></trkpt><trkpt lat="30.828003390373244" lon="-8.398525472407462"><ele>1333.0</ele><time>2026-04-27T14:25:53Z</time></trkpt><trkpt lat="30.827983568116817" lon="-8.398368944807917"><ele>1334.0</ele><time>2026-04-27T14:25:54Z</time></trkpt><trkpt lat="30.827968191278817" lon="-8.398240015798287"><ele>1335.0</ele><time>2026-04-27T14:25:55Z</time></trkpt><trkpt lat="30.827938779835005" lon="-8.398089467472731"><ele>1336.0</ele><time>2026-04-27T14:25:56Z</time></trkpt><trkpt lat="30.82789456574882" lon="-8.397925172973396"><ele>1339.6666666666665</ele><time>2026-04-27T14:25:57Z</time></trkpt><trkpt lat="30.827811623989902" lon="-8.397782103881342"><ele>1343.3333333333333</ele><time>2026-04-27T14:25:58Z</time></trkpt><trkpt lat="30.827701297537036" lon="-8.397595356912225"><ele>1347.0</ele><time>2026-04-27T14:25:59Z</time></trkpt><trkpt lat="30.827588386067735" lon="-8.3973648159791"><ele>1341.0</ele><time>2026-04-27T14:26:00Z</time></trkpt><trkpt lat="30.827552814717336" lon="-8.397116069111556"><ele>1335.0</ele><time>2026-04-27T14:26:01Z</time></trkpt><trkpt lat="30.827631252653376" lon="-8.397000936880445"><ele>1329.0</ele><time>2026-04-27T14:26:02Z</time></trkpt><trkpt lat="30.827597944140155" lon="-8.396865065666153"><ele>1329.0</ele><time>2026-04-27T14:26:03Z</time></trkpt><trkpt lat="30.82758859356325" lon="-8.396776821704425"><ele>1329.0</ele><time>2026-04-27T14:26:04Z</time></trkpt><trkpt lat="30.827507251571703" lon="-8.396678564392943"><ele>1329.0</ele><time>2026-04-27T14:26:05Z</time></trkpt><trkpt lat="30.82741121392301" lon="-8.396617831275963"><ele>1329.0</ele><time>2026-04-27T14:26:06Z</time></trkpt><trkpt lat="30.82730637381485" lon="-8.396564418274206"><ele>1329.0</ele><time>2026-04-27T14:26:07Z</time></trkpt><trkpt lat="30.82720533365946" lon="-8.396527201897044"><ele>1329.0</ele><time>2026-04-27T14:26:08Z</time></trkpt><trkpt lat="30.827118707734446" lon="-8.396646775423468"><ele>1329.0</ele><time>2026-04-27T14:26:09Z</time></trkpt><trkpt lat="30.82701548965994" lon="-8.396776703051422"><ele>1329.0</ele><time>2026-04-27T14:26:10Z</time></trkpt><trkpt lat="30.826816633523215" lon="-8.396911463714392"><ele>1328.3333333333333</ele><time>2026-04-27T14:26:11Z</time></trkpt><trkpt lat="30.826656043862897" lon="-8.39699105126533"><ele>1327.6666666666665</ele><time>2026-04-27T14:26:12Z</time></trkpt><trkpt lat="30.82648704526849" lon="-8.397046620330565"><ele>1327.0</ele><time>2026-04-27T14:26:13Z</time></trkpt><trkpt lat="30.826342667737823" lon="-8.397094887325727"><ele>1327.0</ele><time>2026-04-27T14:26:14Z</time></trkpt><trkpt lat="30.82621086141391" lon="-8.397138979284968"><ele>1327.0</ele><time>2026-04-27T14:26:15Z</time></trkpt><trkpt lat="30.826070505651064" lon="-8.397168426565397"><ele>1327.0</ele><time>2026-04-27T14:26:16Z</time></trkpt><trkpt lat="30.82590621666056" lon="-8.397142847431427"><ele>1327.0</ele><time>2026-04-27T14:26:17Z</time></trkpt><trkpt lat="30.825770415015302" lon="-8.39708313775762"><ele>1325.6666666666665</ele><time>2026-04-27T14:26:18Z</time></trkpt><trkpt lat="30.825647481096365" lon="-8.396957266863186"><ele>1324.3333333333333</ele><time>2026-04-27T14:26:19Z</time></trkpt><trkpt lat="30.825526048854528" lon="-8.396845780521362"><ele>1323.0</ele><time>2026-04-27T14:26:20Z</time></trkpt><trkpt lat="30.82537418355732" lon="-8.3967026922438"><ele>1323.0</ele><time>2026-04-27T14:26:21Z</time></trkpt><trkpt lat="30.825217755190533" lon="-8.3965554239222"><ele>1323.0</ele><time>2026-04-27T14:26:22Z</time></trkpt><trkpt lat="30.825083203737993" lon="-8.39641411808704"><ele>1323.0</ele><time>2026-04-27T14:26:23Z</time></trkpt><trkpt lat="30.82498561744929" lon="-8.39628120259282"><ele>1322.75</ele><time>2026-04-27T14:26:24Z</time></trkpt><trkpt lat="30.824913116303467" lon="-8.396139084150175"><ele>1322.5</ele><time>2026-04-27T14:26:25Z</time></trkpt><trkpt lat="30.824805725280576" lon="-8.396032872095754"><ele>1322.25</ele><time>2026-04-27T14:26:26Z</time></trkpt><trkpt lat="30.824682265974488" lon="-8.396012445456229"><ele>1322.0</ele><time>2026-04-27T14:26:27Z</time></trkpt><trkpt lat="30.82452868653416" lon="-8.395999757637597"><ele>1322.0</ele><time>2026-04-27T14:26:28Z</time></trkpt><trkpt lat="30.82433676355696" lon="-8.39600166737882"><ele>1322.0</ele><time>2026-04-27T14:26:29Z</time></trkpt><trkpt lat="30.824177060016524" lon="-8.39596621874719"><ele>1322.0</ele><time>2026-04-27T14:26:30Z</time></trkpt><trkpt lat="30.82401938189177" lon="-8.39578457074558"><ele>1327.3333333333335</ele><time>2026-04-27T14:26:31Z</time></trkpt><trkpt lat="30.823880773070947" lon="-8.395685731922324"><ele>1332.6666666666667</ele><time>2026-04-27T14:26:32Z</time></trkpt><trkpt lat="30.823717169421112" lon="-8.395585314959433"><ele>1338.0</ele><time>2026-04-27T14:26:33Z</time></trkpt><trkpt lat="30.82355940163226" lon="-8.395474108639656"><ele>1329.6666666666667</ele><time>2026-04-27T14:26:34Z</time></trkpt><trkpt lat="30.823399267698285" lon="-8.395364264742286"><ele>1321.3333333333335</ele><time>2026-04-27T14:26:35Z</time></trkpt><trkpt lat="30.823245247533134" lon="-8.395279905953409"><ele>1313.0</ele><time>2026-04-27T14:26:36Z</time></trkpt><trkpt lat="30.823082154481643" lon="-8.395209974858854"><ele>1313.0</ele><time>2026-04-27T14:26:37Z</time></trkpt><trkpt lat="30.822905699878074" lon="-8.395127433009788"><ele>1313.0</ele><time>2026-04-27T14:26:38Z</time></trkpt><trkpt lat="30.82271725825389" lon="-8.39498760392569"><ele>1313.0</ele><time>2026-04-27T14:26:39Z</time></trkpt><trkpt lat="30.82259645774352" lon="-8.394794707701164"><ele>1313.5</ele><time>2026-04-27T14:26:40Z</time></trkpt><trkpt lat="30.8225281007332" lon="-8.394668348939526"><ele>1314.0</ele><time>2026-04-27T14:26:41Z</time></trkpt><trkpt lat="30.822441439543187" lon="-8.394568012985985"><ele>1314.5</ele><time>2026-04-27T14:26:42Z</time></trkpt><trkpt lat="30.822354715223174" lon="-8.394493115153166"><ele>1315.0</ele><time>2026-04-27T14:26:43Z</time></trkpt><trkpt lat="30.82225520268922" lon="-8.394535282557124"><ele>1315.0</ele><time>2026-04-27T14:26:44Z</time></trkpt><trkpt lat="30.822167870949308" lon="-8.394539386020135"><ele>1315.0</ele><time>2026-04-27T14:26:45Z</time></trkpt><trkpt lat="30.822096062099824" lon="-8.394608251552983"><ele>1315.0</ele><time>2026-04-27T14:26:46Z</time></trkpt><trkpt lat="30.821915985222592" lon="-8.39461784770508"><ele>1315.0</ele><time>2026-04-27T14:26:47Z</time></trkpt><trkpt lat="30.821736587109157" lon="-8.394571270450932"><ele>1314.3333333333333</ele><time>2026-04-27T14:26:48Z</time></trkpt><trkpt lat="30.821559106639963" lon="-8.39462598260525"><ele>1313.6666666666667</ele><time>2026-04-27T14:26:49Z</time></trkpt><trkpt lat="30.821401927993904" lon="-8.394673467902328"><ele>1313.0</ele><time>2026-04-27T14:26:50Z</time></trkpt><trkpt lat="30.821256886635325" lon="-8.39470206991725"><ele>1313.3333333333335</ele><time>2026-04-27T14:26:51Z</time></trkpt><trkpt lat="30.821100598812116" lon="-8.394708317528474"><ele>1313.6666666666667</ele><time>2026-04-27T14:26:52Z</time></trkpt><trkpt lat="30.82092327322222" lon="-8.394692474328933"><ele>1314.0</ele><time>2026-04-27T14:26:53Z</time></trkpt><trkpt lat="30.820732191093416" lon="-8.39466111323674"><ele>1314.0</ele><time>2026-04-27T14:26:54Z</time></trkpt><trkpt lat="30.820554956823504" lon="-8.39464260871362"><ele>1314.0</ele><time>2026-04-27T14:26:55Z</time></trkpt><trkpt lat="30.82040727423904" lon="-8.39467430156506"><ele>1314.0</ele><time>2026-04-27T14:26:56Z</time></trkpt><trkpt lat="30.820304861910277" lon="-8.39477064394186"><ele>1299.0</ele><time>2026-04-27T14:26:57Z</time></trkpt><trkpt lat="30.820145863488055" lon="-8.394901693057669"><ele>1284.0</ele><time>2026-04-27T14:26:58Z</time></trkpt><trkpt lat="30.819957027595134" lon="-8.394952574386744"><ele>1269.0</ele><time>2026-04-27T14:26:59Z</time></trkpt><trkpt lat="30.819793496655702" lon="-8.394978543487111"><ele>1269.0</ele><time>2026-04-27T14:27:00Z</time></trkpt><trkpt lat="30.81963458358064" lon="-8.394988353649145"><ele>1269.0</ele><time>2026-04-27T14:27:01Z</time></trkpt><trkpt lat="30.819458394309105" lon="-8.39500026143574"><ele>1269.0</ele><time>2026-04-27T14:27:02Z</time></trkpt><trkpt lat="30.819271803857355" lon="-8.394999515782139"><ele>1271.5</ele><time>2026-04-27T14:27:03Z</time></trkpt><trkpt lat="30.81910579518341" lon="-8.395052412800494"><ele>1274.0</ele><time>2026-04-27T14:27:04Z</time></trkpt><trkpt lat="30.818963705904686" lon="-8.395046610328192"><ele>1276.5</ele><time>2026-04-27T14:27:05Z</time></trkpt><trkpt lat="30.818838231053434" lon="-8.395047070549762"><ele>1279.0</ele><time>2026-04-27T14:27:06Z</time></trkpt><trkpt lat="30.818721932784403" lon="-8.395051259110518"><ele>1279.0</ele><time>2026-04-27T14:27:07Z</time></trkpt><trkpt lat="30.818626006028" lon="-8.395125488322986"><ele>1279.0</ele><time>2026-04-27T14:27:08Z</time></trkpt><trkpt lat="30.81858949038173" lon="-8.395255773921754"><ele>1279.0</ele><time>2026-04-27T14:27:09Z</time></trkpt><trkpt lat="30.81855359134778" lon="-8.3953745238873"><ele>1279.0</ele><time>2026-04-27T14:27:10Z</time></trkpt><trkpt lat="30.818516039991383" lon="-8.395525221681122"><ele>1278.0</ele><time>2026-04-27T14:27:11Z</time></trkpt><trkpt lat="30.8184641527887" lon="-8.395691153756404"><ele>1277.0</ele><time>2026-04-27T14:27:12Z</time></trkpt><trkpt lat="30.81844300322064" lon="-8.395874228321563"><ele>1276.0</ele><time>2026-04-27T14:27:13Z</time></trkpt><trkpt lat="30.818441667532777" lon="-8.39607300657271"><ele>1276.0</ele><time>2026-04-27T14:27:14Z</time></trkpt><trkpt lat="30.818411057765438" lon="-8.396290489767669"><ele>1276.0</ele><time>2026-04-27T14:27:15Z</time></trkpt><trkpt lat="30.818406132708148" lon="-8.396523412896073"><ele>1276.0</ele><time>2026-04-27T14:27:16Z</time></trkpt><trkpt lat="30.818401366424567" lon="-8.396760294173678"><ele>1272.6666666666665</ele><time>2026-04-27T14:27:17Z</time></trkpt><trkpt lat="30.8183955071961" lon="-8.397012950304259"><ele>1269.3333333333333</ele><time>2026-04-27T14:27:18Z</time></trkpt><trkpt lat="30.818390696909667" lon="-8.397262505405271"><ele>1266.0</ele><time>2026-04-27T14:27:19Z</time></trkpt><trkpt lat="30.818373926795164" lon="-8.397489176967593"><ele>1263.0</ele><time>2026-04-27T14:27:20Z</time></trkpt><trkpt lat="30.818351998504156" lon="-8.397702956865633"><ele>1260.0</ele><time>2026-04-27T14:27:21Z</time></trkpt><trkpt lat="30.818321107396606" lon="-8.397899188321619"><ele>1257.0</ele><time>2026-04-27T14:27:22Z</time></trkpt><trkpt lat="30.818276627087418" lon="-8.398084355838252"><ele>1254.0</ele><time>2026-04-27T14:27:23Z</time></trkpt><trkpt lat="30.818223045308695" lon="-8.398240511246675"><ele>1251.0</ele><time>2026-04-27T14:27:24Z</time></trkpt><trkpt lat="30.81816706545088" lon="-8.398349580323588"><ele>1248.0</ele><time>2026-04-27T14:27:25Z</time></trkpt><trkpt lat="30.8180996420895" lon="-8.398413569710328"><ele>1245.0</ele><time>2026-04-27T14:27:26Z</time></trkpt><trkpt lat="30.818015505447285" lon="-8.398430941235828"><ele>1242.0</ele><time>2026-04-27T14:27:27Z</time></trkpt><trkpt lat="30.81793157790041" lon="-8.398399573641683"><ele>1242.0</ele><time>2026-04-27T14:27:28Z</time></trkpt><trkpt lat="30.817846029593557" lon="-8.39836516725484"><ele>1242.0</ele><time>2026-04-27T14:27:29Z</time></trkpt><trkpt lat="30.817779712240018" lon="-8.398212677786974"><ele>1242.0</ele><time>2026-04-27T14:27:30Z</time></trkpt><trkpt lat="30.81770369925531" lon="-8.39807275647408"><ele>1242.0</ele><time>2026-04-27T14:27:31Z</time></trkpt><trkpt lat="30.817628132101618" lon="-8.397930458158678"><ele>1246.75</ele><time>2026-04-27T14:27:32Z</time></trkpt><trkpt lat="30.81753387304479" lon="-8.397803194908315"><ele>1251.5</ele><time>2026-04-27T14:27:33Z</time></trkpt><trkpt lat="30.817425790467393" lon="-8.397687447469965"><ele>1256.25</ele><time>2026-04-27T14:27:34Z</time></trkpt><trkpt lat="30.81731009306264" lon="-8.397576463809006"><ele>1261.0</ele><time>2026-04-27T14:27:35Z</time></trkpt><trkpt lat="30.817171654209297" lon="-8.397454909854591"><ele>1261.0</ele><time>2026-04-27T14:27:36Z</time></trkpt><trkpt lat="30.817050320448125" lon="-8.397348295984312"><ele>1261.0</ele><time>2026-04-27T14:27:37Z</time></trkpt><trkpt lat="30.81695259240265" lon="-8.397284904116637"><ele>1261.0</ele><time>2026-04-27T14:27:38Z</time></trkpt><trkpt lat="30.816843107850758" lon="-8.397220673731047"><ele>1261.0</ele><time>2026-04-27T14:27:39Z</time></trkpt><trkpt lat="30.816742434788026" lon="-8.397162092708593"><ele>1264.0</ele><time>2026-04-27T14:27:40Z</time></trkpt><trkpt lat="30.816668190864537" lon="-8.397121826523005"><ele>1267.0</ele><time>2026-04-27T14:27:41Z</time></trkpt><trkpt lat="30.816556597221922" lon="-8.397089989706185"><ele>1270.0</ele><time>2026-04-27T14:27:42Z</time></trkpt><trkpt lat="30.816478942413053" lon="-8.397087201398364"><ele>1273.0</ele><time>2026-04-27T14:27:43Z</time></trkpt><trkpt lat="30.816366449568772" lon="-8.397124024190799"><ele>1276.0</ele><time>2026-04-27T14:27:44Z</time></trkpt><trkpt lat="30.816242965122896" lon="-8.397181586542258"><ele>1270.25</ele><time>2026-04-27T14:27:45Z</time></trkpt><trkpt lat="30.816161400842546" lon="-8.397284731730172"><ele>1264.5</ele><time>2026-04-27T14:27:46Z</time></trkpt><trkpt lat="30.816090681786413" lon="-8.397402331706026"><ele>1258.75</ele><time>2026-04-27T14:27:47Z</time></trkpt><trkpt lat="30.81601147779651" lon="-8.397520182381571"><ele>1253.0</ele><time>2026-04-27T14:27:48Z</time></trkpt><trkpt lat="30.81593315831976" lon="-8.397643888319193"><ele>1253.0</ele><time>2026-04-27T14:27:49Z</time></trkpt><trkpt lat="30.81587473171202" lon="-8.397807436409282"><ele>1253.0</ele><time>2026-04-27T14:27:50Z</time></trkpt><trkpt lat="30.815796374600136" lon="-8.397978388666889"><ele>1253.0</ele><time>2026-04-27T14:27:51Z</time></trkpt><trkpt lat="30.815750336222955" lon="-8.398150785962677"><ele>1248.0</ele><time>2026-04-27T14:27:52Z</time></trkpt><trkpt lat="30.815687609412283" lon="-8.398309502558899"><ele>1243.0</ele><time>2026-04-27T14:27:53Z</time></trkpt><trkpt lat="30.81561385666368" lon="-8.398447560393326"><ele>1238.0</ele><time>2026-04-27T14:27:54Z</time></trkpt><trkpt lat="30.815532846956053" lon="-8.398559859938302"><ele>1233.0</ele><time>2026-04-27T14:27:55Z</time></trkpt><trkpt lat="30.81561379958422" lon="-8.39891015610529"><ele>1222.5</ele><time>2026-04-27T14:27:56Z</time></trkpt><trkpt lat="30.815521310239102" lon="-8.398996224740113"><ele>1212.0</ele><time>2026-04-27T14:27:57Z</time></trkpt><trkpt lat="30.815199859709423" lon="-8.398886749387076"><ele>1219.25</ele><time>2026-04-27T14:27:58Z</time></trkpt><trkpt lat="30.815064314920036" lon="-8.398829292781821"><ele>1226.5</ele><time>2026-04-27T14:27:59Z</time></trkpt><trkpt lat="30.81493174567059" lon="-8.398797160776333"><ele>1233.75</ele><time>2026-04-27T14:28:00Z</time></trkpt><trkpt lat="30.814806322207676" lon="-8.398773871715695"><ele>1241.0</ele><time>2026-04-27T14:28:01Z</time></trkpt><trkpt lat="30.81469136818312" lon="-8.398743612601521"><ele>1241.0</ele><time>2026-04-27T14:28:02Z</time></trkpt><trkpt lat="30.814579669600786" lon="-8.398717740354906"><ele>1241.0</ele><time>2026-04-27T14:28:03Z</time></trkpt><trkpt lat="30.814469669012716" lon="-8.398627016353666"><ele>1241.0</ele><time>2026-04-27T14:28:04Z</time></trkpt><trkpt lat="30.81434965753308" lon="-8.398483320037863"><ele>1241.0</ele><time>2026-04-27T14:28:05Z</time></trkpt><trkpt lat="30.81420950427279" lon="-8.39831771954069"><ele>1234.75</ele><time>2026-04-27T14:28:06Z</time></trkpt><trkpt lat="30.814088767661577" lon="-8.398184152130183"><ele>1228.5</ele><time>2026-04-27T14:28:07Z</time></trkpt><trkpt lat="30.813988962967652" lon="-8.39808948850603"><ele>1222.25</ele><time>2026-04-27T14:28:08Z</time></trkpt><trkpt lat="30.813896179147925" lon="-8.398045892788703"><ele>1216.0</ele><time>2026-04-27T14:28:09Z</time></trkpt><trkpt lat="30.81381508301689" lon="-8.398025018978878"><ele>1215.8333333333333</ele><time>2026-04-27T14:28:10Z</time></trkpt><trkpt lat="30.813711728796164" lon="-8.397997039527207"><ele>1215.6666666666665</ele><time>2026-04-27T14:28:11Z</time></trkpt><trkpt lat="30.813617035739295" lon="-8.397928652491963"><ele>1215.5</ele><time>2026-04-27T14:28:12Z</time></trkpt><trkpt lat="30.813539707598398" lon="-8.39787001747815"><ele>1215.3333333333333</ele><time>2026-04-27T14:28:13Z</time></trkpt><trkpt lat="30.813483829809286" lon="-8.397827115683265"><ele>1215.1666666666667</ele><time>2026-04-27T14:28:14Z</time></trkpt><trkpt lat="30.813421170884155" lon="-8.397798248459186"><ele>1215.0</ele><time>2026-04-27T14:28:16Z</time></trkpt><trkpt lat="30.813399443172518" lon="-8.397727398833258"><ele>1215.0</ele><time>2026-04-27T14:28:44Z</time></trkpt><trkpt lat="30.813347100686943" lon="-8.397671534905198"><ele>1215.0</ele><time>2026-04-27T14:33:11Z</time></trkpt><trkpt lat="30.813288875366858" lon="-8.397597812274467"><ele>1215.0</ele><time>2026-04-27T14:33:13Z</time></trkpt><trkpt lat="30.813225365165565" lon="-8.397518198919924"><ele>1215.0</ele><time>2026-04-27T14:33:15Z</time></trkpt><trkpt lat="30.813170670001004" lon="-8.397449945841146"><ele>1215.0</ele><time>2026-04-27T14:33:17Z</time></trkpt><trkpt lat="30.81312463874463" lon="-8.397388791934077"><ele>1215.0</ele><time>2026-04-27T14:33:18Z</time></trkpt><trkpt lat="30.813078462566647" lon="-8.397329173631839"><ele>1215.0</ele><time>2026-04-27T14:33:19Z</time></trkpt><trkpt lat="30.81301555793811" lon="-8.397246174609242"><ele>1215.0</ele><time>2026-04-27T14:33:21Z</time></trkpt><trkpt lat="30.812959809619358" lon="-8.397160687343318"><ele>1215.0</ele><time>2026-04-27T14:33:23Z</time></trkpt><trkpt lat="30.81291881794832" lon="-8.397087453027934"><ele>1215.0</ele><time>2026-04-27T14:33:25Z</time></trkpt><trkpt lat="30.812877061506526" lon="-8.397012743222705"><ele>1215.0</ele><time>2026-04-27T14:33:27Z</time></trkpt><trkpt lat="30.812818750533403" lon="-8.39690841343152"><ele>1215.0</ele><time>2026-04-27T14:33:29Z</time></trkpt><trkpt lat="30.812758942220693" lon="-8.396826351500927"><ele>1213.3333333333333</ele><time>2026-04-27T14:33:31Z</time></trkpt><trkpt lat="30.812674108938946" lon="-8.396716181351076"><ele>1211.6666666666667</ele><time>2026-04-27T14:33:33Z</time></trkpt><trkpt lat="30.81262252022897" lon="-8.396665621418833"><ele>1210.0</ele><time>2026-04-27T14:33:34Z</time></trkpt><trkpt lat="30.812565883327043" lon="-8.396621074067811"><ele>1208.3333333333335</ele><time>2026-04-27T14:33:35Z</time></trkpt><trkpt lat="30.812500817781793" lon="-8.396558221475154"><ele>1206.6666666666667</ele><time>2026-04-27T14:33:36Z</time></trkpt><trkpt lat="30.8124341545016" lon="-8.396496514010508"><ele>1205.0</ele><time>2026-04-27T14:33:37Z</time></trkpt><trkpt lat="30.812361492498596" lon="-8.39645088438365"><ele>1205.0</ele><time>2026-04-27T14:33:38Z</time></trkpt><trkpt lat="30.81226452383375" lon="-8.39644879678207"><ele>1205.0</ele><time>2026-04-27T14:33:39Z</time></trkpt><trkpt lat="30.812149123159152" lon="-8.396477061473846"><ele>1205.0</ele><time>2026-04-27T14:33:40Z</time></trkpt><trkpt lat="30.812021141784427" lon="-8.396516408419897"><ele>1205.0</ele><time>2026-04-27T14:33:41Z</time></trkpt><trkpt lat="30.81188666669503" lon="-8.396549479629822"><ele>1203.6666666666667</ele><time>2026-04-27T14:33:42Z</time></trkpt><trkpt lat="30.81171813551336" lon="-8.396447001789872"><ele>1202.3333333333333</ele><time>2026-04-27T14:33:43Z</time></trkpt><trkpt lat="30.811509114583597" lon="-8.396498827038165"><ele>1201.0</ele><time>2026-04-27T14:33:44Z</time></trkpt><trkpt lat="30.81132673712038" lon="-8.396578368693628"><ele>1201.0</ele><time>2026-04-27T14:33:45Z</time></trkpt><trkpt lat="30.81116559439262" lon="-8.39664817259472"><ele>1201.0</ele><time>2026-04-27T14:33:46Z</time></trkpt><trkpt lat="30.811025258044616" lon="-8.396713707680524"><ele>1201.0</ele><time>2026-04-27T14:33:47Z</time></trkpt><trkpt lat="30.810880182561185" lon="-8.396733561629823"><ele>1199.75</ele><time>2026-04-27T14:33:48Z</time></trkpt><trkpt lat="30.810744188215565" lon="-8.396741636986821"><ele>1198.5</ele><time>2026-04-27T14:33:49Z</time></trkpt><trkpt lat="30.810612560851844" lon="-8.396646952860642"><ele>1197.25</ele><time>2026-04-27T14:33:50Z</time></trkpt><trkpt lat="30.810455432615203" lon="-8.396623810099541"><ele>1196.0</ele><time>2026-04-27T14:33:51Z</time></trkpt><trkpt lat="30.8103148828375" lon="-8.396622718370585"><ele>1196.0</ele><time>2026-04-27T14:33:52Z</time></trkpt><trkpt lat="30.810178848459685" lon="-8.396590914632005"><ele>1196.0</ele><time>2026-04-27T14:33:53Z</time></trkpt><trkpt lat="30.810051977670657" lon="-8.396505562686615"><ele>1196.0</ele><time>2026-04-27T14:33:54Z</time></trkpt><trkpt lat="30.809924715682293" lon="-8.396413131127115"><ele>1196.0</ele><time>2026-04-27T14:33:55Z</time></trkpt><trkpt lat="30.809811371648046" lon="-8.396327984048357"><ele>1190.75</ele><time>2026-04-27T14:33:56Z</time></trkpt><trkpt lat="30.80969705527894" lon="-8.396255389448822"><ele>1185.5</ele><time>2026-04-27T14:33:57Z</time></trkpt><trkpt lat="30.809594382610516" lon="-8.396165132544926"><ele>1180.25</ele><time>2026-04-27T14:33:58Z</time></trkpt><trkpt lat="30.80950029103395" lon="-8.396078203082663"><ele>1175.0</ele><time>2026-04-27T14:33:59Z</time></trkpt><trkpt lat="30.80941023913145" lon="-8.395995471298825"><ele>1177.3333333333335</ele><time>2026-04-27T14:34:00Z</time></trkpt><trkpt lat="30.809294432437976" lon="-8.395885448282352"><ele>1179.6666666666667</ele><time>2026-04-27T14:34:01Z</time></trkpt><trkpt lat="30.80910834666071" lon="-8.395822165591406"><ele>1182.0</ele><time>2026-04-27T14:34:02Z</time></trkpt><trkpt lat="30.808973247461978" lon="-8.396032218772943"><ele>1182.0</ele><time>2026-04-27T14:34:03Z</time></trkpt><trkpt lat="30.808867200102597" lon="-8.396001903928903"><ele>1182.0</ele><time>2026-04-27T14:34:04Z</time></trkpt><trkpt lat="30.80876421008363" lon="-8.395966516963588"><ele>1182.0</ele><time>2026-04-27T14:34:05Z</time></trkpt><trkpt lat="30.808665461052353" lon="-8.395913432130513"><ele>1182.0</ele><time>2026-04-27T14:34:06Z</time></trkpt><trkpt lat="30.808566909290523" lon="-8.395827310312841"><ele>1182.0</ele><time>2026-04-27T14:34:07Z</time></trkpt><trkpt lat="30.808453895207624" lon="-8.395703218873354"><ele>1183.3333333333333</ele><time>2026-04-27T14:34:08Z</time></trkpt><trkpt lat="30.808336545636898" lon="-8.395564199691396"><ele>1184.6666666666665</ele><time>2026-04-27T14:34:09Z</time></trkpt><trkpt lat="30.80820667516369" lon="-8.395441907197217"><ele>1186.0</ele><time>2026-04-27T14:34:10Z</time></trkpt><trkpt lat="30.80808487108426" lon="-8.39530056295951"><ele>1178.6666666666665</ele><time>2026-04-27T14:34:11Z</time></trkpt><trkpt lat="30.807960758929866" lon="-8.395154641529631"><ele>1171.3333333333333</ele><time>2026-04-27T14:34:12Z</time></trkpt><trkpt lat="30.80785477739738" lon="-8.394985810057996"><ele>1164.0</ele><time>2026-04-27T14:34:13Z</time></trkpt><trkpt lat="30.80773554776022" lon="-8.394843446733232"><ele>1164.0</ele><time>2026-04-27T14:34:14Z</time></trkpt><trkpt lat="30.807739114270824" lon="-8.394690147877473"><ele>1164.0</ele><time>2026-04-27T14:34:15Z</time></trkpt><trkpt lat="30.807714518018905" lon="-8.394552895481713"><ele>1164.0</ele><time>2026-04-27T14:34:16Z</time></trkpt><trkpt lat="30.807745521648684" lon="-8.394126114605001"><ele>1165.5</ele><time>2026-04-27T14:34:17Z</time></trkpt><trkpt lat="30.807506044559737" lon="-8.393985058757295"><ele>1167.0</ele><time>2026-04-27T14:34:18Z</time></trkpt><trkpt lat="30.807255190010583" lon="-8.394029975598892"><ele>1167.0</ele><time>2026-04-27T14:34:19Z</time></trkpt><trkpt lat="30.80709371434391" lon="-8.394087743980387"><ele>1167.0</ele><time>2026-04-27T14:34:20Z</time></trkpt><trkpt lat="30.80694045861878" lon="-8.394086055991123"><ele>1167.0</ele><time>2026-04-27T14:34:21Z</time></trkpt><trkpt lat="30.806755641603417" lon="-8.394038380695674"><ele>1166.6666666666667</ele><time>2026-04-27T14:34:22Z</time></trkpt><trkpt lat="30.80656317651664" lon="-8.393970228546234"><ele>1166.3333333333335</ele><time>2026-04-27T14:34:23Z</time></trkpt><trkpt lat="30.806370740752048" lon="-8.393900597712864"><ele>1166.0</ele><time>2026-04-27T14:34:24Z</time></trkpt><trkpt lat="30.806195329479305" lon="-8.393836228441733"><ele>1158.3333333333335</ele><time>2026-04-27T14:34:25Z</time></trkpt><trkpt lat="30.806029754357326" lon="-8.393764269260307"><ele>1150.6666666666667</ele><time>2026-04-27T14:34:26Z</time></trkpt><trkpt lat="30.805878855673228" lon="-8.393696111586372"><ele>1143.0</ele><time>2026-04-27T14:34:27Z</time></trkpt><trkpt lat="30.80574141296637" lon="-8.393643082972163"><ele>1142.75</ele><time>2026-04-27T14:34:28Z</time></trkpt><trkpt lat="30.80560766813215" lon="-8.393598417062305"><ele>1142.5</ele><time>2026-04-27T14:34:29Z</time></trkpt><trkpt lat="30.805478563203003" lon="-8.393579379800816"><ele>1142.25</ele><time>2026-04-27T14:34:30Z</time></trkpt><trkpt lat="30.80535621596614" lon="-8.393590539139705"><ele>1142.0</ele><time>2026-04-27T14:34:31Z</time></trkpt><trkpt lat="30.805242863841624" lon="-8.393630762056395"><ele>1143.0</ele><time>2026-04-27T14:34:32Z</time></trkpt><trkpt lat="30.805149306942557" lon="-8.393695663394237"><ele>1144.0</ele><time>2026-04-27T14:34:33Z</time></trkpt><trkpt lat="30.805049338907935" lon="-8.393734137462113"><ele>1145.0</ele><time>2026-04-27T14:34:34Z</time></trkpt><trkpt lat="30.80493364992988" lon="-8.393814911649796"><ele>1146.0</ele><time>2026-04-27T14:34:35Z</time></trkpt><trkpt lat="30.80485954411817" lon="-8.393964916697637"><ele>1146.0</ele><time>2026-04-27T14:34:36Z</time></trkpt><trkpt lat="30.80485393865935" lon="-8.3941597334169"><ele>1146.0</ele><time>2026-04-27T14:34:37Z</time></trkpt><trkpt lat="30.804943463488794" lon="-8.394348385354041"><ele>1146.0</ele><time>2026-04-27T14:34:37.999Z</time></trkpt><trkpt lat="30.804946753269462" lon="-8.394563493537287"><ele>1145.5</ele><time>2026-04-27T14:34:38.999Z</time></trkpt><trkpt lat="30.80491705017482" lon="-8.394740167704244"><ele>1145.0</ele><time>2026-04-27T14:34:39.999Z</time></trkpt><trkpt lat="30.804856299108593" lon="-8.394892787505253"><ele>1144.5</ele><time>2026-04-27T14:34:40.999Z</time></trkpt><trkpt lat="30.804814359852177" lon="-8.395056974843417"><ele>1144.0</ele><time>2026-04-27T14:34:41.999Z</time></trkpt><trkpt lat="30.80480406534285" lon="-8.395192872958026"><ele>1144.0</ele><time>2026-04-27T14:34:42.999Z</time></trkpt><trkpt lat="30.80485048817626" lon="-8.395343606315494"><ele>1144.0</ele><time>2026-04-27T14:34:43.999Z</time></trkpt><trkpt lat="30.80487838332893" lon="-8.395440028109457"><ele>1144.0</ele><time>2026-04-27T14:34:44.999Z</time></trkpt><trkpt lat="30.805012796036117" lon="-8.395494353341105"><ele>1144.0</ele><time>2026-04-27T14:34:45.999Z</time></trkpt><trkpt lat="30.805098041845028" lon="-8.395571150702692"><ele>1146.25</ele><time>2026-04-27T14:34:46.999Z</time></trkpt><trkpt lat="30.80522335342466" lon="-8.395668498304664"><ele>1148.5</ele><time>2026-04-27T14:34:47.999Z</time></trkpt><trkpt lat="30.805346282910534" lon="-8.395756996379268"><ele>1150.75</ele><time>2026-04-27T14:34:48.999Z</time></trkpt><trkpt lat="30.805444400572974" lon="-8.395840184066566"><ele>1153.0</ele><time>2026-04-27T14:34:49.999Z</time></trkpt><trkpt lat="30.805518559312226" lon="-8.39592557395241"><ele>1153.0</ele><time>2026-04-27T14:34:50.999Z</time></trkpt><trkpt lat="30.80557340151522" lon="-8.396024180842488"><ele>1153.0</ele><time>2026-04-27T14:34:51.999Z</time></trkpt><trkpt lat="30.80559287494556" lon="-8.396123696567354"><ele>1153.0</ele><time>2026-04-27T14:34:52.999Z</time></trkpt><trkpt lat="30.805587188692073" lon="-8.396223325875338"><ele>1153.0</ele><time>2026-04-27T14:34:53.999Z</time></trkpt><trkpt lat="30.805555504587755" lon="-8.396338134509827"><ele>1153.0</ele><time>2026-04-27T14:34:54.999Z</time></trkpt><trkpt lat="30.8055033059969" lon="-8.396453062809103"><ele>1153.5</ele><time>2026-04-27T14:34:55.999Z</time></trkpt><trkpt lat="30.805415814562743" lon="-8.396564262615163"><ele>1154.0</ele><time>2026-04-27T14:34:56.999Z</time></trkpt><trkpt lat="30.80529784641606" lon="-8.396649877770452"><ele>1154.5</ele><time>2026-04-27T14:34:57.999Z</time></trkpt><trkpt lat="30.805134346841758" lon="-8.396728832405998"><ele>1155.0</ele><time>2026-04-27T14:34:58.999Z</time></trkpt><trkpt lat="30.80494717914586" lon="-8.396803642508445"><ele>1146.3333333333333</ele><time>2026-04-27T14:34:59.999Z</time></trkpt><trkpt lat="30.804721859490357" lon="-8.396737612329677"><ele>1137.6666666666665</ele><time>2026-04-27T14:35:00.999Z</time></trkpt><trkpt lat="30.804589458517366" lon="-8.396806718727113"><ele>1129.0</ele><time>2026-04-27T14:35:01.999Z</time></trkpt><trkpt lat="30.804487086302256" lon="-8.396924757827682"><ele>1129.0</ele><time>2026-04-27T14:35:02.999Z</time></trkpt><trkpt lat="30.80444725562135" lon="-8.397054130708199"><ele>1129.0</ele><time>2026-04-27T14:35:03.999Z</time></trkpt><trkpt lat="30.804373807010236" lon="-8.397137850978982"><ele>1129.0</ele><time>2026-04-27T14:35:05Z</time></trkpt><trkpt lat="30.804313193567022" lon="-8.397240744086853"><ele>1129.0</ele><time>2026-04-27T14:35:06Z</time></trkpt><trkpt lat="30.804238224839953" lon="-8.397369121187984"><ele>1126.0</ele><time>2026-04-27T14:35:07Z</time></trkpt><trkpt lat="30.804191421804486" lon="-8.397559184300484"><ele>1123.0</ele><time>2026-04-27T14:35:08Z</time></trkpt><trkpt lat="30.804188893577837" lon="-8.397761103597162"><ele>1120.0</ele><time>2026-04-27T14:35:09Z</time></trkpt><trkpt lat="30.804155508552096" lon="-8.397915871412222"><ele>1122.6</ele><time>2026-04-27T14:35:10Z</time></trkpt><trkpt lat="30.80411461007777" lon="-8.398030284430545"><ele>1125.2</ele><time>2026-04-27T14:35:11Z</time></trkpt><trkpt lat="30.80406251879072" lon="-8.398122877474702"><ele>1127.8</ele><time>2026-04-27T14:35:12Z</time></trkpt><trkpt lat="30.803995354466178" lon="-8.398179093108608"><ele>1130.4</ele><time>2026-04-27T14:35:13Z</time></trkpt><trkpt lat="30.803917817076943" lon="-8.398201822530025"><ele>1133.0</ele><time>2026-04-27T14:35:14Z</time></trkpt><trkpt lat="30.803827636707958" lon="-8.39819893555937"><ele>1133.0</ele><time>2026-04-27T14:35:15Z</time></trkpt><trkpt lat="30.803710555620682" lon="-8.398191983663075"><ele>1133.0</ele><time>2026-04-27T14:35:16Z</time></trkpt><trkpt lat="30.803575632451842" lon="-8.398100329183336"><ele>1133.0</ele><time>2026-04-27T14:35:17Z</time></trkpt><trkpt lat="30.803459432438697" lon="-8.398089344347941"><ele>1133.0</ele><time>2026-04-27T14:35:18Z</time></trkpt><trkpt lat="30.80338670620946" lon="-8.398082623538444"><ele>1132.0</ele><time>2026-04-27T14:35:19Z</time></trkpt><trkpt lat="30.8033093484428" lon="-8.398140516978705"><ele>1131.0</ele><time>2026-04-27T14:35:21Z</time></trkpt><trkpt lat="30.803231339528597" lon="-8.398175769401892"><ele>1130.0</ele><time>2026-04-27T14:35:23Z</time></trkpt><trkpt lat="30.803159761297305" lon="-8.398217655045483"><ele>1129.0</ele><time>2026-04-27T14:35:24Z</time></trkpt><trkpt lat="30.803059778958904" lon="-8.398248799326561"><ele>1128.0</ele><time>2026-04-27T14:35:25Z</time></trkpt><trkpt lat="30.80297936097682" lon="-8.398234894158804"><ele>1127.0</ele><time>2026-04-27T14:35:26Z</time></trkpt><trkpt lat="30.80291298601443" lon="-8.398160601914741"><ele>1127.0</ele><time>2026-04-27T14:35:27Z</time></trkpt><trkpt lat="30.802870258737347" lon="-8.39806618340483"><ele>1127.0</ele><time>2026-04-27T14:35:28Z</time></trkpt><trkpt lat="30.802869189121296" lon="-8.397955915005925"><ele>1127.0</ele><time>2026-04-27T14:35:29Z</time></trkpt><trkpt lat="30.802894807987492" lon="-8.397837639557679"><ele>1127.0</ele><time>2026-04-27T14:35:30Z</time></trkpt><trkpt lat="30.802965447273845" lon="-8.397731694480475"><ele>1127.0</ele><time>2026-04-27T14:35:31Z</time></trkpt><trkpt lat="30.803024772804594" lon="-8.397645728533888"><ele>1124.0</ele><time>2026-04-27T14:35:32Z</time></trkpt><trkpt lat="30.803071334100856" lon="-8.397575232651214"><ele>1121.0</ele><time>2026-04-27T14:35:33Z</time></trkpt><trkpt lat="30.803108032040676" lon="-8.39751308170713"><ele>1118.0</ele><time>2026-04-27T14:35:34Z</time></trkpt><trkpt lat="30.80314350663608" lon="-8.397419425055594"><ele>1115.0</ele><time>2026-04-27T14:35:35Z</time></trkpt><trkpt lat="30.80315534515065" lon="-8.397266850132931"><ele>1112.0</ele><time>2026-04-27T14:35:36Z</time></trkpt><trkpt lat="30.803147673710995" lon="-8.397130376617053"><ele>1110.0</ele><time>2026-04-27T14:35:37Z</time></trkpt><trkpt lat="30.803130559804497" lon="-8.396999807165406"><ele>1108.0</ele><time>2026-04-27T14:35:38Z</time></trkpt><trkpt lat="30.803102998672127" lon="-8.396879655213372"><ele>1106.0</ele><time>2026-04-27T14:35:39Z</time></trkpt><trkpt lat="30.803059396560045" lon="-8.396777593691024"><ele>1104.0</ele><time>2026-04-27T14:35:40Z</time></trkpt><trkpt lat="30.80298874350916" lon="-8.396688085539838"><ele>1102.0</ele><time>2026-04-27T14:35:41Z</time></trkpt><trkpt lat="30.80289069662418" lon="-8.39659719664444"><ele>1102.0</ele><time>2026-04-27T14:35:42Z</time></trkpt><trkpt lat="30.80276181898261" lon="-8.396507172467961"><ele>1102.0</ele><time>2026-04-27T14:35:43Z</time></trkpt><trkpt lat="30.802590885553442" lon="-8.3964226421729"><ele>1102.0</ele><time>2026-04-27T14:35:44Z</time></trkpt><trkpt lat="30.802402605377605" lon="-8.396349786234973"><ele>1098.75</ele><time>2026-04-27T14:35:45Z</time></trkpt><trkpt lat="30.802222520703964" lon="-8.396281159974713"><ele>1095.5</ele><time>2026-04-27T14:35:46Z</time></trkpt><trkpt lat="30.802094316133374" lon="-8.396216120206981"><ele>1092.25</ele><time>2026-04-27T14:35:47Z</time></trkpt><trkpt lat="30.801996779599712" lon="-8.396151758229733"><ele>1089.0</ele><time>2026-04-27T14:35:48Z</time></trkpt><trkpt lat="30.80191943327329" lon="-8.396094822917366"><ele>1089.0</ele><time>2026-04-27T14:35:49Z</time></trkpt><trkpt lat="30.801867754724057" lon="-8.396050751637048"><ele>1089.0</ele><time>2026-04-27T14:35:50Z</time></trkpt><trkpt lat="30.801823296687928" lon="-8.395980008082697"><ele>1089.0</ele><time>2026-04-27T14:35:51Z</time></trkpt><trkpt lat="30.801786137340656" lon="-8.395873623455527"><ele>1089.0</ele><time>2026-04-27T14:35:52Z</time></trkpt><trkpt lat="30.801758538629695" lon="-8.395726188399582"><ele>1089.0</ele><time>2026-04-27T14:35:53Z</time></trkpt><trkpt lat="30.801749925147277" lon="-8.395557451447884"><ele>1090.5</ele><time>2026-04-27T14:35:54Z</time></trkpt><trkpt lat="30.801770413692157" lon="-8.395376347198273"><ele>1092.0</ele><time>2026-04-27T14:35:55Z</time></trkpt><trkpt lat="30.80174113587306" lon="-8.39521690653416"><ele>1093.5</ele><time>2026-04-27T14:35:56Z</time></trkpt><trkpt lat="30.801696096818738" lon="-8.395055575278311"><ele>1095.0</ele><time>2026-04-27T14:35:57Z</time></trkpt><trkpt lat="30.801629525331624" lon="-8.394882801827167"><ele>1095.0</ele><time>2026-04-27T14:35:58Z</time></trkpt><trkpt lat="30.801560797631765" lon="-8.394702937894415"><ele>1095.0</ele><time>2026-04-27T14:35:59Z</time></trkpt><trkpt lat="30.801502223070045" lon="-8.394543935297394"><ele>1095.0</ele><time>2026-04-27T14:36:00Z</time></trkpt><trkpt lat="30.801441083343292" lon="-8.394441455011366"><ele>1095.0</ele><time>2026-04-27T14:36:01Z</time></trkpt><trkpt lat="30.80140105578734" lon="-8.394343780725317"><ele>1092.0</ele><time>2026-04-27T14:36:02Z</time></trkpt><trkpt lat="30.801343728726945" lon="-8.39429331243957"><ele>1089.0</ele><time>2026-04-27T14:36:03Z</time></trkpt><trkpt lat="30.80125057881882" lon="-8.394220408379121"><ele>1086.0</ele><time>2026-04-27T14:36:05Z</time></trkpt><trkpt lat="30.801174364389006" lon="-8.394171544916615"><ele>1083.0</ele><time>2026-04-27T14:36:06Z</time></trkpt><trkpt lat="30.80111481659904" lon="-8.394110217613068"><ele>1080.0</ele><time>2026-04-27T14:36:07Z</time></trkpt><trkpt lat="30.801088421695603" lon="-8.39402364664166"><ele>1077.0</ele><time>2026-04-27T14:36:08Z</time></trkpt><trkpt lat="30.80108614652202" lon="-8.393910117985946"><ele>1077.0</ele><time>2026-04-27T14:36:09Z</time></trkpt><trkpt lat="30.80113180908" lon="-8.393789772636978"><ele>1077.0</ele><time>2026-04-27T14:36:10Z</time></trkpt><trkpt lat="30.80123132381927" lon="-8.393690129097825"><ele>1077.0</ele><time>2026-04-27T14:36:11Z</time></trkpt><trkpt lat="30.801350465661162" lon="-8.393595286939094"><ele>1077.0</ele><time>2026-04-27T14:36:12Z</time></trkpt><trkpt lat="30.801475685606015" lon="-8.393512506321281"><ele>1077.0</ele><time>2026-04-27T14:36:13Z</time></trkpt><trkpt lat="30.80156722371047" lon="-8.393431511794052"><ele>1077.0</ele><time>2026-04-27T14:36:14Z</time></trkpt><trkpt lat="30.801642297458926" lon="-8.393353541721678"><ele>1077.0</ele><time>2026-04-27T14:36:15Z</time></trkpt><trkpt lat="30.801651584830964" lon="-8.393269830830981"><ele>1077.0</ele><time>2026-04-27T14:36:16Z</time></trkpt><trkpt lat="30.80167846715874" lon="-8.393162789670637"><ele>1077.0</ele><time>2026-04-27T14:36:17Z</time></trkpt><trkpt lat="30.80165921607847" lon="-8.393088027198331"><ele>1073.75</ele><time>2026-04-27T14:36:18Z</time></trkpt><trkpt lat="30.801603963716143" lon="-8.392985302919145"><ele>1070.5</ele><time>2026-04-27T14:36:20Z</time></trkpt><trkpt lat="30.801517678726448" lon="-8.392883501196057"><ele>1067.25</ele><time>2026-04-27T14:36:21Z</time></trkpt><trkpt lat="30.801427083051813" lon="-8.392770993177201"><ele>1064.0</ele><time>2026-04-27T14:36:22Z</time></trkpt><trkpt lat="30.80134290726333" lon="-8.392656122499671"><ele>1064.0</ele><time>2026-04-27T14:36:23Z</time></trkpt><trkpt lat="30.801289482683938" lon="-8.39254708439641"><ele>1064.0</ele><time>2026-04-27T14:36:24Z</time></trkpt><trkpt lat="30.801252817636687" lon="-8.392437735271045"><ele>1064.0</ele><time>2026-04-27T14:36:25Z</time></trkpt><trkpt lat="30.801197238168736" lon="-8.392333390814564"><ele>1064.0</ele><time>2026-04-27T14:36:26Z</time></trkpt><trkpt lat="30.801174160630733" lon="-8.392228484148694"><ele>1064.0</ele><time>2026-04-27T14:36:27Z</time></trkpt><trkpt lat="30.80116326018132" lon="-8.392133202434303"><ele>1063.0</ele><time>2026-04-27T14:36:28Z</time></trkpt><trkpt lat="30.80121535461433" lon="-8.392017060004997"><ele>1062.0</ele><time>2026-04-27T14:36:29Z</time></trkpt><trkpt lat="30.801281160846695" lon="-8.391909392374066"><ele>1061.0</ele><time>2026-04-27T14:36:30Z</time></trkpt><trkpt lat="30.801325247764133" lon="-8.391778668149461"><ele>1060.0</ele><time>2026-04-27T14:36:31Z</time></trkpt><trkpt lat="30.801373564179585" lon="-8.391640018351584"><ele>1060.0</ele><time>2026-04-27T14:36:32Z</time></trkpt><trkpt lat="30.801381374066718" lon="-8.391484930900155"><ele>1060.0</ele><time>2026-04-27T14:36:33Z</time></trkpt><trkpt lat="30.801397382567913" lon="-8.391281691350413"><ele>1060.0</ele><time>2026-04-27T14:36:34Z</time></trkpt><trkpt lat="30.801393943907314" lon="-8.391096946808654"><ele>1058.0</ele><time>2026-04-27T14:36:35Z</time></trkpt><trkpt lat="30.801376493755306" lon="-8.390921870809489"><ele>1056.0</ele><time>2026-04-27T14:36:36Z</time></trkpt><trkpt lat="30.801325888837646" lon="-8.390766081185928"><ele>1054.0</ele><time>2026-04-27T14:36:37Z</time></trkpt><trkpt lat="30.801262692772507" lon="-8.390626390932432"><ele>1052.0</ele><time>2026-04-27T14:36:38Z</time></trkpt><trkpt lat="30.80122058324038" lon="-8.39049684298705"><ele>1054.0</ele><time>2026-04-27T14:36:39Z</time></trkpt><trkpt lat="30.80113806412661" lon="-8.390402540477575"><ele>1056.0</ele><time>2026-04-27T14:36:40Z</time></trkpt><trkpt lat="30.801032003613443" lon="-8.39033192070922"><ele>1058.0</ele><time>2026-04-27T14:36:41Z</time></trkpt><trkpt lat="30.800896094990897" lon="-8.390284174716635"><ele>1060.0</ele><time>2026-04-27T14:36:42Z</time></trkpt><trkpt lat="30.800770239702576" lon="-8.390230789168971"><ele>1060.0</ele><time>2026-04-27T14:36:43Z</time></trkpt><trkpt lat="30.800671263070058" lon="-8.390156470988623"><ele>1060.0</ele><time>2026-04-27T14:36:43.999Z</time></trkpt><trkpt lat="30.800554635320367" lon="-8.390043665350078"><ele>1060.0</ele><time>2026-04-27T14:36:44.999Z</time></trkpt><trkpt lat="30.800438770900662" lon="-8.389939109196263"><ele>1060.0</ele><time>2026-04-27T14:36:45.999Z</time></trkpt><trkpt lat="30.800339700516187" lon="-8.38988330290945"><ele>1060.0</ele><time>2026-04-27T14:36:46.999Z</time></trkpt><trkpt lat="30.80023827542912" lon="-8.389871082559019"><ele>1060.0</ele><time>2026-04-27T14:36:47.999Z</time></trkpt><trkpt lat="30.800140674854507" lon="-8.389890672745851"><ele>1060.0</ele><time>2026-04-27T14:36:48.999Z</time></trkpt><trkpt lat="30.800043552881213" lon="-8.389928633349859"><ele>1060.0</ele><time>2026-04-27T14:36:49.999Z</time></trkpt><trkpt lat="30.799928478253882" lon="-8.389975376893744"><ele>1060.0</ele><time>2026-04-27T14:36:50.999Z</time></trkpt><trkpt lat="30.799822717817396" lon="-8.389989505849787"><ele>1060.8333333333333</ele><time>2026-04-27T14:36:51.999Z</time></trkpt><trkpt lat="30.799723190933893" lon="-8.389975035229797"><ele>1061.6666666666665</ele><time>2026-04-27T14:36:52.999Z</time></trkpt><trkpt lat="30.799639646063074" lon="-8.389953616021282"><ele>1062.5</ele><time>2026-04-27T14:36:53.999Z</time></trkpt><trkpt lat="30.79958223907075" lon="-8.389906788849448"><ele>1063.3333333333333</ele><time>2026-04-27T14:36:54.999Z</time></trkpt><trkpt lat="30.799551177498287" lon="-8.389839782848048"><ele>1064.1666666666667</ele><time>2026-04-27T14:36:55.999Z</time></trkpt><trkpt lat="30.79952662600727" lon="-8.389732379550827"><ele>1065.0</ele><time>2026-04-27T14:36:56.999Z</time></trkpt><trkpt lat="30.79947542230942" lon="-8.38959437330147"><ele>1055.6666666666667</ele><time>2026-04-27T14:36:57.999Z</time></trkpt><trkpt lat="30.799429417577734" lon="-8.389416564112524"><ele>1046.3333333333335</ele><time>2026-04-27T14:36:58.999Z</time></trkpt><trkpt lat="30.799385926925698" lon="-8.389226328388478"><ele>1037.0</ele><time>2026-04-27T14:36:59.999Z</time></trkpt><trkpt lat="30.799338025884868" lon="-8.389040151106059"><ele>1037.4</ele><time>2026-04-27T14:37:00.999Z</time></trkpt><trkpt lat="30.79929147424694" lon="-8.38888961974483"><ele>1037.8000000000002</ele><time>2026-04-27T14:37:01.999Z</time></trkpt><trkpt lat="30.79924535072645" lon="-8.388775314602901"><ele>1038.2</ele><time>2026-04-27T14:37:03Z</time></trkpt><trkpt lat="30.799187948754152" lon="-8.388696803362418"><ele>1038.6000000000001</ele><time>2026-04-27T14:37:04Z</time></trkpt><trkpt lat="30.79912775712401" lon="-8.388610390246487"><ele>1039.0</ele><time>2026-04-27T14:37:05Z</time></trkpt><trkpt lat="30.799011763517697" lon="-8.388601499620707"><ele>1039.0</ele><time>2026-04-27T14:37:06Z</time></trkpt><trkpt lat="30.798892151036654" lon="-8.388650725110217"><ele>1039.0</ele><time>2026-04-27T14:37:07Z</time></trkpt><trkpt lat="30.798768586901833" lon="-8.388753911310037"><ele>1039.0</ele><time>2026-04-27T14:37:08Z</time></trkpt><trkpt lat="30.798659449616512" lon="-8.38886995587268"><ele>1039.0</ele><time>2026-04-27T14:37:09Z</time></trkpt><trkpt lat="30.7985585381167" lon="-8.388940675557171"><ele>1040.2</ele><time>2026-04-27T14:37:10Z</time></trkpt><trkpt lat="30.798451810643723" lon="-8.388952305440641"><ele>1041.4</ele><time>2026-04-27T14:37:11Z</time></trkpt><trkpt lat="30.798358180470647" lon="-8.388914810054592"><ele>1042.6</ele><time>2026-04-27T14:37:12Z</time></trkpt><trkpt lat="30.798297751917683" lon="-8.388846698334262"><ele>1043.8</ele><time>2026-04-27T14:37:13Z</time></trkpt><trkpt lat="30.79826405153168" lon="-8.388758965303811"><ele>1045.0</ele><time>2026-04-27T14:37:14Z</time></trkpt><trkpt lat="30.79823618941535" lon="-8.388632162770817"><ele>1045.0</ele><time>2026-04-27T14:37:15Z</time></trkpt><trkpt lat="30.798177479214576" lon="-8.388497299718338"><ele>1045.0</ele><time>2026-04-27T14:37:16Z</time></trkpt><trkpt lat="30.798137834803192" lon="-8.388348029339"><ele>1045.0</ele><time>2026-04-27T14:37:17Z</time></trkpt><trkpt lat="30.798125150923084" lon="-8.388218640879218"><ele>1045.0</ele><time>2026-04-27T14:37:18Z</time></trkpt><trkpt lat="30.79810799277724" lon="-8.38813077337983"><ele>1045.0</ele><time>2026-04-27T14:37:19Z</time></trkpt><trkpt lat="30.798086969890626" lon="-8.388053545549962"><ele>1045.0</ele><time>2026-04-27T14:37:20Z</time></trkpt><trkpt lat="30.798042807966432" lon="-8.38791687513816"><ele>1045.0</ele><time>2026-04-27T14:37:22Z</time></trkpt><trkpt lat="30.797982981923745" lon="-8.387877456022022"><ele>1045.0</ele><time>2026-04-27T14:37:23Z</time></trkpt><trkpt lat="30.797867978087787" lon="-8.387840191911264"><ele>1045.0</ele><time>2026-04-27T14:37:25Z</time></trkpt><trkpt lat="30.79776358241632" lon="-8.387815077916466"><ele>1046.25</ele><time>2026-04-27T14:37:27Z</time></trkpt><trkpt lat="30.79768157890348" lon="-8.38784743229644"><ele>1047.5</ele><time>2026-04-27T14:37:28Z</time></trkpt><trkpt lat="30.797611201466843" lon="-8.387870320982476"><ele>1048.75</ele><time>2026-04-27T14:37:29Z</time></trkpt><trkpt lat="30.797557011011882" lon="-8.388042540501132"><ele>1050.0</ele><time>2026-04-27T14:37:30Z</time></trkpt><trkpt lat="30.797487112778402" lon="-8.38817697726403"><ele>1050.0</ele><time>2026-04-27T14:37:31Z</time></trkpt><trkpt lat="30.797412625588652" lon="-8.388261384948573"><ele>1050.0</ele><time>2026-04-27T14:37:32Z</time></trkpt><trkpt lat="30.797328650574386" lon="-8.388302315877686"><ele>1050.0</ele><time>2026-04-27T14:37:33Z</time></trkpt><trkpt lat="30.797240602735926" lon="-8.388313377933866"><ele>1050.0</ele><time>2026-04-27T14:37:34Z</time></trkpt><trkpt lat="30.797139647571882" lon="-8.388300038111408"><ele>1050.0</ele><time>2026-04-27T14:37:35Z</time></trkpt><trkpt lat="30.79704169926831" lon="-8.388256558619489"><ele>1050.0</ele><time>2026-04-27T14:37:36Z</time></trkpt><trkpt lat="30.796967228717367" lon="-8.388192600679382"><ele>1050.0</ele><time>2026-04-27T14:37:37Z</time></trkpt><trkpt lat="30.79692155197753" lon="-8.38811913205504"><ele>1050.0</ele><time>2026-04-27T14:37:38Z</time></trkpt><trkpt lat="30.796899671040336" lon="-8.388026119197354"><ele>1050.0</ele><time>2026-04-27T14:37:39Z</time></trkpt><trkpt lat="30.796891615070226" lon="-8.387907694399663"><ele>1050.0</ele><time>2026-04-27T14:37:40Z</time></trkpt><trkpt lat="30.796862746751202" lon="-8.387734957016086"><ele>1047.6666666666667</ele><time>2026-04-27T14:37:41Z</time></trkpt><trkpt lat="30.796846563039605" lon="-8.38755411974809"><ele>1045.3333333333335</ele><time>2026-04-27T14:37:42Z</time></trkpt><trkpt lat="30.796829515980956" lon="-8.38736453745787"><ele>1043.0</ele><time>2026-04-27T14:37:43Z</time></trkpt><trkpt lat="30.796811004574344" lon="-8.387160377137539"><ele>1038.6666666666667</ele><time>2026-04-27T14:37:44Z</time></trkpt><trkpt lat="30.79679409956334" lon="-8.386968180726734"><ele>1034.3333333333333</ele><time>2026-04-27T14:37:45Z</time></trkpt><trkpt lat="30.79677803996416" lon="-8.386793845291628"><ele>1030.0</ele><time>2026-04-27T14:37:46Z</time></trkpt><trkpt lat="30.796734295715062" lon="-8.386645628195883"><ele>1030.0</ele><time>2026-04-27T14:37:47Z</time></trkpt><trkpt lat="30.79668127112766" lon="-8.386473670865353"><ele>1030.0</ele><time>2026-04-27T14:37:48Z</time></trkpt><trkpt lat="30.796546898261656" lon="-8.386337616940072"><ele>1030.0</ele><time>2026-04-27T14:37:49Z</time></trkpt><trkpt lat="30.796404715925565" lon="-8.386209323373713"><ele>1024.3333333333333</ele><time>2026-04-27T14:37:50Z</time></trkpt><trkpt lat="30.796279343815073" lon="-8.386091135787511"><ele>1018.6666666666667</ele><time>2026-04-27T14:37:51Z</time></trkpt><trkpt lat="30.796184924406436" lon="-8.385940322349112"><ele>1013.0</ele><time>2026-04-27T14:37:52Z</time></trkpt><trkpt lat="30.79614093196355" lon="-8.385759093333752"><ele>1013.0</ele><time>2026-04-27T14:37:53Z</time></trkpt><trkpt lat="30.796119129390203" lon="-8.385590395849706"><ele>1013.0</ele><time>2026-04-27T14:37:54Z</time></trkpt><trkpt lat="30.79606968094258" lon="-8.385470805626735"><ele>1013.0</ele><time>2026-04-27T14:37:55Z</time></trkpt><trkpt lat="30.796010479055298" lon="-8.385345676106377"><ele>1013.0</ele><time>2026-04-27T14:37:56Z</time></trkpt><trkpt lat="30.795922346239767" lon="-8.385290941953633"><ele>1010.75</ele><time>2026-04-27T14:37:57Z</time></trkpt><trkpt lat="30.79583907505768" lon="-8.385198995537147"><ele>1008.5</ele><time>2026-04-27T14:37:58Z</time></trkpt><trkpt lat="30.795722334061555" lon="-8.385223388627486"><ele>1006.25</ele><time>2026-04-27T14:37:59Z</time></trkpt><trkpt lat="30.795609844570382" lon="-8.385296672264596"><ele>1004.0</ele><time>2026-04-27T14:38:00Z</time></trkpt><trkpt lat="30.79551762406304" lon="-8.385422649063985"><ele>1010.0</ele><time>2026-04-27T14:38:01Z</time></trkpt><trkpt lat="30.79544338266305" lon="-8.38561544370358"><ele>1016.0</ele><time>2026-04-27T14:38:02Z</time></trkpt><trkpt lat="30.795390742723455" lon="-8.385851136588885"><ele>1022.0</ele><time>2026-04-27T14:38:03Z</time></trkpt><trkpt lat="30.795348076660893" lon="-8.386088243533328"><ele>1022.0</ele><time>2026-04-27T14:38:04Z</time></trkpt><trkpt lat="30.79531228701476" lon="-8.386283018555622"><ele>1022.0</ele><time>2026-04-27T14:38:05Z</time></trkpt><trkpt lat="30.79528533242582" lon="-8.386440762144668"><ele>1022.0</ele><time>2026-04-27T14:38:06Z</time></trkpt><trkpt lat="30.795261187933054" lon="-8.386560875018601"><ele>1022.0</ele><time>2026-04-27T14:38:07Z</time></trkpt><trkpt lat="30.79522448862822" lon="-8.386647263623184"><ele>1020.6</ele><time>2026-04-27T14:38:08Z</time></trkpt><trkpt lat="30.79515590694559" lon="-8.386703844781557"><ele>1019.2</ele><time>2026-04-27T14:38:09Z</time></trkpt><trkpt lat="30.79506243949129" lon="-8.386744866772228"><ele>1017.8</ele><time>2026-04-27T14:38:10Z</time></trkpt><trkpt lat="30.794969244928183" lon="-8.386751114205802"><ele>1016.4</ele><time>2026-04-27T14:38:11Z</time></trkpt><trkpt lat="30.794875274554386" lon="-8.386728036811656"><ele>1015.0</ele><time>2026-04-27T14:38:12Z</time></trkpt><trkpt lat="30.794759674984725" lon="-8.386662934638906"><ele>1015.0</ele><time>2026-04-27T14:38:13Z</time></trkpt><trkpt lat="30.79459699019808" lon="-8.386571944256172"><ele>1015.0</ele><time>2026-04-27T14:38:14Z</time></trkpt><trkpt lat="30.79443208919093" lon="-8.38646810586757"><ele>1015.0</ele><time>2026-04-27T14:38:15Z</time></trkpt><trkpt lat="30.79427916363903" lon="-8.386377114937599"><ele>1011.5</ele><time>2026-04-27T14:38:16Z</time></trkpt><trkpt lat="30.7941425901494" lon="-8.386300543995546"><ele>1008.0</ele><time>2026-04-27T14:38:17Z</time></trkpt><trkpt lat="30.79403324447807" lon="-8.386228732562566"><ele>1004.5</ele><time>2026-04-27T14:38:18Z</time></trkpt><trkpt lat="30.793958979562852" lon="-8.386125417046912"><ele>1001.0</ele><time>2026-04-27T14:38:19Z</time></trkpt><trkpt lat="30.79388313515647" lon="-8.386008637865963"><ele>1001.0</ele><time>2026-04-27T14:38:20Z</time></trkpt><trkpt lat="30.79377539406748" lon="-8.385844405949612"><ele>1001.0</ele><time>2026-04-27T14:38:21Z</time></trkpt><trkpt lat="30.79368153735021" lon="-8.38579163867377"><ele>1001.0</ele><time>2026-04-27T14:38:22Z</time></trkpt><trkpt lat="30.793489995927516" lon="-8.38580878768875"><ele>999.8</ele><time>2026-04-27T14:38:23Z</time></trkpt><trkpt lat="30.793379010758635" lon="-8.385862056031879"><ele>998.5999999999999</ele><time>2026-04-27T14:38:24Z</time></trkpt><trkpt lat="30.793306700184573" lon="-8.385886703704907"><ele>997.4</ele><time>2026-04-27T14:38:25Z</time></trkpt><trkpt lat="30.793239945105586" lon="-8.386008859217625"><ele>996.2</ele><time>2026-04-27T14:38:26Z</time></trkpt><trkpt lat="30.79322656614114" lon="-8.386143564717447"><ele>995.0</ele><time>2026-04-27T14:38:27Z</time></trkpt><trkpt lat="30.793166961543324" lon="-8.386244722053608"><ele>998.6666666666667</ele><time>2026-04-27T14:38:28Z</time></trkpt><trkpt lat="30.793100216797548" lon="-8.386409065733712"><ele>1002.3333333333333</ele><time>2026-04-27T14:38:29Z</time></trkpt><trkpt lat="30.793019691858365" lon="-8.386604028818878"><ele>1006.0</ele><time>2026-04-27T14:38:30Z</time></trkpt><trkpt lat="30.792929248590248" lon="-8.386806887216904"><ele>1006.0</ele><time>2026-04-27T14:38:31Z</time></trkpt><trkpt lat="30.792840263892106" lon="-8.386998859832396"><ele>1006.0</ele><time>2026-04-27T14:38:32Z</time></trkpt><trkpt lat="30.792740145651745" lon="-8.387217278175118"><ele>1006.0</ele><time>2026-04-27T14:38:33Z</time></trkpt><trkpt lat="30.792636743573347" lon="-8.387422143507541"><ele>1000.3333333333333</ele><time>2026-04-27T14:38:34Z</time></trkpt><trkpt lat="30.792530588418085" lon="-8.387599165258353"><ele>994.6666666666667</ele><time>2026-04-27T14:38:35Z</time></trkpt><trkpt lat="30.792429843120267" lon="-8.387738691970627"><ele>989.0</ele><time>2026-04-27T14:38:36Z</time></trkpt><trkpt lat="30.792331435072946" lon="-8.387866848780849"><ele>989.0</ele><time>2026-04-27T14:38:37Z</time></trkpt><trkpt lat="30.792234665047424" lon="-8.387997453812618"><ele>989.0</ele><time>2026-04-27T14:38:38Z</time></trkpt><trkpt lat="30.792132331832867" lon="-8.388153887664815"><ele>989.0</ele><time>2026-04-27T14:38:39Z</time></trkpt><trkpt lat="30.792035495596878" lon="-8.388315573867054"><ele>989.5</ele><time>2026-04-27T14:38:40Z</time></trkpt><trkpt lat="30.791960733122046" lon="-8.388466365345622"><ele>990.0</ele><time>2026-04-27T14:38:41Z</time></trkpt><trkpt lat="30.791914622428806" lon="-8.388605881053971"><ele>990.5</ele><time>2026-04-27T14:38:42Z</time></trkpt><trkpt lat="30.791859391981056" lon="-8.388731645857158"><ele>991.0</ele><time>2026-04-27T14:38:43Z</time></trkpt><trkpt lat="30.791900491808583" lon="-8.388902398234475"><ele>991.0</ele><time>2026-04-27T14:38:44Z</time></trkpt><trkpt lat="30.791913193652977" lon="-8.38906169112844"><ele>990.9999999999999</ele><time>2026-04-27T14:38:45Z</time></trkpt><trkpt lat="30.791897905082845" lon="-8.389196696287724"><ele>990.9999999999999</ele><time>2026-04-27T14:38:46Z</time></trkpt><trkpt lat="30.791862553677444" lon="-8.389306937001995"><ele>991.0</ele><time>2026-04-27T14:38:47Z</time></trkpt><trkpt lat="30.791804887711915" lon="-8.389391279725858"><ele>991.0</ele><time>2026-04-27T14:38:48Z</time></trkpt><trkpt lat="30.791727373901566" lon="-8.389449785910116"><ele>987.0</ele><time>2026-04-27T14:38:49Z</time></trkpt><trkpt lat="30.791634531177476" lon="-8.389473973026396"><ele>983.0</ele><time>2026-04-27T14:38:50Z</time></trkpt><trkpt lat="30.791525389576435" lon="-8.389462241432435"><ele>979.0</ele><time>2026-04-27T14:38:51Z</time></trkpt><trkpt lat="30.791396278869634" lon="-8.389431217506237"><ele>975.0</ele><time>2026-04-27T14:38:52Z</time></trkpt><trkpt lat="30.7912385071347" lon="-8.38941368284589"><ele>975.0</ele><time>2026-04-27T14:38:53Z</time></trkpt><trkpt lat="30.791068669649515" lon="-8.389386181350966"><ele>975.0</ele><time>2026-04-27T14:38:54Z</time></trkpt><trkpt lat="30.79090349329101" lon="-8.389449956738346"><ele>975.0</ele><time>2026-04-27T14:38:55Z</time></trkpt><trkpt lat="30.79074018845228" lon="-8.389481402427652"><ele>972.3333333333333</ele><time>2026-04-27T14:38:56Z</time></trkpt><trkpt lat="30.790571951182592" lon="-8.389518336564201"><ele>969.6666666666666</ele><time>2026-04-27T14:38:57Z</time></trkpt><trkpt lat="30.790432618884235" lon="-8.389567764687012"><ele>967.0</ele><time>2026-04-27T14:38:58Z</time></trkpt><trkpt lat="30.79028766197972" lon="-8.389641515918209"><ele>969.0</ele><time>2026-04-27T14:38:59Z</time></trkpt><trkpt lat="30.79016313880384" lon="-8.389723952750895"><ele>971.0</ele><time>2026-04-27T14:39:00Z</time></trkpt><trkpt lat="30.790085112306237" lon="-8.389777619095549"><ele>973.0</ele><time>2026-04-27T14:39:01Z</time></trkpt><trkpt lat="30.79001620359275" lon="-8.389835007984441"><ele>975.0</ele><time>2026-04-27T14:39:03Z</time></trkpt><trkpt lat="30.78993885541977" lon="-8.38986304301818"><ele>977.0</ele><time>2026-04-27T14:39:05Z</time></trkpt><trkpt lat="30.78987305240201" lon="-8.38988554549708"><ele>977.0</ele><time>2026-04-27T14:39:06Z</time></trkpt><trkpt lat="30.789779631935584" lon="-8.38994438629325"><ele>977.0</ele><time>2026-04-27T14:39:07Z</time></trkpt><trkpt lat="30.789683776749225" lon="-8.390007353992033"><ele>977.0</ele><time>2026-04-27T14:39:08Z</time></trkpt><trkpt lat="30.789582735244228" lon="-8.390036706502947"><ele>977.0</ele><time>2026-04-27T14:39:09Z</time></trkpt><trkpt lat="30.789482358591854" lon="-8.39003541405731"><ele>977.0</ele><time>2026-04-27T14:39:10Z</time></trkpt><trkpt lat="30.789386242592638" lon="-8.389990078394476"><ele>975.8</ele><time>2026-04-27T14:39:11Z</time></trkpt><trkpt lat="30.789309070130813" lon="-8.389920366688834"><ele>974.6</ele><time>2026-04-27T14:39:12Z</time></trkpt><trkpt lat="30.789261916012514" lon="-8.389817379825566"><ele>973.3999999999999</ele><time>2026-04-27T14:39:13Z</time></trkpt><trkpt lat="30.789237488056603" lon="-8.389707586901281"><ele>972.1999999999999</ele><time>2026-04-27T14:39:14Z</time></trkpt><trkpt lat="30.78923191735293" lon="-8.389594837128474"><ele>971.0</ele><time>2026-04-27T14:39:15Z</time></trkpt><trkpt lat="30.789220396500248" lon="-8.389472650318849"><ele>969.3333333333334</ele><time>2026-04-27T14:39:16Z</time></trkpt><trkpt lat="30.78924731226132" lon="-8.389302307888462"><ele>967.6666666666667</ele><time>2026-04-27T14:39:17Z</time></trkpt><trkpt lat="30.78931023149301" lon="-8.389137651419224"><ele>966.0</ele><time>2026-04-27T14:39:18Z</time></trkpt><trkpt lat="30.78935876562288" lon="-8.388947266500569"><ele>961.75</ele><time>2026-04-27T14:39:19Z</time></trkpt><trkpt lat="30.789403526800648" lon="-8.388776433644876"><ele>957.5</ele><time>2026-04-27T14:39:20Z</time></trkpt><trkpt lat="30.789434923088507" lon="-8.388627938163307"><ele>953.25</ele><time>2026-04-27T14:39:21Z</time></trkpt><trkpt lat="30.789449059524873" lon="-8.388502662448687"><ele>949.0</ele><time>2026-04-27T14:39:22Z</time></trkpt><trkpt lat="30.789440199003838" lon="-8.388403458766545"><ele>949.0</ele><time>2026-04-27T14:39:23Z</time></trkpt><trkpt lat="30.789408173188225" lon="-8.388320844354372"><ele>949.0000000000001</ele><time>2026-04-27T14:39:24Z</time></trkpt><trkpt lat="30.789379445002073" lon="-8.388248392542904"><ele>949.0000000000001</ele><time>2026-04-27T14:39:25Z</time></trkpt><trkpt lat="30.78933512504371" lon="-8.38817250395499"><ele>949.0</ele><time>2026-04-27T14:39:26Z</time></trkpt><trkpt lat="30.789208362924576" lon="-8.388134054898806"><ele>949.0</ele><time>2026-04-27T14:39:27Z</time></trkpt><trkpt lat="30.78910042375297" lon="-8.388172925157908"><ele>950.5</ele><time>2026-04-27T14:39:28Z</time></trkpt><trkpt lat="30.789005322962407" lon="-8.388247813338097"><ele>952.0</ele><time>2026-04-27T14:39:29Z</time></trkpt><trkpt lat="30.78889290993333" lon="-8.38834284906482"><ele>953.5</ele><time>2026-04-27T14:39:30Z</time></trkpt><trkpt lat="30.788737536507405" lon="-8.38846624281466"><ele>955.0</ele><time>2026-04-27T14:39:31Z</time></trkpt><trkpt lat="30.788617075687476" lon="-8.388592394002686"><ele>955.0</ele><time>2026-04-27T14:39:32Z</time></trkpt><trkpt lat="30.788516881532185" lon="-8.388697566410753"><ele>955.0</ele><time>2026-04-27T14:39:33Z</time></trkpt><trkpt lat="30.7884354929887" lon="-8.388794880174835"><ele>955.0</ele><time>2026-04-27T14:39:34Z</time></trkpt><trkpt lat="30.78832680041501" lon="-8.388855975515705"><ele>955.0</ele><time>2026-04-27T14:39:35Z</time></trkpt><trkpt lat="30.78820148631184" lon="-8.388895775316767"><ele>957.0</ele><time>2026-04-27T14:39:36Z</time></trkpt><trkpt lat="30.78805914922635" lon="-8.388903097525821"><ele>959.0</ele><time>2026-04-27T14:39:37Z</time></trkpt><trkpt lat="30.787908878267547" lon="-8.388889742885551"><ele>961.0</ele><time>2026-04-27T14:39:38Z</time></trkpt><trkpt lat="30.787752671624233" lon="-8.38884726426809"><ele>950.0</ele><time>2026-04-27T14:39:39Z</time></trkpt><trkpt lat="30.787533173374136" lon="-8.388425310353856"><ele>939.0</ele><time>2026-04-27T14:39:40Z</time></trkpt><trkpt lat="30.78734872925539" lon="-8.38844680805589"><ele>939.0</ele><time>2026-04-27T14:39:41Z</time></trkpt><trkpt lat="30.787177392284608" lon="-8.38846659403059"><ele>939.0</ele><time>2026-04-27T14:39:42Z</time></trkpt><trkpt lat="30.787030493263863" lon="-8.388483701267905"><ele>939.0</ele><time>2026-04-27T14:39:43Z</time></trkpt><trkpt lat="30.786894075743827" lon="-8.388508670656527"><ele>938.5</ele><time>2026-04-27T14:39:44Z</time></trkpt><trkpt lat="30.786753748529573" lon="-8.388484922179424"><ele>938.0</ele><time>2026-04-27T14:39:45Z</time></trkpt><trkpt lat="30.7866189795145" lon="-8.38844683092904"><ele>937.5</ele><time>2026-04-27T14:39:46Z</time></trkpt><trkpt lat="30.78649109505595" lon="-8.388425030525125"><ele>937.0</ele><time>2026-04-27T14:39:47Z</time></trkpt><trkpt lat="30.786369736542543" lon="-8.388415515712643"><ele>937.0</ele><time>2026-04-27T14:39:48Z</time></trkpt><trkpt lat="30.786270105035165" lon="-8.388357549118163"><ele>937.0</ele><time>2026-04-27T14:39:49Z</time></trkpt><trkpt lat="30.78613622315837" lon="-8.38832078095228"><ele>937.0</ele><time>2026-04-27T14:39:50Z</time></trkpt><trkpt lat="30.785975869043025" lon="-8.388374066811856"><ele>937.0</ele><time>2026-04-27T14:39:51Z</time></trkpt><trkpt lat="30.785834676335714" lon="-8.388521966599756"><ele>940.0</ele><time>2026-04-27T14:39:52Z</time></trkpt><trkpt lat="30.78572097564438" lon="-8.38868026084121"><ele>943.0</ele><time>2026-04-27T14:39:53Z</time></trkpt><trkpt lat="30.785561220002776" lon="-8.38879924431645"><ele>946.0</ele><time>2026-04-27T14:39:54Z</time></trkpt><trkpt lat="30.785408539410817" lon="-8.38890866379185"><ele>946.0</ele><time>2026-04-27T14:39:55Z</time></trkpt><trkpt lat="30.78525434529776" lon="-8.389020127443327"><ele>946.0</ele><time>2026-04-27T14:39:56Z</time></trkpt><trkpt lat="30.78508976078752" lon="-8.389088674370692"><ele>946.0</ele><time>2026-04-27T14:39:57Z</time></trkpt><trkpt lat="30.784965251495052" lon="-8.389178458921766"><ele>941.75</ele><time>2026-04-27T14:39:58Z</time></trkpt><trkpt lat="30.78485992375176" lon="-8.389280521016246"><ele>937.5</ele><time>2026-04-27T14:39:59Z</time></trkpt><trkpt lat="30.784784464299882" lon="-8.38936347557935"><ele>933.25</ele><time>2026-04-27T14:40:00Z</time></trkpt><trkpt lat="30.784753985236254" lon="-8.3894899831778"><ele>929.0</ele><time>2026-04-27T14:40:01Z</time></trkpt><trkpt lat="30.784750313304244" lon="-8.389604318183208"><ele>930.5</ele><time>2026-04-27T14:40:02Z</time></trkpt><trkpt lat="30.78475127497936" lon="-8.389730851315884"><ele>932.0</ele><time>2026-04-27T14:40:03Z</time></trkpt><trkpt lat="30.784781448492478" lon="-8.389870049225111"><ele>933.5</ele><time>2026-04-27T14:40:04Z</time></trkpt><trkpt lat="30.78484483706781" lon="-8.390022838776463"><ele>935.0</ele><time>2026-04-27T14:40:05Z</time></trkpt><trkpt lat="30.784934989566246" lon="-8.390196499516211"><ele>935.0</ele><time>2026-04-27T14:40:06Z</time></trkpt><trkpt lat="30.78503741408928" lon="-8.390354244474235"><ele>935.0</ele><time>2026-04-27T14:40:07Z</time></trkpt><trkpt lat="30.78511574633909" lon="-8.39048606324187"><ele>935.0</ele><time>2026-04-27T14:40:08Z</time></trkpt><trkpt lat="30.785174726800108" lon="-8.390606929788675"><ele>935.0</ele><time>2026-04-27T14:40:09Z</time></trkpt><trkpt lat="30.78522801861858" lon="-8.390728240599788"><ele>939.25</ele><time>2026-04-27T14:40:10Z</time></trkpt><trkpt lat="30.78526453619434" lon="-8.3908523522181"><ele>943.5</ele><time>2026-04-27T14:40:11Z</time></trkpt><trkpt lat="30.785274612756965" lon="-8.390978049694027"><ele>947.75</ele><time>2026-04-27T14:40:12Z</time></trkpt><trkpt lat="30.78525400689393" lon="-8.39110385636881"><ele>952.0</ele><time>2026-04-27T14:40:13Z</time></trkpt><trkpt lat="30.78519917076298" lon="-8.391227064316697"><ele>949.0</ele><time>2026-04-27T14:40:14Z</time></trkpt><trkpt lat="30.785107836435078" lon="-8.391336447380398"><ele>946.0</ele><time>2026-04-27T14:40:15Z</time></trkpt><trkpt lat="30.78498641937179" lon="-8.391426699553218"><ele>943.0</ele><time>2026-04-27T14:40:16Z</time></trkpt><trkpt lat="30.784833769118116" lon="-8.391488364919839"><ele>940.0</ele><time>2026-04-27T14:40:17Z</time></trkpt><trkpt lat="30.78464877913209" lon="-8.391526592848695"><ele>940.0</ele><time>2026-04-27T14:40:18Z</time></trkpt><trkpt lat="30.784444629455564" lon="-8.39155737919008"><ele>940.0</ele><time>2026-04-27T14:40:19Z</time></trkpt><trkpt lat="30.78423490591645" lon="-8.391588734076613"><ele>940.0</ele><time>2026-04-27T14:40:20Z</time></trkpt><trkpt lat="30.784031558358954" lon="-8.391585897150854"><ele>936.0</ele><time>2026-04-27T14:40:21.001Z</time></trkpt><trkpt lat="30.78383732982426" lon="-8.391618826718418"><ele>932.0</ele><time>2026-04-27T14:40:22.001Z</time></trkpt><trkpt lat="30.783679416353458" lon="-8.391686489945712"><ele>928.0</ele><time>2026-04-27T14:40:23.001Z</time></trkpt><trkpt lat="30.783532449945664" lon="-8.391752581407093"><ele>929.3333333333333</ele><time>2026-04-27T14:40:24.001Z</time></trkpt><trkpt lat="30.78339297146169" lon="-8.391876475385555"><ele>930.6666666666667</ele><time>2026-04-27T14:40:25.001Z</time></trkpt><trkpt lat="30.78324175927257" lon="-8.392025381915582"><ele>932.0</ele><time>2026-04-27T14:40:26.001Z</time></trkpt><trkpt lat="30.78310026479393" lon="-8.39219988280241"><ele>932.0</ele><time>2026-04-27T14:40:27.001Z</time></trkpt><trkpt lat="30.782968032467902" lon="-8.392374553077346"><ele>932.0</ele><time>2026-04-27T14:40:28.001Z</time></trkpt><trkpt lat="30.78285657550746" lon="-8.392519656393214"><ele>932.0</ele><time>2026-04-27T14:40:29.001Z</time></trkpt><trkpt lat="30.782756691654445" lon="-8.392657041475386"><ele>932.0</ele><time>2026-04-27T14:40:30.001Z</time></trkpt><trkpt lat="30.782681156894846" lon="-8.392805093705752"><ele>932.0</ele><time>2026-04-27T14:40:31.001Z</time></trkpt><trkpt lat="30.782621854502" lon="-8.39298461788176"><ele>932.0</ele><time>2026-04-27T14:40:32.001Z</time></trkpt><trkpt lat="30.782580334690792" lon="-8.393183051694612"><ele>924.3333333333334</ele><time>2026-04-27T14:40:33.001Z</time></trkpt><trkpt lat="30.78254762466297" lon="-8.393387096407041"><ele>916.6666666666667</ele><time>2026-04-27T14:40:34.001Z</time></trkpt><trkpt lat="30.782521284393987" lon="-8.39359851525208"><ele>909.0</ele><time>2026-04-27T14:40:35.001Z</time></trkpt><trkpt lat="30.782488082743793" lon="-8.393804975290657"><ele>909.3333333333333</ele><time>2026-04-27T14:40:36.001Z</time></trkpt><trkpt lat="30.78244688102788" lon="-8.39401198575967"><ele>909.6666666666666</ele><time>2026-04-27T14:40:37.001Z</time></trkpt><trkpt lat="30.782405399609083" lon="-8.39422478376516"><ele>910.0</ele><time>2026-04-27T14:40:38.001Z</time></trkpt><trkpt lat="30.782377802470563" lon="-8.394436533745008"><ele>910.0</ele><time>2026-04-27T14:40:39.001Z</time></trkpt><trkpt lat="30.782365134759047" lon="-8.394641751747336"><ele>910.0</ele><time>2026-04-27T14:40:40.001Z</time></trkpt><trkpt lat="30.782360500081207" lon="-8.394833961680302"><ele>910.0</ele><time>2026-04-27T14:40:41.001Z</time></trkpt><trkpt lat="30.78235405169366" lon="-8.395024758707025"><ele>908.6666666666666</ele><time>2026-04-27T14:40:42.001Z</time></trkpt><trkpt lat="30.782340320720657" lon="-8.395213782430515"><ele>907.3333333333333</ele><time>2026-04-27T14:40:43.001Z</time></trkpt><trkpt lat="30.782298284372448" lon="-8.39538916647367"><ele>906.0</ele><time>2026-04-27T14:40:44.001Z</time></trkpt><trkpt lat="30.782236584895216" lon="-8.395561349488617"><ele>910.0</ele><time>2026-04-27T14:40:45.001Z</time></trkpt><trkpt lat="30.78214515755507" lon="-8.395724788036032"><ele>914.0</ele><time>2026-04-27T14:40:46.001Z</time></trkpt><trkpt lat="30.781976487179723" lon="-8.395859268364745"><ele>918.0</ele><time>2026-04-27T14:40:47.001Z</time></trkpt><trkpt lat="30.781840970456013" lon="-8.39602255320816"><ele>918.0</ele><time>2026-04-27T14:40:48.001Z</time></trkpt><trkpt lat="30.781729315083595" lon="-8.396198158376203"><ele>918.0</ele><time>2026-04-27T14:40:49.001Z</time></trkpt><trkpt lat="30.781680394670843" lon="-8.396396019108805"><ele>918.0</ele><time>2026-04-27T14:40:50.001Z</time></trkpt><trkpt lat="30.781635966842938" lon="-8.39659246334505"><ele>910.6666666666667</ele><time>2026-04-27T14:40:51.001Z</time></trkpt><trkpt lat="30.781593796115235" lon="-8.396785437020801"><ele>903.3333333333334</ele><time>2026-04-27T14:40:52.001Z</time></trkpt><trkpt lat="30.78150726654453" lon="-8.396964141003995"><ele>896.0</ele><time>2026-04-27T14:40:53.001Z</time></trkpt><trkpt lat="30.781386300219946" lon="-8.397135673914569"><ele>887.0</ele><time>2026-04-27T14:40:54.001Z</time></trkpt><trkpt lat="30.78126876957845" lon="-8.397318259584734"><ele>878.0</ele><time>2026-04-27T14:40:55.001Z</time></trkpt><trkpt lat="30.78113752332184" lon="-8.397507752213663"><ele>869.0</ele><time>2026-04-27T14:40:56Z</time></trkpt><trkpt lat="30.78102353874516" lon="-8.397711614998878"><ele>873.0</ele><time>2026-04-27T14:40:57Z</time></trkpt><trkpt lat="30.78089596309266" lon="-8.39790560535148"><ele>877.0</ele><time>2026-04-27T14:40:58Z</time></trkpt><trkpt lat="30.780759838993266" lon="-8.398100683477862"><ele>881.0</ele><time>2026-04-27T14:40:59Z</time></trkpt><trkpt lat="30.78061768069724" lon="-8.398289308643404"><ele>881.0</ele><time>2026-04-27T14:41:00Z</time></trkpt><trkpt lat="30.780449731794782" lon="-8.39844078187739"><ele>881.0</ele><time>2026-04-27T14:41:01Z</time></trkpt><trkpt lat="30.78029907740444" lon="-8.398604369006694"><ele>881.0</ele><time>2026-04-27T14:41:02Z</time></trkpt><trkpt lat="30.780153352726366" lon="-8.39875563354683"><ele>877.3333333333334</ele><time>2026-04-27T14:41:03Z</time></trkpt><trkpt lat="30.780019344636127" lon="-8.398913847549602"><ele>873.6666666666667</ele><time>2026-04-27T14:41:04Z</time></trkpt><trkpt lat="30.779873613381387" lon="-8.399066896381617"><ele>870.0</ele><time>2026-04-27T14:41:05Z</time></trkpt><trkpt lat="30.779726299660634" lon="-8.399219531313113"><ele>870.0</ele><time>2026-04-27T14:41:06Z</time></trkpt><trkpt lat="30.77956564702741" lon="-8.399367561129589"><ele>870.0</ele><time>2026-04-27T14:41:07Z</time></trkpt><trkpt lat="30.779423286964455" lon="-8.399517925788151"><ele>870.0</ele><time>2026-04-27T14:41:08Z</time></trkpt><trkpt lat="30.779283197564133" lon="-8.399685303874932"><ele>867.0</ele><time>2026-04-27T14:41:09Z</time></trkpt><trkpt lat="30.77910926053631" lon="-8.399799225956441"><ele>864.0</ele><time>2026-04-27T14:41:10Z</time></trkpt><trkpt lat="30.77895128328375" lon="-8.39991412753577"><ele>861.0</ele><time>2026-04-27T14:41:11Z</time></trkpt><trkpt lat="30.778797822206496" lon="-8.40002239362369"><ele>861.0</ele><time>2026-04-27T14:41:12Z</time></trkpt><trkpt lat="30.778652159278725" lon="-8.400139798879547"><ele>861.0</ele><time>2026-04-27T14:41:13Z</time></trkpt><trkpt lat="30.778512828824077" lon="-8.400285796037135"><ele>861.0</ele><time>2026-04-27T14:41:14Z</time></trkpt><trkpt lat="30.778376267910172" lon="-8.400464436829196"><ele>857.6666666666667</ele><time>2026-04-27T14:41:15Z</time></trkpt><trkpt lat="30.778258429233503" lon="-8.400638990807508"><ele>854.3333333333334</ele><time>2026-04-27T14:41:16Z</time></trkpt><trkpt lat="30.778146948833566" lon="-8.400802046106497"><ele>851.0</ele><time>2026-04-27T14:41:17Z</time></trkpt><trkpt lat="30.77802569259534" lon="-8.400941259381122"><ele>851.0</ele><time>2026-04-27T14:41:18Z</time></trkpt><trkpt lat="30.777888481000513" lon="-8.401066383717215"><ele>851.0</ele><time>2026-04-27T14:41:19Z</time></trkpt><trkpt lat="30.77771916474615" lon="-8.401173429697522"><ele>851.0</ele><time>2026-04-27T14:41:20Z</time></trkpt><trkpt lat="30.77751844951136" lon="-8.401269465785205"><ele>848.5</ele><time>2026-04-27T14:41:21Z</time></trkpt><trkpt lat="30.777312151282295" lon="-8.401369630649176"><ele>846.0</ele><time>2026-04-27T14:41:22Z</time></trkpt><trkpt lat="30.77710403249787" lon="-8.401472840270486"><ele>846.0</ele><time>2026-04-27T14:41:23Z</time></trkpt><trkpt lat="30.776896977714216" lon="-8.401583145420062"><ele>846.0</ele><time>2026-04-27T14:41:24Z</time></trkpt><trkpt lat="30.776696336143672" lon="-8.401687879161083"><ele>846.0</ele><time>2026-04-27T14:41:25Z</time></trkpt><trkpt lat="30.776507628417555" lon="-8.401784115612397"><ele>849.0</ele><time>2026-04-27T14:41:26Z</time></trkpt><trkpt lat="30.77632476129435" lon="-8.401874436478241"><ele>852.0</ele><time>2026-04-27T14:41:27Z</time></trkpt><trkpt lat="30.776151012249663" lon="-8.401950921764353"><ele>855.0</ele><time>2026-04-27T14:41:28Z</time></trkpt><trkpt lat="30.775974304155444" lon="-8.402028492475369"><ele>856.3333333333333</ele><time>2026-04-27T14:41:29Z</time></trkpt><trkpt lat="30.775799372272097" lon="-8.402110616758161"><ele>857.6666666666666</ele><time>2026-04-27T14:41:30Z</time></trkpt><trkpt lat="30.77561156793806" lon="-8.40220124208441"><ele>859.0</ele><time>2026-04-27T14:41:31Z</time></trkpt><trkpt lat="30.77543343358087" lon="-8.402292567451461"><ele>851.6666666666666</ele><time>2026-04-27T14:41:32Z</time></trkpt><trkpt lat="30.77527730887933" lon="-8.402385851021538"><ele>844.3333333333333</ele><time>2026-04-27T14:41:33Z</time></trkpt><trkpt lat="30.775125134358102" lon="-8.402489925694313"><ele>837.0</ele><time>2026-04-27T14:41:34Z</time></trkpt><trkpt lat="30.774992020949437" lon="-8.40260636309982"><ele>837.0</ele><time>2026-04-27T14:41:35Z</time></trkpt><trkpt lat="30.774873254511" lon="-8.402742639209158"><ele>837.0</ele><time>2026-04-27T14:41:36Z</time></trkpt><trkpt lat="30.774761401713455" lon="-8.402892484256009"><ele>837.0</ele><time>2026-04-27T14:41:37Z</time></trkpt><trkpt lat="30.774651444137522" lon="-8.403037943041895"><ele>833.75</ele><time>2026-04-27T14:41:38Z</time></trkpt><trkpt lat="30.77454711381664" lon="-8.403170445062385"><ele>830.5</ele><time>2026-04-27T14:41:39Z</time></trkpt><trkpt lat="30.774458492603806" lon="-8.403274837634408"><ele>827.25</ele><time>2026-04-27T14:41:40Z</time></trkpt><trkpt lat="30.77437503259399" lon="-8.40334682661596"><ele>824.0</ele><time>2026-04-27T14:41:41Z</time></trkpt><trkpt lat="30.774288020035158" lon="-8.403391438939757"><ele>824.0</ele><time>2026-04-27T14:41:42Z</time></trkpt><trkpt lat="30.774198290578315" lon="-8.403401624869563"><ele>824.0</ele><time>2026-04-27T14:41:43Z</time></trkpt><trkpt lat="30.774120481021626" lon="-8.403377635962924"><ele>824.0</ele><time>2026-04-27T14:41:44Z</time></trkpt><trkpt lat="30.774047103322264" lon="-8.403314501789614"><ele>824.0</ele><time>2026-04-27T14:41:45Z</time></trkpt><trkpt lat="30.77398133254397" lon="-8.403223975989247"><ele>824.0</ele><time>2026-04-27T14:41:46Z</time></trkpt><trkpt lat="30.77395434029241" lon="-8.403109567947544"><ele>824.25</ele><time>2026-04-27T14:41:47Z</time></trkpt><trkpt lat="30.773953112242737" lon="-8.402982220150479"><ele>824.5</ele><time>2026-04-27T14:41:48Z</time></trkpt><trkpt lat="30.773981618344166" lon="-8.402837148554541"><ele>824.75</ele><time>2026-04-27T14:41:49Z</time></trkpt><trkpt lat="30.7740364147129" lon="-8.402649051671377"><ele>825.0</ele><time>2026-04-27T14:41:50Z</time></trkpt><trkpt lat="30.774116128009997" lon="-8.402406303884854"><ele>825.0</ele><time>2026-04-27T14:41:51Z</time></trkpt><trkpt lat="30.77418120195383" lon="-8.402183511922503"><ele>825.0</ele><time>2026-04-27T14:41:52Z</time></trkpt><trkpt lat="30.774236673337988" lon="-8.401987149619798"><ele>825.0</ele><time>2026-04-27T14:41:53Z</time></trkpt><trkpt lat="30.77428392329715" lon="-8.401800218263235"><ele>823.25</ele><time>2026-04-27T14:41:54Z</time></trkpt><trkpt lat="30.774324017275728" lon="-8.401632091682632"><ele>821.5</ele><time>2026-04-27T14:41:55Z</time></trkpt><trkpt lat="30.774357032358665" lon="-8.401495146606107"><ele>819.75</ele><time>2026-04-27T14:41:56Z</time></trkpt><trkpt lat="30.774370169894663" lon="-8.401373532854155"><ele>818.0</ele><time>2026-04-27T14:41:57Z</time></trkpt><trkpt lat="30.77435721342961" lon="-8.401258838547458"><ele>818.4</ele><time>2026-04-27T14:41:58Z</time></trkpt><trkpt lat="30.774320660583278" lon="-8.401155467195515"><ele>818.8</ele><time>2026-04-27T14:41:59Z</time></trkpt><trkpt lat="30.774258632713366" lon="-8.401063948508334"><ele>819.2</ele><time>2026-04-27T14:42:00Z</time></trkpt><trkpt lat="30.77416194679888" lon="-8.400996775087892"><ele>819.6</ele><time>2026-04-27T14:42:01Z</time></trkpt><trkpt lat="30.77405876293484" lon="-8.400967403907739"><ele>820.0</ele><time>2026-04-27T14:42:02Z</time></trkpt><trkpt lat="30.773951395000097" lon="-8.40096891337251"><ele>820.0</ele><time>2026-04-27T14:42:03Z</time></trkpt><trkpt lat="30.77385067836034" lon="-8.40101943912309"><ele>820.0</ele><time>2026-04-27T14:42:04Z</time></trkpt><trkpt lat="30.773759402325215" lon="-8.401091691366043"><ele>820.0</ele><time>2026-04-27T14:42:05Z</time></trkpt><trkpt lat="30.773676601607796" lon="-8.401208580792137"><ele>820.0</ele><time>2026-04-27T14:42:06Z</time></trkpt><trkpt lat="30.773607669510984" lon="-8.401350829992769"><ele>819.3333333333333</ele><time>2026-04-27T14:42:07Z</time></trkpt><trkpt lat="30.773553431160813" lon="-8.401515558228908"><ele>818.6666666666667</ele><time>2026-04-27T14:42:08Z</time></trkpt><trkpt lat="30.77349570890189" lon="-8.401687314994481"><ele>818.0</ele><time>2026-04-27T14:42:09Z</time></trkpt><trkpt lat="30.773433909433034" lon="-8.401846154300808"><ele>816.5</ele><time>2026-04-27T14:42:10Z</time></trkpt><trkpt lat="30.773382781543926" lon="-8.401999998495953"><ele>815.0</ele><time>2026-04-27T14:42:11Z</time></trkpt><trkpt lat="30.77332941994113" lon="-8.402160930789448"><ele>813.5</ele><time>2026-04-27T14:42:12.001Z</time></trkpt><trkpt lat="30.77326592697615" lon="-8.402309137399996"><ele>812.0</ele><time>2026-04-27T14:42:13.001Z</time></trkpt><trkpt lat="30.773199252933424" lon="-8.402458544460371"><ele>812.0</ele><time>2026-04-27T14:42:14.001Z</time></trkpt><trkpt lat="30.773130219052256" lon="-8.402612637758661"><ele>812.0</ele><time>2026-04-27T14:42:15.001Z</time></trkpt><trkpt lat="30.773059957975846" lon="-8.402758267976083"><ele>812.0</ele><time>2026-04-27T14:42:16.001Z</time></trkpt><trkpt lat="30.77299111127681" lon="-8.402896523348893"><ele>812.0</ele><time>2026-04-27T14:42:17.001Z</time></trkpt><trkpt lat="30.77292154251235" lon="-8.403031956413427"><ele>811.25</ele><time>2026-04-27T14:42:18.001Z</time></trkpt><trkpt lat="30.772848446488325" lon="-8.4031667567155"><ele>810.5</ele><time>2026-04-27T14:42:19.001Z</time></trkpt><trkpt lat="30.772776584519352" lon="-8.403291384392054"><ele>809.75</ele><time>2026-04-27T14:42:20.001Z</time></trkpt><trkpt lat="30.772701273758294" lon="-8.403425184185721"><ele>809.0</ele><time>2026-04-27T14:42:21.001Z</time></trkpt><trkpt lat="30.772622175299784" lon="-8.403571068027468"><ele>809.0</ele><time>2026-04-27T14:42:22.001Z</time></trkpt><trkpt lat="30.772535801406633" lon="-8.403727010980836"><ele>809.0</ele><time>2026-04-27T14:42:23.001Z</time></trkpt><trkpt lat="30.77244729468808" lon="-8.403885356236021"><ele>809.0</ele><time>2026-04-27T14:42:24.001Z</time></trkpt><trkpt lat="30.772359408184062" lon="-8.40403865464933"><ele>805.3333333333334</ele><time>2026-04-27T14:42:25.001Z</time></trkpt><trkpt lat="30.772268406229355" lon="-8.40418920047844"><ele>801.6666666666667</ele><time>2026-04-27T14:42:26.001Z</time></trkpt><trkpt lat="30.772161911118534" lon="-8.404334963157929"><ele>798.0</ele><time>2026-04-27T14:42:27.001Z</time></trkpt><trkpt lat="30.772030010546217" lon="-8.404458873503518"><ele>798.0</ele><time>2026-04-27T14:42:28.001Z</time></trkpt><trkpt lat="30.771884574341982" lon="-8.404565385472209"><ele>798.0</ele><time>2026-04-27T14:42:29.001Z</time></trkpt><trkpt lat="30.7717471292854" lon="-8.404660131758085"><ele>798.0</ele><time>2026-04-27T14:42:30.001Z</time></trkpt><trkpt lat="30.771606673135743" lon="-8.404755457272996"><ele>795.0</ele><time>2026-04-27T14:42:31.001Z</time></trkpt><trkpt lat="30.77146281975779" lon="-8.404836096762931"><ele>792.0</ele><time>2026-04-27T14:42:32.001Z</time></trkpt><trkpt lat="30.771324858151164" lon="-8.404884384263916"><ele>789.0</ele><time>2026-04-27T14:42:33.001Z</time></trkpt><trkpt lat="30.771189129035548" lon="-8.404897168156127"><ele>786.0</ele><time>2026-04-27T14:42:34.001Z</time></trkpt><trkpt lat="30.771054020807146" lon="-8.404873101778703"><ele>785.3333333333333</ele><time>2026-04-27T14:42:35.001Z</time></trkpt><trkpt lat="30.77091105741949" lon="-8.40481647748449"><ele>784.6666666666666</ele><time>2026-04-27T14:42:36.001Z</time></trkpt><trkpt lat="30.77075790446331" lon="-8.404751353366017"><ele>784.0</ele><time>2026-04-27T14:42:37.001Z</time></trkpt><trkpt lat="30.77061822266736" lon="-8.404693029756096"><ele>784.75</ele><time>2026-04-27T14:42:38.001Z</time></trkpt><trkpt lat="30.77048683112245" lon="-8.404651170379166"><ele>785.5</ele><time>2026-04-27T14:42:39.001Z</time></trkpt><trkpt lat="30.77035382111794" lon="-8.404612382449095"><ele>786.25</ele><time>2026-04-27T14:42:40.001Z</time></trkpt><trkpt lat="30.77020277537307" lon="-8.40458062044691"><ele>787.0</ele><time>2026-04-27T14:42:41.001Z</time></trkpt><trkpt lat="30.77004405309461" lon="-8.404577680252393"><ele>785.0</ele><time>2026-04-27T14:42:42.001Z</time></trkpt><trkpt lat="30.7698807023512" lon="-8.404609927369966"><ele>783.0</ele><time>2026-04-27T14:42:43.001Z</time></trkpt><trkpt lat="30.76972660736779" lon="-8.404657431926722"><ele>781.0</ele><time>2026-04-27T14:42:44.001Z</time></trkpt><trkpt lat="30.769591880708777" lon="-8.404709950776198"><ele>780.0</ele><time>2026-04-27T14:42:45.001Z</time></trkpt><trkpt lat="30.76946994015722" lon="-8.40475659495966"><ele>779.0</ele><time>2026-04-27T14:42:46.001Z</time></trkpt><trkpt lat="30.769358633148244" lon="-8.404798951790822"><ele>778.0</ele><time>2026-04-27T14:42:47.001Z</time></trkpt><trkpt lat="30.769250804026896" lon="-8.404838347345912"><ele>777.0</ele><time>2026-04-27T14:42:48.001Z</time></trkpt><trkpt lat="30.76914790057994" lon="-8.404873446896788"><ele>777.0</ele><time>2026-04-27T14:42:49.001Z</time></trkpt><trkpt lat="30.769040096042435" lon="-8.404905081918862"><ele>777.0</ele><time>2026-04-27T14:42:50.001Z</time></trkpt><trkpt lat="30.76892237914781" lon="-8.404920273755131"><ele>777.0</ele><time>2026-04-27T14:42:51.001Z</time></trkpt><trkpt lat="30.768806694337098" lon="-8.40492331085675"><ele>777.0</ele><time>2026-04-27T14:42:52.001Z</time></trkpt><trkpt lat="30.768686888763128" lon="-8.404923139722843"><ele>777.0</ele><time>2026-04-27T14:42:53.001Z</time></trkpt><trkpt lat="30.768566953970858" lon="-8.404914331060336"><ele>777.0</ele><time>2026-04-27T14:42:54.001Z</time></trkpt><trkpt lat="30.76844727375685" lon="-8.404888745720825"><ele>777.0</ele><time>2026-04-27T14:42:55.001Z</time></trkpt><trkpt lat="30.768324511057227" lon="-8.404850888069914"><ele>777.0</ele><time>2026-04-27T14:42:56.001Z</time></trkpt><trkpt lat="30.768191819740654" lon="-8.40480852974037"><ele>775.3333333333333</ele><time>2026-04-27T14:42:57.001Z</time></trkpt><trkpt lat="30.76804732906945" lon="-8.404759354516852"><ele>773.6666666666666</ele><time>2026-04-27T14:42:58.001Z</time></trkpt><trkpt lat="30.767895178723705" lon="-8.404711178328832"><ele>772.0</ele><time>2026-04-27T14:42:59.001Z</time></trkpt><trkpt lat="30.767742046309184" lon="-8.404662510609283"><ele>770.3333333333333</ele><time>2026-04-27T14:43:00.001Z</time></trkpt><trkpt lat="30.76757487943309" lon="-8.404606473527217"><ele>768.6666666666666</ele><time>2026-04-27T14:43:01.001Z</time></trkpt><trkpt lat="30.767405781889384" lon="-8.404547867302222"><ele>767.0</ele><time>2026-04-27T14:43:02Z</time></trkpt><trkpt lat="30.767244987813097" lon="-8.404493875461478"><ele>767.0</ele><time>2026-04-27T14:43:03Z</time></trkpt><trkpt lat="30.767083421444564" lon="-8.404441961281576"><ele>767.0</ele><time>2026-04-27T14:43:04Z</time></trkpt><trkpt lat="30.76692201492103" lon="-8.404391682378186"><ele>767.0</ele><time>2026-04-27T14:43:05Z</time></trkpt><trkpt lat="30.766765015432167" lon="-8.404338709959509"><ele>765.25</ele><time>2026-04-27T14:43:06Z</time></trkpt><trkpt lat="30.76661607096439" lon="-8.404280157659175"><ele>763.5</ele><time>2026-04-27T14:43:07Z</time></trkpt><trkpt lat="30.766477251636978" lon="-8.404229128396297"><ele>761.75</ele><time>2026-04-27T14:43:08Z</time></trkpt><trkpt lat="30.766343452612862" lon="-8.404185169917062"><ele>760.0</ele><time>2026-04-27T14:43:09Z</time></trkpt><trkpt lat="30.766212831934446" lon="-8.404150029009362"><ele>760.0</ele><time>2026-04-27T14:43:10Z</time></trkpt><trkpt lat="30.766087021150472" lon="-8.404127426310332"><ele>760.0</ele><time>2026-04-27T14:43:11Z</time></trkpt><trkpt lat="30.765949701647603" lon="-8.404129170560537"><ele>760.0</ele><time>2026-04-27T14:43:12Z</time></trkpt><trkpt lat="30.765809994892777" lon="-8.404169516154333"><ele>760.0</ele><time>2026-04-27T14:43:13Z</time></trkpt><trkpt lat="30.76568383045088" lon="-8.404249712659016"><ele>759.6666666666667</ele><time>2026-04-27T14:43:14Z</time></trkpt><trkpt lat="30.765574320406838" lon="-8.404367325602069"><ele>759.3333333333334</ele><time>2026-04-27T14:43:15Z</time></trkpt><trkpt lat="30.765477538063585" lon="-8.404515577461577"><ele>759.0</ele><time>2026-04-27T14:43:16Z</time></trkpt><trkpt lat="30.765388808415924" lon="-8.404679404120406"><ele>758.5</ele><time>2026-04-27T14:43:17Z</time></trkpt><trkpt lat="30.7653025127623" lon="-8.404837408918098"><ele>758.0</ele><time>2026-04-27T14:43:18Z</time></trkpt><trkpt lat="30.765232184884596" lon="-8.404963945986704"><ele>757.5</ele><time>2026-04-27T14:43:19Z</time></trkpt><trkpt lat="30.76517706985181" lon="-8.405068690209372"><ele>757.0</ele><time>2026-04-27T14:43:20Z</time></trkpt><trkpt lat="30.765119950201875" lon="-8.40517822636775"><ele>757.0</ele><time>2026-04-27T14:43:21Z</time></trkpt><trkpt lat="30.765052612756335" lon="-8.405298323105487"><ele>757.0</ele><time>2026-04-27T14:43:22Z</time></trkpt><trkpt lat="30.76498237604677" lon="-8.405417590715619"><ele>757.0</ele><time>2026-04-27T14:43:23Z</time></trkpt><trkpt lat="30.764910038798092" lon="-8.405540513494111"><ele>757.0</ele><time>2026-04-27T14:43:24Z</time></trkpt><trkpt lat="30.76484200085371" lon="-8.405659398151958"><ele>757.0</ele><time>2026-04-27T14:43:25Z</time></trkpt><trkpt lat="30.764770511673085" lon="-8.40578192683055"><ele>757.0</ele><time>2026-04-27T14:43:26Z</time></trkpt><trkpt lat="30.76469761271153" lon="-8.405904815191953"><ele>757.0</ele><time>2026-04-27T14:43:27Z</time></trkpt><trkpt lat="30.764623302247703" lon="-8.406030590092543"><ele>757.0</ele><time>2026-04-27T14:43:28Z</time></trkpt><trkpt lat="30.764547383113026" lon="-8.406161792553645"><ele>757.0</ele><time>2026-04-27T14:43:29Z</time></trkpt><trkpt lat="30.764470154488755" lon="-8.406297956981579"><ele>757.0</ele><time>2026-04-27T14:43:30Z</time></trkpt><trkpt lat="30.76439516200434" lon="-8.406430460151093"><ele>757.0</ele><time>2026-04-27T14:43:31Z</time></trkpt><trkpt lat="30.764326710692572" lon="-8.406553406170637"><ele>757.0</ele><time>2026-04-27T14:43:32Z</time></trkpt><trkpt lat="30.764258236970242" lon="-8.406677080401781"><ele>755.25</ele><time>2026-04-27T14:43:33Z</time></trkpt><trkpt lat="30.764184550984204" lon="-8.40679924765739"><ele>753.5</ele><time>2026-04-27T14:43:34Z</time></trkpt><trkpt lat="30.76411207092166" lon="-8.406923749029868"><ele>751.75</ele><time>2026-04-27T14:43:35Z</time></trkpt><trkpt lat="30.764034580968328" lon="-8.407044392940849"><ele>750.0</ele><time>2026-04-27T14:43:36Z</time></trkpt><trkpt lat="30.76395188250139" lon="-8.407166472810834"><ele>749.75</ele><time>2026-04-27T14:43:37Z</time></trkpt><trkpt lat="30.763857934085742" lon="-8.407285690485795"><ele>749.5</ele><time>2026-04-27T14:43:38Z</time></trkpt><trkpt lat="30.76374977911899" lon="-8.407392688696834"><ele>749.25</ele><time>2026-04-27T14:43:39Z</time></trkpt><trkpt lat="30.76362426457945" lon="-8.40749161171768"><ele>749.0</ele><time>2026-04-27T14:43:40Z</time></trkpt><trkpt lat="30.76348851624337" lon="-8.407585254476986"><ele>749.0</ele><time>2026-04-27T14:43:41Z</time></trkpt><trkpt lat="30.76334470972937" lon="-8.407678455644314"><ele>749.0</ele><time>2026-04-27T14:43:42Z</time></trkpt><trkpt lat="30.763195599604067" lon="-8.4077836250539"><ele>749.0</ele><time>2026-04-27T14:43:43Z</time></trkpt><trkpt lat="30.763033358621925" lon="-8.407899067572684"><ele>747.6666666666666</ele><time>2026-04-27T14:43:44Z</time></trkpt><trkpt lat="30.762867314138997" lon="-8.408017192938361"><ele>746.3333333333334</ele><time>2026-04-27T14:43:45Z</time></trkpt><trkpt lat="30.762690705522182" lon="-8.408140681552803"><ele>745.0</ele><time>2026-04-27T14:43:46Z</time></trkpt><trkpt lat="30.762520153531334" lon="-8.408263919762515"><ele>744.0</ele><time>2026-04-27T14:43:47Z</time></trkpt><trkpt lat="30.76235199704652" lon="-8.408382012584656"><ele>743.0</ele><time>2026-04-27T14:43:48Z</time></trkpt><trkpt lat="30.762181944009164" lon="-8.408493357007746"><ele>742.0</ele><time>2026-04-27T14:43:49Z</time></trkpt><trkpt lat="30.762016360026173" lon="-8.408599901762416"><ele>740.6666666666667</ele><time>2026-04-27T14:43:50Z</time></trkpt><trkpt lat="30.76185299164833" lon="-8.408711407218865"><ele>739.3333333333334</ele><time>2026-04-27T14:43:51Z</time></trkpt><trkpt lat="30.761704040821233" lon="-8.408823114530891"><ele>738.0</ele><time>2026-04-27T14:43:52Z</time></trkpt><trkpt lat="30.761557970756986" lon="-8.408938629021248"><ele>737.6666666666666</ele><time>2026-04-27T14:43:53Z</time></trkpt><trkpt lat="30.76140430844501" lon="-8.409049370762041"><ele>737.3333333333333</ele><time>2026-04-27T14:43:54Z</time></trkpt><trkpt lat="30.761255211399487" lon="-8.409149097908518"><ele>737.0</ele><time>2026-04-27T14:43:55Z</time></trkpt><trkpt lat="30.761115021590506" lon="-8.409247624437503"><ele>734.6666666666666</ele><time>2026-04-27T14:43:56Z</time></trkpt><trkpt lat="30.76097945033854" lon="-8.409345016734205"><ele>732.3333333333334</ele><time>2026-04-27T14:43:57Z</time></trkpt><trkpt lat="30.76084115161762" lon="-8.40944215839634"><ele>730.0</ele><time>2026-04-27T14:43:58Z</time></trkpt><trkpt lat="30.760708202291646" lon="-8.40953922534579"><ele>730.0</ele><time>2026-04-27T14:43:59Z</time></trkpt><trkpt lat="30.76057528327339" lon="-8.409636898091037"><ele>730.0</ele><time>2026-04-27T14:44:00Z</time></trkpt><trkpt lat="30.760436022787786" lon="-8.40973596333839"><ele>730.0</ele><time>2026-04-27T14:44:01Z</time></trkpt><trkpt lat="30.760283410482185" lon="-8.40984036471152"><ele>728.6666666666667</ele><time>2026-04-27T14:44:02Z</time></trkpt><trkpt lat="30.760122605278347" lon="-8.40995009574452"><ele>727.3333333333334</ele><time>2026-04-27T14:44:03Z</time></trkpt><trkpt lat="30.759948043727697" lon="-8.410073050361346"><ele>726.0</ele><time>2026-04-27T14:44:04Z</time></trkpt><trkpt lat="30.759767901591907" lon="-8.410200163030929"><ele>726.0</ele><time>2026-04-27T14:44:05Z</time></trkpt><trkpt lat="30.759582742611393" lon="-8.410331967011151"><ele>726.0</ele><time>2026-04-27T14:44:06Z</time></trkpt><trkpt lat="30.759394571537786" lon="-8.410461007208797"><ele>726.0</ele><time>2026-04-27T14:44:07Z</time></trkpt><trkpt lat="30.759205876678525" lon="-8.410591922900496"><ele>725.0</ele><time>2026-04-27T14:44:08Z</time></trkpt><trkpt lat="30.759012684870825" lon="-8.410728273382032"><ele>724.0</ele><time>2026-04-27T14:44:09Z</time></trkpt><trkpt lat="30.7588139228435" lon="-8.410870427737514"><ele>724.0</ele><time>2026-04-27T14:44:10Z</time></trkpt><trkpt lat="30.75860920070981" lon="-8.4110158097959"><ele>724.0</ele><time>2026-04-27T14:44:11Z</time></trkpt><trkpt lat="30.758403259733623" lon="-8.411161860786457"><ele>723.0</ele><time>2026-04-27T14:44:12Z</time></trkpt><trkpt lat="30.758194429928036" lon="-8.411310773495615"><ele>722.0</ele><time>2026-04-27T14:44:13Z</time></trkpt><trkpt lat="30.757983927742924" lon="-8.411461057914991"><ele>721.5</ele><time>2026-04-27T14:44:14Z</time></trkpt><trkpt lat="30.757770570019915" lon="-8.411613384816944"><ele>721.0</ele><time>2026-04-27T14:44:15Z</time></trkpt><trkpt lat="30.757553570698487" lon="-8.411766559668623"><ele>720.0</ele><time>2026-04-27T14:44:16Z</time></trkpt><trkpt lat="30.75733380642647" lon="-8.411922430603305"><ele>719.0</ele><time>2026-04-27T14:44:17Z</time></trkpt><trkpt lat="30.757119715521895" lon="-8.412075731468452"><ele>719.5</ele><time>2026-04-27T14:44:18Z</time></trkpt><trkpt lat="30.75690820622208" lon="-8.412227918828231"><ele>720.0</ele><time>2026-04-27T14:44:19Z</time></trkpt><trkpt lat="30.756697083799736" lon="-8.412377849967209"><ele>718.5</ele><time>2026-04-27T14:44:20.001Z</time></trkpt><trkpt lat="30.756485019497383" lon="-8.412529406360715"><ele>717.0</ele><time>2026-04-27T14:44:21.001Z</time></trkpt><trkpt lat="30.75627169902946" lon="-8.412677586809775"><ele>717.0</ele><time>2026-04-27T14:44:22.001Z</time></trkpt><trkpt lat="30.7560579826233" lon="-8.412827802309934"><ele>717.0</ele><time>2026-04-27T14:44:23.001Z</time></trkpt><trkpt lat="30.755844018186895" lon="-8.41297745104747"><ele>715.0</ele><time>2026-04-27T14:44:24.001Z</time></trkpt><trkpt lat="30.755633809020416" lon="-8.41312777485387"><ele>713.0</ele><time>2026-04-27T14:44:25.001Z</time></trkpt><trkpt lat="30.755427958965452" lon="-8.413279538634725"><ele>713.0</ele><time>2026-04-27T14:44:26.001Z</time></trkpt><trkpt lat="30.755213944294297" lon="-8.413435452861705"><ele>713.0</ele><time>2026-04-27T14:44:27.001Z</time></trkpt><trkpt lat="30.754996790295657" lon="-8.413588406382368"><ele>711.5</ele><time>2026-04-27T14:44:28.001Z</time></trkpt><trkpt lat="30.75477547118821" lon="-8.413741082578134"><ele>710.0</ele><time>2026-04-27T14:44:29.001Z</time></trkpt><trkpt lat="30.754554153861548" lon="-8.4138965930401"><ele>707.5</ele><time>2026-04-27T14:44:30.001Z</time></trkpt><trkpt lat="30.754336447676174" lon="-8.414049816378135"><ele>705.0</ele><time>2026-04-27T14:44:31.001Z</time></trkpt><trkpt lat="30.75412215013819" lon="-8.41419859071016"><ele>705.0</ele><time>2026-04-27T14:44:32.001Z</time></trkpt><trkpt lat="30.75391087304465" lon="-8.4143437050074"><ele>705.0</ele><time>2026-04-27T14:44:33.001Z</time></trkpt><trkpt lat="30.75370088641881" lon="-8.41449207480581"><ele>703.0</ele><time>2026-04-27T14:44:34.001Z</time></trkpt><trkpt lat="30.753501797966166" lon="-8.414642358936796"><ele>701.0</ele><time>2026-04-27T14:44:35.001Z</time></trkpt><trkpt lat="30.753308397170606" lon="-8.414794915674847"><ele>701.0</ele><time>2026-04-27T14:44:36.001Z</time></trkpt><trkpt lat="30.75312355457441" lon="-8.414957760674023"><ele>701.0</ele><time>2026-04-27T14:44:37.001Z</time></trkpt><trkpt lat="30.752949198543757" lon="-8.415132499336938"><ele>701.0</ele><time>2026-04-27T14:44:38.001Z</time></trkpt><trkpt lat="30.752802605338584" lon="-8.415324994416137"><ele>701.0</ele><time>2026-04-27T14:44:39.001Z</time></trkpt><trkpt lat="30.752639937280893" lon="-8.415492715678354"><ele>701.0</ele><time>2026-04-27T14:44:40.001Z</time></trkpt><trkpt lat="30.75251972051617" lon="-8.41569108692991"><ele>700.6666666666666</ele><time>2026-04-27T14:44:41.001Z</time></trkpt><trkpt lat="30.752395763455144" lon="-8.415874726975051"><ele>700.3333333333334</ele><time>2026-04-27T14:44:42.001Z</time></trkpt><trkpt lat="30.75227380740953" lon="-8.416040052918156"><ele>700.0</ele><time>2026-04-27T14:44:43.001Z</time></trkpt><trkpt lat="30.752173267606043" lon="-8.41621493026886"><ele>699.6666666666667</ele><time>2026-04-27T14:44:44.001Z</time></trkpt><trkpt lat="30.752082996625017" lon="-8.416389181622158"><ele>699.3333333333334</ele><time>2026-04-27T14:44:45.001Z</time></trkpt><trkpt lat="30.751997737403713" lon="-8.416567689382013"><ele>699.0</ele><time>2026-04-27T14:44:46.001Z</time></trkpt><trkpt lat="30.751914310242004" lon="-8.416745434114839"><ele>697.6666666666666</ele><time>2026-04-27T14:44:47.001Z</time></trkpt><trkpt lat="30.751831615608605" lon="-8.41692024259256"><ele>696.3333333333333</ele><time>2026-04-27T14:44:48.001Z</time></trkpt><trkpt lat="30.751750338607074" lon="-8.417096204113777"><ele>695.0</ele><time>2026-04-27T14:44:49.001Z</time></trkpt><trkpt lat="30.751674540319925" lon="-8.417259129161515"><ele>695.0</ele><time>2026-04-27T14:44:50.001Z</time></trkpt><trkpt lat="30.751607308193993" lon="-8.41740085551403"><ele>695.0</ele><time>2026-04-27T14:44:51.001Z</time></trkpt><trkpt lat="30.751544719152655" lon="-8.417535729806303"><ele>695.0</ele><time>2026-04-27T14:44:52.001Z</time></trkpt><trkpt lat="30.751481734858654" lon="-8.41767107946348"><ele>695.0</ele><time>2026-04-27T14:44:53.001Z</time></trkpt><trkpt lat="30.75141224331765" lon="-8.417814539708457"><ele>695.0</ele><time>2026-04-27T14:44:54.001Z</time></trkpt><trkpt lat="30.751336786302414" lon="-8.417969664293683"><ele>695.0</ele><time>2026-04-27T14:44:55.001Z</time></trkpt><trkpt lat="30.751259527984868" lon="-8.418133319180917"><ele>695.0</ele><time>2026-04-27T14:44:56.001Z</time></trkpt><trkpt lat="30.75118149651477" lon="-8.418297640238082"><ele>694.6666666666666</ele><time>2026-04-27T14:44:57.001Z</time></trkpt><trkpt lat="30.751098720027162" lon="-8.418463630542858"><ele>694.3333333333334</ele><time>2026-04-27T14:44:58.001Z</time></trkpt><trkpt lat="30.751009408400215" lon="-8.418629129762413"><ele>694.0</ele><time>2026-04-27T14:44:59.001Z</time></trkpt><trkpt lat="30.7509154503268" lon="-8.4187889352113"><ele>693.6666666666667</ele><time>2026-04-27T14:45:00.001Z</time></trkpt><trkpt lat="30.75081107250044" lon="-8.418949131929814"><ele>693.3333333333334</ele><time>2026-04-27T14:45:01.001Z</time></trkpt><trkpt lat="30.75070088171044" lon="-8.419105505422523"><ele>693.0</ele><time>2026-04-27T14:45:02.001Z</time></trkpt><trkpt lat="30.75058822778046" lon="-8.419254952279356"><ele>693.0</ele><time>2026-04-27T14:45:03.001Z</time></trkpt><trkpt lat="30.75047094244151" lon="-8.419407534301925"><ele>693.0</ele><time>2026-04-27T14:45:04.001Z</time></trkpt><trkpt lat="30.750349436259512" lon="-8.419555950908505"><ele>693.0</ele><time>2026-04-27T14:45:05.001Z</time></trkpt><trkpt lat="30.750223451503004" lon="-8.419700236926428"><ele>692.6666666666666</ele><time>2026-04-27T14:45:06.001Z</time></trkpt><trkpt lat="30.75009692120299" lon="-8.419837027601567"><ele>692.3333333333333</ele><time>2026-04-27T14:45:07.001Z</time></trkpt><trkpt lat="30.74997344282753" lon="-8.41995887857415"><ele>692.0</ele><time>2026-04-27T14:45:08Z</time></trkpt><trkpt lat="30.74985548396008" lon="-8.420064965072696"><ele>692.0</ele><time>2026-04-27T14:45:09Z</time></trkpt><trkpt lat="30.749738883073306" lon="-8.420157565566305"><ele>692.0</ele><time>2026-04-27T14:45:10Z</time></trkpt><trkpt lat="30.749611336064625" lon="-8.420244452140148"><ele>692.0</ele><time>2026-04-27T14:45:11Z</time></trkpt><trkpt lat="30.74947036969903" lon="-8.420338443615535"><ele>692.0</ele><time>2026-04-27T14:45:12Z</time></trkpt><trkpt lat="30.74932998395098" lon="-8.420430309159775"><ele>692.0</ele><time>2026-04-27T14:45:13Z</time></trkpt><trkpt lat="30.749182505063516" lon="-8.420521937142059"><ele>692.0</ele><time>2026-04-27T14:45:14Z</time></trkpt><trkpt lat="30.749035756403316" lon="-8.420616329804108"><ele>692.0</ele><time>2026-04-27T14:45:15Z</time></trkpt><trkpt lat="30.748886855875927" lon="-8.420716074242833"><ele>692.0</ele><time>2026-04-27T14:45:16Z</time></trkpt><trkpt lat="30.748731972510804" lon="-8.420819964543519"><ele>692.0</ele><time>2026-04-27T14:45:17Z</time></trkpt><trkpt lat="30.748574927218304" lon="-8.42092442735205"><ele>691.3333333333333</ele><time>2026-04-27T14:45:18Z</time></trkpt><trkpt lat="30.748411689739868" lon="-8.421028413717236"><ele>690.6666666666666</ele><time>2026-04-27T14:45:19Z</time></trkpt><trkpt lat="30.74824510464185" lon="-8.421130147196475"><ele>690.0</ele><time>2026-04-27T14:45:20Z</time></trkpt><trkpt lat="30.748087205910007" lon="-8.421230740123658"><ele>690.0</ele><time>2026-04-27T14:45:21Z</time></trkpt><trkpt lat="30.74793255169549" lon="-8.421333691692489"><ele>690.0</ele><time>2026-04-27T14:45:22Z</time></trkpt><trkpt lat="30.747778266728066" lon="-8.421434407873562"><ele>690.0</ele><time>2026-04-27T14:45:23Z</time></trkpt><trkpt lat="30.747618642414878" lon="-8.42153727363863"><ele>689.6666666666666</ele><time>2026-04-27T14:45:24Z</time></trkpt><trkpt lat="30.74745721227789" lon="-8.421639214544804"><ele>689.3333333333333</ele><time>2026-04-27T14:45:25Z</time></trkpt><trkpt lat="30.747303205003263" lon="-8.42173891007586"><ele>689.0</ele><time>2026-04-27T14:45:26Z</time></trkpt><trkpt lat="30.74716172813978" lon="-8.421836871743494"><ele>689.0</ele><time>2026-04-27T14:45:27Z</time></trkpt><trkpt lat="30.7470170194774" lon="-8.42192821673894"><ele>689.0</ele><time>2026-04-27T14:45:28Z</time></trkpt><trkpt lat="30.74687099560906" lon="-8.422015041969766"><ele>689.0</ele><time>2026-04-27T14:45:29Z</time></trkpt><trkpt lat="30.74671935792043" lon="-8.422105785740454"><ele>688.6666666666666</ele><time>2026-04-27T14:45:30Z</time></trkpt><trkpt lat="30.746567915428955" lon="-8.422202719491647"><ele>688.3333333333334</ele><time>2026-04-27T14:45:31Z</time></trkpt><trkpt lat="30.74641723754051" lon="-8.422299966415139"><ele>688.0</ele><time>2026-04-27T14:45:32Z</time></trkpt><trkpt lat="30.746267164270336" lon="-8.422401126186989"><ele>688.0</ele><time>2026-04-27T14:45:33Z</time></trkpt><trkpt lat="30.746114596687185" lon="-8.422501679495728"><ele>688.0</ele><time>2026-04-27T14:45:34Z</time></trkpt><trkpt lat="30.74596080467062" lon="-8.422601195199041"><ele>688.0</ele><time>2026-04-27T14:45:35Z</time></trkpt><trkpt lat="30.745804883373378" lon="-8.422700275642148"><ele>687.3333333333334</ele><time>2026-04-27T14:45:36Z</time></trkpt><trkpt lat="30.745654649217542" lon="-8.422797965420644"><ele>686.6666666666666</ele><time>2026-04-27T14:45:37Z</time></trkpt><trkpt lat="30.745499763810006" lon="-8.422900502015485"><ele>686.0</ele><time>2026-04-27T14:45:38Z</time></trkpt><trkpt lat="30.745346354842372" lon="-8.423000617153164"><ele>685.6666666666666</ele><time>2026-04-27T14:45:39Z</time></trkpt><trkpt lat="30.745193474963102" lon="-8.423098523347782"><ele>685.3333333333334</ele><time>2026-04-27T14:45:40Z</time></trkpt><trkpt lat="30.745038924524085" lon="-8.423197343285976"><ele>685.0</ele><time>2026-04-27T14:45:41Z</time></trkpt><trkpt lat="30.744884048717104" lon="-8.423294676633292"><ele>685.0</ele><time>2026-04-27T14:45:42Z</time></trkpt><trkpt lat="30.744729522537487" lon="-8.423394682544524"><ele>685.0</ele><time>2026-04-27T14:45:43Z</time></trkpt><trkpt lat="30.744570811638777" lon="-8.42349657760417"><ele>685.0</ele><time>2026-04-27T14:45:44Z</time></trkpt><trkpt lat="30.744412136563877" lon="-8.4235990495399"><ele>684.0</ele><time>2026-04-27T14:45:45Z</time></trkpt><trkpt lat="30.744251715798924" lon="-8.423700530411468"><ele>683.0</ele><time>2026-04-27T14:45:46Z</time></trkpt><trkpt lat="30.7440888440979" lon="-8.423801292212913"><ele>682.0</ele><time>2026-04-27T14:45:47Z</time></trkpt><trkpt lat="30.743926492125144" lon="-8.42390238960814"><ele>682.0</ele><time>2026-04-27T14:45:48Z</time></trkpt><trkpt lat="30.74376460720745" lon="-8.424006761663042"><ele>682.0</ele><time>2026-04-27T14:45:49Z</time></trkpt><trkpt lat="30.743599186020734" lon="-8.424112983075249"><ele>682.0</ele><time>2026-04-27T14:45:50Z</time></trkpt><trkpt lat="30.74343257827118" lon="-8.424219726007859"><ele>681.6666666666667</ele><time>2026-04-27T14:45:51Z</time></trkpt><trkpt lat="30.74326492575466" lon="-8.424324357966226"><ele>681.3333333333334</ele><time>2026-04-27T14:45:52Z</time></trkpt><trkpt lat="30.74309393538643" lon="-8.424430990248796"><ele>681.0</ele><time>2026-04-27T14:45:53Z</time></trkpt><trkpt lat="30.742923702685335" lon="-8.424540333124922"><ele>681.3333333333334</ele><time>2026-04-27T14:45:54Z</time></trkpt><trkpt lat="30.742753724625956" lon="-8.424652516022496"><ele>681.6666666666667</ele><time>2026-04-27T14:45:55Z</time></trkpt><trkpt lat="30.742581646505947" lon="-8.424766360723023"><ele>682.0</ele><time>2026-04-27T14:45:56Z</time></trkpt><trkpt lat="30.74240743214076" lon="-8.424881313979977"><ele>681.3333333333334</ele><time>2026-04-27T14:45:57Z</time></trkpt><trkpt lat="30.742229918417916" lon="-8.42499506093261"><ele>680.6666666666666</ele><time>2026-04-27T14:45:58Z</time></trkpt><trkpt lat="30.742051262978162" lon="-8.42510709463025"><ele>680.0</ele><time>2026-04-27T14:45:59Z</time></trkpt><trkpt lat="30.74187417060857" lon="-8.425219558111841"><ele>680.0</ele><time>2026-04-27T14:46:00Z</time></trkpt><trkpt lat="30.741705956014798" lon="-8.42532788253312"><ele>680.0</ele><time>2026-04-27T14:46:01Z</time></trkpt><trkpt lat="30.741545564167303" lon="-8.425428586670593"><ele>680.0</ele><time>2026-04-27T14:46:02Z</time></trkpt><trkpt lat="30.741385649417698" lon="-8.425523816965882"><ele>680.0</ele><time>2026-04-27T14:46:03Z</time></trkpt><trkpt lat="30.741220747558447" lon="-8.42562221598339"><ele>680.0</ele><time>2026-04-27T14:46:04Z</time></trkpt><trkpt lat="30.741060979333163" lon="-8.42572289636007"><ele>680.0</ele><time>2026-04-27T14:46:05Z</time></trkpt><trkpt lat="30.74089561996893" lon="-8.425831316182203"><ele>679.0</ele><time>2026-04-27T14:46:06Z</time></trkpt><trkpt lat="30.740721209463185" lon="-8.425945997439293"><ele>678.0</ele><time>2026-04-27T14:46:07Z</time></trkpt><trkpt lat="30.740543418675877" lon="-8.426060030095357"><ele>677.0</ele><time>2026-04-27T14:46:08Z</time></trkpt><trkpt lat="30.74036495156535" lon="-8.426170289349816"><ele>676.3333333333333</ele><time>2026-04-27T14:46:09Z</time></trkpt><trkpt lat="30.74018433007459" lon="-8.426282585017272"><ele>675.6666666666666</ele><time>2026-04-27T14:46:10.001Z</time></trkpt><trkpt lat="30.740011990474365" lon="-8.426394214668914"><ele>675.0</ele><time>2026-04-27T14:46:11.001Z</time></trkpt><trkpt lat="30.73983865143026" lon="-8.426505202393258"><ele>675.0</ele><time>2026-04-27T14:46:12.001Z</time></trkpt><trkpt lat="30.739664158799354" lon="-8.426615240717954"><ele>675.0</ele><time>2026-04-27T14:46:13.001Z</time></trkpt><trkpt lat="30.739489738052573" lon="-8.426726615947583"><ele>675.0</ele><time>2026-04-27T14:46:14.001Z</time></trkpt><trkpt lat="30.739318498563577" lon="-8.42683958147845"><ele>674.6666666666666</ele><time>2026-04-27T14:46:15.001Z</time></trkpt><trkpt lat="30.739141523769238" lon="-8.42695648492607"><ele>674.3333333333333</ele><time>2026-04-27T14:46:16.001Z</time></trkpt><trkpt lat="30.738960583904415" lon="-8.427071351648438"><ele>674.0</ele><time>2026-04-27T14:46:17.001Z</time></trkpt><trkpt lat="30.738773024126598" lon="-8.427186877117524"><ele>673.3333333333333</ele><time>2026-04-27T14:46:18.001Z</time></trkpt><trkpt lat="30.73858855211361" lon="-8.427302457535715"><ele>672.6666666666666</ele><time>2026-04-27T14:46:19.001Z</time></trkpt><trkpt lat="30.738397829889877" lon="-8.427427603055179"><ele>672.0</ele><time>2026-04-27T14:46:20.001Z</time></trkpt><trkpt lat="30.738205168762335" lon="-8.427554038971266"><ele>672.0</ele><time>2026-04-27T14:46:21.001Z</time></trkpt><trkpt lat="30.738007505415187" lon="-8.427677646626497"><ele>672.0</ele><time>2026-04-27T14:46:22.001Z</time></trkpt><trkpt lat="30.737809995833054" lon="-8.427803226908322"><ele>672.0</ele><time>2026-04-27T14:46:23.001Z</time></trkpt><trkpt lat="30.737610385346894" lon="-8.427929676443414"><ele>672.0</ele><time>2026-04-27T14:46:24.001Z</time></trkpt><trkpt lat="30.737413330379994" lon="-8.42806055475977"><ele>672.0</ele><time>2026-04-27T14:46:25.001Z</time></trkpt><trkpt lat="30.737215333904338" lon="-8.428189499117378"><ele>672.0</ele><time>2026-04-27T14:46:26.001Z</time></trkpt><trkpt lat="30.737017408367617" lon="-8.428316764783952"><ele>672.0</ele><time>2026-04-27T14:46:27.001Z</time></trkpt><trkpt lat="30.73682253841587" lon="-8.428443549735645"><ele>672.0</ele><time>2026-04-27T14:46:28.001Z</time></trkpt><trkpt lat="30.73664085861359" lon="-8.428556151472982"><ele>672.0</ele><time>2026-04-27T14:46:29.001Z</time></trkpt><trkpt lat="30.736468600607658" lon="-8.428657494850599"><ele>672.0</ele><time>2026-04-27T14:46:30.001Z</time></trkpt><trkpt lat="30.736306411817676" lon="-8.428757495101818"><ele>672.0</ele><time>2026-04-27T14:46:31.001Z</time></trkpt><trkpt lat="30.736140529772882" lon="-8.428864681168804"><ele>671.0</ele><time>2026-04-27T14:46:32.001Z</time></trkpt><trkpt lat="30.73597446524724" lon="-8.428974232919193"><ele>670.0</ele><time>2026-04-27T14:46:33.001Z</time></trkpt><trkpt lat="30.735809109012045" lon="-8.429087141216247"><ele>669.0</ele><time>2026-04-27T14:46:34.001Z</time></trkpt><trkpt lat="30.73564996349852" lon="-8.429211764941472"><ele>669.0</ele><time>2026-04-27T14:46:35.001Z</time></trkpt><trkpt lat="30.73549879396949" lon="-8.42935107718123"><ele>669.0</ele><time>2026-04-27T14:46:36.001Z</time></trkpt><trkpt lat="30.735349915574773" lon="-8.42949969949396"><ele>669.0</ele><time>2026-04-27T14:46:37.001Z</time></trkpt><trkpt lat="30.735201592189338" lon="-8.429654423319953"><ele>668.6666666666666</ele><time>2026-04-27T14:46:38.001Z</time></trkpt><trkpt lat="30.735058188138392" lon="-8.42982053284394"><ele>668.3333333333333</ele><time>2026-04-27T14:46:39.001Z</time></trkpt><trkpt lat="30.73492247191391" lon="-8.429994378799153"><ele>668.0</ele><time>2026-04-27T14:46:40.001Z</time></trkpt><trkpt lat="30.734797962276215" lon="-8.430172240337155"><ele>668.0</ele><time>2026-04-27T14:46:41.001Z</time></trkpt><trkpt lat="30.73470419599726" lon="-8.430356296839863"><ele>668.0</ele><time>2026-04-27T14:46:42.001Z</time></trkpt><trkpt lat="30.734591747043257" lon="-8.430518583191573"><ele>668.0</ele><time>2026-04-27T14:46:43.001Z</time></trkpt><trkpt lat="30.73449799677252" lon="-8.430699065470565"><ele>667.6666666666666</ele><time>2026-04-27T14:46:44.001Z</time></trkpt><trkpt lat="30.73441498236663" lon="-8.43088019793235"><ele>667.3333333333334</ele><time>2026-04-27T14:46:45.001Z</time></trkpt><trkpt lat="30.734335477069493" lon="-8.431068080859017"><ele>667.0</ele><time>2026-04-27T14:46:46.001Z</time></trkpt><trkpt lat="30.734261152760656" lon="-8.431248138785955"><ele>667.0</ele><time>2026-04-27T14:46:47.001Z</time></trkpt><trkpt lat="30.73419344280512" lon="-8.431414933965302"><ele>667.0</ele><time>2026-04-27T14:46:48.001Z</time></trkpt><trkpt lat="30.73412583538753" lon="-8.43157184513115"><ele>667.0</ele><time>2026-04-27T14:46:49.001Z</time></trkpt><trkpt lat="30.73406467913442" lon="-8.431718923960302"><ele>667.0</ele><time>2026-04-27T14:46:50.001Z</time></trkpt><trkpt lat="30.734001373156133" lon="-8.431869698141243"><ele>667.0</ele><time>2026-04-27T14:46:51.001Z</time></trkpt><trkpt lat="30.73392947976105" lon="-8.432023188511188"><ele>667.0</ele><time>2026-04-27T14:46:52.001Z</time></trkpt><trkpt lat="30.733852096425892" lon="-8.432184542761936"><ele>667.0</ele><time>2026-04-27T14:46:53.001Z</time></trkpt><trkpt lat="30.73377224134292" lon="-8.432345707749267"><ele>667.0</ele><time>2026-04-27T14:46:54.001Z</time></trkpt><trkpt lat="30.733683487232472" lon="-8.432501573336872"><ele>667.0</ele><time>2026-04-27T14:46:55.001Z</time></trkpt><trkpt lat="30.7335821405566" lon="-8.432654982561298"><ele>666.6666666666667</ele><time>2026-04-27T14:46:56.001Z</time></trkpt><trkpt lat="30.733476756332983" lon="-8.432806014178276"><ele>666.3333333333334</ele><time>2026-04-27T14:46:57.001Z</time></trkpt><trkpt lat="30.733365381937723" lon="-8.432952648223283"><ele>666.0</ele><time>2026-04-27T14:46:58.001Z</time></trkpt><trkpt lat="30.733251893948744" lon="-8.433087744451102"><ele>666.0</ele><time>2026-04-27T14:46:59.001Z</time></trkpt><trkpt lat="30.73313865763398" lon="-8.433207291920455"><ele>666.0</ele><time>2026-04-27T14:47:00.001Z</time></trkpt><trkpt lat="30.733018977949445" lon="-8.433323689112575"><ele>666.0</ele><time>2026-04-27T14:47:01.001Z</time></trkpt><trkpt lat="30.732894633288783" lon="-8.433439169148048"><ele>666.0</ele><time>2026-04-27T14:47:02.001Z</time></trkpt><trkpt lat="30.732764914236974" lon="-8.433549120661255"><ele>666.0</ele><time>2026-04-27T14:47:03.001Z</time></trkpt><trkpt lat="30.73263005283297" lon="-8.433652110008005"><ele>666.0</ele><time>2026-04-27T14:47:04.001Z</time></trkpt><trkpt lat="30.73248866761926" lon="-8.433748873020425"><ele>665.0</ele><time>2026-04-27T14:47:05.001Z</time></trkpt><trkpt lat="30.732340306299534" lon="-8.4338363465059"><ele>664.0</ele><time>2026-04-27T14:47:06.001Z</time></trkpt><trkpt lat="30.73218071036956" lon="-8.433914339432546"><ele>663.0</ele><time>2026-04-27T14:47:07.001Z</time></trkpt><trkpt lat="30.732013998077225" lon="-8.433982904801374"><ele>662.6666666666666</ele><time>2026-04-27T14:47:08.001Z</time></trkpt><trkpt lat="30.73183780188419" lon="-8.434048837448037"><ele>662.3333333333333</ele><time>2026-04-27T14:47:09.001Z</time></trkpt><trkpt lat="30.73166043022765" lon="-8.434114122046996"><ele>662.0</ele><time>2026-04-27T14:47:10.001Z</time></trkpt><trkpt lat="30.731478894006507" lon="-8.434181204126812"><ele>662.0</ele><time>2026-04-27T14:47:11.001Z</time></trkpt><trkpt lat="30.7312898593928" lon="-8.43425360348793"><ele>662.0</ele><time>2026-04-27T14:47:12.001Z</time></trkpt><trkpt lat="30.73109704902572" lon="-8.434326847537216"><ele>662.0</ele><time>2026-04-27T14:47:13.001Z</time></trkpt><trkpt lat="30.73089208659847" lon="-8.434401917766959"><ele>661.0</ele><time>2026-04-27T14:47:14Z</time></trkpt><trkpt lat="30.730686672055636" lon="-8.43447625056266"><ele>660.0</ele><time>2026-04-27T14:47:15Z</time></trkpt><trkpt lat="30.730478961172597" lon="-8.434549739914077"><ele>659.0</ele><time>2026-04-27T14:47:16Z</time></trkpt><trkpt lat="30.730261575392586" lon="-8.434622588082082"><ele>658.5</ele><time>2026-04-27T14:47:17Z</time></trkpt><trkpt lat="30.730041268942042" lon="-8.434697270216736"><ele>658.0</ele><time>2026-04-27T14:47:18Z</time></trkpt><trkpt lat="30.729821914658924" lon="-8.434771010267578"><ele>658.0</ele><time>2026-04-27T14:47:19Z</time></trkpt><trkpt lat="30.729604290404776" lon="-8.434847376770072"><ele>658.0</ele><time>2026-04-27T14:47:20Z</time></trkpt><trkpt lat="30.729380012255447" lon="-8.434926020901186"><ele>657.0</ele><time>2026-04-27T14:47:21Z</time></trkpt><trkpt lat="30.72915560209505" lon="-8.435007221693771"><ele>656.0</ele><time>2026-04-27T14:47:22Z</time></trkpt><trkpt lat="30.728936619725697" lon="-8.435084118410435"><ele>656.0</ele><time>2026-04-27T14:47:23Z</time></trkpt><trkpt lat="30.728715689647814" lon="-8.435163575609273"><ele>656.0</ele><time>2026-04-27T14:47:24Z</time></trkpt><trkpt lat="30.72850302004923" lon="-8.43524109923662"><ele>656.0</ele><time>2026-04-27T14:47:25Z</time></trkpt><trkpt lat="30.728302201115316" lon="-8.435314061002979"><ele>656.0</ele><time>2026-04-27T14:47:26Z</time></trkpt><trkpt lat="30.7281126310636" lon="-8.435380739904085"><ele>656.0</ele><time>2026-04-27T14:47:27Z</time></trkpt><trkpt lat="30.72793477976276" lon="-8.43544538782487"><ele>656.3333333333333</ele><time>2026-04-27T14:47:28Z</time></trkpt><trkpt lat="30.727764023097556" lon="-8.435509728084533"><ele>656.6666666666666</ele><time>2026-04-27T14:47:29Z</time></trkpt><trkpt lat="30.727598804604767" lon="-8.435574273399842"><ele>657.0</ele><time>2026-04-27T14:47:30Z</time></trkpt><trkpt lat="30.72742932705382" lon="-8.435637188936877"><ele>656.0</ele><time>2026-04-27T14:47:31Z</time></trkpt><trkpt lat="30.72726263925123" lon="-8.435701049972621"><ele>655.0</ele><time>2026-04-27T14:47:32Z</time></trkpt><trkpt lat="30.727107690873417" lon="-8.43575868136079"><ele>654.0</ele><time>2026-04-27T14:47:33Z</time></trkpt><trkpt lat="30.72695759907035" lon="-8.43581436261156"><ele>653.5</ele><time>2026-04-27T14:47:34Z</time></trkpt><trkpt lat="30.72680942574251" lon="-8.435872647145024"><ele>653.0</ele><time>2026-04-27T14:47:35Z</time></trkpt><trkpt lat="30.726665769023604" lon="-8.435925649551026"><ele>652.5</ele><time>2026-04-27T14:47:36Z</time></trkpt><trkpt lat="30.726529513640834" lon="-8.435971435263038"><ele>652.0</ele><time>2026-04-27T14:47:37Z</time></trkpt><trkpt lat="30.72639768543672" lon="-8.436015658729326"><ele>652.0</ele><time>2026-04-27T14:47:38Z</time></trkpt><trkpt lat="30.726264842349018" lon="-8.436064146538579"><ele>652.0</ele><time>2026-04-27T14:47:39Z</time></trkpt><trkpt lat="30.72612696869002" lon="-8.43611374527351"><ele>652.0</ele><time>2026-04-27T14:47:40Z</time></trkpt><trkpt lat="30.725988540726526" lon="-8.436162593989632"><ele>652.0</ele><time>2026-04-27T14:47:41Z</time></trkpt><trkpt lat="30.725850870386534" lon="-8.436212630451617"><ele>651.25</ele><time>2026-04-27T14:47:42Z</time></trkpt><trkpt lat="30.725709802372947" lon="-8.43626282577147"><ele>650.5</ele><time>2026-04-27T14:47:43Z</time></trkpt><trkpt lat="30.725567823328678" lon="-8.436315419413678"><ele>649.75</ele><time>2026-04-27T14:47:44Z</time></trkpt><trkpt lat="30.725428560353983" lon="-8.436367988066907"><ele>649.0</ele><time>2026-04-27T14:47:45Z</time></trkpt><trkpt lat="30.72528254133215" lon="-8.43642114549704"><ele>648.3333333333334</ele><time>2026-04-27T14:47:46Z</time></trkpt><trkpt lat="30.725138046219417" lon="-8.436474355588993"><ele>647.6666666666666</ele><time>2026-04-27T14:47:47Z</time></trkpt><trkpt lat="30.724990694621034" lon="-8.436529086940043"><ele>647.0</ele><time>2026-04-27T14:47:48Z</time></trkpt><trkpt lat="30.724843976768355" lon="-8.436581885981404"><ele>647.0</ele><time>2026-04-27T14:47:49Z</time></trkpt><trkpt lat="30.724695201873388" lon="-8.436634560878153"><ele>647.0</ele><time>2026-04-27T14:47:50Z</time></trkpt><trkpt lat="30.724543688992444" lon="-8.436690749550184"><ele>647.0</ele><time>2026-04-27T14:47:51Z</time></trkpt><trkpt lat="30.72439009487506" lon="-8.436746824076396"><ele>646.3333333333333</ele><time>2026-04-27T14:47:52Z</time></trkpt><trkpt lat="30.724233792969926" lon="-8.436801957738762"><ele>645.6666666666666</ele><time>2026-04-27T14:47:53Z</time></trkpt><trkpt lat="30.72407360876306" lon="-8.436856519856603"><ele>645.0</ele><time>2026-04-27T14:47:54Z</time></trkpt><trkpt lat="30.723912283411615" lon="-8.43691173311064"><ele>645.0</ele><time>2026-04-27T14:47:55Z</time></trkpt><trkpt lat="30.72375496480424" lon="-8.436971222288715"><ele>645.0</ele><time>2026-04-27T14:47:56Z</time></trkpt><trkpt lat="30.72359541576124" lon="-8.437032229853887"><ele>645.0</ele><time>2026-04-27T14:47:57Z</time></trkpt><trkpt lat="30.723433006374044" lon="-8.437091749248276"><ele>644.3333333333334</ele><time>2026-04-27T14:47:58Z</time></trkpt><trkpt lat="30.723270981453396" lon="-8.437152848457695"><ele>643.6666666666667</ele><time>2026-04-27T14:47:59Z</time></trkpt><trkpt lat="30.72310702965105" lon="-8.437212719764833"><ele>643.0</ele><time>2026-04-27T14:48:00Z</time></trkpt><trkpt lat="30.722943736802353" lon="-8.437270047969234"><ele>643.0</ele><time>2026-04-27T14:48:01Z</time></trkpt><trkpt lat="30.722781360979102" lon="-8.437330952639346"><ele>643.0</ele><time>2026-04-27T14:48:02Z</time></trkpt><trkpt lat="30.72262353291166" lon="-8.437392468244848"><ele>643.0</ele><time>2026-04-27T14:48:03Z</time></trkpt><trkpt lat="30.72246472097703" lon="-8.437453837586554"><ele>643.0</ele><time>2026-04-27T14:48:04Z</time></trkpt><trkpt lat="30.72230439462228" lon="-8.437515149628583"><ele>643.0</ele><time>2026-04-27T14:48:05Z</time></trkpt><trkpt lat="30.722145269339574" lon="-8.437571290707265"><ele>643.0</ele><time>2026-04-27T14:48:06Z</time></trkpt><trkpt lat="30.72198720698789" lon="-8.43762613496341"><ele>642.0</ele><time>2026-04-27T14:48:07Z</time></trkpt><trkpt lat="30.721830829700735" lon="-8.437680409107623"><ele>641.0</ele><time>2026-04-27T14:48:08Z</time></trkpt><trkpt lat="30.721674261151865" lon="-8.437736116409791"><ele>640.0</ele><time>2026-04-27T14:48:09Z</time></trkpt><trkpt lat="30.7215238254961" lon="-8.43779168366683"><ele>640.0</ele><time>2026-04-27T14:48:10Z</time></trkpt><trkpt lat="30.721370877277558" lon="-8.437848388056414"><ele>640.0</ele><time>2026-04-27T14:48:11Z</time></trkpt><trkpt lat="30.72121474521876" lon="-8.43790899844815"><ele>640.0</ele><time>2026-04-27T14:48:12Z</time></trkpt><trkpt lat="30.721056537334288" lon="-8.43796697300857"><ele>640.0</ele><time>2026-04-27T14:48:13Z</time></trkpt><trkpt lat="30.720892121245665" lon="-8.438025259237257"><ele>640.0</ele><time>2026-04-27T14:48:14Z</time></trkpt><trkpt lat="30.720727660770226" lon="-8.43808430716096"><ele>640.0</ele><time>2026-04-27T14:48:15Z</time></trkpt><trkpt lat="30.72056364005506" lon="-8.438144439335877"><ele>640.0</ele><time>2026-04-27T14:48:16Z</time></trkpt><trkpt lat="30.720400679823786" lon="-8.438205375140514"><ele>640.0</ele><time>2026-04-27T14:48:17Z</time></trkpt><trkpt lat="30.7202361038502" lon="-8.438262637848851"><ele>640.0</ele><time>2026-04-27T14:48:18Z</time></trkpt><trkpt lat="30.720071465751197" lon="-8.438321070423061"><ele>639.0</ele><time>2026-04-27T14:48:19Z</time></trkpt><trkpt lat="30.719906423448414" lon="-8.438384367041634"><ele>638.0</ele><time>2026-04-27T14:48:20Z</time></trkpt><trkpt lat="30.719739371749906" lon="-8.438448694876252"><ele>637.0</ele><time>2026-04-27T14:48:21Z</time></trkpt><trkpt lat="30.719567721018716" lon="-8.438512753325922"><ele>636.6666666666667</ele><time>2026-04-27T14:48:22Z</time></trkpt><trkpt lat="30.71939894544187" lon="-8.438571036029153"><ele>636.3333333333334</ele><time>2026-04-27T14:48:23Z</time></trkpt><trkpt lat="30.719230417091403" lon="-8.438630204699175"><ele>636.0</ele><time>2026-04-27T14:48:24Z</time></trkpt><trkpt lat="30.719063655845492" lon="-8.438689688727274"><ele>636.0</ele><time>2026-04-27T14:48:25Z</time></trkpt><trkpt lat="30.71890031369709" lon="-8.438747114035719"><ele>636.0</ele><time>2026-04-27T14:48:26Z</time></trkpt><trkpt lat="30.71873799699153" lon="-8.438804315885395"><ele>636.0</ele><time>2026-04-27T14:48:27Z</time></trkpt><trkpt lat="30.718572876910915" lon="-8.438864488125615"><ele>634.6666666666666</ele><time>2026-04-27T14:48:28Z</time></trkpt><trkpt lat="30.718412440349624" lon="-8.438926865554043"><ele>633.3333333333333</ele><time>2026-04-27T14:48:29Z</time></trkpt><trkpt lat="30.718251779292814" lon="-8.438989916924962"><ele>632.0</ele><time>2026-04-27T14:48:30Z</time></trkpt><trkpt lat="30.71809154809385" lon="-8.439048232415267"><ele>632.0</ele><time>2026-04-27T14:48:31Z</time></trkpt><trkpt lat="30.717934766283395" lon="-8.439101892767496"><ele>632.0</ele><time>2026-04-27T14:48:32Z</time></trkpt><trkpt lat="30.71778365233661" lon="-8.439151626328707"><ele>632.0</ele><time>2026-04-27T14:48:33.001Z</time></trkpt><trkpt lat="30.71764200950524" lon="-8.439198975240496"><ele>631.75</ele><time>2026-04-27T14:48:34.001Z</time></trkpt><trkpt lat="30.71750329903619" lon="-8.43924838625577"><ele>631.5</ele><time>2026-04-27T14:48:35.001Z</time></trkpt><trkpt lat="30.7173621504432" lon="-8.439302091941913"><ele>631.25</ele><time>2026-04-27T14:48:36.001Z</time></trkpt><trkpt lat="30.717218830433378" lon="-8.43935571972647"><ele>631.0</ele><time>2026-04-27T14:48:37.001Z</time></trkpt><trkpt lat="30.717075451140076" lon="-8.439408642384574"><ele>631.0</ele><time>2026-04-27T14:48:38.001Z</time></trkpt><trkpt lat="30.71693460013923" lon="-8.439457594630994"><ele>631.0</ele><time>2026-04-27T14:48:39.001Z</time></trkpt><trkpt lat="30.716793257214842" lon="-8.439506985498927"><ele>631.0</ele><time>2026-04-27T14:48:40.001Z</time></trkpt><trkpt lat="30.716645920043057" lon="-8.439561153808713"><ele>631.0</ele><time>2026-04-27T14:48:41.001Z</time></trkpt><trkpt lat="30.71649840722363" lon="-8.43961400461266"><ele>630.6666666666667</ele><time>2026-04-27T14:48:42.001Z</time></trkpt><trkpt lat="30.71634937417677" lon="-8.439668141919991"><ele>630.3333333333334</ele><time>2026-04-27T14:48:43.001Z</time></trkpt><trkpt lat="30.716198315858527" lon="-8.439723876948234"><ele>630.0</ele><time>2026-04-27T14:48:44.001Z</time></trkpt><trkpt lat="30.716045871965925" lon="-8.43978006362705"><ele>630.0</ele><time>2026-04-27T14:48:45.001Z</time></trkpt><trkpt lat="30.715896099092365" lon="-8.4398338358173"><ele>630.0</ele><time>2026-04-27T14:48:46.001Z</time></trkpt><trkpt lat="30.715744670738264" lon="-8.439886234460307"><ele>630.0</ele><time>2026-04-27T14:48:47.001Z</time></trkpt><trkpt lat="30.715597470940462" lon="-8.439936129377879"><ele>630.0</ele><time>2026-04-27T14:48:48.001Z</time></trkpt><trkpt lat="30.71545464286151" lon="-8.439988716334584"><ele>630.0</ele><time>2026-04-27T14:48:49.001Z</time></trkpt><trkpt lat="30.715307072887853" lon="-8.440044033786146"><ele>630.0</ele><time>2026-04-27T14:48:50.001Z</time></trkpt><trkpt lat="30.71515746934512" lon="-8.44009827508289"><ele>628.6666666666666</ele><time>2026-04-27T14:48:51.001Z</time></trkpt><trkpt lat="30.715004964291403" lon="-8.440152078620978"><ele>627.3333333333333</ele><time>2026-04-27T14:48:52.001Z</time></trkpt><trkpt lat="30.714848563882864" lon="-8.440209885259078"><ele>626.0</ele><time>2026-04-27T14:48:53.001Z</time></trkpt><trkpt lat="30.71468645387251" lon="-8.440271740405842"><ele>626.0</ele><time>2026-04-27T14:48:54.001Z</time></trkpt><trkpt lat="30.714520706754403" lon="-8.440331658241945"><ele>626.0</ele><time>2026-04-27T14:48:55.001Z</time></trkpt><trkpt lat="30.714357346390337" lon="-8.44038922538175"><ele>626.0</ele><time>2026-04-27T14:48:56.001Z</time></trkpt><trkpt lat="30.71419200783358" lon="-8.44044628431946"><ele>625.3333333333333</ele><time>2026-04-27T14:48:57.001Z</time></trkpt><trkpt lat="30.71402752100413" lon="-8.440503365699623"><ele>624.6666666666666</ele><time>2026-04-27T14:48:58.001Z</time></trkpt><trkpt lat="30.71386212548636" lon="-8.440564598273204"><ele>624.0</ele><time>2026-04-27T14:48:59.001Z</time></trkpt><trkpt lat="30.713691418140392" lon="-8.440627727003493"><ele>622.6666666666666</ele><time>2026-04-27T14:49:00.001Z</time></trkpt><trkpt lat="30.713506213436492" lon="-8.440696384476242"><ele>621.3333333333333</ele><time>2026-04-27T14:49:01.001Z</time></trkpt><trkpt lat="30.713310980739152" lon="-8.440766874682383"><ele>620.0</ele><time>2026-04-27T14:49:02.001Z</time></trkpt><trkpt lat="30.71310624094315" lon="-8.440842312224989"><ele>620.0</ele><time>2026-04-27T14:49:03.001Z</time></trkpt><trkpt lat="30.712889786229645" lon="-8.440918798729214"><ele>620.0</ele><time>2026-04-27T14:49:04.001Z</time></trkpt><trkpt lat="30.712658967561836" lon="-8.441002332976742"><ele>619.5</ele><time>2026-04-27T14:49:05.001Z</time></trkpt><trkpt lat="30.71242661064111" lon="-8.441085159188168"><ele>619.0</ele><time>2026-04-27T14:49:06.001Z</time></trkpt><trkpt lat="30.712190040044543" lon="-8.441170131236522"><ele>619.0</ele><time>2026-04-27T14:49:07.001Z</time></trkpt><trkpt lat="30.71195575013784" lon="-8.441253487002104"><ele>619.0</ele><time>2026-04-27T14:49:08.001Z</time></trkpt><trkpt lat="30.711720913620773" lon="-8.44134057255704"><ele>619.0</ele><time>2026-04-27T14:49:09.001Z</time></trkpt><trkpt lat="30.71148034497012" lon="-8.441428104949201"><ele>619.0</ele><time>2026-04-27T14:49:10.001Z</time></trkpt><trkpt lat="30.711237497500434" lon="-8.441517410952766"><ele>618.5</ele><time>2026-04-27T14:49:11.001Z</time></trkpt><trkpt lat="30.710997182180026" lon="-8.44160476625983"><ele>618.0</ele><time>2026-04-27T14:49:12.001Z</time></trkpt><trkpt lat="30.71076207578967" lon="-8.44169453064779"><ele>618.0</ele><time>2026-04-27T14:49:13.001Z</time></trkpt><trkpt lat="30.710528585965292" lon="-8.441779222238189"><ele>618.0</ele><time>2026-04-27T14:49:14.001Z</time></trkpt><trkpt lat="30.71029092018988" lon="-8.441861832223376"><ele>617.0</ele><time>2026-04-27T14:49:15.001Z</time></trkpt><trkpt lat="30.710050816114244" lon="-8.441944713803569"><ele>616.0</ele><time>2026-04-27T14:49:16.001Z</time></trkpt><trkpt lat="30.709798054301498" lon="-8.442032966416605"><ele>616.0</ele><time>2026-04-27T14:49:17.001Z</time></trkpt><trkpt lat="30.70954143580993" lon="-8.442127371144105"><ele>616.0</ele><time>2026-04-27T14:49:18.001Z</time></trkpt><trkpt lat="30.709276225382812" lon="-8.442223793300924"><ele>613.5</ele><time>2026-04-27T14:49:19.001Z</time></trkpt><trkpt lat="30.709003003754773" lon="-8.442323345116582"><ele>611.0</ele><time>2026-04-27T14:49:20Z</time></trkpt><trkpt lat="30.708705791772203" lon="-8.442429121991221"><ele>611.0</ele><time>2026-04-27T14:49:21Z</time></trkpt><trkpt lat="30.708398105488214" lon="-8.44254049988837"><ele>611.0</ele><time>2026-04-27T14:49:22Z</time></trkpt><trkpt lat="30.708079728023673" lon="-8.442654969371699"><ele>611.0</ele><time>2026-04-27T14:49:23Z</time></trkpt><trkpt lat="30.707746688564082" lon="-8.442771950686481"><ele>611.0</ele><time>2026-04-27T14:49:24Z</time></trkpt><trkpt lat="30.707423397606668" lon="-8.442888917576258"><ele>611.0</ele><time>2026-04-27T14:49:25Z</time></trkpt><trkpt lat="30.707129961850352" lon="-8.442995679547032"><ele>611.0</ele><time>2026-04-27T14:49:26Z</time></trkpt><trkpt lat="30.706856686547678" lon="-8.4430964966848"><ele>609.0</ele><time>2026-04-27T14:49:27Z</time></trkpt><trkpt lat="30.70658890341865" lon="-8.443192275007522"><ele>607.0</ele><time>2026-04-27T14:49:28Z</time></trkpt><trkpt lat="30.706324899518933" lon="-8.443286485185748"><ele>606.5</ele><time>2026-04-27T14:49:29Z</time></trkpt><trkpt lat="30.70606639646872" lon="-8.443380582990029"><ele>606.0</ele><time>2026-04-27T14:49:30Z</time></trkpt><trkpt lat="30.705814245282472" lon="-8.443471020303727"><ele>606.0</ele><time>2026-04-27T14:49:31Z</time></trkpt><trkpt lat="30.705575868493113" lon="-8.443556835620955"><ele>606.0</ele><time>2026-04-27T14:49:32Z</time></trkpt><trkpt lat="30.705353383766653" lon="-8.443636783023056"><ele>605.6666666666666</ele><time>2026-04-27T14:49:33Z</time></trkpt><trkpt lat="30.705141618031192" lon="-8.443719298036301"><ele>605.3333333333333</ele><time>2026-04-27T14:49:34Z</time></trkpt><trkpt lat="30.704939590516506" lon="-8.443792447106711"><ele>605.0</ele><time>2026-04-27T14:49:35Z</time></trkpt><trkpt lat="30.70474073281726" lon="-8.443857464955547"><ele>604.3333333333333</ele><time>2026-04-27T14:49:36Z</time></trkpt><trkpt lat="30.704547756034007" lon="-8.44391480331692"><ele>603.6666666666666</ele><time>2026-04-27T14:49:37Z</time></trkpt><trkpt lat="30.704351460739677" lon="-8.443965436480159"><ele>603.0</ele><time>2026-04-27T14:49:38Z</time></trkpt><trkpt lat="30.704160089421713" lon="-8.444035338171831"><ele>603.0</ele><time>2026-04-27T14:49:39Z</time></trkpt><trkpt lat="30.703964820681495" lon="-8.444100343666252"><ele>603.0</ele><time>2026-04-27T14:49:40Z</time></trkpt><trkpt lat="30.7037377140815" lon="-8.444029969928225"><ele>603.0</ele><time>2026-04-27T14:49:41Z</time></trkpt><trkpt lat="30.70353932604669" lon="-8.444019821765368"><ele>602.6666666666666</ele><time>2026-04-27T14:49:42Z</time></trkpt><trkpt lat="30.70335124077858" lon="-8.443996252958293"><ele>602.3333333333333</ele><time>2026-04-27T14:49:43Z</time></trkpt><trkpt lat="30.703179289247974" lon="-8.44396710221057"><ele>602.0</ele><time>2026-04-27T14:49:44Z</time></trkpt><trkpt lat="30.703022429756594" lon="-8.443938320240674"><ele>602.0</ele><time>2026-04-27T14:49:45Z</time></trkpt><trkpt lat="30.702882588365146" lon="-8.44391368678582"><ele>602.0</ele><time>2026-04-27T14:49:46Z</time></trkpt><trkpt lat="30.70274562684399" lon="-8.443914485923514"><ele>602.0</ele><time>2026-04-27T14:49:47Z</time></trkpt><trkpt lat="30.702626386557522" lon="-8.443946721034095"><ele>602.0</ele><time>2026-04-27T14:49:48Z</time></trkpt><trkpt lat="30.702525288124846" lon="-8.443993453910657"><ele>601.25</ele><time>2026-04-27T14:49:49Z</time></trkpt><trkpt lat="30.70244633884703" lon="-8.444084878001508"><ele>600.5</ele><time>2026-04-27T14:49:50Z</time></trkpt><trkpt lat="30.702366313616192" lon="-8.444213836646014"><ele>599.75</ele><time>2026-04-27T14:49:51Z</time></trkpt><trkpt lat="30.702290126514317" lon="-8.44433736868648"><ele>599.0</ele><time>2026-04-27T14:49:52Z</time></trkpt><trkpt lat="30.70221473972851" lon="-8.444440306448229"><ele>599.0</ele><time>2026-04-27T14:49:53Z</time></trkpt><trkpt lat="30.70213768675673" lon="-8.444534470133123"><ele>599.0</ele><time>2026-04-27T14:49:54Z</time></trkpt><trkpt lat="30.702066163657058" lon="-8.444615121962915"><ele>599.0</ele><time>2026-04-27T14:49:55Z</time></trkpt><trkpt lat="30.701988224080722" lon="-8.444688065377177"><ele>599.0</ele><time>2026-04-27T14:49:56Z</time></trkpt><trkpt lat="30.701888687871993" lon="-8.44477096468041"><ele>599.0</ele><time>2026-04-27T14:49:57Z</time></trkpt><trkpt lat="30.70177083355044" lon="-8.444855159539951"><ele>598.5</ele><time>2026-04-27T14:49:58Z</time></trkpt><trkpt lat="30.701646513742855" lon="-8.444929328526928"><ele>598.0</ele><time>2026-04-27T14:49:59Z</time></trkpt><trkpt lat="30.70151766781574" lon="-8.444992957234845"><ele>597.5</ele><time>2026-04-27T14:50:00Z</time></trkpt><trkpt lat="30.701387549787768" lon="-8.445043518677625"><ele>597.0</ele><time>2026-04-27T14:50:01Z</time></trkpt><trkpt lat="30.701239801475378" lon="-8.44509594068516"><ele>596.3333333333334</ele><time>2026-04-27T14:50:02Z</time></trkpt><trkpt lat="30.701071140031583" lon="-8.44516266692975"><ele>595.6666666666667</ele><time>2026-04-27T14:50:03Z</time></trkpt><trkpt lat="30.70089910873777" lon="-8.44523332287341"><ele>595.0</ele><time>2026-04-27T14:50:04Z</time></trkpt><trkpt lat="30.700730574290358" lon="-8.445300828128014"><ele>595.0</ele><time>2026-04-27T14:50:05Z</time></trkpt><trkpt lat="30.700563150156032" lon="-8.44536128141974"><ele>595.0</ele><time>2026-04-27T14:50:06Z</time></trkpt><trkpt lat="30.700391557193786" lon="-8.445422194980637"><ele>595.0</ele><time>2026-04-27T14:50:07Z</time></trkpt><trkpt lat="30.70022743981168" lon="-8.445482436999194"><ele>595.0</ele><time>2026-04-27T14:50:08Z</time></trkpt><trkpt lat="30.70005975466039" lon="-8.445543928163163"><ele>595.0</ele><time>2026-04-27T14:50:09Z</time></trkpt><trkpt lat="30.699882045549288" lon="-8.445609035236561"><ele>595.0</ele><time>2026-04-27T14:50:10Z</time></trkpt><trkpt lat="30.699694422481286" lon="-8.445677273972604"><ele>595.0</ele><time>2026-04-27T14:50:11Z</time></trkpt><trkpt lat="30.69949894514852" lon="-8.445749347299069"><ele>595.0</ele><time>2026-04-27T14:50:12Z</time></trkpt><trkpt lat="30.699298101886967" lon="-8.445823162066027"><ele>595.0</ele><time>2026-04-27T14:50:13Z</time></trkpt><trkpt lat="30.699094392267018" lon="-8.445895297307592"><ele>594.0</ele><time>2026-04-27T14:50:14Z</time></trkpt><trkpt lat="30.698888915280527" lon="-8.445967152773973"><ele>593.0</ele><time>2026-04-27T14:50:15Z</time></trkpt><trkpt lat="30.698684073107973" lon="-8.446039810213756"><ele>592.0</ele><time>2026-04-27T14:50:16Z</time></trkpt><trkpt lat="30.69847806583577" lon="-8.446112415751436"><ele>591.3333333333334</ele><time>2026-04-27T14:50:17Z</time></trkpt><trkpt lat="30.69827197607631" lon="-8.446184688195078"><ele>590.6666666666666</ele><time>2026-04-27T14:50:18Z</time></trkpt><trkpt lat="30.6980658163386" lon="-8.44625963811269"><ele>590.0</ele><time>2026-04-27T14:50:19Z</time></trkpt><trkpt lat="30.697859629991754" lon="-8.44633425720962"><ele>590.0</ele><time>2026-04-27T14:50:20Z</time></trkpt><trkpt lat="30.69765260421397" lon="-8.446407683000867"><ele>590.0</ele><time>2026-04-27T14:50:21Z</time></trkpt><trkpt lat="30.697446489852254" lon="-8.446479353619253"><ele>590.0</ele><time>2026-04-27T14:50:22Z</time></trkpt><trkpt lat="30.69724155074526" lon="-8.446553141364998"><ele>590.0</ele><time>2026-04-27T14:50:23Z</time></trkpt><trkpt lat="30.697034174768817" lon="-8.446632160734458"><ele>590.0</ele><time>2026-04-27T14:50:24Z</time></trkpt><trkpt lat="30.696823291557205" lon="-8.446710483257906"><ele>590.0</ele><time>2026-04-27T14:50:25Z</time></trkpt><trkpt lat="30.69661153301324" lon="-8.446786996988735"><ele>589.0</ele><time>2026-04-27T14:50:26Z</time></trkpt><trkpt lat="30.69639816425895" lon="-8.446865445065242"><ele>588.0</ele><time>2026-04-27T14:50:27Z</time></trkpt><trkpt lat="30.696182913418802" lon="-8.446944636520515"><ele>586.5</ele><time>2026-04-27T14:50:28Z</time></trkpt><trkpt lat="30.695966173489325" lon="-8.44702283857533"><ele>585.0</ele><time>2026-04-27T14:50:29Z</time></trkpt><trkpt lat="30.695747161885038" lon="-8.447102814491144"><ele>585.5</ele><time>2026-04-27T14:50:30Z</time></trkpt><trkpt lat="30.695530350076297" lon="-8.447181473885042"><ele>586.0</ele><time>2026-04-27T14:50:31Z</time></trkpt><trkpt lat="30.695315893035364" lon="-8.447257443662696"><ele>586.0</ele><time>2026-04-27T14:50:32Z</time></trkpt><trkpt lat="30.695102129766536" lon="-8.44733136883208"><ele>586.0</ele><time>2026-04-27T14:50:33Z</time></trkpt><trkpt lat="30.694888948674645" lon="-8.447405960034082"><ele>586.0</ele><time>2026-04-27T14:50:34Z</time></trkpt><trkpt lat="30.694675196074375" lon="-8.44748327851009"><ele>586.0</ele><time>2026-04-27T14:50:35Z</time></trkpt><trkpt lat="30.694460436149775" lon="-8.447561793270976"><ele>586.0</ele><time>2026-04-27T14:50:36Z</time></trkpt><trkpt lat="30.694243974686042" lon="-8.447641459208471"><ele>585.5</ele><time>2026-04-27T14:50:37Z</time></trkpt><trkpt lat="30.694026571700675" lon="-8.447721480288841"><ele>585.0</ele><time>2026-04-27T14:50:38Z</time></trkpt><trkpt lat="30.69380735314686" lon="-8.447801917623554"><ele>584.0</ele><time>2026-04-27T14:50:39Z</time></trkpt><trkpt lat="30.69358747552665" lon="-8.447883141640279"><ele>583.0</ele><time>2026-04-27T14:50:40Z</time></trkpt><trkpt lat="30.693366882478337" lon="-8.447962253065041"><ele>582.5</ele><time>2026-04-27T14:50:41Z</time></trkpt><trkpt lat="30.693146314068695" lon="-8.448039842726383"><ele>582.0</ele><time>2026-04-27T14:50:42Z</time></trkpt><trkpt lat="30.69292563149685" lon="-8.448120785849115"><ele>580.0</ele><time>2026-04-27T14:50:43Z</time></trkpt><trkpt lat="30.692707363532225" lon="-8.44820175555057"><ele>578.0</ele><time>2026-04-27T14:50:44Z</time></trkpt><trkpt lat="30.692487572292254" lon="-8.448281025121387"><ele>578.0</ele><time>2026-04-27T14:50:45Z</time></trkpt><trkpt lat="30.692268476257496" lon="-8.44835978625972"><ele>578.0</ele><time>2026-04-27T14:50:46Z</time></trkpt><trkpt lat="30.692050947831852" lon="-8.448437970196741"><ele>578.0</ele><time>2026-04-27T14:50:47Z</time></trkpt><trkpt lat="30.691832561764745" lon="-8.448518176135074"><ele>578.0</ele><time>2026-04-27T14:50:48Z</time></trkpt><trkpt lat="30.69161752502462" lon="-8.448596699489462"><ele>578.0</ele><time>2026-04-27T14:50:49Z</time></trkpt><trkpt lat="30.691401964040274" lon="-8.448674852159307"><ele>578.0</ele><time>2026-04-27T14:50:50Z</time></trkpt><trkpt lat="30.691186155320697" lon="-8.448749519568864"><ele>577.0</ele><time>2026-04-27T14:50:51Z</time></trkpt><trkpt lat="30.690971212924442" lon="-8.448825270079762"><ele>576.0</ele><time>2026-04-27T14:50:52Z</time></trkpt><trkpt lat="30.690756715929545" lon="-8.448904548020709"><ele>576.0</ele><time>2026-04-27T14:50:53Z</time></trkpt><trkpt lat="30.690541021131786" lon="-8.448981557119765"><ele>576.0</ele><time>2026-04-27T14:50:54Z</time></trkpt><trkpt lat="30.69032546779476" lon="-8.449060116492072"><ele>574.5</ele><time>2026-04-27T14:50:55Z</time></trkpt><trkpt lat="30.690109750846492" lon="-8.449139082523585"><ele>573.0</ele><time>2026-04-27T14:50:56Z</time></trkpt><trkpt lat="30.68989439808494" lon="-8.449220516416373"><ele>573.0</ele><time>2026-04-27T14:50:57Z</time></trkpt><trkpt lat="30.689677739085067" lon="-8.44929948106256"><ele>573.0</ele><time>2026-04-27T14:50:58Z</time></trkpt><trkpt lat="30.689458923342766" lon="-8.449377239401398"><ele>574.0</ele><time>2026-04-27T14:50:59Z</time></trkpt><trkpt lat="30.68923830114928" lon="-8.44945549038416"><ele>575.0</ele><time>2026-04-27T14:51:00Z</time></trkpt><trkpt lat="30.68901858509705" lon="-8.44953491265801"><ele>575.0</ele><time>2026-04-27T14:51:01.001Z</time></trkpt><trkpt lat="30.68879800347763" lon="-8.449611444696021"><ele>575.0</ele><time>2026-04-27T14:51:02.001Z</time></trkpt><trkpt lat="30.68857553683942" lon="-8.449686043314411"><ele>574.0</ele><time>2026-04-27T14:51:03.001Z</time></trkpt><trkpt lat="30.688352590470693" lon="-8.449764583255206"><ele>573.0</ele><time>2026-04-27T14:51:04.001Z</time></trkpt><trkpt lat="30.68812720815079" lon="-8.449847604592762"><ele>573.0</ele><time>2026-04-27T14:51:05.001Z</time></trkpt><trkpt lat="30.687900477257443" lon="-8.449930319885745"><ele>573.0</ele><time>2026-04-27T14:51:06.001Z</time></trkpt><trkpt lat="30.687673049676423" lon="-8.450012036049722"><ele>572.5</ele><time>2026-04-27T14:51:07.001Z</time></trkpt><trkpt lat="30.68744359513291" lon="-8.450093233639441"><ele>572.0</ele><time>2026-04-27T14:51:08.001Z</time></trkpt><trkpt lat="30.687212967528595" lon="-8.450177632641568"><ele>572.0</ele><time>2026-04-27T14:51:09.001Z</time></trkpt><trkpt lat="30.68698127151755" lon="-8.450262635580904"><ele>572.0</ele><time>2026-04-27T14:51:10.001Z</time></trkpt><trkpt lat="30.686746388892693" lon="-8.45034936457654"><ele>571.0</ele><time>2026-04-27T14:51:11.001Z</time></trkpt><trkpt lat="30.68651274219226" lon="-8.450435066577585"><ele>570.0</ele><time>2026-04-27T14:51:12.001Z</time></trkpt><trkpt lat="30.68628140976629" lon="-8.450519202004713"><ele>569.0</ele><time>2026-04-27T14:51:13.001Z</time></trkpt><trkpt lat="30.686052096468842" lon="-8.450600842140068"><ele>568.0</ele><time>2026-04-27T14:51:14.001Z</time></trkpt><trkpt lat="30.685822285700052" lon="-8.45068172204391"><ele>568.0</ele><time>2026-04-27T14:51:15.001Z</time></trkpt><trkpt lat="30.685593368935084" lon="-8.450762460239318"><ele>568.0</ele><time>2026-04-27T14:51:16.001Z</time></trkpt><trkpt lat="30.685365204671484" lon="-8.450843998530233"><ele>568.0</ele><time>2026-04-27T14:51:17.001Z</time></trkpt><trkpt lat="30.68513641330615" lon="-8.450923418446619"><ele>568.0</ele><time>2026-04-27T14:51:18.001Z</time></trkpt><trkpt lat="30.684910285701967" lon="-8.450999905345654"><ele>568.0</ele><time>2026-04-27T14:51:19.001Z</time></trkpt><trkpt lat="30.684684890878014" lon="-8.451077148783341"><ele>568.0</ele><time>2026-04-27T14:51:20.001Z</time></trkpt><trkpt lat="30.68446068963479" lon="-8.451155102920001"><ele>566.5</ele><time>2026-04-27T14:51:21.001Z</time></trkpt><trkpt lat="30.684235376309136" lon="-8.451233631271958"><ele>565.0</ele><time>2026-04-27T14:51:22.001Z</time></trkpt><trkpt lat="30.68400941692104" lon="-8.451312883090482"><ele>565.0</ele><time>2026-04-27T14:51:23.001Z</time></trkpt><trkpt lat="30.683778258628315" lon="-8.451393775562533"><ele>565.0</ele><time>2026-04-27T14:51:24.001Z</time></trkpt><trkpt lat="30.683539341362685" lon="-8.451483339065447"><ele>564.5</ele><time>2026-04-27T14:51:25.001Z</time></trkpt><trkpt lat="30.683295232637807" lon="-8.45157802094064"><ele>564.0</ele><time>2026-04-27T14:51:26Z</time></trkpt><trkpt lat="30.683048683464285" lon="-8.45166871041858"><ele>564.0</ele><time>2026-04-27T14:51:27Z</time></trkpt><trkpt lat="30.682794668188063" lon="-8.451760169830592"><ele>564.0</ele><time>2026-04-27T14:51:28Z</time></trkpt><trkpt lat="30.682540503484628" lon="-8.451853965742126"><ele>563.5</ele><time>2026-04-27T14:51:29Z</time></trkpt><trkpt lat="30.682288273769" lon="-8.451948038298434"><ele>563.0</ele><time>2026-04-27T14:51:30Z</time></trkpt><trkpt lat="30.682040218736102" lon="-8.452043831295974"><ele>562.5</ele><time>2026-04-27T14:51:31Z</time></trkpt><trkpt lat="30.68179434362569" lon="-8.45214425070518"><ele>562.0</ele><time>2026-04-27T14:51:32Z</time></trkpt><trkpt lat="30.68154984935793" lon="-8.452247858347743"><ele>562.0</ele><time>2026-04-27T14:51:33Z</time></trkpt><trkpt lat="30.681309194254467" lon="-8.45235591821011"><ele>562.0</ele><time>2026-04-27T14:51:34Z</time></trkpt><trkpt lat="30.681071392535795" lon="-8.45247377095049"><ele>561.5</ele><time>2026-04-27T14:51:35Z</time></trkpt><trkpt lat="30.680835763594718" lon="-8.45259497545706"><ele>561.0</ele><time>2026-04-27T14:51:36Z</time></trkpt><trkpt lat="30.680608287081917" lon="-8.45271941069159"><ele>561.0</ele><time>2026-04-27T14:51:37Z</time></trkpt><trkpt lat="30.68039620428668" lon="-8.45283952553973"><ele>561.0</ele><time>2026-04-27T14:51:38Z</time></trkpt><trkpt lat="30.680202112046047" lon="-8.452953685095153"><ele>560.6666666666666</ele><time>2026-04-27T14:51:39Z</time></trkpt><trkpt lat="30.680010920333658" lon="-8.45306715593844"><ele>560.3333333333333</ele><time>2026-04-27T14:51:40Z</time></trkpt><trkpt lat="30.6798158076775" lon="-8.453180385057456"><ele>560.0</ele><time>2026-04-27T14:51:41Z</time></trkpt><trkpt lat="30.679622445476486" lon="-8.453290924075736"><ele>559.3333333333333</ele><time>2026-04-27T14:51:42Z</time></trkpt><trkpt lat="30.67942697090835" lon="-8.453405739627163"><ele>558.6666666666666</ele><time>2026-04-27T14:51:43Z</time></trkpt><trkpt lat="30.67923331719076" lon="-8.453522944188766"><ele>558.0</ele><time>2026-04-27T14:51:44Z</time></trkpt><trkpt lat="30.679045345139425" lon="-8.453638787014627"><ele>558.0</ele><time>2026-04-27T14:51:45Z</time></trkpt><trkpt lat="30.678860728242345" lon="-8.45375914151427"><ele>558.0</ele><time>2026-04-27T14:51:46Z</time></trkpt><trkpt lat="30.678677907513535" lon="-8.453885046514666"><ele>558.0</ele><time>2026-04-27T14:51:47Z</time></trkpt><trkpt lat="30.6784887817629" lon="-8.454014377996856"><ele>557.3333333333334</ele><time>2026-04-27T14:51:48Z</time></trkpt><trkpt lat="30.678291603301865" lon="-8.454139528492568"><ele>556.6666666666667</ele><time>2026-04-27T14:51:49Z</time></trkpt><trkpt lat="30.67809485250586" lon="-8.454261714176912"><ele>556.0</ele><time>2026-04-27T14:51:50Z</time></trkpt><trkpt lat="30.677902242263606" lon="-8.454383173482661"><ele>556.5</ele><time>2026-04-27T14:51:51Z</time></trkpt><trkpt lat="30.677704847877227" lon="-8.45450625070268"><ele>557.0</ele><time>2026-04-27T14:51:52Z</time></trkpt><trkpt lat="30.67750259593372" lon="-8.454629180918058"><ele>557.0</ele><time>2026-04-27T14:51:53Z</time></trkpt><trkpt lat="30.67729578560183" lon="-8.45475409833012"><ele>557.0</ele><time>2026-04-27T14:51:54Z</time></trkpt><trkpt lat="30.677089713033794" lon="-8.454878779009366"><ele>556.3333333333333</ele><time>2026-04-27T14:51:55Z</time></trkpt><trkpt lat="30.676885582149644" lon="-8.454997256777213"><ele>555.6666666666666</ele><time>2026-04-27T14:51:56Z</time></trkpt><trkpt lat="30.676695166649218" lon="-8.455107545641665"><ele>555.0</ele><time>2026-04-27T14:51:57Z</time></trkpt><trkpt lat="30.676508061927215" lon="-8.455212926069285"><ele>555.0</ele><time>2026-04-27T14:51:58Z</time></trkpt><trkpt lat="30.676305681698274" lon="-8.455317606531931"><ele>555.0</ele><time>2026-04-27T14:51:59Z</time></trkpt><trkpt lat="30.676084434630123" lon="-8.455423924758604"><ele>554.0</ele><time>2026-04-27T14:52:00Z</time></trkpt><trkpt lat="30.67584697864641" lon="-8.455535561053008"><ele>553.0</ele><time>2026-04-27T14:52:01Z</time></trkpt><trkpt lat="30.675604402659843" lon="-8.455652604303483"><ele>553.0</ele><time>2026-04-27T14:52:02Z</time></trkpt><trkpt lat="30.67535447850796" lon="-8.45577572926299"><ele>553.0</ele><time>2026-04-27T14:52:03Z</time></trkpt><trkpt lat="30.675083329942222" lon="-8.455897412894576"><ele>553.0</ele><time>2026-04-27T14:52:04Z</time></trkpt><trkpt lat="30.674796634352283" lon="-8.456011945495735"><ele>553.0</ele><time>2026-04-27T14:52:05Z</time></trkpt><trkpt lat="30.67451734159063" lon="-8.456114628508908"><ele>552.0</ele><time>2026-04-27T14:52:06Z</time></trkpt><trkpt lat="30.674245850283057" lon="-8.456213303243617"><ele>551.0</ele><time>2026-04-27T14:52:07Z</time></trkpt><trkpt lat="30.67397741999258" lon="-8.456305158518985"><ele>551.0</ele><time>2026-04-27T14:52:08Z</time></trkpt><trkpt lat="30.673711335427903" lon="-8.456396943820858"><ele>551.0</ele><time>2026-04-27T14:52:09Z</time></trkpt><trkpt lat="30.67344579982615" lon="-8.456488535810937"><ele>551.0</ele><time>2026-04-27T14:52:10Z</time></trkpt><trkpt lat="30.673183885503214" lon="-8.456578886918965"><ele>551.0</ele><time>2026-04-27T14:52:11Z</time></trkpt><trkpt lat="30.672923530855073" lon="-8.456669157085804"><ele>549.5</ele><time>2026-04-27T14:52:12Z</time></trkpt><trkpt lat="30.672664149852185" lon="-8.456762465578253"><ele>548.0</ele><time>2026-04-27T14:52:13Z</time></trkpt><trkpt lat="30.672407572016564" lon="-8.45685832553246"><ele>548.0</ele><time>2026-04-27T14:52:14Z</time></trkpt><trkpt lat="30.67215328798" lon="-8.456954623821602"><ele>548.0</ele><time>2026-04-27T14:52:15Z</time></trkpt><trkpt lat="30.671896661810667" lon="-8.457048947306646"><ele>548.0</ele><time>2026-04-27T14:52:16Z</time></trkpt><trkpt lat="30.67163969314707" lon="-8.457138661014904"><ele>548.0</ele><time>2026-04-27T14:52:17Z</time></trkpt><trkpt lat="30.67138182895865" lon="-8.457227295405142"><ele>548.0</ele><time>2026-04-27T14:52:18Z</time></trkpt><trkpt lat="30.671123303487892" lon="-8.457317080988783"><ele>548.0</ele><time>2026-04-27T14:52:19Z</time></trkpt><trkpt lat="30.670864118386397" lon="-8.457407096886339"><ele>547.5</ele><time>2026-04-27T14:52:20Z</time></trkpt><trkpt lat="30.670605185858257" lon="-8.45749867028577"><ele>547.0</ele><time>2026-04-27T14:52:21Z</time></trkpt><trkpt lat="30.670347442293142" lon="-8.457593162869477"><ele>545.5</ele><time>2026-04-27T14:52:22Z</time></trkpt><trkpt lat="30.670090773271873" lon="-8.457686831446154"><ele>544.0</ele><time>2026-04-27T14:52:23Z</time></trkpt><trkpt lat="30.66983114677715" lon="-8.457776274270492"><ele>544.0</ele><time>2026-04-27T14:52:24Z</time></trkpt><trkpt lat="30.669571619033" lon="-8.457868845355636"><ele>544.0</ele><time>2026-04-27T14:52:25Z</time></trkpt><trkpt lat="30.66931491295039" lon="-8.45796468431287"><ele>544.5</ele><time>2026-04-27T14:52:26Z</time></trkpt><trkpt lat="30.669058846669373" lon="-8.458059203114214"><ele>545.0</ele><time>2026-04-27T14:52:27Z</time></trkpt><trkpt lat="30.668805371454482" lon="-8.458151136057758"><ele>543.5</ele><time>2026-04-27T14:52:28Z</time></trkpt><trkpt lat="30.668554850026553" lon="-8.458240604135952"><ele>542.0</ele><time>2026-04-27T14:52:29Z</time></trkpt><trkpt lat="30.668305713119693" lon="-8.458329842064737"><ele>542.0</ele><time>2026-04-27T14:52:30Z</time></trkpt><trkpt lat="30.668061204711687" lon="-8.458417805919929"><ele>542.0</ele><time>2026-04-27T14:52:31Z</time></trkpt><trkpt lat="30.66781802735165" lon="-8.45850634417328"><ele>541.5</ele><time>2026-04-27T14:52:32Z</time></trkpt><trkpt lat="30.667576133920495" lon="-8.458592694231204"><ele>541.0</ele><time>2026-04-27T14:52:33Z</time></trkpt><trkpt lat="30.66734111860232" lon="-8.458675516479683"><ele>541.0</ele><time>2026-04-27T14:52:34Z</time></trkpt><trkpt lat="30.667110555104546" lon="-8.458757805721332"><ele>541.0</ele><time>2026-04-27T14:52:35Z</time></trkpt><trkpt lat="30.66688017942737" lon="-8.458840400538877"><ele>539.0</ele><time>2026-04-27T14:52:36Z</time></trkpt><trkpt lat="30.66665212524387" lon="-8.458921732176934"><ele>537.0</ele><time>2026-04-27T14:52:37Z</time></trkpt><trkpt lat="30.666424456330702" lon="-8.459002014834883"><ele>537.0</ele><time>2026-04-27T14:52:38Z</time></trkpt><trkpt lat="30.666200679402877" lon="-8.45908113832667"><ele>537.0</ele><time>2026-04-27T14:52:39Z</time></trkpt><trkpt lat="30.665969681860858" lon="-8.459163130671774"><ele>537.5</ele><time>2026-04-27T14:52:40Z</time></trkpt><trkpt lat="30.66572887690522" lon="-8.459249491123554"><ele>538.0</ele><time>2026-04-27T14:52:41Z</time></trkpt><trkpt lat="30.665479607594" lon="-8.459339042223226"><ele>538.0</ele><time>2026-04-27T14:52:42Z</time></trkpt><trkpt lat="30.66522724630453" lon="-8.459431197733064"><ele>538.0</ele><time>2026-04-27T14:52:43Z</time></trkpt><trkpt lat="30.664973056493466" lon="-8.459522338192311"><ele>538.0</ele><time>2026-04-27T14:52:44Z</time></trkpt><trkpt lat="30.66471797130782" lon="-8.459612338987762"><ele>538.0</ele><time>2026-04-27T14:52:45Z</time></trkpt><trkpt lat="30.66446287843599" lon="-8.459701757615536"><ele>537.0</ele><time>2026-04-27T14:52:46Z</time></trkpt><trkpt lat="30.664212562798035" lon="-8.459792306212755"><ele>536.0</ele><time>2026-04-27T14:52:47Z</time></trkpt><trkpt lat="30.66397139756231" lon="-8.459881085388643"><ele>536.0</ele><time>2026-04-27T14:52:48Z</time></trkpt><trkpt lat="30.663745613754845" lon="-8.459962751634501"><ele>536.0</ele><time>2026-04-27T14:52:49Z</time></trkpt><trkpt lat="30.66352939888696" lon="-8.460039321838446"><ele>535.3333333333333</ele><time>2026-04-27T14:52:50Z</time></trkpt><trkpt lat="30.663319036854094" lon="-8.460114423216137"><ele>534.6666666666666</ele><time>2026-04-27T14:52:51Z</time></trkpt><trkpt lat="30.66310662896719" lon="-8.460189266364727"><ele>534.0</ele><time>2026-04-27T14:52:52Z</time></trkpt><trkpt lat="30.66288565153418" lon="-8.460265931811549"><ele>533.5</ele><time>2026-04-27T14:52:53Z</time></trkpt><trkpt lat="30.66265818207015" lon="-8.460347567863371"><ele>533.0</ele><time>2026-04-27T14:52:54Z</time></trkpt><trkpt lat="30.66242479751294" lon="-8.460431341633727"><ele>533.5</ele><time>2026-04-27T14:52:55Z</time></trkpt><trkpt lat="30.66219113528548" lon="-8.460513894890628"><ele>534.0</ele><time>2026-04-27T14:52:56Z</time></trkpt><trkpt lat="30.661959663591652" lon="-8.460592587559434"><ele>532.5</ele><time>2026-04-27T14:52:57Z</time></trkpt><trkpt lat="30.661725400445984" lon="-8.460675110735938"><ele>531.0</ele><time>2026-04-27T14:52:58Z</time></trkpt><trkpt lat="30.661472939109665" lon="-8.460767064115874"><ele>531.0</ele><time>2026-04-27T14:52:59Z</time></trkpt><trkpt lat="30.661210332689386" lon="-8.460861094650117"><ele>531.0</ele><time>2026-04-27T14:53:00Z</time></trkpt><trkpt lat="30.66096950170047" lon="-8.460947961414837"><ele>531.5</ele><time>2026-04-27T14:53:01Z</time></trkpt><trkpt lat="30.66074373833439" lon="-8.461027712150853"><ele>532.0</ele><time>2026-04-27T14:53:02Z</time></trkpt><trkpt lat="30.660526076406242" lon="-8.461105621721508"><ele>532.0</ele><time>2026-04-27T14:53:03Z</time></trkpt><trkpt lat="30.660304996425683" lon="-8.46118323151337"><ele>532.0</ele><time>2026-04-27T14:53:04Z</time></trkpt><trkpt lat="30.660083190659005" lon="-8.461263995199394"><ele>531.5</ele><time>2026-04-27T14:53:05Z</time></trkpt><trkpt lat="30.65985832901674" lon="-8.461348321961992"><ele>531.0</ele><time>2026-04-27T14:53:06Z</time></trkpt><trkpt lat="30.659630497030083" lon="-8.461431542789777"><ele>530.0</ele><time>2026-04-27T14:53:07Z</time></trkpt><trkpt lat="30.659396595226234" lon="-8.461515336266705"><ele>529.0</ele><time>2026-04-27T14:53:08.001Z</time></trkpt><trkpt lat="30.65916426192825" lon="-8.461599608457844"><ele>529.0</ele><time>2026-04-27T14:53:09.001Z</time></trkpt><trkpt lat="30.658928814079704" lon="-8.461684235266187"><ele>529.0</ele><time>2026-04-27T14:53:10.001Z</time></trkpt><trkpt lat="30.65869243732176" lon="-8.461765217212688"><ele>528.0</ele><time>2026-04-27T14:53:11.001Z</time></trkpt><trkpt lat="30.65846169627181" lon="-8.461844165578878"><ele>527.0</ele><time>2026-04-27T14:53:12.001Z</time></trkpt><trkpt lat="30.658231861711947" lon="-8.461923544417363"><ele>527.0</ele><time>2026-04-27T14:53:13.001Z</time></trkpt><trkpt lat="30.6580037472226" lon="-8.462006150704516"><ele>527.0</ele><time>2026-04-27T14:53:14.001Z</time></trkpt><trkpt lat="30.6577772148795" lon="-8.462089058768646"><ele>525.5</ele><time>2026-04-27T14:53:15.001Z</time></trkpt><trkpt lat="30.65755102823508" lon="-8.462170199058193"><ele>524.0</ele><time>2026-04-27T14:53:16.001Z</time></trkpt><trkpt lat="30.657328175269523" lon="-8.462251719633876"><ele>524.0</ele><time>2026-04-27T14:53:17.001Z</time></trkpt><trkpt lat="30.657108765814698" lon="-8.462335195687738"><ele>524.0</ele><time>2026-04-27T14:53:18.001Z</time></trkpt><trkpt lat="30.656889070498462" lon="-8.462414262829249"><ele>524.5</ele><time>2026-04-27T14:53:19.001Z</time></trkpt><trkpt lat="30.656672000074735" lon="-8.462491897871088"><ele>525.0</ele><time>2026-04-27T14:53:20.001Z</time></trkpt><trkpt lat="30.656453838941086" lon="-8.462569386181045"><ele>525.0</ele><time>2026-04-27T14:53:21.001Z</time></trkpt><trkpt lat="30.6562363274362" lon="-8.462646539438714"><ele>525.0</ele><time>2026-04-27T14:53:22.001Z</time></trkpt><trkpt lat="30.6560190386752" lon="-8.462724982736011"><ele>525.0</ele><time>2026-04-27T14:53:23.001Z</time></trkpt><trkpt lat="30.655800555409982" lon="-8.462803476708668"><ele>525.0</ele><time>2026-04-27T14:53:24.001Z</time></trkpt><trkpt lat="30.655582984659603" lon="-8.462881251907094"><ele>524.5</ele><time>2026-04-27T14:53:25.001Z</time></trkpt><trkpt lat="30.655365494403398" lon="-8.462958586795917"><ele>524.0</ele><time>2026-04-27T14:53:26.001Z</time></trkpt><trkpt lat="30.65514745234573" lon="-8.46303529732432"><ele>523.5</ele><time>2026-04-27T14:53:27.001Z</time></trkpt><trkpt lat="30.654929152478182" lon="-8.46311260073703"><ele>523.0</ele><time>2026-04-27T14:53:28.001Z</time></trkpt><trkpt lat="30.654711710711958" lon="-8.463191017754243"><ele>523.0</ele><time>2026-04-27T14:53:29.001Z</time></trkpt><trkpt lat="30.654499851627" lon="-8.463266337791094"><ele>523.0</ele><time>2026-04-27T14:53:30.001Z</time></trkpt><trkpt lat="30.654294462153274" lon="-8.463337982387625"><ele>523.0</ele><time>2026-04-27T14:53:31.001Z</time></trkpt><trkpt lat="30.65410217629829" lon="-8.463405094121478"><ele>522.75</ele><time>2026-04-27T14:53:32Z</time></trkpt><trkpt lat="30.653929999228016" lon="-8.463464937402323"><ele>522.5</ele><time>2026-04-27T14:53:33Z</time></trkpt><trkpt lat="30.653791931254425" lon="-8.463515143064425"><ele>522.25</ele><time>2026-04-27T14:53:34Z</time></trkpt><trkpt lat="30.653682284206493" lon="-8.463560173212826"><ele>522.0</ele><time>2026-04-27T14:53:35Z</time></trkpt><trkpt lat="30.65358797774753" lon="-8.463593291166552"><ele>522.0</ele><time>2026-04-27T14:53:36Z</time></trkpt><trkpt lat="30.65350402986911" lon="-8.463619300015104"><ele>522.0</ele><time>2026-04-27T14:53:37Z</time></trkpt><trkpt lat="30.653437600462183" lon="-8.463640756712831"><ele>522.0</ele><time>2026-04-27T14:53:38Z</time></trkpt><trkpt lat="30.65332665772456" lon="-8.46367596587137"><ele>522.0</ele><time>2026-04-27T14:53:40Z</time></trkpt><trkpt lat="30.65323603277503" lon="-8.46369336840856"><ele>522.0</ele><time>2026-04-27T14:53:42Z</time></trkpt><trkpt lat="30.65316785011223" lon="-8.463708786110184"><ele>522.0</ele><time>2026-04-27T14:53:44Z</time></trkpt><trkpt lat="30.653120144649435" lon="-8.463593656306811"><ele>522.0</ele><time>2026-04-27T14:53:45Z</time></trkpt><trkpt lat="30.653067400066863" lon="-8.463553584891146"><ele>522.0</ele><time>2026-04-27T14:53:47Z</time></trkpt><trkpt lat="30.652985673528413" lon="-8.463518580218405"><ele>522.0</ele><time>2026-04-27T14:53:50Z</time></trkpt><trkpt lat="30.65291399885043" lon="-8.463503397579425"><ele>522.0</ele><time>2026-04-27T14:53:53Z</time></trkpt><trkpt lat="30.652947124690357" lon="-8.463567062626574"><ele>522.0</ele><time>2026-04-27T14:53:55Z</time></trkpt><trkpt lat="30.65268548583421" lon="-8.46349016666824"><ele>522.0</ele><time>2026-04-27T15:00:11Z</time></trkpt><trkpt lat="30.65267272145837" lon="-8.463598422586603"><ele>522.0</ele><time>2026-04-27T15:00:13Z</time></trkpt><trkpt lat="30.65271307330712" lon="-8.463700762330705"><ele>522.0</ele><time>2026-04-27T15:00:15Z</time></trkpt><trkpt lat="30.65268816956057" lon="-8.46377092458872"><ele>522.0</ele><time>2026-04-27T15:00:19Z</time></trkpt><trkpt lat="30.652657929431122" lon="-8.463856119604266"><ele>522.0</ele><time>2026-04-27T15:00:31Z</time></trkpt><trkpt lat="30.65254694980694" lon="-8.463918859879417"><ele>522.0</ele><time>2026-04-27T15:00:45Z</time></trkpt><trkpt lat="30.652448205003836" lon="-8.463978990504055"><ele>522.0</ele><time>2026-04-27T15:00:47Z</time></trkpt><trkpt lat="30.652339686041422" lon="-8.464031939850125"><ele>522.0</ele><time>2026-04-27T15:00:49Z</time></trkpt><trkpt lat="30.6522302894916" lon="-8.464075666578864"><ele>522.0</ele><time>2026-04-27T15:00:51Z</time></trkpt><trkpt lat="30.652139367634454" lon="-8.464112740255487"><ele>522.0</ele><time>2026-04-27T15:00:53Z</time></trkpt><trkpt lat="30.652054403903428" lon="-8.464142267264222"><ele>522.0</ele><time>2026-04-27T15:00:55Z</time></trkpt><trkpt lat="30.651962527697627" lon="-8.464170928429278"><ele>522.0</ele><time>2026-04-27T15:00:57Z</time></trkpt><trkpt lat="30.651865294891923" lon="-8.464204304894594"><ele>522.0</ele><time>2026-04-27T15:00:59Z</time></trkpt><trkpt lat="30.65176768257765" lon="-8.464245197757855"><ele>522.0</ele><time>2026-04-27T15:01:01Z</time></trkpt><trkpt lat="30.651666533896083" lon="-8.464284234948549"><ele>522.0</ele><time>2026-04-27T15:01:03Z</time></trkpt><trkpt lat="30.651561135082538" lon="-8.464324821265002"><ele>521.6</ele><time>2026-04-27T15:01:05Z</time></trkpt><trkpt lat="30.651445199333768" lon="-8.464367113671447"><ele>521.2</ele><time>2026-04-27T15:01:07Z</time></trkpt><trkpt lat="30.65136671345867" lon="-8.464393773207304"><ele>520.8</ele><time>2026-04-27T15:01:08Z</time></trkpt><trkpt lat="30.651283415237526" lon="-8.464421787125186"><ele>520.4</ele><time>2026-04-27T15:01:09Z</time></trkpt><trkpt lat="30.651194153968664" lon="-8.464449317713031"><ele>520.0</ele><time>2026-04-27T15:01:10Z</time></trkpt><trkpt lat="30.651093606221107" lon="-8.464478603418573"><ele>520.0</ele><time>2026-04-27T15:01:11Z</time></trkpt><trkpt lat="30.650989906445332" lon="-8.464514468651279"><ele>520.0</ele><time>2026-04-27T15:01:12Z</time></trkpt><trkpt lat="30.65087373359321" lon="-8.464556935139093"><ele>520.0</ele><time>2026-04-27T15:01:13Z</time></trkpt><trkpt lat="30.650740640632982" lon="-8.464602880262953"><ele>520.0</ele><time>2026-04-27T15:01:14Z</time></trkpt><trkpt lat="30.6506068572643" lon="-8.464646544315025"><ele>519.5</ele><time>2026-04-27T15:01:15Z</time></trkpt><trkpt lat="30.65046653403953" lon="-8.464694859905993"><ele>519.0</ele><time>2026-04-27T15:01:16Z</time></trkpt><trkpt lat="30.650324352866257" lon="-8.464744397275684"><ele>518.5</ele><time>2026-04-27T15:01:17Z</time></trkpt><trkpt lat="30.650177944795768" lon="-8.464798359471311"><ele>518.0</ele><time>2026-04-27T15:01:18Z</time></trkpt><trkpt lat="30.65002410012464" lon="-8.464853641697097"><ele>518.0</ele><time>2026-04-27T15:01:19Z</time></trkpt><trkpt lat="30.649863356837702" lon="-8.464915765791405"><ele>518.0</ele><time>2026-04-27T15:01:20Z</time></trkpt><trkpt lat="30.649703180296164" lon="-8.464972589944905"><ele>518.0</ele><time>2026-04-27T15:01:21Z</time></trkpt><trkpt lat="30.649539718190148" lon="-8.465031102394878"><ele>517.6666666666666</ele><time>2026-04-27T15:01:22Z</time></trkpt><trkpt lat="30.649377624599033" lon="-8.465088124112219"><ele>517.3333333333334</ele><time>2026-04-27T15:01:23Z</time></trkpt><trkpt lat="30.649218662333727" lon="-8.465143963432086"><ele>517.0</ele><time>2026-04-27T15:01:24Z</time></trkpt><trkpt lat="30.64906054454358" lon="-8.465200569736783"><ele>517.0</ele><time>2026-04-27T15:01:25Z</time></trkpt><trkpt lat="30.648898993691343" lon="-8.465255416859748"><ele>517.0</ele><time>2026-04-27T15:01:26Z</time></trkpt><trkpt lat="30.648735992357558" lon="-8.465315339691594"><ele>517.0</ele><time>2026-04-27T15:01:27Z</time></trkpt><trkpt lat="30.648575651448873" lon="-8.465373126244508"><ele>516.6666666666667</ele><time>2026-04-27T15:01:28Z</time></trkpt><trkpt lat="30.648423213633837" lon="-8.465432313731158"><ele>516.3333333333334</ele><time>2026-04-27T15:01:29Z</time></trkpt><trkpt lat="30.64828512541131" lon="-8.46549572539358"><ele>516.0</ele><time>2026-04-27T15:01:30Z</time></trkpt><trkpt lat="30.6481553186278" lon="-8.465558526635926"><ele>516.0</ele><time>2026-04-27T15:01:31Z</time></trkpt><trkpt lat="30.64802938963873" lon="-8.465631199504314"><ele>516.0</ele><time>2026-04-27T15:01:32Z</time></trkpt><trkpt lat="30.64791429061944" lon="-8.465697519251414"><ele>516.0</ele><time>2026-04-27T15:01:33Z</time></trkpt><trkpt lat="30.64778764212147" lon="-8.465776588809554"><ele>516.0</ele><time>2026-04-27T15:01:34Z</time></trkpt><trkpt lat="30.647655947433428" lon="-8.465857097594885"><ele>515.6666666666666</ele><time>2026-04-27T15:01:35Z</time></trkpt><trkpt lat="30.647517459034464" lon="-8.465948075151864"><ele>515.3333333333333</ele><time>2026-04-27T15:01:36Z</time></trkpt><trkpt lat="30.64737356763945" lon="-8.466056874443238"><ele>515.0</ele><time>2026-04-27T15:01:37Z</time></trkpt><trkpt lat="30.64723221783925" lon="-8.466179617614662"><ele>514.6666666666666</ele><time>2026-04-27T15:01:38Z</time></trkpt><trkpt lat="30.64710176224708" lon="-8.466300038859611"><ele>514.3333333333334</ele><time>2026-04-27T15:01:39Z</time></trkpt><trkpt lat="30.646974536984402" lon="-8.466430975046913"><ele>514.0</ele><time>2026-04-27T15:01:40Z</time></trkpt><trkpt lat="30.646857777196363" lon="-8.46656382144111"><ele>513.5</ele><time>2026-04-27T15:01:41Z</time></trkpt><trkpt lat="30.646757708042365" lon="-8.466689563009616"><ele>513.0</ele><time>2026-04-27T15:01:42Z</time></trkpt><trkpt lat="30.646685329247813" lon="-8.466793510679246"><ele>512.5</ele><time>2026-04-27T15:01:43Z</time></trkpt><trkpt lat="30.646625019905255" lon="-8.466882198990577"><ele>512.0</ele><time>2026-04-27T15:01:44Z</time></trkpt><trkpt lat="30.646561889381097" lon="-8.466975162017441"><ele>512.0</ele><time>2026-04-27T15:01:45Z</time></trkpt><trkpt lat="30.64650040136318" lon="-8.467071203706135"><ele>512.0</ele><time>2026-04-27T15:01:46Z</time></trkpt><trkpt lat="30.64644929274202" lon="-8.467156413700918"><ele>512.0</ele><time>2026-04-27T15:01:47Z</time></trkpt><trkpt lat="30.646406182904705" lon="-8.467229662459646"><ele>512.0</ele><time>2026-04-27T15:01:48Z</time></trkpt><trkpt lat="30.646336842835215" lon="-8.467331093043184"><ele>512.0</ele><time>2026-04-27T15:01:50Z</time></trkpt><trkpt lat="30.64626082127808" lon="-8.467445993182658"><ele>512.2</ele><time>2026-04-27T15:01:52Z</time></trkpt><trkpt lat="30.646220169107572" lon="-8.467506770008638"><ele>512.4000000000001</ele><time>2026-04-27T15:01:53Z</time></trkpt><trkpt lat="30.646164746362594" lon="-8.467588652980028"><ele>512.5999999999999</ele><time>2026-04-27T15:01:54Z</time></trkpt><trkpt lat="30.646095123441953" lon="-8.467688383271236"><ele>512.8</ele><time>2026-04-27T15:01:55Z</time></trkpt><trkpt lat="30.646013399762836" lon="-8.467788272472225"><ele>513.0</ele><time>2026-04-27T15:01:56Z</time></trkpt><trkpt lat="30.64592881697468" lon="-8.467902250480561"><ele>513.0</ele><time>2026-04-27T15:01:57Z</time></trkpt><trkpt lat="30.645844215025285" lon="-8.468021759979687"><ele>513.0</ele><time>2026-04-27T15:01:58Z</time></trkpt><trkpt lat="30.64575948528228" lon="-8.468142387462985"><ele>513.0</ele><time>2026-04-27T15:01:59Z</time></trkpt><trkpt lat="30.645676710225516" lon="-8.468258518369346"><ele>513.0</ele><time>2026-04-27T15:02:00Z</time></trkpt><trkpt lat="30.645593456207553" lon="-8.468379475274018"><ele>513.0</ele><time>2026-04-27T15:02:01Z</time></trkpt><trkpt lat="30.645507886245777" lon="-8.468501349279764"><ele>513.0</ele><time>2026-04-27T15:02:02Z</time></trkpt><trkpt lat="30.645425959052904" lon="-8.468616511562942"><ele>513.0</ele><time>2026-04-27T15:02:03Z</time></trkpt><trkpt lat="30.64535067205413" lon="-8.468728862059441"><ele>513.0</ele><time>2026-04-27T15:02:04Z</time></trkpt><trkpt lat="30.64528048381726" lon="-8.468834548510877"><ele>512.5</ele><time>2026-04-27T15:02:05Z</time></trkpt><trkpt lat="30.64521273809751" lon="-8.46893297211111"><ele>512.0</ele><time>2026-04-27T15:02:06Z</time></trkpt><trkpt lat="30.645142071747923" lon="-8.46903061373421"><ele>511.5</ele><time>2026-04-27T15:02:07Z</time></trkpt><trkpt lat="30.645070104622334" lon="-8.469134535132715"><ele>511.0</ele><time>2026-04-27T15:02:08Z</time></trkpt><trkpt lat="30.644994665585426" lon="-8.469247982932531"><ele>511.0</ele><time>2026-04-27T15:02:09Z</time></trkpt><trkpt lat="30.64491867863283" lon="-8.469362784177264"><ele>511.0</ele><time>2026-04-27T15:02:10Z</time></trkpt><trkpt lat="30.644840624067328" lon="-8.469478615237852"><ele>511.0</ele><time>2026-04-27T15:02:11Z</time></trkpt><trkpt lat="30.64476038961141" lon="-8.46959761526655"><ele>511.0</ele><time>2026-04-27T15:02:12Z</time></trkpt><trkpt lat="30.644675441841837" lon="-8.469720698444679"><ele>511.0</ele><time>2026-04-27T15:02:13Z</time></trkpt><trkpt lat="30.644590418575625" lon="-8.469846133275913"><ele>511.0</ele><time>2026-04-27T15:02:14Z</time></trkpt><trkpt lat="30.644509546416764" lon="-8.469968999673418"><ele>511.0</ele><time>2026-04-27T15:02:15Z</time></trkpt><trkpt lat="30.644429215348204" lon="-8.470096937278058"><ele>511.0</ele><time>2026-04-27T15:02:16Z</time></trkpt><trkpt lat="30.64434709525144" lon="-8.470223582698083"><ele>511.0</ele><time>2026-04-27T15:02:17Z</time></trkpt><trkpt lat="30.64426549836576" lon="-8.470350332483855"><ele>511.0</ele><time>2026-04-27T15:02:18Z</time></trkpt><trkpt lat="30.644184013642107" lon="-8.470474316757606"><ele>511.0</ele><time>2026-04-27T15:02:19Z</time></trkpt><trkpt lat="30.64410309607767" lon="-8.470599204839228"><ele>511.0</ele><time>2026-04-27T15:02:20Z</time></trkpt><trkpt lat="30.644023789567356" lon="-8.47072514740486"><ele>510.75</ele><time>2026-04-27T15:02:21Z</time></trkpt><trkpt lat="30.643949602997004" lon="-8.470840596348845"><ele>510.5</ele><time>2026-04-27T15:02:22Z</time></trkpt><trkpt lat="30.64387815786386" lon="-8.47095010939751"><ele>510.25</ele><time>2026-04-27T15:02:23Z</time></trkpt><trkpt lat="30.643802920649264" lon="-8.47106729778098"><ele>510.0</ele><time>2026-04-27T15:02:24Z</time></trkpt><trkpt lat="30.64372296974927" lon="-8.471182070927615"><ele>510.0</ele><time>2026-04-27T15:02:25Z</time></trkpt><trkpt lat="30.64363455545158" lon="-8.47129400008179"><ele>510.0</ele><time>2026-04-27T15:02:26Z</time></trkpt><trkpt lat="30.6435455713274" lon="-8.471411527626232"><ele>510.0</ele><time>2026-04-27T15:02:27Z</time></trkpt><trkpt lat="30.6434588477929" lon="-8.47152956525426"><ele>510.0</ele><time>2026-04-27T15:02:28Z</time></trkpt><trkpt lat="30.643372651013753" lon="-8.471649779675989"><ele>510.0</ele><time>2026-04-27T15:02:29Z</time></trkpt><trkpt lat="30.64328821893847" lon="-8.471772244728571"><ele>510.0</ele><time>2026-04-27T15:02:30Z</time></trkpt><trkpt lat="30.643203906627107" lon="-8.471893101543099"><ele>510.0</ele><time>2026-04-27T15:02:31Z</time></trkpt><trkpt lat="30.64311934242944" lon="-8.47201014926727"><ele>510.0</ele><time>2026-04-27T15:02:32Z</time></trkpt><trkpt lat="30.643035747643186" lon="-8.47213006227482"><ele>509.5</ele><time>2026-04-27T15:02:33Z</time></trkpt><trkpt lat="30.64294773382458" lon="-8.4722504622559"><ele>509.0</ele><time>2026-04-27T15:02:34Z</time></trkpt><trkpt lat="30.64286686707477" lon="-8.472373006466865"><ele>508.5</ele><time>2026-04-27T15:02:35Z</time></trkpt><trkpt lat="30.64278619821697" lon="-8.472494556974977"><ele>508.0</ele><time>2026-04-27T15:02:36Z</time></trkpt><trkpt lat="30.642711253964617" lon="-8.472609168652783"><ele>508.0</ele><time>2026-04-27T15:02:37Z</time></trkpt><trkpt lat="30.64263922782097" lon="-8.472714359830766"><ele>508.0</ele><time>2026-04-27T15:02:38Z</time></trkpt><trkpt lat="30.64256779702477" lon="-8.47281858492665"><ele>508.0</ele><time>2026-04-27T15:02:39Z</time></trkpt><trkpt lat="30.642493882987868" lon="-8.472925224281619"><ele>508.0</ele><time>2026-04-27T15:02:40Z</time></trkpt><trkpt lat="30.642421009919463" lon="-8.47303128009362"><ele>507.25</ele><time>2026-04-27T15:02:41Z</time></trkpt><trkpt lat="30.642347380093568" lon="-8.473140678406706"><ele>506.5</ele><time>2026-04-27T15:02:42Z</time></trkpt><trkpt lat="30.642274423449553" lon="-8.473247240895443"><ele>505.75</ele><time>2026-04-27T15:02:43Z</time></trkpt><trkpt lat="30.642199842684878" lon="-8.473356401346114"><ele>505.0</ele><time>2026-04-27T15:02:44Z</time></trkpt><trkpt lat="30.64212651371442" lon="-8.473462328423276"><ele>505.0</ele><time>2026-04-27T15:02:45Z</time></trkpt><trkpt lat="30.642052572042534" lon="-8.473568876683027"><ele>505.0</ele><time>2026-04-27T15:02:46Z</time></trkpt><trkpt lat="30.64198493097199" lon="-8.473668259701729"><ele>505.0</ele><time>2026-04-27T15:02:47Z</time></trkpt><trkpt lat="30.641920253746935" lon="-8.473757368325009"><ele>505.0</ele><time>2026-04-27T15:02:48Z</time></trkpt><trkpt lat="30.641861576422446" lon="-8.473841546422058"><ele>505.0</ele><time>2026-04-27T15:02:49Z</time></trkpt><trkpt lat="30.641798597646396" lon="-8.4739288588007"><ele>504.8</ele><time>2026-04-27T15:02:50Z</time></trkpt><trkpt lat="30.64173216485042" lon="-8.474024126318817"><ele>504.6</ele><time>2026-04-27T15:02:51Z</time></trkpt><trkpt lat="30.641670002080538" lon="-8.474124520948662"><ele>504.4</ele><time>2026-04-27T15:02:52Z</time></trkpt><trkpt lat="30.641610265098393" lon="-8.474220246453749"><ele>504.2</ele><time>2026-04-27T15:02:53Z</time></trkpt><trkpt lat="30.64154933252383" lon="-8.474306421192566"><ele>504.0</ele><time>2026-04-27T15:02:54Z</time></trkpt><trkpt lat="30.641476491793597" lon="-8.47439125620671"><ele>504.0</ele><time>2026-04-27T15:02:55Z</time></trkpt><trkpt lat="30.64138887980488" lon="-8.474479875770722"><ele>504.0</ele><time>2026-04-27T15:02:56Z</time></trkpt><trkpt lat="30.641298929914218" lon="-8.47457224362004"><ele>504.0</ele><time>2026-04-27T15:02:57Z</time></trkpt><trkpt lat="30.64121409060899" lon="-8.474664309593592"><ele>504.0</ele><time>2026-04-27T15:02:58Z</time></trkpt><trkpt lat="30.641129887075863" lon="-8.474753332596027"><ele>503.6</ele><time>2026-04-27T15:02:59Z</time></trkpt><trkpt lat="30.641046413936504" lon="-8.474839257515649"><ele>503.2</ele><time>2026-04-27T15:03:00Z</time></trkpt><trkpt lat="30.640967875208297" lon="-8.474914618722902"><ele>502.80000000000007</ele><time>2026-04-27T15:03:01Z</time></trkpt><trkpt lat="30.640894181837254" lon="-8.474979198858437"><ele>502.40000000000003</ele><time>2026-04-27T15:03:02Z</time></trkpt><trkpt lat="30.64083261020823" lon="-8.475029783799785"><ele>502.0</ele><time>2026-04-27T15:03:03Z</time></trkpt><trkpt lat="30.640737660209734" lon="-8.47511352145495"><ele>502.0</ele><time>2026-04-27T15:03:05Z</time></trkpt><trkpt lat="30.64065418951765" lon="-8.475173611306282"><ele>502.00000000000006</ele><time>2026-04-27T15:03:07Z</time></trkpt><trkpt lat="30.640570968774142" lon="-8.475233481443007"><ele>502.00000000000006</ele><time>2026-04-27T15:03:09Z</time></trkpt><trkpt lat="30.64050760283301" lon="-8.475275736941635"><ele>502.0</ele><time>2026-04-27T15:03:10Z</time></trkpt><trkpt lat="30.640429749543316" lon="-8.475323060830844"><ele>502.0</ele><time>2026-04-27T15:03:11Z</time></trkpt><trkpt lat="30.640340890921244" lon="-8.475377014847838"><ele>502.20000000000005</ele><time>2026-04-27T15:03:12Z</time></trkpt><trkpt lat="30.64025027183992" lon="-8.47543235063253"><ele>502.40000000000003</ele><time>2026-04-27T15:03:13Z</time></trkpt><trkpt lat="30.640157303502438" lon="-8.47548440312272"><ele>502.59999999999997</ele><time>2026-04-27T15:03:14Z</time></trkpt><trkpt lat="30.64005976342671" lon="-8.475538940018781"><ele>502.79999999999995</ele><time>2026-04-27T15:03:15Z</time></trkpt><trkpt lat="30.639959235104236" lon="-8.475594028193202"><ele>503.0</ele><time>2026-04-27T15:03:16Z</time></trkpt><trkpt lat="30.639860792945324" lon="-8.475652531781252"><ele>502.59999999999997</ele><time>2026-04-27T15:03:17Z</time></trkpt><trkpt lat="30.639759445037615" lon="-8.475709020353127"><ele>502.19999999999993</ele><time>2026-04-27T15:03:18Z</time></trkpt><trkpt lat="30.639657424430016" lon="-8.4757677120893"><ele>501.8</ele><time>2026-04-27T15:03:19Z</time></trkpt><trkpt lat="30.639559595481256" lon="-8.47582146485796"><ele>501.4</ele><time>2026-04-27T15:03:20Z</time></trkpt><trkpt lat="30.639464195259112" lon="-8.47587131666155"><ele>501.0</ele><time>2026-04-27T15:03:21Z</time></trkpt><trkpt lat="30.639380046752944" lon="-8.475917638381508"><ele>501.0</ele><time>2026-04-27T15:03:22Z</time></trkpt><trkpt lat="30.639308240496646" lon="-8.475960742145519"><ele>501.0</ele><time>2026-04-27T15:03:23Z</time></trkpt><trkpt lat="30.639239949864454" lon="-8.476002273894222"><ele>501.0</ele><time>2026-04-27T15:03:24Z</time></trkpt><trkpt lat="30.63916826025138" lon="-8.476046772970403"><ele>501.0</ele><time>2026-04-27T15:03:25Z</time></trkpt><trkpt lat="30.639104479514174" lon="-8.47608774340398"><ele>501.0</ele><time>2026-04-27T15:03:26Z</time></trkpt><trkpt lat="30.63904539175509" lon="-8.476124048755173"><ele>501.0</ele><time>2026-04-27T15:03:27Z</time></trkpt><trkpt lat="30.63897172667381" lon="-8.476165204872165"><ele>501.0</ele><time>2026-04-27T15:03:29Z</time></trkpt><trkpt lat="30.638908388473315" lon="-8.476209381635503"><ele>501.0</ele><time>2026-04-27T15:03:33Z</time></trkpt><trkpt lat="30.638761660338844" lon="-8.476284601433957"><ele>501.0</ele><time>2026-04-27T15:03:35Z</time></trkpt><trkpt lat="30.638681171687114" lon="-8.476327345183982"><ele>501.0</ele><time>2026-04-27T15:03:36Z</time></trkpt><trkpt lat="30.638595142453628" lon="-8.476375828950367"><ele>501.0</ele><time>2026-04-27T15:03:37Z</time></trkpt><trkpt lat="30.63850419791138" lon="-8.476426254943922"><ele>500.8</ele><time>2026-04-27T15:03:38Z</time></trkpt><trkpt lat="30.638406054306806" lon="-8.476479546331403"><ele>500.6</ele><time>2026-04-27T15:03:39Z</time></trkpt><trkpt lat="30.638322881127372" lon="-8.476524544335732"><ele>500.4</ele><time>2026-04-27T15:03:40Z</time></trkpt><trkpt lat="30.63823650090129" lon="-8.476567995523675"><ele>500.2</ele><time>2026-04-27T15:03:41Z</time></trkpt><trkpt lat="30.638144417694534" lon="-8.476615706651609"><ele>500.0</ele><time>2026-04-27T15:03:42Z</time></trkpt><trkpt lat="30.638037495221564" lon="-8.476668969302196"><ele>500.0</ele><time>2026-04-27T15:03:43Z</time></trkpt><trkpt lat="30.637925275478818" lon="-8.476734180643154"><ele>500.0</ele><time>2026-04-27T15:03:44Z</time></trkpt><trkpt lat="30.63780972043182" lon="-8.476797693534943"><ele>500.0</ele><time>2026-04-27T15:03:45Z</time></trkpt><trkpt lat="30.63770260372202" lon="-8.476861734945535"><ele>500.0</ele><time>2026-04-27T15:03:46Z</time></trkpt><trkpt lat="30.637583793166804" lon="-8.476931519002276"><ele>499.5</ele><time>2026-04-27T15:03:47Z</time></trkpt><trkpt lat="30.637465526761055" lon="-8.47700292350884"><ele>499.0</ele><time>2026-04-27T15:03:48Z</time></trkpt><trkpt lat="30.637351016425203" lon="-8.477083507410772"><ele>498.5</ele><time>2026-04-27T15:03:49Z</time></trkpt><trkpt lat="30.63724037593532" lon="-8.47716684630646"><ele>498.0</ele><time>2026-04-27T15:03:50Z</time></trkpt><trkpt lat="30.637133944235778" lon="-8.477247893264378"><ele>497.5</ele><time>2026-04-27T15:03:51Z</time></trkpt><trkpt lat="30.63703294363271" lon="-8.477325274105489"><ele>497.0</ele><time>2026-04-27T15:03:52Z</time></trkpt><trkpt lat="30.636934146169015" lon="-8.477404363595562"><ele>496.5</ele><time>2026-04-27T15:03:53Z</time></trkpt><trkpt lat="30.63683287624797" lon="-8.477485276989283"><ele>496.0</ele><time>2026-04-27T15:03:54Z</time></trkpt><trkpt lat="30.63673595807002" lon="-8.477569502982028"><ele>495.25</ele><time>2026-04-27T15:03:55Z</time></trkpt><trkpt lat="30.636648254422614" lon="-8.477652196643104"><ele>494.5</ele><time>2026-04-27T15:03:56Z</time></trkpt><trkpt lat="30.6365644222105" lon="-8.477738709329188"><ele>493.75</ele><time>2026-04-27T15:03:57Z</time></trkpt><trkpt lat="30.636482381325987" lon="-8.477831755135215"><ele>493.0</ele><time>2026-04-27T15:03:58Z</time></trkpt><trkpt lat="30.636408881003334" lon="-8.477926763741827"><ele>493.25</ele><time>2026-04-27T15:03:59Z</time></trkpt><trkpt lat="30.636334421629993" lon="-8.478025221847503"><ele>493.5</ele><time>2026-04-27T15:04:00Z</time></trkpt><trkpt lat="30.636245922583917" lon="-8.478130825371965"><ele>493.75</ele><time>2026-04-27T15:04:01Z</time></trkpt><trkpt lat="30.63615222800882" lon="-8.478239029831077"><ele>494.0</ele><time>2026-04-27T15:04:02Z</time></trkpt><trkpt lat="30.6360628998084" lon="-8.478364198632518"><ele>493.3333333333333</ele><time>2026-04-27T15:04:03Z</time></trkpt><trkpt lat="30.635948087403595" lon="-8.478484793584686"><ele>492.66666666666663</ele><time>2026-04-27T15:04:04Z</time></trkpt><trkpt lat="30.635885678057527" lon="-8.478661203899918"><ele>492.0</ele><time>2026-04-27T15:04:05Z</time></trkpt><trkpt lat="30.63581399085795" lon="-8.478817562661536"><ele>490.75</ele><time>2026-04-27T15:04:06Z</time></trkpt><trkpt lat="30.635751079949344" lon="-8.478970851449192"><ele>489.5</ele><time>2026-04-27T15:04:07Z</time></trkpt><trkpt lat="30.635690036479776" lon="-8.47912472506531"><ele>488.25</ele><time>2026-04-27T15:04:08Z</time></trkpt><trkpt lat="30.63563166040165" lon="-8.479276208148743"><ele>487.0</ele><time>2026-04-27T15:04:09Z</time></trkpt><trkpt lat="30.63557354385848" lon="-8.47942727582125"><ele>487.0</ele><time>2026-04-27T15:04:10Z</time></trkpt><trkpt lat="30.63551775680326" lon="-8.479577036269767"><ele>487.0</ele><time>2026-04-27T15:04:11Z</time></trkpt><trkpt lat="30.63546560026224" lon="-8.479719231449163"><ele>487.0</ele><time>2026-04-27T15:04:12Z</time></trkpt><trkpt lat="30.63541164173252" lon="-8.479862556661558"><ele>487.0</ele><time>2026-04-27T15:04:13Z</time></trkpt><trkpt lat="30.63535856823862" lon="-8.480005177015489"><ele>487.0</ele><time>2026-04-27T15:04:14Z</time></trkpt><trkpt lat="30.635308889568716" lon="-8.480150294093361"><ele>487.0</ele><time>2026-04-27T15:04:15Z</time></trkpt><trkpt lat="30.63526476412734" lon="-8.480296581079667"><ele>487.0</ele><time>2026-04-27T15:04:16Z</time></trkpt><trkpt lat="30.635221915344967" lon="-8.480443732260259"><ele>487.0</ele><time>2026-04-27T15:04:17Z</time></trkpt><trkpt lat="30.635173806426447" lon="-8.480588422455519"><ele>484.75</ele><time>2026-04-27T15:04:18Z</time></trkpt><trkpt lat="30.63512331214392" lon="-8.48073231876269"><ele>482.5</ele><time>2026-04-27T15:04:19Z</time></trkpt><trkpt lat="30.635072854237297" lon="-8.480869917535376"><ele>480.25</ele><time>2026-04-27T15:04:20Z</time></trkpt><trkpt lat="30.635022036286383" lon="-8.481012424247242"><ele>478.0</ele><time>2026-04-27T15:04:21Z</time></trkpt><trkpt lat="30.63496943834396" lon="-8.481154063256785"><ele>479.5</ele><time>2026-04-27T15:04:22Z</time></trkpt><trkpt lat="30.634920659055958" lon="-8.481300845854939"><ele>481.0</ele><time>2026-04-27T15:04:23Z</time></trkpt><trkpt lat="30.63487355514616" lon="-8.481451586244606"><ele>482.5</ele><time>2026-04-27T15:04:24Z</time></trkpt><trkpt lat="30.634825973776156" lon="-8.4816009858045"><ele>484.0</ele><time>2026-04-27T15:04:25Z</time></trkpt><trkpt lat="30.63477938753085" lon="-8.481750108881537"><ele>484.0</ele><time>2026-04-27T15:04:26Z</time></trkpt><trkpt lat="30.634734311038795" lon="-8.481895951753108"><ele>484.0</ele><time>2026-04-27T15:04:27Z</time></trkpt><trkpt lat="30.63468961552361" lon="-8.482030269035821"><ele>484.0</ele><time>2026-04-27T15:04:28Z</time></trkpt><trkpt lat="30.634647637030962" lon="-8.482155443404693"><ele>484.0</ele><time>2026-04-27T15:04:29Z</time></trkpt><trkpt lat="30.63460272624451" lon="-8.482277698190826"><ele>484.5</ele><time>2026-04-27T15:04:30Z</time></trkpt><trkpt lat="30.63455716582855" lon="-8.482409680945024"><ele>485.0</ele><time>2026-04-27T15:04:31Z</time></trkpt><trkpt lat="30.634511358972144" lon="-8.48254198844826"><ele>485.5</ele><time>2026-04-27T15:04:32Z</time></trkpt><trkpt lat="30.63446197670976" lon="-8.482684620655533"><ele>486.0</ele><time>2026-04-27T15:04:33Z</time></trkpt><trkpt lat="30.63441190344081" lon="-8.482830083288702"><ele>487.0</ele><time>2026-04-27T15:04:34Z</time></trkpt><trkpt lat="30.634363971566707" lon="-8.482984407282483"><ele>488.0</ele><time>2026-04-27T15:04:35Z</time></trkpt><trkpt lat="30.63431660624684" lon="-8.483134989440043"><ele>489.0</ele><time>2026-04-27T15:04:36Z</time></trkpt><trkpt lat="30.634277730897356" lon="-8.483281451093834"><ele>490.0</ele><time>2026-04-27T15:04:37Z</time></trkpt><trkpt lat="30.634240450275616" lon="-8.48341725461683"><ele>490.0</ele><time>2026-04-27T15:04:38Z</time></trkpt><trkpt lat="30.634168168227163" lon="-8.48354179219522"><ele>490.0</ele><time>2026-04-27T15:04:39Z</time></trkpt><trkpt lat="30.634155565442374" lon="-8.483656105882366"><ele>490.0</ele><time>2026-04-27T15:04:40Z</time></trkpt><trkpt lat="30.634143411127955" lon="-8.483766351774179"><ele>490.0</ele><time>2026-04-27T15:04:41Z</time></trkpt><trkpt lat="30.63415280241894" lon="-8.483878609608146"><ele>490.0</ele><time>2026-04-27T15:04:42Z</time></trkpt><trkpt lat="30.634164579237993" lon="-8.483970241086618"><ele>488.5</ele><time>2026-04-27T15:04:43Z</time></trkpt><trkpt lat="30.634109299204095" lon="-8.484056322412957"><ele>487.0</ele><time>2026-04-27T15:04:44Z</time></trkpt><trkpt lat="30.63403008910509" lon="-8.484168826994848"><ele>485.5</ele><time>2026-04-27T15:04:45Z</time></trkpt><trkpt lat="30.633953735361143" lon="-8.484282837199153"><ele>484.0</ele><time>2026-04-27T15:04:46Z</time></trkpt><trkpt lat="30.633876893328097" lon="-8.484433587434516"><ele>485.0</ele><time>2026-04-27T15:04:47Z</time></trkpt><trkpt lat="30.63381196156418" lon="-8.484602749246173"><ele>486.0</ele><time>2026-04-27T15:04:48Z</time></trkpt><trkpt lat="30.63374770912365" lon="-8.484780328930345"><ele>487.0</ele><time>2026-04-27T15:04:49Z</time></trkpt><trkpt lat="30.63367975906311" lon="-8.48495572512798"><ele>486.6666666666667</ele><time>2026-04-27T15:04:50Z</time></trkpt><trkpt lat="30.63361321617745" lon="-8.485132232944192"><ele>486.33333333333337</ele><time>2026-04-27T15:04:51Z</time></trkpt><trkpt lat="30.633552074693448" lon="-8.485312795100391"><ele>486.0</ele><time>2026-04-27T15:04:52Z</time></trkpt><trkpt lat="30.633494808911372" lon="-8.48550559740044"><ele>485.33333333333337</ele><time>2026-04-27T15:04:53Z</time></trkpt><trkpt lat="30.63343291107509" lon="-8.485697187153274"><ele>484.6666666666667</ele><time>2026-04-27T15:04:54Z</time></trkpt><trkpt lat="30.633358096092397" lon="-8.485895572867578"><ele>484.0</ele><time>2026-04-27T15:04:55Z</time></trkpt><trkpt lat="30.633269462370276" lon="-8.48607916802686"><ele>484.0</ele><time>2026-04-27T15:04:56Z</time></trkpt><trkpt lat="30.633168811841713" lon="-8.486262905136666"><ele>484.0</ele><time>2026-04-27T15:04:57Z</time></trkpt><trkpt lat="30.6330587763362" lon="-8.486436500964777"><ele>484.0</ele><time>2026-04-27T15:04:58Z</time></trkpt><trkpt lat="30.63293998509365" lon="-8.486596840961354"><ele>484.0</ele><time>2026-04-27T15:04:59Z</time></trkpt><trkpt lat="30.632814674127836" lon="-8.486749805828188"><ele>484.0</ele><time>2026-04-27T15:05:00Z</time></trkpt><trkpt lat="30.632685281519986" lon="-8.486910191393477"><ele>484.0</ele><time>2026-04-27T15:05:01Z</time></trkpt><trkpt lat="30.632545389520434" lon="-8.48706132748165"><ele>484.33333333333337</ele><time>2026-04-27T15:05:02Z</time></trkpt><trkpt lat="30.63240366295756" lon="-8.487202769865661"><ele>484.66666666666663</ele><time>2026-04-27T15:05:03Z</time></trkpt><trkpt lat="30.63225695999531" lon="-8.48734255224101"><ele>485.0</ele><time>2026-04-27T15:05:04Z</time></trkpt><trkpt lat="30.63211130473674" lon="-8.487478101774505"><ele>484.0</ele><time>2026-04-27T15:05:05Z</time></trkpt><trkpt lat="30.631971134533618" lon="-8.487609769792394"><ele>483.0</ele><time>2026-04-27T15:05:06Z</time></trkpt><trkpt lat="30.63183893930623" lon="-8.487726070661635"><ele>482.0</ele><time>2026-04-27T15:05:07Z</time></trkpt><trkpt lat="30.63171573307499" lon="-8.487834126878408"><ele>482.0</ele><time>2026-04-27T15:05:08Z</time></trkpt><trkpt lat="30.63159766444498" lon="-8.487941908660654"><ele>482.0</ele><time>2026-04-27T15:05:09Z</time></trkpt><trkpt lat="30.631485722722832" lon="-8.48804153777505"><ele>482.0</ele><time>2026-04-27T15:05:10Z</time></trkpt><trkpt lat="30.631374773552047" lon="-8.48814093144558"><ele>482.0</ele><time>2026-04-27T15:05:11Z</time></trkpt><trkpt lat="30.63124399560934" lon="-8.48825401437527"><ele>481.66666666666663</ele><time>2026-04-27T15:05:12Z</time></trkpt><trkpt lat="30.631106521699774" lon="-8.488374399393688"><ele>481.33333333333337</ele><time>2026-04-27T15:05:13Z</time></trkpt><trkpt lat="30.630969752464352" lon="-8.488494298004353"><ele>481.0</ele><time>2026-04-27T15:05:14Z</time></trkpt><trkpt lat="30.630835441522123" lon="-8.488614111199928"><ele>481.0</ele><time>2026-04-27T15:05:15Z</time></trkpt><trkpt lat="30.630696288612494" lon="-8.488734572486253"><ele>481.0</ele><time>2026-04-27T15:05:16Z</time></trkpt><trkpt lat="30.63055711255652" lon="-8.488863487218405"><ele>481.0</ele><time>2026-04-27T15:05:17Z</time></trkpt><trkpt lat="30.6304146103314" lon="-8.488990442453272"><ele>480.6666666666667</ele><time>2026-04-27T15:05:18Z</time></trkpt><trkpt lat="30.630271151034783" lon="-8.48911915084883"><ele>480.33333333333337</ele><time>2026-04-27T15:05:19Z</time></trkpt><trkpt lat="30.630123047439085" lon="-8.489249546657849"><ele>480.0</ele><time>2026-04-27T15:05:20Z</time></trkpt><trkpt lat="30.62997282968595" lon="-8.48938221945485"><ele>480.0</ele><time>2026-04-27T15:05:21Z</time></trkpt><trkpt lat="30.629820918495565" lon="-8.48951933483305"><ele>480.0</ele><time>2026-04-27T15:05:22Z</time></trkpt><trkpt lat="30.62966225269284" lon="-8.48965836097022"><ele>480.0</ele><time>2026-04-27T15:05:23Z</time></trkpt><trkpt lat="30.62950925209205" lon="-8.489793595922412"><ele>481.0</ele><time>2026-04-27T15:05:24Z</time></trkpt><trkpt lat="30.62935903535979" lon="-8.48992973450385"><ele>482.0</ele><time>2026-04-27T15:05:25Z</time></trkpt><trkpt lat="30.629206019741925" lon="-8.490071058638371"><ele>483.0</ele><time>2026-04-27T15:05:26Z</time></trkpt><trkpt lat="30.629049996969147" lon="-8.490212357119436"><ele>483.0</ele><time>2026-04-27T15:05:27Z</time></trkpt><trkpt lat="30.628892023482454" lon="-8.490353495142378"><ele>483.0</ele><time>2026-04-27T15:05:28Z</time></trkpt><trkpt lat="30.628737374456705" lon="-8.49049207354254"><ele>483.0</ele><time>2026-04-27T15:05:29Z</time></trkpt><trkpt lat="30.628586763577545" lon="-8.490626903189137"><ele>482.33333333333337</ele><time>2026-04-27T15:05:30Z</time></trkpt><trkpt lat="30.62843889412389" lon="-8.490762614718715"><ele>481.6666666666667</ele><time>2026-04-27T15:05:31Z</time></trkpt><trkpt lat="30.628288075310365" lon="-8.490904337462128"><ele>481.0</ele><time>2026-04-27T15:05:32Z</time></trkpt><trkpt lat="30.628136962972697" lon="-8.49104708141177"><ele>481.0</ele><time>2026-04-27T15:05:33Z</time></trkpt><trkpt lat="30.627986132239613" lon="-8.491188967679076"><ele>481.0</ele><time>2026-04-27T15:05:34Z</time></trkpt><trkpt lat="30.62783540734707" lon="-8.49133406725808"><ele>481.0</ele><time>2026-04-27T15:05:35Z</time></trkpt><trkpt lat="30.62768170725338" lon="-8.491481561084631"><ele>480.6666666666667</ele><time>2026-04-27T15:05:36Z</time></trkpt><trkpt lat="30.627527789133303" lon="-8.49162999872589"><ele>480.33333333333337</ele><time>2026-04-27T15:05:37Z</time></trkpt><trkpt lat="30.627372392656312" lon="-8.49178382807322"><ele>480.0</ele><time>2026-04-27T15:05:38Z</time></trkpt><trkpt lat="30.627214786920966" lon="-8.491942474228004"><ele>478.66666666666663</ele><time>2026-04-27T15:05:39Z</time></trkpt><trkpt lat="30.62705635764945" lon="-8.492102073095452"><ele>477.3333333333333</ele><time>2026-04-27T15:05:40Z</time></trkpt><trkpt lat="30.626902811964904" lon="-8.492257836144576"><ele>476.0</ele><time>2026-04-27T15:05:41Z</time></trkpt><trkpt lat="30.626753246673804" lon="-8.492412910540528"><ele>475.66666666666663</ele><time>2026-04-27T15:05:42Z</time></trkpt><trkpt lat="30.626599713089448" lon="-8.492571954931714"><ele>475.33333333333337</ele><time>2026-04-27T15:05:43Z</time></trkpt><trkpt lat="30.626445142772095" lon="-8.492731106775507"><ele>475.0</ele><time>2026-04-27T15:05:44Z</time></trkpt><trkpt lat="30.62629374145836" lon="-8.492885519577245"><ele>475.0</ele><time>2026-04-27T15:05:45Z</time></trkpt><trkpt lat="30.626151866311506" lon="-8.493031071025769"><ele>475.0</ele><time>2026-04-27T15:05:46Z</time></trkpt><trkpt lat="30.626019054106255" lon="-8.493166895542593"><ele>475.0</ele><time>2026-04-27T15:05:47Z</time></trkpt><trkpt lat="30.625890401550464" lon="-8.493294830416794"><ele>474.6666666666667</ele><time>2026-04-27T15:05:48Z</time></trkpt><trkpt lat="30.625760647882824" lon="-8.493425183137552"><ele>474.33333333333337</ele><time>2026-04-27T15:05:49Z</time></trkpt><trkpt lat="30.625639436637538" lon="-8.49355306178978"><ele>474.0</ele><time>2026-04-27T15:05:50Z</time></trkpt><trkpt lat="30.62553104884908" lon="-8.493673684580322"><ele>474.0</ele><time>2026-04-27T15:05:51Z</time></trkpt><trkpt lat="30.62542825254485" lon="-8.493789335232231"><ele>474.0</ele><time>2026-04-27T15:05:52Z</time></trkpt><trkpt lat="30.62534793226281" lon="-8.493888536691538"><ele>474.0</ele><time>2026-04-27T15:05:53Z</time></trkpt><trkpt lat="30.62527001558111" lon="-8.493989341965127"><ele>474.0</ele><time>2026-04-27T15:05:54Z</time></trkpt><trkpt lat="30.625198433135065" lon="-8.494082470327958"><ele>473.6666666666667</ele><time>2026-04-27T15:05:55Z</time></trkpt><trkpt lat="30.62512106863164" lon="-8.494146981342956"><ele>473.33333333333337</ele><time>2026-04-27T15:05:56Z</time></trkpt><trkpt lat="30.625061484933532" lon="-8.494210598817045"><ele>473.0</ele><time>2026-04-27T15:05:57Z</time></trkpt><trkpt lat="30.62500121532821" lon="-8.494272879196691"><ele>472.6666666666667</ele><time>2026-04-27T15:05:58Z</time></trkpt><trkpt lat="30.62494074117659" lon="-8.494335523336385"><ele>472.33333333333337</ele><time>2026-04-27T15:05:59Z</time></trkpt><trkpt lat="30.624869380212672" lon="-8.494409832632938"><ele>472.0</ele><time>2026-04-27T15:06:00Z</time></trkpt><trkpt lat="30.624787799568516" lon="-8.49449345785047"><ele>472.0</ele><time>2026-04-27T15:06:01Z</time></trkpt><trkpt lat="30.62470142501142" lon="-8.494578913811615"><ele>472.0</ele><time>2026-04-27T15:06:02Z</time></trkpt><trkpt lat="30.62458830860688" lon="-8.494667631523539"><ele>472.0</ele><time>2026-04-27T15:06:03Z</time></trkpt><trkpt lat="30.624471223681194" lon="-8.49478475357518"><ele>472.0</ele><time>2026-04-27T15:06:04Z</time></trkpt><trkpt lat="30.624338425929846" lon="-8.494919535070403"><ele>471.6666666666667</ele><time>2026-04-27T15:06:05Z</time></trkpt><trkpt lat="30.62420745364846" lon="-8.495049584027054"><ele>471.33333333333337</ele><time>2026-04-27T15:06:06Z</time></trkpt><trkpt lat="30.624062859857734" lon="-8.495190365394068"><ele>471.0</ele><time>2026-04-27T15:06:07Z</time></trkpt><trkpt lat="30.623900729954816" lon="-8.49534678341772"><ele>470.66666666666663</ele><time>2026-04-27T15:06:08Z</time></trkpt><trkpt lat="30.62373976215189" lon="-8.495512125546373"><ele>470.3333333333333</ele><time>2026-04-27T15:06:09Z</time></trkpt><trkpt lat="30.623583546318716" lon="-8.495671638873233"><ele>470.0</ele><time>2026-04-27T15:06:10Z</time></trkpt><trkpt lat="30.623433579777707" lon="-8.495825661112832"><ele>469.66666666666663</ele><time>2026-04-27T15:06:11Z</time></trkpt><trkpt lat="30.623298206347425" lon="-8.495968487145369"><ele>469.33333333333337</ele><time>2026-04-27T15:06:12Z</time></trkpt><trkpt lat="30.62317568693361" lon="-8.49609745652578"><ele>469.0</ele><time>2026-04-27T15:06:13Z</time></trkpt><trkpt lat="30.623051620404397" lon="-8.496227810272478"><ele>469.0</ele><time>2026-04-27T15:06:14Z</time></trkpt><trkpt lat="30.62290953567922" lon="-8.496364357071236"><ele>469.0</ele><time>2026-04-27T15:06:15Z</time></trkpt><trkpt lat="30.6227482185017" lon="-8.496517612875293"><ele>469.0</ele><time>2026-04-27T15:06:16Z</time></trkpt><trkpt lat="30.62258168813698" lon="-8.496695188642935"><ele>468.5</ele><time>2026-04-27T15:06:17Z</time></trkpt><trkpt lat="30.622417487158906" lon="-8.496889483816883"><ele>468.0</ele><time>2026-04-27T15:06:18Z</time></trkpt><trkpt lat="30.62224463489937" lon="-8.497076805077063"><ele>467.66666666666663</ele><time>2026-04-27T15:06:19Z</time></trkpt><trkpt lat="30.622078577177728" lon="-8.497253843213219"><ele>467.3333333333333</ele><time>2026-04-27T15:06:20Z</time></trkpt><trkpt lat="30.6219153572869" lon="-8.497420733336268"><ele>467.0</ele><time>2026-04-27T15:06:21Z</time></trkpt><trkpt lat="30.621755680426975" lon="-8.497585838389156"><ele>467.0</ele><time>2026-04-27T15:06:22Z</time></trkpt><trkpt lat="30.62160140585074" lon="-8.497747095235185"><ele>467.0</ele><time>2026-04-27T15:06:23Z</time></trkpt><trkpt lat="30.621449730701016" lon="-8.49790820635829"><ele>467.0</ele><time>2026-04-27T15:06:24Z</time></trkpt><trkpt lat="30.621297548435617" lon="-8.498071257120772"><ele>466.5</ele><time>2026-04-27T15:06:25Z</time></trkpt><trkpt lat="30.621135973904337" lon="-8.49823944967932"><ele>466.0</ele><time>2026-04-27T15:06:26Z</time></trkpt><trkpt lat="30.62095961692609" lon="-8.498416415687556"><ele>466.0</ele><time>2026-04-27T15:06:27Z</time></trkpt><trkpt lat="30.62077192776312" lon="-8.4986025057665"><ele>466.0</ele><time>2026-04-27T15:06:28Z</time></trkpt><trkpt lat="30.620579713079696" lon="-8.498791914055328"><ele>466.0</ele><time>2026-04-27T15:06:29Z</time></trkpt><trkpt lat="30.620376010980568" lon="-8.498992934021796"><ele>466.0</ele><time>2026-04-27T15:06:30Z</time></trkpt><trkpt lat="30.62017583222749" lon="-8.499204505962679"><ele>465.0</ele><time>2026-04-27T15:06:31Z</time></trkpt><trkpt lat="30.619982681833143" lon="-8.499421479204118"><ele>464.0</ele><time>2026-04-27T15:06:32Z</time></trkpt><trkpt lat="30.61978807550471" lon="-8.499638237426156"><ele>464.0</ele><time>2026-04-27T15:06:33Z</time></trkpt><trkpt lat="30.619588850625345" lon="-8.499850438888476"><ele>464.0</ele><time>2026-04-27T15:06:34Z</time></trkpt><trkpt lat="30.619385608962034" lon="-8.5000606469369"><ele>463.5</ele><time>2026-04-27T15:06:35Z</time></trkpt><trkpt lat="30.619184388454453" lon="-8.5002693455313"><ele>463.0</ele><time>2026-04-27T15:06:36Z</time></trkpt><trkpt lat="30.61898576606568" lon="-8.500472562579704"><ele>463.0</ele><time>2026-04-27T15:06:37Z</time></trkpt><trkpt lat="30.618789482094332" lon="-8.500673650247059"><ele>463.0</ele><time>2026-04-27T15:06:38Z</time></trkpt><trkpt lat="30.61859180463954" lon="-8.50087956252548"><ele>462.0</ele><time>2026-04-27T15:06:39Z</time></trkpt><trkpt lat="30.6183933292846" lon="-8.50108515556065"><ele>461.0</ele><time>2026-04-27T15:06:40Z</time></trkpt><trkpt lat="30.618193401476542" lon="-8.50129434577638"><ele>461.0</ele><time>2026-04-27T15:06:41Z</time></trkpt><trkpt lat="30.617992579794663" lon="-8.501505410352534"><ele>461.0</ele><time>2026-04-27T15:06:42Z</time></trkpt><trkpt lat="30.617790394768953" lon="-8.501716769617111"><ele>461.0</ele><time>2026-04-27T15:06:43Z</time></trkpt><trkpt lat="30.617591209779984" lon="-8.50192496078004"><ele>461.0</ele><time>2026-04-27T15:06:44Z</time></trkpt><trkpt lat="30.61738983058072" lon="-8.502137799924965"><ele>460.5</ele><time>2026-04-27T15:06:45Z</time></trkpt><trkpt lat="30.617185836756317" lon="-8.502347847061458"><ele>460.0</ele><time>2026-04-27T15:06:46Z</time></trkpt><trkpt lat="30.61698231224875" lon="-8.502559072230682"><ele>460.0</ele><time>2026-04-27T15:06:47Z</time></trkpt><trkpt lat="30.61678073445722" lon="-8.502770005737505"><ele>460.0</ele><time>2026-04-27T15:06:48Z</time></trkpt><trkpt lat="30.61657958901871" lon="-8.502980719443528"><ele>459.0</ele><time>2026-04-27T15:06:49Z</time></trkpt><trkpt lat="30.61638247967989" lon="-8.503190585423932"><ele>458.0</ele><time>2026-04-27T15:06:50Z</time></trkpt><trkpt lat="30.616184263105612" lon="-8.503396079521849"><ele>458.0</ele><time>2026-04-27T15:06:51Z</time></trkpt><trkpt lat="30.615990978796976" lon="-8.503598823676992"><ele>458.0</ele><time>2026-04-27T15:06:52Z</time></trkpt><trkpt lat="30.615799655556405" lon="-8.503796851749968"><ele>458.0</ele><time>2026-04-27T15:06:53Z</time></trkpt><trkpt lat="30.61560980530354" lon="-8.503993279579642"><ele>458.0</ele><time>2026-04-27T15:06:54Z</time></trkpt><trkpt lat="30.615422334760048" lon="-8.504192140829366"><ele>458.0</ele><time>2026-04-27T15:06:55Z</time></trkpt><trkpt lat="30.615236687437783" lon="-8.504387466436565"><ele>458.0</ele><time>2026-04-27T15:06:56Z</time></trkpt><trkpt lat="30.615055247506234" lon="-8.504578985481"><ele>457.5</ele><time>2026-04-27T15:06:57Z</time></trkpt><trkpt lat="30.614873791377025" lon="-8.504769106931708"><ele>457.0</ele><time>2026-04-27T15:06:58Z</time></trkpt><trkpt lat="30.614693719449743" lon="-8.504955146068149"><ele>457.0</ele><time>2026-04-27T15:06:59Z</time></trkpt><trkpt lat="30.61451689871286" lon="-8.505138354911068"><ele>457.0</ele><time>2026-04-27T15:07:00Z</time></trkpt><trkpt lat="30.61434228733842" lon="-8.505320924816626"><ele>457.5</ele><time>2026-04-27T15:07:01Z</time></trkpt><trkpt lat="30.61416784295399" lon="-8.505498835700223"><ele>458.0</ele><time>2026-04-27T15:07:02Z</time></trkpt><trkpt lat="30.61399535911776" lon="-8.50568109929022"><ele>458.0</ele><time>2026-04-27T15:07:03Z</time></trkpt><trkpt lat="30.61382161332413" lon="-8.505861810592707"><ele>458.0</ele><time>2026-04-27T15:07:04Z</time></trkpt><trkpt lat="30.61365103330945" lon="-8.506042312593033"><ele>456.5</ele><time>2026-04-27T15:07:05Z</time></trkpt><trkpt lat="30.61348027043782" lon="-8.506217894378095"><ele>455.0</ele><time>2026-04-27T15:07:06Z</time></trkpt><trkpt lat="30.613311850436205" lon="-8.506388485041253"><ele>455.0</ele><time>2026-04-27T15:07:07Z</time></trkpt><trkpt lat="30.613139457191064" lon="-8.506563178276812"><ele>455.0</ele><time>2026-04-27T15:07:08Z</time></trkpt><trkpt lat="30.612965601706925" lon="-8.506735630132665"><ele>454.0</ele><time>2026-04-27T15:07:09Z</time></trkpt><trkpt lat="30.612791793519683" lon="-8.506911212236922"><ele>453.0</ele><time>2026-04-27T15:07:10Z</time></trkpt><trkpt lat="30.61261761597811" lon="-8.507093890894577"><ele>453.0</ele><time>2026-04-27T15:07:11Z</time></trkpt><trkpt lat="30.61244485455776" lon="-8.507279381788303"><ele>453.0</ele><time>2026-04-27T15:07:12Z</time></trkpt><trkpt lat="30.61226948744049" lon="-8.5074650425415"><ele>453.0</ele><time>2026-04-27T15:07:13Z</time></trkpt><trkpt lat="30.612090930959866" lon="-8.507644104077619"><ele>453.0</ele><time>2026-04-27T15:07:14Z</time></trkpt><trkpt lat="30.611915703578333" lon="-8.507828505599335"><ele>452.5</ele><time>2026-04-27T15:07:15Z</time></trkpt><trkpt lat="30.611741678762105" lon="-8.508014790131494"><ele>452.0</ele><time>2026-04-27T15:07:16Z</time></trkpt><trkpt lat="30.611565905752766" lon="-8.508202164116986"><ele>452.0</ele><time>2026-04-27T15:07:17Z</time></trkpt><trkpt lat="30.611387095486034" lon="-8.508383624608198"><ele>452.0</ele><time>2026-04-27T15:07:18Z</time></trkpt><trkpt lat="30.611207495610774" lon="-8.508568584869598"><ele>451.0</ele><time>2026-04-27T15:07:19Z</time></trkpt><trkpt lat="30.61102873328452" lon="-8.508754736926079"><ele>450.0</ele><time>2026-04-27T15:07:20Z</time></trkpt><trkpt lat="30.610847194844037" lon="-8.508941670508445"><ele>450.0</ele><time>2026-04-27T15:07:21Z</time></trkpt><trkpt lat="30.610664303007827" lon="-8.509126767074015"><ele>450.0</ele><time>2026-04-27T15:07:22Z</time></trkpt><trkpt lat="30.610482701212852" lon="-8.509314290972181"><ele>449.5</ele><time>2026-04-27T15:07:23Z</time></trkpt><trkpt lat="30.61030091607516" lon="-8.50950371956536"><ele>449.0</ele><time>2026-04-27T15:07:24Z</time></trkpt><trkpt lat="30.610119417697526" lon="-8.509690797975187"><ele>449.0</ele><time>2026-04-27T15:07:25Z</time></trkpt><trkpt lat="30.609935545773613" lon="-8.509876305707303"><ele>449.0</ele><time>2026-04-27T15:07:26Z</time></trkpt><trkpt lat="30.609754163879657" lon="-8.510063853737375"><ele>449.0</ele><time>2026-04-27T15:07:27Z</time></trkpt><trkpt lat="30.60957445001564" lon="-8.510253434933665"><ele>449.0</ele><time>2026-04-27T15:07:28Z</time></trkpt><trkpt lat="30.609392937546904" lon="-8.510442017841504"><ele>448.5</ele><time>2026-04-27T15:07:29Z</time></trkpt><trkpt lat="30.609213738038562" lon="-8.510631517535304"><ele>448.0</ele><time>2026-04-27T15:07:30Z</time></trkpt><trkpt lat="30.60903308643017" lon="-8.510818268864586"><ele>448.0</ele><time>2026-04-27T15:07:31Z</time></trkpt><trkpt lat="30.608852638262697" lon="-8.511006409484509"><ele>448.0</ele><time>2026-04-27T15:07:32Z</time></trkpt><trkpt lat="30.608673155815925" lon="-8.511195635511568"><ele>448.0</ele><time>2026-04-27T15:07:33Z</time></trkpt><trkpt lat="30.60849355779991" lon="-8.51138563529533"><ele>448.0</ele><time>2026-04-27T15:07:34Z</time></trkpt><trkpt lat="30.60831372956424" lon="-8.511575562038564"><ele>448.0</ele><time>2026-04-27T15:07:35Z</time></trkpt><trkpt lat="30.608133240280488" lon="-8.51176822781756"><ele>448.0</ele><time>2026-04-27T15:07:36Z</time></trkpt><trkpt lat="30.607949325991644" lon="-8.511958844181606"><ele>447.5</ele><time>2026-04-27T15:07:37Z</time></trkpt><trkpt lat="30.607764392780176" lon="-8.51215006818404"><ele>447.0</ele><time>2026-04-27T15:07:38Z</time></trkpt><trkpt lat="30.607581543085995" lon="-8.512343574450968"><ele>447.0</ele><time>2026-04-27T15:07:39Z</time></trkpt><trkpt lat="30.607394858109096" lon="-8.512537163029695"><ele>447.0</ele><time>2026-04-27T15:07:40Z</time></trkpt><trkpt lat="30.60720700071793" lon="-8.512732316355885"><ele>447.0</ele><time>2026-04-27T15:07:41Z</time></trkpt><trkpt lat="30.607017946003964" lon="-8.512923747194481"><ele>447.0</ele><time>2026-04-27T15:07:42Z</time></trkpt><trkpt lat="30.606830384806166" lon="-8.513117036704978"><ele>445.5</ele><time>2026-04-27T15:07:43Z</time></trkpt><trkpt lat="30.60664405972759" lon="-8.513309946755752"><ele>444.0</ele><time>2026-04-27T15:07:44Z</time></trkpt><trkpt lat="30.606460130306264" lon="-8.513505910489807"><ele>444.0</ele><time>2026-04-27T15:07:45Z</time></trkpt><trkpt lat="30.606275036195992" lon="-8.51369943432679"><ele>444.0</ele><time>2026-04-27T15:07:46Z</time></trkpt><trkpt lat="30.606087844231126" lon="-8.513891142432842"><ele>444.0</ele><time>2026-04-27T15:07:47Z</time></trkpt><trkpt lat="30.605898798909568" lon="-8.51408366000009"><ele>444.0</ele><time>2026-04-27T15:07:48Z</time></trkpt><trkpt lat="30.605709872164855" lon="-8.514278223309752"><ele>444.0</ele><time>2026-04-27T15:07:49Z</time></trkpt><trkpt lat="30.60552253848794" lon="-8.51447781679949"><ele>444.0</ele><time>2026-04-27T15:07:50Z</time></trkpt><trkpt lat="30.605335850456257" lon="-8.514673805044488"><ele>444.0</ele><time>2026-04-27T15:07:51Z</time></trkpt><trkpt lat="30.605151433715847" lon="-8.514865253255442"><ele>444.0</ele><time>2026-04-27T15:07:52Z</time></trkpt><trkpt lat="30.604968208052973" lon="-8.515062890841872"><ele>444.0</ele><time>2026-04-27T15:07:53Z</time></trkpt><trkpt lat="30.604784866789764" lon="-8.51525405997562"><ele>444.0</ele><time>2026-04-27T15:07:54Z</time></trkpt><trkpt lat="30.604600212988995" lon="-8.515446509452971"><ele>444.0</ele><time>2026-04-27T15:07:55Z</time></trkpt><trkpt lat="30.6044130975931" lon="-8.51563775208532"><ele>444.0</ele><time>2026-04-27T15:07:56Z</time></trkpt><trkpt lat="30.60422914385412" lon="-8.515830319338582"><ele>444.0</ele><time>2026-04-27T15:07:57Z</time></trkpt><trkpt lat="30.60404762306914" lon="-8.51602152399336"><ele>444.0</ele><time>2026-04-27T15:07:58Z</time></trkpt><trkpt lat="30.60386738276391" lon="-8.51621044522799"><ele>443.5</ele><time>2026-04-27T15:07:59Z</time></trkpt><trkpt lat="30.603689955080966" lon="-8.51639535500906"><ele>443.0</ele><time>2026-04-27T15:08:00Z</time></trkpt><trkpt lat="30.603516326926545" lon="-8.516577919909963"><ele>442.5</ele><time>2026-04-27T15:08:01Z</time></trkpt><trkpt lat="30.603344548157793" lon="-8.516754828120053"><ele>442.0</ele><time>2026-04-27T15:08:02Z</time></trkpt><trkpt lat="30.603174079573705" lon="-8.516931390255033"><ele>442.33333333333337</ele><time>2026-04-27T15:08:03Z</time></trkpt><trkpt lat="30.603006570100668" lon="-8.517107185774504"><ele>442.66666666666663</ele><time>2026-04-27T15:08:04Z</time></trkpt><trkpt lat="30.602841077075613" lon="-8.517280619187407"><ele>443.0</ele><time>2026-04-27T15:08:05Z</time></trkpt><trkpt lat="30.60267418638834" lon="-8.517451876782728"><ele>443.0</ele><time>2026-04-27T15:08:06Z</time></trkpt><trkpt lat="30.602510259988836" lon="-8.517622153160357"><ele>443.0</ele><time>2026-04-27T15:08:07Z</time></trkpt><trkpt lat="30.60234494159194" lon="-8.517794696573647"><ele>443.0</ele><time>2026-04-27T15:08:08Z</time></trkpt><trkpt lat="30.602178935551297" lon="-8.517966371717606"><ele>443.0</ele><time>2026-04-27T15:08:09Z</time></trkpt><trkpt lat="30.602014866978173" lon="-8.51813861286938"><ele>443.0</ele><time>2026-04-27T15:08:10Z</time></trkpt><trkpt lat="30.601848454768994" lon="-8.518311115201781"><ele>443.0</ele><time>2026-04-27T15:08:11Z</time></trkpt><trkpt lat="30.601683089027706" lon="-8.518482752477848"><ele>441.66666666666663</ele><time>2026-04-27T15:08:12Z</time></trkpt><trkpt lat="30.601516094055707" lon="-8.518653218507554"><ele>440.33333333333337</ele><time>2026-04-27T15:08:13Z</time></trkpt><trkpt lat="30.601349935867994" lon="-8.518825176334577"><ele>439.0</ele><time>2026-04-27T15:08:14Z</time></trkpt><trkpt lat="30.60118262108161" lon="-8.51900036232021"><ele>439.0</ele><time>2026-04-27T15:08:15Z</time></trkpt><trkpt lat="30.60101674620657" lon="-8.519174966502787"><ele>439.0</ele><time>2026-04-27T15:08:16Z</time></trkpt><trkpt lat="30.60085002395331" lon="-8.519349585913968"><ele>439.0</ele><time>2026-04-27T15:08:17Z</time></trkpt><trkpt lat="30.60068276461943" lon="-8.519524649413594"><ele>438.5</ele><time>2026-04-27T15:08:18Z</time></trkpt><trkpt lat="30.600514066535016" lon="-8.519701369242735"><ele>438.0</ele><time>2026-04-27T15:08:19Z</time></trkpt><trkpt lat="30.600345081432206" lon="-8.519878856656673"><ele>437.0</ele><time>2026-04-27T15:08:20Z</time></trkpt><trkpt lat="30.600173585648346" lon="-8.520053528169909"><ele>436.0</ele><time>2026-04-27T15:08:21Z</time></trkpt><trkpt lat="30.60000019071231" lon="-8.520227675867746"><ele>437.5</ele><time>2026-04-27T15:08:22Z</time></trkpt><trkpt lat="30.599826686775337" lon="-8.52040104205963"><ele>439.0</ele><time>2026-04-27T15:08:23Z</time></trkpt><trkpt lat="30.59964951258972" lon="-8.520573495245094"><ele>437.0</ele><time>2026-04-27T15:08:24Z</time></trkpt><trkpt lat="30.59947116750892" lon="-8.520745393547044"><ele>435.0</ele><time>2026-04-27T15:08:25Z</time></trkpt><trkpt lat="30.599298568442673" lon="-8.520920954675688"><ele>435.0</ele><time>2026-04-27T15:08:26Z</time></trkpt><trkpt lat="30.599128586525133" lon="-8.52110138143014"><ele>435.0</ele><time>2026-04-27T15:08:27Z</time></trkpt><trkpt lat="30.59896254970779" lon="-8.521288253921739"><ele>434.5</ele><time>2026-04-27T15:08:28Z</time></trkpt><trkpt lat="30.598798256713486" lon="-8.521476008615656"><ele>434.0</ele><time>2026-04-27T15:08:29Z</time></trkpt><trkpt lat="30.59862965594583" lon="-8.521659575908034"><ele>434.0</ele><time>2026-04-27T15:08:30Z</time></trkpt><trkpt lat="30.598458856228827" lon="-8.52184045291221"><ele>434.0</ele><time>2026-04-27T15:08:31Z</time></trkpt><trkpt lat="30.598288021805764" lon="-8.522019931750854"><ele>434.0</ele><time>2026-04-27T15:08:32Z</time></trkpt><trkpt lat="30.59811742930828" lon="-8.522198794675457"><ele>434.0</ele><time>2026-04-27T15:08:33Z</time></trkpt><trkpt lat="30.59794724060333" lon="-8.522377075093248"><ele>434.0</ele><time>2026-04-27T15:08:34Z</time></trkpt><trkpt lat="30.597776693857377" lon="-8.522556036616654"><ele>434.0</ele><time>2026-04-27T15:08:35Z</time></trkpt><trkpt lat="30.597604917590377" lon="-8.522735808195051"><ele>434.0</ele><time>2026-04-27T15:08:36Z</time></trkpt><trkpt lat="30.597432539630663" lon="-8.522912811961286"><ele>434.0</ele><time>2026-04-27T15:08:37Z</time></trkpt><trkpt lat="30.597260160114114" lon="-8.52309161046052"><ele>434.0</ele><time>2026-04-27T15:08:38Z</time></trkpt><trkpt lat="30.597090019618584" lon="-8.523271406044625"><ele>434.0</ele><time>2026-04-27T15:08:39Z</time></trkpt><trkpt lat="30.596915028920137" lon="-8.523451620914956"><ele>434.0</ele><time>2026-04-27T15:08:40Z</time></trkpt><trkpt lat="30.596739347512347" lon="-8.523627949380389"><ele>434.0</ele><time>2026-04-27T15:08:41Z</time></trkpt><trkpt lat="30.596563677809435" lon="-8.52380596201073"><ele>432.5</ele><time>2026-04-27T15:08:42Z</time></trkpt><trkpt lat="30.596390070782583" lon="-8.523986764166175"><ele>431.0</ele><time>2026-04-27T15:08:43Z</time></trkpt><trkpt lat="30.5962159120957" lon="-8.524167869572505"><ele>431.0</ele><time>2026-04-27T15:08:44Z</time></trkpt><trkpt lat="30.596043056511277" lon="-8.524353703691972"><ele>431.0</ele><time>2026-04-27T15:08:45Z</time></trkpt><trkpt lat="30.595869131213142" lon="-8.524537737312254"><ele>431.0</ele><time>2026-04-27T15:08:46Z</time></trkpt><trkpt lat="30.59569339031492" lon="-8.524723701992649"><ele>431.0</ele><time>2026-04-27T15:08:47Z</time></trkpt><trkpt lat="30.595515242126073" lon="-8.524908702321904"><ele>430.5</ele><time>2026-04-27T15:08:48Z</time></trkpt><trkpt lat="30.59533571169827" lon="-8.525089268602455"><ele>430.0</ele><time>2026-04-27T15:08:49Z</time></trkpt><trkpt lat="30.595160483840484" lon="-8.525268184723672"><ele>430.0</ele><time>2026-04-27T15:08:50Z</time></trkpt><trkpt lat="30.594989602173605" lon="-8.525443574025644"><ele>430.0</ele><time>2026-04-27T15:08:51Z</time></trkpt><trkpt lat="30.59482419601274" lon="-8.5256137374657"><ele>430.0</ele><time>2026-04-27T15:08:52Z</time></trkpt><trkpt lat="30.594668348138136" lon="-8.525773685902035"><ele>430.0</ele><time>2026-04-27T15:08:53Z</time></trkpt><trkpt lat="30.594524237461695" lon="-8.525927482844825"><ele>430.0</ele><time>2026-04-27T15:08:54Z</time></trkpt><trkpt lat="30.594384657665575" lon="-8.526072511862221"><ele>430.0</ele><time>2026-04-27T15:08:55Z</time></trkpt><trkpt lat="30.59424514180874" lon="-8.52621722969228"><ele>430.6666666666667</ele><time>2026-04-27T15:08:56Z</time></trkpt><trkpt lat="30.59409606532227" lon="-8.526367260859812"><ele>431.33333333333337</ele><time>2026-04-27T15:08:57Z</time></trkpt><trkpt lat="30.593958997993475" lon="-8.526509179000422"><ele>432.0</ele><time>2026-04-27T15:08:58Z</time></trkpt><trkpt lat="30.593822673737627" lon="-8.526648612560425"><ele>432.0</ele><time>2026-04-27T15:08:59Z</time></trkpt><trkpt lat="30.59370026747951" lon="-8.526779204816394"><ele>432.0</ele><time>2026-04-27T15:09:00Z</time></trkpt><trkpt lat="30.593579270411137" lon="-8.526906235567882"><ele>432.0</ele><time>2026-04-27T15:09:01Z</time></trkpt><trkpt lat="30.593465628025466" lon="-8.527026475036743"><ele>431.0</ele><time>2026-04-27T15:09:02Z</time></trkpt><trkpt lat="30.593349898313253" lon="-8.527146632549401"><ele>430.0</ele><time>2026-04-27T15:09:03Z</time></trkpt><trkpt lat="30.593217335772103" lon="-8.52728003609181"><ele>429.0</ele><time>2026-04-27T15:09:04Z</time></trkpt><trkpt lat="30.593079674614515" lon="-8.527420956330893"><ele>429.0</ele><time>2026-04-27T15:09:05Z</time></trkpt><trkpt lat="30.592927973470253" lon="-8.5275771037173"><ele>429.0</ele><time>2026-04-27T15:09:06Z</time></trkpt><trkpt lat="30.59277476486507" lon="-8.527731624059715"><ele>429.0</ele><time>2026-04-27T15:09:07Z</time></trkpt><trkpt lat="30.592630430476095" lon="-8.527883172498226"><ele>428.66666666666663</ele><time>2026-04-27T15:09:08Z</time></trkpt><trkpt lat="30.59249503356564" lon="-8.528026536200894"><ele>428.3333333333333</ele><time>2026-04-27T15:09:09Z</time></trkpt><trkpt lat="30.59236437955189" lon="-8.528162523673675"><ele>428.0</ele><time>2026-04-27T15:09:10Z</time></trkpt><trkpt lat="30.59223914729448" lon="-8.528291331668559"><ele>428.0</ele><time>2026-04-27T15:09:11Z</time></trkpt><trkpt lat="30.592119832265706" lon="-8.528416604480377"><ele>428.0</ele><time>2026-04-27T15:09:12Z</time></trkpt><trkpt lat="30.592006080094375" lon="-8.528537357568318"><ele>428.0</ele><time>2026-04-27T15:09:13Z</time></trkpt><trkpt lat="30.591893929722033" lon="-8.528655438702453"><ele>427.3333333333333</ele><time>2026-04-27T15:09:14Z</time></trkpt><trkpt lat="30.591776996165127" lon="-8.52877478482743"><ele>426.66666666666663</ele><time>2026-04-27T15:09:15Z</time></trkpt><trkpt lat="30.591649106759895" lon="-8.528899598734368"><ele>426.0</ele><time>2026-04-27T15:09:16Z</time></trkpt><trkpt lat="30.591505242117286" lon="-8.52903770645538"><ele>426.0</ele><time>2026-04-27T15:09:17Z</time></trkpt><trkpt lat="30.59135324672509" lon="-8.529190150337042"><ele>426.0</ele><time>2026-04-27T15:09:18Z</time></trkpt><trkpt lat="30.591191791868017" lon="-8.529368201140398"><ele>426.0</ele><time>2026-04-27T15:09:19Z</time></trkpt><trkpt lat="30.591029644843122" lon="-8.529549744394298"><ele>426.5</ele><time>2026-04-27T15:09:20Z</time></trkpt><trkpt lat="30.59086716483846" lon="-8.52972957153149"><ele>427.0</ele><time>2026-04-27T15:09:21Z</time></trkpt><trkpt lat="30.59068827077449" lon="-8.529921279745503"><ele>427.0</ele><time>2026-04-27T15:09:22Z</time></trkpt><trkpt lat="30.59050437053537" lon="-8.530114497183916"><ele>427.0</ele><time>2026-04-27T15:09:23Z</time></trkpt><trkpt lat="30.590310580928367" lon="-8.530312916166041"><ele>426.5</ele><time>2026-04-27T15:09:24Z</time></trkpt><trkpt lat="30.590129850063835" lon="-8.530507098960356"><ele>426.0</ele><time>2026-04-27T15:09:25Z</time></trkpt><trkpt lat="30.589950153792678" lon="-8.530722065165055"><ele>426.0</ele><time>2026-04-27T15:09:26Z</time></trkpt><trkpt lat="30.589766193441065" lon="-8.530959746289303"><ele>426.0</ele><time>2026-04-27T15:09:27Z</time></trkpt><trkpt lat="30.589585397847824" lon="-8.531208825956496"><ele>425.5</ele><time>2026-04-27T15:09:28Z</time></trkpt><trkpt lat="30.58942106463548" lon="-8.531456311735873"><ele>425.0</ele><time>2026-04-27T15:09:29Z</time></trkpt><trkpt lat="30.589271868547122" lon="-8.5317041325445"><ele>425.0</ele><time>2026-04-27T15:09:30Z</time></trkpt><trkpt lat="30.58915029572531" lon="-8.531949110612452"><ele>425.0</ele><time>2026-04-27T15:09:31Z</time></trkpt><trkpt lat="30.58904418940968" lon="-8.53218623398958"><ele>424.0</ele><time>2026-04-27T15:09:32Z</time></trkpt><trkpt lat="30.588949432742687" lon="-8.53242005659732"><ele>423.0</ele><time>2026-04-27T15:09:33Z</time></trkpt><trkpt lat="30.588854119943765" lon="-8.532660792075148"><ele>423.0</ele><time>2026-04-27T15:09:34Z</time></trkpt><trkpt lat="30.588766167706353" lon="-8.532903216879491"><ele>423.0</ele><time>2026-04-27T15:09:35Z</time></trkpt><trkpt lat="30.588681326245716" lon="-8.533139926957052"><ele>423.0</ele><time>2026-04-27T15:09:36Z</time></trkpt><trkpt lat="30.58859876933469" lon="-8.533375764277254"><ele>423.0</ele><time>2026-04-27T15:09:37Z</time></trkpt><trkpt lat="30.588514087865885" lon="-8.53361332640585"><ele>423.0</ele><time>2026-04-27T15:09:38Z</time></trkpt><trkpt lat="30.588430919221032" lon="-8.533846055275541"><ele>423.0</ele><time>2026-04-27T15:09:39Z</time></trkpt><trkpt lat="30.588348793879838" lon="-8.534080658393973"><ele>421.66666666666663</ele><time>2026-04-27T15:09:40Z</time></trkpt><trkpt lat="30.58826660455305" lon="-8.534313886626713"><ele>420.3333333333333</ele><time>2026-04-27T15:09:41Z</time></trkpt><trkpt lat="30.588183405722205" lon="-8.534549700901648"><ele>419.0</ele><time>2026-04-27T15:09:42Z</time></trkpt><trkpt lat="30.588096838500828" lon="-8.534788543316068"><ele>419.0</ele><time>2026-04-27T15:09:43Z</time></trkpt><trkpt lat="30.588005730296548" lon="-8.53503182108818"><ele>419.0</ele><time>2026-04-27T15:09:44Z</time></trkpt><trkpt lat="30.58791571947769" lon="-8.535272756112821"><ele>420.0</ele><time>2026-04-27T15:09:45Z</time></trkpt><trkpt lat="30.587824207503818" lon="-8.535514065204978"><ele>421.0</ele><time>2026-04-27T15:09:46Z</time></trkpt><trkpt lat="30.587737734879635" lon="-8.535754321547724"><ele>421.0</ele><time>2026-04-27T15:09:47Z</time></trkpt><trkpt lat="30.58766180474363" lon="-8.535989836916983"><ele>421.0</ele><time>2026-04-27T15:09:48Z</time></trkpt><trkpt lat="30.587587293995412" lon="-8.536220271443685"><ele>421.0</ele><time>2026-04-27T15:09:49Z</time></trkpt><trkpt lat="30.587508949671072" lon="-8.536452128621882"><ele>421.0</ele><time>2026-04-27T15:09:50Z</time></trkpt><trkpt lat="30.58743191594933" lon="-8.536669356472006"><ele>421.0</ele><time>2026-04-27T15:09:51Z</time></trkpt><trkpt lat="30.587356930967086" lon="-8.53687763941313"><ele>421.0</ele><time>2026-04-27T15:09:52Z</time></trkpt><trkpt lat="30.58728652043448" lon="-8.537079367926976"><ele>420.0</ele><time>2026-04-27T15:09:53Z</time></trkpt><trkpt lat="30.587208358740597" lon="-8.537291743982097"><ele>419.0</ele><time>2026-04-27T15:09:54Z</time></trkpt><trkpt lat="30.587129433407714" lon="-8.53750425588527"><ele>418.0</ele><time>2026-04-27T15:09:55Z</time></trkpt><trkpt lat="30.58705324751485" lon="-8.537717616549935"><ele>418.33333333333337</ele><time>2026-04-27T15:09:56Z</time></trkpt><trkpt lat="30.586977734051086" lon="-8.537927180184143"><ele>418.66666666666663</ele><time>2026-04-27T15:09:57Z</time></trkpt><trkpt lat="30.586903889040062" lon="-8.53813545398673"><ele>419.0</ele><time>2026-04-27T15:09:58Z</time></trkpt><trkpt lat="30.586828354723416" lon="-8.53834552043148"><ele>419.0</ele><time>2026-04-27T15:09:59Z</time></trkpt><trkpt lat="30.58674919064164" lon="-8.538553900746997"><ele>419.0</ele><time>2026-04-27T15:10:00Z</time></trkpt><trkpt lat="30.58666498418283" lon="-8.538766107252526"><ele>419.0</ele><time>2026-04-27T15:10:01Z</time></trkpt><trkpt lat="30.586574627673475" lon="-8.538978869581365"><ele>418.0</ele><time>2026-04-27T15:10:02Z</time></trkpt><trkpt lat="30.586478150429244" lon="-8.539185723073459"><ele>417.0</ele><time>2026-04-27T15:10:03Z</time></trkpt><trkpt lat="30.58637451634199" lon="-8.539386372111615"><ele>416.0</ele><time>2026-04-27T15:10:04Z</time></trkpt><trkpt lat="30.58627003833354" lon="-8.53958443500428"><ele>416.0</ele><time>2026-04-27T15:10:05Z</time></trkpt><trkpt lat="30.58616019903803" lon="-8.53978737284658"><ele>416.0</ele><time>2026-04-27T15:10:06Z</time></trkpt><trkpt lat="30.586049165044734" lon="-8.539993333195312"><ele>416.0</ele><time>2026-04-27T15:10:07Z</time></trkpt><trkpt lat="30.585936084828788" lon="-8.54018866314299"><ele>416.0</ele><time>2026-04-27T15:10:08Z</time></trkpt><trkpt lat="30.585817589523533" lon="-8.540378819134785"><ele>416.0</ele><time>2026-04-27T15:10:09Z</time></trkpt><trkpt lat="30.585693090606075" lon="-8.54056192240901"><ele>416.0</ele><time>2026-04-27T15:10:10Z</time></trkpt><trkpt lat="30.585566949712035" lon="-8.540748530763052"><ele>416.0</ele><time>2026-04-27T15:10:11Z</time></trkpt><trkpt lat="30.585435643234362" lon="-8.540930710326219"><ele>416.0</ele><time>2026-04-27T15:10:12Z</time></trkpt><trkpt lat="30.585299547414756" lon="-8.5411093281346"><ele>416.0</ele><time>2026-04-27T15:10:13Z</time></trkpt><trkpt lat="30.585161729827934" lon="-8.541279185319617"><ele>415.3333333333333</ele><time>2026-04-27T15:10:14Z</time></trkpt><trkpt lat="30.58502329107875" lon="-8.541448616751799"><ele>414.66666666666663</ele><time>2026-04-27T15:10:15Z</time></trkpt><trkpt lat="30.584884910687357" lon="-8.541615766524854"><ele>414.0</ele><time>2026-04-27T15:10:16Z</time></trkpt><trkpt lat="30.58474649566492" lon="-8.54177981364192"><ele>414.0</ele><time>2026-04-27T15:10:17Z</time></trkpt><trkpt lat="30.58460798745714" lon="-8.54194314908671"><ele>414.0</ele><time>2026-04-27T15:10:18Z</time></trkpt><trkpt lat="30.58447067910975" lon="-8.54211421236698"><ele>414.0</ele><time>2026-04-27T15:10:19Z</time></trkpt><trkpt lat="30.584332075749074" lon="-8.542286003062152"><ele>414.0</ele><time>2026-04-27T15:10:20Z</time></trkpt><trkpt lat="30.584194172268916" lon="-8.542450989862521"><ele>414.0</ele><time>2026-04-27T15:10:21Z</time></trkpt><trkpt lat="30.584055244937478" lon="-8.542615254855908"><ele>414.0</ele><time>2026-04-27T15:10:22Z</time></trkpt><trkpt lat="30.583917033924468" lon="-8.542777959283287"><ele>413.66666666666663</ele><time>2026-04-27T15:10:23Z</time></trkpt><trkpt lat="30.58377780088686" lon="-8.542941313802102"><ele>413.3333333333333</ele><time>2026-04-27T15:10:24Z</time></trkpt><trkpt lat="30.583638104074314" lon="-8.543107389283556"><ele>413.0</ele><time>2026-04-27T15:10:25Z</time></trkpt><trkpt lat="30.583497696139784" lon="-8.543276426702072"><ele>413.0</ele><time>2026-04-27T15:10:26Z</time></trkpt><trkpt lat="30.58335680119478" lon="-8.543445747355214"><ele>413.0</ele><time>2026-04-27T15:10:27Z</time></trkpt><trkpt lat="30.583215103901146" lon="-8.543618600844576"><ele>413.0</ele><time>2026-04-27T15:10:28Z</time></trkpt><trkpt lat="30.583071944955595" lon="-8.543792241781748"><ele>413.0</ele><time>2026-04-27T15:10:29Z</time></trkpt><trkpt lat="30.582926178090503" lon="-8.543967794616432"><ele>413.0</ele><time>2026-04-27T15:10:30Z</time></trkpt><trkpt lat="30.582777702393678" lon="-8.544145413076"><ele>413.0</ele><time>2026-04-27T15:10:31Z</time></trkpt><trkpt lat="30.582629689566506" lon="-8.544321735251588"><ele>413.0</ele><time>2026-04-27T15:10:32Z</time></trkpt><trkpt lat="30.582480270257726" lon="-8.544495890588186"><ele>413.0</ele><time>2026-04-27T15:10:33Z</time></trkpt><trkpt lat="30.58233059491206" lon="-8.54467623613863"><ele>413.0</ele><time>2026-04-27T15:10:34Z</time></trkpt><trkpt lat="30.582181736234794" lon="-8.54485848651823"><ele>412.66666666666663</ele><time>2026-04-27T15:10:35Z</time></trkpt><trkpt lat="30.582028371925933" lon="-8.545041067491104"><ele>412.33333333333337</ele><time>2026-04-27T15:10:36Z</time></trkpt><trkpt lat="30.58187479765405" lon="-8.545226428941916"><ele>412.0</ele><time>2026-04-27T15:10:37Z</time></trkpt><trkpt lat="30.581724179749642" lon="-8.54540979645538"><ele>411.6666666666667</ele><time>2026-04-27T15:10:38Z</time></trkpt><trkpt lat="30.58156951991602" lon="-8.545591340677865"><ele>411.33333333333337</ele><time>2026-04-27T15:10:39Z</time></trkpt><trkpt lat="30.58141647641471" lon="-8.545773263412432"><ele>411.0</ele><time>2026-04-27T15:10:40Z</time></trkpt><trkpt lat="30.58126325855481" lon="-8.545955043282584"><ele>411.33333333333337</ele><time>2026-04-27T15:10:41Z</time></trkpt><trkpt lat="30.58111020991203" lon="-8.546136603539951"><ele>411.6666666666667</ele><time>2026-04-27T15:10:42Z</time></trkpt><trkpt lat="30.580957715603752" lon="-8.546319258663432"><ele>412.0</ele><time>2026-04-27T15:10:43Z</time></trkpt><trkpt lat="30.580802730729364" lon="-8.546503657368639"><ele>412.0</ele><time>2026-04-27T15:10:44Z</time></trkpt><trkpt lat="30.58064541272459" lon="-8.546691437870539"><ele>412.0</ele><time>2026-04-27T15:10:45Z</time></trkpt><trkpt lat="30.580506102015136" lon="-8.546861853243879"><ele>412.0</ele><time>2026-04-27T15:10:46Z</time></trkpt><trkpt lat="30.58037646948276" lon="-8.54702109922346"><ele>411.33333333333337</ele><time>2026-04-27T15:10:47Z</time></trkpt><trkpt lat="30.5802618036521" lon="-8.547162499204397"><ele>410.66666666666663</ele><time>2026-04-27T15:10:48Z</time></trkpt><trkpt lat="30.580160049628766" lon="-8.547286615323504"><ele>410.0</ele><time>2026-04-27T15:10:49Z</time></trkpt><trkpt lat="30.580062626119435" lon="-8.547405474383105"><ele>410.0</ele><time>2026-04-27T15:10:50Z</time></trkpt><trkpt lat="30.579970280752626" lon="-8.547515525988064"><ele>410.0</ele><time>2026-04-27T15:10:51Z</time></trkpt><trkpt lat="30.579883191597308" lon="-8.547614448103847"><ele>410.0</ele><time>2026-04-27T15:10:52Z</time></trkpt><trkpt lat="30.57979935700781" lon="-8.547712318874826"><ele>410.0</ele><time>2026-04-27T15:10:53Z</time></trkpt><trkpt lat="30.579723118479865" lon="-8.547801556218236"><ele>410.0</ele><time>2026-04-27T15:10:54Z</time></trkpt><trkpt lat="30.57964494138601" lon="-8.547895065680143"><ele>410.0</ele><time>2026-04-27T15:10:55Z</time></trkpt><trkpt lat="30.57956377015648" lon="-8.547989546829635"><ele>410.0</ele><time>2026-04-27T15:10:56Z</time></trkpt><trkpt lat="30.579480940810274" lon="-8.548084897359837"><ele>410.0</ele><time>2026-04-27T15:10:57Z</time></trkpt><trkpt lat="30.579398482962926" lon="-8.548181417058743"><ele>409.5</ele><time>2026-04-27T15:10:58Z</time></trkpt><trkpt lat="30.579317154107652" lon="-8.548278894660301"><ele>409.0</ele><time>2026-04-27T15:10:59Z</time></trkpt><trkpt lat="30.579236378092567" lon="-8.54837836939533"><ele>408.5</ele><time>2026-04-27T15:11:00Z</time></trkpt><trkpt lat="30.579148862808683" lon="-8.548485093562253"><ele>408.0</ele><time>2026-04-27T15:11:01Z</time></trkpt><trkpt lat="30.579050750961066" lon="-8.548598819007767"><ele>408.0</ele><time>2026-04-27T15:11:02Z</time></trkpt><trkpt lat="30.57895857429425" lon="-8.548708963396308"><ele>408.0</ele><time>2026-04-27T15:11:03Z</time></trkpt><trkpt lat="30.578869993925213" lon="-8.548817373513828"><ele>408.0</ele><time>2026-04-27T15:11:04Z</time></trkpt><trkpt lat="30.57878448264263" lon="-8.548924641686716"><ele>408.0</ele><time>2026-04-27T15:11:05Z</time></trkpt><trkpt lat="30.57869404311082" lon="-8.549031723681251"><ele>408.5</ele><time>2026-04-27T15:11:06Z</time></trkpt><trkpt lat="30.578604134289534" lon="-8.549141236132439"><ele>409.0</ele><time>2026-04-27T15:11:07Z</time></trkpt><trkpt lat="30.5785153158932" lon="-8.549247315389099"><ele>409.5</ele><time>2026-04-27T15:11:08Z</time></trkpt><trkpt lat="30.578428697793157" lon="-8.549350935155081"><ele>410.0</ele><time>2026-04-27T15:11:09Z</time></trkpt><trkpt lat="30.578348070655366" lon="-8.549447651384257"><ele>410.0</ele><time>2026-04-27T15:11:10Z</time></trkpt><trkpt lat="30.578271796481946" lon="-8.549539897886294"><ele>410.0</ele><time>2026-04-27T15:11:11Z</time></trkpt><trkpt lat="30.57819163665327" lon="-8.549634928281145"><ele>410.0</ele><time>2026-04-27T15:11:12Z</time></trkpt><trkpt lat="30.578105103451282" lon="-8.549733041667457"><ele>410.0</ele><time>2026-04-27T15:11:13Z</time></trkpt><trkpt lat="30.578019238037378" lon="-8.549832977918113"><ele>409.5</ele><time>2026-04-27T15:11:14Z</time></trkpt><trkpt lat="30.57793178012336" lon="-8.549936069122095"><ele>409.0</ele><time>2026-04-27T15:11:15Z</time></trkpt><trkpt lat="30.577842665147546" lon="-8.550042991153814"><ele>408.5</ele><time>2026-04-27T15:11:16Z</time></trkpt><trkpt lat="30.577754162349645" lon="-8.55014939631917"><ele>408.0</ele><time>2026-04-27T15:11:17Z</time></trkpt><trkpt lat="30.577666738000644" lon="-8.550257265818702"><ele>407.5</ele><time>2026-04-27T15:11:18Z</time></trkpt><trkpt lat="30.57758149166156" lon="-8.550360337065868"><ele>407.0</ele><time>2026-04-27T15:11:19Z</time></trkpt><trkpt lat="30.577496051107083" lon="-8.550461997625382"><ele>406.5</ele><time>2026-04-27T15:11:20Z</time></trkpt><trkpt lat="30.577411025418254" lon="-8.55056284421411"><ele>406.0</ele><time>2026-04-27T15:11:21Z</time></trkpt><trkpt lat="30.577323620833326" lon="-8.550667564821945"><ele>406.0</ele><time>2026-04-27T15:11:22Z</time></trkpt><trkpt lat="30.577230222304426" lon="-8.550774044881887"><ele>406.0</ele><time>2026-04-27T15:11:23Z</time></trkpt><trkpt lat="30.57713609964276" lon="-8.55088541071921"><ele>406.0</ele><time>2026-04-27T15:11:24Z</time></trkpt><trkpt lat="30.577037215146383" lon="-8.55100018599"><ele>406.0</ele><time>2026-04-27T15:11:25Z</time></trkpt><trkpt lat="30.576928616149466" lon="-8.551128336230011"><ele>405.6666666666667</ele><time>2026-04-27T15:11:26Z</time></trkpt><trkpt lat="30.57681314241971" lon="-8.551268165342142"><ele>405.33333333333337</ele><time>2026-04-27T15:11:27Z</time></trkpt><trkpt lat="30.576694858047325" lon="-8.55140510282149"><ele>405.0</ele><time>2026-04-27T15:11:28Z</time></trkpt><trkpt lat="30.576574078552383" lon="-8.551546195748735"><ele>405.0</ele><time>2026-04-27T15:11:29Z</time></trkpt><trkpt lat="30.576449517439222" lon="-8.551695666433039"><ele>405.0</ele><time>2026-04-27T15:11:30Z</time></trkpt><trkpt lat="30.576319004530852" lon="-8.551857981225776"><ele>405.0</ele><time>2026-04-27T15:11:31Z</time></trkpt><trkpt lat="30.576184046693207" lon="-8.552026093812957"><ele>405.0</ele><time>2026-04-27T15:11:32Z</time></trkpt><trkpt lat="30.57605233538826" lon="-8.552186104845584"><ele>405.0</ele><time>2026-04-27T15:11:33Z</time></trkpt><trkpt lat="30.575932508519788" lon="-8.55233400307529"><ele>405.0</ele><time>2026-04-27T15:11:34Z</time></trkpt><trkpt lat="30.575819684136135" lon="-8.552472612267286"><ele>405.0</ele><time>2026-04-27T15:11:35Z</time></trkpt><trkpt lat="30.575712211698498" lon="-8.552600522911042"><ele>405.0</ele><time>2026-04-27T15:11:36Z</time></trkpt><trkpt lat="30.575606577155824" lon="-8.552731370030935"><ele>405.0</ele><time>2026-04-27T15:11:37Z</time></trkpt><trkpt lat="30.575500020198454" lon="-8.552859454057254"><ele>404.66666666666663</ele><time>2026-04-27T15:11:38Z</time></trkpt><trkpt lat="30.575388607605625" lon="-8.552988709443738"><ele>404.3333333333333</ele><time>2026-04-27T15:11:39Z</time></trkpt><trkpt lat="30.575275667252676" lon="-8.553121772155968"><ele>404.0</ele><time>2026-04-27T15:11:40Z</time></trkpt><trkpt lat="30.575160914391752" lon="-8.553256196778115"><ele>404.0</ele><time>2026-04-27T15:11:41Z</time></trkpt><trkpt lat="30.575045057475982" lon="-8.553391229919246"><ele>404.0</ele><time>2026-04-27T15:11:42Z</time></trkpt><trkpt lat="30.57493310810023" lon="-8.553527827230356"><ele>404.0</ele><time>2026-04-27T15:11:43Z</time></trkpt><trkpt lat="30.5748197532672" lon="-8.55366647845117"><ele>404.3333333333333</ele><time>2026-04-27T15:11:44Z</time></trkpt><trkpt lat="30.574705127193738" lon="-8.553806171489484"><ele>404.66666666666663</ele><time>2026-04-27T15:11:45Z</time></trkpt><trkpt lat="30.574586106838627" lon="-8.55394930541829"><ele>405.0</ele><time>2026-04-27T15:11:46Z</time></trkpt><trkpt lat="30.574462803446714" lon="-8.554098447493361"><ele>404.0</ele><time>2026-04-27T15:11:47Z</time></trkpt><trkpt lat="30.574338261494002" lon="-8.554249213413792"><ele>403.0</ele><time>2026-04-27T15:11:48Z</time></trkpt><trkpt lat="30.57421536395296" lon="-8.554399000171436"><ele>402.0</ele><time>2026-04-27T15:11:49Z</time></trkpt><trkpt lat="30.574090670421274" lon="-8.554547662494633"><ele>402.0</ele><time>2026-04-27T15:11:50Z</time></trkpt><trkpt lat="30.573960116310655" lon="-8.554699389124158"><ele>402.0</ele><time>2026-04-27T15:11:51Z</time></trkpt><trkpt lat="30.573835988405126" lon="-8.554846731943583"><ele>402.0</ele><time>2026-04-27T15:11:52Z</time></trkpt><trkpt lat="30.57371342499051" lon="-8.554994282343264"><ele>401.33333333333337</ele><time>2026-04-27T15:11:53Z</time></trkpt><trkpt lat="30.573596717948263" lon="-8.555136178372189"><ele>400.6666666666667</ele><time>2026-04-27T15:11:54Z</time></trkpt><trkpt lat="30.57347914606552" lon="-8.555278209302331"><ele>400.0</ele><time>2026-04-27T15:11:55Z</time></trkpt><trkpt lat="30.573360799555548" lon="-8.555415678576237"><ele>400.0</ele><time>2026-04-27T15:11:56Z</time></trkpt><trkpt lat="30.573241844494" lon="-8.555553989642258"><ele>400.0</ele><time>2026-04-27T15:11:57Z</time></trkpt><trkpt lat="30.57312394071976" lon="-8.555694493981134"><ele>400.0</ele><time>2026-04-27T15:11:58Z</time></trkpt><trkpt lat="30.573006493707023" lon="-8.55583715085056"><ele>400.0</ele><time>2026-04-27T15:11:59Z</time></trkpt><trkpt lat="30.572890086541463" lon="-8.555979556869824"><ele>400.0</ele><time>2026-04-27T15:12:00Z</time></trkpt><trkpt lat="30.572782813745114" lon="-8.556115359899586"><ele>400.0</ele><time>2026-04-27T15:12:01Z</time></trkpt><trkpt lat="30.572677856737478" lon="-8.556248295499925"><ele>399.6666666666667</ele><time>2026-04-27T15:12:02Z</time></trkpt><trkpt lat="30.57257135785244" lon="-8.55638044721313"><ele>399.33333333333337</ele><time>2026-04-27T15:12:03Z</time></trkpt><trkpt lat="30.572466378948377" lon="-8.556520590366548"><ele>399.0</ele><time>2026-04-27T15:12:04Z</time></trkpt><trkpt lat="30.57236329440446" lon="-8.55666189909446"><ele>399.0</ele><time>2026-04-27T15:12:05Z</time></trkpt><trkpt lat="30.572262543152153" lon="-8.556806140054356"><ele>399.0</ele><time>2026-04-27T15:12:06Z</time></trkpt><trkpt lat="30.57216710689997" lon="-8.556949133584222"><ele>399.0</ele><time>2026-04-27T15:12:07Z</time></trkpt><trkpt lat="30.572078909506118" lon="-8.557087843701494"><ele>399.33333333333337</ele><time>2026-04-27T15:12:08Z</time></trkpt><trkpt lat="30.571990253963857" lon="-8.557227105516798"><ele>399.6666666666667</ele><time>2026-04-27T15:12:09Z</time></trkpt><trkpt lat="30.57190244997363" lon="-8.557369554570062"><ele>400.0</ele><time>2026-04-27T15:12:10Z</time></trkpt><trkpt lat="30.571817889267127" lon="-8.557513128294294"><ele>400.0</ele><time>2026-04-27T15:12:11Z</time></trkpt><trkpt lat="30.571734403995404" lon="-8.557659023774427"><ele>400.0</ele><time>2026-04-27T15:12:12Z</time></trkpt><trkpt lat="30.571648616843195" lon="-8.557804466353598"><ele>400.0</ele><time>2026-04-27T15:12:13Z</time></trkpt><trkpt lat="30.571563430720364" lon="-8.557956294358194"><ele>398.6666666666667</ele><time>2026-04-27T15:12:14Z</time></trkpt><trkpt lat="30.57148055480741" lon="-8.558117121344665"><ele>397.33333333333337</ele><time>2026-04-27T15:12:15Z</time></trkpt><trkpt lat="30.571400396565274" lon="-8.55828709573278"><ele>396.0</ele><time>2026-04-27T15:12:16Z</time></trkpt><trkpt lat="30.57132216315213" lon="-8.558463839446217"><ele>396.0</ele><time>2026-04-27T15:12:17Z</time></trkpt><trkpt lat="30.571245085479323" lon="-8.558644166619786"><ele>396.0</ele><time>2026-04-27T15:12:18Z</time></trkpt><trkpt lat="30.57116872713217" lon="-8.558824918566955"><ele>396.0</ele><time>2026-04-27T15:12:19Z</time></trkpt><trkpt lat="30.571095907458343" lon="-8.55900861043356"><ele>396.33333333333337</ele><time>2026-04-27T15:12:20Z</time></trkpt><trkpt lat="30.571023608164687" lon="-8.559205812612213"><ele>396.6666666666667</ele><time>2026-04-27T15:12:21Z</time></trkpt><trkpt lat="30.570954985512675" lon="-8.55940866366906"><ele>397.0</ele><time>2026-04-27T15:12:22Z</time></trkpt><trkpt lat="30.57088961813038" lon="-8.559616114251236"><ele>397.0</ele><time>2026-04-27T15:12:23Z</time></trkpt><trkpt lat="30.570825262964824" lon="-8.55982207747384"><ele>397.0</ele><time>2026-04-27T15:12:24Z</time></trkpt><trkpt lat="30.570759063505562" lon="-8.5600282622832"><ele>397.0</ele><time>2026-04-27T15:12:25Z</time></trkpt><trkpt lat="30.57069436122075" lon="-8.560235598752879"><ele>397.0</ele><time>2026-04-27T15:12:25.999Z</time></trkpt><trkpt lat="30.57062626868987" lon="-8.560439090351286"><ele>397.0</ele><time>2026-04-27T15:12:26.999Z</time></trkpt><trkpt lat="30.57055962543992" lon="-8.560645903119623"><ele>397.0</ele><time>2026-04-27T15:12:27.999Z</time></trkpt><trkpt lat="30.570491748989618" lon="-8.560846799198378"><ele>397.0</ele><time>2026-04-27T15:12:28.999Z</time></trkpt><trkpt lat="30.57042757998116" lon="-8.561050105484938"><ele>397.0</ele><time>2026-04-27T15:12:29.999Z</time></trkpt><trkpt lat="30.570364270588065" lon="-8.561251832836156"><ele>397.0</ele><time>2026-04-27T15:12:30.999Z</time></trkpt><trkpt lat="30.570301618542445" lon="-8.56145514000637"><ele>397.0</ele><time>2026-04-27T15:12:31.999Z</time></trkpt><trkpt lat="30.570237376611917" lon="-8.561659514064521"><ele>397.0</ele><time>2026-04-27T15:12:32.999Z</time></trkpt><trkpt lat="30.570172936507056" lon="-8.56186427086636"><ele>397.0</ele><time>2026-04-27T15:12:33.999Z</time></trkpt><trkpt lat="30.570108665291" lon="-8.562066690796687"><ele>396.33333333333337</ele><time>2026-04-27T15:12:34.999Z</time></trkpt><trkpt lat="30.570043226911366" lon="-8.562274983331372"><ele>395.66666666666663</ele><time>2026-04-27T15:12:35.999Z</time></trkpt><trkpt lat="30.569976378651518" lon="-8.562483097243705"><ele>395.0</ele><time>2026-04-27T15:12:36.999Z</time></trkpt><trkpt lat="30.56990938669424" lon="-8.562692315313061"><ele>394.3333333333333</ele><time>2026-04-27T15:12:37.999Z</time></trkpt><trkpt lat="30.569842222513145" lon="-8.5628967067001"><ele>393.66666666666663</ele><time>2026-04-27T15:12:38.999Z</time></trkpt><trkpt lat="30.569779500690803" lon="-8.563092587312765"><ele>393.0</ele><time>2026-04-27T15:12:39.999Z</time></trkpt><trkpt lat="30.56972030391467" lon="-8.563278183306581"><ele>393.0</ele><time>2026-04-27T15:12:40.999Z</time></trkpt><trkpt lat="30.5696631216182" lon="-8.563461778008836"><ele>393.0</ele><time>2026-04-27T15:12:41.999Z</time></trkpt><trkpt lat="30.569605433288938" lon="-8.563649253700751"><ele>393.0</ele><time>2026-04-27T15:12:42.999Z</time></trkpt><trkpt lat="30.569545695572643" lon="-8.563834906219858"><ele>393.66666666666663</ele><time>2026-04-27T15:12:43.999Z</time></trkpt><trkpt lat="30.569485119660165" lon="-8.564020216405275"><ele>394.3333333333333</ele><time>2026-04-27T15:12:44.999Z</time></trkpt><trkpt lat="30.56942537004427" lon="-8.564207642518554"><ele>395.0</ele><time>2026-04-27T15:12:45.999Z</time></trkpt><trkpt lat="30.569366899447765" lon="-8.564390933227516"><ele>394.0</ele><time>2026-04-27T15:12:46.999Z</time></trkpt><trkpt lat="30.569311652445705" lon="-8.564563537639037"><ele>393.0</ele><time>2026-04-27T15:12:47.999Z</time></trkpt><trkpt lat="30.569261254886737" lon="-8.56473288193366"><ele>392.0</ele><time>2026-04-27T15:12:48.999Z</time></trkpt><trkpt lat="30.569208468106297" lon="-8.564901749335931"><ele>392.0</ele><time>2026-04-27T15:12:49.999Z</time></trkpt><trkpt lat="30.56915455403581" lon="-8.565073929405834"><ele>392.0</ele><time>2026-04-27T15:12:50.999Z</time></trkpt><trkpt lat="30.56909877430376" lon="-8.56524452887744"><ele>392.0</ele><time>2026-04-27T15:12:51.999Z</time></trkpt><trkpt lat="30.569043830064604" lon="-8.56541714584113"><ele>392.0</ele><time>2026-04-27T15:12:52.999Z</time></trkpt><trkpt lat="30.56898786943505" lon="-8.565587531392728"><ele>392.0</ele><time>2026-04-27T15:12:53.999Z</time></trkpt><trkpt lat="30.56888917148544" lon="-8.565904110893758"><ele>392.0</ele><time>2026-04-27T15:12:55.999Z</time></trkpt><trkpt lat="30.56884298201335" lon="-8.566056897811723"><ele>392.0</ele><time>2026-04-27T15:12:56.999Z</time></trkpt><trkpt lat="30.568796020781907" lon="-8.566211334733483"><ele>392.0</ele><time>2026-04-27T15:12:57.999Z</time></trkpt><trkpt lat="30.568749752693044" lon="-8.566360331242416"><ele>392.0</ele><time>2026-04-27T15:12:58.999Z</time></trkpt><trkpt lat="30.56870362137484" lon="-8.56650743446724"><ele>392.0</ele><time>2026-04-27T15:13:00Z</time></trkpt><trkpt lat="30.5686596289125" lon="-8.566648691912297"><ele>392.25</ele><time>2026-04-27T15:13:01Z</time></trkpt><trkpt lat="30.568617381465934" lon="-8.566781846916529"><ele>392.5</ele><time>2026-04-27T15:13:02Z</time></trkpt><trkpt lat="30.56857484222638" lon="-8.5669098304181"><ele>392.75</ele><time>2026-04-27T15:13:03Z</time></trkpt><trkpt lat="30.568530516871213" lon="-8.567041183867046"><ele>393.0</ele><time>2026-04-27T15:13:04Z</time></trkpt><trkpt lat="30.56848631112907" lon="-8.567174906912902"><ele>393.0</ele><time>2026-04-27T15:13:05Z</time></trkpt><trkpt lat="30.56844207997953" lon="-8.567314389934902"><ele>393.0</ele><time>2026-04-27T15:13:06Z</time></trkpt><trkpt lat="30.56839684787206" lon="-8.567456740961504"><ele>393.0</ele><time>2026-04-27T15:13:07Z</time></trkpt><trkpt lat="30.568350311933724" lon="-8.567603783984811"><ele>393.0</ele><time>2026-04-27T15:13:08Z</time></trkpt><trkpt lat="30.568300697856618" lon="-8.567751987700033"><ele>392.33333333333337</ele><time>2026-04-27T15:13:09Z</time></trkpt><trkpt lat="30.56825038472552" lon="-8.567912680625"><ele>391.6666666666667</ele><time>2026-04-27T15:13:10Z</time></trkpt><trkpt lat="30.568198152333462" lon="-8.56807884655219"><ele>391.0</ele><time>2026-04-27T15:13:11Z</time></trkpt><trkpt lat="30.56814351365407" lon="-8.568250683727593"><ele>391.0</ele><time>2026-04-27T15:13:12Z</time></trkpt><trkpt lat="30.568085820030912" lon="-8.568432171138129"><ele>391.0</ele><time>2026-04-27T15:13:13Z</time></trkpt><trkpt lat="30.568029341803385" lon="-8.568618207280904"><ele>391.0</ele><time>2026-04-27T15:13:14Z</time></trkpt><trkpt lat="30.567970514617667" lon="-8.568807779353888"><ele>390.33333333333337</ele><time>2026-04-27T15:13:15Z</time></trkpt><trkpt lat="30.567913581148964" lon="-8.568992691380352"><ele>389.66666666666663</ele><time>2026-04-27T15:13:16Z</time></trkpt><trkpt lat="30.56785966791525" lon="-8.569163589276888"><ele>389.0</ele><time>2026-04-27T15:13:17Z</time></trkpt><trkpt lat="30.56780429005216" lon="-8.56933080553917"><ele>389.0</ele><time>2026-04-27T15:13:18Z</time></trkpt><trkpt lat="30.567750137105204" lon="-8.569498211514414"><ele>389.0</ele><time>2026-04-27T15:13:19Z</time></trkpt><trkpt lat="30.567696411553495" lon="-8.569668188581256"><ele>389.0</ele><time>2026-04-27T15:13:20Z</time></trkpt><trkpt lat="30.56764157931016" lon="-8.569836938313928"><ele>389.0</ele><time>2026-04-27T15:13:21Z</time></trkpt><trkpt lat="30.567586703804633" lon="-8.57000393006478"><ele>389.0</ele><time>2026-04-27T15:13:22Z</time></trkpt><trkpt lat="30.56753256685058" lon="-8.570173571707107"><ele>389.0</ele><time>2026-04-27T15:13:23Z</time></trkpt><trkpt lat="30.56748027327984" lon="-8.570344432481358"><ele>389.3333333333333</ele><time>2026-04-27T15:13:24Z</time></trkpt><trkpt lat="30.567423951153962" lon="-8.570518625508383"><ele>389.66666666666663</ele><time>2026-04-27T15:13:25Z</time></trkpt><trkpt lat="30.56736892644737" lon="-8.570694935760374"><ele>390.0</ele><time>2026-04-27T15:13:26Z</time></trkpt><trkpt lat="30.567314815538708" lon="-8.570869783691117"><ele>390.0</ele><time>2026-04-27T15:13:27Z</time></trkpt><trkpt lat="30.567257968983675" lon="-8.571045690528377"><ele>390.0</ele><time>2026-04-27T15:13:28Z</time></trkpt><trkpt lat="30.56720235505502" lon="-8.571218840219707"><ele>390.0</ele><time>2026-04-27T15:13:29Z</time></trkpt><trkpt lat="30.56714344606947" lon="-8.571394996267323"><ele>389.66666666666663</ele><time>2026-04-27T15:13:30Z</time></trkpt><trkpt lat="30.567085874356245" lon="-8.571574527151125"><ele>389.3333333333333</ele><time>2026-04-27T15:13:31Z</time></trkpt><trkpt lat="30.567029828609527" lon="-8.571752759659148"><ele>389.0</ele><time>2026-04-27T15:13:32Z</time></trkpt><trkpt lat="30.566971236271858" lon="-8.571930040143018"><ele>389.3333333333333</ele><time>2026-04-27T15:13:33Z</time></trkpt><trkpt lat="30.566914942908962" lon="-8.57210635360722"><ele>389.66666666666663</ele><time>2026-04-27T15:13:34Z</time></trkpt><trkpt lat="30.566857487182656" lon="-8.572283184504556"><ele>390.0</ele><time>2026-04-27T15:13:35Z</time></trkpt><trkpt lat="30.566799513925734" lon="-8.572460630631719"><ele>390.0</ele><time>2026-04-27T15:13:36Z</time></trkpt><trkpt lat="30.56674415712934" lon="-8.572635204283841"><ele>390.0</ele><time>2026-04-27T15:13:37Z</time></trkpt><trkpt lat="30.566685457343468" lon="-8.572816318952466"><ele>390.0</ele><time>2026-04-27T15:13:38Z</time></trkpt><trkpt lat="30.566627259469865" lon="-8.572997621985404"><ele>389.66666666666663</ele><time>2026-04-27T15:13:39Z</time></trkpt><trkpt lat="30.566568763886266" lon="-8.573178952825657"><ele>389.3333333333333</ele><time>2026-04-27T15:13:40Z</time></trkpt><trkpt lat="30.56651193231522" lon="-8.573366290478727"><ele>389.0</ele><time>2026-04-27T15:13:41Z</time></trkpt><trkpt lat="30.56645305602278" lon="-8.573561200616632"><ele>388.66666666666663</ele><time>2026-04-27T15:13:42Z</time></trkpt><trkpt lat="30.566388271537157" lon="-8.573767969358254"><ele>388.33333333333337</ele><time>2026-04-27T15:13:43Z</time></trkpt><trkpt lat="30.56632050316229" lon="-8.573979348665098"><ele>388.0</ele><time>2026-04-27T15:13:44Z</time></trkpt><trkpt lat="30.5662478046702" lon="-8.57419721204765"><ele>387.6666666666667</ele><time>2026-04-27T15:13:45Z</time></trkpt><trkpt lat="30.566176323594952" lon="-8.57441717675958"><ele>387.33333333333337</ele><time>2026-04-27T15:13:46Z</time></trkpt><trkpt lat="30.566103849403987" lon="-8.574640776250698"><ele>387.0</ele><time>2026-04-27T15:13:47Z</time></trkpt><trkpt lat="30.56603245418059" lon="-8.574871199645964"><ele>386.66666666666663</ele><time>2026-04-27T15:13:48Z</time></trkpt><trkpt lat="30.56595907282807" lon="-8.575100904525263"><ele>386.3333333333333</ele><time>2026-04-27T15:13:49Z</time></trkpt><trkpt lat="30.56588266232086" lon="-8.575330736343153"><ele>386.0</ele><time>2026-04-27T15:13:50Z</time></trkpt><trkpt lat="30.565803950928093" lon="-8.575560066211096"><ele>386.0</ele><time>2026-04-27T15:13:51Z</time></trkpt><trkpt lat="30.565723971447532" lon="-8.575790182830739"><ele>386.0</ele><time>2026-04-27T15:13:52Z</time></trkpt><trkpt lat="30.56564659834396" lon="-8.576024657151892"><ele>386.0</ele><time>2026-04-27T15:13:53Z</time></trkpt><trkpt lat="30.565570702426534" lon="-8.576258206625017"><ele>386.0</ele><time>2026-04-27T15:13:54Z</time></trkpt><trkpt lat="30.565494408324813" lon="-8.576494376238585"><ele>386.0</ele><time>2026-04-27T15:13:55Z</time></trkpt><trkpt lat="30.565422517046606" lon="-8.576732405594745"><ele>386.0</ele><time>2026-04-27T15:13:56Z</time></trkpt><trkpt lat="30.565350070750895" lon="-8.576971869328947"><ele>385.0</ele><time>2026-04-27T15:13:57Z</time></trkpt><trkpt lat="30.565278597671597" lon="-8.577209848056572"><ele>384.0</ele><time>2026-04-27T15:13:58Z</time></trkpt><trkpt lat="30.565205968586426" lon="-8.577444420948654"><ele>383.0</ele><time>2026-04-27T15:13:59Z</time></trkpt><trkpt lat="30.565131037071886" lon="-8.577675928821035"><ele>383.0</ele><time>2026-04-27T15:14:00Z</time></trkpt><trkpt lat="30.56505856391325" lon="-8.577907402840493"><ele>383.0</ele><time>2026-04-27T15:14:01Z</time></trkpt><trkpt lat="30.564984948093276" lon="-8.57813711669525"><ele>383.0</ele><time>2026-04-27T15:14:02Z</time></trkpt><trkpt lat="30.564912545070953" lon="-8.578367035119687"><ele>383.0</ele><time>2026-04-27T15:14:03Z</time></trkpt><trkpt lat="30.564836795311358" lon="-8.57859463900782"><ele>383.0</ele><time>2026-04-27T15:14:04Z</time></trkpt><trkpt lat="30.564764939206803" lon="-8.578824035943576"><ele>383.0</ele><time>2026-04-27T15:14:05Z</time></trkpt><trkpt lat="30.564689308795188" lon="-8.579057549828526"><ele>383.5</ele><time>2026-04-27T15:14:06Z</time></trkpt><trkpt lat="30.564611003642558" lon="-8.579298599708"><ele>384.0</ele><time>2026-04-27T15:14:07Z</time></trkpt><trkpt lat="30.56453017229602" lon="-8.579547308437524"><ele>383.0</ele><time>2026-04-27T15:14:08Z</time></trkpt><trkpt lat="30.564450309908057" lon="-8.579799908198392"><ele>382.0</ele><time>2026-04-27T15:14:09Z</time></trkpt><trkpt lat="30.564370500291897" lon="-8.580057079307597"><ele>382.0</ele><time>2026-04-27T15:14:10Z</time></trkpt><trkpt lat="30.564289842889565" lon="-8.580315626561376"><ele>382.0</ele><time>2026-04-27T15:14:11Z</time></trkpt><trkpt lat="30.5642052094322" lon="-8.580572294369453"><ele>381.5</ele><time>2026-04-27T15:14:12Z</time></trkpt><trkpt lat="30.56412061080577" lon="-8.580828450526694"><ele>381.0</ele><time>2026-04-27T15:14:13Z</time></trkpt><trkpt lat="30.564039332678448" lon="-8.58108560075329"><ele>381.5</ele><time>2026-04-27T15:14:14Z</time></trkpt><trkpt lat="30.563961269161005" lon="-8.581341582856782"><ele>382.0</ele><time>2026-04-27T15:14:15Z</time></trkpt><trkpt lat="30.56388295200579" lon="-8.581597993612963"><ele>382.0</ele><time>2026-04-27T15:14:16Z</time></trkpt><trkpt lat="30.563803403046958" lon="-8.581854689134149"><ele>382.0</ele><time>2026-04-27T15:14:17Z</time></trkpt><trkpt lat="30.563718336181697" lon="-8.582109482283748"><ele>380.0</ele><time>2026-04-27T15:14:18Z</time></trkpt><trkpt lat="30.56363503842425" lon="-8.582368185465993"><ele>378.0</ele><time>2026-04-27T15:14:19Z</time></trkpt><trkpt lat="30.56355606525203" lon="-8.582620498186305"><ele>378.5</ele><time>2026-04-27T15:14:20Z</time></trkpt><trkpt lat="30.56347551272177" lon="-8.58287903773878"><ele>379.0</ele><time>2026-04-27T15:14:21Z</time></trkpt><trkpt lat="30.563393256634587" lon="-8.583137495729234"><ele>379.0</ele><time>2026-04-27T15:14:22Z</time></trkpt><trkpt lat="30.563306831741578" lon="-8.583391772562827"><ele>379.0</ele><time>2026-04-27T15:14:23Z</time></trkpt><trkpt lat="30.56321973272029" lon="-8.583645779685181"><ele>378.5</ele><time>2026-04-27T15:14:24Z</time></trkpt><trkpt lat="30.563130669041108" lon="-8.583916041385661"><ele>378.0</ele><time>2026-04-27T15:14:25Z</time></trkpt><trkpt lat="30.563037581916248" lon="-8.584201350740054"><ele>378.0</ele><time>2026-04-27T15:14:26Z</time></trkpt><trkpt lat="30.562941191739252" lon="-8.584504420050626"><ele>378.0</ele><time>2026-04-27T15:14:27Z</time></trkpt><trkpt lat="30.562845049596543" lon="-8.58481064434882"><ele>377.0</ele><time>2026-04-27T15:14:28Z</time></trkpt><trkpt lat="30.562748220306492" lon="-8.585109260614463"><ele>376.0</ele><time>2026-04-27T15:14:29Z</time></trkpt><trkpt lat="30.56265280715096" lon="-8.585406149326513"><ele>376.0</ele><time>2026-04-27T15:14:30Z</time></trkpt><trkpt lat="30.562553664108503" lon="-8.585704627485892"><ele>376.0</ele><time>2026-04-27T15:14:31Z</time></trkpt><trkpt lat="30.562449663737542" lon="-8.586006743437139"><ele>375.0</ele><time>2026-04-27T15:14:31.999Z</time></trkpt><trkpt lat="30.562348588192755" lon="-8.586312702119859"><ele>374.0</ele><time>2026-04-27T15:14:32.999Z</time></trkpt><trkpt lat="30.56225534004777" lon="-8.58660967147821"><ele>374.0</ele><time>2026-04-27T15:14:33.999Z</time></trkpt><trkpt lat="30.562170824398642" lon="-8.586898242391133"><ele>374.0</ele><time>2026-04-27T15:14:34.999Z</time></trkpt><trkpt lat="30.56208574217405" lon="-8.587197069151703"><ele>373.0</ele><time>2026-04-27T15:14:35.999Z</time></trkpt><trkpt lat="30.561999691209515" lon="-8.587481016561746"><ele>372.0</ele><time>2026-04-27T15:14:36.999Z</time></trkpt><trkpt lat="30.561918751942795" lon="-8.58773637252247"><ele>372.3333333333333</ele><time>2026-04-27T15:14:37.999Z</time></trkpt><trkpt lat="30.561839392098808" lon="-8.587985645090486"><ele>372.66666666666663</ele><time>2026-04-27T15:14:38.999Z</time></trkpt><trkpt lat="30.56176362257381" lon="-8.588217497842562"><ele>373.0</ele><time>2026-04-27T15:14:39.999Z</time></trkpt><trkpt lat="30.561692946806" lon="-8.588443052974553"><ele>374.0</ele><time>2026-04-27T15:14:40.999Z</time></trkpt><trkpt lat="30.561619649088673" lon="-8.58868386234106"><ele>375.0</ele><time>2026-04-27T15:14:41.999Z</time></trkpt><trkpt lat="30.561539854332334" lon="-8.58894470834602"><ele>375.0</ele><time>2026-04-27T15:14:42.999Z</time></trkpt><trkpt lat="30.561451330090676" lon="-8.589217277455523"><ele>375.0</ele><time>2026-04-27T15:14:43.999Z</time></trkpt><trkpt lat="30.561362945437644" lon="-8.589498498998159"><ele>376.0</ele><time>2026-04-27T15:14:44.999Z</time></trkpt><trkpt lat="30.5612689800978" lon="-8.589776963823617"><ele>377.0</ele><time>2026-04-27T15:14:45.999Z</time></trkpt><trkpt lat="30.5611764815783" lon="-8.590059441085"><ele>377.0</ele><time>2026-04-27T15:14:46.999Z</time></trkpt><trkpt lat="30.561090170935874" lon="-8.590339414852432"><ele>377.0</ele><time>2026-04-27T15:14:47.999Z</time></trkpt><trkpt lat="30.56100434379323" lon="-8.59061725182322"><ele>377.5</ele><time>2026-04-27T15:14:49Z</time></trkpt><trkpt lat="30.560920570396988" lon="-8.590891816658695"><ele>378.0</ele><time>2026-04-27T15:14:50Z</time></trkpt><trkpt lat="30.560831219091497" lon="-8.591167214569078"><ele>377.5</ele><time>2026-04-27T15:14:51Z</time></trkpt><trkpt lat="30.56073949698271" lon="-8.591438677980628"><ele>377.0</ele><time>2026-04-27T15:14:52Z</time></trkpt><trkpt lat="30.560654782946965" lon="-8.591706181950588"><ele>377.0</ele><time>2026-04-27T15:14:53Z</time></trkpt><trkpt lat="30.56057143545468" lon="-8.591973056556174"><ele>377.0</ele><time>2026-04-27T15:14:54Z</time></trkpt><trkpt lat="30.56048714238274" lon="-8.592237376241073"><ele>375.5</ele><time>2026-04-27T15:14:55Z</time></trkpt><trkpt lat="30.560402872189076" lon="-8.592500484834764"><ele>374.0</ele><time>2026-04-27T15:14:56Z</time></trkpt><trkpt lat="30.56031796622112" lon="-8.592761616617913"><ele>374.0</ele><time>2026-04-27T15:14:57Z</time></trkpt><trkpt lat="30.560230792361317" lon="-8.593024205655638"><ele>374.0</ele><time>2026-04-27T15:14:58Z</time></trkpt><trkpt lat="30.56014552553302" lon="-8.593288202481425"><ele>374.0</ele><time>2026-04-27T15:14:59Z</time></trkpt><trkpt lat="30.560063269958736" lon="-8.593544247726129"><ele>374.0</ele><time>2026-04-27T15:15:00Z</time></trkpt><trkpt lat="30.559990403269843" lon="-8.593784232292531"><ele>374.0</ele><time>2026-04-27T15:15:01Z</time></trkpt><trkpt lat="30.559920679152672" lon="-8.594009895608794"><ele>374.0</ele><time>2026-04-27T15:15:02Z</time></trkpt><trkpt lat="30.559853228029528" lon="-8.59422502441111"><ele>374.0</ele><time>2026-04-27T15:15:03Z</time></trkpt><trkpt lat="30.559787515136534" lon="-8.594434675496133"><ele>373.33333333333337</ele><time>2026-04-27T15:15:04Z</time></trkpt><trkpt lat="30.559718280082546" lon="-8.594651832796234"><ele>372.6666666666667</ele><time>2026-04-27T15:15:05Z</time></trkpt><trkpt lat="30.55964311984844" lon="-8.59488635940865"><ele>372.0</ele><time>2026-04-27T15:15:06Z</time></trkpt><trkpt lat="30.559567880442643" lon="-8.59511317253982"><ele>372.0</ele><time>2026-04-27T15:15:07Z</time></trkpt><trkpt lat="30.55949603369754" lon="-8.595336411309582"><ele>372.0</ele><time>2026-04-27T15:15:08Z</time></trkpt><trkpt lat="30.55942575571079" lon="-8.595559186204225"><ele>372.0</ele><time>2026-04-27T15:15:09Z</time></trkpt><trkpt lat="30.559360315400472" lon="-8.5957719640756"><ele>372.0</ele><time>2026-04-27T15:15:10Z</time></trkpt><trkpt lat="30.559299877422422" lon="-8.595967776582544"><ele>372.0</ele><time>2026-04-27T15:15:11Z</time></trkpt><trkpt lat="30.559238162709853" lon="-8.596158587554457"><ele>372.0</ele><time>2026-04-27T15:15:12Z</time></trkpt><trkpt lat="30.559174194098556" lon="-8.596356002212985"><ele>371.6666666666667</ele><time>2026-04-27T15:15:13Z</time></trkpt><trkpt lat="30.559110083273563" lon="-8.596559684753498"><ele>371.33333333333337</ele><time>2026-04-27T15:15:14Z</time></trkpt><trkpt lat="30.55904005156861" lon="-8.596776358616488"><ele>371.0</ele><time>2026-04-27T15:15:15Z</time></trkpt><trkpt lat="30.558964302338115" lon="-8.597003738867146"><ele>371.0</ele><time>2026-04-27T15:15:16Z</time></trkpt><trkpt lat="30.55888284170941" lon="-8.597236447751923"><ele>371.0</ele><time>2026-04-27T15:15:17Z</time></trkpt><trkpt lat="30.55880517762481" lon="-8.597472613887488"><ele>371.0</ele><time>2026-04-27T15:15:18Z</time></trkpt><trkpt lat="30.558725946617603" lon="-8.59770721101553"><ele>370.5</ele><time>2026-04-27T15:15:19Z</time></trkpt><trkpt lat="30.558642402985548" lon="-8.597951762356853"><ele>370.0</ele><time>2026-04-27T15:15:20Z</time></trkpt><trkpt lat="30.558554884024222" lon="-8.598208239078392"><ele>370.0</ele><time>2026-04-27T15:15:21Z</time></trkpt><trkpt lat="30.5584659125258" lon="-8.598470720709491"><ele>370.0</ele><time>2026-04-27T15:15:22Z</time></trkpt><trkpt lat="30.558385706576132" lon="-8.59872495053139"><ele>370.3333333333333</ele><time>2026-04-27T15:15:23Z</time></trkpt><trkpt lat="30.558309880869842" lon="-8.598963278523309"><ele>370.6666666666667</ele><time>2026-04-27T15:15:24Z</time></trkpt><trkpt lat="30.5582323276034" lon="-8.599198499277955"><ele>371.0</ele><time>2026-04-27T15:15:25Z</time></trkpt><trkpt lat="30.558150394800943" lon="-8.599448142606914"><ele>371.0</ele><time>2026-04-27T15:15:26Z</time></trkpt><trkpt lat="30.558066385271104" lon="-8.599722909771584"><ele>371.0</ele><time>2026-04-27T15:15:27Z</time></trkpt><trkpt lat="30.5579776443205" lon="-8.600021213914058"><ele>371.0</ele><time>2026-04-27T15:15:28Z</time></trkpt><trkpt lat="30.55789084464628" lon="-8.600320725643442"><ele>371.0</ele><time>2026-04-27T15:15:29Z</time></trkpt><trkpt lat="30.55780754219561" lon="-8.600610232592931"><ele>370.0</ele><time>2026-04-27T15:15:30Z</time></trkpt><trkpt lat="30.557721374088462" lon="-8.600887185486648"><ele>369.0</ele><time>2026-04-27T15:15:31Z</time></trkpt><trkpt lat="30.557633797613224" lon="-8.601161729039514"><ele>368.5</ele><time>2026-04-27T15:15:32Z</time></trkpt><trkpt lat="30.557545156242714" lon="-8.601430895617066"><ele>368.0</ele><time>2026-04-27T15:15:33Z</time></trkpt><trkpt lat="30.557456003766877" lon="-8.601695937146104"><ele>368.0</ele><time>2026-04-27T15:15:34Z</time></trkpt><trkpt lat="30.55736635069671" lon="-8.601958520301299"><ele>368.0</ele><time>2026-04-27T15:15:35Z</time></trkpt><trkpt lat="30.55728179826742" lon="-8.602227361609518"><ele>368.5</ele><time>2026-04-27T15:15:36Z</time></trkpt><trkpt lat="30.55719582462349" lon="-8.60250561391496"><ele>369.0</ele><time>2026-04-27T15:15:37Z</time></trkpt><trkpt lat="30.55710862864551" lon="-8.602784844078238"><ele>368.0</ele><time>2026-04-27T15:15:38Z</time></trkpt><trkpt lat="30.557028094077573" lon="-8.60305942926885"><ele>367.0</ele><time>2026-04-27T15:15:39Z</time></trkpt><trkpt lat="30.55695092214011" lon="-8.603334277619746"><ele>367.0</ele><time>2026-04-27T15:15:40Z</time></trkpt><trkpt lat="30.5568776773585" lon="-8.603604985418627"><ele>367.0</ele><time>2026-04-27T15:15:41Z</time></trkpt><trkpt lat="30.55681489011533" lon="-8.60387747120437"><ele>367.0</ele><time>2026-04-27T15:15:42Z</time></trkpt><trkpt lat="30.556759392693095" lon="-8.604145699081219"><ele>367.0</ele><time>2026-04-27T15:15:43Z</time></trkpt><trkpt lat="30.55671068677034" lon="-8.604414009796258"><ele>367.5</ele><time>2026-04-27T15:15:44Z</time></trkpt><trkpt lat="30.556666546259045" lon="-8.604679713069018"><ele>368.0</ele><time>2026-04-27T15:15:45Z</time></trkpt><trkpt lat="30.556630421251086" lon="-8.604944614500457"><ele>368.0</ele><time>2026-04-27T15:15:46Z</time></trkpt><trkpt lat="30.556605377292943" lon="-8.60520338702469"><ele>368.0</ele><time>2026-04-27T15:15:47Z</time></trkpt><trkpt lat="30.556584945595922" lon="-8.605449741616003"><ele>368.0</ele><time>2026-04-27T15:15:48Z</time></trkpt><trkpt lat="30.556567047446258" lon="-8.605685074219666"><ele>367.33333333333337</ele><time>2026-04-27T15:15:49Z</time></trkpt><trkpt lat="30.556553259709677" lon="-8.605918983485775"><ele>366.6666666666667</ele><time>2026-04-27T15:15:50Z</time></trkpt><trkpt lat="30.55654556334544" lon="-8.60615412195947"><ele>366.0</ele><time>2026-04-27T15:15:51Z</time></trkpt><trkpt lat="30.55654251545375" lon="-8.606393700424285"><ele>366.0</ele><time>2026-04-27T15:15:52Z</time></trkpt><trkpt lat="30.556544699732015" lon="-8.606634576537681"><ele>366.0</ele><time>2026-04-27T15:15:53Z</time></trkpt><trkpt lat="30.556550376090602" lon="-8.606874082675587"><ele>366.0</ele><time>2026-04-27T15:15:54Z</time></trkpt><trkpt lat="30.55656084318722" lon="-8.60710847460173"><ele>365.0</ele><time>2026-04-27T15:15:55Z</time></trkpt><trkpt lat="30.556577304604975" lon="-8.60734348705593"><ele>364.0</ele><time>2026-04-27T15:15:56Z</time></trkpt><trkpt lat="30.556596442845226" lon="-8.607562632658675"><ele>363.0</ele><time>2026-04-27T15:15:57Z</time></trkpt><trkpt lat="30.556617622892997" lon="-8.607769826364615"><ele>363.0</ele><time>2026-04-27T15:15:58Z</time></trkpt><trkpt lat="30.556640399867565" lon="-8.607978209258567"><ele>363.0</ele><time>2026-04-27T15:15:59Z</time></trkpt><trkpt lat="30.556672082957775" lon="-8.608197469383219"><ele>363.0</ele><time>2026-04-27T15:16:00Z</time></trkpt><trkpt lat="30.556708561186483" lon="-8.608421791815568"><ele>363.0</ele><time>2026-04-27T15:16:01Z</time></trkpt><trkpt lat="30.55674842773387" lon="-8.608652146841711"><ele>363.0</ele><time>2026-04-27T15:16:02Z</time></trkpt><trkpt lat="30.556792549973242" lon="-8.608880995808665"><ele>363.0</ele><time>2026-04-27T15:16:03Z</time></trkpt><trkpt lat="30.55684071027964" lon="-8.609110040530222"><ele>363.6666666666667</ele><time>2026-04-27T15:16:04Z</time></trkpt><trkpt lat="30.5568910395941" lon="-8.60932888438109"><ele>364.33333333333337</ele><time>2026-04-27T15:16:05Z</time></trkpt><trkpt lat="30.55693676609393" lon="-8.609538696880353"><ele>365.0</ele><time>2026-04-27T15:16:06Z</time></trkpt><trkpt lat="30.556980150439333" lon="-8.60974068349621"><ele>365.6666666666667</ele><time>2026-04-27T15:16:07Z</time></trkpt><trkpt lat="30.557023377656712" lon="-8.609948662807836"><ele>366.3333333333333</ele><time>2026-04-27T15:16:08Z</time></trkpt><trkpt lat="30.557065466103683" lon="-8.61014396345647"><ele>367.0</ele><time>2026-04-27T15:16:09Z</time></trkpt><trkpt lat="30.557105955107517" lon="-8.610339735081752"><ele>365.3333333333333</ele><time>2026-04-27T15:16:10Z</time></trkpt><trkpt lat="30.55714420448422" lon="-8.610522719469126"><ele>363.6666666666667</ele><time>2026-04-27T15:16:11Z</time></trkpt><trkpt lat="30.55718146744563" lon="-8.610697365957673"><ele>362.0</ele><time>2026-04-27T15:16:12Z</time></trkpt><trkpt lat="30.55721826339095" lon="-8.610872155584877"><ele>362.0</ele><time>2026-04-27T15:16:13Z</time></trkpt><trkpt lat="30.557257243589454" lon="-8.611054951292534"><ele>362.0</ele><time>2026-04-27T15:16:14Z</time></trkpt><trkpt lat="30.557292620197366" lon="-8.611234878287936"><ele>362.0</ele><time>2026-04-27T15:16:15Z</time></trkpt><trkpt lat="30.557329688414253" lon="-8.611413443972348"><ele>361.6666666666667</ele><time>2026-04-27T15:16:16Z</time></trkpt><trkpt lat="30.557368288259422" lon="-8.611591562449966"><ele>361.3333333333333</ele><time>2026-04-27T15:16:17Z</time></trkpt><trkpt lat="30.557407727806858" lon="-8.611766230733275"><ele>361.0</ele><time>2026-04-27T15:16:18Z</time></trkpt><trkpt lat="30.557445079965373" lon="-8.611934113620917"><ele>360.0</ele><time>2026-04-27T15:16:19Z</time></trkpt><trkpt lat="30.55748132424924" lon="-8.612096940562816"><ele>359.0</ele><time>2026-04-27T15:16:20.001Z</time></trkpt><trkpt lat="30.557516307485443" lon="-8.612257475099904"><ele>358.0</ele><time>2026-04-27T15:16:21.001Z</time></trkpt><trkpt lat="30.557550185968168" lon="-8.612416294716978"><ele>357.0</ele><time>2026-04-27T15:16:22.001Z</time></trkpt><trkpt lat="30.557579294616524" lon="-8.61257173504771"><ele>357.0</ele><time>2026-04-27T15:16:23.001Z</time></trkpt><trkpt lat="30.557606149197206" lon="-8.61272126222187"><ele>357.0</ele><time>2026-04-27T15:16:24.001Z</time></trkpt><trkpt lat="30.557633081837682" lon="-8.612863720716668"><ele>357.0</ele><time>2026-04-27T15:16:25.001Z</time></trkpt><trkpt lat="30.557658305507495" lon="-8.612991662857011"><ele>357.0</ele><time>2026-04-27T15:16:26.001Z</time></trkpt><trkpt lat="30.557681985150737" lon="-8.613114554350094"><ele>356.75</ele><time>2026-04-27T15:16:27.001Z</time></trkpt><trkpt lat="30.55770968020263" lon="-8.613242627445757"><ele>356.5</ele><time>2026-04-27T15:16:28.001Z</time></trkpt><trkpt lat="30.557742006976934" lon="-8.613373647561689"><ele>356.25</ele><time>2026-04-27T15:16:29.001Z</time></trkpt><trkpt lat="30.55777420131241" lon="-8.613504674366373"><ele>356.0</ele><time>2026-04-27T15:16:30.001Z</time></trkpt><trkpt lat="30.55780520319719" lon="-8.613636573178573"><ele>356.75</ele><time>2026-04-27T15:16:31.001Z</time></trkpt><trkpt lat="30.557832338823907" lon="-8.613765729873416"><ele>357.5</ele><time>2026-04-27T15:16:32.001Z</time></trkpt><trkpt lat="30.557860272822694" lon="-8.613899340556957"><ele>358.25</ele><time>2026-04-27T15:16:33.001Z</time></trkpt><trkpt lat="30.557887531376153" lon="-8.614039677158004"><ele>359.0</ele><time>2026-04-27T15:16:34.001Z</time></trkpt><trkpt lat="30.55791638006709" lon="-8.614178198495324"><ele>359.25</ele><time>2026-04-27T15:16:35.001Z</time></trkpt><trkpt lat="30.55794693882441" lon="-8.614316895789727"><ele>359.5</ele><time>2026-04-27T15:16:36.001Z</time></trkpt><trkpt lat="30.5579778927332" lon="-8.61445966195756"><ele>359.75</ele><time>2026-04-27T15:16:37.001Z</time></trkpt><trkpt lat="30.558009602187557" lon="-8.614612221995268"><ele>360.0</ele><time>2026-04-27T15:16:38Z</time></trkpt><trkpt lat="30.55804253281325" lon="-8.614770166100772"><ele>360.0</ele><time>2026-04-27T15:16:39Z</time></trkpt><trkpt lat="30.558074843088587" lon="-8.614933239338386"><ele>360.0</ele><time>2026-04-27T15:16:40Z</time></trkpt><trkpt lat="30.558109217519725" lon="-8.615104593277849"><ele>360.0</ele><time>2026-04-27T15:16:41Z</time></trkpt><trkpt lat="30.558146439726702" lon="-8.615279517512919"><ele>359.0</ele><time>2026-04-27T15:16:42Z</time></trkpt><trkpt lat="30.55818741330852" lon="-8.61546518941851"><ele>358.0</ele><time>2026-04-27T15:16:43Z</time></trkpt><trkpt lat="30.558232052956168" lon="-8.615664221860019"><ele>357.0</ele><time>2026-04-27T15:16:44Z</time></trkpt><trkpt lat="30.558275564699983" lon="-8.615869702314441"><ele>357.0</ele><time>2026-04-27T15:16:45Z</time></trkpt><trkpt lat="30.558318422101866" lon="-8.616062789152046"><ele>357.0</ele><time>2026-04-27T15:16:46Z</time></trkpt><trkpt lat="30.558358602968937" lon="-8.616251036987647"><ele>357.0</ele><time>2026-04-27T15:16:47Z</time></trkpt><trkpt lat="30.55839701474481" lon="-8.6164407083762"><ele>356.0</ele><time>2026-04-27T15:16:48Z</time></trkpt><trkpt lat="30.558435601840028" lon="-8.616629616847774"><ele>355.0</ele><time>2026-04-27T15:16:49Z</time></trkpt><trkpt lat="30.558475108253177" lon="-8.616819637734013"><ele>354.0</ele><time>2026-04-27T15:16:50Z</time></trkpt><trkpt lat="30.558514450945342" lon="-8.617006531922543"><ele>354.0</ele><time>2026-04-27T15:16:51Z</time></trkpt><trkpt lat="30.5585531443554" lon="-8.617196345943364"><ele>354.0</ele><time>2026-04-27T15:16:52Z</time></trkpt><trkpt lat="30.558591780342905" lon="-8.617383649219969"><ele>354.0</ele><time>2026-04-27T15:16:53Z</time></trkpt><trkpt lat="30.558633065365306" lon="-8.617576566863635"><ele>354.0</ele><time>2026-04-27T15:16:54Z</time></trkpt><trkpt lat="30.558675810116384" lon="-8.617777523715905"><ele>354.0</ele><time>2026-04-27T15:16:55Z</time></trkpt><trkpt lat="30.558721044727246" lon="-8.617991751796838"><ele>354.0</ele><time>2026-04-27T15:16:56Z</time></trkpt><trkpt lat="30.55876530897993" lon="-8.618221217990978"><ele>355.3333333333333</ele><time>2026-04-27T15:16:57Z</time></trkpt><trkpt lat="30.558812396098975" lon="-8.618460593234786"><ele>356.66666666666663</ele><time>2026-04-27T15:16:58Z</time></trkpt><trkpt lat="30.558860148546156" lon="-8.618692072545901"><ele>358.0</ele><time>2026-04-27T15:16:59Z</time></trkpt><trkpt lat="30.55891041188165" lon="-8.618926592497674"><ele>358.0</ele><time>2026-04-27T15:17:00Z</time></trkpt><trkpt lat="30.55895738555819" lon="-8.61915495755479"><ele>358.0</ele><time>2026-04-27T15:17:01Z</time></trkpt><trkpt lat="30.559008679151535" lon="-8.619383706665978"><ele>358.0</ele><time>2026-04-27T15:17:02Z</time></trkpt><trkpt lat="30.559061150440506" lon="-8.61962389174181"><ele>357.0</ele><time>2026-04-27T15:17:03Z</time></trkpt><trkpt lat="30.559114060464104" lon="-8.61986475216288"><ele>356.0</ele><time>2026-04-27T15:17:04Z</time></trkpt><trkpt lat="30.55916637775416" lon="-8.620106856149865"><ele>355.0</ele><time>2026-04-27T15:17:05Z</time></trkpt><trkpt lat="30.559219516442006" lon="-8.620352647175892"><ele>355.0</ele><time>2026-04-27T15:17:06Z</time></trkpt><trkpt lat="30.559273650069617" lon="-8.62059927783751"><ele>355.0</ele><time>2026-04-27T15:17:07Z</time></trkpt><trkpt lat="30.559326536095035" lon="-8.620838078351685"><ele>355.0</ele><time>2026-04-27T15:17:08Z</time></trkpt><trkpt lat="30.55937652462743" lon="-8.62106511021759"><ele>354.3333333333333</ele><time>2026-04-27T15:17:09Z</time></trkpt><trkpt lat="30.55942265293717" lon="-8.62128153517907"><ele>353.6666666666667</ele><time>2026-04-27T15:17:10Z</time></trkpt><trkpt lat="30.559459600438114" lon="-8.621488872929975"><ele>353.0</ele><time>2026-04-27T15:17:11Z</time></trkpt><trkpt lat="30.559491851555087" lon="-8.621695278020034"><ele>353.0</ele><time>2026-04-27T15:17:12Z</time></trkpt><trkpt lat="30.559516907796915" lon="-8.62190661060968"><ele>353.0</ele><time>2026-04-27T15:17:13Z</time></trkpt><trkpt lat="30.55953227071171" lon="-8.62211553966825"><ele>353.0</ele><time>2026-04-27T15:17:14Z</time></trkpt><trkpt lat="30.55953444479595" lon="-8.622328677480247"><ele>353.6666666666667</ele><time>2026-04-27T15:17:15Z</time></trkpt><trkpt lat="30.559527750100667" lon="-8.622547280640363"><ele>354.3333333333333</ele><time>2026-04-27T15:17:16Z</time></trkpt><trkpt lat="30.55951650383441" lon="-8.622773782936541"><ele>355.0</ele><time>2026-04-27T15:17:17Z</time></trkpt><trkpt lat="30.559493836993887" lon="-8.623010871269116"><ele>355.0</ele><time>2026-04-27T15:17:18Z</time></trkpt><trkpt lat="30.559460302912928" lon="-8.623259253356892"><ele>355.0</ele><time>2026-04-27T15:17:19Z</time></trkpt><trkpt lat="30.55941604688656" lon="-8.623499984198682"><ele>355.0</ele><time>2026-04-27T15:17:20Z</time></trkpt><trkpt lat="30.55936004490074" lon="-8.623733142799558"><ele>355.3333333333333</ele><time>2026-04-27T15:17:21Z</time></trkpt><trkpt lat="30.55929022208314" lon="-8.623965442433759"><ele>355.6666666666667</ele><time>2026-04-27T15:17:22Z</time></trkpt><trkpt lat="30.559209460550356" lon="-8.624196168724128"><ele>356.0</ele><time>2026-04-27T15:17:23Z</time></trkpt><trkpt lat="30.55911989413394" lon="-8.624433068160648"><ele>356.5</ele><time>2026-04-27T15:17:24Z</time></trkpt><trkpt lat="30.559013110146374" lon="-8.624676053327011"><ele>357.0</ele><time>2026-04-27T15:17:25Z</time></trkpt><trkpt lat="30.558886135243558" lon="-8.624927886117142"><ele>357.0</ele><time>2026-04-27T15:17:26Z</time></trkpt><trkpt lat="30.558736638907213" lon="-8.625186419247974"><ele>357.0</ele><time>2026-04-27T15:17:27Z</time></trkpt><trkpt lat="30.558574849582175" lon="-8.62543805229704"><ele>355.0</ele><time>2026-04-27T15:17:28Z</time></trkpt><trkpt lat="30.558410164451246" lon="-8.625679691693884"><ele>353.0</ele><time>2026-04-27T15:17:29Z</time></trkpt><trkpt lat="30.55824893001548" lon="-8.625914143513368"><ele>353.0</ele><time>2026-04-27T15:17:30Z</time></trkpt><trkpt lat="30.55809252062435" lon="-8.626141176696752"><ele>353.0</ele><time>2026-04-27T15:17:31Z</time></trkpt><trkpt lat="30.55793964255819" lon="-8.626364056182378"><ele>353.5</ele><time>2026-04-27T15:17:32Z</time></trkpt><trkpt lat="30.557789925635518" lon="-8.626588291122692"><ele>354.0</ele><time>2026-04-27T15:17:33Z</time></trkpt><trkpt lat="30.557639060362625" lon="-8.626812252870637"><ele>355.0</ele><time>2026-04-27T15:17:34Z</time></trkpt><trkpt lat="30.55748613198822" lon="-8.627030716737753"><ele>356.0</ele><time>2026-04-27T15:17:35Z</time></trkpt><trkpt lat="30.55733298476115" lon="-8.627248753396417"><ele>356.0</ele><time>2026-04-27T15:17:36Z</time></trkpt><trkpt lat="30.55718146890716" lon="-8.62747369166396"><ele>356.0</ele><time>2026-04-27T15:17:37Z</time></trkpt><trkpt lat="30.557034629221317" lon="-8.62770428681272"><ele>354.0</ele><time>2026-04-27T15:17:38Z</time></trkpt><trkpt lat="30.5568912940655" lon="-8.627936966783311"><ele>352.0</ele><time>2026-04-27T15:17:39Z</time></trkpt><trkpt lat="30.556747336464042" lon="-8.628168783198383"><ele>352.0</ele><time>2026-04-27T15:17:40Z</time></trkpt><trkpt lat="30.55659539869027" lon="-8.628394764795237"><ele>352.0</ele><time>2026-04-27T15:17:41Z</time></trkpt><trkpt lat="30.556439201386112" lon="-8.628620423224321"><ele>352.5</ele><time>2026-04-27T15:17:42Z</time></trkpt><trkpt lat="30.556283782255992" lon="-8.628846953321112"><ele>353.0</ele><time>2026-04-27T15:17:43.001Z</time></trkpt><trkpt lat="30.55613203450495" lon="-8.629077574689296"><ele>352.0</ele><time>2026-04-27T15:17:44.001Z</time></trkpt><trkpt lat="30.55597944770824" lon="-8.629309411652837"><ele>351.0</ele><time>2026-04-27T15:17:45.001Z</time></trkpt><trkpt lat="30.555822057000032" lon="-8.629543997366309"><ele>351.0</ele><time>2026-04-27T15:17:46.001Z</time></trkpt><trkpt lat="30.55566228799189" lon="-8.629779829997483"><ele>351.0</ele><time>2026-04-27T15:17:47.001Z</time></trkpt><trkpt lat="30.555501228092574" lon="-8.630023659263646"><ele>349.5</ele><time>2026-04-27T15:17:48.001Z</time></trkpt><trkpt lat="30.555339865113062" lon="-8.630266604891524"><ele>348.0</ele><time>2026-04-27T15:17:49.001Z</time></trkpt><trkpt lat="30.55517614878294" lon="-8.630510642249302"><ele>348.0</ele><time>2026-04-27T15:17:50.001Z</time></trkpt><trkpt lat="30.555011682924604" lon="-8.630757258924882"><ele>348.0</ele><time>2026-04-27T15:17:51.001Z</time></trkpt><trkpt lat="30.5548469852475" lon="-8.631005555447706"><ele>347.5</ele><time>2026-04-27T15:17:52.001Z</time></trkpt><trkpt lat="30.554680902087846" lon="-8.631254647790334"><ele>347.0</ele><time>2026-04-27T15:17:53.001Z</time></trkpt><trkpt lat="30.554513677128103" lon="-8.631505028367057"><ele>347.0</ele><time>2026-04-27T15:17:54.001Z</time></trkpt><trkpt lat="30.55434626213085" lon="-8.631751110161073"><ele>347.0</ele><time>2026-04-27T15:17:55.001Z</time></trkpt><trkpt lat="30.554179317681715" lon="-8.631997063503862"><ele>347.5</ele><time>2026-04-27T15:17:56.001Z</time></trkpt><trkpt lat="30.55401329532443" lon="-8.632240107148464"><ele>348.0</ele><time>2026-04-27T15:17:57.001Z</time></trkpt><trkpt lat="30.553856815154997" lon="-8.632467098417438"><ele>348.0</ele><time>2026-04-27T15:17:58.001Z</time></trkpt><trkpt lat="30.55371198789164" lon="-8.632678044922521"><ele>348.0</ele><time>2026-04-27T15:17:59.001Z</time></trkpt><trkpt lat="30.553576127455482" lon="-8.632885516277755"><ele>348.3333333333333</ele><time>2026-04-27T15:18:00.001Z</time></trkpt><trkpt lat="30.553447471565867" lon="-8.633093564013219"><ele>348.66666666666663</ele><time>2026-04-27T15:18:01.001Z</time></trkpt><trkpt lat="30.55332697634171" lon="-8.63330200488516"><ele>349.0</ele><time>2026-04-27T15:18:02.001Z</time></trkpt><trkpt lat="30.553214697705375" lon="-8.633509822391305"><ele>348.3333333333333</ele><time>2026-04-27T15:18:03.001Z</time></trkpt><trkpt lat="30.55310682063695" lon="-8.633719905215651"><ele>347.6666666666667</ele><time>2026-04-27T15:18:04.001Z</time></trkpt><trkpt lat="30.553005839110998" lon="-8.633929406937307"><ele>347.0</ele><time>2026-04-27T15:18:05.001Z</time></trkpt><trkpt lat="30.552911997027607" lon="-8.634143944213966"><ele>347.0</ele><time>2026-04-27T15:18:06.001Z</time></trkpt><trkpt lat="30.552824053193167" lon="-8.6343598730305"><ele>347.0</ele><time>2026-04-27T15:18:07.001Z</time></trkpt><trkpt lat="30.552742999692494" lon="-8.634569534426365"><ele>347.0</ele><time>2026-04-27T15:18:08.001Z</time></trkpt><trkpt lat="30.552670102802" lon="-8.634775727050066"><ele>347.0</ele><time>2026-04-27T15:18:09.001Z</time></trkpt><trkpt lat="30.552612573928744" lon="-8.634972169056857"><ele>347.0</ele><time>2026-04-27T15:18:10.001Z</time></trkpt><trkpt lat="30.55256315086187" lon="-8.635151707740157"><ele>347.0</ele><time>2026-04-27T15:18:11.001Z</time></trkpt><trkpt lat="30.552513484721143" lon="-8.635323041353814"><ele>346.5</ele><time>2026-04-27T15:18:12.001Z</time></trkpt><trkpt lat="30.552466060040338" lon="-8.635483636445702"><ele>346.0</ele><time>2026-04-27T15:18:13.001Z</time></trkpt><trkpt lat="30.552420397706516" lon="-8.635634871449223"><ele>345.5</ele><time>2026-04-27T15:18:14.001Z</time></trkpt><trkpt lat="30.55237814216912" lon="-8.635778745738262"><ele>345.0</ele><time>2026-04-27T15:18:15.001Z</time></trkpt><trkpt lat="30.55234006479903" lon="-8.635918191595518"><ele>345.0</ele><time>2026-04-27T15:18:16.001Z</time></trkpt><trkpt lat="30.552300921945246" lon="-8.636049243977299"><ele>345.0</ele><time>2026-04-27T15:18:17.001Z</time></trkpt><trkpt lat="30.552260114295567" lon="-8.636179012906277"><ele>345.0</ele><time>2026-04-27T15:18:18.001Z</time></trkpt><trkpt lat="30.552215529709184" lon="-8.636321127153902"><ele>345.0</ele><time>2026-04-27T15:18:19.001Z</time></trkpt><trkpt lat="30.552167720628518" lon="-8.636488159574057"><ele>345.0</ele><time>2026-04-27T15:18:20.001Z</time></trkpt><trkpt lat="30.55211870910127" lon="-8.636659677306058"><ele>345.0</ele><time>2026-04-27T15:18:21.001Z</time></trkpt><trkpt lat="30.552068431499187" lon="-8.636833130156973"><ele>345.0</ele><time>2026-04-27T15:18:22.001Z</time></trkpt><trkpt lat="30.552015993570414" lon="-8.637010431379858"><ele>345.0</ele><time>2026-04-27T15:18:23.001Z</time></trkpt><trkpt lat="30.551963197142424" lon="-8.637189491504618"><ele>345.0</ele><time>2026-04-27T15:18:24.001Z</time></trkpt><trkpt lat="30.55191329058631" lon="-8.637370013161387"><ele>345.0</ele><time>2026-04-27T15:18:25.001Z</time></trkpt><trkpt lat="30.551858533401667" lon="-8.637558823640573"><ele>345.0</ele><time>2026-04-27T15:18:26.001Z</time></trkpt><trkpt lat="30.551800506227956" lon="-8.637758710082545"><ele>345.0</ele><time>2026-04-27T15:18:27.001Z</time></trkpt><trkpt lat="30.55173289244426" lon="-8.637976151153442"><ele>345.0</ele><time>2026-04-27T15:18:28.001Z</time></trkpt><trkpt lat="30.551665774060545" lon="-8.638196979385958"><ele>345.3333333333333</ele><time>2026-04-27T15:18:29.001Z</time></trkpt><trkpt lat="30.55159925859695" lon="-8.638426687148153"><ele>345.66666666666663</ele><time>2026-04-27T15:18:30.001Z</time></trkpt><trkpt lat="30.55152978838366" lon="-8.638660956583456"><ele>346.0</ele><time>2026-04-27T15:18:31.001Z</time></trkpt><trkpt lat="30.551460549224362" lon="-8.638889795125085"><ele>346.0</ele><time>2026-04-27T15:18:32.001Z</time></trkpt><trkpt lat="30.55139615363635" lon="-8.639103301797864"><ele>346.0</ele><time>2026-04-27T15:18:33.001Z</time></trkpt><trkpt lat="30.55132699730154" lon="-8.639322980833253"><ele>346.0</ele><time>2026-04-27T15:18:34.001Z</time></trkpt><trkpt lat="30.55124919914581" lon="-8.63956563278413"><ele>345.0</ele><time>2026-04-27T15:18:35.001Z</time></trkpt><trkpt lat="30.551177526192014" lon="-8.639827549229642"><ele>344.0</ele><time>2026-04-27T15:18:36.001Z</time></trkpt><trkpt lat="30.551109848744215" lon="-8.640090446243384"><ele>344.5</ele><time>2026-04-27T15:18:37.001Z</time></trkpt><trkpt lat="30.551043518626486" lon="-8.64034523366269"><ele>345.0</ele><time>2026-04-27T15:18:38.001Z</time></trkpt><trkpt lat="30.550976787796493" lon="-8.640596873126052"><ele>345.0</ele><time>2026-04-27T15:18:39.001Z</time></trkpt><trkpt lat="30.55091080488093" lon="-8.64084150218729"><ele>345.0</ele><time>2026-04-27T15:18:40.001Z</time></trkpt><trkpt lat="30.550845039825973" lon="-8.641080237067095"><ele>345.0</ele><time>2026-04-27T15:18:41.001Z</time></trkpt><trkpt lat="30.55077831509114" lon="-8.641305902022832"><ele>345.3333333333333</ele><time>2026-04-27T15:18:42.001Z</time></trkpt><trkpt lat="30.550712128999148" lon="-8.641530190915283"><ele>345.66666666666663</ele><time>2026-04-27T15:18:43.001Z</time></trkpt><trkpt lat="30.550647237455134" lon="-8.6417530680777"><ele>346.0</ele><time>2026-04-27T15:18:44.001Z</time></trkpt><trkpt lat="30.55058280727449" lon="-8.641972915121766"><ele>346.0</ele><time>2026-04-27T15:18:45.001Z</time></trkpt><trkpt lat="30.550518743869116" lon="-8.642190073849305"><ele>346.0</ele><time>2026-04-27T15:18:46.001Z</time></trkpt><trkpt lat="30.550457463129444" lon="-8.642403875083364"><ele>346.0</ele><time>2026-04-27T15:18:47.001Z</time></trkpt><trkpt lat="30.55039594563047" lon="-8.642622826592566"><ele>344.3333333333333</ele><time>2026-04-27T15:18:48.001Z</time></trkpt><trkpt lat="30.550335238757793" lon="-8.642833306115826"><ele>342.6666666666667</ele><time>2026-04-27T15:18:49.001Z</time></trkpt><trkpt lat="30.550276964125224" lon="-8.643038487413712"><ele>341.0</ele><time>2026-04-27T15:18:50.001Z</time></trkpt><trkpt lat="30.550219250207014" lon="-8.643238698662433"><ele>341.0</ele><time>2026-04-27T15:18:51.001Z</time></trkpt><trkpt lat="30.550162447276367" lon="-8.643438499950395"><ele>341.0</ele><time>2026-04-27T15:18:52.001Z</time></trkpt><trkpt lat="30.5501014773915" lon="-8.643647800090578"><ele>341.0</ele><time>2026-04-27T15:18:53Z</time></trkpt><trkpt lat="30.550041337588716" lon="-8.643860606049081"><ele>341.6666666666667</ele><time>2026-04-27T15:18:54Z</time></trkpt><trkpt lat="30.54998154058587" lon="-8.644076937047487"><ele>342.3333333333333</ele><time>2026-04-27T15:18:55Z</time></trkpt><trkpt lat="30.549918501583285" lon="-8.64430977744351"><ele>343.0</ele><time>2026-04-27T15:18:56Z</time></trkpt><trkpt lat="30.549858335138786" lon="-8.644548477605547"><ele>343.0</ele><time>2026-04-27T15:18:57Z</time></trkpt><trkpt lat="30.54980241969424" lon="-8.64477813022744"><ele>343.0</ele><time>2026-04-27T15:18:58Z</time></trkpt><trkpt lat="30.54975125874702" lon="-8.645014628436611"><ele>343.0</ele><time>2026-04-27T15:18:59Z</time></trkpt><trkpt lat="30.54970856519697" lon="-8.645249352598945"><ele>343.0</ele><time>2026-04-27T15:19:00Z</time></trkpt><trkpt lat="30.549671839782825" lon="-8.645482275448556"><ele>343.0</ele><time>2026-04-27T15:19:01Z</time></trkpt><trkpt lat="30.54963968320348" lon="-8.645711260070422"><ele>343.0</ele><time>2026-04-27T15:19:02Z</time></trkpt><trkpt lat="30.549613459526753" lon="-8.645928546740391"><ele>342.66666666666663</ele><time>2026-04-27T15:19:03Z</time></trkpt><trkpt lat="30.54958798001215" lon="-8.646144233769167"><ele>342.3333333333333</ele><time>2026-04-27T15:19:04Z</time></trkpt><trkpt lat="30.54956443128361" lon="-8.646364524257944"><ele>342.0</ele><time>2026-04-27T15:19:05Z</time></trkpt><trkpt lat="30.54954511969518" lon="-8.646591615939458"><ele>342.3333333333333</ele><time>2026-04-27T15:19:06Z</time></trkpt><trkpt lat="30.54953453297393" lon="-8.646811437900489"><ele>342.66666666666663</ele><time>2026-04-27T15:19:07Z</time></trkpt><trkpt lat="30.54952931541722" lon="-8.647040676695125"><ele>343.0</ele><time>2026-04-27T15:19:08Z</time></trkpt><trkpt lat="30.549534413145388" lon="-8.647277457257811"><ele>343.0</ele><time>2026-04-27T15:19:09Z</time></trkpt><trkpt lat="30.54953854026069" lon="-8.647511130856495"><ele>343.0</ele><time>2026-04-27T15:19:10Z</time></trkpt><trkpt lat="30.54953864282304" lon="-8.647738629926513"><ele>343.0</ele><time>2026-04-27T15:19:11Z</time></trkpt><trkpt lat="30.549539950054225" lon="-8.647964863297746"><ele>342.66666666666663</ele><time>2026-04-27T15:19:12Z</time></trkpt><trkpt lat="30.54954019423693" lon="-8.648191081345022"><ele>342.3333333333333</ele><time>2026-04-27T15:19:13Z</time></trkpt><trkpt lat="30.549538243948888" lon="-8.648431586216955"><ele>342.0</ele><time>2026-04-27T15:19:14Z</time></trkpt><trkpt lat="30.549538615723804" lon="-8.648694330617943"><ele>342.5</ele><time>2026-04-27T15:19:15Z</time></trkpt><trkpt lat="30.54954604842998" lon="-8.648980215486668"><ele>343.0</ele><time>2026-04-27T15:19:16Z</time></trkpt><trkpt lat="30.549560576104707" lon="-8.649272362824972"><ele>343.0</ele><time>2026-04-27T15:19:17Z</time></trkpt><trkpt lat="30.549579993080233" lon="-8.649564296807217"><ele>343.0</ele><time>2026-04-27T15:19:18Z</time></trkpt><trkpt lat="30.54959203467833" lon="-8.649852572121798"><ele>343.0</ele><time>2026-04-27T15:19:19Z</time></trkpt><trkpt lat="30.549600346683498" lon="-8.65013829704813"><ele>343.0</ele><time>2026-04-27T15:19:20Z</time></trkpt><trkpt lat="30.54961092079448" lon="-8.650419887796245"><ele>343.0</ele><time>2026-04-27T15:19:21Z</time></trkpt><trkpt lat="30.549620285230972" lon="-8.650707662503322"><ele>343.0</ele><time>2026-04-27T15:19:22Z</time></trkpt><trkpt lat="30.54962604231219" lon="-8.6509915211359"><ele>342.5</ele><time>2026-04-27T15:19:23Z</time></trkpt><trkpt lat="30.549630180971853" lon="-8.65127608662317"><ele>342.0</ele><time>2026-04-27T15:19:24Z</time></trkpt><trkpt lat="30.5496353339314" lon="-8.651563613540349"><ele>342.0</ele><time>2026-04-27T15:19:25Z</time></trkpt><trkpt lat="30.54964137260861" lon="-8.651850616404763"><ele>342.0</ele><time>2026-04-27T15:19:26Z</time></trkpt><trkpt lat="30.549647170068614" lon="-8.652136101858964"><ele>341.5</ele><time>2026-04-27T15:19:27Z</time></trkpt><trkpt lat="30.54965386385625" lon="-8.652422422414734"><ele>341.0</ele><time>2026-04-27T15:19:28Z</time></trkpt><trkpt lat="30.54966019521738" lon="-8.652707101758113"><ele>341.0</ele><time>2026-04-27T15:19:29Z</time></trkpt><trkpt lat="30.549667198572596" lon="-8.652989157278306"><ele>341.0</ele><time>2026-04-27T15:19:30Z</time></trkpt><trkpt lat="30.549673696456757" lon="-8.653271170005203"><ele>341.0</ele><time>2026-04-27T15:19:31Z</time></trkpt><trkpt lat="30.549677521979895" lon="-8.653553103409234"><ele>341.0</ele><time>2026-04-27T15:19:32Z</time></trkpt><trkpt lat="30.549681239124602" lon="-8.653835401254028"><ele>340.5</ele><time>2026-04-27T15:19:33Z</time></trkpt><trkpt lat="30.549686712986375" lon="-8.654117586554628"><ele>340.0</ele><time>2026-04-27T15:19:34Z</time></trkpt><trkpt lat="30.54969353516955" lon="-8.654402737700057"><ele>341.0</ele><time>2026-04-27T15:19:35.001Z</time></trkpt><trkpt lat="30.549700255232533" lon="-8.654692432173762"><ele>342.0</ele><time>2026-04-27T15:19:36.001Z</time></trkpt><trkpt lat="30.549704587808947" lon="-8.654983524450873"><ele>342.0</ele><time>2026-04-27T15:19:37.001Z</time></trkpt><trkpt lat="30.549709256440913" lon="-8.655278406458319"><ele>342.0</ele><time>2026-04-27T15:19:38.001Z</time></trkpt><trkpt lat="30.549715294493023" lon="-8.655576803162441"><ele>341.0</ele><time>2026-04-27T15:19:39.001Z</time></trkpt><trkpt lat="30.549721289723742" lon="-8.655876929223478"><ele>340.0</ele><time>2026-04-27T15:19:40.001Z</time></trkpt><trkpt lat="30.549725438601037" lon="-8.656178245287757"><ele>340.0</ele><time>2026-04-27T15:19:41.001Z</time></trkpt><trkpt lat="30.549729631182696" lon="-8.656479396041956"><ele>340.0</ele><time>2026-04-27T15:19:42.001Z</time></trkpt><trkpt lat="30.54973440550352" lon="-8.656782008513925"><ele>339.5</ele><time>2026-04-27T15:19:43.001Z</time></trkpt><trkpt lat="30.549738899804524" lon="-8.65708518575588"><ele>339.0</ele><time>2026-04-27T15:19:44.001Z</time></trkpt><trkpt lat="30.549744407366997" lon="-8.657387101250228"><ele>339.0</ele><time>2026-04-27T15:19:45.001Z</time></trkpt><trkpt lat="30.54975075618618" lon="-8.657689410204979"><ele>339.0</ele><time>2026-04-27T15:19:46.001Z</time></trkpt><trkpt lat="30.549758282533137" lon="-8.657988790278912"><ele>338.5</ele><time>2026-04-27T15:19:47.001Z</time></trkpt><trkpt lat="30.54976784748003" lon="-8.658288151134077"><ele>338.0</ele><time>2026-04-27T15:19:48.001Z</time></trkpt><trkpt lat="30.54977982052477" lon="-8.658590869818681"><ele>338.5</ele><time>2026-04-27T15:19:49.001Z</time></trkpt><trkpt lat="30.54978659775813" lon="-8.658899071126198"><ele>339.0</ele><time>2026-04-27T15:19:50.001Z</time></trkpt><trkpt lat="30.54978941459939" lon="-8.659195582242843"><ele>338.5</ele><time>2026-04-27T15:19:51.001Z</time></trkpt><trkpt lat="30.549793862602563" lon="-8.659490008259326"><ele>338.0</ele><time>2026-04-27T15:19:52.001Z</time></trkpt><trkpt lat="30.54979924028222" lon="-8.6597759772879"><ele>338.0</ele><time>2026-04-27T15:19:53.001Z</time></trkpt><trkpt lat="30.5498038299047" lon="-8.660057305453941"><ele>338.0</ele><time>2026-04-27T15:19:54.001Z</time></trkpt><trkpt lat="30.549808467326958" lon="-8.660333962831427"><ele>338.5</ele><time>2026-04-27T15:19:55.001Z</time></trkpt><trkpt lat="30.549816573581033" lon="-8.66060909341863"><ele>339.0</ele><time>2026-04-27T15:19:56.001Z</time></trkpt><trkpt lat="30.549826028939606" lon="-8.660885039534163"><ele>338.5</ele><time>2026-04-27T15:19:57.001Z</time></trkpt><trkpt lat="30.549833837196587" lon="-8.661164347887757"><ele>338.0</ele><time>2026-04-27T15:19:58.001Z</time></trkpt><trkpt lat="30.54983790784431" lon="-8.661443404267935"><ele>338.0</ele><time>2026-04-27T15:19:59.001Z</time></trkpt><trkpt lat="30.549844163737507" lon="-8.661727462379687"><ele>338.0</ele><time>2026-04-27T15:20:00.001Z</time></trkpt><trkpt lat="30.549851210059312" lon="-8.662012217382335"><ele>337.5</ele><time>2026-04-27T15:20:01.001Z</time></trkpt><trkpt lat="30.54985795887546" lon="-8.662295701505673"><ele>337.0</ele><time>2026-04-27T15:20:02.001Z</time></trkpt><trkpt lat="30.549867158103925" lon="-8.662580318217806"><ele>336.5</ele><time>2026-04-27T15:20:03.001Z</time></trkpt><trkpt lat="30.549873550000644" lon="-8.662861274924877"><ele>336.0</ele><time>2026-04-27T15:20:04.001Z</time></trkpt><trkpt lat="30.549876223740476" lon="-8.663143679316295"><ele>336.0</ele><time>2026-04-27T15:20:05.001Z</time></trkpt><trkpt lat="30.549882448833298" lon="-8.663419277213295"><ele>336.0</ele><time>2026-04-27T15:20:06.001Z</time></trkpt><trkpt lat="30.54988656772307" lon="-8.66367662873823"><ele>337.3333333333333</ele><time>2026-04-27T15:20:07.001Z</time></trkpt><trkpt lat="30.549889719231846" lon="-8.663919791527583"><ele>338.66666666666663</ele><time>2026-04-27T15:20:08.001Z</time></trkpt><trkpt lat="30.54989395898804" lon="-8.664162810919505"><ele>340.0</ele><time>2026-04-27T15:20:09.001Z</time></trkpt><trkpt lat="30.54989636400853" lon="-8.664411667223819"><ele>339.3333333333333</ele><time>2026-04-27T15:20:10.001Z</time></trkpt><trkpt lat="30.549900382240768" lon="-8.664666068546662"><ele>338.6666666666667</ele><time>2026-04-27T15:20:11.001Z</time></trkpt><trkpt lat="30.549905801398747" lon="-8.664926619291462"><ele>338.0</ele><time>2026-04-27T15:20:12.001Z</time></trkpt><trkpt lat="30.549908089645175" lon="-8.665192350074452"><ele>338.0</ele><time>2026-04-27T15:20:13.001Z</time></trkpt><trkpt lat="30.54991533733642" lon="-8.665467242452634"><ele>338.0</ele><time>2026-04-27T15:20:14.001Z</time></trkpt><trkpt lat="30.549923488128385" lon="-8.665750605183234"><ele>338.0</ele><time>2026-04-27T15:20:15.001Z</time></trkpt><trkpt lat="30.549928941141914" lon="-8.666041456967939"><ele>338.0</ele><time>2026-04-27T15:20:16.001Z</time></trkpt><trkpt lat="30.549935543092197" lon="-8.66633480006803"><ele>337.5</ele><time>2026-04-27T15:20:17.001Z</time></trkpt><trkpt lat="30.549943688614075" lon="-8.666637247480505"><ele>337.0</ele><time>2026-04-27T15:20:18.001Z</time></trkpt><trkpt lat="30.549949906530674" lon="-8.666940466664382"><ele>336.0</ele><time>2026-04-27T15:20:19.001Z</time></trkpt><trkpt lat="30.54995657762496" lon="-8.667248749361022"><ele>335.0</ele><time>2026-04-27T15:20:20.001Z</time></trkpt><trkpt lat="30.549963427879128" lon="-8.667557764538929"><ele>335.5</ele><time>2026-04-27T15:20:21.001Z</time></trkpt><trkpt lat="30.54997134187708" lon="-8.667868863838786"><ele>336.0</ele><time>2026-04-27T15:20:22.001Z</time></trkpt><trkpt lat="30.54997773162118" lon="-8.668177213649994"><ele>336.0</ele><time>2026-04-27T15:20:23.001Z</time></trkpt><trkpt lat="30.549980721499853" lon="-8.66848010373191"><ele>336.0</ele><time>2026-04-27T15:20:24.001Z</time></trkpt><trkpt lat="30.54998402500568" lon="-8.668774238445613"><ele>336.0</ele><time>2026-04-27T15:20:25.001Z</time></trkpt><trkpt lat="30.54998836001279" lon="-8.669067159057448"><ele>336.0</ele><time>2026-04-27T15:20:26.001Z</time></trkpt><trkpt lat="30.549994673504536" lon="-8.669355125381708"><ele>335.0</ele><time>2026-04-27T15:20:27.001Z</time></trkpt><trkpt lat="30.550002778621657" lon="-8.669635815617726"><ele>334.0</ele><time>2026-04-27T15:20:28.001Z</time></trkpt><trkpt lat="30.550007439474456" lon="-8.669914339974257"><ele>334.0</ele><time>2026-04-27T15:20:29.001Z</time></trkpt><trkpt lat="30.550010480093015" lon="-8.670192241890257"><ele>334.0</ele><time>2026-04-27T15:20:30.001Z</time></trkpt><trkpt lat="30.55001372928389" lon="-8.670473931291578"><ele>333.5</ele><time>2026-04-27T15:20:31.001Z</time></trkpt><trkpt lat="30.55001887502947" lon="-8.670747001347044"><ele>333.0</ele><time>2026-04-27T15:20:32.001Z</time></trkpt><trkpt lat="30.550026587674775" lon="-8.671001684975854"><ele>333.3333333333333</ele><time>2026-04-27T15:20:33.001Z</time></trkpt><trkpt lat="30.55003567202935" lon="-8.671237758714344"><ele>333.66666666666663</ele><time>2026-04-27T15:20:34.001Z</time></trkpt><trkpt lat="30.550043800889902" lon="-8.671475584602323"><ele>334.0</ele><time>2026-04-27T15:20:35.001Z</time></trkpt><trkpt lat="30.550045949342763" lon="-8.67172311022904"><ele>333.66666666666663</ele><time>2026-04-27T15:20:36.001Z</time></trkpt><trkpt lat="30.550045432375164" lon="-8.671974040857927"><ele>333.3333333333333</ele><time>2026-04-27T15:20:37.001Z</time></trkpt><trkpt lat="30.550045952988736" lon="-8.67223960771059"><ele>333.0</ele><time>2026-04-27T15:20:38.001Z</time></trkpt><trkpt lat="30.550047622781488" lon="-8.672506016317652"><ele>333.0</ele><time>2026-04-27T15:20:39.001Z</time></trkpt><trkpt lat="30.550052211242757" lon="-8.67278766435845"><ele>333.0</ele><time>2026-04-27T15:20:40.001Z</time></trkpt><trkpt lat="30.550054767058207" lon="-8.673084739386672"><ele>333.0</ele><time>2026-04-27T15:20:41.001Z</time></trkpt><trkpt lat="30.55005566981583" lon="-8.673400452544886"><ele>333.0</ele><time>2026-04-27T15:20:42.001Z</time></trkpt><trkpt lat="30.550061614450392" lon="-8.673733862511504"><ele>333.0</ele><time>2026-04-27T15:20:43.001Z</time></trkpt><trkpt lat="30.550078187878327" lon="-8.674085251745451"><ele>333.0</ele><time>2026-04-27T15:20:44.001Z</time></trkpt><trkpt lat="30.550099829251913" lon="-8.67443115507667"><ele>333.0</ele><time>2026-04-27T15:20:45.001Z</time></trkpt><trkpt lat="30.55011133063364" lon="-8.674764331483358"><ele>333.0</ele><time>2026-04-27T15:20:46.001Z</time></trkpt><trkpt lat="30.550114441756477" lon="-8.675076099629562"><ele>333.5</ele><time>2026-04-27T15:20:47.001Z</time></trkpt><trkpt lat="30.550120001416758" lon="-8.675368515798374"><ele>334.0</ele><time>2026-04-27T15:20:48.001Z</time></trkpt><trkpt lat="30.550128814608154" lon="-8.675646468298915"><ele>334.0</ele><time>2026-04-27T15:20:49.001Z</time></trkpt><trkpt lat="30.550139294564314" lon="-8.675911946553422"><ele>334.0</ele><time>2026-04-27T15:20:50.001Z</time></trkpt><trkpt lat="30.550147346080994" lon="-8.676160684067025"><ele>334.0</ele><time>2026-04-27T15:20:51.001Z</time></trkpt><trkpt lat="30.55015492897577" lon="-8.676401024053987"><ele>333.66666666666663</ele><time>2026-04-27T15:20:52.001Z</time></trkpt><trkpt lat="30.550160838854342" lon="-8.67663353489581"><ele>333.3333333333333</ele><time>2026-04-27T15:20:53.001Z</time></trkpt><trkpt lat="30.55016590798746" lon="-8.676867238978925"><ele>333.0</ele><time>2026-04-27T15:20:54.001Z</time></trkpt><trkpt lat="30.550171499757827" lon="-8.67710556949409"><ele>333.0</ele><time>2026-04-27T15:20:55.001Z</time></trkpt><trkpt lat="30.55017942208763" lon="-8.677341672693546"><ele>333.0</ele><time>2026-04-27T15:20:56.001Z</time></trkpt><trkpt lat="30.550183574958194" lon="-8.67758151861133"><ele>333.0</ele><time>2026-04-27T15:20:57.001Z</time></trkpt><trkpt lat="30.550187411676028" lon="-8.677828186935226"><ele>332.6666666666667</ele><time>2026-04-27T15:20:58.001Z</time></trkpt><trkpt lat="30.550193006564207" lon="-8.678078245319815"><ele>332.33333333333337</ele><time>2026-04-27T15:20:59.001Z</time></trkpt><trkpt lat="30.550198275056342" lon="-8.678334234959172"><ele>332.0</ele><time>2026-04-27T15:21:00.001Z</time></trkpt><trkpt lat="30.550201925491397" lon="-8.678607910731209"><ele>331.5</ele><time>2026-04-27T15:21:01.001Z</time></trkpt><trkpt lat="30.550207672605982" lon="-8.67890724101844"><ele>331.0</ele><time>2026-04-27T15:21:02.001Z</time></trkpt><trkpt lat="30.550215097456366" lon="-8.679211315535053"><ele>331.0</ele><time>2026-04-27T15:21:03.001Z</time></trkpt><trkpt lat="30.550221553673737" lon="-8.679494613240381"><ele>331.0</ele><time>2026-04-27T15:21:04.001Z</time></trkpt><trkpt lat="30.550224849381582" lon="-8.679758039435704"><ele>331.0</ele><time>2026-04-27T15:21:05.001Z</time></trkpt><trkpt lat="30.550226641792595" lon="-8.68003667155647"><ele>331.0</ele><time>2026-04-27T15:21:06.001Z</time></trkpt><trkpt lat="30.550232082741662" lon="-8.680334164181017"><ele>329.5</ele><time>2026-04-27T15:21:07.001Z</time></trkpt><trkpt lat="30.55024108716233" lon="-8.680645855920949"><ele>328.0</ele><time>2026-04-27T15:21:08.001Z</time></trkpt><trkpt lat="30.550249275710645" lon="-8.680959246414561"><ele>328.5</ele><time>2026-04-27T15:21:09.001Z</time></trkpt><trkpt lat="30.55025520062776" lon="-8.681276502963852"><ele>329.0</ele><time>2026-04-27T15:21:10.001Z</time></trkpt><trkpt lat="30.550261292470555" lon="-8.681589053033857"><ele>329.0</ele><time>2026-04-27T15:21:11.001Z</time></trkpt><trkpt lat="30.550266800036855" lon="-8.6818829952528"><ele>329.0</ele><time>2026-04-27T15:21:12.001Z</time></trkpt><trkpt lat="30.550273692994566" lon="-8.682161969560404"><ele>329.0</ele><time>2026-04-27T15:21:13.001Z</time></trkpt><trkpt lat="30.55027984268161" lon="-8.682437549060658"><ele>329.0</ele><time>2026-04-27T15:21:14Z</time></trkpt><trkpt lat="30.550286286614565" lon="-8.682715035588298"><ele>329.5</ele><time>2026-04-27T15:21:15Z</time></trkpt><trkpt lat="30.55029307349527" lon="-8.682993122106726"><ele>330.0</ele><time>2026-04-27T15:21:16Z</time></trkpt><trkpt lat="30.55030063271851" lon="-8.683272950749096"><ele>330.0</ele><time>2026-04-27T15:21:17Z</time></trkpt><trkpt lat="30.55030689145665" lon="-8.683557600715876"><ele>330.0</ele><time>2026-04-27T15:21:18Z</time></trkpt><trkpt lat="30.550311078720018" lon="-8.683843387129397"><ele>329.0</ele><time>2026-04-27T15:21:19Z</time></trkpt><trkpt lat="30.55031523407285" lon="-8.684131692408315"><ele>328.0</ele><time>2026-04-27T15:21:20Z</time></trkpt><trkpt lat="30.550321074638074" lon="-8.684414959376856"><ele>328.5</ele><time>2026-04-27T15:21:21Z</time></trkpt><trkpt lat="30.550327962750718" lon="-8.684700695504437"><ele>329.0</ele><time>2026-04-27T15:21:22Z</time></trkpt><trkpt lat="30.550335568033507" lon="-8.684984905427601"><ele>329.0</ele><time>2026-04-27T15:21:23Z</time></trkpt><trkpt lat="30.550341603295596" lon="-8.685261370383804"><ele>329.0</ele><time>2026-04-27T15:21:24Z</time></trkpt><trkpt lat="30.55034696794714" lon="-8.685533481862496"><ele>329.0</ele><time>2026-04-27T15:21:25Z</time></trkpt><trkpt lat="30.550352048333867" lon="-8.685807409200361"><ele>329.0</ele><time>2026-04-27T15:21:26Z</time></trkpt><trkpt lat="30.550356421405464" lon="-8.686080404960792"><ele>328.0</ele><time>2026-04-27T15:21:27Z</time></trkpt><trkpt lat="30.550364110721148" lon="-8.686357642578864"><ele>327.0</ele><time>2026-04-27T15:21:28Z</time></trkpt><trkpt lat="30.55037343384141" lon="-8.686634544702924"><ele>328.0</ele><time>2026-04-27T15:21:29Z</time></trkpt><trkpt lat="30.550379925648596" lon="-8.686911507594548"><ele>329.0</ele><time>2026-04-27T15:21:30Z</time></trkpt><trkpt lat="30.55038486798343" lon="-8.687189540576535"><ele>329.0</ele><time>2026-04-27T15:21:31Z</time></trkpt><trkpt lat="30.55038944335846" lon="-8.68746953023094"><ele>329.0</ele><time>2026-04-27T15:21:32.001Z</time></trkpt><trkpt lat="30.55039422045219" lon="-8.687749834271104"><ele>328.5</ele><time>2026-04-27T15:21:33.001Z</time></trkpt><trkpt lat="30.55040114055752" lon="-8.688031504607421"><ele>328.0</ele><time>2026-04-27T15:21:34.001Z</time></trkpt><trkpt lat="30.550407636735294" lon="-8.688309956693638"><ele>328.0</ele><time>2026-04-27T15:21:35.001Z</time></trkpt><trkpt lat="30.55041450972109" lon="-8.688582913250155"><ele>328.0</ele><time>2026-04-27T15:21:36.001Z</time></trkpt><trkpt lat="30.55042076548369" lon="-8.688850633262577"><ele>328.5</ele><time>2026-04-27T15:21:37.001Z</time></trkpt><trkpt lat="30.55042320264007" lon="-8.689116216600063"><ele>329.0</ele><time>2026-04-27T15:21:38.001Z</time></trkpt><trkpt lat="30.550425675839268" lon="-8.68937993229402"><ele>329.0</ele><time>2026-04-27T15:21:39.001Z</time></trkpt><trkpt lat="30.550426553063243" lon="-8.6896417094913"><ele>329.0</ele><time>2026-04-27T15:21:40.001Z</time></trkpt><trkpt lat="30.550423877772" lon="-8.689897913656141"><ele>329.0</ele><time>2026-04-27T15:21:41.001Z</time></trkpt><trkpt lat="30.550415559232224" lon="-8.69015077352063"><ele>329.0</ele><time>2026-04-27T15:21:42.001Z</time></trkpt><trkpt lat="30.55039650523259" lon="-8.69040299827181"><ele>329.0</ele><time>2026-04-27T15:21:43.001Z</time></trkpt><trkpt lat="30.55037238691924" lon="-8.69065170174446"><ele>329.0</ele><time>2026-04-27T15:21:44.001Z</time></trkpt><trkpt lat="30.550338564610872" lon="-8.690897308850229"><ele>328.6666666666667</ele><time>2026-04-27T15:21:45.001Z</time></trkpt><trkpt lat="30.550296187630806" lon="-8.691142273050465"><ele>328.3333333333333</ele><time>2026-04-27T15:21:46.001Z</time></trkpt><trkpt lat="30.550248557978698" lon="-8.691391899059447"><ele>328.0</ele><time>2026-04-27T15:21:47.001Z</time></trkpt><trkpt lat="30.550197104836016" lon="-8.691642694976139"><ele>328.0</ele><time>2026-04-27T15:21:48.001Z</time></trkpt><trkpt lat="30.550141454110207" lon="-8.691893961369528"><ele>328.0</ele><time>2026-04-27T15:21:49.001Z</time></trkpt><trkpt lat="30.55007525516099" lon="-8.692143507085628"><ele>328.0</ele><time>2026-04-27T15:21:50.001Z</time></trkpt><trkpt lat="30.55000107202154" lon="-8.692393701754252"><ele>327.5</ele><time>2026-04-27T15:21:51.001Z</time></trkpt><trkpt lat="30.549924298466017" lon="-8.692646194055136"><ele>327.0</ele><time>2026-04-27T15:21:52.001Z</time></trkpt><trkpt lat="30.549849022143913" lon="-8.692898942650807"><ele>327.0</ele><time>2026-04-27T15:21:53.001Z</time></trkpt><trkpt lat="30.549776184339656" lon="-8.693155039975313"><ele>327.0</ele><time>2026-04-27T15:21:54.001Z</time></trkpt><trkpt lat="30.54970279497498" lon="-8.693413447770173"><ele>325.5</ele><time>2026-04-27T15:21:55.001Z</time></trkpt><trkpt lat="30.549628505189954" lon="-8.69367402718169"><ele>324.0</ele><time>2026-04-27T15:21:56.001Z</time></trkpt><trkpt lat="30.549553279374443" lon="-8.693929105602498"><ele>323.5</ele><time>2026-04-27T15:21:57.001Z</time></trkpt><trkpt lat="30.549477900400788" lon="-8.694190772352233"><ele>323.0</ele><time>2026-04-27T15:21:58.001Z</time></trkpt><trkpt lat="30.549401035828613" lon="-8.694460755036301"><ele>323.0</ele><time>2026-04-27T15:21:59.001Z</time></trkpt><trkpt lat="30.549322547082152" lon="-8.694730701196477"><ele>323.0</ele><time>2026-04-27T15:22:00.001Z</time></trkpt><trkpt lat="30.549240580749856" lon="-8.695001514231581"><ele>324.0</ele><time>2026-04-27T15:22:01.001Z</time></trkpt><trkpt lat="30.54916050534977" lon="-8.695278951998882"><ele>325.0</ele><time>2026-04-27T15:22:02.001Z</time></trkpt><trkpt lat="30.54908047695781" lon="-8.695554370136282"><ele>325.0</ele><time>2026-04-27T15:22:03.001Z</time></trkpt><trkpt lat="30.548999380321142" lon="-8.695824648494686"><ele>325.0</ele><time>2026-04-27T15:22:04.001Z</time></trkpt><trkpt lat="30.5489165447642" lon="-8.696092146944824"><ele>324.0</ele><time>2026-04-27T15:22:05.001Z</time></trkpt><trkpt lat="30.548838704578234" lon="-8.696356707260332"><ele>323.0</ele><time>2026-04-27T15:22:06.001Z</time></trkpt><trkpt lat="30.548762856131376" lon="-8.696617456566676"><ele>323.0</ele><time>2026-04-27T15:22:07.001Z</time></trkpt><trkpt lat="30.548688896366894" lon="-8.696874643681653"><ele>323.0</ele><time>2026-04-27T15:22:08.001Z</time></trkpt><trkpt lat="30.548622180673622" lon="-8.69711835630685"><ele>322.6666666666667</ele><time>2026-04-27T15:22:09.001Z</time></trkpt><trkpt lat="30.548557661273883" lon="-8.697345006281807"><ele>322.3333333333333</ele><time>2026-04-27T15:22:10.001Z</time></trkpt><trkpt lat="30.54848880186235" lon="-8.697572201643634"><ele>322.0</ele><time>2026-04-27T15:22:11.001Z</time></trkpt><trkpt lat="30.548417667442056" lon="-8.69781314899636"><ele>322.0</ele><time>2026-04-27T15:22:12.001Z</time></trkpt><trkpt lat="30.548349557163736" lon="-8.698053907754566"><ele>322.0</ele><time>2026-04-27T15:22:13.001Z</time></trkpt><trkpt lat="30.54828773859128" lon="-8.698278595553255"><ele>322.0</ele><time>2026-04-27T15:22:14.001Z</time></trkpt><trkpt lat="30.54823049085957" lon="-8.698496685186749"><ele>322.0</ele><time>2026-04-27T15:22:15.001Z</time></trkpt><trkpt lat="30.54817697781507" lon="-8.698729991351565"><ele>322.0</ele><time>2026-04-27T15:22:16.001Z</time></trkpt><trkpt lat="30.548120334443528" lon="-8.698984955519544"><ele>322.0</ele><time>2026-04-27T15:22:17.001Z</time></trkpt><trkpt lat="30.548064051893288" lon="-8.699253680742213"><ele>321.5</ele><time>2026-04-27T15:22:18.001Z</time></trkpt><trkpt lat="30.54801069316735" lon="-8.699531140768478"><ele>321.0</ele><time>2026-04-27T15:22:19.001Z</time></trkpt><trkpt lat="30.54795967465604" lon="-8.699818191433227"><ele>321.0</ele><time>2026-04-27T15:22:20.001Z</time></trkpt><trkpt lat="30.547910604782995" lon="-8.70011239768608"><ele>321.0</ele><time>2026-04-27T15:22:21.001Z</time></trkpt><trkpt lat="30.547861573970987" lon="-8.700409931827107"><ele>321.0</ele><time>2026-04-27T15:22:22.001Z</time></trkpt><trkpt lat="30.547815212901" lon="-8.700704559972374"><ele>321.0</ele><time>2026-04-27T15:22:23.001Z</time></trkpt><trkpt lat="30.547773090772434" lon="-8.700991566557501"><ele>321.0</ele><time>2026-04-27T15:22:24.001Z</time></trkpt><trkpt lat="30.547731953037413" lon="-8.701272668768954"><ele>321.0</ele><time>2026-04-27T15:22:25.001Z</time></trkpt><trkpt lat="30.547691834993554" lon="-8.701549785786558"><ele>321.0</ele><time>2026-04-27T15:22:26.001Z</time></trkpt><trkpt lat="30.54765234859093" lon="-8.701823475441268"><ele>321.0</ele><time>2026-04-27T15:22:27.001Z</time></trkpt><trkpt lat="30.54761332674752" lon="-8.702098523746114"><ele>320.5</ele><time>2026-04-27T15:22:28.001Z</time></trkpt><trkpt lat="30.5475701087142" lon="-8.702375687455003"><ele>320.0</ele><time>2026-04-27T15:22:29.001Z</time></trkpt><trkpt lat="30.54752759538459" lon="-8.702655077399207"><ele>321.0</ele><time>2026-04-27T15:22:30.001Z</time></trkpt><trkpt lat="30.547490483859946" lon="-8.702935830838488"><ele>322.0</ele><time>2026-04-27T15:22:31.001Z</time></trkpt><trkpt lat="30.547453230681867" lon="-8.703216608789935"><ele>322.0</ele><time>2026-04-27T15:22:32.001Z</time></trkpt><trkpt lat="30.547414466286234" lon="-8.703500671015556"><ele>322.0</ele><time>2026-04-27T15:22:33.001Z</time></trkpt><trkpt lat="30.547373282963598" lon="-8.703785454135499"><ele>321.0</ele><time>2026-04-27T15:22:34.001Z</time></trkpt><trkpt lat="30.54733203124952" lon="-8.704068745442582"><ele>320.0</ele><time>2026-04-27T15:22:35.001Z</time></trkpt><trkpt lat="30.54728984224805" lon="-8.70435611000336"><ele>319.0</ele><time>2026-04-27T15:22:36.001Z</time></trkpt><trkpt lat="30.54724911829679" lon="-8.704641288769425"><ele>318.0</ele><time>2026-04-27T15:22:37.001Z</time></trkpt><trkpt lat="30.547207906647373" lon="-8.704930346880912"><ele>318.0</ele><time>2026-04-27T15:22:38.001Z</time></trkpt><trkpt lat="30.54716280331028" lon="-8.705217357694027"><ele>318.0</ele><time>2026-04-27T15:22:39.001Z</time></trkpt><trkpt lat="30.547118141819144" lon="-8.705508133982441"><ele>318.0</ele><time>2026-04-27T15:22:40.001Z</time></trkpt><trkpt lat="30.54707384635803" lon="-8.705798119576185"><ele>318.0</ele><time>2026-04-27T15:22:41.001Z</time></trkpt><trkpt lat="30.547030849391618" lon="-8.706085244057533"><ele>318.0</ele><time>2026-04-27T15:22:42.001Z</time></trkpt><trkpt lat="30.546989222218503" lon="-8.706370664921149"><ele>318.0</ele><time>2026-04-27T15:22:43.001Z</time></trkpt><trkpt lat="30.546948017360837" lon="-8.706654518996766"><ele>318.0</ele><time>2026-04-27T15:22:44.001Z</time></trkpt><trkpt lat="30.546908506048254" lon="-8.706933858816491"><ele>318.0</ele><time>2026-04-27T15:22:45.001Z</time></trkpt><trkpt lat="30.546868104527285" lon="-8.707211880253364"><ele>318.0</ele><time>2026-04-27T15:22:46.001Z</time></trkpt><trkpt lat="30.546824600178034" lon="-8.707487374190508"><ele>318.0</ele><time>2026-04-27T15:22:47.001Z</time></trkpt><trkpt lat="30.546782928512712" lon="-8.707759849057387"><ele>317.5</ele><time>2026-04-27T15:22:48.001Z</time></trkpt><trkpt lat="30.54674233456076" lon="-8.7080305721959"><ele>317.0</ele><time>2026-04-27T15:22:49.001Z</time></trkpt><trkpt lat="30.54670279890057" lon="-8.708304534129866"><ele>316.0</ele><time>2026-04-27T15:22:50.001Z</time></trkpt><trkpt lat="30.546666347194513" lon="-8.70857693752093"><ele>315.0</ele><time>2026-04-27T15:22:51.001Z</time></trkpt><trkpt lat="30.54662707706705" lon="-8.708844896369445"><ele>315.0</ele><time>2026-04-27T15:22:52.001Z</time></trkpt><trkpt lat="30.546585739231297" lon="-8.70911345420486"><ele>315.0</ele><time>2026-04-27T15:22:53.001Z</time></trkpt><trkpt lat="30.54654364613487" lon="-8.709379192440307"><ele>315.0</ele><time>2026-04-27T15:22:54.001Z</time></trkpt><trkpt lat="30.54650148149975" lon="-8.709645888854823"><ele>315.0</ele><time>2026-04-27T15:22:55.001Z</time></trkpt><trkpt lat="30.54646052870792" lon="-8.709909805849978"><ele>315.0</ele><time>2026-04-27T15:22:56.001Z</time></trkpt><trkpt lat="30.54642045016063" lon="-8.710171493083447"><ele>315.0</ele><time>2026-04-27T15:22:57.001Z</time></trkpt><trkpt lat="30.546380146905953" lon="-8.710432964512089"><ele>315.5</ele><time>2026-04-27T15:22:58.001Z</time></trkpt><trkpt lat="30.54634203991189" lon="-8.710694667683269"><ele>316.0</ele><time>2026-04-27T15:22:59.001Z</time></trkpt><trkpt lat="30.546304119930582" lon="-8.710953584567436"><ele>315.66666666666663</ele><time>2026-04-27T15:23:00.001Z</time></trkpt><trkpt lat="30.546264689172105" lon="-8.71121362566008"><ele>315.3333333333333</ele><time>2026-04-27T15:23:01.001Z</time></trkpt><trkpt lat="30.546229023625123" lon="-8.711457668455587"><ele>315.0</ele><time>2026-04-27T15:23:02.001Z</time></trkpt><trkpt lat="30.54619340016713" lon="-8.711686713105863"><ele>314.6666666666667</ele><time>2026-04-27T15:23:03.001Z</time></trkpt><trkpt lat="30.546152167422168" lon="-8.711909691717763"><ele>314.33333333333337</ele><time>2026-04-27T15:23:04.001Z</time></trkpt><trkpt lat="30.546113712020365" lon="-8.712150175498035"><ele>314.0</ele><time>2026-04-27T15:23:05.001Z</time></trkpt><trkpt lat="30.546080608611515" lon="-8.712400483662094"><ele>314.0</ele><time>2026-04-27T15:23:06.001Z</time></trkpt><trkpt lat="30.54604886051438" lon="-8.712655358468936"><ele>314.0</ele><time>2026-04-27T15:23:07.001Z</time></trkpt><trkpt lat="30.54601408531591" lon="-8.712915517820075"><ele>314.0</ele><time>2026-04-27T15:23:08.001Z</time></trkpt><trkpt lat="30.54597870153599" lon="-8.713169316530577"><ele>314.0</ele><time>2026-04-27T15:23:09.001Z</time></trkpt><trkpt lat="30.545943914524795" lon="-8.713403895988618"><ele>314.0</ele><time>2026-04-27T15:23:10.001Z</time></trkpt><trkpt lat="30.545909532611528" lon="-8.713625805270647"><ele>314.0</ele><time>2026-04-27T15:23:11Z</time></trkpt><trkpt lat="30.545877509702706" lon="-8.71384017114206"><ele>314.0</ele><time>2026-04-27T15:23:12Z</time></trkpt><trkpt lat="30.545848414370454" lon="-8.714035694250859"><ele>314.0</ele><time>2026-04-27T15:23:13Z</time></trkpt><trkpt lat="30.54581230270103" lon="-8.714221882180338"><ele>314.0</ele><time>2026-04-27T15:23:14Z</time></trkpt><trkpt lat="30.545769937272343" lon="-8.71439859296449"><ele>314.0</ele><time>2026-04-27T15:23:15Z</time></trkpt><trkpt lat="30.545727697781626" lon="-8.71456170286041"><ele>314.0</ele><time>2026-04-27T15:23:16Z</time></trkpt><trkpt lat="30.545678013902382" lon="-8.714732111618261"><ele>314.0</ele><time>2026-04-27T15:23:17Z</time></trkpt><trkpt lat="30.545610384679478" lon="-8.71492281697096"><ele>314.0</ele><time>2026-04-27T15:23:18Z</time></trkpt><trkpt lat="30.545530908545327" lon="-8.7151211956128"><ele>314.0</ele><time>2026-04-27T15:23:19Z</time></trkpt><trkpt lat="30.54544586696854" lon="-8.715314406618926"><ele>314.0</ele><time>2026-04-27T15:23:20Z</time></trkpt><trkpt lat="30.54536109813392" lon="-8.71548889897802"><ele>313.0</ele><time>2026-04-27T15:23:21Z</time></trkpt><trkpt lat="30.545270700616054" lon="-8.71566449108183"><ele>312.0</ele><time>2026-04-27T15:23:22Z</time></trkpt><trkpt lat="30.545177338543084" lon="-8.715832083913709"><ele>311.0</ele><time>2026-04-27T15:23:23Z</time></trkpt><trkpt lat="30.545082165772254" lon="-8.715987526841209"><ele>310.6666666666667</ele><time>2026-04-27T15:23:24Z</time></trkpt><trkpt lat="30.544987885193972" lon="-8.716129952763302"><ele>310.3333333333333</ele><time>2026-04-27T15:23:25Z</time></trkpt><trkpt lat="30.544892545432088" lon="-8.716263874865746"><ele>310.0</ele><time>2026-04-27T15:23:26Z</time></trkpt><trkpt lat="30.544794781345107" lon="-8.716389961139111"><ele>310.0</ele><time>2026-04-27T15:23:27Z</time></trkpt><trkpt lat="30.54470638820767" lon="-8.716503471957921"><ele>310.0</ele><time>2026-04-27T15:23:28Z</time></trkpt><trkpt lat="30.544627408797936" lon="-8.716599695821625"><ele>310.0</ele><time>2026-04-27T15:23:29Z</time></trkpt><trkpt lat="30.544557627696143" lon="-8.716684097773031"><ele>310.0</ele><time>2026-04-27T15:23:30Z</time></trkpt><trkpt lat="30.544497476847383" lon="-8.716758342622233"><ele>310.0</ele><time>2026-04-27T15:23:31Z</time></trkpt><trkpt lat="30.544432858894538" lon="-8.716843216537702"><ele>310.5</ele><time>2026-04-27T15:23:32Z</time></trkpt><trkpt lat="30.54436072843776" lon="-8.716933570096236"><ele>311.0</ele><time>2026-04-27T15:23:33Z</time></trkpt><trkpt lat="30.54428147972696" lon="-8.717039719616809"><ele>311.5</ele><time>2026-04-27T15:23:34Z</time></trkpt><trkpt lat="30.54419740741021" lon="-8.717146165296452"><ele>312.0</ele><time>2026-04-27T15:23:35Z</time></trkpt><trkpt lat="30.544120836432693" lon="-8.717247200760827"><ele>312.0</ele><time>2026-04-27T15:23:36Z</time></trkpt><trkpt lat="30.544051996360217" lon="-8.717335448503952"><ele>312.0</ele><time>2026-04-27T15:23:37Z</time></trkpt><trkpt lat="30.54398989993689" lon="-8.717414430027619"><ele>312.0</ele><time>2026-04-27T15:23:38Z</time></trkpt><trkpt lat="30.543933909375944" lon="-8.71748626232451"><ele>312.0</ele><time>2026-04-27T15:23:39Z</time></trkpt><trkpt lat="30.543879700582146" lon="-8.717554549326273"><ele>312.0</ele><time>2026-04-27T15:23:40Z</time></trkpt><trkpt lat="30.54382310370166" lon="-8.717628561662703"><ele>312.0</ele><time>2026-04-27T15:23:41Z</time></trkpt><trkpt lat="30.543763488204917" lon="-8.717705343837483"><ele>311.8</ele><time>2026-04-27T15:23:42Z</time></trkpt><trkpt lat="30.54369917909301" lon="-8.717782015663987"><ele>311.6</ele><time>2026-04-27T15:23:43Z</time></trkpt><trkpt lat="30.543635855034353" lon="-8.717856544015197"><ele>311.40000000000003</ele><time>2026-04-27T15:23:44Z</time></trkpt><trkpt lat="30.54357080772683" lon="-8.717934472715015"><ele>311.2</ele><time>2026-04-27T15:23:45Z</time></trkpt><trkpt lat="30.543500546661857" lon="-8.718024800761016"><ele>311.0</ele><time>2026-04-27T15:23:46Z</time></trkpt><trkpt lat="30.54341636080091" lon="-8.718131218652891"><ele>311.0</ele><time>2026-04-27T15:23:47Z</time></trkpt><trkpt lat="30.543322551221856" lon="-8.718251279680713"><ele>311.0</ele><time>2026-04-27T15:23:48Z</time></trkpt><trkpt lat="30.54322144994249" lon="-8.718379752719446"><ele>311.0</ele><time>2026-04-27T15:23:49Z</time></trkpt><trkpt lat="30.543118438895856" lon="-8.718511221400448"><ele>311.0</ele><time>2026-04-27T15:23:50Z</time></trkpt><trkpt lat="30.543013808758786" lon="-8.718641901271042"><ele>311.0</ele><time>2026-04-27T15:23:51Z</time></trkpt><trkpt lat="30.542910791013398" lon="-8.718775070545052"><ele>311.0</ele><time>2026-04-27T15:23:52Z</time></trkpt><trkpt lat="30.54281090420751" lon="-8.71890668042562"><ele>311.0</ele><time>2026-04-27T15:23:53Z</time></trkpt><trkpt lat="30.542713477145913" lon="-8.719034280050275"><ele>310.75</ele><time>2026-04-27T15:23:54Z</time></trkpt><trkpt lat="30.542622879170988" lon="-8.719152573744323"><ele>310.5</ele><time>2026-04-27T15:23:55Z</time></trkpt><trkpt lat="30.542538664749795" lon="-8.719263320601891"><ele>310.25</ele><time>2026-04-27T15:23:56Z</time></trkpt><trkpt lat="30.542459903914217" lon="-8.719369435674718"><ele>310.0</ele><time>2026-04-27T15:23:57Z</time></trkpt><trkpt lat="30.542383593086477" lon="-8.719465342721092"><ele>310.0</ele><time>2026-04-27T15:23:58Z</time></trkpt><trkpt lat="30.54230575944909" lon="-8.719561885636189"><ele>310.0</ele><time>2026-04-27T15:23:59Z</time></trkpt><trkpt lat="30.542222106516245" lon="-8.719670261194214"><ele>310.0</ele><time>2026-04-27T15:24:00Z</time></trkpt><trkpt lat="30.54213754033618" lon="-8.719779269738234"><ele>310.0</ele><time>2026-04-27T15:24:01Z</time></trkpt><trkpt lat="30.54204712378807" lon="-8.719894284203013"><ele>309.75</ele><time>2026-04-27T15:24:02Z</time></trkpt><trkpt lat="30.54195316491367" lon="-8.720016234125739"><ele>309.5</ele><time>2026-04-27T15:24:03Z</time></trkpt><trkpt lat="30.541856850463663" lon="-8.720141521183805"><ele>309.25</ele><time>2026-04-27T15:24:04Z</time></trkpt><trkpt lat="30.54175597992991" lon="-8.720267869277993"><ele>309.0</ele><time>2026-04-27T15:24:05Z</time></trkpt><trkpt lat="30.541653605374137" lon="-8.720395731905807"><ele>308.3333333333333</ele><time>2026-04-27T15:24:06Z</time></trkpt><trkpt lat="30.54154980793992" lon="-8.720527023586225"><ele>307.66666666666663</ele><time>2026-04-27T15:24:07Z</time></trkpt><trkpt lat="30.541444632797358" lon="-8.720660052249697"><ele>307.0</ele><time>2026-04-27T15:24:08Z</time></trkpt><trkpt lat="30.541338699000363" lon="-8.720794799928704"><ele>307.0</ele><time>2026-04-27T15:24:09Z</time></trkpt><trkpt lat="30.541236698842457" lon="-8.720925865118366"><ele>307.0</ele><time>2026-04-27T15:24:10Z</time></trkpt><trkpt lat="30.54113259863172" lon="-8.721060302922853"><ele>307.0</ele><time>2026-04-27T15:24:11Z</time></trkpt><trkpt lat="30.54102673004608" lon="-8.721191210604548"><ele>307.0</ele><time>2026-04-27T15:24:12Z</time></trkpt><trkpt lat="30.540920210906652" lon="-8.721321917087549"><ele>307.0</ele><time>2026-04-27T15:24:13.001Z</time></trkpt><trkpt lat="30.540816408256983" lon="-8.721451470521897"><ele>307.0</ele><time>2026-04-27T15:24:14.001Z</time></trkpt><trkpt lat="30.54072131040264" lon="-8.721575143561118"><ele>307.0</ele><time>2026-04-27T15:24:15.001Z</time></trkpt><trkpt lat="30.540631686551713" lon="-8.721695374730833"><ele>307.0</ele><time>2026-04-27T15:24:16.001Z</time></trkpt><trkpt lat="30.540544700028246" lon="-8.721807259302459"><ele>307.0</ele><time>2026-04-27T15:24:17.001Z</time></trkpt><trkpt lat="30.540459579651923" lon="-8.72191677529396"><ele>307.0</ele><time>2026-04-27T15:24:18.001Z</time></trkpt><trkpt lat="30.540369621732925" lon="-8.722029633010767"><ele>306.5</ele><time>2026-04-27T15:24:19.001Z</time></trkpt><trkpt lat="30.540276156307005" lon="-8.72214824921035"><ele>306.0</ele><time>2026-04-27T15:24:20.001Z</time></trkpt><trkpt lat="30.540179395284103" lon="-8.722273342855777"><ele>305.5</ele><time>2026-04-27T15:24:21.001Z</time></trkpt><trkpt lat="30.540077593057525" lon="-8.722403734332936"><ele>305.0</ele><time>2026-04-27T15:24:22.001Z</time></trkpt><trkpt lat="30.539970668177126" lon="-8.722541647018854"><ele>305.0</ele><time>2026-04-27T15:24:23.001Z</time></trkpt><trkpt lat="30.53985799508656" lon="-8.722684359180832"><ele>305.0</ele><time>2026-04-27T15:24:24.001Z</time></trkpt><trkpt lat="30.539739907391432" lon="-8.72283148040923"><ele>305.0</ele><time>2026-04-27T15:24:25.001Z</time></trkpt><trkpt lat="30.5396214123395" lon="-8.722983572164097"><ele>305.0</ele><time>2026-04-27T15:24:26.001Z</time></trkpt><trkpt lat="30.539495577615913" lon="-8.723140083049374"><ele>305.0</ele><time>2026-04-27T15:24:27.001Z</time></trkpt><trkpt lat="30.53936551592498" lon="-8.723304324824905"><ele>305.0</ele><time>2026-04-27T15:24:28.001Z</time></trkpt><trkpt lat="30.5392327458244" lon="-8.723473370740988"><ele>305.0</ele><time>2026-04-27T15:24:29.001Z</time></trkpt><trkpt lat="30.53909621895537" lon="-8.723646416212562"><ele>305.0</ele><time>2026-04-27T15:24:30.001Z</time></trkpt><trkpt lat="30.538956581970456" lon="-8.723824095214"><ele>305.0</ele><time>2026-04-27T15:24:31.001Z</time></trkpt><trkpt lat="30.538817233885855" lon="-8.724010906305686"><ele>305.0</ele><time>2026-04-27T15:24:32.001Z</time></trkpt><trkpt lat="30.538678659856174" lon="-8.724197662809159"><ele>305.0</ele><time>2026-04-27T15:24:33.001Z</time></trkpt><trkpt lat="30.538542681879562" lon="-8.724386710178177"><ele>305.0</ele><time>2026-04-27T15:24:34.001Z</time></trkpt><trkpt lat="30.53840617646226" lon="-8.724576967341754"><ele>304.6666666666667</ele><time>2026-04-27T15:24:35.001Z</time></trkpt><trkpt lat="30.538274143921516" lon="-8.724767318674967"><ele>304.3333333333333</ele><time>2026-04-27T15:24:36.001Z</time></trkpt><trkpt lat="30.53814086811061" lon="-8.724957485739054"><ele>304.0</ele><time>2026-04-27T15:24:37.001Z</time></trkpt><trkpt lat="30.538010217121005" lon="-8.725148998102519"><ele>303.3333333333333</ele><time>2026-04-27T15:24:38.001Z</time></trkpt><trkpt lat="30.537879631710602" lon="-8.72534126634016"><ele>302.6666666666667</ele><time>2026-04-27T15:24:39.001Z</time></trkpt><trkpt lat="30.53774847072632" lon="-8.725535546439792"><ele>302.0</ele><time>2026-04-27T15:24:40.001Z</time></trkpt><trkpt lat="30.537617994513052" lon="-8.72572927467355"><ele>302.0</ele><time>2026-04-27T15:24:41.001Z</time></trkpt><trkpt lat="30.53749297018715" lon="-8.725913592008055"><ele>302.0</ele><time>2026-04-27T15:24:42.001Z</time></trkpt><trkpt lat="30.537368949459587" lon="-8.72609818383674"><ele>302.0</ele><time>2026-04-27T15:24:43.001Z</time></trkpt><trkpt lat="30.537245361408985" lon="-8.726281951820818"><ele>302.0</ele><time>2026-04-27T15:24:44.001Z</time></trkpt><trkpt lat="30.537122229941904" lon="-8.726466688057426"><ele>302.0</ele><time>2026-04-27T15:24:45.001Z</time></trkpt><trkpt lat="30.53700077324669" lon="-8.726645071303391"><ele>302.0</ele><time>2026-04-27T15:24:46.001Z</time></trkpt><trkpt lat="30.536884648573352" lon="-8.726814551491454"><ele>301.33333333333337</ele><time>2026-04-27T15:24:47.001Z</time></trkpt><trkpt lat="30.536773334440774" lon="-8.726977094371108"><ele>300.6666666666667</ele><time>2026-04-27T15:24:48.001Z</time></trkpt><trkpt lat="30.536671149301956" lon="-8.727125599743076"><ele>300.0</ele><time>2026-04-27T15:24:49.001Z</time></trkpt><trkpt lat="30.536571188855795" lon="-8.727271574848874"><ele>300.0</ele><time>2026-04-27T15:24:50.001Z</time></trkpt><trkpt lat="30.53646487746664" lon="-8.727420927516002"><ele>300.0</ele><time>2026-04-27T15:24:51.001Z</time></trkpt><trkpt lat="30.536346293925682" lon="-8.727587859314042"><ele>300.0</ele><time>2026-04-27T15:24:52.001Z</time></trkpt><trkpt lat="30.536237989757595" lon="-8.72773772751104"><ele>300.3333333333333</ele><time>2026-04-27T15:24:53.001Z</time></trkpt><trkpt lat="30.536122467698586" lon="-8.727893871276557"><ele>300.66666666666663</ele><time>2026-04-27T15:24:54.001Z</time></trkpt><trkpt lat="30.53600995560426" lon="-8.728042098219067"><ele>301.0</ele><time>2026-04-27T15:24:55.001Z</time></trkpt><trkpt lat="30.53589428336243" lon="-8.728188287122965"><ele>301.0</ele><time>2026-04-27T15:24:56.001Z</time></trkpt><trkpt lat="30.53578122305534" lon="-8.728319777118596"><ele>301.0</ele><time>2026-04-27T15:24:57.001Z</time></trkpt><trkpt lat="30.535664067298807" lon="-8.728444724462868"><ele>301.0</ele><time>2026-04-27T15:24:58.001Z</time></trkpt><trkpt lat="30.535544469976617" lon="-8.728567825820233"><ele>301.3333333333333</ele><time>2026-04-27T15:24:59.001Z</time></trkpt><trkpt lat="30.535423498884278" lon="-8.728692464805725"><ele>301.6666666666667</ele><time>2026-04-27T15:25:00.001Z</time></trkpt><trkpt lat="30.53530109050233" lon="-8.728807472322995"><ele>302.0</ele><time>2026-04-27T15:25:01Z</time></trkpt><trkpt lat="30.53517328753289" lon="-8.728925149807926"><ele>301.33333333333337</ele><time>2026-04-27T15:25:02Z</time></trkpt><trkpt lat="30.535044196287874" lon="-8.729037848188682"><ele>300.6666666666667</ele><time>2026-04-27T15:25:03Z</time></trkpt><trkpt lat="30.534911391977648" lon="-8.729152533434107"><ele>300.0</ele><time>2026-04-27T15:25:04Z</time></trkpt><trkpt lat="30.53476877715875" lon="-8.72926287525059"><ele>300.0</ele><time>2026-04-27T15:25:05Z</time></trkpt><trkpt lat="30.534633718739027" lon="-8.729376986569527"><ele>300.0</ele><time>2026-04-27T15:25:06Z</time></trkpt><trkpt lat="30.534478867664234" lon="-8.729486557553523"><ele>300.0</ele><time>2026-04-27T15:25:07Z</time></trkpt><trkpt lat="30.53432305059641" lon="-8.729599602340338"><ele>300.3333333333333</ele><time>2026-04-27T15:25:08Z</time></trkpt><trkpt lat="30.534154782569114" lon="-8.729715341253673"><ele>300.66666666666663</ele><time>2026-04-27T15:25:09Z</time></trkpt><trkpt lat="30.533989337182206" lon="-8.729834850650438"><ele>301.0</ele><time>2026-04-27T15:25:10Z</time></trkpt><trkpt lat="30.533834444180222" lon="-8.72995403813022"><ele>301.0</ele><time>2026-04-27T15:25:11Z</time></trkpt><trkpt lat="30.53369896935465" lon="-8.730060683429773"><ele>301.0</ele><time>2026-04-27T15:25:12Z</time></trkpt><trkpt lat="30.533567815477628" lon="-8.730160795846285"><ele>301.0</ele><time>2026-04-27T15:25:13Z</time></trkpt><trkpt lat="30.533448172432582" lon="-8.73025192200389"><ele>301.0</ele><time>2026-04-27T15:25:14Z</time></trkpt><trkpt lat="30.53333332794379" lon="-8.730342059723027"><ele>301.0</ele><time>2026-04-27T15:25:15Z</time></trkpt><trkpt lat="30.533229012392372" lon="-8.73042112901073"><ele>301.0</ele><time>2026-04-27T15:25:16Z</time></trkpt><trkpt lat="30.533128605117053" lon="-8.730502670756866"><ele>301.0</ele><time>2026-04-27T15:25:17Z</time></trkpt><trkpt lat="30.53302292007079" lon="-8.730593926089636"><ele>301.0</ele><time>2026-04-27T15:25:18Z</time></trkpt><trkpt lat="30.532913238616956" lon="-8.730687031613838"><ele>301.0</ele><time>2026-04-27T15:25:19Z</time></trkpt><trkpt lat="30.532816396624685" lon="-8.730775999171343"><ele>301.0</ele><time>2026-04-27T15:25:20Z</time></trkpt><trkpt lat="30.532726924264363" lon="-8.73086649639562"><ele>301.0</ele><time>2026-04-27T15:25:21Z</time></trkpt><trkpt lat="30.532647352108814" lon="-8.730962106048882"><ele>300.25</ele><time>2026-04-27T15:25:22Z</time></trkpt><trkpt lat="30.532564706183926" lon="-8.731047206538333"><ele>299.5</ele><time>2026-04-27T15:25:23Z</time></trkpt><trkpt lat="30.532473422004617" lon="-8.731144892348109"><ele>298.75</ele><time>2026-04-27T15:25:24Z</time></trkpt><trkpt lat="30.532372453361805" lon="-8.731252363009004"><ele>298.0</ele><time>2026-04-27T15:25:25Z</time></trkpt><trkpt lat="30.532269350472742" lon="-8.731362792697245"><ele>298.0</ele><time>2026-04-27T15:25:26Z</time></trkpt><trkpt lat="30.532164233306972" lon="-8.731474224195233"><ele>298.0</ele><time>2026-04-27T15:25:27Z</time></trkpt><trkpt lat="30.532060053243438" lon="-8.73159500267182"><ele>298.0</ele><time>2026-04-27T15:25:28Z</time></trkpt><trkpt lat="30.5319640532201" lon="-8.731743615580585"><ele>298.3333333333333</ele><time>2026-04-27T15:25:29Z</time></trkpt><trkpt lat="30.531852479959777" lon="-8.731889799597027"><ele>298.6666666666667</ele><time>2026-04-27T15:25:30Z</time></trkpt><trkpt lat="30.531742842321016" lon="-8.732042093577697"><ele>299.0</ele><time>2026-04-27T15:25:31Z</time></trkpt><trkpt lat="30.53164104645558" lon="-8.732187249682728"><ele>299.33333333333337</ele><time>2026-04-27T15:25:32Z</time></trkpt><trkpt lat="30.53152422445671" lon="-8.732334277715681"><ele>299.6666666666667</ele><time>2026-04-27T15:25:33Z</time></trkpt><trkpt lat="30.53139622491624" lon="-8.732491645241456"><ele>300.0</ele><time>2026-04-27T15:25:34Z</time></trkpt><trkpt lat="30.53125757327325" lon="-8.732665352272985"><ele>298.5</ele><time>2026-04-27T15:25:35Z</time></trkpt><trkpt lat="30.531116344339065" lon="-8.732864189370696"><ele>297.0</ele><time>2026-04-27T15:25:36Z</time></trkpt><trkpt lat="30.530967981561034" lon="-8.733071665345799"><ele>297.0</ele><time>2026-04-27T15:25:37Z</time></trkpt><trkpt lat="30.530819863869546" lon="-8.733281628269024"><ele>297.0</ele><time>2026-04-27T15:25:38Z</time></trkpt><trkpt lat="30.53067550770776" lon="-8.73348461520121"><ele>297.0</ele><time>2026-04-27T15:25:39Z</time></trkpt><trkpt lat="30.530537970942916" lon="-8.733679566690364"><ele>297.0</ele><time>2026-04-27T15:25:40Z</time></trkpt><trkpt lat="30.530407895144243" lon="-8.73385794338397"><ele>297.0</ele><time>2026-04-27T15:25:41Z</time></trkpt><trkpt lat="30.530274745209738" lon="-8.734039360805102"><ele>297.0</ele><time>2026-04-27T15:25:42Z</time></trkpt><trkpt lat="30.530130193347066" lon="-8.734228664545697"><ele>297.0</ele><time>2026-04-27T15:25:43Z</time></trkpt><trkpt lat="30.5299936526966" lon="-8.734419563962236"><ele>297.0</ele><time>2026-04-27T15:25:44Z</time></trkpt><trkpt lat="30.5298697678937" lon="-8.734592250117393"><ele>296.6666666666667</ele><time>2026-04-27T15:25:45Z</time></trkpt><trkpt lat="30.529762714596252" lon="-8.734759054222526"><ele>296.33333333333337</ele><time>2026-04-27T15:25:46Z</time></trkpt><trkpt lat="30.529665084368094" lon="-8.734919894913018"><ele>296.0</ele><time>2026-04-27T15:25:47Z</time></trkpt><trkpt lat="30.52957699374634" lon="-8.735072865411272"><ele>295.75</ele><time>2026-04-27T15:25:48Z</time></trkpt><trkpt lat="30.529491566469595" lon="-8.735221600343833"><ele>295.5</ele><time>2026-04-27T15:25:49Z</time></trkpt><trkpt lat="30.52941412275197" lon="-8.735363630621567"><ele>295.25</ele><time>2026-04-27T15:25:50Z</time></trkpt><trkpt lat="30.529342463227604" lon="-8.73550123226557"><ele>295.0</ele><time>2026-04-27T15:25:51Z</time></trkpt><trkpt lat="30.529272069787087" lon="-8.735639119595655"><ele>295.0</ele><time>2026-04-27T15:25:52Z</time></trkpt><trkpt lat="30.52919928608977" lon="-8.735783450164545"><ele>295.0</ele><time>2026-04-27T15:25:53Z</time></trkpt><trkpt lat="30.529126759632906" lon="-8.735933442735952"><ele>295.0</ele><time>2026-04-27T15:25:54Z</time></trkpt><trkpt lat="30.52905395909793" lon="-8.736088518891941"><ele>295.0</ele><time>2026-04-27T15:25:55Z</time></trkpt><trkpt lat="30.528969099282914" lon="-8.736267696749843"><ele>294.66666666666663</ele><time>2026-04-27T15:25:56Z</time></trkpt><trkpt lat="30.528870684060056" lon="-8.736463023648566"><ele>294.3333333333333</ele><time>2026-04-27T15:25:57Z</time></trkpt><trkpt lat="30.528771690074578" lon="-8.736670744581145"><ele>294.0</ele><time>2026-04-27T15:25:58Z</time></trkpt><trkpt lat="30.528676820960317" lon="-8.736893602304225"><ele>293.0</ele><time>2026-04-27T15:25:59Z</time></trkpt><trkpt lat="30.528580227877978" lon="-8.737127763597854"><ele>292.0</ele><time>2026-04-27T15:26:00Z</time></trkpt><trkpt lat="30.528483651500842" lon="-8.737378614804824"><ele>292.0</ele><time>2026-04-27T15:26:01Z</time></trkpt><trkpt lat="30.528386066659248" lon="-8.737626609436644"><ele>292.0</ele><time>2026-04-27T15:26:02Z</time></trkpt><trkpt lat="30.528283919991544" lon="-8.73787456008871"><ele>290.5</ele><time>2026-04-27T15:26:03Z</time></trkpt><trkpt lat="30.52817813315908" lon="-8.738119332617561"><ele>289.0</ele><time>2026-04-27T15:26:04Z</time></trkpt><trkpt lat="30.528068803335955" lon="-8.73837078870988"><ele>289.5</ele><time>2026-04-27T15:26:05Z</time></trkpt><trkpt lat="30.527958851348036" lon="-8.738627453071135"><ele>290.0</ele><time>2026-04-27T15:26:06Z</time></trkpt><trkpt lat="30.527845528043148" lon="-8.738885797051408"><ele>289.0</ele><time>2026-04-27T15:26:07Z</time></trkpt><trkpt lat="30.52772640895903" lon="-8.739154356986917"><ele>288.0</ele><time>2026-04-27T15:26:08Z</time></trkpt><trkpt lat="30.527606782940207" lon="-8.739429714696673"><ele>290.0</ele><time>2026-04-27T15:26:09Z</time></trkpt><trkpt lat="30.527485942067685" lon="-8.739712970548231"><ele>292.0</ele><time>2026-04-27T15:26:10Z</time></trkpt><trkpt lat="30.527364104964537" lon="-8.739995506263439"><ele>293.0</ele><time>2026-04-27T15:26:11Z</time></trkpt><trkpt lat="30.527241870558683" lon="-8.74027466873328"><ele>294.0</ele><time>2026-04-27T15:26:12Z</time></trkpt><trkpt lat="30.527120655972357" lon="-8.740554693092774"><ele>292.5</ele><time>2026-04-27T15:26:13Z</time></trkpt><trkpt lat="30.526999957538454" lon="-8.74083549627928"><ele>291.0</ele><time>2026-04-27T15:26:14Z</time></trkpt><trkpt lat="30.526877073877873" lon="-8.741115711059875"><ele>290.5</ele><time>2026-04-27T15:26:15Z</time></trkpt><trkpt lat="30.52675476097362" lon="-8.741398193072008"><ele>290.0</ele><time>2026-04-27T15:26:16Z</time></trkpt><trkpt lat="30.526634474124638" lon="-8.741677525467102"><ele>290.0</ele><time>2026-04-27T15:26:17Z</time></trkpt><trkpt lat="30.526513658945415" lon="-8.74195822122096"><ele>290.0</ele><time>2026-04-27T15:26:18Z</time></trkpt><trkpt lat="30.526392718004658" lon="-8.742238987917343"><ele>290.0</ele><time>2026-04-27T15:26:19Z</time></trkpt><trkpt lat="30.526271501481176" lon="-8.742520832103034"><ele>290.0</ele><time>2026-04-27T15:26:20Z</time></trkpt><trkpt lat="30.526153482848894" lon="-8.742801249056571"><ele>290.0</ele><time>2026-04-27T15:26:21Z</time></trkpt><trkpt lat="30.526033851980817" lon="-8.74307824206778"><ele>290.0</ele><time>2026-04-27T15:26:22Z</time></trkpt><trkpt lat="30.52591298122238" lon="-8.743352237209011"><ele>290.5</ele><time>2026-04-27T15:26:23Z</time></trkpt><trkpt lat="30.525790114014818" lon="-8.743629788262464"><ele>291.0</ele><time>2026-04-27T15:26:24Z</time></trkpt><trkpt lat="30.52566866676138" lon="-8.743904306276262"><ele>291.0</ele><time>2026-04-27T15:26:25Z</time></trkpt><trkpt lat="30.525549556726816" lon="-8.744181161400954"><ele>291.0</ele><time>2026-04-27T15:26:26Z</time></trkpt><trkpt lat="30.52543208322687" lon="-8.744458486035494"><ele>289.5</ele><time>2026-04-27T15:26:27Z</time></trkpt><trkpt lat="30.525318282576528" lon="-8.744739082726076"><ele>288.0</ele><time>2026-04-27T15:26:28Z</time></trkpt><trkpt lat="30.525212170151292" lon="-8.745020692533261"><ele>287.5</ele><time>2026-04-27T15:26:29Z</time></trkpt><trkpt lat="30.525115783107967" lon="-8.745302356973465"><ele>287.0</ele><time>2026-04-27T15:26:30Z</time></trkpt><trkpt lat="30.525028735265153" lon="-8.745580554378746"><ele>287.0</ele><time>2026-04-27T15:26:31Z</time></trkpt><trkpt lat="30.524957543642458" lon="-8.74584892978709"><ele>287.0</ele><time>2026-04-27T15:26:32Z</time></trkpt><trkpt lat="30.52489770318004" lon="-8.74612275627547"><ele>287.0</ele><time>2026-04-27T15:26:33Z</time></trkpt><trkpt lat="30.52484871462875" lon="-8.746392097988162"><ele>287.0</ele><time>2026-04-27T15:26:34Z</time></trkpt><trkpt lat="30.524807137988834" lon="-8.746654189444602"><ele>286.33333333333337</ele><time>2026-04-27T15:26:35Z</time></trkpt><trkpt lat="30.524775310305312" lon="-8.746912004495039"><ele>285.6666666666667</ele><time>2026-04-27T15:26:36Z</time></trkpt><trkpt lat="30.524745847863024" lon="-8.747167804866098"><ele>285.0</ele><time>2026-04-27T15:26:37Z</time></trkpt><trkpt lat="30.52471255587309" lon="-8.747427814368455"><ele>285.0</ele><time>2026-04-27T15:26:38Z</time></trkpt><trkpt lat="30.52467825902636" lon="-8.747689292826797"><ele>285.0</ele><time>2026-04-27T15:26:39Z</time></trkpt><trkpt lat="30.52464370615362" lon="-8.747954526601564"><ele>284.5</ele><time>2026-04-27T15:26:40Z</time></trkpt><trkpt lat="30.52460847015241" lon="-8.748226740356204"><ele>284.0</ele><time>2026-04-27T15:26:41Z</time></trkpt><trkpt lat="30.524571479795274" lon="-8.748502637039433"><ele>285.0</ele><time>2026-04-27T15:26:42Z</time></trkpt><trkpt lat="30.524531335861486" lon="-8.748784832564153"><ele>286.0</ele><time>2026-04-27T15:26:43Z</time></trkpt><trkpt lat="30.524494305718115" lon="-8.749070413761473"><ele>286.0</ele><time>2026-04-27T15:26:44Z</time></trkpt><trkpt lat="30.5244604753551" lon="-8.74935721076373"><ele>286.0</ele><time>2026-04-27T15:26:45Z</time></trkpt><trkpt lat="30.52442696286053" lon="-8.749642380848442"><ele>286.0</ele><time>2026-04-27T15:26:46Z</time></trkpt><trkpt lat="30.52438950570277" lon="-8.74992449874645"><ele>286.0</ele><time>2026-04-27T15:26:47Z</time></trkpt><trkpt lat="30.524349623407197" lon="-8.750204581748898"><ele>286.66666666666663</ele><time>2026-04-27T15:26:48Z</time></trkpt><trkpt lat="30.52430935355352" lon="-8.750468588627013"><ele>287.3333333333333</ele><time>2026-04-27T15:26:49Z</time></trkpt><trkpt lat="30.5242622317834" lon="-8.750709546163682"><ele>288.0</ele><time>2026-04-27T15:26:50Z</time></trkpt><trkpt lat="30.524214396325643" lon="-8.750931009166319"><ele>288.0</ele><time>2026-04-27T15:26:51Z</time></trkpt><trkpt lat="30.52416154558035" lon="-8.751139264533222"><ele>288.0</ele><time>2026-04-27T15:26:52Z</time></trkpt><trkpt lat="30.52409691215418" lon="-8.751364262919882"><ele>288.0</ele><time>2026-04-27T15:26:53Z</time></trkpt><trkpt lat="30.524028324367617" lon="-8.751616487371079"><ele>288.5</ele><time>2026-04-27T15:26:54Z</time></trkpt><trkpt lat="30.523968322024437" lon="-8.751882099722474"><ele>289.0</ele><time>2026-04-27T15:26:55Z</time></trkpt><trkpt lat="30.523902493955383" lon="-8.752143764645501"><ele>289.0</ele><time>2026-04-27T15:26:56Z</time></trkpt><trkpt lat="30.523820699654518" lon="-8.752400385920895"><ele>289.0</ele><time>2026-04-27T15:26:57Z</time></trkpt><trkpt lat="30.523728998343113" lon="-8.75265636482541"><ele>288.0</ele><time>2026-04-27T15:26:58Z</time></trkpt><trkpt lat="30.523632159329495" lon="-8.752915241581626"><ele>287.0</ele><time>2026-04-27T15:26:59Z</time></trkpt><trkpt lat="30.523534473755007" lon="-8.753172970220469"><ele>287.0</ele><time>2026-04-27T15:27:00Z</time></trkpt><trkpt lat="30.52344172161094" lon="-8.75342669624168"><ele>287.0</ele><time>2026-04-27T15:27:01Z</time></trkpt><trkpt lat="30.523349809383156" lon="-8.753684690922308"><ele>287.5</ele><time>2026-04-27T15:27:02Z</time></trkpt><trkpt lat="30.523259496589475" lon="-8.753937025898626"><ele>288.0</ele><time>2026-04-27T15:27:03Z</time></trkpt><trkpt lat="30.523170946005514" lon="-8.75419146257854"><ele>287.5</ele><time>2026-04-27T15:27:04Z</time></trkpt><trkpt lat="30.523083431308454" lon="-8.754440676756154"><ele>287.0</ele><time>2026-04-27T15:27:05Z</time></trkpt><trkpt lat="30.52299568984148" lon="-8.754689774985302"><ele>287.0</ele><time>2026-04-27T15:27:06Z</time></trkpt><trkpt lat="30.522906413048993" lon="-8.754938873388797"><ele>287.0</ele><time>2026-04-27T15:27:07Z</time></trkpt><trkpt lat="30.522818911183602" lon="-8.75519378871449"><ele>286.5</ele><time>2026-04-27T15:27:08Z</time></trkpt><trkpt lat="30.522732215391933" lon="-8.755445816729798"><ele>286.0</ele><time>2026-04-27T15:27:09Z</time></trkpt><trkpt lat="30.522646290331746" lon="-8.755698805394552"><ele>286.0</ele><time>2026-04-27T15:27:10Z</time></trkpt><trkpt lat="30.522559301557653" lon="-8.755952187007567"><ele>286.0</ele><time>2026-04-27T15:27:11Z</time></trkpt><trkpt lat="30.522470388066996" lon="-8.7562054042137"><ele>286.0</ele><time>2026-04-27T15:27:12Z</time></trkpt><trkpt lat="30.522379700185166" lon="-8.75645831751138"><ele>286.0</ele><time>2026-04-27T15:27:13Z</time></trkpt><trkpt lat="30.522290100106908" lon="-8.756712580562894"><ele>285.5</ele><time>2026-04-27T15:27:14Z</time></trkpt><trkpt lat="30.522198761734774" lon="-8.756967737974545"><ele>285.0</ele><time>2026-04-27T15:27:15Z</time></trkpt><trkpt lat="30.522108058650847" lon="-8.757229856934336"><ele>285.0</ele><time>2026-04-27T15:27:16Z</time></trkpt><trkpt lat="30.52201325873933" lon="-8.75749218665818"><ele>285.0</ele><time>2026-04-27T15:27:17Z</time></trkpt><trkpt lat="30.521920452856772" lon="-8.757757018482039"><ele>285.0</ele><time>2026-04-27T15:27:18Z</time></trkpt><trkpt lat="30.52182562564301" lon="-8.758027812547688"><ele>285.0</ele><time>2026-04-27T15:27:19Z</time></trkpt><trkpt lat="30.52173038817467" lon="-8.758296565681038"><ele>284.0</ele><time>2026-04-27T15:27:20Z</time></trkpt><trkpt lat="30.52163301448963" lon="-8.758565430411856"><ele>283.0</ele><time>2026-04-27T15:27:21Z</time></trkpt><trkpt lat="30.521535958625027" lon="-8.758833580397548"><ele>283.0</ele><time>2026-04-27T15:27:22Z</time></trkpt><trkpt lat="30.52143086081419" lon="-8.759099901954846"><ele>283.0</ele><time>2026-04-27T15:27:23Z</time></trkpt><trkpt lat="30.52131827067842" lon="-8.759357487127549"><ele>283.5</ele><time>2026-04-27T15:27:24Z</time></trkpt><trkpt lat="30.521197671986943" lon="-8.759610013000549"><ele>284.0</ele><time>2026-04-27T15:27:25Z</time></trkpt><trkpt lat="30.52106848409335" lon="-8.759858337308737"><ele>284.0</ele><time>2026-04-27T15:27:26Z</time></trkpt><trkpt lat="30.520930692538084" lon="-8.760102334614885"><ele>284.0</ele><time>2026-04-27T15:27:27Z</time></trkpt><trkpt lat="30.52078617637314" lon="-8.760340937771755"><ele>283.5</ele><time>2026-04-27T15:27:28Z</time></trkpt><trkpt lat="30.520635353662065" lon="-8.760573555344884"><ele>283.0</ele><time>2026-04-27T15:27:29Z</time></trkpt><trkpt lat="30.520480112462046" lon="-8.760800042296761"><ele>283.0</ele><time>2026-04-27T15:27:30Z</time></trkpt><trkpt lat="30.52032164957934" lon="-8.761023856120966"><ele>283.0</ele><time>2026-04-27T15:27:31Z</time></trkpt><trkpt lat="30.520157836159964" lon="-8.761246730922288"><ele>283.0</ele><time>2026-04-27T15:27:32Z</time></trkpt><trkpt lat="30.519996194124825" lon="-8.761462983192406"><ele>283.0</ele><time>2026-04-27T15:27:33Z</time></trkpt><trkpt lat="30.519833528677992" lon="-8.761679027106785"><ele>282.0</ele><time>2026-04-27T15:27:34Z</time></trkpt><trkpt lat="30.5196683853044" lon="-8.761898439038818"><ele>281.0</ele><time>2026-04-27T15:27:35Z</time></trkpt><trkpt lat="30.519509706341104" lon="-8.762130595293156"><ele>280.5</ele><time>2026-04-27T15:27:36Z</time></trkpt><trkpt lat="30.51936059545421" lon="-8.76236529628222"><ele>280.0</ele><time>2026-04-27T15:27:37Z</time></trkpt><trkpt lat="30.51922732895492" lon="-8.762607411196978"><ele>280.5</ele><time>2026-04-27T15:27:38Z</time></trkpt><trkpt lat="30.519107814095555" lon="-8.762854474954354"><ele>281.0</ele><time>2026-04-27T15:27:39Z</time></trkpt><trkpt lat="30.519010497578673" lon="-8.763095167535495"><ele>281.0</ele><time>2026-04-27T15:27:40Z</time></trkpt><trkpt lat="30.518923458707853" lon="-8.763328656470158"><ele>281.0</ele><time>2026-04-27T15:27:41Z</time></trkpt><trkpt lat="30.518845496344284" lon="-8.76356994013331"><ele>281.0</ele><time>2026-04-27T15:27:42Z</time></trkpt><trkpt lat="30.518775162208513" lon="-8.763824069248543"><ele>280.0</ele><time>2026-04-27T15:27:43Z</time></trkpt><trkpt lat="30.518715456502836" lon="-8.764080761172798"><ele>279.0</ele><time>2026-04-27T15:27:44Z</time></trkpt><trkpt lat="30.51866877095744" lon="-8.764327767599701"><ele>278.0</ele><time>2026-04-27T15:27:45Z</time></trkpt><trkpt lat="30.518640110256104" lon="-8.764581504862326"><ele>278.0</ele><time>2026-04-27T15:27:46Z</time></trkpt><trkpt lat="30.518623809744998" lon="-8.764839973541402"><ele>278.0</ele><time>2026-04-27T15:27:47Z</time></trkpt><trkpt lat="30.51861120779597" lon="-8.765091465326329"><ele>278.0</ele><time>2026-04-27T15:27:48Z</time></trkpt><trkpt lat="30.518593116914577" lon="-8.76533694726017"><ele>278.33333333333337</ele><time>2026-04-27T15:27:49Z</time></trkpt><trkpt lat="30.518577454202312" lon="-8.765574134392565"><ele>278.6666666666667</ele><time>2026-04-27T15:27:50Z</time></trkpt><trkpt lat="30.518557558969174" lon="-8.765798737353384"><ele>279.0</ele><time>2026-04-27T15:27:51Z</time></trkpt><trkpt lat="30.518534776482856" lon="-8.766005745044438"><ele>279.3333333333333</ele><time>2026-04-27T15:27:52Z</time></trkpt><trkpt lat="30.51850286792797" lon="-8.766210397849417"><ele>279.66666666666663</ele><time>2026-04-27T15:27:53Z</time></trkpt><trkpt lat="30.518457747620143" lon="-8.766411572691974"><ele>280.0</ele><time>2026-04-27T15:27:54Z</time></trkpt><trkpt lat="30.518405077803084" lon="-8.76662176555291"><ele>280.0</ele><time>2026-04-27T15:27:55Z</time></trkpt><trkpt lat="30.518346262742707" lon="-8.766828807295708"><ele>280.0</ele><time>2026-04-27T15:27:56Z</time></trkpt><trkpt lat="30.518279151530255" lon="-8.767036270060412"><ele>280.0</ele><time>2026-04-27T15:27:57Z</time></trkpt><trkpt lat="30.5182031332075" lon="-8.76724192487526"><ele>280.3333333333333</ele><time>2026-04-27T15:27:58Z</time></trkpt><trkpt lat="30.518120059988995" lon="-8.767450338565464"><ele>280.6666666666667</ele><time>2026-04-27T15:27:59Z</time></trkpt><trkpt lat="30.51802673612338" lon="-8.767655841462279"><ele>281.0</ele><time>2026-04-27T15:28:00Z</time></trkpt><trkpt lat="30.517925309231774" lon="-8.767858880765397"><ele>281.0</ele><time>2026-04-27T15:28:01Z</time></trkpt><trkpt lat="30.51782122962783" lon="-8.768063687526734"><ele>281.0</ele><time>2026-04-27T15:28:02Z</time></trkpt><trkpt lat="30.517718847752082" lon="-8.768265226811343"><ele>281.0</ele><time>2026-04-27T15:28:03Z</time></trkpt><trkpt lat="30.51761863301994" lon="-8.768465780355529"><ele>280.6666666666667</ele><time>2026-04-27T15:28:04Z</time></trkpt><trkpt lat="30.517520176163607" lon="-8.768664156718126"><ele>280.3333333333333</ele><time>2026-04-27T15:28:05Z</time></trkpt><trkpt lat="30.517421009150695" lon="-8.76886401582228"><ele>280.0</ele><time>2026-04-27T15:28:06Z</time></trkpt><trkpt lat="30.517320937126588" lon="-8.769064672780914"><ele>280.0</ele><time>2026-04-27T15:28:07Z</time></trkpt><trkpt lat="30.517218269817427" lon="-8.76927269061116"><ele>280.0</ele><time>2026-04-27T15:28:08Z</time></trkpt><trkpt lat="30.51711475887951" lon="-8.769477178236492"><ele>280.0</ele><time>2026-04-27T15:28:09Z</time></trkpt><trkpt lat="30.517011038870777" lon="-8.769682278825154"><ele>280.0</ele><time>2026-04-27T15:28:10Z</time></trkpt><trkpt lat="30.516908017610582" lon="-8.769885110983116"><ele>280.0</ele><time>2026-04-27T15:28:11Z</time></trkpt><trkpt lat="30.516808168701495" lon="-8.770087190882577"><ele>280.0</ele><time>2026-04-27T15:28:12Z</time></trkpt><trkpt lat="30.516708441428136" lon="-8.77028248256335"><ele>280.0</ele><time>2026-04-27T15:28:13Z</time></trkpt><trkpt lat="30.516613136518295" lon="-8.770470507015723"><ele>280.0</ele><time>2026-04-27T15:28:14Z</time></trkpt><trkpt lat="30.51652018111014" lon="-8.770653375100196"><ele>280.0</ele><time>2026-04-27T15:28:15Z</time></trkpt><trkpt lat="30.516428997668616" lon="-8.770836568850866"><ele>280.0</ele><time>2026-04-27T15:28:16Z</time></trkpt><trkpt lat="30.516335467956132" lon="-8.771022282315895"><ele>280.0</ele><time>2026-04-27T15:28:17Z</time></trkpt><trkpt lat="30.51624299103073" lon="-8.771207875706072"><ele>280.0</ele><time>2026-04-27T15:28:18Z</time></trkpt><trkpt lat="30.516147679279566" lon="-8.771395368646285"><ele>279.3333333333333</ele><time>2026-04-27T15:28:19Z</time></trkpt><trkpt lat="30.51605506919165" lon="-8.771582093653473"><ele>278.6666666666667</ele><time>2026-04-27T15:28:20Z</time></trkpt><trkpt lat="30.515961523013654" lon="-8.771775861412472"><ele>278.0</ele><time>2026-04-27T15:28:21Z</time></trkpt><trkpt lat="30.51587591212231" lon="-8.771976734153087"><ele>278.0</ele><time>2026-04-27T15:28:22Z</time></trkpt><trkpt lat="30.51579402209599" lon="-8.772182378880673"><ele>278.0</ele><time>2026-04-27T15:28:23Z</time></trkpt><trkpt lat="30.51571760408766" lon="-8.772396087776391"><ele>278.0</ele><time>2026-04-27T15:28:24Z</time></trkpt><trkpt lat="30.515647471655534" lon="-8.772618441205402"><ele>278.33333333333337</ele><time>2026-04-27T15:28:25Z</time></trkpt><trkpt lat="30.51558508870509" lon="-8.772847236745358"><ele>278.6666666666667</ele><time>2026-04-27T15:28:26Z</time></trkpt><trkpt lat="30.5155308182153" lon="-8.773085559997531"><ele>279.0</ele><time>2026-04-27T15:28:27Z</time></trkpt><trkpt lat="30.515486382042134" lon="-8.773327604613549"><ele>278.3333333333333</ele><time>2026-04-27T15:28:28Z</time></trkpt><trkpt lat="30.5154497658153" lon="-8.773563851070765"><ele>277.66666666666663</ele><time>2026-04-27T15:28:29Z</time></trkpt><trkpt lat="30.51541435595645" lon="-8.773798453627826"><ele>277.0</ele><time>2026-04-27T15:28:30Z</time></trkpt><trkpt lat="30.515378648679352" lon="-8.774032861195556"><ele>277.0</ele><time>2026-04-27T15:28:31Z</time></trkpt><trkpt lat="30.515345304296712" lon="-8.774262684769536"><ele>277.0</ele><time>2026-04-27T15:28:32Z</time></trkpt><trkpt lat="30.51531205188084" lon="-8.774489371705053"><ele>277.0</ele><time>2026-04-27T15:28:33Z</time></trkpt><trkpt lat="30.515278615149022" lon="-8.774717517066653"><ele>277.3333333333333</ele><time>2026-04-27T15:28:34Z</time></trkpt><trkpt lat="30.51524331836319" lon="-8.774941967547976"><ele>277.6666666666667</ele><time>2026-04-27T15:28:35Z</time></trkpt><trkpt lat="30.515210204341987" lon="-8.775163881546733"><ele>278.0</ele><time>2026-04-27T15:28:36Z</time></trkpt><trkpt lat="30.515176211851404" lon="-8.775387678814132"><ele>278.0</ele><time>2026-04-27T15:28:37Z</time></trkpt><trkpt lat="30.515141539246876" lon="-8.775612517923873"><ele>278.0</ele><time>2026-04-27T15:28:38Z</time></trkpt><trkpt lat="30.515104238270396" lon="-8.775835502674424"><ele>278.0</ele><time>2026-04-27T15:28:39Z</time></trkpt><trkpt lat="30.515066324598312" lon="-8.776062073724992"><ele>277.0</ele><time>2026-04-27T15:28:40Z</time></trkpt><trkpt lat="30.51502785233672" lon="-8.776292383762078"><ele>276.0</ele><time>2026-04-27T15:28:41Z</time></trkpt><trkpt lat="30.514987456616076" lon="-8.776526757022678"><ele>275.0</ele><time>2026-04-27T15:28:42Z</time></trkpt><trkpt lat="30.51494705988481" lon="-8.776765954977847"><ele>274.6666666666667</ele><time>2026-04-27T15:28:43Z</time></trkpt><trkpt lat="30.51490052857654" lon="-8.777013616168093"><ele>274.3333333333333</ele><time>2026-04-27T15:28:44Z</time></trkpt><trkpt lat="30.51484985470381" lon="-8.777259908028206"><ele>274.0</ele><time>2026-04-27T15:28:45Z</time></trkpt><trkpt lat="30.514787937504618" lon="-8.777507994576549"><ele>274.3333333333333</ele><time>2026-04-27T15:28:46Z</time></trkpt><trkpt lat="30.51471493674985" lon="-8.777749616905805"><ele>274.6666666666667</ele><time>2026-04-27T15:28:47Z</time></trkpt><trkpt lat="30.51463064595972" lon="-8.777973727929732"><ele>275.0</ele><time>2026-04-27T15:28:48Z</time></trkpt><trkpt lat="30.514538162874654" lon="-8.778191810384923"><ele>275.0</ele><time>2026-04-27T15:28:49Z</time></trkpt><trkpt lat="30.514438154227705" lon="-8.778408218962625"><ele>275.0</ele><time>2026-04-27T15:28:50Z</time></trkpt><trkpt lat="30.514329385479403" lon="-8.778618674892439"><ele>275.0</ele><time>2026-04-27T15:28:51Z</time></trkpt><trkpt lat="30.514213229045396" lon="-8.778825896546303"><ele>275.33333333333337</ele><time>2026-04-27T15:28:52Z</time></trkpt><trkpt lat="30.51409486176496" lon="-8.779023627904474"><ele>275.6666666666667</ele><time>2026-04-27T15:28:53Z</time></trkpt><trkpt lat="30.51397549276199" lon="-8.779224739175191"><ele>276.0</ele><time>2026-04-27T15:28:54Z</time></trkpt><trkpt lat="30.51385700422762" lon="-8.779428188653952"><ele>276.0</ele><time>2026-04-27T15:28:55Z</time></trkpt><trkpt lat="30.513736282859906" lon="-8.779635848809452"><ele>276.0</ele><time>2026-04-27T15:28:56Z</time></trkpt><trkpt lat="30.513612548302664" lon="-8.779840245785383"><ele>276.0</ele><time>2026-04-27T15:28:57Z</time></trkpt><trkpt lat="30.51348681829104" lon="-8.78004244737605"><ele>276.6666666666667</ele><time>2026-04-27T15:28:58Z</time></trkpt><trkpt lat="30.51336162791843" lon="-8.780242605746148"><ele>277.33333333333337</ele><time>2026-04-27T15:28:59Z</time></trkpt><trkpt lat="30.51323878299419" lon="-8.78044354804297"><ele>278.0</ele><time>2026-04-27T15:29:00Z</time></trkpt><trkpt lat="30.513117437360588" lon="-8.780645961207902"><ele>278.0</ele><time>2026-04-27T15:29:01Z</time></trkpt><trkpt lat="30.51299606646162" lon="-8.780845099937311"><ele>278.0</ele><time>2026-04-27T15:29:02Z</time></trkpt><trkpt lat="30.512872693986427" lon="-8.781036949513977"><ele>278.0</ele><time>2026-04-27T15:29:03Z</time></trkpt><trkpt lat="30.512745690481502" lon="-8.781220963839129"><ele>277.6666666666667</ele><time>2026-04-27T15:29:04Z</time></trkpt><trkpt lat="30.512621802013516" lon="-8.78138792529569"><ele>277.3333333333333</ele><time>2026-04-27T15:29:05Z</time></trkpt><trkpt lat="30.512502192208757" lon="-8.781536506462746"><ele>277.0</ele><time>2026-04-27T15:29:06Z</time></trkpt><trkpt lat="30.512382472823308" lon="-8.781685446045639"><ele>277.0</ele><time>2026-04-27T15:29:07Z</time></trkpt><trkpt lat="30.512270967664428" lon="-8.781827466679529"><ele>277.0</ele><time>2026-04-27T15:29:08Z</time></trkpt><trkpt lat="30.512162098276427" lon="-8.781961440468923"><ele>277.0</ele><time>2026-04-27T15:29:09Z</time></trkpt><trkpt lat="30.512044945950564" lon="-8.78209499065254"><ele>276.3333333333333</ele><time>2026-04-27T15:29:10Z</time></trkpt><trkpt lat="30.511919663141807" lon="-8.782228875544568"><ele>275.6666666666667</ele><time>2026-04-27T15:29:11Z</time></trkpt><trkpt lat="30.511788844844176" lon="-8.782363553615445"><ele>275.0</ele><time>2026-04-27T15:29:12Z</time></trkpt><trkpt lat="30.511656024670717" lon="-8.782498121130923"><ele>275.0</ele><time>2026-04-27T15:29:13Z</time></trkpt><trkpt lat="30.511516446354584" lon="-8.782635444734577"><ele>275.0</ele><time>2026-04-27T15:29:14Z</time></trkpt><trkpt lat="30.511378594825683" lon="-8.782765629435541"><ele>275.0</ele><time>2026-04-27T15:29:15Z</time></trkpt><trkpt lat="30.511239163736068" lon="-8.782898928489468"><ele>274.0</ele><time>2026-04-27T15:29:16Z</time></trkpt><trkpt lat="30.511100833804754" lon="-8.783030349993135"><ele>273.0</ele><time>2026-04-27T15:29:17Z</time></trkpt><trkpt lat="30.510957637156597" lon="-8.783171893268802"><ele>272.0</ele><time>2026-04-27T15:29:18Z</time></trkpt><trkpt lat="30.510813394080127" lon="-8.783312242319337"><ele>272.0</ele><time>2026-04-27T15:29:19Z</time></trkpt><trkpt lat="30.510667406434667" lon="-8.78345750352518"><ele>272.0</ele><time>2026-04-27T15:29:20Z</time></trkpt><trkpt lat="30.510521166889845" lon="-8.783598782017366"><ele>272.0</ele><time>2026-04-27T15:29:21Z</time></trkpt><trkpt lat="30.51036774485396" lon="-8.783743164784681"><ele>271.6666666666667</ele><time>2026-04-27T15:29:22Z</time></trkpt><trkpt lat="30.51022082665933" lon="-8.783883679870758"><ele>271.3333333333333</ele><time>2026-04-27T15:29:23Z</time></trkpt><trkpt lat="30.51007996332147" lon="-8.784031952298317"><ele>271.0</ele><time>2026-04-27T15:29:24Z</time></trkpt><trkpt lat="30.50994707159058" lon="-8.784178801267245"><ele>271.0</ele><time>2026-04-27T15:29:25Z</time></trkpt><trkpt lat="30.50981770278744" lon="-8.784312377090808"><ele>271.0</ele><time>2026-04-27T15:29:26Z</time></trkpt><trkpt lat="30.50968808760262" lon="-8.784442554082455"><ele>271.0</ele><time>2026-04-27T15:29:27Z</time></trkpt><trkpt lat="30.509554108465586" lon="-8.784580567119049"><ele>271.0</ele><time>2026-04-27T15:29:28Z</time></trkpt><trkpt lat="30.509429722478636" lon="-8.784721909843684"><ele>271.0</ele><time>2026-04-27T15:29:29Z</time></trkpt><trkpt lat="30.509307049276824" lon="-8.784868299576141"><ele>271.0</ele><time>2026-04-27T15:29:30Z</time></trkpt><trkpt lat="30.509188017171844" lon="-8.785016895082764"><ele>271.0</ele><time>2026-04-27T15:29:31Z</time></trkpt><trkpt lat="30.50907757681357" lon="-8.78516922889616"><ele>271.0</ele><time>2026-04-27T15:29:32Z</time></trkpt><trkpt lat="30.508976928267035" lon="-8.78532511390368"><ele>271.0</ele><time>2026-04-27T15:29:33Z</time></trkpt><trkpt lat="30.508877220447296" lon="-8.785491537174016"><ele>271.0</ele><time>2026-04-27T15:29:34Z</time></trkpt><trkpt lat="30.508780881017014" lon="-8.785699485615373"><ele>271.0</ele><time>2026-04-27T15:29:35Z</time></trkpt><trkpt lat="30.50868595787983" lon="-8.785912348730735"><ele>271.0</ele><time>2026-04-27T15:29:36Z</time></trkpt><trkpt lat="30.508596701178075" lon="-8.786135758779073"><ele>271.0</ele><time>2026-04-27T15:29:37Z</time></trkpt><trkpt lat="30.508509169337675" lon="-8.786368347039366"><ele>271.0</ele><time>2026-04-27T15:29:38Z</time></trkpt><trkpt lat="30.508427831387007" lon="-8.786599174793556"><ele>271.0</ele><time>2026-04-27T15:29:39Z</time></trkpt><trkpt lat="30.50835463132746" lon="-8.786822662270485"><ele>270.3333333333333</ele><time>2026-04-27T15:29:40Z</time></trkpt><trkpt lat="30.508288845382094" lon="-8.787030535651143"><ele>269.6666666666667</ele><time>2026-04-27T15:29:41Z</time></trkpt><trkpt lat="30.508231609378583" lon="-8.787217600522618"><ele>269.0</ele><time>2026-04-27T15:29:42Z</time></trkpt><trkpt lat="30.50818321711371" lon="-8.787384343822733"><ele>269.0</ele><time>2026-04-27T15:29:43Z</time></trkpt><trkpt lat="30.508136794605527" lon="-8.787533258616403"><ele>269.0</ele><time>2026-04-27T15:29:44Z</time></trkpt><trkpt lat="30.5080927234983" lon="-8.787670675798418"><ele>269.0</ele><time>2026-04-27T15:29:45Z</time></trkpt><trkpt lat="30.508050151607282" lon="-8.787804240365505"><ele>269.0</ele><time>2026-04-27T15:29:46Z</time></trkpt><trkpt lat="30.508005488986573" lon="-8.78794724780837"><ele>269.5</ele><time>2026-04-27T15:29:47Z</time></trkpt><trkpt lat="30.5079599639528" lon="-8.78808005822534"><ele>270.0</ele><time>2026-04-27T15:29:48Z</time></trkpt><trkpt lat="30.50791206594598" lon="-8.788215183427578"><ele>270.5</ele><time>2026-04-27T15:29:49Z</time></trkpt><trkpt lat="30.507863997993844" lon="-8.788350951979476"><ele>271.0</ele><time>2026-04-27T15:29:50Z</time></trkpt><trkpt lat="30.50781608721315" lon="-8.788493437397696"><ele>271.75</ele><time>2026-04-27T15:29:51Z</time></trkpt><trkpt lat="30.50776906001954" lon="-8.788638450889296"><ele>272.5</ele><time>2026-04-27T15:29:52Z</time></trkpt><trkpt lat="30.50772033390481" lon="-8.78878679495017"><ele>273.25</ele><time>2026-04-27T15:29:53Z</time></trkpt><trkpt lat="30.507673617686677" lon="-8.788935079007276"><ele>274.0</ele><time>2026-04-27T15:29:54Z</time></trkpt><trkpt lat="30.507625852172488" lon="-8.789081038875388"><ele>274.0</ele><time>2026-04-27T15:29:55Z</time></trkpt><trkpt lat="30.50757465614693" lon="-8.789233288852623"><ele>274.0</ele><time>2026-04-27T15:29:56Z</time></trkpt><trkpt lat="30.507530528534254" lon="-8.789377769809981"><ele>274.0</ele><time>2026-04-27T15:29:57Z</time></trkpt><trkpt lat="30.507496937204127" lon="-8.789481026278574"><ele>274.0</ele><time>2026-04-27T15:29:58Z</time></trkpt><trkpt lat="30.50746551114449" lon="-8.789572490670825"><ele>274.0</ele><time>2026-04-27T15:29:59Z</time></trkpt><trkpt lat="30.507425669846608" lon="-8.789686008530136"><ele>274.0</ele><time>2026-04-27T15:30:00Z</time></trkpt><trkpt lat="30.507387777735524" lon="-8.789815266019023"><ele>274.0</ele><time>2026-04-27T15:30:01Z</time></trkpt><trkpt lat="30.507347688655006" lon="-8.789962118308607"><ele>274.0</ele><time>2026-04-27T15:30:02Z</time></trkpt><trkpt lat="30.50730187416363" lon="-8.79011876091191"><ele>274.0</ele><time>2026-04-27T15:30:03Z</time></trkpt><trkpt lat="30.507251103927008" lon="-8.79027867641124"><ele>274.0</ele><time>2026-04-27T15:30:04Z</time></trkpt><trkpt lat="30.507198536242754" lon="-8.790450157819262"><ele>274.0</ele><time>2026-04-27T15:30:05Z</time></trkpt><trkpt lat="30.50714169430943" lon="-8.79062465524832"><ele>274.0</ele><time>2026-04-27T15:30:06Z</time></trkpt><trkpt lat="30.507084212723683" lon="-8.790792473704698"><ele>274.0</ele><time>2026-04-27T15:30:07Z</time></trkpt><trkpt lat="30.50703243619706" lon="-8.790944889339938"><ele>274.0</ele><time>2026-04-27T15:30:08Z</time></trkpt><trkpt lat="30.506981622766457" lon="-8.791094946697418"><ele>274.0</ele><time>2026-04-27T15:30:09Z</time></trkpt><trkpt lat="30.50693532326258" lon="-8.791236749560035"><ele>273.4</ele><time>2026-04-27T15:30:10Z</time></trkpt><trkpt lat="30.50688969951055" lon="-8.791366872901039"><ele>272.79999999999995</ele><time>2026-04-27T15:30:11Z</time></trkpt><trkpt lat="30.50685059096718" lon="-8.791483817528288"><ele>272.20000000000005</ele><time>2026-04-27T15:30:12Z</time></trkpt><trkpt lat="30.506816755068556" lon="-8.791587752578977"><ele>271.6</ele><time>2026-04-27T15:30:13Z</time></trkpt><trkpt lat="30.50678565021484" lon="-8.791685262047663"><ele>271.0</ele><time>2026-04-27T15:30:14Z</time></trkpt><trkpt lat="30.50675832533695" lon="-8.791768365137468"><ele>271.40000000000003</ele><time>2026-04-27T15:30:15Z</time></trkpt><trkpt lat="30.506728380785457" lon="-8.791850737002079"><ele>271.8</ele><time>2026-04-27T15:30:16Z</time></trkpt><trkpt lat="30.506698590915835" lon="-8.791944820814267"><ele>272.20000000000005</ele><time>2026-04-27T15:30:17Z</time></trkpt><trkpt lat="30.506664886551064" lon="-8.79205066077147"><ele>272.6</ele><time>2026-04-27T15:30:18Z</time></trkpt><trkpt lat="30.506629839278233" lon="-8.792162766698738"><ele>273.0</ele><time>2026-04-27T15:30:19Z</time></trkpt><trkpt lat="30.506594257510816" lon="-8.792278100771954"><ele>273.0</ele><time>2026-04-27T15:30:20Z</time></trkpt><trkpt lat="30.506558764974297" lon="-8.792395067570796"><ele>273.0</ele><time>2026-04-27T15:30:21Z</time></trkpt><trkpt lat="30.50652749455738" lon="-8.792505065348472"><ele>273.0</ele><time>2026-04-27T15:30:22Z</time></trkpt><trkpt lat="30.506494985930097" lon="-8.792608948971816"><ele>273.0</ele><time>2026-04-27T15:30:23Z</time></trkpt><trkpt lat="30.506466231262188" lon="-8.792720408516532"><ele>273.0</ele><time>2026-04-27T15:30:24Z</time></trkpt><trkpt lat="30.506423977560715" lon="-8.792855903826801"><ele>273.0</ele><time>2026-04-27T15:30:25Z</time></trkpt><trkpt lat="30.506383840334067" lon="-8.792978996768454"><ele>273.0</ele><time>2026-04-27T15:30:26Z</time></trkpt><trkpt lat="30.506348763876417" lon="-8.793093333959352"><ele>273.0</ele><time>2026-04-27T15:30:27Z</time></trkpt><trkpt lat="30.506312414878895" lon="-8.793213195268109"><ele>273.0</ele><time>2026-04-27T15:30:28Z</time></trkpt><trkpt lat="30.50627496744815" lon="-8.793341512835253"><ele>273.0</ele><time>2026-04-27T15:30:29Z</time></trkpt><trkpt lat="30.50623475864988" lon="-8.793476914687425"><ele>272.25</ele><time>2026-04-27T15:30:30Z</time></trkpt><trkpt lat="30.50619141733173" lon="-8.793612083680795"><ele>271.5</ele><time>2026-04-27T15:30:31Z</time></trkpt><trkpt lat="30.506145808095535" lon="-8.793743785770666"><ele>270.75</ele><time>2026-04-27T15:30:32Z</time></trkpt><trkpt lat="30.506101983963667" lon="-8.79387383366294"><ele>270.0</ele><time>2026-04-27T15:30:33Z</time></trkpt><trkpt lat="30.50606090557733" lon="-8.79400527401585"><ele>270.0</ele><time>2026-04-27T15:30:34Z</time></trkpt><trkpt lat="30.506018821185286" lon="-8.794133325318082"><ele>270.0</ele><time>2026-04-27T15:30:35Z</time></trkpt><trkpt lat="30.505975936070676" lon="-8.794263853977256"><ele>270.0</ele><time>2026-04-27T15:30:36Z</time></trkpt><trkpt lat="30.505931654137942" lon="-8.794396240867707"><ele>270.0</ele><time>2026-04-27T15:30:37Z</time></trkpt><trkpt lat="30.505882111984192" lon="-8.794533434367295"><ele>270.5</ele><time>2026-04-27T15:30:38Z</time></trkpt><trkpt lat="30.505828341852368" lon="-8.794678435900808"><ele>271.0</ele><time>2026-04-27T15:30:39Z</time></trkpt><trkpt lat="30.505772385432767" lon="-8.79482841392648"><ele>271.5</ele><time>2026-04-27T15:30:40Z</time></trkpt><trkpt lat="30.50571542697769" lon="-8.794990055478943"><ele>272.0</ele><time>2026-04-27T15:30:41Z</time></trkpt><trkpt lat="30.50566352984682" lon="-8.795142612510165"><ele>271.5</ele><time>2026-04-27T15:30:42Z</time></trkpt><trkpt lat="30.50561809660749" lon="-8.795284658374921"><ele>271.0</ele><time>2026-04-27T15:30:43Z</time></trkpt><trkpt lat="30.505575824403984" lon="-8.795428762959839"><ele>270.5</ele><time>2026-04-27T15:30:44Z</time></trkpt><trkpt lat="30.50553051806358" lon="-8.795575891145456"><ele>270.0</ele><time>2026-04-27T15:30:45Z</time></trkpt><trkpt lat="30.505488302042675" lon="-8.79571786394113"><ele>270.0</ele><time>2026-04-27T15:30:46Z</time></trkpt><trkpt lat="30.505441805181228" lon="-8.795863098902341"><ele>270.0</ele><time>2026-04-27T15:30:47Z</time></trkpt><trkpt lat="30.505394425357743" lon="-8.796014466375619"><ele>270.0</ele><time>2026-04-27T15:30:48Z</time></trkpt><trkpt lat="30.505346729604184" lon="-8.79616923971224"><ele>270.0</ele><time>2026-04-27T15:30:49Z</time></trkpt><trkpt lat="30.50529679042901" lon="-8.796323680225644"><ele>269.75</ele><time>2026-04-27T15:30:50Z</time></trkpt><trkpt lat="30.50525146340531" lon="-8.796475502798497"><ele>269.5</ele><time>2026-04-27T15:30:51Z</time></trkpt><trkpt lat="30.505210448498815" lon="-8.796627668136544"><ele>269.25</ele><time>2026-04-27T15:30:52Z</time></trkpt><trkpt lat="30.505166501064686" lon="-8.796781362469355"><ele>269.0</ele><time>2026-04-27T15:30:53Z</time></trkpt><trkpt lat="30.505124859132987" lon="-8.796929089971378"><ele>269.5</ele><time>2026-04-27T15:30:54Z</time></trkpt><trkpt lat="30.505081034422723" lon="-8.797078332041872"><ele>270.0</ele><time>2026-04-27T15:30:55Z</time></trkpt><trkpt lat="30.505031209743613" lon="-8.797221221466291"><ele>270.5</ele><time>2026-04-27T15:30:56Z</time></trkpt><trkpt lat="30.504975630845884" lon="-8.797365060200699"><ele>271.0</ele><time>2026-04-27T15:30:57Z</time></trkpt><trkpt lat="30.50492146209224" lon="-8.797505213098196"><ele>271.0</ele><time>2026-04-27T15:30:58Z</time></trkpt><trkpt lat="30.504872084454853" lon="-8.797638928819689"><ele>271.0</ele><time>2026-04-27T15:30:59Z</time></trkpt><trkpt lat="30.504824512443918" lon="-8.797776176534466"><ele>271.0</ele><time>2026-04-27T15:31:00Z</time></trkpt><trkpt lat="30.504779516653763" lon="-8.79791501080397"><ele>271.0</ele><time>2026-04-27T15:31:01Z</time></trkpt><trkpt lat="30.50474051485662" lon="-8.79804513105799"><ele>271.0</ele><time>2026-04-27T15:31:02Z</time></trkpt><trkpt lat="30.50470336767555" lon="-8.798163003822886"><ele>271.0</ele><time>2026-04-27T15:31:03Z</time></trkpt><trkpt lat="30.50466690968587" lon="-8.798272318607163"><ele>271.0</ele><time>2026-04-27T15:31:04Z</time></trkpt><trkpt lat="30.50463271579654" lon="-8.798376548392703"><ele>271.0</ele><time>2026-04-27T15:31:05Z</time></trkpt><trkpt lat="30.504598919425096" lon="-8.798476458920662"><ele>271.0</ele><time>2026-04-27T15:31:06Z</time></trkpt><trkpt lat="30.504567563609896" lon="-8.79858147646425"><ele>270.8333333333333</ele><time>2026-04-27T15:31:07Z</time></trkpt><trkpt lat="30.5045383800577" lon="-8.79867855990677"><ele>270.66666666666663</ele><time>2026-04-27T15:31:08Z</time></trkpt><trkpt lat="30.5045055394536" lon="-8.798781348294431"><ele>270.5</ele><time>2026-04-27T15:31:09Z</time></trkpt><trkpt lat="30.504472522975576" lon="-8.798879494318623"><ele>270.3333333333333</ele><time>2026-04-27T15:31:10Z</time></trkpt><trkpt lat="30.504438981329592" lon="-8.798970183869576"><ele>270.1666666666667</ele><time>2026-04-27T15:31:11Z</time></trkpt><trkpt lat="30.504411294601596" lon="-8.799060091218468"><ele>270.0</ele><time>2026-04-27T15:31:12Z</time></trkpt><trkpt lat="30.50438364456293" lon="-8.799140541152422"><ele>270.0</ele><time>2026-04-27T15:31:13Z</time></trkpt><trkpt lat="30.50435935180786" lon="-8.799215030650828"><ele>270.0</ele><time>2026-04-27T15:31:14Z</time></trkpt><trkpt lat="30.50433934018772" lon="-8.799286094207421"><ele>270.0</ele><time>2026-04-27T15:31:15Z</time></trkpt><trkpt lat="30.504321229008873" lon="-8.79935711445617"><ele>270.0</ele><time>2026-04-27T15:31:16Z</time></trkpt><trkpt lat="30.50429817101996" lon="-8.79950336990344"><ele>270.0</ele><time>2026-04-27T15:31:18Z</time></trkpt><trkpt lat="30.504296392808357" lon="-8.799576803396622"><ele>270.0</ele><time>2026-04-27T15:31:19Z</time></trkpt><trkpt lat="30.504295275274906" lon="-8.799713481018083"><ele>269.8</ele><time>2026-04-27T15:31:21Z</time></trkpt><trkpt lat="30.504224110729556" lon="-8.799839497832338"><ele>269.6</ele><time>2026-04-27T15:31:23Z</time></trkpt><trkpt lat="30.50417166570526" lon="-8.799909134467969"><ele>269.4</ele><time>2026-04-27T15:31:24Z</time></trkpt><trkpt lat="30.504125035327178" lon="-8.799989735052874"><ele>269.2</ele><time>2026-04-27T15:31:25Z</time></trkpt><trkpt lat="30.50407542605991" lon="-8.800097070686338"><ele>269.0</ele><time>2026-04-27T15:31:26Z</time></trkpt><trkpt lat="30.504029509768124" lon="-8.800216202265867"><ele>269.75</ele><time>2026-04-27T15:31:27Z</time></trkpt><trkpt lat="30.503983722060397" lon="-8.80035210660402"><ele>270.5</ele><time>2026-04-27T15:31:28Z</time></trkpt><trkpt lat="30.503936219883535" lon="-8.800492993853064"><ele>271.25</ele><time>2026-04-27T15:31:29Z</time></trkpt><trkpt lat="30.503889753018814" lon="-8.800637332495988"><ele>272.0</ele><time>2026-04-27T15:31:30Z</time></trkpt><trkpt lat="30.503846343527183" lon="-8.80078070485444"><ele>272.0</ele><time>2026-04-27T15:31:31Z</time></trkpt><trkpt lat="30.503803607192943" lon="-8.80092210868464"><ele>272.0</ele><time>2026-04-27T15:31:32Z</time></trkpt><trkpt lat="30.503759098039257" lon="-8.8010590435301"><ele>272.0</ele><time>2026-04-27T15:31:33Z</time></trkpt><trkpt lat="30.503720809236754" lon="-8.80118361630969"><ele>272.0</ele><time>2026-04-27T15:31:34Z</time></trkpt><trkpt lat="30.50368446051312" lon="-8.8012982548096"><ele>272.0</ele><time>2026-04-27T15:31:35Z</time></trkpt><trkpt lat="30.503648572815642" lon="-8.801406628322006"><ele>272.0</ele><time>2026-04-27T15:31:36Z</time></trkpt><trkpt lat="30.50361293011765" lon="-8.80151551779804"><ele>272.0</ele><time>2026-04-27T15:31:37Z</time></trkpt><trkpt lat="30.503578349246116" lon="-8.801624803514384"><ele>272.0</ele><time>2026-04-27T15:31:38Z</time></trkpt><trkpt lat="30.503543105898885" lon="-8.801738748879124"><ele>272.0</ele><time>2026-04-27T15:31:39Z</time></trkpt><trkpt lat="30.503509245088722" lon="-8.80186319355542"><ele>272.0</ele><time>2026-04-27T15:31:40Z</time></trkpt><trkpt lat="30.503478810867293" lon="-8.801985239399192"><ele>272.0</ele><time>2026-04-27T15:31:41Z</time></trkpt><trkpt lat="30.50344941853217" lon="-8.802094317259808"><ele>272.0</ele><time>2026-04-27T15:31:42Z</time></trkpt><trkpt lat="30.50342237831781" lon="-8.802192100407085"><ele>272.0</ele><time>2026-04-27T15:31:43Z</time></trkpt><trkpt lat="30.50339278557454" lon="-8.802285420343248"><ele>272.0</ele><time>2026-04-27T15:31:44Z</time></trkpt><trkpt lat="30.503366971127246" lon="-8.80236124615511"><ele>272.0</ele><time>2026-04-27T15:31:45Z</time></trkpt><trkpt lat="30.50332097322948" lon="-8.802501648522512"><ele>272.0</ele><time>2026-04-27T15:31:47Z</time></trkpt><trkpt lat="30.503296938992165" lon="-8.802579996721095"><ele>272.0</ele><time>2026-04-27T15:31:48Z</time></trkpt><trkpt lat="30.503270779182344" lon="-8.802658729304968"><ele>272.0</ele><time>2026-04-27T15:31:49Z</time></trkpt><trkpt lat="30.503240510898674" lon="-8.802757019668"><ele>272.0</ele><time>2026-04-27T15:31:50Z</time></trkpt><trkpt lat="30.503209138822875" lon="-8.802861673746873"><ele>271.6</ele><time>2026-04-27T15:31:51Z</time></trkpt><trkpt lat="30.503174287744073" lon="-8.802968182397024"><ele>271.2</ele><time>2026-04-27T15:31:52Z</time></trkpt><trkpt lat="30.503139547600895" lon="-8.803070598673173"><ele>270.8</ele><time>2026-04-27T15:31:53Z</time></trkpt><trkpt lat="30.503103914893128" lon="-8.803176959772456"><ele>270.4</ele><time>2026-04-27T15:31:54Z</time></trkpt><trkpt lat="30.503062725109242" lon="-8.803289233318754"><ele>270.0</ele><time>2026-04-27T15:31:55Z</time></trkpt><trkpt lat="30.503017122069416" lon="-8.803411216642234"><ele>269.5</ele><time>2026-04-27T15:31:56Z</time></trkpt><trkpt lat="30.50296439269714" lon="-8.80354664651673"><ele>269.0</ele><time>2026-04-27T15:31:57Z</time></trkpt><trkpt lat="30.50290865099664" lon="-8.803693175235143"><ele>268.5</ele><time>2026-04-27T15:31:58Z</time></trkpt><trkpt lat="30.502854156379303" lon="-8.803847616965685"><ele>268.0</ele><time>2026-04-27T15:31:59Z</time></trkpt><trkpt lat="30.502801849588348" lon="-8.804008935542315"><ele>268.75</ele><time>2026-04-27T15:32:00Z</time></trkpt><trkpt lat="30.50274861523906" lon="-8.804165148550167"><ele>269.5</ele><time>2026-04-27T15:32:01Z</time></trkpt><trkpt lat="30.50270379171855" lon="-8.80432815167327"><ele>270.25</ele><time>2026-04-27T15:32:02Z</time></trkpt><trkpt lat="30.50265871256308" lon="-8.804485119674746"><ele>271.0</ele><time>2026-04-27T15:32:03Z</time></trkpt><trkpt lat="30.502614822331143" lon="-8.804627789996058"><ele>271.0</ele><time>2026-04-27T15:32:04Z</time></trkpt><trkpt lat="30.50257075008757" lon="-8.804767851978752"><ele>271.0</ele><time>2026-04-27T15:32:05Z</time></trkpt><trkpt lat="30.502524069346567" lon="-8.80491791097964"><ele>271.0</ele><time>2026-04-27T15:32:06Z</time></trkpt><trkpt lat="30.502476585889944" lon="-8.805075947987554"><ele>271.0</ele><time>2026-04-27T15:32:07Z</time></trkpt><trkpt lat="30.502424174021996" lon="-8.805239536058979"><ele>270.0</ele><time>2026-04-27T15:32:08Z</time></trkpt><trkpt lat="30.502370091170146" lon="-8.805404279061289"><ele>269.0</ele><time>2026-04-27T15:32:09Z</time></trkpt><trkpt lat="30.502319282097957" lon="-8.805569363350942"><ele>268.0</ele><time>2026-04-27T15:32:10Z</time></trkpt><trkpt lat="30.502268486062796" lon="-8.805733190299753"><ele>268.0</ele><time>2026-04-27T15:32:11Z</time></trkpt><trkpt lat="30.502215496912527" lon="-8.80590040551133"><ele>268.0</ele><time>2026-04-27T15:32:12Z</time></trkpt><trkpt lat="30.50216102234928" lon="-8.806069076830243"><ele>268.0</ele><time>2026-04-27T15:32:13Z</time></trkpt><trkpt lat="30.502106448262495" lon="-8.806238052001177"><ele>267.66666666666663</ele><time>2026-04-27T15:32:14Z</time></trkpt><trkpt lat="30.502050439001984" lon="-8.806406978296828"><ele>267.3333333333333</ele><time>2026-04-27T15:32:15Z</time></trkpt><trkpt lat="30.501992350936252" lon="-8.806588527345307"><ele>267.0</ele><time>2026-04-27T15:32:16Z</time></trkpt><trkpt lat="30.50193597577576" lon="-8.806765230913445"><ele>267.0</ele><time>2026-04-27T15:32:17Z</time></trkpt><trkpt lat="30.501880670486184" lon="-8.806941488252557"><ele>267.0</ele><time>2026-04-27T15:32:18Z</time></trkpt><trkpt lat="30.501828527437972" lon="-8.80711478309993"><ele>267.0</ele><time>2026-04-27T15:32:19Z</time></trkpt><trkpt lat="30.501774664436812" lon="-8.807290537322478"><ele>267.0</ele><time>2026-04-27T15:32:20Z</time></trkpt><trkpt lat="30.501715441144555" lon="-8.80746447273353"><ele>267.0</ele><time>2026-04-27T15:32:21Z</time></trkpt><trkpt lat="30.501655314700603" lon="-8.807643010193399"><ele>267.0</ele><time>2026-04-27T15:32:22Z</time></trkpt><trkpt lat="30.501595953605204" lon="-8.807820447828405"><ele>266.6666666666667</ele><time>2026-04-27T15:32:23Z</time></trkpt><trkpt lat="30.501537538132652" lon="-8.807997953940781"><ele>266.33333333333337</ele><time>2026-04-27T15:32:24Z</time></trkpt><trkpt lat="30.501478540032405" lon="-8.808176609036602"><ele>266.0</ele><time>2026-04-27T15:32:25Z</time></trkpt><trkpt lat="30.5014213254874" lon="-8.80835249362415"><ele>266.0</ele><time>2026-04-27T15:32:26Z</time></trkpt><trkpt lat="30.501369593811496" lon="-8.808507829140225"><ele>266.0</ele><time>2026-04-27T15:32:27Z</time></trkpt><trkpt lat="30.50132042374453" lon="-8.808652631460058"><ele>266.0</ele><time>2026-04-27T15:32:28Z</time></trkpt><trkpt lat="30.50127463453539" lon="-8.80878039569746"><ele>266.0</ele><time>2026-04-27T15:32:29Z</time></trkpt><trkpt lat="30.50123297317524" lon="-8.808909706046544"><ele>266.0</ele><time>2026-04-27T15:32:30Z</time></trkpt><trkpt lat="30.50119706873494" lon="-8.80903138424098"><ele>266.0</ele><time>2026-04-27T15:32:31Z</time></trkpt><trkpt lat="30.501163007765374" lon="-8.809141807246403"><ele>266.0</ele><time>2026-04-27T15:32:32Z</time></trkpt><trkpt lat="30.50112486104363" lon="-8.809257584073507"><ele>266.0</ele><time>2026-04-27T15:32:33Z</time></trkpt><trkpt lat="30.501083848214595" lon="-8.809383185738497"><ele>266.0</ele><time>2026-04-27T15:32:34Z</time></trkpt><trkpt lat="30.501041212645287" lon="-8.809513655840268"><ele>266.0</ele><time>2026-04-27T15:32:35Z</time></trkpt><trkpt lat="30.50099767940112" lon="-8.809653184737405"><ele>266.0</ele><time>2026-04-27T15:32:36Z</time></trkpt><trkpt lat="30.500951221651945" lon="-8.809802790885536"><ele>266.0</ele><time>2026-04-27T15:32:37Z</time></trkpt><trkpt lat="30.500900307254916" lon="-8.809965951726753"><ele>266.0</ele><time>2026-04-27T15:32:38Z</time></trkpt><trkpt lat="30.500842804382547" lon="-8.810154962840219"><ele>265.6666666666667</ele><time>2026-04-27T15:32:39Z</time></trkpt><trkpt lat="30.500781831216237" lon="-8.810350347347892"><ele>265.3333333333333</ele><time>2026-04-27T15:32:40Z</time></trkpt><trkpt lat="30.500721937548395" lon="-8.810544544936231"><ele>265.0</ele><time>2026-04-27T15:32:41Z</time></trkpt><trkpt lat="30.50066134120439" lon="-8.810725355874217"><ele>265.0</ele><time>2026-04-27T15:32:42Z</time></trkpt><trkpt lat="30.500602248319918" lon="-8.810906106399946"><ele>265.0</ele><time>2026-04-27T15:32:43Z</time></trkpt><trkpt lat="30.50054557411163" lon="-8.811081060413791"><ele>265.0</ele><time>2026-04-27T15:32:44Z</time></trkpt><trkpt lat="30.50048858504371" lon="-8.811256388139844"><ele>265.0</ele><time>2026-04-27T15:32:45Z</time></trkpt><trkpt lat="30.500429348785207" lon="-8.811431136768848"><ele>265.0</ele><time>2026-04-27T15:32:46Z</time></trkpt><trkpt lat="30.500369242205284" lon="-8.811613506368074"><ele>265.0</ele><time>2026-04-27T15:32:47Z</time></trkpt><trkpt lat="30.500313011398028" lon="-8.811787748572861"><ele>265.0</ele><time>2026-04-27T15:32:48Z</time></trkpt><trkpt lat="30.500257074282203" lon="-8.811961077227556"><ele>265.0</ele><time>2026-04-27T15:32:49Z</time></trkpt><trkpt lat="30.500203228606253" lon="-8.812135534605964"><ele>265.0</ele><time>2026-04-27T15:32:50Z</time></trkpt><trkpt lat="30.500148690087137" lon="-8.81230697795541"><ele>265.0</ele><time>2026-04-27T15:32:51Z</time></trkpt><trkpt lat="30.500096938729456" lon="-8.812475890822206"><ele>265.0</ele><time>2026-04-27T15:32:52Z</time></trkpt><trkpt lat="30.50004402143561" lon="-8.812643058515363"><ele>265.0</ele><time>2026-04-27T15:32:53Z</time></trkpt><trkpt lat="30.499992694270354" lon="-8.81280436804438"><ele>265.25</ele><time>2026-04-27T15:32:54Z</time></trkpt><trkpt lat="30.499944722478325" lon="-8.812956521602478"><ele>265.5</ele><time>2026-04-27T15:32:55Z</time></trkpt><trkpt lat="30.49989838388644" lon="-8.81309904493778"><ele>265.75</ele><time>2026-04-27T15:32:56Z</time></trkpt><trkpt lat="30.499853992854046" lon="-8.813233962524782"><ele>266.0</ele><time>2026-04-27T15:32:57Z</time></trkpt><trkpt lat="30.499809585762538" lon="-8.813373084178313"><ele>266.0</ele><time>2026-04-27T15:32:58Z</time></trkpt><trkpt lat="30.499764034059066" lon="-8.81351389291377"><ele>266.0</ele><time>2026-04-27T15:32:59Z</time></trkpt><trkpt lat="30.499717873547674" lon="-8.81365790776631"><ele>266.0</ele><time>2026-04-27T15:33:00Z</time></trkpt><trkpt lat="30.499671226232856" lon="-8.813800704621555"><ele>266.0</ele><time>2026-04-27T15:33:01Z</time></trkpt><trkpt lat="30.499625594775765" lon="-8.81393913818029"><ele>266.25</ele><time>2026-04-27T15:33:02Z</time></trkpt><trkpt lat="30.49958035039317" lon="-8.81407566244118"><ele>266.5</ele><time>2026-04-27T15:33:03Z</time></trkpt><trkpt lat="30.499535744620527" lon="-8.814212758589846"><ele>266.75</ele><time>2026-04-27T15:33:04Z</time></trkpt><trkpt lat="30.49948608463979" lon="-8.814362847120583"><ele>267.0</ele><time>2026-04-27T15:33:05Z</time></trkpt><trkpt lat="30.499428972001187" lon="-8.814524670809524"><ele>267.3333333333333</ele><time>2026-04-27T15:33:06Z</time></trkpt><trkpt lat="30.499365277749693" lon="-8.814707109212577"><ele>267.66666666666663</ele><time>2026-04-27T15:33:07Z</time></trkpt><trkpt lat="30.49929873604479" lon="-8.814905399136048"><ele>268.0</ele><time>2026-04-27T15:33:08Z</time></trkpt><trkpt lat="30.499236204148616" lon="-8.815112351581165"><ele>267.66666666666663</ele><time>2026-04-27T15:33:09Z</time></trkpt><trkpt lat="30.499176190368026" lon="-8.81532205003375"><ele>267.3333333333333</ele><time>2026-04-27T15:33:10Z</time></trkpt><trkpt lat="30.499117750875808" lon="-8.815534576391407"><ele>267.0</ele><time>2026-04-27T15:33:11Z</time></trkpt><trkpt lat="30.49905427534533" lon="-8.815747082803853"><ele>267.0</ele><time>2026-04-27T15:33:12Z</time></trkpt><trkpt lat="30.49898459165374" lon="-8.815960495114354"><ele>267.0</ele><time>2026-04-27T15:33:13Z</time></trkpt><trkpt lat="30.49891128122273" lon="-8.816174734028873"><ele>267.0</ele><time>2026-04-27T15:33:14Z</time></trkpt><trkpt lat="30.498835493108196" lon="-8.816392147581952"><ele>267.0</ele><time>2026-04-27T15:33:15Z</time></trkpt><trkpt lat="30.498762208945777" lon="-8.81660452494397"><ele>267.0</ele><time>2026-04-27T15:33:16Z</time></trkpt><trkpt lat="30.49869438589236" lon="-8.81680810955046"><ele>267.0</ele><time>2026-04-27T15:33:17Z</time></trkpt><trkpt lat="30.498634087663255" lon="-8.816999136723886"><ele>265.6666666666667</ele><time>2026-04-27T15:33:18Z</time></trkpt><trkpt lat="30.498573079319648" lon="-8.817195280772475"><ele>264.33333333333337</ele><time>2026-04-27T15:33:19Z</time></trkpt><trkpt lat="30.498506948235146" lon="-8.817413076107757"><ele>263.0</ele><time>2026-04-27T15:33:20Z</time></trkpt><trkpt lat="30.49844199694812" lon="-8.817642777107135"><ele>263.33333333333337</ele><time>2026-04-27T15:33:21Z</time></trkpt><trkpt lat="30.49838225437465" lon="-8.817875116784553"><ele>263.6666666666667</ele><time>2026-04-27T15:33:22Z</time></trkpt><trkpt lat="30.498322611964486" lon="-8.818105773283227"><ele>264.0</ele><time>2026-04-27T15:33:23Z</time></trkpt><trkpt lat="30.498260420869087" lon="-8.818336818752332"><ele>265.0</ele><time>2026-04-27T15:33:24Z</time></trkpt><trkpt lat="30.498198352527126" lon="-8.818562127616103"><ele>266.0</ele><time>2026-04-27T15:33:25Z</time></trkpt><trkpt lat="30.498138157462662" lon="-8.818784969610117"><ele>267.0</ele><time>2026-04-27T15:33:26Z</time></trkpt><trkpt lat="30.498077610027643" lon="-8.819008010494079"><ele>267.0</ele><time>2026-04-27T15:33:27Z</time></trkpt><trkpt lat="30.498015199233603" lon="-8.819233215925964"><ele>267.0</ele><time>2026-04-27T15:33:28Z</time></trkpt><trkpt lat="30.497952592281493" lon="-8.819460425731"><ele>267.0</ele><time>2026-04-27T15:33:29Z</time></trkpt><trkpt lat="30.497890655039512" lon="-8.819689078378685"><ele>266.3333333333333</ele><time>2026-04-27T15:33:30Z</time></trkpt><trkpt lat="30.497827122160075" lon="-8.819918315092186"><ele>265.66666666666663</ele><time>2026-04-27T15:33:31Z</time></trkpt><trkpt lat="30.497764591856832" lon="-8.820141361554532"><ele>265.0</ele><time>2026-04-27T15:33:32Z</time></trkpt><trkpt lat="30.497703661533897" lon="-8.820363205339902"><ele>264.66666666666663</ele><time>2026-04-27T15:33:33Z</time></trkpt><trkpt lat="30.497642676340366" lon="-8.820589578667358"><ele>264.3333333333333</ele><time>2026-04-27T15:33:34Z</time></trkpt><trkpt lat="30.497580556629806" lon="-8.820821419579827"><ele>264.0</ele><time>2026-04-27T15:33:35Z</time></trkpt><trkpt lat="30.49751871729074" lon="-8.821053633710068"><ele>263.6666666666667</ele><time>2026-04-27T15:33:36Z</time></trkpt><trkpt lat="30.497454047100625" lon="-8.821285773764636"><ele>263.33333333333337</ele><time>2026-04-27T15:33:37Z</time></trkpt><trkpt lat="30.497391840691034" lon="-8.821520057666717"><ele>263.0</ele><time>2026-04-27T15:33:38Z</time></trkpt><trkpt lat="30.49732897130473" lon="-8.821748417015018"><ele>263.0</ele><time>2026-04-27T15:33:39Z</time></trkpt><trkpt lat="30.497269777762476" lon="-8.821974274648259"><ele>263.0</ele><time>2026-04-27T15:33:40Z</time></trkpt><trkpt lat="30.49721030701246" lon="-8.822189243409339"><ele>263.0</ele><time>2026-04-27T15:33:41Z</time></trkpt><trkpt lat="30.497150908183993" lon="-8.822389237611736"><ele>263.0</ele><time>2026-04-27T15:33:42Z</time></trkpt><trkpt lat="30.49709122684258" lon="-8.822576352450083"><ele>263.0</ele><time>2026-04-27T15:33:43Z</time></trkpt><trkpt lat="30.497035287300278" lon="-8.822757235621305"><ele>263.0</ele><time>2026-04-27T15:33:44Z</time></trkpt><trkpt lat="30.496979777257675" lon="-8.822936320010125"><ele>263.33333333333337</ele><time>2026-04-27T15:33:45Z</time></trkpt><trkpt lat="30.496923334684197" lon="-8.82310029657676"><ele>263.6666666666667</ele><time>2026-04-27T15:33:46Z</time></trkpt><trkpt lat="30.496864476304435" lon="-8.823264019183222"><ele>264.0</ele><time>2026-04-27T15:33:47Z</time></trkpt><trkpt lat="30.496804473939097" lon="-8.823432774994021"><ele>263.6666666666667</ele><time>2026-04-27T15:33:48Z</time></trkpt><trkpt lat="30.496740510812675" lon="-8.82360615328969"><ele>263.33333333333337</ele><time>2026-04-27T15:33:49Z</time></trkpt><trkpt lat="30.496683201269565" lon="-8.823767368720885"><ele>263.0</ele><time>2026-04-27T15:33:50Z</time></trkpt><trkpt lat="30.496620841139286" lon="-8.8239322424069"><ele>263.0</ele><time>2026-04-27T15:33:51Z</time></trkpt><trkpt lat="30.496553948799924" lon="-8.824097210414534"><ele>263.0</ele><time>2026-04-27T15:33:52Z</time></trkpt><trkpt lat="30.496484610926732" lon="-8.824259784890339"><ele>263.0</ele><time>2026-04-27T15:33:53Z</time></trkpt><trkpt lat="30.49641633089046" lon="-8.824418699390675"><ele>263.0</ele><time>2026-04-27T15:33:54Z</time></trkpt><trkpt lat="30.496350879683938" lon="-8.82457560586889"><ele>263.0</ele><time>2026-04-27T15:33:55Z</time></trkpt><trkpt lat="30.496281862280473" lon="-8.824733741544508"><ele>263.0</ele><time>2026-04-27T15:33:56Z</time></trkpt><trkpt lat="30.49620938468405" lon="-8.824893134559705"><ele>263.0</ele><time>2026-04-27T15:33:57Z</time></trkpt><trkpt lat="30.496136830960722" lon="-8.82505331739421"><ele>263.0</ele><time>2026-04-27T15:33:58Z</time></trkpt><trkpt lat="30.496062195298844" lon="-8.825214509823821"><ele>263.0</ele><time>2026-04-27T15:33:59Z</time></trkpt><trkpt lat="30.495987370100394" lon="-8.825375382665955"><ele>263.0</ele><time>2026-04-27T15:34:00Z</time></trkpt><trkpt lat="30.495911577325636" lon="-8.825543135768191"><ele>263.0</ele><time>2026-04-27T15:34:01Z</time></trkpt><trkpt lat="30.49583503772686" lon="-8.825713496892279"><ele>263.0</ele><time>2026-04-27T15:34:02Z</time></trkpt><trkpt lat="30.49576566847427" lon="-8.825866525912286"><ele>263.0</ele><time>2026-04-27T15:34:03Z</time></trkpt><trkpt lat="30.49570404635447" lon="-8.826007864445565"><ele>263.0</ele><time>2026-04-27T15:34:04Z</time></trkpt><trkpt lat="30.49563936899689" lon="-8.82615294771944"><ele>263.0</ele><time>2026-04-27T15:34:05Z</time></trkpt><trkpt lat="30.49557040489251" lon="-8.826307976647596"><ele>263.0</ele><time>2026-04-27T15:34:06Z</time></trkpt><trkpt lat="30.495495211826395" lon="-8.826475803205126"><ele>262.6666666666667</ele><time>2026-04-27T15:34:07Z</time></trkpt><trkpt lat="30.495414626728245" lon="-8.826655816517963"><ele>262.3333333333333</ele><time>2026-04-27T15:34:08Z</time></trkpt><trkpt lat="30.495330549334373" lon="-8.826845270960876"><ele>262.0</ele><time>2026-04-27T15:34:09Z</time></trkpt><trkpt lat="30.49524492324113" lon="-8.8270436607767"><ele>262.0</ele><time>2026-04-27T15:34:10Z</time></trkpt><trkpt lat="30.495161049741476" lon="-8.827245186398704"><ele>262.0</ele><time>2026-04-27T15:34:11Z</time></trkpt><trkpt lat="30.495077983592466" lon="-8.827449265011944"><ele>262.0</ele><time>2026-04-27T15:34:12Z</time></trkpt><trkpt lat="30.494990736493005" lon="-8.82765463284635"><ele>261.66666666666663</ele><time>2026-04-27T15:34:13Z</time></trkpt><trkpt lat="30.49490115396019" lon="-8.827859804029751"><ele>261.3333333333333</ele><time>2026-04-27T15:34:14Z</time></trkpt><trkpt lat="30.49481040217007" lon="-8.828066393527552"><ele>261.0</ele><time>2026-04-27T15:34:15Z</time></trkpt><trkpt lat="30.494718137144243" lon="-8.828272309463014"><ele>260.6666666666667</ele><time>2026-04-27T15:34:16Z</time></trkpt><trkpt lat="30.494623841909423" lon="-8.828481873230869"><ele>260.33333333333337</ele><time>2026-04-27T15:34:17Z</time></trkpt><trkpt lat="30.49452939202749" lon="-8.82869204849523"><ele>260.0</ele><time>2026-04-27T15:34:18Z</time></trkpt><trkpt lat="30.49443638336288" lon="-8.828900529003304"><ele>260.0</ele><time>2026-04-27T15:34:19Z</time></trkpt><trkpt lat="30.494344836750553" lon="-8.829108754096971"><ele>260.0</ele><time>2026-04-27T15:34:20Z</time></trkpt><trkpt lat="30.494252361344845" lon="-8.829319953683703"><ele>260.0</ele><time>2026-04-27T15:34:21Z</time></trkpt><trkpt lat="30.49415840108658" lon="-8.829532355545995"><ele>260.0</ele><time>2026-04-27T15:34:22Z</time></trkpt><trkpt lat="30.49406216960091" lon="-8.829744768615278"><ele>260.0</ele><time>2026-04-27T15:34:23Z</time></trkpt><trkpt lat="30.493964828480017" lon="-8.8299613306187"><ele>260.0</ele><time>2026-04-27T15:34:24Z</time></trkpt><trkpt lat="30.493864358618104" lon="-8.830184366057853"><ele>260.0</ele><time>2026-04-27T15:34:25Z</time></trkpt><trkpt lat="30.493765246632254" lon="-8.83040993589477"><ele>260.0</ele><time>2026-04-27T15:34:26Z</time></trkpt><trkpt lat="30.493662812320416" lon="-8.830639514407382"><ele>260.0</ele><time>2026-04-27T15:34:27Z</time></trkpt><trkpt lat="30.493560561192194" lon="-8.830877886337642"><ele>259.5</ele><time>2026-04-27T15:34:28Z</time></trkpt><trkpt lat="30.493460737130924" lon="-8.831114678741251"><ele>259.0</ele><time>2026-04-27T15:34:29Z</time></trkpt><trkpt lat="30.49336268502833" lon="-8.831349811067394"><ele>259.0</ele><time>2026-04-27T15:34:30Z</time></trkpt><trkpt lat="30.49326745849679" lon="-8.83158666946482"><ele>259.0</ele><time>2026-04-27T15:34:31Z</time></trkpt><trkpt lat="30.493172156294406" lon="-8.831827082296169"><ele>258.5</ele><time>2026-04-27T15:34:32Z</time></trkpt><trkpt lat="30.49307695406042" lon="-8.832068812534567"><ele>258.0</ele><time>2026-04-27T15:34:33Z</time></trkpt><trkpt lat="30.49298148910063" lon="-8.832309913544957"><ele>259.0</ele><time>2026-04-27T15:34:34Z</time></trkpt><trkpt lat="30.492883303850896" lon="-8.832549918000094"><ele>260.0</ele><time>2026-04-27T15:34:35Z</time></trkpt><trkpt lat="30.492782902164016" lon="-8.832786807988308"><ele>260.0</ele><time>2026-04-27T15:34:36Z</time></trkpt><trkpt lat="30.49268290126707" lon="-8.833024409433389"><ele>260.0</ele><time>2026-04-27T15:34:37Z</time></trkpt><trkpt lat="30.492586726107728" lon="-8.83326442906549"><ele>259.0</ele><time>2026-04-27T15:34:38Z</time></trkpt><trkpt lat="30.49249574226762" lon="-8.833506059350228"><ele>258.0</ele><time>2026-04-27T15:34:39Z</time></trkpt><trkpt lat="30.49240564404793" lon="-8.83374959322181"><ele>258.0</ele><time>2026-04-27T15:34:40Z</time></trkpt><trkpt lat="30.492294754973862" lon="-8.833983373791792"><ele>258.0</ele><time>2026-04-27T15:34:41Z</time></trkpt><trkpt lat="30.49219823593394" lon="-8.83422380926349"><ele>258.0</ele><time>2026-04-27T15:34:42Z</time></trkpt><trkpt lat="30.4921019371064" lon="-8.83446299399012"><ele>258.0</ele><time>2026-04-27T15:34:43Z</time></trkpt><trkpt lat="30.492005759389553" lon="-8.834701877856434"><ele>258.0</ele><time>2026-04-27T15:34:44Z</time></trkpt><trkpt lat="30.49190900341678" lon="-8.834942198066182"><ele>258.0</ele><time>2026-04-27T15:34:45Z</time></trkpt><trkpt lat="30.491811506262096" lon="-8.835185118921009"><ele>258.0</ele><time>2026-04-27T15:34:46Z</time></trkpt><trkpt lat="30.491714762410087" lon="-8.835426791924885"><ele>258.0</ele><time>2026-04-27T15:34:47Z</time></trkpt><trkpt lat="30.49161832087655" lon="-8.835666937712926"><ele>258.0</ele><time>2026-04-27T15:34:48Z</time></trkpt><trkpt lat="30.491537775227425" lon="-8.835916122541068"><ele>258.0</ele><time>2026-04-27T15:34:49Z</time></trkpt><trkpt lat="30.491439707012766" lon="-8.836157347212305"><ele>258.0</ele><time>2026-04-27T15:34:50Z</time></trkpt><trkpt lat="30.491340843504073" lon="-8.836399334098461"><ele>258.0</ele><time>2026-04-27T15:34:51Z</time></trkpt><trkpt lat="30.491240859932336" lon="-8.83664045178874"><ele>257.5</ele><time>2026-04-27T15:34:52Z</time></trkpt><trkpt lat="30.49114081826023" lon="-8.836882898322221"><ele>257.0</ele><time>2026-04-27T15:34:53Z</time></trkpt><trkpt lat="30.49103993862536" lon="-8.837126454559257"><ele>257.0</ele><time>2026-04-27T15:34:54Z</time></trkpt><trkpt lat="30.49093654081659" lon="-8.837373923433303"><ele>257.0</ele><time>2026-04-27T15:34:55Z</time></trkpt><trkpt lat="30.490829162090012" lon="-8.837616854061695"><ele>257.0</ele><time>2026-04-27T15:34:56Z</time></trkpt><trkpt lat="30.490719428313486" lon="-8.837859370525152"><ele>257.0</ele><time>2026-04-27T15:34:57Z</time></trkpt><trkpt lat="30.490602511423806" lon="-8.838098774752014"><ele>257.0</ele><time>2026-04-27T15:34:58Z</time></trkpt><trkpt lat="30.49047585468116" lon="-8.838335306757047"><ele>257.0</ele><time>2026-04-27T15:34:59Z</time></trkpt><trkpt lat="30.490342219869166" lon="-8.83856613647377"><ele>256.5</ele><time>2026-04-27T15:35:00Z</time></trkpt><trkpt lat="30.490206416303153" lon="-8.838795922792524"><ele>256.0</ele><time>2026-04-27T15:35:01Z</time></trkpt><trkpt lat="30.490067959894855" lon="-8.839025719689168"><ele>256.0</ele><time>2026-04-27T15:35:02Z</time></trkpt><trkpt lat="30.48992114303362" lon="-8.839256851471797"><ele>256.0</ele><time>2026-04-27T15:35:03Z</time></trkpt><trkpt lat="30.489767263520545" lon="-8.839480142264293"><ele>256.5</ele><time>2026-04-27T15:35:04Z</time></trkpt><trkpt lat="30.48960894553638" lon="-8.8397034015434"><ele>257.0</ele><time>2026-04-27T15:35:05Z</time></trkpt><trkpt lat="30.489448630311777" lon="-8.839924206046678"><ele>256.5</ele><time>2026-04-27T15:35:06Z</time></trkpt><trkpt lat="30.489289023158463" lon="-8.840150389426366"><ele>256.0</ele><time>2026-04-27T15:35:07Z</time></trkpt><trkpt lat="30.489131569173235" lon="-8.840378948561238"><ele>256.0</ele><time>2026-04-27T15:35:08Z</time></trkpt><trkpt lat="30.488971675171197" lon="-8.84060549001822"><ele>256.0</ele><time>2026-04-27T15:35:09Z</time></trkpt><trkpt lat="30.48881147968359" lon="-8.840831149549444"><ele>256.0</ele><time>2026-04-27T15:35:10Z</time></trkpt><trkpt lat="30.488652572829814" lon="-8.84105937949587"><ele>256.0</ele><time>2026-04-27T15:35:11Z</time></trkpt><trkpt lat="30.48847934148506" lon="-8.841278257226008"><ele>256.0</ele><time>2026-04-27T15:35:12Z</time></trkpt><trkpt lat="30.488329830981208" lon="-8.841517296058848"><ele>256.0</ele><time>2026-04-27T15:35:13Z</time></trkpt><trkpt lat="30.48816989818212" lon="-8.841736375626498"><ele>255.5</ele><time>2026-04-27T15:35:14Z</time></trkpt><trkpt lat="30.488013516327733" lon="-8.841950935573964"><ele>255.0</ele><time>2026-04-27T15:35:15Z</time></trkpt><trkpt lat="30.487861375043448" lon="-8.84216632141948"><ele>255.0</ele><time>2026-04-27T15:35:16Z</time></trkpt><trkpt lat="30.487713108272214" lon="-8.842377415971404"><ele>255.0</ele><time>2026-04-27T15:35:17Z</time></trkpt><trkpt lat="30.487565894028236" lon="-8.84258747888533"><ele>252.5</ele><time>2026-04-27T15:35:18Z</time></trkpt><trkpt lat="30.487417706893343" lon="-8.842799071889392"><ele>250.0</ele><time>2026-04-27T15:35:19Z</time></trkpt><trkpt lat="30.48727374400008" lon="-8.843013349124567"><ele>250.0</ele><time>2026-04-27T15:35:20Z</time></trkpt><trkpt lat="30.48713513591513" lon="-8.843236411699358"><ele>250.0</ele><time>2026-04-27T15:35:21Z</time></trkpt><trkpt lat="30.487006944858337" lon="-8.843462038712659"><ele>252.5</ele><time>2026-04-27T15:35:22Z</time></trkpt><trkpt lat="30.486890853124297" lon="-8.843690500570201"><ele>255.0</ele><time>2026-04-27T15:35:23Z</time></trkpt><trkpt lat="30.486777273266036" lon="-8.843922819908702"><ele>255.0</ele><time>2026-04-27T15:35:24Z</time></trkpt><trkpt lat="30.486666380700502" lon="-8.844159610750616"><ele>255.0</ele><time>2026-04-27T15:35:25Z</time></trkpt><trkpt lat="30.486561539354604" lon="-8.844397291763126"><ele>255.0</ele><time>2026-04-27T15:35:26Z</time></trkpt><trkpt lat="30.48646277989771" lon="-8.844641865415669"><ele>255.0</ele><time>2026-04-27T15:35:27Z</time></trkpt><trkpt lat="30.486344987556926" lon="-8.844869015431097"><ele>255.0</ele><time>2026-04-27T15:35:28Z</time></trkpt><trkpt lat="30.486282462444795" lon="-8.845103322797605"><ele>255.0</ele><time>2026-04-27T15:35:29Z</time></trkpt><trkpt lat="30.48619199649472" lon="-8.845317796662025"><ele>255.0</ele><time>2026-04-27T15:35:30Z</time></trkpt><trkpt lat="30.486096172251987" lon="-8.845536305408444"><ele>254.66666666666669</ele><time>2026-04-27T15:35:31Z</time></trkpt><trkpt lat="30.485996520301942" lon="-8.84575599945756"><ele>254.33333333333334</ele><time>2026-04-27T15:35:32Z</time></trkpt><trkpt lat="30.485891605307827" lon="-8.845979247259633"><ele>254.0</ele><time>2026-04-27T15:35:33Z</time></trkpt><trkpt lat="30.485785724807698" lon="-8.846203686546598"><ele>253.33333333333334</ele><time>2026-04-27T15:35:34Z</time></trkpt><trkpt lat="30.48568657512954" lon="-8.846429126832506"><ele>252.66666666666669</ele><time>2026-04-27T15:35:35Z</time></trkpt><trkpt lat="30.48559086799384" lon="-8.846659712288528"><ele>252.0</ele><time>2026-04-27T15:35:36Z</time></trkpt><trkpt lat="30.485492618233202" lon="-8.84688835959325"><ele>253.0</ele><time>2026-04-27T15:35:37Z</time></trkpt><trkpt lat="30.485394631881586" lon="-8.847117271228214"><ele>254.0</ele><time>2026-04-27T15:35:38Z</time></trkpt><trkpt lat="30.485295286102243" lon="-8.847342300904277"><ele>255.0</ele><time>2026-04-27T15:35:39Z</time></trkpt><trkpt lat="30.48520216093111" lon="-8.84755979254597"><ele>254.0</ele><time>2026-04-27T15:35:40Z</time></trkpt><trkpt lat="30.48511468216207" lon="-8.847764429388459"><ele>253.0</ele><time>2026-04-27T15:35:41Z</time></trkpt><trkpt lat="30.48503210107143" lon="-8.847954963965146"><ele>252.0</ele><time>2026-04-27T15:35:42Z</time></trkpt><trkpt lat="30.48495349748139" lon="-8.848134769787956"><ele>252.0</ele><time>2026-04-27T15:35:43Z</time></trkpt><trkpt lat="30.484877631266166" lon="-8.84830925354308"><ele>252.0</ele><time>2026-04-27T15:35:44Z</time></trkpt><trkpt lat="30.48480738376801" lon="-8.848470015421078"><ele>252.0</ele><time>2026-04-27T15:35:45Z</time></trkpt><trkpt lat="30.48474410670369" lon="-8.848628668804732"><ele>252.0</ele><time>2026-04-27T15:35:46Z</time></trkpt><trkpt lat="30.484683815516796" lon="-8.848776016994787"><ele>252.0</ele><time>2026-04-27T15:35:47Z</time></trkpt><trkpt lat="30.48462398465497" lon="-8.848915109590685"><ele>252.0</ele><time>2026-04-27T15:35:48Z</time></trkpt><trkpt lat="30.484566364728245" lon="-8.849047217137874"><ele>252.0</ele><time>2026-04-27T15:35:49Z</time></trkpt><trkpt lat="30.484509932202027" lon="-8.849175414593654"><ele>252.0</ele><time>2026-04-27T15:35:50Z</time></trkpt><trkpt lat="30.484456763560704" lon="-8.849294628897047"><ele>252.0</ele><time>2026-04-27T15:35:51Z</time></trkpt><trkpt lat="30.48440512109794" lon="-8.849414560140298"><ele>252.0</ele><time>2026-04-27T15:35:52Z</time></trkpt><trkpt lat="30.48434693409549" lon="-8.849549789160154"><ele>252.0</ele><time>2026-04-27T15:35:53Z</time></trkpt><trkpt lat="30.48428243017847" lon="-8.849701351162166"><ele>252.0</ele><time>2026-04-27T15:35:54Z</time></trkpt><trkpt lat="30.48421393195024" lon="-8.849859645003997"><ele>252.0</ele><time>2026-04-27T15:35:55Z</time></trkpt><trkpt lat="30.484137492294703" lon="-8.850032532121707"><ele>252.0</ele><time>2026-04-27T15:35:56Z</time></trkpt><trkpt lat="30.48405647331589" lon="-8.85021310042428"><ele>250.66666666666669</ele><time>2026-04-27T15:35:57Z</time></trkpt><trkpt lat="30.48397412084944" lon="-8.850397272204184"><ele>249.33333333333334</ele><time>2026-04-27T15:35:58Z</time></trkpt><trkpt lat="30.483896706855084" lon="-8.850567927529783"><ele>248.0</ele><time>2026-04-27T15:35:59Z</time></trkpt><trkpt lat="30.48382883065992" lon="-8.850726986282213"><ele>248.0</ele><time>2026-04-27T15:36:00Z</time></trkpt><trkpt lat="30.48376705062958" lon="-8.850874245295952"><ele>248.0</ele><time>2026-04-27T15:36:01Z</time></trkpt><trkpt lat="30.483708891855407" lon="-8.851010892556316"><ele>248.0</ele><time>2026-04-27T15:36:02Z</time></trkpt><trkpt lat="30.483658205023826" lon="-8.851130404272496"><ele>248.0</ele><time>2026-04-27T15:36:03Z</time></trkpt><trkpt lat="30.48361263496356" lon="-8.851227699853688"><ele>248.50000000000003</ele><time>2026-04-27T15:36:04Z</time></trkpt><trkpt lat="30.483572422478016" lon="-8.851307771232305"><ele>249.0</ele><time>2026-04-27T15:36:05Z</time></trkpt><trkpt lat="30.483542568011135" lon="-8.851373992213952"><ele>249.5</ele><time>2026-04-27T15:36:06Z</time></trkpt><trkpt lat="30.483506691756833" lon="-8.851461047803618"><ele>250.0</ele><time>2026-04-27T15:36:08Z</time></trkpt><trkpt lat="30.48347056830698" lon="-8.851558066243657"><ele>250.50000000000003</ele><time>2026-04-27T15:36:10Z</time></trkpt><trkpt lat="30.483432306806833" lon="-8.8516457936357"><ele>251.0</ele><time>2026-04-27T15:36:12Z</time></trkpt><trkpt lat="30.48339688154133" lon="-8.851717398262654"><ele>250.83333333333334</ele><time>2026-04-27T15:36:14Z</time></trkpt><trkpt lat="30.483364030186525" lon="-8.851790277327902"><ele>250.66666666666669</ele><time>2026-04-27T15:36:17Z</time></trkpt><trkpt lat="30.483317519977025" lon="-8.851866156036877"><ele>250.5</ele><time>2026-04-27T15:36:21Z</time></trkpt><trkpt lat="30.48328957798751" lon="-8.851934661912393"><ele>250.33333333333331</ele><time>2026-04-27T15:36:23Z</time></trkpt><trkpt lat="30.483247535252012" lon="-8.852025972539712"><ele>250.16666666666666</ele><time>2026-04-27T15:36:25Z</time></trkpt><trkpt lat="30.483214592609745" lon="-8.852112180698985"><ele>250.0</ele><time>2026-04-27T15:36:28Z</time></trkpt><trkpt lat="30.483176318105855" lon="-8.85220903941647"><ele>249.99999999999997</ele><time>2026-04-27T15:36:32Z</time></trkpt><trkpt lat="30.483147095665622" lon="-8.852282627524641"><ele>250.0</ele><time>2026-04-27T15:36:35Z</time></trkpt><trkpt lat="30.48311699119447" lon="-8.852359546982338"><ele>250.0</ele><time>2026-04-27T15:36:38Z</time></trkpt><trkpt lat="30.483065282261748" lon="-8.852476150579866"><ele>250.0</ele><time>2026-04-27T15:36:40Z</time></trkpt><trkpt lat="30.48302843360986" lon="-8.852558508449407"><ele>249.99999999999997</ele><time>2026-04-27T15:36:41Z</time></trkpt><trkpt lat="30.482991387195817" lon="-8.852654891832486"><ele>250.0</ele><time>2026-04-27T15:36:42Z</time></trkpt><trkpt lat="30.482952124376396" lon="-8.852753546372128"><ele>251.0</ele><time>2026-04-27T15:36:43Z</time></trkpt><trkpt lat="30.48291416103648" lon="-8.852861175258218"><ele>252.0</ele><time>2026-04-27T15:36:44Z</time></trkpt><trkpt lat="30.482875464097845" lon="-8.852979200735195"><ele>253.0</ele><time>2026-04-27T15:36:45Z</time></trkpt><trkpt lat="30.482822542997628" lon="-8.853122105756862"><ele>254.0</ele><time>2026-04-27T15:36:46Z</time></trkpt><trkpt lat="30.482757648806736" lon="-8.853278876676189"><ele>253.0</ele><time>2026-04-27T15:36:47Z</time></trkpt><trkpt lat="30.482672167109893" lon="-8.853468079714037"><ele>252.0</ele><time>2026-04-27T15:36:48Z</time></trkpt><trkpt lat="30.482585429759144" lon="-8.853658149387126"><ele>251.0</ele><time>2026-04-27T15:36:49Z</time></trkpt><trkpt lat="30.482495240782264" lon="-8.853857649290905"><ele>251.0</ele><time>2026-04-27T15:36:50Z</time></trkpt><trkpt lat="30.48240953161337" lon="-8.854044249819438"><ele>251.0</ele><time>2026-04-27T15:36:51Z</time></trkpt><trkpt lat="30.482332266632042" lon="-8.85421691727182"><ele>251.0</ele><time>2026-04-27T15:36:52Z</time></trkpt><trkpt lat="30.482257243409148" lon="-8.854376348547326"><ele>250.5</ele><time>2026-04-27T15:36:53Z</time></trkpt><trkpt lat="30.482186821192023" lon="-8.854533221887921"><ele>250.0</ele><time>2026-04-27T15:36:54Z</time></trkpt><trkpt lat="30.48212220864892" lon="-8.854681935784132"><ele>249.5</ele><time>2026-04-27T15:36:55Z</time></trkpt><trkpt lat="30.48206296161179" lon="-8.854820388425765"><ele>249.0</ele><time>2026-04-27T15:36:56Z</time></trkpt><trkpt lat="30.482009689976753" lon="-8.85494630657855"><ele>249.0</ele><time>2026-04-27T15:36:57Z</time></trkpt><trkpt lat="30.48195975225146" lon="-8.85507385390084"><ele>249.0</ele><time>2026-04-27T15:36:58Z</time></trkpt><trkpt lat="30.481906187998895" lon="-8.855208403402019"><ele>249.0</ele><time>2026-04-27T15:36:59Z</time></trkpt><trkpt lat="30.48185003501683" lon="-8.855345568890082"><ele>249.0</ele><time>2026-04-27T15:37:00Z</time></trkpt><trkpt lat="30.481791508388437" lon="-8.855491802230345"><ele>248.75</ele><time>2026-04-27T15:37:01Z</time></trkpt><trkpt lat="30.481730436287858" lon="-8.855642617064436"><ele>248.5</ele><time>2026-04-27T15:37:02Z</time></trkpt><trkpt lat="30.48166989026055" lon="-8.855789509398766"><ele>248.25</ele><time>2026-04-27T15:37:03Z</time></trkpt><trkpt lat="30.481612125657175" lon="-8.855931240681683"><ele>248.0</ele><time>2026-04-27T15:37:04Z</time></trkpt><trkpt lat="30.481554311044004" lon="-8.856071197285436"><ele>248.0</ele><time>2026-04-27T15:37:05Z</time></trkpt><trkpt lat="30.481496128268574" lon="-8.856210490130678"><ele>248.0</ele><time>2026-04-27T15:37:06Z</time></trkpt><trkpt lat="30.481436227673694" lon="-8.856343562408565"><ele>248.0</ele><time>2026-04-27T15:37:07Z</time></trkpt><trkpt lat="30.481379021174835" lon="-8.856476753685644"><ele>248.0</ele><time>2026-04-27T15:37:08Z</time></trkpt><trkpt lat="30.481320673455123" lon="-8.856614750787257"><ele>248.25</ele><time>2026-04-27T15:37:09Z</time></trkpt><trkpt lat="30.48125836332342" lon="-8.856752673727897"><ele>248.5</ele><time>2026-04-27T15:37:10Z</time></trkpt><trkpt lat="30.481206211548187" lon="-8.856888726974102"><ele>248.75</ele><time>2026-04-27T15:37:11Z</time></trkpt><trkpt lat="30.481136854839598" lon="-8.857007978443596"><ele>249.0</ele><time>2026-04-27T15:37:12Z</time></trkpt><trkpt lat="30.481085886525" lon="-8.857123477913072"><ele>249.0</ele><time>2026-04-27T15:37:13Z</time></trkpt><trkpt lat="30.481035373777722" lon="-8.857236592651256"><ele>248.99999999999997</ele><time>2026-04-27T15:37:14Z</time></trkpt><trkpt lat="30.480984436417515" lon="-8.85734889401858"><ele>248.99999999999997</ele><time>2026-04-27T15:37:15Z</time></trkpt><trkpt lat="30.48093992574011" lon="-8.857447569788809"><ele>249.0</ele><time>2026-04-27T15:37:16Z</time></trkpt><trkpt lat="30.48089756143502" lon="-8.857541157785738"><ele>249.0</ele><time>2026-04-27T15:37:17Z</time></trkpt><trkpt lat="30.480856534625513" lon="-8.857631791048943"><ele>248.83333333333334</ele><time>2026-04-27T15:37:18Z</time></trkpt><trkpt lat="30.480813678786085" lon="-8.857726464882063"><ele>248.66666666666669</ele><time>2026-04-27T15:37:19Z</time></trkpt><trkpt lat="30.480771393224103" lon="-8.857820015437376"><ele>248.5</ele><time>2026-04-27T15:37:20Z</time></trkpt><trkpt lat="30.480730886271555" lon="-8.857909691123071"><ele>248.33333333333334</ele><time>2026-04-27T15:37:21Z</time></trkpt><trkpt lat="30.480708848778235" lon="-8.858004287842519"><ele>248.16666666666669</ele><time>2026-04-27T15:37:22Z</time></trkpt><trkpt lat="30.48066208174358" lon="-8.85807710368173"><ele>248.0</ele><time>2026-04-27T15:37:23Z</time></trkpt><trkpt lat="30.48062977911062" lon="-8.858154500011318"><ele>248.0</ele><time>2026-04-27T15:37:24Z</time></trkpt><trkpt lat="30.480591563970556" lon="-8.858245715631243"><ele>248.0</ele><time>2026-04-27T15:37:25Z</time></trkpt><trkpt lat="30.4805581090658" lon="-8.858351824337328"><ele>248.0</ele><time>2026-04-27T15:37:26Z</time></trkpt><trkpt lat="30.480501329950872" lon="-8.858459423305623"><ele>248.0</ele><time>2026-04-27T15:37:27Z</time></trkpt><trkpt lat="30.480444210324045" lon="-8.858586374467743"><ele>248.0</ele><time>2026-04-27T15:37:28Z</time></trkpt><trkpt lat="30.480389457406744" lon="-8.858716742314607"><ele>248.0</ele><time>2026-04-27T15:37:29Z</time></trkpt><trkpt lat="30.480339841804867" lon="-8.85885493039299"><ele>248.0</ele><time>2026-04-27T15:37:30Z</time></trkpt><trkpt lat="30.48028417777859" lon="-8.859002292743927"><ele>248.0</ele><time>2026-04-27T15:37:31Z</time></trkpt><trkpt lat="30.480225883583692" lon="-8.859154746763496"><ele>248.0</ele><time>2026-04-27T15:37:32Z</time></trkpt><trkpt lat="30.480163200435662" lon="-8.859311825543047"><ele>247.75</ele><time>2026-04-27T15:37:33Z</time></trkpt><trkpt lat="30.480099665755954" lon="-8.859457795923921"><ele>247.5</ele><time>2026-04-27T15:37:34Z</time></trkpt><trkpt lat="30.48004338996441" lon="-8.85958756717079"><ele>247.25</ele><time>2026-04-27T15:37:35Z</time></trkpt><trkpt lat="30.479984703238966" lon="-8.859719611385803"><ele>247.0</ele><time>2026-04-27T15:37:36Z</time></trkpt><trkpt lat="30.479921762297884" lon="-8.859862108523338"><ele>247.0</ele><time>2026-04-27T15:37:37Z</time></trkpt><trkpt lat="30.4798577851097" lon="-8.860002240812577"><ele>247.0</ele><time>2026-04-27T15:37:38Z</time></trkpt><trkpt lat="30.47979403997441" lon="-8.860144213805059"><ele>247.0</ele><time>2026-04-27T15:37:39Z</time></trkpt><trkpt lat="30.479728357651155" lon="-8.860285688036816"><ele>247.0</ele><time>2026-04-27T15:37:40Z</time></trkpt><trkpt lat="30.479658921216853" lon="-8.86042147523797"><ele>247.0</ele><time>2026-04-27T15:37:41Z</time></trkpt><trkpt lat="30.47958604071253" lon="-8.860548922210604"><ele>247.0</ele><time>2026-04-27T15:37:42Z</time></trkpt><trkpt lat="30.479511556417616" lon="-8.860668134597367"><ele>247.0</ele><time>2026-04-27T15:37:43Z</time></trkpt><trkpt lat="30.479434532310652" lon="-8.860784198142893"><ele>247.0</ele><time>2026-04-27T15:37:44Z</time></trkpt><trkpt lat="30.47935462792346" lon="-8.860898169024475"><ele>247.0</ele><time>2026-04-27T15:37:45Z</time></trkpt><trkpt lat="30.479271566719916" lon="-8.861007426572204"><ele>247.0</ele><time>2026-04-27T15:37:46Z</time></trkpt><trkpt lat="30.479191032821294" lon="-8.861103478899034"><ele>247.0</ele><time>2026-04-27T15:37:47Z</time></trkpt><trkpt lat="30.47911871634916" lon="-8.86119470008517"><ele>247.0</ele><time>2026-04-27T15:37:48Z</time></trkpt><trkpt lat="30.47905288909777" lon="-8.86127943809769"><ele>247.0</ele><time>2026-04-27T15:37:49Z</time></trkpt><trkpt lat="30.478988290721258" lon="-8.861365749191581"><ele>247.0</ele><time>2026-04-27T15:37:50Z</time></trkpt><trkpt lat="30.47892080967001" lon="-8.861448838295555"><ele>247.0</ele><time>2026-04-27T15:37:51Z</time></trkpt><trkpt lat="30.47884666062835" lon="-8.861539478375176"><ele>247.0</ele><time>2026-04-27T15:37:52Z</time></trkpt><trkpt lat="30.478776657590107" lon="-8.861631175445341"><ele>247.0</ele><time>2026-04-27T15:37:53Z</time></trkpt><trkpt lat="30.47870699888984" lon="-8.86171765049762"><ele>247.0</ele><time>2026-04-27T15:37:54Z</time></trkpt><trkpt lat="30.478633609956148" lon="-8.861800965131497"><ele>246.99999999999997</ele><time>2026-04-27T15:37:55Z</time></trkpt><trkpt lat="30.47856324169351" lon="-8.861871555674476"><ele>247.0</ele><time>2026-04-27T15:37:56Z</time></trkpt><trkpt lat="30.478498501566083" lon="-8.861938493395845"><ele>247.0</ele><time>2026-04-27T15:37:57Z</time></trkpt><trkpt lat="30.47844026745922" lon="-8.862004566182035"><ele>247.0</ele><time>2026-04-27T15:37:58Z</time></trkpt><trkpt lat="30.478384682196005" lon="-8.862067760830675"><ele>246.99999999999997</ele><time>2026-04-27T15:37:59Z</time></trkpt><trkpt lat="30.478337484067442" lon="-8.862125977271152"><ele>247.0</ele><time>2026-04-27T15:38:00Z</time></trkpt><trkpt lat="30.478290477194687" lon="-8.862183118214332"><ele>246.99999999999997</ele><time>2026-04-27T15:38:01Z</time></trkpt><trkpt lat="30.478244595685275" lon="-8.862234593845727"><ele>247.0</ele><time>2026-04-27T15:38:02Z</time></trkpt><trkpt lat="30.478163466718176" lon="-8.862333305007343"><ele>247.0</ele><time>2026-04-27T15:38:04Z</time></trkpt><trkpt lat="30.478115505024395" lon="-8.862388072092408"><ele>247.0</ele><time>2026-04-27T15:38:05Z</time></trkpt><trkpt lat="30.478068663425173" lon="-8.862444965596007"><ele>246.99999999999997</ele><time>2026-04-27T15:38:06Z</time></trkpt><trkpt lat="30.47802228944766" lon="-8.86250556717302"><ele>247.0</ele><time>2026-04-27T15:38:07Z</time></trkpt><trkpt lat="30.477970709803866" lon="-8.862567674122683"><ele>246.8</ele><time>2026-04-27T15:38:08Z</time></trkpt><trkpt lat="30.477914955160795" lon="-8.862630274283749"><ele>246.6</ele><time>2026-04-27T15:38:09Z</time></trkpt><trkpt lat="30.47786169033065" lon="-8.862690348493116"><ele>246.40000000000003</ele><time>2026-04-27T15:38:10Z</time></trkpt><trkpt lat="30.47781022461341" lon="-8.862744391501323"><ele>246.20000000000002</ele><time>2026-04-27T15:38:11Z</time></trkpt><trkpt lat="30.477723373256328" lon="-8.862843980876576"><ele>246.0</ele><time>2026-04-27T15:38:13Z</time></trkpt><trkpt lat="30.477646739084694" lon="-8.8629397857645"><ele>246.0</ele><time>2026-04-27T15:38:15Z</time></trkpt><trkpt lat="30.47757247623515" lon="-8.863032746644325"><ele>246.00000000000003</ele><time>2026-04-27T15:38:17Z</time></trkpt><trkpt lat="30.477498912504945" lon="-8.863115533913613"><ele>246.00000000000003</ele><time>2026-04-27T15:38:19Z</time></trkpt><trkpt lat="30.477426699823326" lon="-8.863198746220455"><ele>246.0</ele><time>2026-04-27T15:38:21Z</time></trkpt><trkpt lat="30.47736034031107" lon="-8.863284342571086"><ele>246.0</ele><time>2026-04-27T15:38:23Z</time></trkpt><trkpt lat="30.477299466729757" lon="-8.863374718558221"><ele>246.0</ele><time>2026-04-27T15:38:25Z</time></trkpt><trkpt lat="30.477193458893975" lon="-8.863456642931952"><ele>246.00000000000003</ele><time>2026-04-27T15:38:27Z</time></trkpt><trkpt lat="30.477141302893134" lon="-8.863596304972045"><ele>246.00000000000003</ele><time>2026-04-27T15:38:29Z</time></trkpt><trkpt lat="30.477091935431837" lon="-8.863649273240446"><ele>246.0</ele><time>2026-04-27T15:38:30Z</time></trkpt><trkpt lat="30.476989595629135" lon="-8.863700983287318"><ele>246.0</ele><time>2026-04-27T15:38:32Z</time></trkpt><trkpt lat="30.476927273981204" lon="-8.863731122827636"><ele>245.8</ele><time>2026-04-27T15:38:33Z</time></trkpt><trkpt lat="30.476869839611535" lon="-8.863781988368007"><ele>245.60000000000002</ele><time>2026-04-27T15:38:34Z</time></trkpt><trkpt lat="30.476801407681684" lon="-8.863842593675455"><ele>245.4</ele><time>2026-04-27T15:38:35Z</time></trkpt><trkpt lat="30.476773112684477" lon="-8.863971468288689"><ele>245.2</ele><time>2026-04-27T15:38:36Z</time></trkpt><trkpt lat="30.476707828094955" lon="-8.864046101435985"><ele>245.0</ele><time>2026-04-27T15:38:37Z</time></trkpt><trkpt lat="30.47664667639761" lon="-8.864117746579263"><ele>245.0</ele><time>2026-04-27T15:38:38Z</time></trkpt><trkpt lat="30.476587954231025" lon="-8.864188609370114"><ele>245.0</ele><time>2026-04-27T15:38:39Z</time></trkpt><trkpt lat="30.476522124799097" lon="-8.864258902121632"><ele>245.0</ele><time>2026-04-27T15:38:40Z</time></trkpt><trkpt lat="30.476450980633416" lon="-8.864335585294356"><ele>245.0</ele><time>2026-04-27T15:38:41Z</time></trkpt><trkpt lat="30.476376835155325" lon="-8.864418414639063"><ele>245.0</ele><time>2026-04-27T15:38:42Z</time></trkpt><trkpt lat="30.476304649955736" lon="-8.864503158318636"><ele>244.6</ele><time>2026-04-27T15:38:43Z</time></trkpt><trkpt lat="30.47623263011508" lon="-8.864579392330565"><ele>244.2</ele><time>2026-04-27T15:38:44Z</time></trkpt><trkpt lat="30.47616882840414" lon="-8.864652979795185"><ele>243.8</ele><time>2026-04-27T15:38:45Z</time></trkpt><trkpt lat="30.47610075359808" lon="-8.864735653906251"><ele>243.4</ele><time>2026-04-27T15:38:46Z</time></trkpt><trkpt lat="30.47603266221998" lon="-8.86481873378547"><ele>243.0</ele><time>2026-04-27T15:38:47Z</time></trkpt><trkpt lat="30.47596062940591" lon="-8.864904647236951"><ele>243.0</ele><time>2026-04-27T15:38:48Z</time></trkpt><trkpt lat="30.475890339687123" lon="-8.864987377953264"><ele>243.0</ele><time>2026-04-27T15:38:49Z</time></trkpt><trkpt lat="30.475825429413817" lon="-8.865060601303066"><ele>243.0</ele><time>2026-04-27T15:38:50Z</time></trkpt><trkpt lat="30.47576725446927" lon="-8.86513045927367"><ele>243.0</ele><time>2026-04-27T15:38:51Z</time></trkpt><trkpt lat="30.475715500786112" lon="-8.865192691790034"><ele>243.0</ele><time>2026-04-27T15:38:52Z</time></trkpt><trkpt lat="30.475669995784955" lon="-8.865251343051394"><ele>243.0</ele><time>2026-04-27T15:38:53Z</time></trkpt><trkpt lat="30.47561539764282" lon="-8.86533208626589"><ele>242.8</ele><time>2026-04-27T15:38:55Z</time></trkpt><trkpt lat="30.47555304893702" lon="-8.865420649875343"><ele>242.60000000000002</ele><time>2026-04-27T15:38:58Z</time></trkpt><trkpt lat="30.475474710866195" lon="-8.865507220686146"><ele>242.39999999999998</ele><time>2026-04-27T15:39:00Z</time></trkpt><trkpt lat="30.475399870406395" lon="-8.865596850560618"><ele>242.2</ele><time>2026-04-27T15:39:02Z</time></trkpt><trkpt lat="30.47531778309523" lon="-8.865710955336738"><ele>242.0</ele><time>2026-04-27T15:39:04Z</time></trkpt><trkpt lat="30.47527324114663" lon="-8.86577354929559"><ele>242.0</ele><time>2026-04-27T15:39:05Z</time></trkpt><trkpt lat="30.47521920004995" lon="-8.865841844070086"><ele>242.0</ele><time>2026-04-27T15:39:06Z</time></trkpt><trkpt lat="30.475165126845557" lon="-8.865912256489317"><ele>242.0</ele><time>2026-04-27T15:39:07Z</time></trkpt><trkpt lat="30.475105588920705" lon="-8.865989362279823"><ele>242.0</ele><time>2026-04-27T15:39:08Z</time></trkpt><trkpt lat="30.475039696660684" lon="-8.866073970967303"><ele>242.0</ele><time>2026-04-27T15:39:09Z</time></trkpt><trkpt lat="30.474974644234496" lon="-8.866163381060398"><ele>242.0</ele><time>2026-04-27T15:39:10Z</time></trkpt><trkpt lat="30.47491150664027" lon="-8.86625501643222"><ele>242.0</ele><time>2026-04-27T15:39:11Z</time></trkpt><trkpt lat="30.4748504114292" lon="-8.866343127040667"><ele>242.0</ele><time>2026-04-27T15:39:12Z</time></trkpt><trkpt lat="30.474788485987585" lon="-8.866435952646178"><ele>242.0</ele><time>2026-04-27T15:39:13Z</time></trkpt><trkpt lat="30.474725690738115" lon="-8.866528746451177"><ele>242.0</ele><time>2026-04-27T15:39:14Z</time></trkpt><trkpt lat="30.474659139054843" lon="-8.866626810156694"><ele>242.0</ele><time>2026-04-27T15:39:15Z</time></trkpt><trkpt lat="30.47459243536826" lon="-8.86672728210889"><ele>242.0</ele><time>2026-04-27T15:39:16Z</time></trkpt><trkpt lat="30.47452338871779" lon="-8.866831003869542"><ele>242.0</ele><time>2026-04-27T15:39:17Z</time></trkpt><trkpt lat="30.474453992048485" lon="-8.86693435811731"><ele>242.0</ele><time>2026-04-27T15:39:18Z</time></trkpt><trkpt lat="30.47438721681745" lon="-8.867033581243623"><ele>242.0</ele><time>2026-04-27T15:39:19Z</time></trkpt><trkpt lat="30.474320982313603" lon="-8.867130209491728"><ele>242.0</ele><time>2026-04-27T15:39:20Z</time></trkpt><trkpt lat="30.474250634409916" lon="-8.867231941151974"><ele>242.0</ele><time>2026-04-27T15:39:21Z</time></trkpt><trkpt lat="30.47417951818035" lon="-8.86733340844348"><ele>242.0</ele><time>2026-04-27T15:39:22Z</time></trkpt><trkpt lat="30.474110742512313" lon="-8.86743137619585"><ele>242.0</ele><time>2026-04-27T15:39:23Z</time></trkpt><trkpt lat="30.47403758264804" lon="-8.867535620394271"><ele>241.6</ele><time>2026-04-27T15:39:24Z</time></trkpt><trkpt lat="30.473968075986026" lon="-8.867640567684257"><ele>241.2</ele><time>2026-04-27T15:39:25Z</time></trkpt><trkpt lat="30.473904716275975" lon="-8.86773687011085"><ele>240.8</ele><time>2026-04-27T15:39:26Z</time></trkpt><trkpt lat="30.473845491026093" lon="-8.867826971242943"><ele>240.4</ele><time>2026-04-27T15:39:27Z</time></trkpt><trkpt lat="30.473790166929618" lon="-8.867910898258767"><ele>240.0</ele><time>2026-04-27T15:39:28Z</time></trkpt><trkpt lat="30.47373600866835" lon="-8.867990475199939"><ele>240.0</ele><time>2026-04-27T15:39:29Z</time></trkpt><trkpt lat="30.473684036103844" lon="-8.868068388122916"><ele>240.0</ele><time>2026-04-27T15:39:30Z</time></trkpt><trkpt lat="30.47363210900204" lon="-8.868146140246646"><ele>240.0</ele><time>2026-04-27T15:39:31Z</time></trkpt><trkpt lat="30.473583768417758" lon="-8.868217283862156"><ele>240.0</ele><time>2026-04-27T15:39:32Z</time></trkpt><trkpt lat="30.473538026817828" lon="-8.868284962616409"><ele>240.0</ele><time>2026-04-27T15:39:33Z</time></trkpt><trkpt lat="30.47349383193755" lon="-8.868353725377553"><ele>240.0</ele><time>2026-04-27T15:39:34Z</time></trkpt><trkpt lat="30.473444023000205" lon="-8.868430195067713"><ele>240.4</ele><time>2026-04-27T15:39:35Z</time></trkpt><trkpt lat="30.473391029786708" lon="-8.868509897125094"><ele>240.8</ele><time>2026-04-27T15:39:36Z</time></trkpt><trkpt lat="30.47333380432501" lon="-8.868596388708404"><ele>241.2</ele><time>2026-04-27T15:39:37Z</time></trkpt><trkpt lat="30.473274482884484" lon="-8.86868226586661"><ele>241.6</ele><time>2026-04-27T15:39:38Z</time></trkpt><trkpt lat="30.473215340493965" lon="-8.868764312212615"><ele>242.0</ele><time>2026-04-27T15:39:39Z</time></trkpt><trkpt lat="30.473161400006557" lon="-8.868841498218815"><ele>242.00000000000003</ele><time>2026-04-27T15:39:40Z</time></trkpt><trkpt lat="30.47311279709453" lon="-8.868912380813544"><ele>242.0</ele><time>2026-04-27T15:39:41Z</time></trkpt><trkpt lat="30.473065045441178" lon="-8.868983140730505"><ele>242.0</ele><time>2026-04-27T15:39:42Z</time></trkpt><trkpt lat="30.47301338842195" lon="-8.869058046340225"><ele>242.0</ele><time>2026-04-27T15:39:43Z</time></trkpt><trkpt lat="30.47296176093713" lon="-8.869135104094216"><ele>242.00000000000003</ele><time>2026-04-27T15:39:44Z</time></trkpt><trkpt lat="30.472909730946785" lon="-8.86921297068329"><ele>242.0</ele><time>2026-04-27T15:39:45Z</time></trkpt><trkpt lat="30.472856093533327" lon="-8.869292877855615"><ele>241.8</ele><time>2026-04-27T15:39:46Z</time></trkpt><trkpt lat="30.47280169796567" lon="-8.869373024748855"><ele>241.6</ele><time>2026-04-27T15:39:47Z</time></trkpt><trkpt lat="30.472744641121587" lon="-8.869452579730677"><ele>241.40000000000003</ele><time>2026-04-27T15:39:48Z</time></trkpt><trkpt lat="30.47268747026354" lon="-8.86953390517717"><ele>241.20000000000002</ele><time>2026-04-27T15:39:49Z</time></trkpt><trkpt lat="30.472630804039973" lon="-8.869623158414939"><ele>241.0</ele><time>2026-04-27T15:39:50Z</time></trkpt><trkpt lat="30.472573518952867" lon="-8.869722410669537"><ele>240.99999999999997</ele><time>2026-04-27T15:39:51Z</time></trkpt><trkpt lat="30.47251697618447" lon="-8.869823652518729"><ele>241.0</ele><time>2026-04-27T15:39:52Z</time></trkpt><trkpt lat="30.472463857478285" lon="-8.869916257816437"><ele>241.0</ele><time>2026-04-27T15:39:53Z</time></trkpt><trkpt lat="30.472414093493533" lon="-8.869999694994377"><ele>241.0</ele><time>2026-04-27T15:39:54Z</time></trkpt><trkpt lat="30.47236906259525" lon="-8.870074908417951"><ele>240.99999999999997</ele><time>2026-04-27T15:39:55Z</time></trkpt><trkpt lat="30.47232355375482" lon="-8.870142161158007"><ele>241.0</ele><time>2026-04-27T15:39:56Z</time></trkpt><trkpt lat="30.472277243041827" lon="-8.870200444693552"><ele>240.83333333333331</ele><time>2026-04-27T15:39:57Z</time></trkpt><trkpt lat="30.4722150707547" lon="-8.87030433293499"><ele>240.66666666666666</ele><time>2026-04-27T15:39:59Z</time></trkpt><trkpt lat="30.472139674226487" lon="-8.870346590257563"><ele>240.5</ele><time>2026-04-27T15:40:01Z</time></trkpt><trkpt lat="30.472093362516954" lon="-8.870421980076074"><ele>240.33333333333331</ele><time>2026-04-27T15:40:04Z</time></trkpt><trkpt lat="30.472041820248787" lon="-8.870505884604176"><ele>240.16666666666666</ele><time>2026-04-27T15:40:20Z</time></trkpt><trkpt lat="30.472000594238068" lon="-8.87057477850748"><ele>240.0</ele><time>2026-04-27T15:40:21Z</time></trkpt><trkpt lat="30.47194948593513" lon="-8.870662794638633"><ele>239.6</ele><time>2026-04-27T15:40:22Z</time></trkpt><trkpt lat="30.471957869305246" lon="-8.870812004702415"><ele>239.2</ele><time>2026-04-27T15:40:23Z</time></trkpt><trkpt lat="30.471920587030056" lon="-8.8709255941402"><ele>238.8</ele><time>2026-04-27T15:40:24Z</time></trkpt><trkpt lat="30.471871170604064" lon="-8.871022550851247"><ele>238.4</ele><time>2026-04-27T15:40:25Z</time></trkpt><trkpt lat="30.471812577522105" lon="-8.871097079287615"><ele>238.0</ele><time>2026-04-27T15:40:26Z</time></trkpt><trkpt lat="30.47173895950631" lon="-8.871159547427613"><ele>238.0</ele><time>2026-04-27T15:40:27Z</time></trkpt><trkpt lat="30.47164384375249" lon="-8.871224882891978"><ele>238.0</ele><time>2026-04-27T15:40:28Z</time></trkpt><trkpt lat="30.47155179127841" lon="-8.871278159722056"><ele>238.0</ele><time>2026-04-27T15:40:29Z</time></trkpt><trkpt lat="30.471460589116717" lon="-8.871314362371885"><ele>238.0</ele><time>2026-04-27T15:40:30Z</time></trkpt><trkpt lat="30.471346878452117" lon="-8.871338839527015"><ele>238.0</ele><time>2026-04-27T15:40:31Z</time></trkpt><trkpt lat="30.471209252484474" lon="-8.871362214789636"><ele>237.33333333333331</ele><time>2026-04-27T15:40:32Z</time></trkpt><trkpt lat="30.47105713367484" lon="-8.871403614154053"><ele>236.66666666666669</ele><time>2026-04-27T15:40:33Z</time></trkpt><trkpt lat="30.4709036256174" lon="-8.871474089134608"><ele>236.0</ele><time>2026-04-27T15:40:34Z</time></trkpt><trkpt lat="30.470753596527707" lon="-8.871553200352004"><ele>236.0</ele><time>2026-04-27T15:40:35Z</time></trkpt><trkpt lat="30.47060124908654" lon="-8.871627625214353"><ele>236.0</ele><time>2026-04-27T15:40:36Z</time></trkpt><trkpt lat="30.470454457464754" lon="-8.871697759496138"><ele>236.0</ele><time>2026-04-27T15:40:37Z</time></trkpt><trkpt lat="30.47030080355586" lon="-8.87177082060754"><ele>236.0</ele><time>2026-04-27T15:40:38Z</time></trkpt><trkpt lat="30.470149827275907" lon="-8.871841904546843"><ele>236.0</ele><time>2026-04-27T15:40:39Z</time></trkpt><trkpt lat="30.469999838957047" lon="-8.87191233865796"><ele>236.0</ele><time>2026-04-27T15:40:40Z</time></trkpt><trkpt lat="30.46983782351253" lon="-8.871988316684472"><ele>236.0</ele><time>2026-04-27T15:40:41Z</time></trkpt><trkpt lat="30.469671733071472" lon="-8.872064781361319"><ele>236.0</ele><time>2026-04-27T15:40:42Z</time></trkpt><trkpt lat="30.46951175459338" lon="-8.872136530444438"><ele>236.0</ele><time>2026-04-27T15:40:43Z</time></trkpt><trkpt lat="30.46936805180505" lon="-8.872202679938608"><ele>235.5</ele><time>2026-04-27T15:40:44Z</time></trkpt><trkpt lat="30.46923698871443" lon="-8.872265686877647"><ele>235.0</ele><time>2026-04-27T15:40:45Z</time></trkpt><trkpt lat="30.469116145773533" lon="-8.872318754866752"><ele>234.5</ele><time>2026-04-27T15:40:46Z</time></trkpt><trkpt lat="30.468992503253236" lon="-8.872370825955748"><ele>234.0</ele><time>2026-04-27T15:40:47Z</time></trkpt><trkpt lat="30.468858779740053" lon="-8.872422301411525"><ele>234.25</ele><time>2026-04-27T15:40:48Z</time></trkpt><trkpt lat="30.468715649990102" lon="-8.872458989494556"><ele>234.5</ele><time>2026-04-27T15:40:49Z</time></trkpt><trkpt lat="30.46857280380023" lon="-8.872482724623449"><ele>234.75</ele><time>2026-04-27T15:40:50Z</time></trkpt><trkpt lat="30.468427994587426" lon="-8.872491054692658"><ele>235.0</ele><time>2026-04-27T15:40:51Z</time></trkpt><trkpt lat="30.468270202099173" lon="-8.872490065152482"><ele>235.0</ele><time>2026-04-27T15:40:52Z</time></trkpt><trkpt lat="30.46810567150494" lon="-8.872485733209073"><ele>235.0</ele><time>2026-04-27T15:40:53Z</time></trkpt><trkpt lat="30.46793693061342" lon="-8.872479244661385"><ele>235.0</ele><time>2026-04-27T15:40:54Z</time></trkpt><trkpt lat="30.467771430096317" lon="-8.872472709250792"><ele>235.33333333333331</ele><time>2026-04-27T15:40:55Z</time></trkpt><trkpt lat="30.467603168862563" lon="-8.87247214872816"><ele>235.66666666666669</ele><time>2026-04-27T15:40:56Z</time></trkpt><trkpt lat="30.467427671798355" lon="-8.8724703309774"><ele>236.0</ele><time>2026-04-27T15:40:57Z</time></trkpt><trkpt lat="30.46725126898816" lon="-8.87246679453679"><ele>235.33333333333334</ele><time>2026-04-27T15:40:58Z</time></trkpt><trkpt lat="30.467078293332055" lon="-8.872465076605772"><ele>234.66666666666669</ele><time>2026-04-27T15:40:59Z</time></trkpt><trkpt lat="30.46692110108429" lon="-8.872463599329647"><ele>234.0</ele><time>2026-04-27T15:41:00Z</time></trkpt><trkpt lat="30.46677624211503" lon="-8.87246082378508"><ele>234.0</ele><time>2026-04-27T15:41:01Z</time></trkpt><trkpt lat="30.466633909505866" lon="-8.872460431279382"><ele>234.0</ele><time>2026-04-27T15:41:02Z</time></trkpt><trkpt lat="30.466496294022274" lon="-8.872456341190896"><ele>234.0</ele><time>2026-04-27T15:41:03Z</time></trkpt><trkpt lat="30.466360768415896" lon="-8.87245267893168"><ele>234.0</ele><time>2026-04-27T15:41:04Z</time></trkpt><trkpt lat="30.46623240289428" lon="-8.87245508472352"><ele>233.5</ele><time>2026-04-27T15:41:05Z</time></trkpt><trkpt lat="30.466126721818494" lon="-8.872456274277615"><ele>233.0</ele><time>2026-04-27T15:41:06Z</time></trkpt><trkpt lat="30.46603003045908" lon="-8.872460601761915"><ele>232.5</ele><time>2026-04-27T15:41:07Z</time></trkpt><trkpt lat="30.465948113312226" lon="-8.872474608431746"><ele>232.0</ele><time>2026-04-27T15:41:08Z</time></trkpt><trkpt lat="30.465878815237918" lon="-8.8725001331509"><ele>231.5</ele><time>2026-04-27T15:41:09Z</time></trkpt><trkpt lat="30.465806632378694" lon="-8.872506632347386"><ele>231.0</ele><time>2026-04-27T15:41:10Z</time></trkpt><trkpt lat="30.465712642230528" lon="-8.872560188189022"><ele>231.4</ele><time>2026-04-27T15:41:12Z</time></trkpt><trkpt lat="30.46562174485486" lon="-8.872614836112074"><ele>231.8</ele><time>2026-04-27T15:41:15Z</time></trkpt><trkpt lat="30.46560631514755" lon="-8.872758986453178"><ele>232.20000000000002</ele><time>2026-04-27T15:41:16Z</time></trkpt><trkpt lat="30.46553385022737" lon="-8.872791980325506"><ele>232.60000000000002</ele><time>2026-04-27T15:41:17Z</time></trkpt><trkpt lat="30.465452729879974" lon="-8.872805054947008"><ele>233.0</ele><time>2026-04-27T15:41:18Z</time></trkpt><trkpt lat="30.465361043198786" lon="-8.872820690625327"><ele>233.00000000000003</ele><time>2026-04-27T15:41:19Z</time></trkpt><trkpt lat="30.465269990235672" lon="-8.872844287317026"><ele>233.0</ele><time>2026-04-27T15:41:20Z</time></trkpt><trkpt lat="30.465196910415354" lon="-8.872879598980937"><ele>233.0</ele><time>2026-04-27T15:41:21Z</time></trkpt><trkpt lat="30.465139058864107" lon="-8.87292661133442"><ele>233.0</ele><time>2026-04-27T15:41:22Z</time></trkpt><trkpt lat="30.465083195583507" lon="-8.872968284658203"><ele>233.00000000000003</ele><time>2026-04-27T15:41:23Z</time></trkpt><trkpt lat="30.464986367208674" lon="-8.873040336455613"><ele>233.0</ele><time>2026-04-27T15:41:25Z</time></trkpt><trkpt lat="30.464890179644303" lon="-8.873129699126615"><ele>233.0</ele><time>2026-04-27T15:41:27Z</time></trkpt><trkpt lat="30.46479094287037" lon="-8.873221296853126"><ele>233.0</ele><time>2026-04-27T15:41:29Z</time></trkpt><trkpt lat="30.464733831279638" lon="-8.873267663404983"><ele>233.0</ele><time>2026-04-27T15:41:30Z</time></trkpt><trkpt lat="30.464673074803514" lon="-8.873316548669225"><ele>233.0</ele><time>2026-04-27T15:41:31Z</time></trkpt><trkpt lat="30.46461768690942" lon="-8.873356968260465"><ele>233.0</ele><time>2026-04-27T15:41:32Z</time></trkpt><trkpt lat="30.464520632923605" lon="-8.873432586808544"><ele>232.8</ele><time>2026-04-27T15:41:34Z</time></trkpt><trkpt lat="30.464436300235988" lon="-8.87349690841659"><ele>232.60000000000002</ele><time>2026-04-27T15:41:36Z</time></trkpt><trkpt lat="30.46434191405852" lon="-8.873557626944038"><ele>232.39999999999998</ele><time>2026-04-27T15:41:38Z</time></trkpt><trkpt lat="30.46422399201677" lon="-8.873623123521275"><ele>232.2</ele><time>2026-04-27T15:41:40Z</time></trkpt><trkpt lat="30.464151502629694" lon="-8.8736689219664"><ele>232.0</ele><time>2026-04-27T15:41:41Z</time></trkpt><trkpt lat="30.464082850464436" lon="-8.87373486596983"><ele>232.0</ele><time>2026-04-27T15:41:42Z</time></trkpt><trkpt lat="30.464006132938696" lon="-8.87379563593582"><ele>232.0</ele><time>2026-04-27T15:41:43Z</time></trkpt><trkpt lat="30.46390906499529" lon="-8.873826149187865"><ele>232.0</ele><time>2026-04-27T15:41:44Z</time></trkpt><trkpt lat="30.463829049523923" lon="-8.873882643293163"><ele>232.0</ele><time>2026-04-27T15:41:45Z</time></trkpt><trkpt lat="30.463741697211074" lon="-8.873941624866852"><ele>232.0</ele><time>2026-04-27T15:41:46Z</time></trkpt><trkpt lat="30.463651188139877" lon="-8.873998930536683"><ele>231.5</ele><time>2026-04-27T15:41:47Z</time></trkpt><trkpt lat="30.4635553100762" lon="-8.874061318669629"><ele>231.0</ele><time>2026-04-27T15:41:48Z</time></trkpt><trkpt lat="30.463449913630363" lon="-8.874128632498607"><ele>230.5</ele><time>2026-04-27T15:41:49Z</time></trkpt><trkpt lat="30.463334115746214" lon="-8.874193364752806"><ele>230.0</ele><time>2026-04-27T15:41:50Z</time></trkpt><trkpt lat="30.463207912387347" lon="-8.874266521029831"><ele>230.0</ele><time>2026-04-27T15:41:51Z</time></trkpt><trkpt lat="30.463078475262705" lon="-8.874339968477619"><ele>230.0</ele><time>2026-04-27T15:41:52Z</time></trkpt><trkpt lat="30.462955216980813" lon="-8.874409011572546"><ele>230.0</ele><time>2026-04-27T15:41:53Z</time></trkpt><trkpt lat="30.46282858936773" lon="-8.874471847582276"><ele>230.0</ele><time>2026-04-27T15:41:54Z</time></trkpt><trkpt lat="30.462704947350627" lon="-8.874526438970607"><ele>230.0</ele><time>2026-04-27T15:41:55Z</time></trkpt><trkpt lat="30.46257487630476" lon="-8.874570887435954"><ele>230.0</ele><time>2026-04-27T15:41:56Z</time></trkpt><trkpt lat="30.462441779191504" lon="-8.87459989511876"><ele>230.0</ele><time>2026-04-27T15:41:57Z</time></trkpt><trkpt lat="30.462304827826713" lon="-8.874610617455241"><ele>230.0</ele><time>2026-04-27T15:41:58Z</time></trkpt><trkpt lat="30.46216451480343" lon="-8.874601194641023"><ele>229.66666666666669</ele><time>2026-04-27T15:41:59Z</time></trkpt><trkpt lat="30.462015204379714" lon="-8.874583215969805"><ele>229.33333333333331</ele><time>2026-04-27T15:42:00Z</time></trkpt><trkpt lat="30.461854535697977" lon="-8.874559174651397"><ele>229.0</ele><time>2026-04-27T15:42:01Z</time></trkpt><trkpt lat="30.46168332162817" lon="-8.874527030172507"><ele>229.0</ele><time>2026-04-27T15:42:02Z</time></trkpt><trkpt lat="30.461493746640542" lon="-8.874489289822437"><ele>229.0</ele><time>2026-04-27T15:42:03Z</time></trkpt><trkpt lat="30.46129602486346" lon="-8.874451270037067"><ele>229.0</ele><time>2026-04-27T15:42:04Z</time></trkpt><trkpt lat="30.46110422566763" lon="-8.874419557791104"><ele>229.33333333333331</ele><time>2026-04-27T15:42:05Z</time></trkpt><trkpt lat="30.46091788040634" lon="-8.874394885067327"><ele>229.66666666666669</ele><time>2026-04-27T15:42:06Z</time></trkpt><trkpt lat="30.460727594321273" lon="-8.87437617037162"><ele>230.0</ele><time>2026-04-27T15:42:07Z</time></trkpt><trkpt lat="30.460535838759085" lon="-8.874357325956312"><ele>229.66666666666669</ele><time>2026-04-27T15:42:08Z</time></trkpt><trkpt lat="30.46034753660129" lon="-8.874336927261396"><ele>229.33333333333331</ele><time>2026-04-27T15:42:09Z</time></trkpt><trkpt lat="30.460174664204466" lon="-8.874321767645066"><ele>229.0</ele><time>2026-04-27T15:42:10Z</time></trkpt><trkpt lat="30.460016283644933" lon="-8.874315651779739"><ele>229.0</ele><time>2026-04-27T15:42:11Z</time></trkpt><trkpt lat="30.45986478174707" lon="-8.8743270291385"><ele>229.0</ele><time>2026-04-27T15:42:12Z</time></trkpt><trkpt lat="30.459721541564946" lon="-8.874361401312727"><ele>229.0</ele><time>2026-04-27T15:42:13Z</time></trkpt><trkpt lat="30.459575147172202" lon="-8.87442744706018"><ele>228.33333333333331</ele><time>2026-04-27T15:42:14Z</time></trkpt><trkpt lat="30.459423514603248" lon="-8.874516532222161"><ele>227.66666666666669</ele><time>2026-04-27T15:42:15Z</time></trkpt><trkpt lat="30.459279085041786" lon="-8.874616845457979"><ele>227.0</ele><time>2026-04-27T15:42:16Z</time></trkpt><trkpt lat="30.459141515589646" lon="-8.874718687518557"><ele>227.0</ele><time>2026-04-27T15:42:17Z</time></trkpt><trkpt lat="30.45901130549754" lon="-8.874809550922285"><ele>227.0</ele><time>2026-04-27T15:42:18Z</time></trkpt><trkpt lat="30.458893123488394" lon="-8.874885766200315"><ele>227.0</ele><time>2026-04-27T15:42:19Z</time></trkpt><trkpt lat="30.45878227824834" lon="-8.874956243954465"><ele>227.0</ele><time>2026-04-27T15:42:20Z</time></trkpt><trkpt lat="30.4586580903419" lon="-8.875022461932051"><ele>226.75</ele><time>2026-04-27T15:42:21Z</time></trkpt><trkpt lat="30.458523268233332" lon="-8.875081761648525"><ele>226.5</ele><time>2026-04-27T15:42:22Z</time></trkpt><trkpt lat="30.458378995089888" lon="-8.875118458214889"><ele>226.25</ele><time>2026-04-27T15:42:23Z</time></trkpt><trkpt lat="30.45823073227704" lon="-8.875132663366765"><ele>226.0</ele><time>2026-04-27T15:42:24Z</time></trkpt><trkpt lat="30.4580781362982" lon="-8.875140790589263"><ele>226.33333333333331</ele><time>2026-04-27T15:42:25Z</time></trkpt><trkpt lat="30.457923392866142" lon="-8.875139263044655"><ele>226.66666666666669</ele><time>2026-04-27T15:42:26Z</time></trkpt><trkpt lat="30.45776964811797" lon="-8.87513896263742"><ele>227.0</ele><time>2026-04-27T15:42:27Z</time></trkpt><trkpt lat="30.457618866819953" lon="-8.875135092217805"><ele>227.0</ele><time>2026-04-27T15:42:28Z</time></trkpt><trkpt lat="30.45747139893489" lon="-8.875134504948395"><ele>227.0</ele><time>2026-04-27T15:42:29Z</time></trkpt><trkpt lat="30.45732440792915" lon="-8.875139406763328"><ele>227.0</ele><time>2026-04-27T15:42:30Z</time></trkpt><trkpt lat="30.457176575604134" lon="-8.875138730978493"><ele>227.0</ele><time>2026-04-27T15:42:31Z</time></trkpt><trkpt lat="30.45702794568702" lon="-8.875135597893644"><ele>227.0</ele><time>2026-04-27T15:42:32Z</time></trkpt><trkpt lat="30.456880501233368" lon="-8.87514042336254"><ele>227.0</ele><time>2026-04-27T15:42:33Z</time></trkpt><trkpt lat="30.456731192429388" lon="-8.8751492234181"><ele>227.0</ele><time>2026-04-27T15:42:34Z</time></trkpt><trkpt lat="30.45657907265208" lon="-8.875162459842167"><ele>227.0</ele><time>2026-04-27T15:42:35Z</time></trkpt><trkpt lat="30.456426490498067" lon="-8.875181800896273"><ele>227.0</ele><time>2026-04-27T15:42:36Z</time></trkpt><trkpt lat="30.45627226113196" lon="-8.875209776869706"><ele>227.0</ele><time>2026-04-27T15:42:37Z</time></trkpt><trkpt lat="30.456122725265814" lon="-8.875249109280821"><ele>227.25</ele><time>2026-04-27T15:42:38Z</time></trkpt><trkpt lat="30.455983174337895" lon="-8.875301240960365"><ele>227.5</ele><time>2026-04-27T15:42:39Z</time></trkpt><trkpt lat="30.455851682863386" lon="-8.875363720760355"><ele>227.75</ele><time>2026-04-27T15:42:40Z</time></trkpt><trkpt lat="30.455713566812104" lon="-8.875435665382794"><ele>228.0</ele><time>2026-04-27T15:42:41Z</time></trkpt><trkpt lat="30.45556729837344" lon="-8.875516203809337"><ele>226.66666666666669</ele><time>2026-04-27T15:42:42Z</time></trkpt><trkpt lat="30.455411535687873" lon="-8.875604849618087"><ele>225.33333333333334</ele><time>2026-04-27T15:42:43Z</time></trkpt><trkpt lat="30.45524888783805" lon="-8.87569848789683"><ele>224.0</ele><time>2026-04-27T15:42:44Z</time></trkpt><trkpt lat="30.455077385700186" lon="-8.875798206975995"><ele>224.0</ele><time>2026-04-27T15:42:45Z</time></trkpt><trkpt lat="30.454902807030557" lon="-8.875902668378211"><ele>224.0</ele><time>2026-04-27T15:42:46Z</time></trkpt><trkpt lat="30.454730543575295" lon="-8.87601434170118"><ele>224.0</ele><time>2026-04-27T15:42:47Z</time></trkpt><trkpt lat="30.45455562132643" lon="-8.87614400024567"><ele>224.0</ele><time>2026-04-27T15:42:48Z</time></trkpt><trkpt lat="30.454382156614287" lon="-8.876283578671863"><ele>224.0</ele><time>2026-04-27T15:42:49Z</time></trkpt><trkpt lat="30.454202672307055" lon="-8.876444673489239"><ele>224.0</ele><time>2026-04-27T15:42:50Z</time></trkpt><trkpt lat="30.45402684205227" lon="-8.876619330073495"><ele>224.5</ele><time>2026-04-27T15:42:51Z</time></trkpt><trkpt lat="30.45384915529922" lon="-8.876798308646372"><ele>225.0</ele><time>2026-04-27T15:42:52Z</time></trkpt><trkpt lat="30.453687264358564" lon="-8.876978602257282"><ele>223.66666666666669</ele><time>2026-04-27T15:42:53Z</time></trkpt><trkpt lat="30.453540485031386" lon="-8.877146258023231"><ele>222.33333333333334</ele><time>2026-04-27T15:42:54Z</time></trkpt><trkpt lat="30.453401289989767" lon="-8.877307392768579"><ele>221.0</ele><time>2026-04-27T15:42:55Z</time></trkpt><trkpt lat="30.453267818052666" lon="-8.877456762811233"><ele>221.0</ele><time>2026-04-27T15:42:56Z</time></trkpt><trkpt lat="30.453139331570206" lon="-8.877600530510156"><ele>221.0</ele><time>2026-04-27T15:42:57Z</time></trkpt><trkpt lat="30.453020990725943" lon="-8.877734790009216"><ele>221.0</ele><time>2026-04-27T15:42:58Z</time></trkpt><trkpt lat="30.45290616346561" lon="-8.87786546193455"><ele>220.33333333333334</ele><time>2026-04-27T15:42:59Z</time></trkpt><trkpt lat="30.452792646031583" lon="-8.877993258175987"><ele>219.66666666666669</ele><time>2026-04-27T15:43:00Z</time></trkpt><trkpt lat="30.45266415614357" lon="-8.878132852773744"><ele>219.0</ele><time>2026-04-27T15:43:01Z</time></trkpt><trkpt lat="30.45252900185153" lon="-8.878274295529069"><ele>219.0</ele><time>2026-04-27T15:43:02Z</time></trkpt><trkpt lat="30.452398183813738" lon="-8.878416269025346"><ele>219.0</ele><time>2026-04-27T15:43:03Z</time></trkpt><trkpt lat="30.452266013676784" lon="-8.878556929494776"><ele>219.0</ele><time>2026-04-27T15:43:04Z</time></trkpt><trkpt lat="30.452138810669855" lon="-8.878698996883053"><ele>218.66666666666669</ele><time>2026-04-27T15:43:05Z</time></trkpt><trkpt lat="30.45201681858713" lon="-8.878845973565484"><ele>218.33333333333334</ele><time>2026-04-27T15:43:06Z</time></trkpt><trkpt lat="30.451897716975182" lon="-8.87900577538138"><ele>218.0</ele><time>2026-04-27T15:43:07Z</time></trkpt><trkpt lat="30.451790494891693" lon="-8.879182041157689"><ele>218.0</ele><time>2026-04-27T15:43:08Z</time></trkpt><trkpt lat="30.451697286687775" lon="-8.879375872684756"><ele>218.0</ele><time>2026-04-27T15:43:09Z</time></trkpt><trkpt lat="30.451615532528024" lon="-8.879571848779781"><ele>218.0</ele><time>2026-04-27T15:43:10Z</time></trkpt><trkpt lat="30.45153210740287" lon="-8.87976828779535"><ele>218.0</ele><time>2026-04-27T15:43:11Z</time></trkpt><trkpt lat="30.451449752403015" lon="-8.879960877809118"><ele>218.0</ele><time>2026-04-27T15:43:12Z</time></trkpt><trkpt lat="30.451372557342985" lon="-8.880152165268"><ele>218.0</ele><time>2026-04-27T15:43:13Z</time></trkpt><trkpt lat="30.451293187427808" lon="-8.880348357073228"><ele>218.33333333333334</ele><time>2026-04-27T15:43:14Z</time></trkpt><trkpt lat="30.451211204281062" lon="-8.880544063094959"><ele>218.66666666666669</ele><time>2026-04-27T15:43:15Z</time></trkpt><trkpt lat="30.451129611363747" lon="-8.880736095154255"><ele>219.0</ele><time>2026-04-27T15:43:16Z</time></trkpt><trkpt lat="30.45104790837047" lon="-8.880924355156315"><ele>219.0</ele><time>2026-04-27T15:43:17Z</time></trkpt><trkpt lat="30.450966075199158" lon="-8.88111070541349"><ele>219.0</ele><time>2026-04-27T15:43:18Z</time></trkpt><trkpt lat="30.450882609535807" lon="-8.881301690521122"><ele>219.0</ele><time>2026-04-27T15:43:19Z</time></trkpt><trkpt lat="30.45079907577363" lon="-8.881493769237382"><ele>219.0</ele><time>2026-04-27T15:43:20Z</time></trkpt><trkpt lat="30.45071732732083" lon="-8.881691066737163"><ele>219.0</ele><time>2026-04-27T15:43:21Z</time></trkpt><trkpt lat="30.45063564180179" lon="-8.881892105104022"><ele>219.0</ele><time>2026-04-27T15:43:22Z</time></trkpt><trkpt lat="30.450541736597696" lon="-8.882110228197066"><ele>217.5</ele><time>2026-04-27T15:43:23Z</time></trkpt><trkpt lat="30.45044166975505" lon="-8.882348806831393"><ele>216.0</ele><time>2026-04-27T15:43:24Z</time></trkpt><trkpt lat="30.450338185087382" lon="-8.882600747581114"><ele>215.0</ele><time>2026-04-27T15:43:25Z</time></trkpt><trkpt lat="30.45023418365855" lon="-8.882859768431132"><ele>214.0</ele><time>2026-04-27T15:43:26Z</time></trkpt><trkpt lat="30.45013818308564" lon="-8.883098105889655"><ele>214.0</ele><time>2026-04-27T15:43:27Z</time></trkpt><trkpt lat="30.450048390992535" lon="-8.883317134814064"><ele>214.0</ele><time>2026-04-27T15:43:28Z</time></trkpt><trkpt lat="30.449962451845867" lon="-8.883525662690081"><ele>214.0</ele><time>2026-04-27T15:43:29Z</time></trkpt><trkpt lat="30.449879901113526" lon="-8.883722840626286"><ele>214.0</ele><time>2026-04-27T15:43:30Z</time></trkpt><trkpt lat="30.449804978701327" lon="-8.883905535775995"><ele>214.0</ele><time>2026-04-27T15:43:31Z</time></trkpt><trkpt lat="30.449733265534615" lon="-8.884080105415945"><ele>214.0</ele><time>2026-04-27T15:43:32Z</time></trkpt><trkpt lat="30.44966412799873" lon="-8.884244893198757"><ele>214.0</ele><time>2026-04-27T15:43:33Z</time></trkpt><trkpt lat="30.449600137463666" lon="-8.884402835993521"><ele>214.0</ele><time>2026-04-27T15:43:34Z</time></trkpt><trkpt lat="30.449536965939295" lon="-8.884553493494476"><ele>214.0</ele><time>2026-04-27T15:43:35Z</time></trkpt><trkpt lat="30.449470044507486" lon="-8.884709136868787"><ele>214.0</ele><time>2026-04-27T15:43:36Z</time></trkpt><trkpt lat="30.44939630705737" lon="-8.88487830350326"><ele>214.0</ele><time>2026-04-27T15:43:37Z</time></trkpt><trkpt lat="30.449323987526423" lon="-8.885046594774009"><ele>214.0</ele><time>2026-04-27T15:43:38Z</time></trkpt><trkpt lat="30.44924491303754" lon="-8.885218096565797"><ele>214.0</ele><time>2026-04-27T15:43:39Z</time></trkpt><trkpt lat="30.4491692253467" lon="-8.885399552450778"><ele>214.33333333333331</ele><time>2026-04-27T15:43:40Z</time></trkpt><trkpt lat="30.449095382596497" lon="-8.885577392454401"><ele>214.66666666666669</ele><time>2026-04-27T15:43:41Z</time></trkpt><trkpt lat="30.449019640117406" lon="-8.885753479020531"><ele>215.0</ele><time>2026-04-27T15:43:42Z</time></trkpt><trkpt lat="30.448942350338708" lon="-8.885928678127236"><ele>215.33333333333334</ele><time>2026-04-27T15:43:43Z</time></trkpt><trkpt lat="30.448868728686588" lon="-8.88610847553132"><ele>215.66666666666669</ele><time>2026-04-27T15:43:44Z</time></trkpt><trkpt lat="30.448789413747942" lon="-8.886298992213623"><ele>216.0</ele><time>2026-04-27T15:43:45Z</time></trkpt><trkpt lat="30.44870041996466" lon="-8.886503014734375"><ele>215.33333333333331</ele><time>2026-04-27T15:43:46Z</time></trkpt><trkpt lat="30.44860391008496" lon="-8.886728130972784"><ele>214.66666666666666</ele><time>2026-04-27T15:43:47Z</time></trkpt><trkpt lat="30.44850351544544" lon="-8.886960374780816"><ele>214.0</ele><time>2026-04-27T15:43:48Z</time></trkpt><trkpt lat="30.44839926762915" lon="-8.887202813338261"><ele>214.0</ele><time>2026-04-27T15:43:49Z</time></trkpt><trkpt lat="30.44829431337011" lon="-8.88745103936809"><ele>214.0</ele><time>2026-04-27T15:43:50Z</time></trkpt><trkpt lat="30.44819187872061" lon="-8.887697594314357"><ele>214.5</ele><time>2026-04-27T15:43:51Z</time></trkpt><trkpt lat="30.44808640462265" lon="-8.887935743408358"><ele>215.0</ele><time>2026-04-27T15:43:52Z</time></trkpt><trkpt lat="30.447982291942388" lon="-8.8881739706395"><ele>214.66666666666669</ele><time>2026-04-27T15:43:53Z</time></trkpt><trkpt lat="30.447883775977637" lon="-8.888406400563625"><ele>214.33333333333331</ele><time>2026-04-27T15:43:54Z</time></trkpt><trkpt lat="30.447793925511036" lon="-8.888627380460441"><ele>214.0</ele><time>2026-04-27T15:43:55Z</time></trkpt><trkpt lat="30.44770911245976" lon="-8.888833137014675"><ele>214.0</ele><time>2026-04-27T15:43:56Z</time></trkpt><trkpt lat="30.44762234280418" lon="-8.889034948678328"><ele>214.0</ele><time>2026-04-27T15:43:57Z</time></trkpt><trkpt lat="30.44753148829759" lon="-8.889247160801794"><ele>214.0</ele><time>2026-04-27T15:43:58Z</time></trkpt><trkpt lat="30.44744307704071" lon="-8.889466106850671"><ele>213.66666666666666</ele><time>2026-04-27T15:43:59Z</time></trkpt><trkpt lat="30.447352331986973" lon="-8.889684425597766"><ele>213.33333333333331</ele><time>2026-04-27T15:44:00Z</time></trkpt><trkpt lat="30.447256873941164" lon="-8.88990409656479"><ele>213.0</ele><time>2026-04-27T15:44:01Z</time></trkpt><trkpt lat="30.447155445502496" lon="-8.890137753810878"><ele>212.5</ele><time>2026-04-27T15:44:02Z</time></trkpt><trkpt lat="30.447048284281504" lon="-8.890393656248515"><ele>212.0</ele><time>2026-04-27T15:44:03Z</time></trkpt><trkpt lat="30.446948899437125" lon="-8.890637267698466"><ele>212.0</ele><time>2026-04-27T15:44:04Z</time></trkpt><trkpt lat="30.446858201478783" lon="-8.890855586085596"><ele>212.0</ele><time>2026-04-27T15:44:05Z</time></trkpt><trkpt lat="30.446773883004376" lon="-8.891061181019596"><ele>212.0</ele><time>2026-04-27T15:44:06Z</time></trkpt><trkpt lat="30.446693992274422" lon="-8.891254411487676"><ele>212.0</ele><time>2026-04-27T15:44:07Z</time></trkpt><trkpt lat="30.44661848507586" lon="-8.891440878201323"><ele>212.0</ele><time>2026-04-27T15:44:08Z</time></trkpt><trkpt lat="30.44654650288362" lon="-8.891613689591289"><ele>212.0</ele><time>2026-04-27T15:44:09Z</time></trkpt><trkpt lat="30.4464755506233" lon="-8.891780823374047"><ele>212.33333333333334</ele><time>2026-04-27T15:44:10Z</time></trkpt><trkpt lat="30.446399895088664" lon="-8.891953372132397"><ele>212.66666666666669</ele><time>2026-04-27T15:44:11Z</time></trkpt><trkpt lat="30.4463172942013" lon="-8.892142243349536"><ele>213.0</ele><time>2026-04-27T15:44:12Z</time></trkpt><trkpt lat="30.446230253442824" lon="-8.89234748822582"><ele>212.33333333333331</ele><time>2026-04-27T15:44:13Z</time></trkpt><trkpt lat="30.44613762531486" lon="-8.892562716587058"><ele>211.66666666666666</ele><time>2026-04-27T15:44:14Z</time></trkpt><trkpt lat="30.446045063003154" lon="-8.89278693838558"><ele>211.0</ele><time>2026-04-27T15:44:15Z</time></trkpt><trkpt lat="30.445954825321106" lon="-8.893007867656364"><ele>211.0</ele><time>2026-04-27T15:44:16Z</time></trkpt><trkpt lat="30.445869831102186" lon="-8.893216728268317"><ele>211.0</ele><time>2026-04-27T15:44:17Z</time></trkpt><trkpt lat="30.445785810270134" lon="-8.893414418476132"><ele>211.0</ele><time>2026-04-27T15:44:18Z</time></trkpt><trkpt lat="30.445702051420476" lon="-8.893598482752518"><ele>211.33333333333331</ele><time>2026-04-27T15:44:19Z</time></trkpt><trkpt lat="30.445608713139755" lon="-8.893770583387852"><ele>211.66666666666669</ele><time>2026-04-27T15:44:20Z</time></trkpt><trkpt lat="30.445503950403502" lon="-8.893937052639636"><ele>212.0</ele><time>2026-04-27T15:44:21Z</time></trkpt><trkpt lat="30.445385201858322" lon="-8.894097655865203"><ele>211.66666666666669</ele><time>2026-04-27T15:44:22Z</time></trkpt><trkpt lat="30.44525099548918" lon="-8.894257135220759"><ele>211.33333333333331</ele><time>2026-04-27T15:44:23Z</time></trkpt><trkpt lat="30.445101347589386" lon="-8.89443129900465"><ele>211.0</ele><time>2026-04-27T15:44:24Z</time></trkpt><trkpt lat="30.44494839244369" lon="-8.894608661090587"><ele>211.0</ele><time>2026-04-27T15:44:25Z</time></trkpt><trkpt lat="30.44479908650297" lon="-8.89478406714181"><ele>211.0</ele><time>2026-04-27T15:44:26Z</time></trkpt><trkpt lat="30.444645450528938" lon="-8.894963236464829"><ele>211.0</ele><time>2026-04-27T15:44:27Z</time></trkpt><trkpt lat="30.44449308619236" lon="-8.895146137934455"><ele>211.0</ele><time>2026-04-27T15:44:28Z</time></trkpt><trkpt lat="30.444344129464444" lon="-8.895327803013656"><ele>211.0</ele><time>2026-04-27T15:44:29Z</time></trkpt><trkpt lat="30.444195164537884" lon="-8.895506377801498"><ele>211.0</ele><time>2026-04-27T15:44:30Z</time></trkpt><trkpt lat="30.444040493621713" lon="-8.8956910012814"><ele>211.0</ele><time>2026-04-27T15:44:31Z</time></trkpt><trkpt lat="30.443879668588416" lon="-8.89588299475438"><ele>211.0</ele><time>2026-04-27T15:44:32Z</time></trkpt><trkpt lat="30.44373348073869" lon="-8.896054002160815"><ele>211.0</ele><time>2026-04-27T15:44:33Z</time></trkpt><trkpt lat="30.443597305654002" lon="-8.896212565658805"><ele>210.66666666666666</ele><time>2026-04-27T15:44:34Z</time></trkpt><trkpt lat="30.443470530846028" lon="-8.896361082637519"><ele>210.33333333333331</ele><time>2026-04-27T15:44:35Z</time></trkpt><trkpt lat="30.443354650588898" lon="-8.89650290826615"><ele>210.0</ele><time>2026-04-27T15:44:36Z</time></trkpt><trkpt lat="30.44324297352689" lon="-8.896637678284183"><ele>209.5</ele><time>2026-04-27T15:44:37Z</time></trkpt><trkpt lat="30.443138801751807" lon="-8.8967562860233"><ele>209.0</ele><time>2026-04-27T15:44:38Z</time></trkpt><trkpt lat="30.44303750142035" lon="-8.896868639837166"><ele>208.5</ele><time>2026-04-27T15:44:39Z</time></trkpt><trkpt lat="30.442942248441586" lon="-8.896974577436035"><ele>208.0</ele><time>2026-04-27T15:44:40Z</time></trkpt><trkpt lat="30.442850620342497" lon="-8.897070877066472"><ele>208.0</ele><time>2026-04-27T15:44:41Z</time></trkpt><trkpt lat="30.4427538419903" lon="-8.897162895024245"><ele>208.0</ele><time>2026-04-27T15:44:42Z</time></trkpt><trkpt lat="30.4426422828269" lon="-8.897246221270533"><ele>208.0</ele><time>2026-04-27T15:44:43Z</time></trkpt><trkpt lat="30.442526206701746" lon="-8.89731743122113"><ele>208.0</ele><time>2026-04-27T15:44:44Z</time></trkpt><trkpt lat="30.442398940686832" lon="-8.897372696695777"><ele>208.0</ele><time>2026-04-27T15:44:45Z</time></trkpt><trkpt lat="30.442269230285294" lon="-8.897409922260028"><ele>208.0</ele><time>2026-04-27T15:44:46Z</time></trkpt><trkpt lat="30.442137151483443" lon="-8.8974300230346"><ele>208.0</ele><time>2026-04-27T15:44:47Z</time></trkpt><trkpt lat="30.4420013381737" lon="-8.897442905521412"><ele>208.0</ele><time>2026-04-27T15:44:48Z</time></trkpt><trkpt lat="30.44185183561184" lon="-8.897439924275542"><ele>207.66666666666666</ele><time>2026-04-27T15:44:49Z</time></trkpt><trkpt lat="30.441683974744926" lon="-8.897433491089023"><ele>207.33333333333331</ele><time>2026-04-27T15:44:50Z</time></trkpt><trkpt lat="30.441502782998313" lon="-8.897420586640427"><ele>207.0</ele><time>2026-04-27T15:44:51Z</time></trkpt><trkpt lat="30.441310723549588" lon="-8.897428163699056"><ele>206.0</ele><time>2026-04-27T15:44:52Z</time></trkpt><trkpt lat="30.441115010786422" lon="-8.897387863240754"><ele>205.0</ele><time>2026-04-27T15:44:53Z</time></trkpt><trkpt lat="30.44090171293396" lon="-8.897362013149696"><ele>204.0</ele><time>2026-04-27T15:44:54Z</time></trkpt><trkpt lat="30.440680801950247" lon="-8.897331010827461"><ele>205.0</ele><time>2026-04-27T15:44:55Z</time></trkpt><trkpt lat="30.44044690177809" lon="-8.897316161913423"><ele>206.0</ele><time>2026-04-27T15:44:56Z</time></trkpt><trkpt lat="30.440210395426107" lon="-8.897268587416491"><ele>206.0</ele><time>2026-04-27T15:44:57Z</time></trkpt><trkpt lat="30.43997307041763" lon="-8.897240683663702"><ele>206.0</ele><time>2026-04-27T15:44:58Z</time></trkpt><trkpt lat="30.43973521910553" lon="-8.897211521956583"><ele>205.5</ele><time>2026-04-27T15:44:59Z</time></trkpt><trkpt lat="30.439495485396417" lon="-8.897179188151188"><ele>205.0</ele><time>2026-04-27T15:45:00Z</time></trkpt><trkpt lat="30.439255698199418" lon="-8.897146466199045"><ele>205.0</ele><time>2026-04-27T15:45:01Z</time></trkpt><trkpt lat="30.439013198593408" lon="-8.897112411691912"><ele>205.0</ele><time>2026-04-27T15:45:02Z</time></trkpt><trkpt lat="30.438770169972237" lon="-8.897079374572398"><ele>205.0</ele><time>2026-04-27T15:45:03Z</time></trkpt><trkpt lat="30.438527818076263" lon="-8.897047729065815"><ele>205.0</ele><time>2026-04-27T15:45:04Z</time></trkpt><trkpt lat="30.438301594668744" lon="-8.897022881779355"><ele>205.0</ele><time>2026-04-27T15:45:05Z</time></trkpt><trkpt lat="30.438087407403128" lon="-8.896993828960278"><ele>205.0</ele><time>2026-04-27T15:45:06Z</time></trkpt><trkpt lat="30.437889022232675" lon="-8.896968869027669"><ele>205.0</ele><time>2026-04-27T15:45:07Z</time></trkpt><trkpt lat="30.437697689799975" lon="-8.896941849870132"><ele>205.33333333333331</ele><time>2026-04-27T15:45:08Z</time></trkpt><trkpt lat="30.437520672140817" lon="-8.896914653059666"><ele>205.66666666666669</ele><time>2026-04-27T15:45:09Z</time></trkpt><trkpt lat="30.437354864231295" lon="-8.89691069097757"><ele>206.0</ele><time>2026-04-27T15:45:10Z</time></trkpt><trkpt lat="30.437184104519915" lon="-8.89688883898664"><ele>205.66666666666669</ele><time>2026-04-27T15:45:11Z</time></trkpt><trkpt lat="30.437013994737903" lon="-8.896867070194201"><ele>205.33333333333331</ele><time>2026-04-27T15:45:12Z</time></trkpt><trkpt lat="30.436857138473552" lon="-8.896846964249608"><ele>205.0</ele><time>2026-04-27T15:45:13Z</time></trkpt><trkpt lat="30.436710759304802" lon="-8.896828013814586"><ele>205.0</ele><time>2026-04-27T15:45:14Z</time></trkpt><trkpt lat="30.436567056026988" lon="-8.896809409765902"><ele>205.0</ele><time>2026-04-27T15:45:15Z</time></trkpt><trkpt lat="30.436416176522275" lon="-8.896789876709832"><ele>205.0</ele><time>2026-04-27T15:45:16Z</time></trkpt><trkpt lat="30.436253780124275" lon="-8.896768852652539"><ele>205.33333333333331</ele><time>2026-04-27T15:45:17Z</time></trkpt><trkpt lat="30.43608681792514" lon="-8.896747237488514"><ele>205.66666666666669</ele><time>2026-04-27T15:45:18Z</time></trkpt><trkpt lat="30.4359090007802" lon="-8.89672421702222"><ele>206.0</ele><time>2026-04-27T15:45:19Z</time></trkpt><trkpt lat="30.43571962212326" lon="-8.896699699809023"><ele>206.0</ele><time>2026-04-27T15:45:20Z</time></trkpt><trkpt lat="30.435524805596046" lon="-8.896674721991253"><ele>206.0</ele><time>2026-04-27T15:45:21Z</time></trkpt><trkpt lat="30.43532898954561" lon="-8.896649762875546"><ele>206.0</ele><time>2026-04-27T15:45:22Z</time></trkpt><trkpt lat="30.435133927315068" lon="-8.896623638693127"><ele>206.0</ele><time>2026-04-27T15:45:23Z</time></trkpt><trkpt lat="30.43494785388186" lon="-8.89660051604097"><ele>206.0</ele><time>2026-04-27T15:45:24Z</time></trkpt><trkpt lat="30.43477837841278" lon="-8.896579234722392"><ele>206.0</ele><time>2026-04-27T15:45:25Z</time></trkpt><trkpt lat="30.43463313923548" lon="-8.896560996775312"><ele>206.0</ele><time>2026-04-27T15:45:26Z</time></trkpt><trkpt lat="30.434512660654338" lon="-8.896546138708517"><ele>206.0</ele><time>2026-04-27T15:45:27Z</time></trkpt><trkpt lat="30.43440045046985" lon="-8.896514871436224"><ele>206.0</ele><time>2026-04-27T15:45:28Z</time></trkpt><trkpt lat="30.434306005351132" lon="-8.896505941921147"><ele>206.0</ele><time>2026-04-27T15:45:29Z</time></trkpt><trkpt lat="30.4342288510573" lon="-8.896494729990367"><ele>206.0</ele><time>2026-04-27T15:45:30Z</time></trkpt><trkpt lat="30.43409818279968" lon="-8.8964824202225"><ele>206.0</ele><time>2026-04-27T15:45:32Z</time></trkpt><trkpt lat="30.434013087568786" lon="-8.89647475358714"><ele>206.0</ele><time>2026-04-27T15:45:33Z</time></trkpt><trkpt lat="30.433920101812856" lon="-8.896465778820943"><ele>206.0</ele><time>2026-04-27T15:45:34Z</time></trkpt><trkpt lat="30.43382309536398" lon="-8.896458508144132"><ele>206.0</ele><time>2026-04-27T15:45:35Z</time></trkpt><trkpt lat="30.43372041864421" lon="-8.896455673130362"><ele>206.0</ele><time>2026-04-27T15:45:36Z</time></trkpt><trkpt lat="30.433610159326545" lon="-8.896446857027563"><ele>205.5</ele><time>2026-04-27T15:45:37Z</time></trkpt><trkpt lat="30.4334941955331" lon="-8.896430381787694"><ele>205.0</ele><time>2026-04-27T15:45:38Z</time></trkpt><trkpt lat="30.43335771078323" lon="-8.896412890520347"><ele>204.5</ele><time>2026-04-27T15:45:39Z</time></trkpt><trkpt lat="30.433202686803085" lon="-8.896391727770405"><ele>204.0</ele><time>2026-04-27T15:45:40Z</time></trkpt><trkpt lat="30.433050103506655" lon="-8.896372256676617"><ele>204.33333333333331</ele><time>2026-04-27T15:45:41Z</time></trkpt><trkpt lat="30.432887529266328" lon="-8.896349641301713"><ele>204.66666666666666</ele><time>2026-04-27T15:45:42Z</time></trkpt><trkpt lat="30.432708764066227" lon="-8.89632784937571"><ele>205.0</ele><time>2026-04-27T15:45:43Z</time></trkpt><trkpt lat="30.432521460640825" lon="-8.8963036576757"><ele>205.0</ele><time>2026-04-27T15:45:44Z</time></trkpt><trkpt lat="30.432331680037127" lon="-8.896277070229099"><ele>205.0</ele><time>2026-04-27T15:45:45Z</time></trkpt><trkpt lat="30.43216509766378" lon="-8.896256273698524"><ele>205.0</ele><time>2026-04-27T15:45:46Z</time></trkpt><trkpt lat="30.432010765347965" lon="-8.896236705684244"><ele>204.75</ele><time>2026-04-27T15:45:47Z</time></trkpt><trkpt lat="30.431867024965406" lon="-8.896216735213098"><ele>204.5</ele><time>2026-04-27T15:45:48Z</time></trkpt><trkpt lat="30.431723921665707" lon="-8.896198980872308"><ele>204.25</ele><time>2026-04-27T15:45:49Z</time></trkpt><trkpt lat="30.431582810210223" lon="-8.896180568411195"><ele>204.0</ele><time>2026-04-27T15:45:50Z</time></trkpt><trkpt lat="30.431448886870783" lon="-8.896163393079767"><ele>204.0</ele><time>2026-04-27T15:45:51Z</time></trkpt><trkpt lat="30.431324523166865" lon="-8.896146131952818"><ele>204.0</ele><time>2026-04-27T15:45:52Z</time></trkpt><trkpt lat="30.43121060341679" lon="-8.89613390102356"><ele>204.0</ele><time>2026-04-27T15:45:53Z</time></trkpt><trkpt lat="30.43110029826048" lon="-8.896118629582102"><ele>204.0</ele><time>2026-04-27T15:45:54Z</time></trkpt><trkpt lat="30.430993359449914" lon="-8.89610621498886"><ele>205.39999999999998</ele><time>2026-04-27T15:45:55Z</time></trkpt><trkpt lat="30.43088121719614" lon="-8.896088963769266"><ele>206.8</ele><time>2026-04-27T15:45:56Z</time></trkpt><trkpt lat="30.430776261610628" lon="-8.896074607254965"><ele>208.2</ele><time>2026-04-27T15:45:57Z</time></trkpt><trkpt lat="30.43068360819819" lon="-8.89606281405709"><ele>209.60000000000002</ele><time>2026-04-27T15:45:58Z</time></trkpt><trkpt lat="30.43059773955719" lon="-8.896053779585305"><ele>211.0</ele><time>2026-04-27T15:45:59Z</time></trkpt><trkpt lat="30.430519378739746" lon="-8.89604590626368"><ele>211.16666666666666</ele><time>2026-04-27T15:46:00Z</time></trkpt><trkpt lat="30.43044312064591" lon="-8.89604187514656"><ele>211.33333333333331</ele><time>2026-04-27T15:46:01Z</time></trkpt><trkpt lat="30.430373857265185" lon="-8.89603135023731"><ele>211.5</ele><time>2026-04-27T15:46:02Z</time></trkpt><trkpt lat="30.430301891134626" lon="-8.896027085051701"><ele>211.66666666666669</ele><time>2026-04-27T15:46:03Z</time></trkpt><trkpt lat="30.430219961088543" lon="-8.896022465312642"><ele>211.83333333333334</ele><time>2026-04-27T15:46:04Z</time></trkpt><trkpt lat="30.430130453182365" lon="-8.89602710399264"><ele>212.0</ele><time>2026-04-27T15:46:05Z</time></trkpt><trkpt lat="30.430039030383053" lon="-8.896037527171707"><ele>212.0</ele><time>2026-04-27T15:46:06Z</time></trkpt><trkpt lat="30.42995023737023" lon="-8.896060558161679"><ele>212.0</ele><time>2026-04-27T15:46:07Z</time></trkpt><trkpt lat="30.42986171153975" lon="-8.896085961429186"><ele>212.0</ele><time>2026-04-27T15:46:08Z</time></trkpt><trkpt lat="30.429776647930037" lon="-8.896120496420412"><ele>212.0</ele><time>2026-04-27T15:46:09Z</time></trkpt><trkpt lat="30.429691608044553" lon="-8.896157581792643"><ele>212.0</ele><time>2026-04-27T15:46:10Z</time></trkpt><trkpt lat="30.429608977771895" lon="-8.896209735125023"><ele>212.16666666666669</ele><time>2026-04-27T15:46:11Z</time></trkpt><trkpt lat="30.429540967334827" lon="-8.896261269851786"><ele>212.33333333333334</ele><time>2026-04-27T15:46:12Z</time></trkpt><trkpt lat="30.4294762443092" lon="-8.896306361418562"><ele>212.5</ele><time>2026-04-27T15:46:13Z</time></trkpt><trkpt lat="30.42940932363482" lon="-8.896351047323261"><ele>212.66666666666669</ele><time>2026-04-27T15:46:14Z</time></trkpt><trkpt lat="30.42934173980844" lon="-8.896371515493971"><ele>212.83333333333334</ele><time>2026-04-27T15:46:15Z</time></trkpt><trkpt lat="30.429249696070894" lon="-8.896426343783313"><ele>213.0</ele><time>2026-04-27T15:46:17Z</time></trkpt><trkpt lat="30.429170651503693" lon="-8.896477726397144"><ele>213.0</ele><time>2026-04-27T15:46:19Z</time></trkpt><trkpt lat="30.429094389849013" lon="-8.896527608889668"><ele>213.0</ele><time>2026-04-27T15:46:21Z</time></trkpt><trkpt lat="30.429011414107855" lon="-8.89659217525853"><ele>213.0</ele><time>2026-04-27T15:46:23Z</time></trkpt><trkpt lat="30.42892033049043" lon="-8.8966862821749"><ele>213.0</ele><time>2026-04-27T15:46:25Z</time></trkpt><trkpt lat="30.42888085963442" lon="-8.896765125757625"><ele>213.0</ele><time>2026-04-27T15:46:26Z</time></trkpt><trkpt lat="30.428884385019547" lon="-8.896852065535802"><ele>213.0</ele><time>2026-04-27T15:46:27Z</time></trkpt><trkpt lat="30.428768591066895" lon="-8.896918299180077"><ele>213.0</ele><time>2026-04-27T15:46:29Z</time></trkpt><trkpt lat="30.428699107015223" lon="-8.896936914236619"><ele>213.0</ele><time>2026-04-27T15:46:30Z</time></trkpt><trkpt lat="30.428625389656407" lon="-8.896939019775223"><ele>213.0</ele><time>2026-04-27T15:46:31Z</time></trkpt><trkpt lat="30.42854529076781" lon="-8.896930947765291"><ele>213.0</ele><time>2026-04-27T15:46:32Z</time></trkpt><trkpt lat="30.428461907425962" lon="-8.89693381631839"><ele>213.0</ele><time>2026-04-27T15:46:33Z</time></trkpt><trkpt lat="30.42836383447282" lon="-8.896943146276024"><ele>213.0</ele><time>2026-04-27T15:46:34Z</time></trkpt><trkpt lat="30.42826649189034" lon="-8.896957918696277"><ele>213.0</ele><time>2026-04-27T15:46:35Z</time></trkpt><trkpt lat="30.428159831880535" lon="-8.8969857906804"><ele>213.0</ele><time>2026-04-27T15:46:36Z</time></trkpt><trkpt lat="30.428041101014465" lon="-8.897026562178192"><ele>213.0</ele><time>2026-04-27T15:46:37Z</time></trkpt><trkpt lat="30.42792708068491" lon="-8.897066832396794"><ele>212.60000000000002</ele><time>2026-04-27T15:46:38Z</time></trkpt><trkpt lat="30.42783033380285" lon="-8.897103972323642"><ele>212.20000000000002</ele><time>2026-04-27T15:46:39Z</time></trkpt><trkpt lat="30.427745809417093" lon="-8.897129414541599"><ele>211.8</ele><time>2026-04-27T15:46:40Z</time></trkpt><trkpt lat="30.427668818811117" lon="-8.89715561341108"><ele>211.4</ele><time>2026-04-27T15:46:41Z</time></trkpt><trkpt lat="30.427584363950082" lon="-8.89718818859544"><ele>211.0</ele><time>2026-04-27T15:46:42Z</time></trkpt><trkpt lat="30.427482643315685" lon="-8.897233427736726"><ele>211.0</ele><time>2026-04-27T15:46:43Z</time></trkpt><trkpt lat="30.427379397019042" lon="-8.897281543368425"><ele>211.0</ele><time>2026-04-27T15:46:44Z</time></trkpt><trkpt lat="30.42727259537848" lon="-8.897331676227443"><ele>211.0</ele><time>2026-04-27T15:46:45Z</time></trkpt><trkpt lat="30.42715930016771" lon="-8.89738230553252"><ele>211.0</ele><time>2026-04-27T15:46:46Z</time></trkpt><trkpt lat="30.42703139909531" lon="-8.897438292889353"><ele>211.33333333333331</ele><time>2026-04-27T15:46:47Z</time></trkpt><trkpt lat="30.42688461684302" lon="-8.897497298666325"><ele>211.66666666666669</ele><time>2026-04-27T15:46:48Z</time></trkpt><trkpt lat="30.42673542979654" lon="-8.897560615657067"><ele>212.0</ele><time>2026-04-27T15:46:49Z</time></trkpt><trkpt lat="30.426577541424198" lon="-8.897626429797977"><ele>212.0</ele><time>2026-04-27T15:46:50Z</time></trkpt><trkpt lat="30.426415094002497" lon="-8.89769631027091"><ele>212.0</ele><time>2026-04-27T15:46:51Z</time></trkpt><trkpt lat="30.426239247866317" lon="-8.897772560858181"><ele>212.0</ele><time>2026-04-27T15:46:52Z</time></trkpt><trkpt lat="30.42604996502727" lon="-8.897858501555199"><ele>211.0</ele><time>2026-04-27T15:46:53Z</time></trkpt><trkpt lat="30.425836775243088" lon="-8.897955140110684"><ele>210.0</ele><time>2026-04-27T15:46:54Z</time></trkpt><trkpt lat="30.42562086982737" lon="-8.898054683078822"><ele>211.5</ele><time>2026-04-27T15:46:55Z</time></trkpt><trkpt lat="30.425405109217643" lon="-8.898158401307438"><ele>213.0</ele><time>2026-04-27T15:46:56Z</time></trkpt><trkpt lat="30.425173636847273" lon="-8.89826584509018"><ele>213.0</ele><time>2026-04-27T15:46:57Z</time></trkpt><trkpt lat="30.4249377387503" lon="-8.898375188335057"><ele>213.0</ele><time>2026-04-27T15:46:58Z</time></trkpt><trkpt lat="30.424713555646886" lon="-8.898479672164513"><ele>212.5</ele><time>2026-04-27T15:46:59Z</time></trkpt><trkpt lat="30.42449662969197" lon="-8.898575291656382"><ele>212.0</ele><time>2026-04-27T15:47:00Z</time></trkpt><trkpt lat="30.42428468269127" lon="-8.898672584289653"><ele>212.0</ele><time>2026-04-27T15:47:01Z</time></trkpt><trkpt lat="30.42408632971427" lon="-8.898763644420145"><ele>212.0</ele><time>2026-04-27T15:47:02Z</time></trkpt><trkpt lat="30.423894944212446" lon="-8.898847227675642"><ele>212.0</ele><time>2026-04-27T15:47:03Z</time></trkpt><trkpt lat="30.423701852428533" lon="-8.89893042434256"><ele>212.33333333333334</ele><time>2026-04-27T15:47:04Z</time></trkpt><trkpt lat="30.423504140101432" lon="-8.899019246108995"><ele>212.66666666666669</ele><time>2026-04-27T15:47:05Z</time></trkpt><trkpt lat="30.423307852685117" lon="-8.899111887203977"><ele>213.0</ele><time>2026-04-27T15:47:06Z</time></trkpt><trkpt lat="30.42311328947871" lon="-8.899198864122368"><ele>213.0</ele><time>2026-04-27T15:47:07Z</time></trkpt><trkpt lat="30.422924230760177" lon="-8.899278416339909"><ele>213.0</ele><time>2026-04-27T15:47:08Z</time></trkpt><trkpt lat="30.422743127467214" lon="-8.899353158269731"><ele>213.0</ele><time>2026-04-27T15:47:09Z</time></trkpt><trkpt lat="30.42257264232223" lon="-8.899427864057259"><ele>213.0</ele><time>2026-04-27T15:47:10Z</time></trkpt><trkpt lat="30.422401899623676" lon="-8.89950292740232"><ele>213.0</ele><time>2026-04-27T15:47:11Z</time></trkpt><trkpt lat="30.422236087253665" lon="-8.899577908469618"><ele>213.0</ele><time>2026-04-27T15:47:12Z</time></trkpt><trkpt lat="30.42208267644605" lon="-8.899648943909575"><ele>213.0</ele><time>2026-04-27T15:47:13Z</time></trkpt><trkpt lat="30.421941784141833" lon="-8.899712477499458"><ele>213.0</ele><time>2026-04-27T15:47:14Z</time></trkpt><trkpt lat="30.42180583683143" lon="-8.899771228967667"><ele>213.0</ele><time>2026-04-27T15:47:15Z</time></trkpt><trkpt lat="30.42166596430904" lon="-8.899830205586023"><ele>213.0</ele><time>2026-04-27T15:47:16Z</time></trkpt><trkpt lat="30.421523396098916" lon="-8.89989489415592"><ele>213.0</ele><time>2026-04-27T15:47:17Z</time></trkpt><trkpt lat="30.42137254441467" lon="-8.899963681979017"><ele>213.0</ele><time>2026-04-27T15:47:18Z</time></trkpt><trkpt lat="30.421215468620268" lon="-8.900032483642049"><ele>213.0</ele><time>2026-04-27T15:47:19Z</time></trkpt><trkpt lat="30.421049440062305" lon="-8.900103565722896"><ele>213.0</ele><time>2026-04-27T15:47:20Z</time></trkpt><trkpt lat="30.420884423597837" lon="-8.90017738478812"><ele>213.0</ele><time>2026-04-27T15:47:21Z</time></trkpt><trkpt lat="30.420721316871205" lon="-8.900244422211905"><ele>213.0</ele><time>2026-04-27T15:47:22Z</time></trkpt><trkpt lat="30.420555992344195" lon="-8.90030883597945"><ele>212.66666666666669</ele><time>2026-04-27T15:47:23Z</time></trkpt><trkpt lat="30.420394168382906" lon="-8.900376217729267"><ele>212.33333333333334</ele><time>2026-04-27T15:47:24Z</time></trkpt><trkpt lat="30.420236256148232" lon="-8.900442460640914"><ele>212.0</ele><time>2026-04-27T15:47:25Z</time></trkpt><trkpt lat="30.420085594854992" lon="-8.9005107926628"><ele>212.0</ele><time>2026-04-27T15:47:26Z</time></trkpt><trkpt lat="30.419939204212067" lon="-8.900580840222439"><ele>212.0</ele><time>2026-04-27T15:47:27Z</time></trkpt><trkpt lat="30.41978722884747" lon="-8.900651185479099"><ele>212.0</ele><time>2026-04-27T15:47:28Z</time></trkpt><trkpt lat="30.419636188952342" lon="-8.900720400556946"><ele>212.0</ele><time>2026-04-27T15:47:29Z</time></trkpt><trkpt lat="30.419479055221107" lon="-8.900791568271678"><ele>212.0</ele><time>2026-04-27T15:47:30Z</time></trkpt><trkpt lat="30.419311944573135" lon="-8.900866719508564"><ele>212.0</ele><time>2026-04-27T15:47:31Z</time></trkpt><trkpt lat="30.419145142883405" lon="-8.900945800452238"><ele>212.0</ele><time>2026-04-27T15:47:32Z</time></trkpt><trkpt lat="30.41898039067737" lon="-8.901027141193035"><ele>212.0</ele><time>2026-04-27T15:47:33Z</time></trkpt><trkpt lat="30.418822484893287" lon="-8.901105315299988"><ele>212.0</ele><time>2026-04-27T15:47:34Z</time></trkpt><trkpt lat="30.41866443885396" lon="-8.901174941104836"><ele>211.66666666666669</ele><time>2026-04-27T15:47:35Z</time></trkpt><trkpt lat="30.418501581125863" lon="-8.901237717402893"><ele>211.33333333333331</ele><time>2026-04-27T15:47:36Z</time></trkpt><trkpt lat="30.41833837728079" lon="-8.901306304783652"><ele>211.0</ele><time>2026-04-27T15:47:37Z</time></trkpt><trkpt lat="30.418173498962442" lon="-8.901379443358124"><ele>211.0</ele><time>2026-04-27T15:47:38Z</time></trkpt><trkpt lat="30.41801078592245" lon="-8.90145671414647"><ele>211.0</ele><time>2026-04-27T15:47:39Z</time></trkpt><trkpt lat="30.41784088812517" lon="-8.901534348360709"><ele>211.0</ele><time>2026-04-27T15:47:40Z</time></trkpt><trkpt lat="30.417666798547586" lon="-8.901615405087368"><ele>211.0</ele><time>2026-04-27T15:47:41Z</time></trkpt><trkpt lat="30.41748698415712" lon="-8.901699697881885"><ele>211.0</ele><time>2026-04-27T15:47:42Z</time></trkpt><trkpt lat="30.41730491696774" lon="-8.901785368381772"><ele>211.0</ele><time>2026-04-27T15:47:43Z</time></trkpt><trkpt lat="30.417117476937282" lon="-8.901867242418488"><ele>211.33333333333331</ele><time>2026-04-27T15:47:44Z</time></trkpt><trkpt lat="30.416927187049982" lon="-8.901950717210736"><ele>211.66666666666669</ele><time>2026-04-27T15:47:45Z</time></trkpt><trkpt lat="30.416733265370787" lon="-8.902031799006782"><ele>212.0</ele><time>2026-04-27T15:47:46Z</time></trkpt><trkpt lat="30.41654325471631" lon="-8.902118438194183"><ele>212.0</ele><time>2026-04-27T15:47:47Z</time></trkpt><trkpt lat="30.416355232680374" lon="-8.902203898704656"><ele>212.0</ele><time>2026-04-27T15:47:48Z</time></trkpt><trkpt lat="30.416163518526673" lon="-8.902291668990772"><ele>212.0</ele><time>2026-04-27T15:47:49Z</time></trkpt><trkpt lat="30.415969640456606" lon="-8.902372319000348"><ele>212.0</ele><time>2026-04-27T15:47:50Z</time></trkpt><trkpt lat="30.415769360369357" lon="-8.902458077336505"><ele>212.0</ele><time>2026-04-27T15:47:51Z</time></trkpt><trkpt lat="30.41556727781165" lon="-8.902542872130182"><ele>212.0</ele><time>2026-04-27T15:47:52Z</time></trkpt><trkpt lat="30.415365370961535" lon="-8.90263703646286"><ele>211.66666666666669</ele><time>2026-04-27T15:47:53Z</time></trkpt><trkpt lat="30.41516207290423" lon="-8.902733835979847"><ele>211.33333333333331</ele><time>2026-04-27T15:47:54Z</time></trkpt><trkpt lat="30.414955866371923" lon="-8.902831076566343"><ele>211.0</ele><time>2026-04-27T15:47:55Z</time></trkpt><trkpt lat="30.4147502255856" lon="-8.902927085495552"><ele>211.33333333333331</ele><time>2026-04-27T15:47:56Z</time></trkpt><trkpt lat="30.414547954629697" lon="-8.903020041806258"><ele>211.66666666666669</ele><time>2026-04-27T15:47:57Z</time></trkpt><trkpt lat="30.414350144715833" lon="-8.903108844146558"><ele>212.0</ele><time>2026-04-27T15:47:58Z</time></trkpt><trkpt lat="30.414158437138635" lon="-8.903196503554545"><ele>212.0</ele><time>2026-04-27T15:47:59Z</time></trkpt><trkpt lat="30.41396599929965" lon="-8.903278693323013"><ele>212.0</ele><time>2026-04-27T15:48:00Z</time></trkpt><trkpt lat="30.413778223825442" lon="-8.903366138972972"><ele>212.0</ele><time>2026-04-27T15:48:01Z</time></trkpt><trkpt lat="30.413593007731514" lon="-8.903455340714055"><ele>212.33333333333334</ele><time>2026-04-27T15:48:02Z</time></trkpt><trkpt lat="30.413415336649415" lon="-8.903535932126239"><ele>212.66666666666669</ele><time>2026-04-27T15:48:03Z</time></trkpt><trkpt lat="30.413236252249188" lon="-8.903618791449082"><ele>213.0</ele><time>2026-04-27T15:48:04Z</time></trkpt><trkpt lat="30.413055880199988" lon="-8.903699187074217"><ele>213.0</ele><time>2026-04-27T15:48:05Z</time></trkpt><trkpt lat="30.41287684177792" lon="-8.903781446049123"><ele>213.0</ele><time>2026-04-27T15:48:06Z</time></trkpt><trkpt lat="30.412700667192055" lon="-8.903862429573168"><ele>213.0</ele><time>2026-04-27T15:48:07Z</time></trkpt><trkpt lat="30.412519842485537" lon="-8.903941389319968"><ele>213.0</ele><time>2026-04-27T15:48:08Z</time></trkpt><trkpt lat="30.41233562834954" lon="-8.904022003806459"><ele>213.0</ele><time>2026-04-27T15:48:09Z</time></trkpt><trkpt lat="30.41215011691037" lon="-8.904104575436142"><ele>213.0</ele><time>2026-04-27T15:48:10Z</time></trkpt><trkpt lat="30.41196375271072" lon="-8.904187781047455"><ele>212.33333333333331</ele><time>2026-04-27T15:48:11Z</time></trkpt><trkpt lat="30.41177428510804" lon="-8.904271354387266"><ele>211.66666666666666</ele><time>2026-04-27T15:48:12Z</time></trkpt><trkpt lat="30.41158443787055" lon="-8.904356368309342"><ele>211.0</ele><time>2026-04-27T15:48:13Z</time></trkpt><trkpt lat="30.411402377357827" lon="-8.904436085782535"><ele>211.0</ele><time>2026-04-27T15:48:14Z</time></trkpt><trkpt lat="30.411219363135725" lon="-8.904519862510677"><ele>211.0</ele><time>2026-04-27T15:48:15Z</time></trkpt><trkpt lat="30.411034805547928" lon="-8.904602571249656"><ele>211.0</ele><time>2026-04-27T15:48:16Z</time></trkpt><trkpt lat="30.41084834430709" lon="-8.904691040325826"><ele>211.0</ele><time>2026-04-27T15:48:17Z</time></trkpt><trkpt lat="30.410656559719875" lon="-8.904776416233656"><ele>211.0</ele><time>2026-04-27T15:48:18Z</time></trkpt><trkpt lat="30.410460916211633" lon="-8.904862174265897"><ele>211.0</ele><time>2026-04-27T15:48:19Z</time></trkpt><trkpt lat="30.41026297870344" lon="-8.904946502726009"><ele>211.0</ele><time>2026-04-27T15:48:20Z</time></trkpt><trkpt lat="30.410060480109692" lon="-8.905037507522959"><ele>211.0</ele><time>2026-04-27T15:48:21Z</time></trkpt><trkpt lat="30.40985909990423" lon="-8.905131597473316"><ele>211.0</ele><time>2026-04-27T15:48:22Z</time></trkpt><trkpt lat="30.409655500301017" lon="-8.905223372069507"><ele>211.66666666666666</ele><time>2026-04-27T15:48:23Z</time></trkpt><trkpt lat="30.409449999618218" lon="-8.905313300081097"><ele>212.33333333333331</ele><time>2026-04-27T15:48:24Z</time></trkpt><trkpt lat="30.409238037414084" lon="-8.905404466494197"><ele>213.0</ele><time>2026-04-27T15:48:25Z</time></trkpt><trkpt lat="30.409032799181276" lon="-8.905497184608674"><ele>213.5</ele><time>2026-04-27T15:48:26Z</time></trkpt><trkpt lat="30.408821510510336" lon="-8.905593477746743"><ele>214.0</ele><time>2026-04-27T15:48:27Z</time></trkpt><trkpt lat="30.408609449933753" lon="-8.905688573125977"><ele>214.0</ele><time>2026-04-27T15:48:28Z</time></trkpt><trkpt lat="30.408396146974287" lon="-8.905782914279659"><ele>214.0</ele><time>2026-04-27T15:48:29Z</time></trkpt><trkpt lat="30.40818431885305" lon="-8.90587595939846"><ele>214.0</ele><time>2026-04-27T15:48:30Z</time></trkpt><trkpt lat="30.407967727807893" lon="-8.905971972687976"><ele>214.0</ele><time>2026-04-27T15:48:31Z</time></trkpt><trkpt lat="30.407751660798674" lon="-8.906070605110106"><ele>214.0</ele><time>2026-04-27T15:48:32Z</time></trkpt><trkpt lat="30.407541728866402" lon="-8.906167186360083"><ele>214.0</ele><time>2026-04-27T15:48:33Z</time></trkpt><trkpt lat="30.407324426847673" lon="-8.906265118224658"><ele>214.5</ele><time>2026-04-27T15:48:34Z</time></trkpt><trkpt lat="30.40710406058679" lon="-8.90636547190018"><ele>215.0</ele><time>2026-04-27T15:48:35Z</time></trkpt><trkpt lat="30.40688421225305" lon="-8.906466012408368"><ele>215.0</ele><time>2026-04-27T15:48:36Z</time></trkpt><trkpt lat="30.40666274176386" lon="-8.9065682102419"><ele>215.0</ele><time>2026-04-27T15:48:37Z</time></trkpt><trkpt lat="30.406440916682477" lon="-8.90666939862572"><ele>215.5</ele><time>2026-04-27T15:48:38Z</time></trkpt><trkpt lat="30.406216511848513" lon="-8.906769650967133"><ele>216.0</ele><time>2026-04-27T15:48:39Z</time></trkpt><trkpt lat="30.405987299290405" lon="-8.906867178519084"><ele>216.0</ele><time>2026-04-27T15:48:40Z</time></trkpt><trkpt lat="30.40575222128982" lon="-8.90696107200637"><ele>216.0</ele><time>2026-04-27T15:48:41Z</time></trkpt><trkpt lat="30.405515125044136" lon="-8.90704744607254"><ele>215.5</ele><time>2026-04-27T15:48:42Z</time></trkpt><trkpt lat="30.405273372955406" lon="-8.907136110444386"><ele>215.0</ele><time>2026-04-27T15:48:43Z</time></trkpt><trkpt lat="30.40503759385186" lon="-8.907227219686451"><ele>215.0</ele><time>2026-04-27T15:48:44Z</time></trkpt><trkpt lat="30.404802209807666" lon="-8.907314548126156"><ele>215.0</ele><time>2026-04-27T15:48:45Z</time></trkpt><trkpt lat="30.40456657948343" lon="-8.907406275482476"><ele>215.0</ele><time>2026-04-27T15:48:46Z</time></trkpt><trkpt lat="30.40433112024522" lon="-8.907495768394815"><ele>215.0</ele><time>2026-04-27T15:48:47Z</time></trkpt><trkpt lat="30.404095439072858" lon="-8.907588880189417"><ele>215.0</ele><time>2026-04-27T15:48:48Z</time></trkpt><trkpt lat="30.403862519038793" lon="-8.907685639560043"><ele>215.0</ele><time>2026-04-27T15:48:49Z</time></trkpt><trkpt lat="30.403631189234293" lon="-8.907786112734437"><ele>216.0</ele><time>2026-04-27T15:48:50Z</time></trkpt><trkpt lat="30.403397959497703" lon="-8.907891856024566"><ele>217.0</ele><time>2026-04-27T15:48:51Z</time></trkpt><trkpt lat="30.403165246188337" lon="-8.907996651705455"><ele>216.5</ele><time>2026-04-27T15:48:52Z</time></trkpt><trkpt lat="30.402931326059743" lon="-8.90809458273879"><ele>216.0</ele><time>2026-04-27T15:48:53Z</time></trkpt><trkpt lat="30.402696350961325" lon="-8.908197030577481"><ele>216.0</ele><time>2026-04-27T15:48:54Z</time></trkpt><trkpt lat="30.402464884007834" lon="-8.908300938800773"><ele>216.0</ele><time>2026-04-27T15:48:55Z</time></trkpt><trkpt lat="30.40223267559306" lon="-8.90840494700174"><ele>216.0</ele><time>2026-04-27T15:48:56Z</time></trkpt><trkpt lat="30.402002705611043" lon="-8.908510171286531"><ele>216.0</ele><time>2026-04-27T15:48:57Z</time></trkpt><trkpt lat="30.40177345219746" lon="-8.908610647406546"><ele>216.0</ele><time>2026-04-27T15:48:58Z</time></trkpt><trkpt lat="30.40154329702989" lon="-8.908711894854454"><ele>216.0</ele><time>2026-04-27T15:48:59Z</time></trkpt><trkpt lat="30.4013149413436" lon="-8.908814715582793"><ele>216.0</ele><time>2026-04-27T15:49:00Z</time></trkpt><trkpt lat="30.401088879543956" lon="-8.908917482045654"><ele>216.0</ele><time>2026-04-27T15:49:01Z</time></trkpt><trkpt lat="30.40086444896091" lon="-8.90901908974869"><ele>216.0</ele><time>2026-04-27T15:49:02Z</time></trkpt><trkpt lat="30.40063590267583" lon="-8.909122746149194"><ele>216.0</ele><time>2026-04-27T15:49:03Z</time></trkpt><trkpt lat="30.400407299423797" lon="-8.909227136050609"><ele>216.0</ele><time>2026-04-27T15:49:04Z</time></trkpt><trkpt lat="30.40017908613533" lon="-8.909328978813052"><ele>216.0</ele><time>2026-04-27T15:49:05Z</time></trkpt><trkpt lat="30.399950050906703" lon="-8.909430194691803"><ele>216.0</ele><time>2026-04-27T15:49:06Z</time></trkpt><trkpt lat="30.399719878438116" lon="-8.909533291177466"><ele>216.0</ele><time>2026-04-27T15:49:07Z</time></trkpt><trkpt lat="30.39949251624546" lon="-8.909633502674717"><ele>217.0</ele><time>2026-04-27T15:49:08Z</time></trkpt><trkpt lat="30.399262767319044" lon="-8.909734839421061"><ele>218.0</ele><time>2026-04-27T15:49:09Z</time></trkpt><trkpt lat="30.39903523392317" lon="-8.909835508651554"><ele>218.0</ele><time>2026-04-27T15:49:10Z</time></trkpt><trkpt lat="30.39880796941164" lon="-8.909937690149215"><ele>218.0</ele><time>2026-04-27T15:49:11Z</time></trkpt><trkpt lat="30.398583272649944" lon="-8.910038492338371"><ele>217.0</ele><time>2026-04-27T15:49:12Z</time></trkpt><trkpt lat="30.3983579960043" lon="-8.910140235190367"><ele>216.0</ele><time>2026-04-27T15:49:13Z</time></trkpt><trkpt lat="30.39813257781961" lon="-8.910241204179295"><ele>216.5</ele><time>2026-04-27T15:49:14Z</time></trkpt><trkpt lat="30.397907330932572" lon="-8.910339291722552"><ele>217.0</ele><time>2026-04-27T15:49:15Z</time></trkpt><trkpt lat="30.39768363055566" lon="-8.910440229420693"><ele>217.0</ele><time>2026-04-27T15:49:16Z</time></trkpt><trkpt lat="30.397460137930903" lon="-8.910541470303258"><ele>217.0</ele><time>2026-04-27T15:49:17Z</time></trkpt><trkpt lat="30.39723896769799" lon="-8.910647775593898"><ele>217.0</ele><time>2026-04-27T15:49:18Z</time></trkpt><trkpt lat="30.397021215838304" lon="-8.910752712544955"><ele>217.0</ele><time>2026-04-27T15:49:19Z</time></trkpt><trkpt lat="30.396796711735245" lon="-8.91085087212936"><ele>217.5</ele><time>2026-04-27T15:49:20Z</time></trkpt><trkpt lat="30.396575046234062" lon="-8.910949369481846"><ele>218.0</ele><time>2026-04-27T15:49:21Z</time></trkpt><trkpt lat="30.396355016456" lon="-8.911043298153817"><ele>217.5</ele><time>2026-04-27T15:49:22Z</time></trkpt><trkpt lat="30.396135044632715" lon="-8.9111423528731"><ele>217.0</ele><time>2026-04-27T15:49:23Z</time></trkpt><trkpt lat="30.395916113160855" lon="-8.911237840178345"><ele>217.0</ele><time>2026-04-27T15:49:24Z</time></trkpt><trkpt lat="30.39569725194259" lon="-8.911334623872937"><ele>217.0</ele><time>2026-04-27T15:49:25Z</time></trkpt><trkpt lat="30.395479453757865" lon="-8.911431048770583"><ele>217.5</ele><time>2026-04-27T15:49:26Z</time></trkpt><trkpt lat="30.395262275375863" lon="-8.911528533338943"><ele>218.0</ele><time>2026-04-27T15:49:27Z</time></trkpt><trkpt lat="30.395042921066434" lon="-8.911623923332531"><ele>218.0</ele><time>2026-04-27T15:49:28Z</time></trkpt><trkpt lat="30.39482930184093" lon="-8.911720628791848"><ele>218.0</ele><time>2026-04-27T15:49:29Z</time></trkpt><trkpt lat="30.394611094953735" lon="-8.911817410650052"><ele>218.0</ele><time>2026-04-27T15:49:30Z</time></trkpt><trkpt lat="30.394394608777453" lon="-8.911919595522818"><ele>218.0</ele><time>2026-04-27T15:49:31Z</time></trkpt><trkpt lat="30.394176969882075" lon="-8.91201522445762"><ele>218.0</ele><time>2026-04-27T15:49:32Z</time></trkpt><trkpt lat="30.39395934906304" lon="-8.912111704383788"><ele>218.0</ele><time>2026-04-27T15:49:33Z</time></trkpt><trkpt lat="30.393737650070623" lon="-8.912211604570219"><ele>218.0</ele><time>2026-04-27T15:49:34Z</time></trkpt><trkpt lat="30.393515334851887" lon="-8.912312866474918"><ele>218.0</ele><time>2026-04-27T15:49:35Z</time></trkpt><trkpt lat="30.393290856963226" lon="-8.912415947884439"><ele>218.0</ele><time>2026-04-27T15:49:36Z</time></trkpt><trkpt lat="30.393061748834764" lon="-8.912519465231505"><ele>218.0</ele><time>2026-04-27T15:49:37Z</time></trkpt><trkpt lat="30.392828662196564" lon="-8.912618971070401"><ele>218.5</ele><time>2026-04-27T15:49:38Z</time></trkpt><trkpt lat="30.392590670556608" lon="-8.91272560100271"><ele>219.0</ele><time>2026-04-27T15:49:39Z</time></trkpt><trkpt lat="30.392351061154052" lon="-8.912834470306647"><ele>218.5</ele><time>2026-04-27T15:49:40Z</time></trkpt><trkpt lat="30.39211239758123" lon="-8.912942076031296"><ele>218.0</ele><time>2026-04-27T15:49:41Z</time></trkpt><trkpt lat="30.391876394790057" lon="-8.91305021674175"><ele>218.0</ele><time>2026-04-27T15:49:42Z</time></trkpt><trkpt lat="30.391646232129876" lon="-8.913158186737451"><ele>218.0</ele><time>2026-04-27T15:49:43Z</time></trkpt><trkpt lat="30.391415997970363" lon="-8.913262666242053"><ele>218.0</ele><time>2026-04-27T15:49:44Z</time></trkpt><trkpt lat="30.39118901516227" lon="-8.913366456143613"><ele>218.0</ele><time>2026-04-27T15:49:45Z</time></trkpt><trkpt lat="30.390964036966455" lon="-8.913466942756754"><ele>217.5</ele><time>2026-04-27T15:49:46Z</time></trkpt><trkpt lat="30.390742183935384" lon="-8.913565428949898"><ele>217.0</ele><time>2026-04-27T15:49:47Z</time></trkpt><trkpt lat="30.390521184572616" lon="-8.913663856668393"><ele>217.5</ele><time>2026-04-27T15:49:48Z</time></trkpt><trkpt lat="30.390302300246184" lon="-8.913760816155335"><ele>218.0</ele><time>2026-04-27T15:49:49Z</time></trkpt><trkpt lat="30.39008149987379" lon="-8.91385447562775"><ele>218.0</ele><time>2026-04-27T15:49:50Z</time></trkpt><trkpt lat="30.38985991119966" lon="-8.913948686370224"><ele>218.0</ele><time>2026-04-27T15:49:51Z</time></trkpt><trkpt lat="30.38963949566598" lon="-8.91404191510688"><ele>218.5</ele><time>2026-04-27T15:49:52Z</time></trkpt><trkpt lat="30.3894131336626" lon="-8.914140204578993"><ele>219.0</ele><time>2026-04-27T15:49:53Z</time></trkpt><trkpt lat="30.389184968250113" lon="-8.91424249480239"><ele>219.5</ele><time>2026-04-27T15:49:54Z</time></trkpt><trkpt lat="30.388956727362036" lon="-8.91434877637035"><ele>220.0</ele><time>2026-04-27T15:49:55Z</time></trkpt><trkpt lat="30.388722132081295" lon="-8.914455264840388"><ele>220.0</ele><time>2026-04-27T15:49:56Z</time></trkpt><trkpt lat="30.388486662708125" lon="-8.914562449483654"><ele>220.0</ele><time>2026-04-27T15:49:57Z</time></trkpt><trkpt lat="30.38824866036666" lon="-8.914669052662406"><ele>220.0</ele><time>2026-04-27T15:49:58Z</time></trkpt><trkpt lat="30.38801165613166" lon="-8.914777793991261"><ele>220.0</ele><time>2026-04-27T15:49:59Z</time></trkpt><trkpt lat="30.3877769660176" lon="-8.914888986808204"><ele>220.0</ele><time>2026-04-27T15:50:00Z</time></trkpt><trkpt lat="30.387541629028277" lon="-8.915004190661135"><ele>220.0</ele><time>2026-04-27T15:50:01Z</time></trkpt><trkpt lat="30.38730606000551" lon="-8.915119151743044"><ele>220.0</ele><time>2026-04-27T15:50:02Z</time></trkpt><trkpt lat="30.387071384254064" lon="-8.915227363247439"><ele>220.0</ele><time>2026-04-27T15:50:03Z</time></trkpt><trkpt lat="30.386833566904194" lon="-8.91533445100139"><ele>220.0</ele><time>2026-04-27T15:50:04Z</time></trkpt><trkpt lat="30.386595576047423" lon="-8.915443737147026"><ele>220.0</ele><time>2026-04-27T15:50:05Z</time></trkpt><trkpt lat="30.386359070161113" lon="-8.915546641147051"><ele>220.0</ele><time>2026-04-27T15:50:06Z</time></trkpt><trkpt lat="30.386121182466265" lon="-8.915648218822867"><ele>220.0</ele><time>2026-04-27T15:50:07Z</time></trkpt><trkpt lat="30.385890253771375" lon="-8.915751468666883"><ele>220.0</ele><time>2026-04-27T15:50:08Z</time></trkpt><trkpt lat="30.38565779651481" lon="-8.915860519650852"><ele>220.0</ele><time>2026-04-27T15:50:09Z</time></trkpt><trkpt lat="30.385427871420625" lon="-8.91596773155213"><ele>220.5</ele><time>2026-04-27T15:50:10Z</time></trkpt><trkpt lat="30.38519481203166" lon="-8.916074511067274"><ele>221.0</ele><time>2026-04-27T15:50:11Z</time></trkpt><trkpt lat="30.384966754096332" lon="-8.916174530705701"><ele>221.0</ele><time>2026-04-27T15:50:12Z</time></trkpt><trkpt lat="30.384738241004808" lon="-8.916277145013705"><ele>221.0</ele><time>2026-04-27T15:50:13Z</time></trkpt><trkpt lat="30.38451128770079" lon="-8.91638126171808"><ele>221.0</ele><time>2026-04-27T15:50:14Z</time></trkpt><trkpt lat="30.384281670937515" lon="-8.91648535751986"><ele>221.0</ele><time>2026-04-27T15:50:15Z</time></trkpt><trkpt lat="30.384050007411705" lon="-8.916588606368462"><ele>221.0</ele><time>2026-04-27T15:50:16Z</time></trkpt><trkpt lat="30.383817582488078" lon="-8.916691198733725"><ele>221.0</ele><time>2026-04-27T15:50:17Z</time></trkpt><trkpt lat="30.383584693139877" lon="-8.916794256990796"><ele>221.5</ele><time>2026-04-27T15:50:18Z</time></trkpt><trkpt lat="30.38334894767512" lon="-8.916899900572608"><ele>222.0</ele><time>2026-04-27T15:50:19Z</time></trkpt><trkpt lat="30.383112923077725" lon="-8.917004025661013"><ele>221.5</ele><time>2026-04-27T15:50:20Z</time></trkpt><trkpt lat="30.382874519666778" lon="-8.917110836274041"><ele>221.0</ele><time>2026-04-27T15:50:21Z</time></trkpt><trkpt lat="30.382637924960015" lon="-8.9172159473392"><ele>221.0</ele><time>2026-04-27T15:50:22Z</time></trkpt><trkpt lat="30.38239933451047" lon="-8.917325607278448"><ele>221.0</ele><time>2026-04-27T15:50:23Z</time></trkpt><trkpt lat="30.382159035218766" lon="-8.917436366596688"><ele>221.0</ele><time>2026-04-27T15:50:24Z</time></trkpt><trkpt lat="30.38191809945603" lon="-8.917549238477758"><ele>221.0</ele><time>2026-04-27T15:50:25Z</time></trkpt><trkpt lat="30.38168001496033" lon="-8.917660310204175"><ele>221.0</ele><time>2026-04-27T15:50:26Z</time></trkpt><trkpt lat="30.381441640097595" lon="-8.917767459321386"><ele>221.0</ele><time>2026-04-27T15:50:27Z</time></trkpt><trkpt lat="30.38120163247823" lon="-8.917872209155496"><ele>221.5</ele><time>2026-04-27T15:50:28Z</time></trkpt><trkpt lat="30.38096122543575" lon="-8.917978178748918"><ele>222.0</ele><time>2026-04-27T15:50:29Z</time></trkpt><trkpt lat="30.38072335918985" lon="-8.918079623550646"><ele>222.0</ele><time>2026-04-27T15:50:30Z</time></trkpt><trkpt lat="30.380483850479095" lon="-8.918189252507185"><ele>222.0</ele><time>2026-04-27T15:50:31Z</time></trkpt><trkpt lat="30.3802479584294" lon="-8.91829432124479"><ele>222.0</ele><time>2026-04-27T15:50:32Z</time></trkpt><trkpt lat="30.380015302401283" lon="-8.91839788556374"><ele>222.0</ele><time>2026-04-27T15:50:33Z</time></trkpt><trkpt lat="30.37978820668722" lon="-8.918499749986694"><ele>221.5</ele><time>2026-04-27T15:50:34Z</time></trkpt><trkpt lat="30.379558043715612" lon="-8.918604952546284"><ele>221.0</ele><time>2026-04-27T15:50:35Z</time></trkpt><trkpt lat="30.379329908039583" lon="-8.918708175570286"><ele>221.0</ele><time>2026-04-27T15:50:36Z</time></trkpt><trkpt lat="30.379099793987844" lon="-8.918809146803603"><ele>221.0</ele><time>2026-04-27T15:50:37Z</time></trkpt><trkpt lat="30.378873220261536" lon="-8.918915059241428"><ele>221.0</ele><time>2026-04-27T15:50:38Z</time></trkpt><trkpt lat="30.378655363342112" lon="-8.919033388438526"><ele>221.0</ele><time>2026-04-27T15:50:39Z</time></trkpt><trkpt lat="30.378443989462145" lon="-8.919163324957191"><ele>221.0</ele><time>2026-04-27T15:50:40Z</time></trkpt><trkpt lat="30.37823972691024" lon="-8.919307955433489"><ele>221.0</ele><time>2026-04-27T15:50:41Z</time></trkpt><trkpt lat="30.378044263318262" lon="-8.919463327361909"><ele>221.0</ele><time>2026-04-27T15:50:42Z</time></trkpt><trkpt lat="30.377854673176174" lon="-8.919627366202622"><ele>221.0</ele><time>2026-04-27T15:50:43Z</time></trkpt><trkpt lat="30.377673787414526" lon="-8.919802580675302"><ele>221.0</ele><time>2026-04-27T15:50:44Z</time></trkpt><trkpt lat="30.37749651716965" lon="-8.919987356091099"><ele>221.0</ele><time>2026-04-27T15:50:45Z</time></trkpt><trkpt lat="30.377330429575977" lon="-8.920184922979319"><ele>221.0</ele><time>2026-04-27T15:50:46Z</time></trkpt><trkpt lat="30.377173355479197" lon="-8.920396892002545"><ele>221.0</ele><time>2026-04-27T15:50:47Z</time></trkpt><trkpt lat="30.37703371151907" lon="-8.920621047824298"><ele>221.0</ele><time>2026-04-27T15:50:48Z</time></trkpt><trkpt lat="30.376903618920828" lon="-8.92085545168505"><ele>221.0</ele><time>2026-04-27T15:50:49Z</time></trkpt><trkpt lat="30.376782883021523" lon="-8.921097013917057"><ele>221.0</ele><time>2026-04-27T15:50:50Z</time></trkpt><trkpt lat="30.37666986835136" lon="-8.921340574832655"><ele>221.0</ele><time>2026-04-27T15:50:51Z</time></trkpt><trkpt lat="30.37656750428298" lon="-8.921592336597175"><ele>221.0</ele><time>2026-04-27T15:50:52Z</time></trkpt><trkpt lat="30.3764805219448" lon="-8.921850412330478"><ele>221.0</ele><time>2026-04-27T15:50:53Z</time></trkpt><trkpt lat="30.376404602264408" lon="-8.9221138992554"><ele>221.0</ele><time>2026-04-27T15:50:54Z</time></trkpt><trkpt lat="30.376346788587643" lon="-8.9223795728951"><ele>221.0</ele><time>2026-04-27T15:50:55Z</time></trkpt><trkpt lat="30.376305334513823" lon="-8.9226511036156"><ele>220.0</ele><time>2026-04-27T15:50:56Z</time></trkpt><trkpt lat="30.376273019232766" lon="-8.922925029913424"><ele>219.0</ele><time>2026-04-27T15:50:57Z</time></trkpt><trkpt lat="30.37625126714393" lon="-8.923198450176608"><ele>219.0</ele><time>2026-04-27T15:50:58Z</time></trkpt><trkpt lat="30.376239260640954" lon="-8.92347069125963"><ele>219.0</ele><time>2026-04-27T15:50:59Z</time></trkpt><trkpt lat="30.37623986112351" lon="-8.923742377999226"><ele>219.0</ele><time>2026-04-27T15:51:00Z</time></trkpt><trkpt lat="30.376251635507174" lon="-8.924017366846316"><ele>219.0</ele><time>2026-04-27T15:51:01Z</time></trkpt><trkpt lat="30.376285640832698" lon="-8.924285329685608"><ele>219.5</ele><time>2026-04-27T15:51:02Z</time></trkpt><trkpt lat="30.376328701248433" lon="-8.924555841136863"><ele>220.0</ele><time>2026-04-27T15:51:03Z</time></trkpt><trkpt lat="30.376381990321082" lon="-8.924824365072146"><ele>220.0</ele><time>2026-04-27T15:51:04Z</time></trkpt><trkpt lat="30.376440856857208" lon="-8.925097541327514"><ele>220.0</ele><time>2026-04-27T15:51:05Z</time></trkpt><trkpt lat="30.376502211602656" lon="-8.925369128156362"><ele>220.0</ele><time>2026-04-27T15:51:06Z</time></trkpt><trkpt lat="30.376562610421505" lon="-8.925644677672063"><ele>220.0</ele><time>2026-04-27T15:51:07Z</time></trkpt><trkpt lat="30.37662184346947" lon="-8.925922914028485"><ele>220.0</ele><time>2026-04-27T15:51:08Z</time></trkpt><trkpt lat="30.37667768657983" lon="-8.926203123518007"><ele>220.0</ele><time>2026-04-27T15:51:09Z</time></trkpt><trkpt lat="30.376733812098063" lon="-8.926480620315596"><ele>219.5</ele><time>2026-04-27T15:51:10Z</time></trkpt><trkpt lat="30.376790324645672" lon="-8.926758360216782"><ele>219.0</ele><time>2026-04-27T15:51:11Z</time></trkpt><trkpt lat="30.376846373368675" lon="-8.927035905634018"><ele>219.0</ele><time>2026-04-27T15:51:12Z</time></trkpt><trkpt lat="30.37690241851142" lon="-8.927311319015105"><ele>219.0</ele><time>2026-04-27T15:51:13Z</time></trkpt><trkpt lat="30.376962061822297" lon="-8.927586172688205"><ele>219.0</ele><time>2026-04-27T15:51:14Z</time></trkpt><trkpt lat="30.377022439826252" lon="-8.927861697619933"><ele>219.0</ele><time>2026-04-27T15:51:15Z</time></trkpt><trkpt lat="30.377079269995647" lon="-8.9281390548917"><ele>218.5</ele><time>2026-04-27T15:51:16Z</time></trkpt><trkpt lat="30.377134127201174" lon="-8.928415137520394"><ele>218.0</ele><time>2026-04-27T15:51:17Z</time></trkpt><trkpt lat="30.37719036054051" lon="-8.928693179943444"><ele>217.5</ele><time>2026-04-27T15:51:18Z</time></trkpt><trkpt lat="30.377248717886026" lon="-8.928971060370245"><ele>217.0</ele><time>2026-04-27T15:51:19Z</time></trkpt><trkpt lat="30.377305435371287" lon="-8.929245774337199"><ele>217.0</ele><time>2026-04-27T15:51:20Z</time></trkpt><trkpt lat="30.377363962862887" lon="-8.929525013278406"><ele>217.0</ele><time>2026-04-27T15:51:21Z</time></trkpt><trkpt lat="30.377421910788396" lon="-8.929801075397489"><ele>216.5</ele><time>2026-04-27T15:51:22Z</time></trkpt><trkpt lat="30.377478158613496" lon="-8.9300769939599"><ele>216.0</ele><time>2026-04-27T15:51:23Z</time></trkpt><trkpt lat="30.377533971596833" lon="-8.930347601549713"><ele>216.0</ele><time>2026-04-27T15:51:24Z</time></trkpt><trkpt lat="30.377591983664367" lon="-8.930621074350656"><ele>216.0</ele><time>2026-04-27T15:51:25Z</time></trkpt><trkpt lat="30.37764887531944" lon="-8.93089225766493"><ele>216.0</ele><time>2026-04-27T15:51:26Z</time></trkpt><trkpt lat="30.37770600793232" lon="-8.931166889864954"><ele>216.0</ele><time>2026-04-27T15:51:27Z</time></trkpt><trkpt lat="30.3777608032685" lon="-8.931437052082362"><ele>216.0</ele><time>2026-04-27T15:51:28Z</time></trkpt><trkpt lat="30.377815815544416" lon="-8.931709281172845"><ele>216.0</ele><time>2026-04-27T15:51:29Z</time></trkpt><trkpt lat="30.37787119849535" lon="-8.931979798985926"><ele>216.0</ele><time>2026-04-27T15:51:30Z</time></trkpt><trkpt lat="30.377929124083398" lon="-8.932249870997722"><ele>216.0</ele><time>2026-04-27T15:51:31Z</time></trkpt><trkpt lat="30.377989102028423" lon="-8.93251724294219"><ele>216.0</ele><time>2026-04-27T15:51:32Z</time></trkpt><trkpt lat="30.378047855578444" lon="-8.932787162375636"><ele>216.0</ele><time>2026-04-27T15:51:33Z</time></trkpt><trkpt lat="30.37810777884896" lon="-8.933059397239353"><ele>216.0</ele><time>2026-04-27T15:51:34Z</time></trkpt><trkpt lat="30.378171046195813" lon="-8.933326752868565"><ele>216.0</ele><time>2026-04-27T15:51:35Z</time></trkpt><trkpt lat="30.378239762025636" lon="-8.933596277543577"><ele>216.0</ele><time>2026-04-27T15:51:36Z</time></trkpt><trkpt lat="30.378311345244867" lon="-8.933863731877972"><ele>216.0</ele><time>2026-04-27T15:51:37Z</time></trkpt><trkpt lat="30.378385937564296" lon="-8.93412724803731"><ele>216.0</ele><time>2026-04-27T15:51:38Z</time></trkpt><trkpt lat="30.378466013618947" lon="-8.934392351998957"><ele>216.0</ele><time>2026-04-27T15:51:39Z</time></trkpt><trkpt lat="30.378548232525414" lon="-8.934655490520354"><ele>216.0</ele><time>2026-04-27T15:51:40Z</time></trkpt><trkpt lat="30.378633516232213" lon="-8.934918720845081"><ele>216.0</ele><time>2026-04-27T15:51:41Z</time></trkpt><trkpt lat="30.37871805738493" lon="-8.935182746444879"><ele>216.0</ele><time>2026-04-27T15:51:42Z</time></trkpt><trkpt lat="30.37879791766654" lon="-8.935443372036943"><ele>216.0</ele><time>2026-04-27T15:51:43Z</time></trkpt><trkpt lat="30.378874305197478" lon="-8.935704661624682"><ele>215.5</ele><time>2026-04-27T15:51:44Z</time></trkpt><trkpt lat="30.37894904501951" lon="-8.935964758641749"><ele>215.0</ele><time>2026-04-27T15:51:45Z</time></trkpt><trkpt lat="30.37902794874166" lon="-8.93621923800169"><ele>215.0</ele><time>2026-04-27T15:51:46Z</time></trkpt><trkpt lat="30.37910927636033" lon="-8.93647650109165"><ele>215.0</ele><time>2026-04-27T15:51:47Z</time></trkpt><trkpt lat="30.379189508786972" lon="-8.936736130619183"><ele>214.5</ele><time>2026-04-27T15:51:48Z</time></trkpt><trkpt lat="30.379273152905512" lon="-8.936997192167428"><ele>214.0</ele><time>2026-04-27T15:51:49Z</time></trkpt><trkpt lat="30.37936198879887" lon="-8.937255459156312"><ele>214.0</ele><time>2026-04-27T15:51:50Z</time></trkpt><trkpt lat="30.37945826800986" lon="-8.937514538637181"><ele>214.0</ele><time>2026-04-27T15:51:51Z</time></trkpt><trkpt lat="30.37956051044045" lon="-8.937758944461553"><ele>214.0</ele><time>2026-04-27T15:51:52Z</time></trkpt><trkpt lat="30.379666995913023" lon="-8.937999933520016"><ele>214.0</ele><time>2026-04-27T15:51:53Z</time></trkpt><trkpt lat="30.379772780820236" lon="-8.938237881657264"><ele>214.5</ele><time>2026-04-27T15:51:54Z</time></trkpt><trkpt lat="30.379876907918913" lon="-8.938476560171022"><ele>215.0</ele><time>2026-04-27T15:51:55Z</time></trkpt><trkpt lat="30.379982649781894" lon="-8.938716564811122"><ele>215.0</ele><time>2026-04-27T15:51:56Z</time></trkpt><trkpt lat="30.38008908659192" lon="-8.938956025577157"><ele>215.0</ele><time>2026-04-27T15:51:57Z</time></trkpt><trkpt lat="30.380193917934996" lon="-8.939196743636922"><ele>215.0</ele><time>2026-04-27T15:51:58Z</time></trkpt><trkpt lat="30.3802996705508" lon="-8.939437399720951"><ele>215.0</ele><time>2026-04-27T15:51:59Z</time></trkpt><trkpt lat="30.38040664801538" lon="-8.939678513000509"><ele>215.0</ele><time>2026-04-27T15:52:00Z</time></trkpt><trkpt lat="30.38051399033037" lon="-8.939921410771978"><ele>215.0</ele><time>2026-04-27T15:52:01Z</time></trkpt><trkpt lat="30.380622072329928" lon="-8.94016515632138"><ele>213.5</ele><time>2026-04-27T15:52:02Z</time></trkpt><trkpt lat="30.380726955968818" lon="-8.940410847259646"><ele>212.0</ele><time>2026-04-27T15:52:03Z</time></trkpt><trkpt lat="30.380826819770057" lon="-8.940660368868175"><ele>213.0</ele><time>2026-04-27T15:52:04Z</time></trkpt><trkpt lat="30.380920593896487" lon="-8.940912370123982"><ele>214.0</ele><time>2026-04-27T15:52:05Z</time></trkpt><trkpt lat="30.38100492703065" lon="-8.941169557148921"><ele>214.0</ele><time>2026-04-27T15:52:06Z</time></trkpt><trkpt lat="30.381079038404586" lon="-8.941429144417985"><ele>214.0</ele><time>2026-04-27T15:52:07Z</time></trkpt><trkpt lat="30.38114416235263" lon="-8.941690151988206"><ele>213.5</ele><time>2026-04-27T15:52:08Z</time></trkpt><trkpt lat="30.381203218505085" lon="-8.941954258368812"><ele>213.0</ele><time>2026-04-27T15:52:09Z</time></trkpt><trkpt lat="30.38125228020727" lon="-8.942220736563735"><ele>213.0</ele><time>2026-04-27T15:52:10Z</time></trkpt><trkpt lat="30.38129862378437" lon="-8.942490604013871"><ele>213.0</ele><time>2026-04-27T15:52:11Z</time></trkpt><trkpt lat="30.381341166875043" lon="-8.942765556069773"><ele>212.5</ele><time>2026-04-27T15:52:12Z</time></trkpt><trkpt lat="30.381381506703825" lon="-8.943042142817186"><ele>212.0</ele><time>2026-04-27T15:52:13Z</time></trkpt><trkpt lat="30.38142393716869" lon="-8.943322826552262"><ele>212.0</ele><time>2026-04-27T15:52:14Z</time></trkpt><trkpt lat="30.381470013755006" lon="-8.9436061705689"><ele>212.0</ele><time>2026-04-27T15:52:15Z</time></trkpt><trkpt lat="30.381513172715177" lon="-8.943885221322205"><ele>212.0</ele><time>2026-04-27T15:52:16Z</time></trkpt><trkpt lat="30.3815534663208" lon="-8.944162655271885"><ele>212.0</ele><time>2026-04-27T15:52:17Z</time></trkpt><trkpt lat="30.381593793323884" lon="-8.944441162840047"><ele>212.5</ele><time>2026-04-27T15:52:18Z</time></trkpt><trkpt lat="30.38163623563735" lon="-8.944722125724539"><ele>213.0</ele><time>2026-04-27T15:52:19Z</time></trkpt><trkpt lat="30.38167653917434" lon="-8.945005235066377"><ele>212.5</ele><time>2026-04-27T15:52:20Z</time></trkpt><trkpt lat="30.381716959787948" lon="-8.94528965821326"><ele>212.0</ele><time>2026-04-27T15:52:21Z</time></trkpt><trkpt lat="30.38175987928921" lon="-8.945572788808509"><ele>212.0</ele><time>2026-04-27T15:52:22Z</time></trkpt><trkpt lat="30.381801880349105" lon="-8.945856192424134"><ele>212.0</ele><time>2026-04-27T15:52:23Z</time></trkpt><trkpt lat="30.381842883920598" lon="-8.946142868889197"><ele>211.5</ele><time>2026-04-27T15:52:24Z</time></trkpt><trkpt lat="30.381885976055216" lon="-8.946429773262597"><ele>211.0</ele><time>2026-04-27T15:52:25Z</time></trkpt><trkpt lat="30.381928843386095" lon="-8.946717532260422"><ele>211.0</ele><time>2026-04-27T15:52:26Z</time></trkpt><trkpt lat="30.381973333654773" lon="-8.947004434459775"><ele>211.0</ele><time>2026-04-27T15:52:27Z</time></trkpt><trkpt lat="30.382016768482334" lon="-8.947292794463475"><ele>211.0</ele><time>2026-04-27T15:52:28Z</time></trkpt><trkpt lat="30.382058775732833" lon="-8.947577980823594"><ele>211.0</ele><time>2026-04-27T15:52:29Z</time></trkpt><trkpt lat="30.382101732528223" lon="-8.947860778906563"><ele>211.0</ele><time>2026-04-27T15:52:30Z</time></trkpt><trkpt lat="30.382146212017467" lon="-8.948142969636026"><ele>211.0</ele><time>2026-04-27T15:52:31Z</time></trkpt><trkpt lat="30.382189869911105" lon="-8.948425039594396"><ele>210.0</ele><time>2026-04-27T15:52:32Z</time></trkpt><trkpt lat="30.382233512544467" lon="-8.948704520673893"><ele>209.0</ele><time>2026-04-27T15:52:33Z</time></trkpt><trkpt lat="30.38227724470948" lon="-8.948977611983024"><ele>209.0</ele><time>2026-04-27T15:52:34Z</time></trkpt><trkpt lat="30.38231699295987" lon="-8.949248651270745"><ele>209.0</ele><time>2026-04-27T15:52:35Z</time></trkpt><trkpt lat="30.382356930757798" lon="-8.949519110679727"><ele>209.0</ele><time>2026-04-27T15:52:36Z</time></trkpt><trkpt lat="30.382397117232834" lon="-8.9497932258803"><ele>209.0</ele><time>2026-04-27T15:52:37Z</time></trkpt><trkpt lat="30.382437732012004" lon="-8.950065390361667"><ele>209.5</ele><time>2026-04-27T15:52:38Z</time></trkpt><trkpt lat="30.38247371316723" lon="-8.950339462153076"><ele>210.0</ele><time>2026-04-27T15:52:39Z</time></trkpt><trkpt lat="30.382501241204096" lon="-8.950613621483026"><ele>208.0</ele><time>2026-04-27T15:52:40Z</time></trkpt><trkpt lat="30.38252168294069" lon="-8.950890364188364"><ele>206.0</ele><time>2026-04-27T15:52:41Z</time></trkpt><trkpt lat="30.382536366752618" lon="-8.951164435460479"><ele>206.0</ele><time>2026-04-27T15:52:42Z</time></trkpt><trkpt lat="30.382544113357756" lon="-8.951438789953334"><ele>206.0</ele><time>2026-04-27T15:52:43Z</time></trkpt><trkpt lat="30.382539070377852" lon="-8.951713761982196"><ele>206.0</ele><time>2026-04-27T15:52:44Z</time></trkpt><trkpt lat="30.382522359990006" lon="-8.951988269162243"><ele>206.0</ele><time>2026-04-27T15:52:45Z</time></trkpt><trkpt lat="30.38250185591401" lon="-8.952263207733447"><ele>206.0</ele><time>2026-04-27T15:52:46Z</time></trkpt><trkpt lat="30.38247875241991" lon="-8.952535422880759"><ele>206.0</ele><time>2026-04-27T15:52:47Z</time></trkpt><trkpt lat="30.38245601221238" lon="-8.95280647830884"><ele>208.0</ele><time>2026-04-27T15:52:48Z</time></trkpt><trkpt lat="30.382431557511484" lon="-8.953081110199957"><ele>210.0</ele><time>2026-04-27T15:52:49Z</time></trkpt><trkpt lat="30.382405780635175" lon="-8.953357328766064"><ele>210.0</ele><time>2026-04-27T15:52:50Z</time></trkpt><trkpt lat="30.382379279194602" lon="-8.953637863769725"><ele>210.0</ele><time>2026-04-27T15:52:51Z</time></trkpt><trkpt lat="30.382351297485812" lon="-8.953920179412531"><ele>208.5</ele><time>2026-04-27T15:52:52Z</time></trkpt><trkpt lat="30.3823243311138" lon="-8.954205135677629"><ele>207.0</ele><time>2026-04-27T15:52:53Z</time></trkpt><trkpt lat="30.382298359991644" lon="-8.954493456176714"><ele>207.0</ele><time>2026-04-27T15:52:54Z</time></trkpt><trkpt lat="30.38227237504536" lon="-8.954786504242316"><ele>207.0</ele><time>2026-04-27T15:52:55Z</time></trkpt><trkpt lat="30.38225106148506" lon="-8.955080643056405"><ele>207.0</ele><time>2026-04-27T15:52:56Z</time></trkpt><trkpt lat="30.382229446884416" lon="-8.955374490573124"><ele>207.0</ele><time>2026-04-27T15:52:57Z</time></trkpt><trkpt lat="30.382202300993445" lon="-8.95567188833194"><ele>207.0</ele><time>2026-04-27T15:52:58Z</time></trkpt><trkpt lat="30.38217083305406" lon="-8.955967352416009"><ele>207.0</ele><time>2026-04-27T15:52:59Z</time></trkpt><trkpt lat="30.382140395558622" lon="-8.956267026710439"><ele>207.0</ele><time>2026-04-27T15:53:00Z</time></trkpt><trkpt lat="30.38211485667255" lon="-8.956565765338878"><ele>207.0</ele><time>2026-04-27T15:53:01Z</time></trkpt><trkpt lat="30.382089392732237" lon="-8.956864878596242"><ele>206.0</ele><time>2026-04-27T15:53:02Z</time></trkpt><trkpt lat="30.38206187390657" lon="-8.957164319219656"><ele>205.0</ele><time>2026-04-27T15:53:03Z</time></trkpt><trkpt lat="30.382032438183856" lon="-8.957465296031673"><ele>206.5</ele><time>2026-04-27T15:53:04Z</time></trkpt><trkpt lat="30.38200650147366" lon="-8.95776694789977"><ele>208.0</ele><time>2026-04-27T15:53:05Z</time></trkpt><trkpt lat="30.381982750994588" lon="-8.958069249566758"><ele>208.0</ele><time>2026-04-27T15:53:06Z</time></trkpt><trkpt lat="30.38195742566856" lon="-8.958373189859753"><ele>208.0</ele><time>2026-04-27T15:53:07Z</time></trkpt><trkpt lat="30.381931372545452" lon="-8.958676069710286"><ele>208.0</ele><time>2026-04-27T15:53:08Z</time></trkpt><trkpt lat="30.38190466919477" lon="-8.958981648423727"><ele>208.0</ele><time>2026-04-27T15:53:09Z</time></trkpt><trkpt lat="30.381876914048547" lon="-8.959287909031623"><ele>207.0</ele><time>2026-04-27T15:53:10Z</time></trkpt><trkpt lat="30.38184721048189" lon="-8.959595828459955"><ele>206.0</ele><time>2026-04-27T15:53:11Z</time></trkpt><trkpt lat="30.38181758881973" lon="-8.959901060884334"><ele>205.5</ele><time>2026-04-27T15:53:12Z</time></trkpt><trkpt lat="30.38178890369073" lon="-8.960207523426961"><ele>205.0</ele><time>2026-04-27T15:53:13Z</time></trkpt><trkpt lat="30.381761808474792" lon="-8.960513717072958"><ele>205.0</ele><time>2026-04-27T15:53:14Z</time></trkpt><trkpt lat="30.381736845699606" lon="-8.96081969312661"><ele>205.0</ele><time>2026-04-27T15:53:15Z</time></trkpt><trkpt lat="30.38171257387474" lon="-8.96112502716013"><ele>205.0</ele><time>2026-04-27T15:53:16Z</time></trkpt><trkpt lat="30.381688522524584" lon="-8.961434680085112"><ele>205.0</ele><time>2026-04-27T15:53:17Z</time></trkpt><trkpt lat="30.381660583757007" lon="-8.96174160297155"><ele>206.0</ele><time>2026-04-27T15:53:18Z</time></trkpt><trkpt lat="30.381632421522724" lon="-8.962051605748092"><ele>207.0</ele><time>2026-04-27T15:53:19Z</time></trkpt><trkpt lat="30.38160361119864" lon="-8.962363196968465"><ele>207.0</ele><time>2026-04-27T15:53:20Z</time></trkpt><trkpt lat="30.381573800187113" lon="-8.962677385514622"><ele>207.0</ele><time>2026-04-27T15:53:21Z</time></trkpt><trkpt lat="30.381546350825786" lon="-8.962990895763465"><ele>207.0</ele><time>2026-04-27T15:53:22Z</time></trkpt><trkpt lat="30.381520650101013" lon="-8.963305008637988"><ele>207.0</ele><time>2026-04-27T15:53:23Z</time></trkpt><trkpt lat="30.381493824931834" lon="-8.96362058279135"><ele>206.5</ele><time>2026-04-27T15:53:24Z</time></trkpt><trkpt lat="30.381469727881" lon="-8.96393846194406"><ele>206.0</ele><time>2026-04-27T15:53:25Z</time></trkpt><trkpt lat="30.38144859780844" lon="-8.964255219773548"><ele>205.0</ele><time>2026-04-27T15:53:26Z</time></trkpt><trkpt lat="30.381433928538353" lon="-8.964572282154615"><ele>204.0</ele><time>2026-04-27T15:53:27Z</time></trkpt><trkpt lat="30.38142752770583" lon="-8.964889609561746"><ele>204.5</ele><time>2026-04-27T15:53:28Z</time></trkpt><trkpt lat="30.3814298806652" lon="-8.965207277772814"><ele>205.0</ele><time>2026-04-27T15:53:29Z</time></trkpt><trkpt lat="30.381389638992072" lon="-8.965517986122993"><ele>205.0</ele><time>2026-04-27T15:53:30Z</time></trkpt><trkpt lat="30.381441955157086" lon="-8.965842226977587"><ele>205.0</ele><time>2026-04-27T15:53:31Z</time></trkpt><trkpt lat="30.381447794926537" lon="-8.966160986132973"><ele>204.0</ele><time>2026-04-27T15:53:32Z</time></trkpt><trkpt lat="30.381456149341375" lon="-8.96647823135928"><ele>203.0</ele><time>2026-04-27T15:53:33Z</time></trkpt><trkpt lat="30.381464945392807" lon="-8.966798209929545"><ele>203.0</ele><time>2026-04-27T15:53:34Z</time></trkpt><trkpt lat="30.3814700593737" lon="-8.96711694557966"><ele>203.0</ele><time>2026-04-27T15:53:35Z</time></trkpt><trkpt lat="30.38147453576005" lon="-8.967436106508835"><ele>203.5</ele><time>2026-04-27T15:53:36Z</time></trkpt><trkpt lat="30.381477344558377" lon="-8.967757266170373"><ele>204.0</ele><time>2026-04-27T15:53:37Z</time></trkpt><trkpt lat="30.381482937459243" lon="-8.968077541198575"><ele>203.5</ele><time>2026-04-27T15:53:38Z</time></trkpt><trkpt lat="30.381488660470207" lon="-8.968399722904493"><ele>203.0</ele><time>2026-04-27T15:53:39Z</time></trkpt><trkpt lat="30.38149304696411" lon="-8.968722689462304"><ele>203.0</ele><time>2026-04-27T15:53:40Z</time></trkpt><trkpt lat="30.381500804842183" lon="-8.969045261351456"><ele>203.0</ele><time>2026-04-27T15:53:41Z</time></trkpt><trkpt lat="30.381507838658912" lon="-8.969367637861378"><ele>202.0</ele><time>2026-04-27T15:53:42Z</time></trkpt><trkpt lat="30.3815133772114" lon="-8.969691498625465"><ele>201.0</ele><time>2026-04-27T15:53:43Z</time></trkpt><trkpt lat="30.38151871882348" lon="-8.970016879385645"><ele>201.5</ele><time>2026-04-27T15:53:44Z</time></trkpt><trkpt lat="30.3815224986452" lon="-8.970340239535343"><ele>202.0</ele><time>2026-04-27T15:53:45Z</time></trkpt><trkpt lat="30.381528317472444" lon="-8.970662198762184"><ele>202.0</ele><time>2026-04-27T15:53:46Z</time></trkpt><trkpt lat="30.38153710215305" lon="-8.970982949968638"><ele>202.0</ele><time>2026-04-27T15:53:47Z</time></trkpt><trkpt lat="30.38154622736914" lon="-8.971304092313343"><ele>202.0</ele><time>2026-04-27T15:53:48Z</time></trkpt><trkpt lat="30.3815545926406" lon="-8.97162647937848"><ele>202.0</ele><time>2026-04-27T15:53:49Z</time></trkpt><trkpt lat="30.381561792926817" lon="-8.971948901642696"><ele>202.0</ele><time>2026-04-27T15:53:50Z</time></trkpt><trkpt lat="30.381568539496374" lon="-8.972266156511358"><ele>202.0</ele><time>2026-04-27T15:53:51Z</time></trkpt><trkpt lat="30.38157591947431" lon="-8.972581456236414"><ele>202.0</ele><time>2026-04-27T15:53:52Z</time></trkpt><trkpt lat="30.381583768986076" lon="-8.972896855485212"><ele>202.0</ele><time>2026-04-27T15:53:53Z</time></trkpt><trkpt lat="30.38159356547976" lon="-8.973210207610753"><ele>201.0</ele><time>2026-04-27T15:53:54Z</time></trkpt><trkpt lat="30.381607531048488" lon="-8.9735257817628"><ele>200.0</ele><time>2026-04-27T15:53:55Z</time></trkpt><trkpt lat="30.381625621334074" lon="-8.97384190178637"><ele>200.0</ele><time>2026-04-27T15:53:56Z</time></trkpt><trkpt lat="30.381642587678307" lon="-8.974159471247201"><ele>200.0</ele><time>2026-04-27T15:53:57Z</time></trkpt><trkpt lat="30.381660230512086" lon="-8.974476332251498"><ele>200.5</ele><time>2026-04-27T15:53:58Z</time></trkpt><trkpt lat="30.38167870686481" lon="-8.974795249240549"><ele>201.0</ele><time>2026-04-27T15:53:59Z</time></trkpt><trkpt lat="30.38169876678014" lon="-8.975113802696097"><ele>202.0</ele><time>2026-04-27T15:54:00Z</time></trkpt><trkpt lat="30.38171930578089" lon="-8.975433175947952"><ele>203.0</ele><time>2026-04-27T15:54:01Z</time></trkpt><trkpt lat="30.381740483424245" lon="-8.975752789403897"><ele>201.5</ele><time>2026-04-27T15:54:02Z</time></trkpt><trkpt lat="30.381757370320138" lon="-8.976073992079534"><ele>200.0</ele><time>2026-04-27T15:54:03Z</time></trkpt><trkpt lat="30.381768893302866" lon="-8.976394737416902"><ele>199.5</ele><time>2026-04-27T15:54:04Z</time></trkpt><trkpt lat="30.381783660488896" lon="-8.976713109428687"><ele>199.0</ele><time>2026-04-27T15:54:05Z</time></trkpt><trkpt lat="30.381803651471486" lon="-8.977030605311985"><ele>199.0</ele><time>2026-04-27T15:54:06Z</time></trkpt><trkpt lat="30.381825089040095" lon="-8.97735073184178"><ele>199.0</ele><time>2026-04-27T15:54:07Z</time></trkpt><trkpt lat="30.38184187957148" lon="-8.977666627564862"><ele>198.5</ele><time>2026-04-27T15:54:08Z</time></trkpt><trkpt lat="30.381857604098514" lon="-8.977985956829553"><ele>198.0</ele><time>2026-04-27T15:54:09Z</time></trkpt><trkpt lat="30.381869245998512" lon="-8.978305461404323"><ele>198.0</ele><time>2026-04-27T15:54:10Z</time></trkpt><trkpt lat="30.381878601386315" lon="-8.978626107440318"><ele>198.0</ele><time>2026-04-27T15:54:11Z</time></trkpt><trkpt lat="30.381879575273025" lon="-8.978941880023479"><ele>197.5</ele><time>2026-04-27T15:54:12Z</time></trkpt><trkpt lat="30.381867987134097" lon="-8.979231085157394"><ele>197.0</ele><time>2026-04-27T15:54:13Z</time></trkpt><trkpt lat="30.38184913408399" lon="-8.979495015973312"><ele>197.0</ele><time>2026-04-27T15:54:14Z</time></trkpt><trkpt lat="30.3818175043217" lon="-8.979750754632645"><ele>197.0</ele><time>2026-04-27T15:54:15Z</time></trkpt><trkpt lat="30.38176425542928" lon="-8.980010992214511"><ele>196.5</ele><time>2026-04-27T15:54:16Z</time></trkpt><trkpt lat="30.381688871173576" lon="-8.980274972440768"><ele>196.0</ele><time>2026-04-27T15:54:17Z</time></trkpt><trkpt lat="30.381596841746315" lon="-8.980544383771155"><ele>196.0</ele><time>2026-04-27T15:54:18Z</time></trkpt><trkpt lat="30.381493972919394" lon="-8.980816621568735"><ele>196.0</ele><time>2026-04-27T15:54:19Z</time></trkpt><trkpt lat="30.381382398222858" lon="-8.981091370033996"><ele>196.0</ele><time>2026-04-27T15:54:20Z</time></trkpt><trkpt lat="30.38126645255813" lon="-8.981359381588264"><ele>196.0</ele><time>2026-04-27T15:54:21Z</time></trkpt><trkpt lat="30.381150947337957" lon="-8.98162524711134"><ele>196.5</ele><time>2026-04-27T15:54:22Z</time></trkpt><trkpt lat="30.381039394144207" lon="-8.981896635803153"><ele>197.0</ele><time>2026-04-27T15:54:23Z</time></trkpt><trkpt lat="30.380934479635208" lon="-8.98216988413831"><ele>197.0</ele><time>2026-04-27T15:54:24Z</time></trkpt><trkpt lat="30.380840208883793" lon="-8.982448257446752"><ele>197.0</ele><time>2026-04-27T15:54:25Z</time></trkpt><trkpt lat="30.38075932327848" lon="-8.98273432792187"><ele>197.5</ele><time>2026-04-27T15:54:26Z</time></trkpt><trkpt lat="30.380689325115735" lon="-8.983021595287358"><ele>198.0</ele><time>2026-04-27T15:54:27Z</time></trkpt><trkpt lat="30.380632175630655" lon="-8.983313472138583"><ele>198.0</ele><time>2026-04-27T15:54:28Z</time></trkpt><trkpt lat="30.380598056977668" lon="-8.983610352257893"><ele>198.0</ele><time>2026-04-27T15:54:29Z</time></trkpt><trkpt lat="30.38059551782105" lon="-8.983909110682385"><ele>197.0</ele><time>2026-04-27T15:54:30Z</time></trkpt><trkpt lat="30.380625859120837" lon="-8.984202118101928"><ele>196.0</ele><time>2026-04-27T15:54:31Z</time></trkpt><trkpt lat="30.38067085505044" lon="-8.984494572758475"><ele>196.0</ele><time>2026-04-27T15:54:32Z</time></trkpt><trkpt lat="30.380720604298904" lon="-8.984785846685408"><ele>196.0</ele><time>2026-04-27T15:54:33Z</time></trkpt><trkpt lat="30.380765417719285" lon="-8.98507562887655"><ele>195.5</ele><time>2026-04-27T15:54:34Z</time></trkpt><trkpt lat="30.380811200424198" lon="-8.985365696154753"><ele>195.0</ele><time>2026-04-27T15:54:35Z</time></trkpt><trkpt lat="30.38085797379211" lon="-8.98565306335964"><ele>195.0</ele><time>2026-04-27T15:54:36Z</time></trkpt><trkpt lat="30.38090241025691" lon="-8.985940522422595"><ele>195.0</ele><time>2026-04-27T15:54:37Z</time></trkpt><trkpt lat="30.380949733439547" lon="-8.986235212128301"><ele>195.0</ele><time>2026-04-27T15:54:38Z</time></trkpt><trkpt lat="30.380998709331895" lon="-8.986525600467228"><ele>195.0</ele><time>2026-04-27T15:54:39Z</time></trkpt><trkpt lat="30.381048063197298" lon="-8.986815420489291"><ele>195.0</ele><time>2026-04-27T15:54:40Z</time></trkpt><trkpt lat="30.381092858287744" lon="-8.987104944437311"><ele>195.0</ele><time>2026-04-27T15:54:41Z</time></trkpt><trkpt lat="30.381136432077177" lon="-8.98739720894816"><ele>195.5</ele><time>2026-04-27T15:54:42Z</time></trkpt><trkpt lat="30.381179693678362" lon="-8.987686676797377"><ele>196.0</ele><time>2026-04-27T15:54:43Z</time></trkpt><trkpt lat="30.381222633627505" lon="-8.987977284858953"><ele>196.0</ele><time>2026-04-27T15:54:44Z</time></trkpt><trkpt lat="30.381266570235123" lon="-8.988268080827156"><ele>196.0</ele><time>2026-04-27T15:54:45Z</time></trkpt><trkpt lat="30.381311954661673" lon="-8.988561255482493"><ele>195.5</ele><time>2026-04-27T15:54:46Z</time></trkpt><trkpt lat="30.3813367883803" lon="-8.988856463553903"><ele>195.0</ele><time>2026-04-27T15:54:47Z</time></trkpt><trkpt lat="30.38137546371173" lon="-8.989148058321355"><ele>194.5</ele><time>2026-04-27T15:54:48Z</time></trkpt><trkpt lat="30.38141390108247" lon="-8.989437699809622"><ele>194.0</ele><time>2026-04-27T15:54:49Z</time></trkpt><trkpt lat="30.381452253553093" lon="-8.989725635151952"><ele>194.5</ele><time>2026-04-27T15:54:50Z</time></trkpt><trkpt lat="30.381492725011658" lon="-8.990012835491799"><ele>195.0</ele><time>2026-04-27T15:54:51Z</time></trkpt><trkpt lat="30.38153422872629" lon="-8.990297875173797"><ele>195.0</ele><time>2026-04-27T15:54:52Z</time></trkpt><trkpt lat="30.38157654829591" lon="-8.990586034136545"><ele>195.0</ele><time>2026-04-27T15:54:53Z</time></trkpt><trkpt lat="30.381618282457318" lon="-8.99087040360074"><ele>194.5</ele><time>2026-04-27T15:54:54Z</time></trkpt><trkpt lat="30.381656488645188" lon="-8.991154146592535"><ele>194.0</ele><time>2026-04-27T15:54:55Z</time></trkpt><trkpt lat="30.381686653488167" lon="-8.99144018472357"><ele>193.0</ele><time>2026-04-27T15:54:56Z</time></trkpt><trkpt lat="30.381703525707458" lon="-8.991729015565824"><ele>192.0</ele><time>2026-04-27T15:54:57Z</time></trkpt><trkpt lat="30.38170711408847" lon="-8.99202059710369"><ele>192.0</ele><time>2026-04-27T15:54:58Z</time></trkpt><trkpt lat="30.38169059812374" lon="-8.992305120274978"><ele>192.0</ele><time>2026-04-27T15:54:59Z</time></trkpt><trkpt lat="30.38166358978344" lon="-8.992591781082584"><ele>192.0</ele><time>2026-04-27T15:55:00Z</time></trkpt><trkpt lat="30.381625608342652" lon="-8.992881876128354"><ele>192.0</ele><time>2026-04-27T15:55:01Z</time></trkpt><trkpt lat="30.381578866571534" lon="-8.993167413415632"><ele>192.0</ele><time>2026-04-27T15:55:02Z</time></trkpt><trkpt lat="30.38152509728678" lon="-8.993453638795023"><ele>192.0</ele><time>2026-04-27T15:55:03Z</time></trkpt><trkpt lat="30.38146352363635" lon="-8.993741147024261"><ele>192.0</ele><time>2026-04-27T15:55:04Z</time></trkpt><trkpt lat="30.38140245153708" lon="-8.994028738773277"><ele>192.0</ele><time>2026-04-27T15:55:05Z</time></trkpt><trkpt lat="30.381341783317385" lon="-8.994314428663632"><ele>192.5</ele><time>2026-04-27T15:55:06Z</time></trkpt><trkpt lat="30.38127998085503" lon="-8.994600634327867"><ele>193.0</ele><time>2026-04-27T15:55:07Z</time></trkpt><trkpt lat="30.381232543374065" lon="-8.994895825361562"><ele>192.5</ele><time>2026-04-27T15:55:08Z</time></trkpt><trkpt lat="30.38116804556353" lon="-8.995185187602738"><ele>192.0</ele><time>2026-04-27T15:55:09Z</time></trkpt><trkpt lat="30.381085646429455" lon="-8.995469749312857"><ele>192.0</ele><time>2026-04-27T15:55:10Z</time></trkpt><trkpt lat="30.381019771841533" lon="-8.995755371295177"><ele>192.0</ele><time>2026-04-27T15:55:11Z</time></trkpt><trkpt lat="30.380953796541352" lon="-8.996042900392633"><ele>191.5</ele><time>2026-04-27T15:55:12Z</time></trkpt><trkpt lat="30.380888753316647" lon="-8.996330349475528"><ele>191.0</ele><time>2026-04-27T15:55:13Z</time></trkpt><trkpt lat="30.38082510186318" lon="-8.996616154531873"><ele>191.0</ele><time>2026-04-27T15:55:14Z</time></trkpt><trkpt lat="30.380762984923287" lon="-8.996898326984624"><ele>191.0</ele><time>2026-04-27T15:55:15Z</time></trkpt><trkpt lat="30.380699625611875" lon="-8.99718361387381"><ele>191.0</ele><time>2026-04-27T15:55:16Z</time></trkpt><trkpt lat="30.380637591291656" lon="-8.997462934768109"><ele>191.0</ele><time>2026-04-27T15:55:17Z</time></trkpt><trkpt lat="30.380574799816518" lon="-8.997745870084255"><ele>190.5</ele><time>2026-04-27T15:55:18Z</time></trkpt><trkpt lat="30.380514972215156" lon="-8.998025924484448"><ele>190.0</ele><time>2026-04-27T15:55:19Z</time></trkpt><trkpt lat="30.380455373438583" lon="-8.998304907464963"><ele>190.0</ele><time>2026-04-27T15:55:20Z</time></trkpt><trkpt lat="30.380396452535646" lon="-8.998584776487073"><ele>190.0</ele><time>2026-04-27T15:55:21Z</time></trkpt><trkpt lat="30.380352041260604" lon="-8.998868718492275"><ele>190.0</ele><time>2026-04-27T15:55:22Z</time></trkpt><trkpt lat="30.380288348951662" lon="-8.999146589659114"><ele>190.0</ele><time>2026-04-27T15:55:23Z</time></trkpt><trkpt lat="30.380220833480994" lon="-8.999425268958467"><ele>190.0</ele><time>2026-04-27T15:55:24Z</time></trkpt><trkpt lat="30.380155561132447" lon="-8.999702399923352"><ele>190.0</ele><time>2026-04-27T15:55:25Z</time></trkpt><trkpt lat="30.380089562332145" lon="-8.99998700610836"><ele>190.0</ele><time>2026-04-27T15:55:26Z</time></trkpt><trkpt lat="30.380027010256022" lon="-9.000267335971202"><ele>190.0</ele><time>2026-04-27T15:55:27Z</time></trkpt><trkpt lat="30.37996487506359" lon="-9.000548613281598"><ele>190.0</ele><time>2026-04-27T15:55:28Z</time></trkpt><trkpt lat="30.379903114645362" lon="-9.000828191458098"><ele>190.0</ele><time>2026-04-27T15:55:29Z</time></trkpt><trkpt lat="30.3798426626673" lon="-9.001109502755774"><ele>190.0</ele><time>2026-04-27T15:55:30Z</time></trkpt><trkpt lat="30.37978032052795" lon="-9.001392932481002"><ele>190.0</ele><time>2026-04-27T15:55:31Z</time></trkpt><trkpt lat="30.37971540551873" lon="-9.001675642085484"><ele>190.0</ele><time>2026-04-27T15:55:32Z</time></trkpt><trkpt lat="30.37965087209125" lon="-9.00196148783795"><ele>190.0</ele><time>2026-04-27T15:55:33Z</time></trkpt><trkpt lat="30.379587346673787" lon="-9.002246032048241"><ele>189.5</ele><time>2026-04-27T15:55:34Z</time></trkpt><trkpt lat="30.379522935528183" lon="-9.002531159557028"><ele>189.0</ele><time>2026-04-27T15:55:35Z</time></trkpt><trkpt lat="30.379457516529527" lon="-9.002816040022871"><ele>189.0</ele><time>2026-04-27T15:55:36Z</time></trkpt><trkpt lat="30.37939019226626" lon="-9.003100073090781"><ele>189.0</ele><time>2026-04-27T15:55:37Z</time></trkpt><trkpt lat="30.37932261848944" lon="-9.003384919965493"><ele>189.0</ele><time>2026-04-27T15:55:38Z</time></trkpt><trkpt lat="30.379258821737356" lon="-9.003671117085563"><ele>189.0</ele><time>2026-04-27T15:55:39Z</time></trkpt><trkpt lat="30.379194952687403" lon="-9.003956344658674"><ele>188.5</ele><time>2026-04-27T15:55:40Z</time></trkpt><trkpt lat="30.379129613374527" lon="-9.004236667166024"><ele>188.0</ele><time>2026-04-27T15:55:41Z</time></trkpt><trkpt lat="30.3790678081669" lon="-9.00451233239104"><ele>188.0</ele><time>2026-04-27T15:55:42Z</time></trkpt><trkpt lat="30.37900776680757" lon="-9.004788928466938"><ele>188.0</ele><time>2026-04-27T15:55:43Z</time></trkpt><trkpt lat="30.3789502103418" lon="-9.005059224698448"><ele>188.5</ele><time>2026-04-27T15:55:44Z</time></trkpt><trkpt lat="30.37889334891111" lon="-9.005328871517255"><ele>189.0</ele><time>2026-04-27T15:55:45Z</time></trkpt><trkpt lat="30.378837232065262" lon="-9.005594738641067"><ele>189.0</ele><time>2026-04-27T15:55:46Z</time></trkpt><trkpt lat="30.378777760552364" lon="-9.00586150045257"><ele>189.0</ele><time>2026-04-27T15:55:47Z</time></trkpt><trkpt lat="30.378714480779877" lon="-9.00612258816363"><ele>189.0</ele><time>2026-04-27T15:55:48Z</time></trkpt><trkpt lat="30.37865153196419" lon="-9.006365274238561"><ele>189.0</ele><time>2026-04-27T15:55:49Z</time></trkpt><trkpt lat="30.378592853585058" lon="-9.006587983808158"><ele>189.0</ele><time>2026-04-27T15:55:50Z</time></trkpt><trkpt lat="30.37854001000697" lon="-9.006809213900233"><ele>189.33333333333334</ele><time>2026-04-27T15:55:51Z</time></trkpt><trkpt lat="30.378488891442437" lon="-9.007042584743136"><ele>189.66666666666669</ele><time>2026-04-27T15:55:52Z</time></trkpt><trkpt lat="30.37843767403191" lon="-9.007285943797712"><ele>190.0</ele><time>2026-04-27T15:55:53Z</time></trkpt><trkpt lat="30.378388923231" lon="-9.007538555742643"><ele>189.0</ele><time>2026-04-27T15:55:54Z</time></trkpt><trkpt lat="30.37833947759834" lon="-9.007793361000296"><ele>188.0</ele><time>2026-04-27T15:55:55Z</time></trkpt><trkpt lat="30.378286764004987" lon="-9.008051645009115"><ele>188.0</ele><time>2026-04-27T15:55:56Z</time></trkpt><trkpt lat="30.378228693304983" lon="-9.008315120297238"><ele>188.0</ele><time>2026-04-27T15:55:57Z</time></trkpt><trkpt lat="30.37817386312372" lon="-9.0085845319313"><ele>188.0</ele><time>2026-04-27T15:55:58Z</time></trkpt><trkpt lat="30.378124573141843" lon="-9.008854130204877"><ele>188.0</ele><time>2026-04-27T15:55:59Z</time></trkpt><trkpt lat="30.37807873608233" lon="-9.009131372733362"><ele>188.0</ele><time>2026-04-27T15:56:00Z</time></trkpt><trkpt lat="30.378043375313673" lon="-9.009413164007762"><ele>188.0</ele><time>2026-04-27T15:56:01Z</time></trkpt><trkpt lat="30.378022134762954" lon="-9.00969850775757"><ele>188.0</ele><time>2026-04-27T15:56:02Z</time></trkpt><trkpt lat="30.37801793196779" lon="-9.00999033174582"><ele>188.0</ele><time>2026-04-27T15:56:03Z</time></trkpt><trkpt lat="30.378038061833312" lon="-9.010280687179494"><ele>188.5</ele><time>2026-04-27T15:56:04Z</time></trkpt><trkpt lat="30.378083489141762" lon="-9.010570982311544"><ele>189.0</ele><time>2026-04-27T15:56:05Z</time></trkpt><trkpt lat="30.378140424233973" lon="-9.010856296479236"><ele>189.0</ele><time>2026-04-27T15:56:06Z</time></trkpt><trkpt lat="30.37820352661612" lon="-9.011137371880515"><ele>189.0</ele><time>2026-04-27T15:56:07Z</time></trkpt><trkpt lat="30.378271967173607" lon="-9.01141874890196"><ele>188.0</ele><time>2026-04-27T15:56:08Z</time></trkpt><trkpt lat="30.378341869922217" lon="-9.011702569520342"><ele>187.0</ele><time>2026-04-27T15:56:09Z</time></trkpt><trkpt lat="30.378411376952823" lon="-9.011988793898023"><ele>187.0</ele><time>2026-04-27T15:56:10Z</time></trkpt><trkpt lat="30.378477710032247" lon="-9.012272431250258"><ele>187.0</ele><time>2026-04-27T15:56:11Z</time></trkpt><trkpt lat="30.378543330621714" lon="-9.012556475326225"><ele>187.0</ele><time>2026-04-27T15:56:12Z</time></trkpt><trkpt lat="30.378611547376003" lon="-9.012842070836975"><ele>187.0</ele><time>2026-04-27T15:56:13Z</time></trkpt><trkpt lat="30.378681647819285" lon="-9.013127445691223"><ele>186.5</ele><time>2026-04-27T15:56:14Z</time></trkpt><trkpt lat="30.378752328414894" lon="-9.013408110060972"><ele>186.0</ele><time>2026-04-27T15:56:15Z</time></trkpt><trkpt lat="30.378823515725113" lon="-9.013685487803581"><ele>186.0</ele><time>2026-04-27T15:56:16Z</time></trkpt><trkpt lat="30.378894300151824" lon="-9.013959020422963"><ele>186.0</ele><time>2026-04-27T15:56:17Z</time></trkpt><trkpt lat="30.378963036826264" lon="-9.01423288043463"><ele>186.0</ele><time>2026-04-27T15:56:18Z</time></trkpt><trkpt lat="30.379029004021902" lon="-9.01450346320335"><ele>186.0</ele><time>2026-04-27T15:56:19Z</time></trkpt><trkpt lat="30.379091188932694" lon="-9.014772792892513"><ele>186.0</ele><time>2026-04-27T15:56:20Z</time></trkpt><trkpt lat="30.379139698388887" lon="-9.015022247444213"><ele>186.0</ele><time>2026-04-27T15:56:21Z</time></trkpt><trkpt lat="30.379175676403037" lon="-9.015247892319824"><ele>186.0</ele><time>2026-04-27T15:56:22Z</time></trkpt><trkpt lat="30.379198474640305" lon="-9.015447596196363"><ele>186.0</ele><time>2026-04-27T15:56:23Z</time></trkpt><trkpt lat="30.379211889495828" lon="-9.015635727828453"><ele>186.0</ele><time>2026-04-27T15:56:24Z</time></trkpt><trkpt lat="30.379219107101466" lon="-9.015818164607419"><ele>186.0</ele><time>2026-04-27T15:56:25Z</time></trkpt><trkpt lat="30.379223543449005" lon="-9.01599029491816"><ele>186.0</ele><time>2026-04-27T15:56:26Z</time></trkpt><trkpt lat="30.37922665689181" lon="-9.01615630189664"><ele>186.0</ele><time>2026-04-27T15:56:27Z</time></trkpt><trkpt lat="30.379222118034694" lon="-9.01631025210984"><ele>186.0</ele><time>2026-04-27T15:56:28Z</time></trkpt><trkpt lat="30.379212107600562" lon="-9.016457485972586"><ele>186.0</ele><time>2026-04-27T15:56:29Z</time></trkpt><trkpt lat="30.379194100372604" lon="-9.01659762414913"><ele>185.5</ele><time>2026-04-27T15:56:30Z</time></trkpt><trkpt lat="30.37917344814029" lon="-9.01673607920079"><ele>185.0</ele><time>2026-04-27T15:56:31Z</time></trkpt><trkpt lat="30.37914445408144" lon="-9.01689194192265"><ele>184.5</ele><time>2026-04-27T15:56:32Z</time></trkpt><trkpt lat="30.379106684321734" lon="-9.017042723449407"><ele>184.0</ele><time>2026-04-27T15:56:33Z</time></trkpt><trkpt lat="30.379075320102665" lon="-9.017177867016207"><ele>184.0</ele><time>2026-04-27T15:56:34Z</time></trkpt><trkpt lat="30.37903970564995" lon="-9.017308332478493"><ele>184.0</ele><time>2026-04-27T15:56:35Z</time></trkpt><trkpt lat="30.378999897763787" lon="-9.017439198458895"><ele>184.0</ele><time>2026-04-27T15:56:36Z</time></trkpt><trkpt lat="30.378960653913605" lon="-9.017570354664644"><ele>184.0</ele><time>2026-04-27T15:56:37Z</time></trkpt><trkpt lat="30.37892121891226" lon="-9.017691192915278"><ele>183.79999999999998</ele><time>2026-04-27T15:56:38Z</time></trkpt><trkpt lat="30.3788875250257" lon="-9.017806924038304"><ele>183.6</ele><time>2026-04-27T15:56:39Z</time></trkpt><trkpt lat="30.37885407885516" lon="-9.017915678125473"><ele>183.4</ele><time>2026-04-27T15:56:40Z</time></trkpt><trkpt lat="30.378824027189676" lon="-9.018021034936982"><ele>183.2</ele><time>2026-04-27T15:56:41Z</time></trkpt><trkpt lat="30.37880127095039" lon="-9.018119613234031"><ele>183.0</ele><time>2026-04-27T15:56:42Z</time></trkpt><trkpt lat="30.37876147261482" lon="-9.01820449105851"><ele>183.2</ele><time>2026-04-27T15:56:43Z</time></trkpt><trkpt lat="30.378732446858432" lon="-9.01828038229244"><ele>183.4</ele><time>2026-04-27T15:56:44Z</time></trkpt><trkpt lat="30.3787485596948" lon="-9.018373894527306"><ele>183.6</ele><time>2026-04-27T15:56:45Z</time></trkpt><trkpt lat="30.3786776747879" lon="-9.01843666402091"><ele>183.79999999999998</ele><time>2026-04-27T15:56:46Z</time></trkpt><trkpt lat="30.37864730797555" lon="-9.018544599323619"><ele>184.0</ele><time>2026-04-27T15:56:47Z</time></trkpt><trkpt lat="30.37857143971283" lon="-9.018665322450975"><ele>184.0</ele><time>2026-04-27T15:56:48Z</time></trkpt><trkpt lat="30.378508006575927" lon="-9.018783965758846"><ele>184.0</ele><time>2026-04-27T15:56:49Z</time></trkpt><trkpt lat="30.378447823975197" lon="-9.018911578558697"><ele>184.0</ele><time>2026-04-27T15:56:50Z</time></trkpt><trkpt lat="30.378393982335762" lon="-9.019050516128276"><ele>184.0</ele><time>2026-04-27T15:56:51Z</time></trkpt><trkpt lat="30.378342039113427" lon="-9.019188622901845"><ele>184.0</ele><time>2026-04-27T15:56:52Z</time></trkpt><trkpt lat="30.37828816651032" lon="-9.019315652255552"><ele>184.0</ele><time>2026-04-27T15:56:53Z</time></trkpt><trkpt lat="30.37823654721955" lon="-9.019431791997414"><ele>184.0</ele><time>2026-04-27T15:56:54Z</time></trkpt><trkpt lat="30.378185557308743" lon="-9.019541228686595"><ele>184.0</ele><time>2026-04-27T15:56:55Z</time></trkpt><trkpt lat="30.378138538844954" lon="-9.019644821787752"><ele>184.0</ele><time>2026-04-27T15:56:56Z</time></trkpt><trkpt lat="30.37809312057451" lon="-9.019737095150246"><ele>184.0</ele><time>2026-04-27T15:56:57Z</time></trkpt><trkpt lat="30.378046833854164" lon="-9.01983430318001"><ele>184.0</ele><time>2026-04-27T15:56:59Z</time></trkpt><trkpt lat="30.3780214705765" lon="-9.019904520138287"><ele>184.0</ele><time>2026-04-27T15:57:05Z</time></trkpt><trkpt lat="30.377975494159994" lon="-9.019996007523211"><ele>184.0</ele><time>2026-04-27T15:57:08Z</time></trkpt><trkpt lat="30.377991733811044" lon="-9.020081827469884"><ele>184.0</ele><time>2026-04-27T15:57:09Z</time></trkpt><trkpt lat="30.377976574786278" lon="-9.020153933565108"><ele>184.0</ele><time>2026-04-27T15:57:10Z</time></trkpt><trkpt lat="30.377939095933595" lon="-9.020220857520755"><ele>184.2</ele><time>2026-04-27T15:57:11Z</time></trkpt><trkpt lat="30.377876634838483" lon="-9.02028320209955"><ele>184.39999999999998</ele><time>2026-04-27T15:57:12Z</time></trkpt><trkpt lat="30.37779621442565" lon="-9.02031961894878"><ele>184.6</ele><time>2026-04-27T15:57:13Z</time></trkpt><trkpt lat="30.37773318543893" lon="-9.020410990500062"><ele>184.8</ele><time>2026-04-27T15:57:14Z</time></trkpt><trkpt lat="30.377666226303496" lon="-9.020513209130947"><ele>185.0</ele><time>2026-04-27T15:57:15Z</time></trkpt><trkpt lat="30.377603328213937" lon="-9.020622472595525"><ele>185.0</ele><time>2026-04-27T15:57:16Z</time></trkpt><trkpt lat="30.377541028017305" lon="-9.020751343280736"><ele>185.0</ele><time>2026-04-27T15:57:17Z</time></trkpt><trkpt lat="30.377474397733337" lon="-9.020895020652405"><ele>185.0</ele><time>2026-04-27T15:57:18Z</time></trkpt><trkpt lat="30.377396697414348" lon="-9.021047515814955"><ele>185.0</ele><time>2026-04-27T15:57:19Z</time></trkpt><trkpt lat="30.377312400257154" lon="-9.021208494387393"><ele>185.25</ele><time>2026-04-27T15:57:20Z</time></trkpt><trkpt lat="30.37723351458627" lon="-9.02135993975455"><ele>185.5</ele><time>2026-04-27T15:57:21Z</time></trkpt><trkpt lat="30.377164091610823" lon="-9.021495838345581"><ele>185.75</ele><time>2026-04-27T15:57:22Z</time></trkpt><trkpt lat="30.377100700672262" lon="-9.021623573216914"><ele>186.0</ele><time>2026-04-27T15:57:23Z</time></trkpt><trkpt lat="30.377042854247946" lon="-9.021744739715173"><ele>186.0</ele><time>2026-04-27T15:57:24Z</time></trkpt><trkpt lat="30.37698353536883" lon="-9.021863735977416"><ele>186.0</ele><time>2026-04-27T15:57:25Z</time></trkpt><trkpt lat="30.376915885613595" lon="-9.021987591107706"><ele>186.0</ele><time>2026-04-27T15:57:26Z</time></trkpt><trkpt lat="30.376854249420106" lon="-9.022106426375167"><ele>186.0</ele><time>2026-04-27T15:57:27Z</time></trkpt><trkpt lat="30.376796757033286" lon="-9.022209381804542"><ele>186.0</ele><time>2026-04-27T15:57:28Z</time></trkpt><trkpt lat="30.37674263618819" lon="-9.022304162608238"><ele>186.0</ele><time>2026-04-27T15:57:29Z</time></trkpt><trkpt lat="30.37669434613908" lon="-9.022396105744551"><ele>186.0</ele><time>2026-04-27T15:57:30Z</time></trkpt><trkpt lat="30.376646828949983" lon="-9.022486027264314"><ele>186.0</ele><time>2026-04-27T15:57:31Z</time></trkpt><trkpt lat="30.376603911346212" lon="-9.022574350200383"><ele>186.0</ele><time>2026-04-27T15:57:32Z</time></trkpt><trkpt lat="30.376564058203336" lon="-9.022666261591834"><ele>185.25</ele><time>2026-04-27T15:57:33Z</time></trkpt><trkpt lat="30.376522196526505" lon="-9.022761995396197"><ele>184.5</ele><time>2026-04-27T15:57:34Z</time></trkpt><trkpt lat="30.37646151302954" lon="-9.022868377906837"><ele>183.75</ele><time>2026-04-27T15:57:35Z</time></trkpt><trkpt lat="30.376389321806574" lon="-9.022990844197095"><ele>183.0</ele><time>2026-04-27T15:57:36Z</time></trkpt><trkpt lat="30.376319797740578" lon="-9.02312106075631"><ele>182.75</ele><time>2026-04-27T15:57:37Z</time></trkpt><trkpt lat="30.37624922239453" lon="-9.023258056833972"><ele>182.5</ele><time>2026-04-27T15:57:38Z</time></trkpt><trkpt lat="30.37617415564501" lon="-9.023400472326516"><ele>182.25</ele><time>2026-04-27T15:57:39Z</time></trkpt><trkpt lat="30.37609614520121" lon="-9.02354553381038"><ele>182.0</ele><time>2026-04-27T15:57:40Z</time></trkpt><trkpt lat="30.376022791201684" lon="-9.02368691214905"><ele>182.0</ele><time>2026-04-27T15:57:41Z</time></trkpt><trkpt lat="30.37594806404428" lon="-9.023819912771486"><ele>182.0</ele><time>2026-04-27T15:57:42Z</time></trkpt><trkpt lat="30.375875290023483" lon="-9.023938643507922"><ele>182.0</ele><time>2026-04-27T15:57:43Z</time></trkpt><trkpt lat="30.375797652436148" lon="-9.024093786540229"><ele>182.0</ele><time>2026-04-27T15:57:44Z</time></trkpt><trkpt lat="30.375717112530292" lon="-9.024270614841397"><ele>181.66666666666666</ele><time>2026-04-27T15:57:45Z</time></trkpt><trkpt lat="30.37563038730204" lon="-9.024458265059318"><ele>181.33333333333334</ele><time>2026-04-27T15:57:46Z</time></trkpt><trkpt lat="30.375545573956142" lon="-9.024654561544263"><ele>181.0</ele><time>2026-04-27T15:57:47Z</time></trkpt><trkpt lat="30.375469294177183" lon="-9.024845197152063"><ele>181.33333333333334</ele><time>2026-04-27T15:57:48Z</time></trkpt><trkpt lat="30.37539291230611" lon="-9.025044348245927"><ele>181.66666666666666</ele><time>2026-04-27T15:57:49Z</time></trkpt><trkpt lat="30.37532507952161" lon="-9.025245206778417"><ele>182.0</ele><time>2026-04-27T15:57:50Z</time></trkpt><trkpt lat="30.37526266362495" lon="-9.025442422078775"><ele>182.0</ele><time>2026-04-27T15:57:51Z</time></trkpt><trkpt lat="30.375204096923763" lon="-9.025636990126166"><ele>182.0</ele><time>2026-04-27T15:57:52Z</time></trkpt><trkpt lat="30.37515259350026" lon="-9.025832703653045"><ele>182.0</ele><time>2026-04-27T15:57:53Z</time></trkpt><trkpt lat="30.37510522975388" lon="-9.026031049484953"><ele>181.33333333333331</ele><time>2026-04-27T15:57:54Z</time></trkpt><trkpt lat="30.375054159889483" lon="-9.026230196113067"><ele>180.66666666666666</ele><time>2026-04-27T15:57:55Z</time></trkpt><trkpt lat="30.37499206333148" lon="-9.026450392020381"><ele>180.0</ele><time>2026-04-27T15:57:56Z</time></trkpt><trkpt lat="30.374927469666446" lon="-9.026679946598904"><ele>180.0</ele><time>2026-04-27T15:57:57Z</time></trkpt><trkpt lat="30.374866176211526" lon="-9.026920903899484"><ele>180.0</ele><time>2026-04-27T15:57:58Z</time></trkpt><trkpt lat="30.374804372793776" lon="-9.027181677539474"><ele>180.0</ele><time>2026-04-27T15:57:59Z</time></trkpt><trkpt lat="30.374743478188776" lon="-9.027430245333466"><ele>180.0</ele><time>2026-04-27T15:58:00Z</time></trkpt><trkpt lat="30.37468929316104" lon="-9.027656414145117"><ele>180.0</ele><time>2026-04-27T15:58:01Z</time></trkpt><trkpt lat="30.37463555044643" lon="-9.027871441098602"><ele>180.0</ele><time>2026-04-27T15:58:02Z</time></trkpt><trkpt lat="30.37458389246663" lon="-9.028075469383612"><ele>180.0</ele><time>2026-04-27T15:58:03Z</time></trkpt><trkpt lat="30.374533912477276" lon="-9.028269871143557"><ele>180.0</ele><time>2026-04-27T15:58:04Z</time></trkpt><trkpt lat="30.374486286027" lon="-9.028466439622349"><ele>180.0</ele><time>2026-04-27T15:58:05Z</time></trkpt><trkpt lat="30.37443291501942" lon="-9.028671072266551"><ele>180.0</ele><time>2026-04-27T15:58:06Z</time></trkpt><trkpt lat="30.37437318084573" lon="-9.028906579643529"><ele>180.0</ele><time>2026-04-27T15:58:07Z</time></trkpt><trkpt lat="30.37431558721538" lon="-9.029143111305997"><ele>180.0</ele><time>2026-04-27T15:58:08Z</time></trkpt><trkpt lat="30.37426375250331" lon="-9.029356449815376"><ele>180.0</ele><time>2026-04-27T15:58:09Z</time></trkpt><trkpt lat="30.374214434777603" lon="-9.029566038732542"><ele>180.0</ele><time>2026-04-27T15:58:10Z</time></trkpt><trkpt lat="30.374165692854703" lon="-9.029770612076014"><ele>180.0</ele><time>2026-04-27T15:58:11Z</time></trkpt><trkpt lat="30.374117414392657" lon="-9.029964684382586"><ele>180.0</ele><time>2026-04-27T15:58:12Z</time></trkpt><trkpt lat="30.37406840589337" lon="-9.03017136150696"><ele>180.0</ele><time>2026-04-27T15:58:13Z</time></trkpt><trkpt lat="30.374012767804327" lon="-9.030394116452678"><ele>180.0</ele><time>2026-04-27T15:58:14Z</time></trkpt><trkpt lat="30.373952805502142" lon="-9.030627492771474"><ele>180.0</ele><time>2026-04-27T15:58:15Z</time></trkpt><trkpt lat="30.37389224547142" lon="-9.0308741869836"><ele>180.0</ele><time>2026-04-27T15:58:16Z</time></trkpt><trkpt lat="30.373830999666502" lon="-9.031121967192151"><ele>180.0</ele><time>2026-04-27T15:58:17Z</time></trkpt><trkpt lat="30.37376719232319" lon="-9.031376787502282"><ele>180.0</ele><time>2026-04-27T15:58:18Z</time></trkpt><trkpt lat="30.373703887938532" lon="-9.031633200051266"><ele>180.0</ele><time>2026-04-27T15:58:19Z</time></trkpt><trkpt lat="30.37363970664413" lon="-9.031897231499004"><ele>180.0</ele><time>2026-04-27T15:58:20Z</time></trkpt><trkpt lat="30.37357668770024" lon="-9.032162111584551"><ele>180.0</ele><time>2026-04-27T15:58:21Z</time></trkpt><trkpt lat="30.373511808366754" lon="-9.032426352578641"><ele>180.0</ele><time>2026-04-27T15:58:22Z</time></trkpt><trkpt lat="30.37344458016424" lon="-9.032684318930265"><ele>179.66666666666666</ele><time>2026-04-27T15:58:23Z</time></trkpt><trkpt lat="30.373379157605005" lon="-9.032935424036536"><ele>179.33333333333331</ele><time>2026-04-27T15:58:24Z</time></trkpt><trkpt lat="30.373316590514705" lon="-9.033179660939782"><ele>179.0</ele><time>2026-04-27T15:58:25Z</time></trkpt><trkpt lat="30.373258293343483" lon="-9.033417354238793"><ele>178.66666666666666</ele><time>2026-04-27T15:58:26Z</time></trkpt><trkpt lat="30.373201054450877" lon="-9.033642605524394"><ele>178.33333333333334</ele><time>2026-04-27T15:58:27Z</time></trkpt><trkpt lat="30.373145745214718" lon="-9.033856708495575"><ele>178.0</ele><time>2026-04-27T15:58:28Z</time></trkpt><trkpt lat="30.373094587287717" lon="-9.034060223588098"><ele>178.33333333333334</ele><time>2026-04-27T15:58:29Z</time></trkpt><trkpt lat="30.373046422852966" lon="-9.03425786112606"><ele>178.66666666666666</ele><time>2026-04-27T15:58:30Z</time></trkpt><trkpt lat="30.37299687135545" lon="-9.034458162840123"><ele>179.0</ele><time>2026-04-27T15:58:31Z</time></trkpt><trkpt lat="30.372947523735494" lon="-9.034663155521335"><ele>179.0</ele><time>2026-04-27T15:58:32Z</time></trkpt><trkpt lat="30.372899510430795" lon="-9.034870646811845"><ele>179.0</ele><time>2026-04-27T15:58:33Z</time></trkpt><trkpt lat="30.37286052888455" lon="-9.035083783056441"><ele>179.0</ele><time>2026-04-27T15:58:34Z</time></trkpt><trkpt lat="30.372832790454733" lon="-9.035306646895634"><ele>179.0</ele><time>2026-04-27T15:58:35Z</time></trkpt><trkpt lat="30.372817421944657" lon="-9.035535068683664"><ele>179.0</ele><time>2026-04-27T15:58:36Z</time></trkpt><trkpt lat="30.3728170334985" lon="-9.035759684533124"><ele>179.0</ele><time>2026-04-27T15:58:37Z</time></trkpt><trkpt lat="30.37281616396485" lon="-9.0359891745314"><ele>178.66666666666666</ele><time>2026-04-27T15:58:38Z</time></trkpt><trkpt lat="30.372815276117755" lon="-9.036221345496955"><ele>178.33333333333334</ele><time>2026-04-27T15:58:39Z</time></trkpt><trkpt lat="30.37281646031317" lon="-9.036452997786018"><ele>178.0</ele><time>2026-04-27T15:58:40Z</time></trkpt><trkpt lat="30.372816065707287" lon="-9.036684856873686"><ele>177.66666666666669</ele><time>2026-04-27T15:58:41Z</time></trkpt><trkpt lat="30.372813413692224" lon="-9.036917856531725"><ele>177.33333333333334</ele><time>2026-04-27T15:58:42Z</time></trkpt><trkpt lat="30.372809899552763" lon="-9.037151913657777"><ele>177.0</ele><time>2026-04-27T15:58:43Z</time></trkpt><trkpt lat="30.37280735816154" lon="-9.037385322005507"><ele>177.33333333333334</ele><time>2026-04-27T15:58:44Z</time></trkpt><trkpt lat="30.372805148747776" lon="-9.037622155565256"><ele>177.66666666666669</ele><time>2026-04-27T15:58:45Z</time></trkpt><trkpt lat="30.372804271519023" lon="-9.03785992971268"><ele>178.0</ele><time>2026-04-27T15:58:46Z</time></trkpt><trkpt lat="30.372803497062417" lon="-9.038097298237366"><ele>178.0</ele><time>2026-04-27T15:58:47Z</time></trkpt><trkpt lat="30.372800200981498" lon="-9.038340136076226"><ele>178.0</ele><time>2026-04-27T15:58:48Z</time></trkpt><trkpt lat="30.37279525226618" lon="-9.038580734074548"><ele>178.0</ele><time>2026-04-27T15:58:49Z</time></trkpt><trkpt lat="30.37279274389447" lon="-9.03882314041584"><ele>178.0</ele><time>2026-04-27T15:58:50Z</time></trkpt><trkpt lat="30.372791422619198" lon="-9.039063827928924"><ele>178.0</ele><time>2026-04-27T15:58:51Z</time></trkpt><trkpt lat="30.372789301603042" lon="-9.039305255447564"><ele>178.0</ele><time>2026-04-27T15:58:52Z</time></trkpt><trkpt lat="30.37278466547908" lon="-9.03954768223855"><ele>178.0</ele><time>2026-04-27T15:58:53Z</time></trkpt><trkpt lat="30.37277783406602" lon="-9.0397885660149"><ele>178.0</ele><time>2026-04-27T15:58:54Z</time></trkpt><trkpt lat="30.372773485368754" lon="-9.040025313403744"><ele>178.0</ele><time>2026-04-27T15:58:55Z</time></trkpt><trkpt lat="30.372767079214487" lon="-9.040259059429365"><ele>177.66666666666669</ele><time>2026-04-27T15:58:56Z</time></trkpt><trkpt lat="30.372761452406436" lon="-9.040491458650578"><ele>177.33333333333334</ele><time>2026-04-27T15:58:57Z</time></trkpt><trkpt lat="30.37275818183166" lon="-9.040719796293438"><ele>177.0</ele><time>2026-04-27T15:58:58Z</time></trkpt><trkpt lat="30.372751816724108" lon="-9.040949969265784"><ele>176.66666666666666</ele><time>2026-04-27T15:58:59Z</time></trkpt><trkpt lat="30.372743712405104" lon="-9.04117736101949"><ele>176.33333333333331</ele><time>2026-04-27T15:59:00Z</time></trkpt><trkpt lat="30.372735828158987" lon="-9.041405684139107"><ele>176.0</ele><time>2026-04-27T15:59:01Z</time></trkpt><trkpt lat="30.372728828249592" lon="-9.041629320020242"><ele>175.66666666666666</ele><time>2026-04-27T15:59:02Z</time></trkpt><trkpt lat="30.37272566950781" lon="-9.041854657096925"><ele>175.33333333333334</ele><time>2026-04-27T15:59:03Z</time></trkpt><trkpt lat="30.372728525081264" lon="-9.042080952767645"><ele>175.0</ele><time>2026-04-27T15:59:04Z</time></trkpt><trkpt lat="30.372733705710452" lon="-9.042301163513915"><ele>174.33333333333334</ele><time>2026-04-27T15:59:05Z</time></trkpt><trkpt lat="30.372737473922783" lon="-9.04252392046863"><ele>173.66666666666666</ele><time>2026-04-27T15:59:06Z</time></trkpt><trkpt lat="30.372739186212147" lon="-9.042745042381918"><ele>173.0</ele><time>2026-04-27T15:59:07Z</time></trkpt><trkpt lat="30.37273806081819" lon="-9.042966720431506"><ele>173.0</ele><time>2026-04-27T15:59:08Z</time></trkpt><trkpt lat="30.372731829093603" lon="-9.043184390375687"><ele>173.0</ele><time>2026-04-27T15:59:09Z</time></trkpt><trkpt lat="30.37272554021159" lon="-9.043403608588228"><ele>173.0</ele><time>2026-04-27T15:59:10Z</time></trkpt><trkpt lat="30.37272460609037" lon="-9.043620201673278"><ele>173.66666666666666</ele><time>2026-04-27T15:59:11Z</time></trkpt><trkpt lat="30.372727217497786" lon="-9.043834406639684"><ele>174.33333333333334</ele><time>2026-04-27T15:59:12Z</time></trkpt><trkpt lat="30.372725546807946" lon="-9.044048824817278"><ele>175.0</ele><time>2026-04-27T15:59:13Z</time></trkpt><trkpt lat="30.372719697574297" lon="-9.044261623544584"><ele>175.0</ele><time>2026-04-27T15:59:14Z</time></trkpt><trkpt lat="30.372709692448915" lon="-9.044472249352872"><ele>175.0</ele><time>2026-04-27T15:59:15Z</time></trkpt><trkpt lat="30.372699947694837" lon="-9.044686017890877"><ele>175.0</ele><time>2026-04-27T15:59:16Z</time></trkpt><trkpt lat="30.372682312843978" lon="-9.044893315701353"><ele>174.66666666666669</ele><time>2026-04-27T15:59:17Z</time></trkpt><trkpt lat="30.37265752262385" lon="-9.045104269420907"><ele>174.33333333333334</ele><time>2026-04-27T15:59:18Z</time></trkpt><trkpt lat="30.372620571207264" lon="-9.045307375638613"><ele>174.0</ele><time>2026-04-27T15:59:19Z</time></trkpt><trkpt lat="30.372582541886825" lon="-9.045509322159242"><ele>174.0</ele><time>2026-04-27T15:59:20Z</time></trkpt><trkpt lat="30.372543676411137" lon="-9.045714127267674"><ele>174.0</ele><time>2026-04-27T15:59:21Z</time></trkpt><trkpt lat="30.372513179422246" lon="-9.045915621937686"><ele>174.0</ele><time>2026-04-27T15:59:22Z</time></trkpt><trkpt lat="30.372481870555024" lon="-9.046119644915231"><ele>173.66666666666666</ele><time>2026-04-27T15:59:23Z</time></trkpt><trkpt lat="30.372448861887925" lon="-9.046318913662205"><ele>173.33333333333331</ele><time>2026-04-27T15:59:24Z</time></trkpt><trkpt lat="30.3724093350195" lon="-9.046521775869884"><ele>173.0</ele><time>2026-04-27T15:59:25Z</time></trkpt><trkpt lat="30.37236792124353" lon="-9.046722871256893"><ele>173.0</ele><time>2026-04-27T15:59:26Z</time></trkpt><trkpt lat="30.372328453155866" lon="-9.046925646477197"><ele>173.0</ele><time>2026-04-27T15:59:27Z</time></trkpt><trkpt lat="30.372291033114124" lon="-9.04713216755865"><ele>173.0</ele><time>2026-04-27T15:59:28Z</time></trkpt><trkpt lat="30.372256636627156" lon="-9.047334465875847"><ele>172.66666666666666</ele><time>2026-04-27T15:59:29Z</time></trkpt><trkpt lat="30.372226316621298" lon="-9.04753992131802"><ele>172.33333333333334</ele><time>2026-04-27T15:59:30Z</time></trkpt><trkpt lat="30.372197433153882" lon="-9.047748155732936"><ele>172.0</ele><time>2026-04-27T15:59:31Z</time></trkpt><trkpt lat="30.37217451336371" lon="-9.047961669667243"><ele>172.33333333333334</ele><time>2026-04-27T15:59:32Z</time></trkpt><trkpt lat="30.372162308011166" lon="-9.048174620013432"><ele>172.66666666666666</ele><time>2026-04-27T15:59:33Z</time></trkpt><trkpt lat="30.372164855860053" lon="-9.04839058330165"><ele>173.0</ele><time>2026-04-27T15:59:34Z</time></trkpt><trkpt lat="30.37218391096601" lon="-9.04860462693864"><ele>173.0</ele><time>2026-04-27T15:59:35Z</time></trkpt><trkpt lat="30.37221049746274" lon="-9.048820067414608"><ele>173.0</ele><time>2026-04-27T15:59:36Z</time></trkpt><trkpt lat="30.37223724216684" lon="-9.049040068210982"><ele>173.0</ele><time>2026-04-27T15:59:37Z</time></trkpt><trkpt lat="30.37225954926817" lon="-9.049262261767563"><ele>173.0</ele><time>2026-04-27T15:59:38Z</time></trkpt><trkpt lat="30.372278287480192" lon="-9.049485571299302"><ele>173.0</ele><time>2026-04-27T15:59:39Z</time></trkpt><trkpt lat="30.372299554892628" lon="-9.049706842666764"><ele>173.0</ele><time>2026-04-27T15:59:40Z</time></trkpt><trkpt lat="30.37232237571599" lon="-9.049930475653015"><ele>173.0</ele><time>2026-04-27T15:59:41Z</time></trkpt><trkpt lat="30.37234298370814" lon="-9.050157836327156"><ele>173.0</ele><time>2026-04-27T15:59:42Z</time></trkpt><trkpt lat="30.372354618388822" lon="-9.050386216285805"><ele>173.0</ele><time>2026-04-27T15:59:43Z</time></trkpt><trkpt lat="30.37235789861132" lon="-9.050617932706505"><ele>172.66666666666666</ele><time>2026-04-27T15:59:44Z</time></trkpt><trkpt lat="30.372353970657223" lon="-9.050851150874271"><ele>172.33333333333334</ele><time>2026-04-27T15:59:45Z</time></trkpt><trkpt lat="30.372338865373315" lon="-9.051085011531827"><ele>172.0</ele><time>2026-04-27T15:59:46Z</time></trkpt><trkpt lat="30.372310893133015" lon="-9.051319364988874"><ele>172.0</ele><time>2026-04-27T15:59:47Z</time></trkpt><trkpt lat="30.372266185246158" lon="-9.051550670020598"><ele>172.0</ele><time>2026-04-27T15:59:48Z</time></trkpt><trkpt lat="30.372205484040975" lon="-9.051774454559316"><ele>172.0</ele><time>2026-04-27T15:59:49Z</time></trkpt><trkpt lat="30.372134182701007" lon="-9.051996437415875"><ele>172.0</ele><time>2026-04-27T15:59:50Z</time></trkpt><trkpt lat="30.372060738996513" lon="-9.052218831675688"><ele>172.0</ele><time>2026-04-27T15:59:51Z</time></trkpt><trkpt lat="30.37198493700941" lon="-9.052433190388708"><ele>172.0</ele><time>2026-04-27T15:59:52Z</time></trkpt><trkpt lat="30.371908514467442" lon="-9.052640584419837"><ele>171.66666666666669</ele><time>2026-04-27T15:59:53Z</time></trkpt><trkpt lat="30.3718343796083" lon="-9.05284411579592"><ele>171.33333333333334</ele><time>2026-04-27T15:59:54Z</time></trkpt><trkpt lat="30.37176081354784" lon="-9.053039917943948"><ele>171.0</ele><time>2026-04-27T15:59:55Z</time></trkpt><trkpt lat="30.371686172765465" lon="-9.053233571807992"><ele>171.0</ele><time>2026-04-27T15:59:56Z</time></trkpt><trkpt lat="30.37160847497785" lon="-9.053427927498825"><ele>171.0</ele><time>2026-04-27T15:59:57Z</time></trkpt><trkpt lat="30.37153032637898" lon="-9.053622225014756"><ele>171.0</ele><time>2026-04-27T15:59:58Z</time></trkpt><trkpt lat="30.371451184447103" lon="-9.053820048922645"><ele>171.0</ele><time>2026-04-27T15:59:59Z</time></trkpt><trkpt lat="30.371370779390023" lon="-9.054018693890182"><ele>171.0</ele><time>2026-04-27T16:00:00Z</time></trkpt><trkpt lat="30.37129193073295" lon="-9.054223069335707"><ele>171.0</ele><time>2026-04-27T16:00:01Z</time></trkpt><trkpt lat="30.371215426281406" lon="-9.0544302725307"><ele>171.0</ele><time>2026-04-27T16:00:02Z</time></trkpt><trkpt lat="30.371139856981095" lon="-9.054641724822922"><ele>171.0</ele><time>2026-04-27T16:00:03Z</time></trkpt><trkpt lat="30.3710676716677" lon="-9.054856872797242"><ele>171.0</ele><time>2026-04-27T16:00:04Z</time></trkpt><trkpt lat="30.37099846020398" lon="-9.055076834462033"><ele>171.0</ele><time>2026-04-27T16:00:05Z</time></trkpt><trkpt lat="30.37093121192274" lon="-9.055297792692949"><ele>171.0</ele><time>2026-04-27T16:00:06Z</time></trkpt><trkpt lat="30.370868440835615" lon="-9.055522257034113"><ele>171.0</ele><time>2026-04-27T16:00:07Z</time></trkpt><trkpt lat="30.370809967172512" lon="-9.055749008366634"><ele>171.0</ele><time>2026-04-27T16:00:08Z</time></trkpt><trkpt lat="30.370755820545185" lon="-9.055981833529087"><ele>171.0</ele><time>2026-04-27T16:00:09Z</time></trkpt><trkpt lat="30.37070550257425" lon="-9.056218028419226"><ele>171.0</ele><time>2026-04-27T16:00:10Z</time></trkpt><trkpt lat="30.37066123247544" lon="-9.056456210334533"><ele>171.33333333333334</ele><time>2026-04-27T16:00:11Z</time></trkpt><trkpt lat="30.370621328736167" lon="-9.056694125768649"><ele>171.66666666666669</ele><time>2026-04-27T16:00:12Z</time></trkpt><trkpt lat="30.37058447299722" lon="-9.056934178035906"><ele>172.0</ele><time>2026-04-27T16:00:13Z</time></trkpt><trkpt lat="30.370551438487645" lon="-9.057178568408217"><ele>172.0</ele><time>2026-04-27T16:00:14Z</time></trkpt><trkpt lat="30.37052198253183" lon="-9.057423851209675"><ele>172.0</ele><time>2026-04-27T16:00:15Z</time></trkpt><trkpt lat="30.370498255885632" lon="-9.057669310950812"><ele>172.0</ele><time>2026-04-27T16:00:16Z</time></trkpt><trkpt lat="30.370474899967384" lon="-9.057918596438743"><ele>172.0</ele><time>2026-04-27T16:00:17Z</time></trkpt><trkpt lat="30.370452852054612" lon="-9.05816905880541"><ele>172.0</ele><time>2026-04-27T16:00:18Z</time></trkpt><trkpt lat="30.370427097603006" lon="-9.058421876690163"><ele>172.0</ele><time>2026-04-27T16:00:19Z</time></trkpt><trkpt lat="30.37039790614693" lon="-9.058675775940497"><ele>171.66666666666669</ele><time>2026-04-27T16:00:20Z</time></trkpt><trkpt lat="30.370369587707877" lon="-9.058928229260946"><ele>171.33333333333334</ele><time>2026-04-27T16:00:21Z</time></trkpt><trkpt lat="30.370340125948136" lon="-9.059180591359462"><ele>171.0</ele><time>2026-04-27T16:00:22Z</time></trkpt><trkpt lat="30.370308829101056" lon="-9.059434809967064"><ele>171.0</ele><time>2026-04-27T16:00:23Z</time></trkpt><trkpt lat="30.370275695789555" lon="-9.059690238911411"><ele>171.0</ele><time>2026-04-27T16:00:24Z</time></trkpt><trkpt lat="30.370243111403393" lon="-9.059945749579533"><ele>171.0</ele><time>2026-04-27T16:00:25Z</time></trkpt><trkpt lat="30.370209930158993" lon="-9.0602045838646"><ele>170.66666666666666</ele><time>2026-04-27T16:00:26Z</time></trkpt><trkpt lat="30.37017402610084" lon="-9.060460014236302"><ele>170.33333333333331</ele><time>2026-04-27T16:00:27Z</time></trkpt><trkpt lat="30.37013788625536" lon="-9.060714945880639"><ele>170.0</ele><time>2026-04-27T16:00:28Z</time></trkpt><trkpt lat="30.370104742254473" lon="-9.060970228444829"><ele>170.0</ele><time>2026-04-27T16:00:29Z</time></trkpt><trkpt lat="30.370073018277246" lon="-9.06122796218"><ele>170.0</ele><time>2026-04-27T16:00:30Z</time></trkpt><trkpt lat="30.370040346511107" lon="-9.061485480106622"><ele>170.0</ele><time>2026-04-27T16:00:31Z</time></trkpt><trkpt lat="30.370009214860072" lon="-9.061742831015566"><ele>170.0</ele><time>2026-04-27T16:00:32Z</time></trkpt><trkpt lat="30.36997765697875" lon="-9.061998971268487"><ele>170.0</ele><time>2026-04-27T16:00:33Z</time></trkpt><trkpt lat="30.36994476020952" lon="-9.062254019115159"><ele>170.0</ele><time>2026-04-27T16:00:34Z</time></trkpt><trkpt lat="30.36990888947013" lon="-9.062512245581937"><ele>170.0</ele><time>2026-04-27T16:00:35Z</time></trkpt><trkpt lat="30.369876529114723" lon="-9.062766861418153"><ele>170.0</ele><time>2026-04-27T16:00:36Z</time></trkpt><trkpt lat="30.36984453079744" lon="-9.063024157613118"><ele>170.0</ele><time>2026-04-27T16:00:37Z</time></trkpt><trkpt lat="30.36981351136979" lon="-9.063282308865501"><ele>169.5</ele><time>2026-04-27T16:00:38Z</time></trkpt><trkpt lat="30.369781556428652" lon="-9.063544632509576"><ele>169.0</ele><time>2026-04-27T16:00:39Z</time></trkpt><trkpt lat="30.369748514892457" lon="-9.063807110983022"><ele>169.0</ele><time>2026-04-27T16:00:40Z</time></trkpt><trkpt lat="30.369718044236652" lon="-9.064067292056798"><ele>169.0</ele><time>2026-04-27T16:00:41Z</time></trkpt><trkpt lat="30.369688242648767" lon="-9.064330731274449"><ele>169.5</ele><time>2026-04-27T16:00:42Z</time></trkpt><trkpt lat="30.369656570314046" lon="-9.064596951826966"><ele>170.0</ele><time>2026-04-27T16:00:43Z</time></trkpt><trkpt lat="30.369621880399638" lon="-9.064859923663734"><ele>169.0</ele><time>2026-04-27T16:00:44Z</time></trkpt><trkpt lat="30.36958934119297" lon="-9.065123636067852"><ele>168.0</ele><time>2026-04-27T16:00:45Z</time></trkpt><trkpt lat="30.369557384104574" lon="-9.06538923394366"><ele>168.0</ele><time>2026-04-27T16:00:46Z</time></trkpt><trkpt lat="30.36952689780308" lon="-9.065655082044982"><ele>168.0</ele><time>2026-04-27T16:00:47Z</time></trkpt><trkpt lat="30.369495976140826" lon="-9.065918336685773"><ele>168.5</ele><time>2026-04-27T16:00:48Z</time></trkpt><trkpt lat="30.36946339308191" lon="-9.066178957087734"><ele>169.0</ele><time>2026-04-27T16:00:49Z</time></trkpt><trkpt lat="30.369427404566217" lon="-9.066440508353883"><ele>168.5</ele><time>2026-04-27T16:00:50Z</time></trkpt><trkpt lat="30.3693836870792" lon="-9.06669576142448"><ele>168.0</ele><time>2026-04-27T16:00:51Z</time></trkpt><trkpt lat="30.36932385419666" lon="-9.066947317001622"><ele>168.0</ele><time>2026-04-27T16:00:52Z</time></trkpt><trkpt lat="30.369241726026267" lon="-9.067193407856227"><ele>168.0</ele><time>2026-04-27T16:00:53Z</time></trkpt><trkpt lat="30.369143024250015" lon="-9.067428369679963"><ele>167.66666666666666</ele><time>2026-04-27T16:00:54Z</time></trkpt><trkpt lat="30.369039090043714" lon="-9.067653923836891"><ele>167.33333333333331</ele><time>2026-04-27T16:00:55Z</time></trkpt><trkpt lat="30.3689345078707" lon="-9.067880246662568"><ele>167.0</ele><time>2026-04-27T16:00:56Z</time></trkpt><trkpt lat="30.36883124825559" lon="-9.068106121405481"><ele>167.0</ele><time>2026-04-27T16:00:57Z</time></trkpt><trkpt lat="30.36872730154683" lon="-9.068329492039577"><ele>167.0</ele><time>2026-04-27T16:00:58Z</time></trkpt><trkpt lat="30.368621114445556" lon="-9.068552839140336"><ele>167.0</ele><time>2026-04-27T16:00:59Z</time></trkpt><trkpt lat="30.368513894209265" lon="-9.068781856039825"><ele>167.0</ele><time>2026-04-27T16:01:00Z</time></trkpt><trkpt lat="30.368406753224846" lon="-9.069011539624302"><ele>167.0</ele><time>2026-04-27T16:01:01Z</time></trkpt><trkpt lat="30.368298400135934" lon="-9.06924473358016"><ele>167.0</ele><time>2026-04-27T16:01:02Z</time></trkpt><trkpt lat="30.368192054153067" lon="-9.06947589997241"><ele>167.0</ele><time>2026-04-27T16:01:03Z</time></trkpt><trkpt lat="30.36808446452124" lon="-9.06970805471034"><ele>167.0</ele><time>2026-04-27T16:01:04Z</time></trkpt><trkpt lat="30.367975173952768" lon="-9.069939695256465"><ele>167.0</ele><time>2026-04-27T16:01:05Z</time></trkpt><trkpt lat="30.367865061706258" lon="-9.070172430254246"><ele>168.0</ele><time>2026-04-27T16:01:06Z</time></trkpt><trkpt lat="30.36775819837142" lon="-9.070408251873413"><ele>169.0</ele><time>2026-04-27T16:01:07Z</time></trkpt><trkpt lat="30.36765223922001" lon="-9.070645266961698"><ele>170.0</ele><time>2026-04-27T16:01:08Z</time></trkpt><trkpt lat="30.367547806067186" lon="-9.07088144063545"><ele>171.0</ele><time>2026-04-27T16:01:09Z</time></trkpt><trkpt lat="30.367443105492704" lon="-9.07111859112645"><ele>171.0</ele><time>2026-04-27T16:01:10Z</time></trkpt><trkpt lat="30.367333861524973" lon="-9.071355851237984"><ele>171.0</ele><time>2026-04-27T16:01:11Z</time></trkpt><trkpt lat="30.367223031839814" lon="-9.071592225093708"><ele>170.0</ele><time>2026-04-27T16:01:12Z</time></trkpt><trkpt lat="30.367111797228404" lon="-9.071829651615705"><ele>169.0</ele><time>2026-04-27T16:01:13Z</time></trkpt><trkpt lat="30.367001111838594" lon="-9.072063856927823"><ele>169.0</ele><time>2026-04-27T16:01:14Z</time></trkpt><trkpt lat="30.36689354833262" lon="-9.072301428602705"><ele>169.0</ele><time>2026-04-27T16:01:15Z</time></trkpt><trkpt lat="30.366790390772813" lon="-9.072538191501136"><ele>168.0</ele><time>2026-04-27T16:01:16Z</time></trkpt><trkpt lat="30.366690757256976" lon="-9.072782024193002"><ele>167.0</ele><time>2026-04-27T16:01:17Z</time></trkpt><trkpt lat="30.366603015598766" lon="-9.073032377276553"><ele>167.5</ele><time>2026-04-27T16:01:18Z</time></trkpt><trkpt lat="30.36652896659135" lon="-9.07328709188627"><ele>168.0</ele><time>2026-04-27T16:01:19Z</time></trkpt><trkpt lat="30.366466165142857" lon="-9.073548397956532"><ele>168.0</ele><time>2026-04-27T16:01:20Z</time></trkpt><trkpt lat="30.366414334767068" lon="-9.073815882769399"><ele>168.0</ele><time>2026-04-27T16:01:21Z</time></trkpt><trkpt lat="30.366374844886387" lon="-9.074082965122598"><ele>167.0</ele><time>2026-04-27T16:01:22Z</time></trkpt><trkpt lat="30.366346217295423" lon="-9.074352681559311"><ele>166.0</ele><time>2026-04-27T16:01:23Z</time></trkpt><trkpt lat="30.366322985434863" lon="-9.07462260154458"><ele>166.0</ele><time>2026-04-27T16:01:24Z</time></trkpt><trkpt lat="30.366311580548636" lon="-9.074892508896104"><ele>166.0</ele><time>2026-04-27T16:01:25Z</time></trkpt><trkpt lat="30.366317324587417" lon="-9.075163582414739"><ele>166.0</ele><time>2026-04-27T16:01:26Z</time></trkpt><trkpt lat="30.366339052159866" lon="-9.07543348647707"><ele>166.0</ele><time>2026-04-27T16:01:27Z</time></trkpt><trkpt lat="30.366375921896093" lon="-9.075703214246424"><ele>165.5</ele><time>2026-04-27T16:01:28Z</time></trkpt><trkpt lat="30.36641997327728" lon="-9.075967656106615"><ele>165.0</ele><time>2026-04-27T16:01:29Z</time></trkpt><trkpt lat="30.36647269615629" lon="-9.076229699992675"><ele>165.0</ele><time>2026-04-27T16:01:30Z</time></trkpt><trkpt lat="30.366537949615847" lon="-9.07648661555455"><ele>165.0</ele><time>2026-04-27T16:01:31Z</time></trkpt><trkpt lat="30.36661646019207" lon="-9.076741109978483"><ele>165.0</ele><time>2026-04-27T16:01:32Z</time></trkpt><trkpt lat="30.366695460695038" lon="-9.076995197085797"><ele>165.0</ele><time>2026-04-27T16:01:33Z</time></trkpt><trkpt lat="30.366771526170616" lon="-9.077251360116307"><ele>165.0</ele><time>2026-04-27T16:01:34Z</time></trkpt><trkpt lat="30.366847175316526" lon="-9.077507435068275"><ele>165.0</ele><time>2026-04-27T16:01:35Z</time></trkpt><trkpt lat="30.36692033146972" lon="-9.077758729627032"><ele>165.0</ele><time>2026-04-27T16:01:36Z</time></trkpt><trkpt lat="30.366995304525283" lon="-9.07801096037594"><ele>165.0</ele><time>2026-04-27T16:01:37Z</time></trkpt><trkpt lat="30.367070538968957" lon="-9.078267514320036"><ele>165.5</ele><time>2026-04-27T16:01:38Z</time></trkpt><trkpt lat="30.367146570452235" lon="-9.078526449180147"><ele>166.0</ele><time>2026-04-27T16:01:39Z</time></trkpt><trkpt lat="30.367224320043043" lon="-9.078784826330834"><ele>166.0</ele><time>2026-04-27T16:01:40Z</time></trkpt><trkpt lat="30.367303975554552" lon="-9.079042409942092"><ele>166.0</ele><time>2026-04-27T16:01:41Z</time></trkpt><trkpt lat="30.367380659802397" lon="-9.079294113125261"><ele>166.0</ele><time>2026-04-27T16:01:42Z</time></trkpt><trkpt lat="30.36745637935767" lon="-9.079548659492014"><ele>166.0</ele><time>2026-04-27T16:01:43Z</time></trkpt><trkpt lat="30.367530760871066" lon="-9.07981161944952"><ele>166.0</ele><time>2026-04-27T16:01:44Z</time></trkpt><trkpt lat="30.367606332684474" lon="-9.080082806671422"><ele>166.0</ele><time>2026-04-27T16:01:45Z</time></trkpt><trkpt lat="30.367681353828207" lon="-9.08036265262385"><ele>166.0</ele><time>2026-04-27T16:01:46Z</time></trkpt><trkpt lat="30.367755427691232" lon="-9.0806456525665"><ele>166.0</ele><time>2026-04-27T16:01:47Z</time></trkpt><trkpt lat="30.367824127372305" lon="-9.080935234827038"><ele>166.0</ele><time>2026-04-27T16:01:48Z</time></trkpt><trkpt lat="30.367882646146473" lon="-9.08122978113129"><ele>166.0</ele><time>2026-04-27T16:01:49Z</time></trkpt><trkpt lat="30.36793155396912" lon="-9.081535609080374"><ele>164.5</ele><time>2026-04-27T16:01:50Z</time></trkpt><trkpt lat="30.36797089417893" lon="-9.08184629600609"><ele>163.0</ele><time>2026-04-27T16:01:51Z</time></trkpt><trkpt lat="30.368001452156683" lon="-9.082158331893618"><ele>163.5</ele><time>2026-04-27T16:01:52Z</time></trkpt><trkpt lat="30.368028772067355" lon="-9.082468879201873"><ele>164.0</ele><time>2026-04-27T16:01:53Z</time></trkpt><trkpt lat="30.36805790307544" lon="-9.082779097471816"><ele>164.0</ele><time>2026-04-27T16:01:54Z</time></trkpt><trkpt lat="30.368092361082596" lon="-9.083088166138628"><ele>164.0</ele><time>2026-04-27T16:01:55Z</time></trkpt><trkpt lat="30.368124841039645" lon="-9.083396529114339"><ele>165.0</ele><time>2026-04-27T16:01:56Z</time></trkpt><trkpt lat="30.368155399688153" lon="-9.08370479320601"><ele>166.0</ele><time>2026-04-27T16:01:57Z</time></trkpt><trkpt lat="30.368186219959398" lon="-9.084010915225322"><ele>165.0</ele><time>2026-04-27T16:01:58Z</time></trkpt><trkpt lat="30.36821908504883" lon="-9.08431424893636"><ele>164.0</ele><time>2026-04-27T16:01:59Z</time></trkpt><trkpt lat="30.36825437519609" lon="-9.084617810869997"><ele>164.0</ele><time>2026-04-27T16:02:00Z</time></trkpt><trkpt lat="30.368291871558498" lon="-9.084914636964122"><ele>164.0</ele><time>2026-04-27T16:02:01Z</time></trkpt><trkpt lat="30.36833185853948" lon="-9.085211887181316"><ele>163.5</ele><time>2026-04-27T16:02:02Z</time></trkpt><trkpt lat="30.36837248985528" lon="-9.085507261296003"><ele>163.0</ele><time>2026-04-27T16:02:03Z</time></trkpt><trkpt lat="30.368410791947117" lon="-9.085800544018761"><ele>163.0</ele><time>2026-04-27T16:02:04Z</time></trkpt><trkpt lat="30.36844172918597" lon="-9.086089848582326"><ele>163.0</ele><time>2026-04-27T16:02:05Z</time></trkpt><trkpt lat="30.3684681499659" lon="-9.086378535756857"><ele>163.5</ele><time>2026-04-27T16:02:06Z</time></trkpt><trkpt lat="30.368495143568303" lon="-9.08665602670694"><ele>164.0</ele><time>2026-04-27T16:02:07Z</time></trkpt><trkpt lat="30.368525098818836" lon="-9.086923414298433"><ele>164.0</ele><time>2026-04-27T16:02:08Z</time></trkpt><trkpt lat="30.368552959218913" lon="-9.087181603112002"><ele>164.0</ele><time>2026-04-27T16:02:09Z</time></trkpt><trkpt lat="30.368578433821394" lon="-9.087432536070832"><ele>164.0</ele><time>2026-04-27T16:02:10Z</time></trkpt><trkpt lat="30.368601234656698" lon="-9.087680081585438"><ele>164.0</ele><time>2026-04-27T16:02:11Z</time></trkpt><trkpt lat="30.368622780042877" lon="-9.087921530262106"><ele>164.0</ele><time>2026-04-27T16:02:12Z</time></trkpt><trkpt lat="30.3686466799259" lon="-9.088161003970095"><ele>164.0</ele><time>2026-04-27T16:02:13Z</time></trkpt><trkpt lat="30.368672768588524" lon="-9.088401400912762"><ele>163.66666666666666</ele><time>2026-04-27T16:02:14Z</time></trkpt><trkpt lat="30.36870153909757" lon="-9.088641026027187"><ele>163.33333333333334</ele><time>2026-04-27T16:02:15Z</time></trkpt><trkpt lat="30.368729864351966" lon="-9.088881408537073"><ele>163.0</ele><time>2026-04-27T16:02:16Z</time></trkpt><trkpt lat="30.368757016130942" lon="-9.08912214529521"><ele>163.0</ele><time>2026-04-27T16:02:17Z</time></trkpt><trkpt lat="30.368780445838667" lon="-9.089362300303186"><ele>163.0</ele><time>2026-04-27T16:02:18Z</time></trkpt><trkpt lat="30.36880335331913" lon="-9.089604576328146"><ele>163.0</ele><time>2026-04-27T16:02:19Z</time></trkpt><trkpt lat="30.368828962045132" lon="-9.089845379701696"><ele>163.0</ele><time>2026-04-27T16:02:20Z</time></trkpt><trkpt lat="30.36885670351224" lon="-9.09008396830672"><ele>163.0</ele><time>2026-04-27T16:02:21Z</time></trkpt><trkpt lat="30.368885057309488" lon="-9.09032689938396"><ele>163.0</ele><time>2026-04-27T16:02:22Z</time></trkpt><trkpt lat="30.368912805340564" lon="-9.090569685907655"><ele>163.33333333333334</ele><time>2026-04-27T16:02:23Z</time></trkpt><trkpt lat="30.368941048876817" lon="-9.090817981386591"><ele>163.66666666666666</ele><time>2026-04-27T16:02:24Z</time></trkpt><trkpt lat="30.368968614860535" lon="-9.09106743895465"><ele>164.0</ele><time>2026-04-27T16:02:25Z</time></trkpt><trkpt lat="30.368995986104856" lon="-9.091318436958584"><ele>164.0</ele><time>2026-04-27T16:02:26Z</time></trkpt><trkpt lat="30.369023171746687" lon="-9.091567609630523"><ele>164.0</ele><time>2026-04-27T16:02:27Z</time></trkpt><trkpt lat="30.36904905268193" lon="-9.091821501945816"><ele>164.0</ele><time>2026-04-27T16:02:28Z</time></trkpt><trkpt lat="30.36907280576274" lon="-9.092075368719286"><ele>163.66666666666666</ele><time>2026-04-27T16:02:29Z</time></trkpt><trkpt lat="30.36909931176346" lon="-9.092330946447227"><ele>163.33333333333334</ele><time>2026-04-27T16:02:30Z</time></trkpt><trkpt lat="30.369126642599102" lon="-9.092588132612038"><ele>163.0</ele><time>2026-04-27T16:02:31Z</time></trkpt><trkpt lat="30.36915402363253" lon="-9.092846428931985"><ele>162.5</ele><time>2026-04-27T16:02:32Z</time></trkpt><trkpt lat="30.369179712067467" lon="-9.093107636660744"><ele>162.0</ele><time>2026-04-27T16:02:33Z</time></trkpt><trkpt lat="30.36920507962595" lon="-9.093366417142496"><ele>162.0</ele><time>2026-04-27T16:02:34Z</time></trkpt><trkpt lat="30.369233235557587" lon="-9.093626449668252"><ele>162.0</ele><time>2026-04-27T16:02:35Z</time></trkpt><trkpt lat="30.369261880968303" lon="-9.09388913687937"><ele>162.0</ele><time>2026-04-27T16:02:36Z</time></trkpt><trkpt lat="30.369292049416003" lon="-9.094153281349941"><ele>162.0</ele><time>2026-04-27T16:02:37Z</time></trkpt><trkpt lat="30.36932154103407" lon="-9.09441887101477"><ele>162.0</ele><time>2026-04-27T16:02:38Z</time></trkpt><trkpt lat="30.369347351855485" lon="-9.09468534210255"><ele>162.0</ele><time>2026-04-27T16:02:39Z</time></trkpt><trkpt lat="30.369372213295293" lon="-9.09495196337394"><ele>161.5</ele><time>2026-04-27T16:02:40Z</time></trkpt><trkpt lat="30.369398939491354" lon="-9.09521989760495"><ele>161.0</ele><time>2026-04-27T16:02:41Z</time></trkpt><trkpt lat="30.36942658614667" lon="-9.095490683406206"><ele>161.5</ele><time>2026-04-27T16:02:42Z</time></trkpt><trkpt lat="30.369454738001128" lon="-9.09576000500806"><ele>162.0</ele><time>2026-04-27T16:02:43Z</time></trkpt><trkpt lat="30.369483692655148" lon="-9.096031556978858"><ele>162.0</ele><time>2026-04-27T16:02:44Z</time></trkpt><trkpt lat="30.369510663867086" lon="-9.09630172866564"><ele>162.0</ele><time>2026-04-27T16:02:45Z</time></trkpt><trkpt lat="30.369538471172113" lon="-9.096573403525385"><ele>161.5</ele><time>2026-04-27T16:02:46Z</time></trkpt><trkpt lat="30.36956913698962" lon="-9.096848189730803"><ele>161.0</ele><time>2026-04-27T16:02:47Z</time></trkpt><trkpt lat="30.36959990116999" lon="-9.097121007913383"><ele>161.0</ele><time>2026-04-27T16:02:48Z</time></trkpt><trkpt lat="30.369627685536997" lon="-9.097395288950027"><ele>161.0</ele><time>2026-04-27T16:02:49Z</time></trkpt><trkpt lat="30.369653316470135" lon="-9.09766902952217"><ele>161.0</ele><time>2026-04-27T16:02:50Z</time></trkpt><trkpt lat="30.36968083436952" lon="-9.09794110120266"><ele>161.0</ele><time>2026-04-27T16:02:51Z</time></trkpt><trkpt lat="30.369709556471093" lon="-9.098216752434366"><ele>161.0</ele><time>2026-04-27T16:02:52Z</time></trkpt><trkpt lat="30.369737849180154" lon="-9.09849028826465"><ele>161.0</ele><time>2026-04-27T16:02:53Z</time></trkpt><trkpt lat="30.369766643687917" lon="-9.098765536874897"><ele>161.0</ele><time>2026-04-27T16:02:54Z</time></trkpt><trkpt lat="30.369795958343616" lon="-9.099041029929275"><ele>161.0</ele><time>2026-04-27T16:02:55Z</time></trkpt><trkpt lat="30.369825029744344" lon="-9.099317083821726"><ele>161.5</ele><time>2026-04-27T16:02:56Z</time></trkpt><trkpt lat="30.369854697494468" lon="-9.099591955846144"><ele>162.0</ele><time>2026-04-27T16:02:57Z</time></trkpt><trkpt lat="30.36988054028208" lon="-9.099867591951346"><ele>162.0</ele><time>2026-04-27T16:02:58Z</time></trkpt><trkpt lat="30.369908190980258" lon="-9.100142136037856"><ele>162.0</ele><time>2026-04-27T16:02:59Z</time></trkpt><trkpt lat="30.369935971958647" lon="-9.100421593997412"><ele>162.0</ele><time>2026-04-27T16:03:00Z</time></trkpt><trkpt lat="30.369965341040594" lon="-9.100696377287996"><ele>162.0</ele><time>2026-04-27T16:03:01Z</time></trkpt><trkpt lat="30.369993348097854" lon="-9.100972714406678"><ele>162.0</ele><time>2026-04-27T16:03:02Z</time></trkpt><trkpt lat="30.37001904006619" lon="-9.101246357350398"><ele>162.0</ele><time>2026-04-27T16:03:03Z</time></trkpt><trkpt lat="30.3700463464432" lon="-9.101523404081654"><ele>162.0</ele><time>2026-04-27T16:03:04Z</time></trkpt><trkpt lat="30.37007471760627" lon="-9.10179665265842"><ele>162.0</ele><time>2026-04-27T16:03:05Z</time></trkpt><trkpt lat="30.370103966143482" lon="-9.10207465369088"><ele>162.0</ele><time>2026-04-27T16:03:06Z</time></trkpt><trkpt lat="30.37013504753363" lon="-9.102349867298617"><ele>162.0</ele><time>2026-04-27T16:03:07Z</time></trkpt><trkpt lat="30.370166841759968" lon="-9.102626615006674"><ele>162.0</ele><time>2026-04-27T16:03:08Z</time></trkpt><trkpt lat="30.3701975734416" lon="-9.102901019223145"><ele>162.0</ele><time>2026-04-27T16:03:09Z</time></trkpt><trkpt lat="30.370227104291846" lon="-9.103176459368168"><ele>161.0</ele><time>2026-04-27T16:03:10Z</time></trkpt><trkpt lat="30.3702561483617" lon="-9.103449518803716"><ele>160.0</ele><time>2026-04-27T16:03:11Z</time></trkpt><trkpt lat="30.370284216258558" lon="-9.103722851155387"><ele>160.0</ele><time>2026-04-27T16:03:12Z</time></trkpt><trkpt lat="30.37030971861029" lon="-9.10399670075719"><ele>160.0</ele><time>2026-04-27T16:03:13Z</time></trkpt><trkpt lat="30.370336604943045" lon="-9.104272620412504"><ele>160.0</ele><time>2026-04-27T16:03:14Z</time></trkpt><trkpt lat="30.370365240557277" lon="-9.104544363095135"><ele>160.0</ele><time>2026-04-27T16:03:15Z</time></trkpt><trkpt lat="30.370395661613077" lon="-9.104817418586874"><ele>159.0</ele><time>2026-04-27T16:03:16Z</time></trkpt><trkpt lat="30.370426663645034" lon="-9.105091655249652"><ele>158.0</ele><time>2026-04-27T16:03:17Z</time></trkpt><trkpt lat="30.370457194507164" lon="-9.105364352822155"><ele>158.0</ele><time>2026-04-27T16:03:18Z</time></trkpt><trkpt lat="30.37048427799047" lon="-9.105638371826839"><ele>158.0</ele><time>2026-04-27T16:03:19Z</time></trkpt><trkpt lat="30.370507063066334" lon="-9.105911288663552"><ele>158.0</ele><time>2026-04-27T16:03:20Z</time></trkpt><trkpt lat="30.370534459387308" lon="-9.106179513502417"><ele>158.0</ele><time>2026-04-27T16:03:21Z</time></trkpt><trkpt lat="30.3705620017703" lon="-9.106452472932158"><ele>158.0</ele><time>2026-04-27T16:03:22Z</time></trkpt><trkpt lat="30.370592698540843" lon="-9.106722328156042"><ele>158.0</ele><time>2026-04-27T16:03:23Z</time></trkpt><trkpt lat="30.370623097427472" lon="-9.106988208769717"><ele>158.0</ele><time>2026-04-27T16:03:24Z</time></trkpt><trkpt lat="30.370650607973683" lon="-9.107255226034427"><ele>158.0</ele><time>2026-04-27T16:03:25Z</time></trkpt><trkpt lat="30.37067589304807" lon="-9.107519821354247"><ele>158.0</ele><time>2026-04-27T16:03:26Z</time></trkpt><trkpt lat="30.3707000534826" lon="-9.107786785283112"><ele>158.0</ele><time>2026-04-27T16:03:27Z</time></trkpt><trkpt lat="30.370725442221445" lon="-9.10805501605385"><ele>158.0</ele><time>2026-04-27T16:03:28Z</time></trkpt><trkpt lat="30.370751352082753" lon="-9.108322749941934"><ele>158.0</ele><time>2026-04-27T16:03:29Z</time></trkpt><trkpt lat="30.370776022161802" lon="-9.108597225334957"><ele>158.0</ele><time>2026-04-27T16:03:30Z</time></trkpt><trkpt lat="30.37080283269371" lon="-9.108879167210288"><ele>158.0</ele><time>2026-04-27T16:03:31Z</time></trkpt><trkpt lat="30.370832483647746" lon="-9.109167522967185"><ele>158.5</ele><time>2026-04-27T16:03:32Z</time></trkpt><trkpt lat="30.370861820543116" lon="-9.109456903262826"><ele>159.0</ele><time>2026-04-27T16:03:33Z</time></trkpt><trkpt lat="30.370889967363656" lon="-9.109755190802028"><ele>159.5</ele><time>2026-04-27T16:03:34Z</time></trkpt><trkpt lat="30.370917484063998" lon="-9.110054110615952"><ele>160.0</ele><time>2026-04-27T16:03:35Z</time></trkpt><trkpt lat="30.370945530984816" lon="-9.110359985211339"><ele>160.0</ele><time>2026-04-27T16:03:36Z</time></trkpt><trkpt lat="30.370977539315376" lon="-9.11066930028131"><ele>160.0</ele><time>2026-04-27T16:03:37Z</time></trkpt><trkpt lat="30.37101083198067" lon="-9.110981603612094"><ele>160.0</ele><time>2026-04-27T16:03:38Z</time></trkpt><trkpt lat="30.371042051501302" lon="-9.11129559106839"><ele>160.0</ele><time>2026-04-27T16:03:39Z</time></trkpt><trkpt lat="30.371074098420017" lon="-9.111614830825783"><ele>160.0</ele><time>2026-04-27T16:03:40Z</time></trkpt><trkpt lat="30.371107451238817" lon="-9.11193350099787"><ele>160.0</ele><time>2026-04-27T16:03:41Z</time></trkpt><trkpt lat="30.371141538050697" lon="-9.112255676504411"><ele>159.0</ele><time>2026-04-27T16:03:42Z</time></trkpt><trkpt lat="30.37117858158216" lon="-9.112579649242006"><ele>158.0</ele><time>2026-04-27T16:03:43Z</time></trkpt><trkpt lat="30.37121904246717" lon="-9.11290318171353"><ele>158.0</ele><time>2026-04-27T16:03:44Z</time></trkpt><trkpt lat="30.371257338753082" lon="-9.113229568725895"><ele>158.0</ele><time>2026-04-27T16:03:45Z</time></trkpt><trkpt lat="30.37129422621242" lon="-9.113555806578589"><ele>158.5</ele><time>2026-04-27T16:03:46Z</time></trkpt><trkpt lat="30.371334209415277" lon="-9.11387758300941"><ele>159.0</ele><time>2026-04-27T16:03:47Z</time></trkpt><trkpt lat="30.37137938992224" lon="-9.114190791812149"><ele>159.5</ele><time>2026-04-27T16:03:48Z</time></trkpt><trkpt lat="30.371432113404428" lon="-9.114499042249866"><ele>160.0</ele><time>2026-04-27T16:03:49Z</time></trkpt><trkpt lat="30.371493735500326" lon="-9.114800729957327"><ele>159.0</ele><time>2026-04-27T16:03:50Z</time></trkpt><trkpt lat="30.371562525540945" lon="-9.115098170358698"><ele>158.0</ele><time>2026-04-27T16:03:51Z</time></trkpt><trkpt lat="30.371636001801722" lon="-9.115388024528615"><ele>158.0</ele><time>2026-04-27T16:03:52Z</time></trkpt><trkpt lat="30.37171190475374" lon="-9.11567886390681"><ele>158.0</ele><time>2026-04-27T16:03:53Z</time></trkpt><trkpt lat="30.37178925585659" lon="-9.115962295656718"><ele>158.0</ele><time>2026-04-27T16:03:54Z</time></trkpt><trkpt lat="30.371863378032344" lon="-9.116243243424872"><ele>158.0</ele><time>2026-04-27T16:03:55Z</time></trkpt><trkpt lat="30.371934913923802" lon="-9.116514764727523"><ele>158.0</ele><time>2026-04-27T16:03:56Z</time></trkpt><trkpt lat="30.372004827228015" lon="-9.116782953274846"><ele>158.0</ele><time>2026-04-27T16:03:57Z</time></trkpt><trkpt lat="30.372074974682644" lon="-9.117044445911635"><ele>158.0</ele><time>2026-04-27T16:03:58Z</time></trkpt><trkpt lat="30.37214470054003" lon="-9.117299570479027"><ele>158.0</ele><time>2026-04-27T16:03:59Z</time></trkpt><trkpt lat="30.3722127730694" lon="-9.117554774171829"><ele>158.5</ele><time>2026-04-27T16:04:00Z</time></trkpt><trkpt lat="30.3722793555429" lon="-9.117805623244987"><ele>159.0</ele><time>2026-04-27T16:04:01Z</time></trkpt><trkpt lat="30.372345914461846" lon="-9.118052763650256"><ele>158.66666666666666</ele><time>2026-04-27T16:04:02Z</time></trkpt><trkpt lat="30.37240836212524" lon="-9.118292151117076"><ele>158.33333333333331</ele><time>2026-04-27T16:04:03Z</time></trkpt><trkpt lat="30.372469556341553" lon="-9.118534951892679"><ele>158.0</ele><time>2026-04-27T16:04:04Z</time></trkpt><trkpt lat="30.372530263770713" lon="-9.118775015990392"><ele>158.0</ele><time>2026-04-27T16:04:05Z</time></trkpt><trkpt lat="30.372590826507" lon="-9.119008020264864"><ele>158.0</ele><time>2026-04-27T16:04:06Z</time></trkpt><trkpt lat="30.372653225906376" lon="-9.119243925185264"><ele>158.0</ele><time>2026-04-27T16:04:07Z</time></trkpt><trkpt lat="30.37271594357204" lon="-9.119474147505203"><ele>157.66666666666666</ele><time>2026-04-27T16:04:08Z</time></trkpt><trkpt lat="30.372778505890224" lon="-9.119702417093743"><ele>157.33333333333334</ele><time>2026-04-27T16:04:09Z</time></trkpt><trkpt lat="30.372841825251264" lon="-9.119933574400145"><ele>157.0</ele><time>2026-04-27T16:04:10Z</time></trkpt><trkpt lat="30.372903557165646" lon="-9.120164635655092"><ele>157.0</ele><time>2026-04-27T16:04:11Z</time></trkpt><trkpt lat="30.37296266789258" lon="-9.120396201768601"><ele>157.0</ele><time>2026-04-27T16:04:12Z</time></trkpt><trkpt lat="30.373025904938203" lon="-9.120635430933504"><ele>157.0</ele><time>2026-04-27T16:04:13Z</time></trkpt><trkpt lat="30.373085286471138" lon="-9.120871372648917"><ele>156.66666666666669</ele><time>2026-04-27T16:04:14Z</time></trkpt><trkpt lat="30.373146871016644" lon="-9.121103665986011"><ele>156.33333333333334</ele><time>2026-04-27T16:04:15Z</time></trkpt><trkpt lat="30.373208799082203" lon="-9.121338020133622"><ele>156.0</ele><time>2026-04-27T16:04:16Z</time></trkpt><trkpt lat="30.37327273426146" lon="-9.121573929879695"><ele>156.0</ele><time>2026-04-27T16:04:17Z</time></trkpt><trkpt lat="30.373335551089347" lon="-9.121808822614947"><ele>156.0</ele><time>2026-04-27T16:04:18Z</time></trkpt><trkpt lat="30.37339850560194" lon="-9.122046286336262"><ele>156.0</ele><time>2026-04-27T16:04:19Z</time></trkpt><trkpt lat="30.37346100119801" lon="-9.122283818174834"><ele>156.66666666666666</ele><time>2026-04-27T16:04:20Z</time></trkpt><trkpt lat="30.37352256166302" lon="-9.122522363467679"><ele>157.33333333333331</ele><time>2026-04-27T16:04:21Z</time></trkpt><trkpt lat="30.373584412491255" lon="-9.122762317036537"><ele>158.0</ele><time>2026-04-27T16:04:22Z</time></trkpt><trkpt lat="30.373645989328065" lon="-9.123003142700561"><ele>158.0</ele><time>2026-04-27T16:04:23Z</time></trkpt><trkpt lat="30.373707425427078" lon="-9.123245674325267"><ele>158.0</ele><time>2026-04-27T16:04:24Z</time></trkpt><trkpt lat="30.37377123716576" lon="-9.123484257626059"><ele>158.0</ele><time>2026-04-27T16:04:25Z</time></trkpt><trkpt lat="30.373835120175627" lon="-9.12372524771461"><ele>158.0</ele><time>2026-04-27T16:04:26Z</time></trkpt><trkpt lat="30.373899408161357" lon="-9.123969088497397"><ele>158.0</ele><time>2026-04-27T16:04:27Z</time></trkpt><trkpt lat="30.37396443972372" lon="-9.124213785501894"><ele>158.0</ele><time>2026-04-27T16:04:28Z</time></trkpt><trkpt lat="30.374007871180613" lon="-9.124465833325006"><ele>158.0</ele><time>2026-04-27T16:04:29Z</time></trkpt><trkpt lat="30.374072297917085" lon="-9.12471342866481"><ele>158.0</ele><time>2026-04-27T16:04:30Z</time></trkpt><trkpt lat="30.37413651432336" lon="-9.124961380373506"><ele>158.0</ele><time>2026-04-27T16:04:31Z</time></trkpt><trkpt lat="30.374199945253526" lon="-9.125209206549146"><ele>158.0</ele><time>2026-04-27T16:04:32Z</time></trkpt><trkpt lat="30.374279247763955" lon="-9.125450358751907"><ele>158.0</ele><time>2026-04-27T16:04:33Z</time></trkpt><trkpt lat="30.374343409254895" lon="-9.12569784817512"><ele>158.0</ele><time>2026-04-27T16:04:34Z</time></trkpt><trkpt lat="30.37439151111247" lon="-9.125948795924714"><ele>158.0</ele><time>2026-04-27T16:04:35Z</time></trkpt><trkpt lat="30.3744539646825" lon="-9.126191404780103"><ele>158.0</ele><time>2026-04-27T16:04:36Z</time></trkpt><trkpt lat="30.374517450084614" lon="-9.126434974677156"><ele>158.0</ele><time>2026-04-27T16:04:37Z</time></trkpt><trkpt lat="30.37458012093186" lon="-9.126678452605693"><ele>158.0</ele><time>2026-04-27T16:04:38Z</time></trkpt><trkpt lat="30.37465316124506" lon="-9.126918181286419"><ele>158.0</ele><time>2026-04-27T16:04:39Z</time></trkpt><trkpt lat="30.37471323643881" lon="-9.127160953500656"><ele>158.0</ele><time>2026-04-27T16:04:40Z</time></trkpt><trkpt lat="30.374778458128553" lon="-9.127403516282955"><ele>157.66666666666666</ele><time>2026-04-27T16:04:41Z</time></trkpt><trkpt lat="30.374847048613905" lon="-9.127644629746216"><ele>157.33333333333334</ele><time>2026-04-27T16:04:42Z</time></trkpt><trkpt lat="30.37489328498496" lon="-9.127889955831336"><ele>157.0</ele><time>2026-04-27T16:04:43Z</time></trkpt><trkpt lat="30.37495591670447" lon="-9.12813286009894"><ele>157.0</ele><time>2026-04-27T16:04:44Z</time></trkpt><trkpt lat="30.37501683585044" lon="-9.128369122504463"><ele>157.0</ele><time>2026-04-27T16:04:45Z</time></trkpt><trkpt lat="30.37507803762164" lon="-9.12860648097271"><ele>157.0</ele><time>2026-04-27T16:04:46Z</time></trkpt><trkpt lat="30.375139698342128" lon="-9.128845483376088"><ele>157.0</ele><time>2026-04-27T16:04:47Z</time></trkpt><trkpt lat="30.37520176914723" lon="-9.129085515388802"><ele>157.0</ele><time>2026-04-27T16:04:48Z</time></trkpt><trkpt lat="30.375263439524662" lon="-9.129323998921617"><ele>157.0</ele><time>2026-04-27T16:04:49Z</time></trkpt><trkpt lat="30.37532356459092" lon="-9.129556638596815"><ele>157.0</ele><time>2026-04-27T16:04:50Z</time></trkpt><trkpt lat="30.375384221858408" lon="-9.129791329096614"><ele>157.0</ele><time>2026-04-27T16:04:51Z</time></trkpt><trkpt lat="30.375442586238655" lon="-9.130016968676182"><ele>157.0</ele><time>2026-04-27T16:04:52Z</time></trkpt><trkpt lat="30.37549958437747" lon="-9.13023732629928"><ele>157.33333333333334</ele><time>2026-04-27T16:04:53Z</time></trkpt><trkpt lat="30.37556080180783" lon="-9.13045083900331"><ele>157.66666666666666</ele><time>2026-04-27T16:04:54Z</time></trkpt><trkpt lat="30.37559141284051" lon="-9.13067111064936"><ele>158.0</ele><time>2026-04-27T16:04:55Z</time></trkpt><trkpt lat="30.37559536721119" lon="-9.130887469267417"><ele>158.0</ele><time>2026-04-27T16:04:56Z</time></trkpt><trkpt lat="30.375611177426098" lon="-9.131099789733987"><ele>158.0</ele><time>2026-04-27T16:04:57Z</time></trkpt><trkpt lat="30.375609962861223" lon="-9.131308915852498"><ele>158.0</ele><time>2026-04-27T16:04:58Z</time></trkpt><trkpt lat="30.375611475285787" lon="-9.131524348848291"><ele>157.66666666666666</ele><time>2026-04-27T16:04:59Z</time></trkpt><trkpt lat="30.375602061812586" lon="-9.131740394251102"><ele>157.33333333333334</ele><time>2026-04-27T16:05:00Z</time></trkpt><trkpt lat="30.37558640010069" lon="-9.131961517646818"><ele>157.0</ele><time>2026-04-27T16:05:01Z</time></trkpt><trkpt lat="30.375564781830562" lon="-9.132188711564211"><ele>157.0</ele><time>2026-04-27T16:05:02Z</time></trkpt><trkpt lat="30.375524712982724" lon="-9.13241669529663"><ele>157.0</ele><time>2026-04-27T16:05:03Z</time></trkpt><trkpt lat="30.375497280299708" lon="-9.132654204071141"><ele>157.0</ele><time>2026-04-27T16:05:04Z</time></trkpt><trkpt lat="30.37543408166646" lon="-9.132886791759272"><ele>157.0</ele><time>2026-04-27T16:05:05Z</time></trkpt><trkpt lat="30.375363307927007" lon="-9.133122519594874"><ele>157.0</ele><time>2026-04-27T16:05:06Z</time></trkpt><trkpt lat="30.375289112474672" lon="-9.133360096621963"><ele>157.0</ele><time>2026-04-27T16:05:07Z</time></trkpt><trkpt lat="30.37520870562614" lon="-9.133599492223016"><ele>157.0</ele><time>2026-04-27T16:05:08Z</time></trkpt><trkpt lat="30.375127141113325" lon="-9.13384298033266"><ele>157.0</ele><time>2026-04-27T16:05:09Z</time></trkpt><trkpt lat="30.37504329455439" lon="-9.134091719047644"><ele>157.0</ele><time>2026-04-27T16:05:10Z</time></trkpt><trkpt lat="30.37495556356744" lon="-9.13433771204743"><ele>157.0</ele><time>2026-04-27T16:05:11Z</time></trkpt><trkpt lat="30.37486823625989" lon="-9.134592357607367"><ele>157.0</ele><time>2026-04-27T16:05:12Z</time></trkpt><trkpt lat="30.374779297061234" lon="-9.134849214897885"><ele>157.0</ele><time>2026-04-27T16:05:13Z</time></trkpt><trkpt lat="30.374691615382407" lon="-9.135105652823134"><ele>157.0</ele><time>2026-04-27T16:05:14Z</time></trkpt><trkpt lat="30.37460212139371" lon="-9.13536605671914"><ele>157.0</ele><time>2026-04-27T16:05:15Z</time></trkpt><trkpt lat="30.3745138459804" lon="-9.135626551756971"><ele>156.5</ele><time>2026-04-27T16:05:16Z</time></trkpt><trkpt lat="30.374423943640178" lon="-9.135888453892262"><ele>156.0</ele><time>2026-04-27T16:05:17Z</time></trkpt><trkpt lat="30.374333329494252" lon="-9.13615296634537"><ele>156.0</ele><time>2026-04-27T16:05:18Z</time></trkpt><trkpt lat="30.37424259756643" lon="-9.136415939484708"><ele>156.0</ele><time>2026-04-27T16:05:19Z</time></trkpt><trkpt lat="30.374154232583" lon="-9.136679677660156"><ele>156.0</ele><time>2026-04-27T16:05:20Z</time></trkpt><trkpt lat="30.37406505859978" lon="-9.136943111546863"><ele>156.0</ele><time>2026-04-27T16:05:21Z</time></trkpt><trkpt lat="30.373972434644628" lon="-9.137207105238085"><ele>156.0</ele><time>2026-04-27T16:05:22Z</time></trkpt><trkpt lat="30.37387009112675" lon="-9.137466086457303"><ele>156.0</ele><time>2026-04-27T16:05:23Z</time></trkpt><trkpt lat="30.373757675074195" lon="-9.137718495115543"><ele>156.0</ele><time>2026-04-27T16:05:24Z</time></trkpt><trkpt lat="30.37363160300829" lon="-9.137958151609961"><ele>156.0</ele><time>2026-04-27T16:05:25Z</time></trkpt><trkpt lat="30.373496611634952" lon="-9.138188785676917"><ele>157.5</ele><time>2026-04-27T16:05:26Z</time></trkpt><trkpt lat="30.373351862899778" lon="-9.138407819976791"><ele>159.0</ele><time>2026-04-27T16:05:27Z</time></trkpt><trkpt lat="30.373205037322514" lon="-9.138619884099455"><ele>159.0</ele><time>2026-04-27T16:05:28Z</time></trkpt><trkpt lat="30.37304979392062" lon="-9.138817451926283"><ele>159.0</ele><time>2026-04-27T16:05:29Z</time></trkpt><trkpt lat="30.372887034672623" lon="-9.139009329334966"><ele>159.0</ele><time>2026-04-27T16:05:30Z</time></trkpt><trkpt lat="30.372715263899174" lon="-9.139188950627913"><ele>159.0</ele><time>2026-04-27T16:05:31Z</time></trkpt><trkpt lat="30.372536084275808" lon="-9.13935514769626"><ele>159.0</ele><time>2026-04-27T16:05:32Z</time></trkpt><trkpt lat="30.372349595444778" lon="-9.139511921809465"><ele>159.0</ele><time>2026-04-27T16:05:33Z</time></trkpt><trkpt lat="30.37215849862951" lon="-9.1396604410535"><ele>158.5</ele><time>2026-04-27T16:05:34Z</time></trkpt><trkpt lat="30.371966141121458" lon="-9.139800725912377"><ele>158.0</ele><time>2026-04-27T16:05:35Z</time></trkpt><trkpt lat="30.371772879733236" lon="-9.139938743660577"><ele>159.5</ele><time>2026-04-27T16:05:36Z</time></trkpt><trkpt lat="30.37157685141882" lon="-9.140075155340295"><ele>161.0</ele><time>2026-04-27T16:05:37Z</time></trkpt><trkpt lat="30.371384672092415" lon="-9.140216521251924"><ele>159.0</ele><time>2026-04-27T16:05:38Z</time></trkpt><trkpt lat="30.37119832049647" lon="-9.14036743203809"><ele>157.0</ele><time>2026-04-27T16:05:39Z</time></trkpt><trkpt lat="30.371018053895185" lon="-9.14052436866179"><ele>157.0</ele><time>2026-04-27T16:05:40Z</time></trkpt><trkpt lat="30.370843187420082" lon="-9.140691692203726"><ele>157.0</ele><time>2026-04-27T16:05:41Z</time></trkpt><trkpt lat="30.370675049955388" lon="-9.140869494645171"><ele>157.0</ele><time>2026-04-27T16:05:42Z</time></trkpt><trkpt lat="30.370516086963583" lon="-9.141055213426162"><ele>157.0</ele><time>2026-04-27T16:05:43Z</time></trkpt><trkpt lat="30.3703621227796" lon="-9.141243891208992"><ele>157.0</ele><time>2026-04-27T16:05:44Z</time></trkpt><trkpt lat="30.370218440124365" lon="-9.141443460193967"><ele>157.0</ele><time>2026-04-27T16:05:45Z</time></trkpt><trkpt lat="30.370088368401273" lon="-9.141652917935732"><ele>157.0</ele><time>2026-04-27T16:05:46Z</time></trkpt><trkpt lat="30.369970502905517" lon="-9.141868124222052"><ele>157.66666666666669</ele><time>2026-04-27T16:05:47Z</time></trkpt><trkpt lat="30.369858840718855" lon="-9.14209108522334"><ele>158.33333333333334</ele><time>2026-04-27T16:05:48Z</time></trkpt><trkpt lat="30.369757981106556" lon="-9.142317681403227"><ele>159.0</ele><time>2026-04-27T16:05:49Z</time></trkpt><trkpt lat="30.369664838347862" lon="-9.142543972926665"><ele>159.0</ele><time>2026-04-27T16:05:50Z</time></trkpt><trkpt lat="30.369583307192137" lon="-9.142776746297367"><ele>159.0</ele><time>2026-04-27T16:05:51Z</time></trkpt><trkpt lat="30.369514505513983" lon="-9.143012611188972"><ele>159.0</ele><time>2026-04-27T16:05:52Z</time></trkpt><trkpt lat="30.369453584588967" lon="-9.143254784619087"><ele>160.0</ele><time>2026-04-27T16:05:53Z</time></trkpt><trkpt lat="30.369400282741847" lon="-9.143496420315696"><ele>161.0</ele><time>2026-04-27T16:05:54Z</time></trkpt><trkpt lat="30.36935541077332" lon="-9.143740043525913"><ele>162.0</ele><time>2026-04-27T16:05:55Z</time></trkpt><trkpt lat="30.369325399932407" lon="-9.143986400322882"><ele>161.66666666666666</ele><time>2026-04-27T16:05:56Z</time></trkpt><trkpt lat="30.36930574864341" lon="-9.144236138705715"><ele>161.33333333333331</ele><time>2026-04-27T16:05:57Z</time></trkpt><trkpt lat="30.369290069340856" lon="-9.144488638199334"><ele>161.0</ele><time>2026-04-27T16:05:58Z</time></trkpt><trkpt lat="30.36927473771969" lon="-9.144737838294102"><ele>161.0</ele><time>2026-04-27T16:05:59Z</time></trkpt><trkpt lat="30.369257250604182" lon="-9.14498836122325"><ele>161.0</ele><time>2026-04-27T16:06:00Z</time></trkpt><trkpt lat="30.36923926169359" lon="-9.145239195314046"><ele>161.0</ele><time>2026-04-27T16:06:01Z</time></trkpt><trkpt lat="30.36922114123429" lon="-9.145490128405806"><ele>160.33333333333331</ele><time>2026-04-27T16:06:02Z</time></trkpt><trkpt lat="30.36920049193676" lon="-9.14574508658727"><ele>159.66666666666666</ele><time>2026-04-27T16:06:03Z</time></trkpt><trkpt lat="30.36917877124684" lon="-9.14599809577495"><ele>159.0</ele><time>2026-04-27T16:06:04Z</time></trkpt><trkpt lat="30.36915790718676" lon="-9.146255939199316"><ele>159.0</ele><time>2026-04-27T16:06:05Z</time></trkpt><trkpt lat="30.369136782061204" lon="-9.146518692571814"><ele>159.0</ele><time>2026-04-27T16:06:06Z</time></trkpt><trkpt lat="30.36911669714944" lon="-9.1467871240921"><ele>159.0</ele><time>2026-04-27T16:06:07Z</time></trkpt><trkpt lat="30.369098776444606" lon="-9.147055563897744"><ele>159.0</ele><time>2026-04-27T16:06:08Z</time></trkpt><trkpt lat="30.36907752942738" lon="-9.14732830749557"><ele>159.0</ele><time>2026-04-27T16:06:09Z</time></trkpt><trkpt lat="30.369051545798573" lon="-9.147607171854084"><ele>159.0</ele><time>2026-04-27T16:06:10Z</time></trkpt><trkpt lat="30.369026975649007" lon="-9.147883661040876"><ele>159.0</ele><time>2026-04-27T16:06:11Z</time></trkpt><trkpt lat="30.369002678129764" lon="-9.148160183375035"><ele>159.0</ele><time>2026-04-27T16:06:12Z</time></trkpt><trkpt lat="30.368979712732163" lon="-9.148438004784111"><ele>158.5</ele><time>2026-04-27T16:06:13Z</time></trkpt><trkpt lat="30.36896027703077" lon="-9.148718104513593"><ele>158.0</ele><time>2026-04-27T16:06:14Z</time></trkpt><trkpt lat="30.3689374161485" lon="-9.148995445540507"><ele>158.5</ele><time>2026-04-27T16:06:15Z</time></trkpt><trkpt lat="30.368917754638936" lon="-9.149273818977155"><ele>159.0</ele><time>2026-04-27T16:06:16Z</time></trkpt><trkpt lat="30.368911313809964" lon="-9.149549685157943"><ele>159.0</ele><time>2026-04-27T16:06:17Z</time></trkpt><trkpt lat="30.36892523372589" lon="-9.149829132346865"><ele>159.0</ele><time>2026-04-27T16:06:18Z</time></trkpt><trkpt lat="30.368952615839763" lon="-9.150106504998302"><ele>160.0</ele><time>2026-04-27T16:06:19Z</time></trkpt><trkpt lat="30.368991339828185" lon="-9.150385276917554"><ele>161.0</ele><time>2026-04-27T16:06:20Z</time></trkpt><trkpt lat="30.369041942692743" lon="-9.150657678358936"><ele>160.0</ele><time>2026-04-27T16:06:21Z</time></trkpt><trkpt lat="30.369105436477778" lon="-9.15092976863471"><ele>159.0</ele><time>2026-04-27T16:06:22Z</time></trkpt><trkpt lat="30.369180496123512" lon="-9.151193849485999"><ele>159.0</ele><time>2026-04-27T16:06:23Z</time></trkpt><trkpt lat="30.369264711900357" lon="-9.151455294845798"><ele>159.0</ele><time>2026-04-27T16:06:24Z</time></trkpt><trkpt lat="30.369346940349473" lon="-9.15171847212844"><ele>158.5</ele><time>2026-04-27T16:06:25Z</time></trkpt><trkpt lat="30.369429859461178" lon="-9.151977223461325"><ele>158.0</ele><time>2026-04-27T16:06:26Z</time></trkpt><trkpt lat="30.369516558113133" lon="-9.152236193043375"><ele>157.0</ele><time>2026-04-27T16:06:27Z</time></trkpt><trkpt lat="30.36960560305551" lon="-9.152497532542107"><ele>156.0</ele><time>2026-04-27T16:06:28Z</time></trkpt><trkpt lat="30.369689931142926" lon="-9.152756336778516"><ele>157.0</ele><time>2026-04-27T16:06:29Z</time></trkpt><trkpt lat="30.369774258540126" lon="-9.15302105805615"><ele>158.0</ele><time>2026-04-27T16:06:30Z</time></trkpt><trkpt lat="30.369861508396326" lon="-9.153287905338052"><ele>158.0</ele><time>2026-04-27T16:06:31Z</time></trkpt><trkpt lat="30.369950882071027" lon="-9.153559097402837"><ele>158.0</ele><time>2026-04-27T16:06:32Z</time></trkpt><trkpt lat="30.370042582509083" lon="-9.153824733447035"><ele>157.0</ele><time>2026-04-27T16:06:33Z</time></trkpt><trkpt lat="30.370136004011496" lon="-9.154094602650327"><ele>156.0</ele><time>2026-04-27T16:06:34Z</time></trkpt><trkpt lat="30.370229049122894" lon="-9.154365778178905"><ele>156.0</ele><time>2026-04-27T16:06:35Z</time></trkpt><trkpt lat="30.370321365410394" lon="-9.15464421031193"><ele>156.0</ele><time>2026-04-27T16:06:36Z</time></trkpt><trkpt lat="30.370414159751007" lon="-9.154919316150664"><ele>155.5</ele><time>2026-04-27T16:06:37Z</time></trkpt><trkpt lat="30.37050434065102" lon="-9.155196173372683"><ele>155.0</ele><time>2026-04-27T16:06:38Z</time></trkpt><trkpt lat="30.370594418060644" lon="-9.155474686941451"><ele>155.5</ele><time>2026-04-27T16:06:39Z</time></trkpt><trkpt lat="30.370685105281048" lon="-9.155754532211532"><ele>156.0</ele><time>2026-04-27T16:06:40Z</time></trkpt><trkpt lat="30.370775945909003" lon="-9.156036002131186"><ele>156.0</ele><time>2026-04-27T16:06:41Z</time></trkpt><trkpt lat="30.37086342518724" lon="-9.156319972922562"><ele>156.0</ele><time>2026-04-27T16:06:42Z</time></trkpt><trkpt lat="30.37093957257858" lon="-9.156601855039677"><ele>155.5</ele><time>2026-04-27T16:06:43Z</time></trkpt><trkpt lat="30.371005711627614" lon="-9.156889943864053"><ele>155.0</ele><time>2026-04-27T16:06:44Z</time></trkpt><trkpt lat="30.37106156980874" lon="-9.15718195016919"><ele>155.0</ele><time>2026-04-27T16:06:45Z</time></trkpt><trkpt lat="30.371108524648307" lon="-9.157480817511866"><ele>155.0</ele><time>2026-04-27T16:06:46Z</time></trkpt><trkpt lat="30.37114667794748" lon="-9.15777757633787"><ele>155.0</ele><time>2026-04-27T16:06:47Z</time></trkpt><trkpt lat="30.371171894757886" lon="-9.158079006870855"><ele>155.0</ele><time>2026-04-27T16:06:48Z</time></trkpt><trkpt lat="30.37119106553551" lon="-9.158382554594828"><ele>154.0</ele><time>2026-04-27T16:06:49Z</time></trkpt><trkpt lat="30.37120382617531" lon="-9.158687017088454"><ele>153.0</ele><time>2026-04-27T16:06:50Z</time></trkpt><trkpt lat="30.371206856773707" lon="-9.158993077303505"><ele>153.5</ele><time>2026-04-27T16:06:51Z</time></trkpt><trkpt lat="30.3712032833034" lon="-9.159299925265772"><ele>154.0</ele><time>2026-04-27T16:06:52Z</time></trkpt><trkpt lat="30.371202578935257" lon="-9.159606870864506"><ele>154.5</ele><time>2026-04-27T16:06:53Z</time></trkpt><trkpt lat="30.371204253605804" lon="-9.159910501916153"><ele>155.0</ele><time>2026-04-27T16:06:54Z</time></trkpt><trkpt lat="30.371208073090195" lon="-9.16021299511222"><ele>155.0</ele><time>2026-04-27T16:06:55Z</time></trkpt><trkpt lat="30.371211822674727" lon="-9.160516636058398"><ele>155.0</ele><time>2026-04-27T16:06:56Z</time></trkpt><trkpt lat="30.371216930549576" lon="-9.16082171463923"><ele>154.5</ele><time>2026-04-27T16:06:57Z</time></trkpt><trkpt lat="30.371219849952737" lon="-9.161128227817198"><ele>154.0</ele><time>2026-04-27T16:06:58Z</time></trkpt><trkpt lat="30.371221957431214" lon="-9.161433872118758"><ele>154.5</ele><time>2026-04-27T16:06:59Z</time></trkpt><trkpt lat="30.371225692264275" lon="-9.161737740824536"><ele>155.0</ele><time>2026-04-27T16:07:00Z</time></trkpt><trkpt lat="30.371230137442815" lon="-9.162044575420964"><ele>155.0</ele><time>2026-04-27T16:07:01Z</time></trkpt><trkpt lat="30.371233072444227" lon="-9.162353117144066"><ele>155.0</ele><time>2026-04-27T16:07:02Z</time></trkpt><trkpt lat="30.371233974117914" lon="-9.162661613366362"><ele>154.5</ele><time>2026-04-27T16:07:03Z</time></trkpt><trkpt lat="30.371234426719653" lon="-9.1629705022626"><ele>154.0</ele><time>2026-04-27T16:07:04Z</time></trkpt><trkpt lat="30.371236732565446" lon="-9.163279382833403"><ele>154.0</ele><time>2026-04-27T16:07:05Z</time></trkpt><trkpt lat="30.37124136372218" lon="-9.163588976975575"><ele>154.0</ele><time>2026-04-27T16:07:06Z</time></trkpt><trkpt lat="30.371245210994626" lon="-9.163896564339387"><ele>154.5</ele><time>2026-04-27T16:07:07Z</time></trkpt><trkpt lat="30.37124869590652" lon="-9.164202654474128"><ele>155.0</ele><time>2026-04-27T16:07:08Z</time></trkpt><trkpt lat="30.37125136414954" lon="-9.164511215165945"><ele>155.0</ele><time>2026-04-27T16:07:09Z</time></trkpt><trkpt lat="30.371253476780094" lon="-9.16481951211049"><ele>155.0</ele><time>2026-04-27T16:07:10Z</time></trkpt><trkpt lat="30.371255933616435" lon="-9.16512690649167"><ele>155.0</ele><time>2026-04-27T16:07:11Z</time></trkpt><trkpt lat="30.371260213156408" lon="-9.165436449279367"><ele>155.0</ele><time>2026-04-27T16:07:12Z</time></trkpt><trkpt lat="30.371262992379524" lon="-9.165745085981122"><ele>155.0</ele><time>2026-04-27T16:07:13Z</time></trkpt><trkpt lat="30.37126312879482" lon="-9.166051770868446"><ele>155.0</ele><time>2026-04-27T16:07:14Z</time></trkpt><trkpt lat="30.37125291435945" lon="-9.166354485312358"><ele>154.5</ele><time>2026-04-27T16:07:15Z</time></trkpt><trkpt lat="30.371227020169798" lon="-9.166656753701941"><ele>154.0</ele><time>2026-04-27T16:07:16Z</time></trkpt><trkpt lat="30.37118373960098" lon="-9.166958697905576"><ele>154.0</ele><time>2026-04-27T16:07:17Z</time></trkpt><trkpt lat="30.371120195224794" lon="-9.167255913245857"><ele>154.0</ele><time>2026-04-27T16:07:18Z</time></trkpt><trkpt lat="30.371031120417637" lon="-9.16754048877834"><ele>153.0</ele><time>2026-04-27T16:07:19Z</time></trkpt><trkpt lat="30.37091218411782" lon="-9.167807965476172"><ele>152.0</ele><time>2026-04-27T16:07:20Z</time></trkpt><trkpt lat="30.370767207685724" lon="-9.168057553028238"><ele>153.0</ele><time>2026-04-27T16:07:21Z</time></trkpt><trkpt lat="30.3706052547247" lon="-9.168293806738205"><ele>154.0</ele><time>2026-04-27T16:07:22Z</time></trkpt><trkpt lat="30.370420245664793" lon="-9.168498181686408"><ele>154.0</ele><time>2026-04-27T16:07:23Z</time></trkpt><trkpt lat="30.37021403154861" lon="-9.16867526788071"><ele>154.0</ele><time>2026-04-27T16:07:24Z</time></trkpt><trkpt lat="30.370001977535825" lon="-9.168818409681867"><ele>154.0</ele><time>2026-04-27T16:07:25Z</time></trkpt><trkpt lat="30.369796313488315" lon="-9.168931306017571"><ele>154.0</ele><time>2026-04-27T16:07:26Z</time></trkpt><trkpt lat="30.369596534183337" lon="-9.169014761341714"><ele>154.0</ele><time>2026-04-27T16:07:27Z</time></trkpt><trkpt lat="30.369400467816988" lon="-9.169084659863175"><ele>154.33333333333334</ele><time>2026-04-27T16:07:28Z</time></trkpt><trkpt lat="30.369216111958785" lon="-9.169127942660658"><ele>154.66666666666666</ele><time>2026-04-27T16:07:29Z</time></trkpt><trkpt lat="30.36903810978518" lon="-9.169169926234526"><ele>155.0</ele><time>2026-04-27T16:07:30Z</time></trkpt><trkpt lat="30.368868274205056" lon="-9.169210246790644"><ele>155.0</ele><time>2026-04-27T16:07:31Z</time></trkpt><trkpt lat="30.36871369155207" lon="-9.169253524019897"><ele>155.0</ele><time>2026-04-27T16:07:32Z</time></trkpt><trkpt lat="30.368560797670487" lon="-9.169292236417679"><ele>155.0</ele><time>2026-04-27T16:07:33Z</time></trkpt><trkpt lat="30.36842143839585" lon="-9.169329750455919"><ele>155.0</ele><time>2026-04-27T16:07:34Z</time></trkpt><trkpt lat="30.368286442750218" lon="-9.169364259865302"><ele>155.0</ele><time>2026-04-27T16:07:35Z</time></trkpt><trkpt lat="30.36816128779466" lon="-9.169398505165155"><ele>155.0</ele><time>2026-04-27T16:07:36Z</time></trkpt><trkpt lat="30.368041421445444" lon="-9.169434094388068"><ele>155.0</ele><time>2026-04-27T16:07:37Z</time></trkpt><trkpt lat="30.367939175318522" lon="-9.169471343777193"><ele>155.16666666666666</ele><time>2026-04-27T16:07:38Z</time></trkpt><trkpt lat="30.367856317218934" lon="-9.169509715736014"><ele>155.33333333333331</ele><time>2026-04-27T16:07:39Z</time></trkpt><trkpt lat="30.367778283403393" lon="-9.169555922576851"><ele>155.5</ele><time>2026-04-27T16:07:40Z</time></trkpt><trkpt lat="30.367708478400875" lon="-9.169604543733163"><ele>155.66666666666666</ele><time>2026-04-27T16:07:41Z</time></trkpt><trkpt lat="30.367636114267626" lon="-9.16966527640511"><ele>155.83333333333334</ele><time>2026-04-27T16:07:42Z</time></trkpt><trkpt lat="30.367556071738385" lon="-9.169717559614474"><ele>156.0</ele><time>2026-04-27T16:07:43Z</time></trkpt><trkpt lat="30.367476214854772" lon="-9.169747435864497"><ele>156.0</ele><time>2026-04-27T16:07:44Z</time></trkpt><trkpt lat="30.36738126241723" lon="-9.169750239541353"><ele>156.0</ele><time>2026-04-27T16:07:45Z</time></trkpt><trkpt lat="30.367279456490724" lon="-9.1697347869943"><ele>156.0</ele><time>2026-04-27T16:07:46Z</time></trkpt><trkpt lat="30.36714819418023" lon="-9.169712624461726"><ele>156.0</ele><time>2026-04-27T16:07:47Z</time></trkpt><trkpt lat="30.367003466054005" lon="-9.169714933795158"><ele>154.66666666666666</ele><time>2026-04-27T16:07:48Z</time></trkpt><trkpt lat="30.366844662374064" lon="-9.169738757351624"><ele>153.33333333333331</ele><time>2026-04-27T16:07:49Z</time></trkpt><trkpt lat="30.36667072310142" lon="-9.169775522288141"><ele>152.0</ele><time>2026-04-27T16:07:50Z</time></trkpt><trkpt lat="30.366474237017698" lon="-9.1698034300871"><ele>152.66666666666666</ele><time>2026-04-27T16:07:51Z</time></trkpt><trkpt lat="30.366266043462552" lon="-9.169830315746289"><ele>153.33333333333334</ele><time>2026-04-27T16:07:52Z</time></trkpt><trkpt lat="30.36605907360812" lon="-9.169854525234348"><ele>154.0</ele><time>2026-04-27T16:07:53Z</time></trkpt><trkpt lat="30.365840868088885" lon="-9.169866907505048"><ele>154.0</ele><time>2026-04-27T16:07:54Z</time></trkpt><trkpt lat="30.365610224298734" lon="-9.16986678595928"><ele>154.0</ele><time>2026-04-27T16:07:55Z</time></trkpt><trkpt lat="30.36538137597879" lon="-9.169861332522588"><ele>154.0</ele><time>2026-04-27T16:07:56Z</time></trkpt><trkpt lat="30.365161724444366" lon="-9.169849497013438"><ele>154.0</ele><time>2026-04-27T16:07:57Z</time></trkpt><trkpt lat="30.364945345863624" lon="-9.169836400599563"><ele>154.0</ele><time>2026-04-27T16:07:58Z</time></trkpt><trkpt lat="30.364743326274372" lon="-9.169819954406943"><ele>154.0</ele><time>2026-04-27T16:07:59Z</time></trkpt><trkpt lat="30.36456635782751" lon="-9.169806310297584"><ele>154.0</ele><time>2026-04-27T16:08:00Z</time></trkpt><trkpt lat="30.36440133711704" lon="-9.169798514473293"><ele>154.0</ele><time>2026-04-27T16:08:01Z</time></trkpt><trkpt lat="30.36423193879189" lon="-9.169792045011203"><ele>154.0</ele><time>2026-04-27T16:08:02Z</time></trkpt><trkpt lat="30.36405885132763" lon="-9.169783318260396"><ele>154.0</ele><time>2026-04-27T16:08:03Z</time></trkpt><trkpt lat="30.363887134978086" lon="-9.169779521954792"><ele>154.0</ele><time>2026-04-27T16:08:04Z</time></trkpt><trkpt lat="30.363706701052962" lon="-9.169772019254054"><ele>154.0</ele><time>2026-04-27T16:08:05Z</time></trkpt><trkpt lat="30.363514878531692" lon="-9.169764357692769"><ele>154.0</ele><time>2026-04-27T16:08:06Z</time></trkpt><trkpt lat="30.363312904602275" lon="-9.169758329221926"><ele>154.0</ele><time>2026-04-27T16:08:07Z</time></trkpt><trkpt lat="30.363102231266204" lon="-9.169751619187029"><ele>156.0</ele><time>2026-04-27T16:08:08Z</time></trkpt><trkpt lat="30.362879111989994" lon="-9.169742785858746"><ele>158.0</ele><time>2026-04-27T16:08:09Z</time></trkpt><trkpt lat="30.36265169977442" lon="-9.16973211396876"><ele>158.0</ele><time>2026-04-27T16:08:10Z</time></trkpt><trkpt lat="30.362432026393055" lon="-9.169722947884816"><ele>158.0</ele><time>2026-04-27T16:08:11Z</time></trkpt><trkpt lat="30.362212118578196" lon="-9.169711869984235"><ele>158.0</ele><time>2026-04-27T16:08:12Z</time></trkpt><trkpt lat="30.36198779956188" lon="-9.169701232418573"><ele>158.0</ele><time>2026-04-27T16:08:13Z</time></trkpt><trkpt lat="30.361759924931164" lon="-9.169696165611569"><ele>158.0</ele><time>2026-04-27T16:08:14Z</time></trkpt><trkpt lat="30.361529982507854" lon="-9.169697522638781"><ele>159.0</ele><time>2026-04-27T16:08:15Z</time></trkpt><trkpt lat="30.361299004900108" lon="-9.169696204948652"><ele>160.0</ele><time>2026-04-27T16:08:16Z</time></trkpt><trkpt lat="30.361065931527897" lon="-9.169689083068096"><ele>160.0</ele><time>2026-04-27T16:08:17Z</time></trkpt><trkpt lat="30.36084844300832" lon="-9.169681022964806"><ele>160.0</ele><time>2026-04-27T16:08:18Z</time></trkpt><trkpt lat="30.360643829044577" lon="-9.169676938999114"><ele>160.0</ele><time>2026-04-27T16:08:19Z</time></trkpt><trkpt lat="30.360446526162864" lon="-9.169673495780346"><ele>160.66666666666669</ele><time>2026-04-27T16:08:20Z</time></trkpt><trkpt lat="30.36025818529559" lon="-9.169670091677794"><ele>161.33333333333334</ele><time>2026-04-27T16:08:21Z</time></trkpt><trkpt lat="30.36007087125749" lon="-9.169666071006333"><ele>162.0</ele><time>2026-04-27T16:08:22Z</time></trkpt><trkpt lat="30.359864797226383" lon="-9.1696594151149"><ele>161.66666666666666</ele><time>2026-04-27T16:08:23Z</time></trkpt><trkpt lat="30.3596640712099" lon="-9.169651078357937"><ele>161.33333333333331</ele><time>2026-04-27T16:08:24Z</time></trkpt><trkpt lat="30.359468778255692" lon="-9.1696414242483"><ele>161.0</ele><time>2026-04-27T16:08:25Z</time></trkpt><trkpt lat="30.35927854202788" lon="-9.169633167758219"><ele>161.0</ele><time>2026-04-27T16:08:26Z</time></trkpt><trkpt lat="30.359083219567673" lon="-9.169621872464225"><ele>161.0</ele><time>2026-04-27T16:08:27Z</time></trkpt><trkpt lat="30.358891119857432" lon="-9.169614711595385"><ele>161.0</ele><time>2026-04-27T16:08:28Z</time></trkpt><trkpt lat="30.358678572940455" lon="-9.169605124718764"><ele>160.33333333333331</ele><time>2026-04-27T16:08:29Z</time></trkpt><trkpt lat="30.35847702655825" lon="-9.169600801118941"><ele>159.66666666666666</ele><time>2026-04-27T16:08:30Z</time></trkpt><trkpt lat="30.35828497850267" lon="-9.169593437977959"><ele>159.0</ele><time>2026-04-27T16:08:31Z</time></trkpt><trkpt lat="30.35808622881541" lon="-9.16958609235097"><ele>159.33333333333334</ele><time>2026-04-27T16:08:32Z</time></trkpt><trkpt lat="30.357891297417112" lon="-9.169575036435097"><ele>159.66666666666669</ele><time>2026-04-27T16:08:33Z</time></trkpt><trkpt lat="30.357703948161454" lon="-9.169563902261455"><ele>160.0</ele><time>2026-04-27T16:08:34Z</time></trkpt><trkpt lat="30.35752084180465" lon="-9.169554066164288"><ele>160.0</ele><time>2026-04-27T16:08:35Z</time></trkpt><trkpt lat="30.357335771340498" lon="-9.169550540876914"><ele>160.0</ele><time>2026-04-27T16:08:36Z</time></trkpt><trkpt lat="30.35714200275117" lon="-9.169547891493131"><ele>160.0</ele><time>2026-04-27T16:08:37Z</time></trkpt><trkpt lat="30.356940046668438" lon="-9.169544112634627"><ele>159.66666666666669</ele><time>2026-04-27T16:08:38Z</time></trkpt><trkpt lat="30.356728848870485" lon="-9.169534848047698"><ele>159.33333333333334</ele><time>2026-04-27T16:08:39Z</time></trkpt><trkpt lat="30.356515359520486" lon="-9.169529248866784"><ele>159.0</ele><time>2026-04-27T16:08:40Z</time></trkpt><trkpt lat="30.356298966212634" lon="-9.169516208222548"><ele>159.0</ele><time>2026-04-27T16:08:41Z</time></trkpt><trkpt lat="30.356076550154295" lon="-9.169503730098999"><ele>159.0</ele><time>2026-04-27T16:08:42Z</time></trkpt><trkpt lat="30.355850398978593" lon="-9.169487158713139"><ele>159.0</ele><time>2026-04-27T16:08:43Z</time></trkpt><trkpt lat="30.355622271396633" lon="-9.169478633328508"><ele>159.5</ele><time>2026-04-27T16:08:44Z</time></trkpt><trkpt lat="30.35539407918585" lon="-9.169472880589264"><ele>160.0</ele><time>2026-04-27T16:08:45Z</time></trkpt><trkpt lat="30.355168865223444" lon="-9.169472133494388"><ele>160.0</ele><time>2026-04-27T16:08:46Z</time></trkpt><trkpt lat="30.354943809965256" lon="-9.169481478024291"><ele>160.0</ele><time>2026-04-27T16:08:47Z</time></trkpt><trkpt lat="30.35472339037192" lon="-9.169500279848764"><ele>160.0</ele><time>2026-04-27T16:08:48Z</time></trkpt><trkpt lat="30.354506023032357" lon="-9.169525619228567"><ele>159.66666666666669</ele><time>2026-04-27T16:08:49Z</time></trkpt><trkpt lat="30.354295424411347" lon="-9.169559890826594"><ele>159.33333333333334</ele><time>2026-04-27T16:08:50Z</time></trkpt><trkpt lat="30.354088155080667" lon="-9.16960718344161"><ele>159.0</ele><time>2026-04-27T16:08:51Z</time></trkpt><trkpt lat="30.353890521259697" lon="-9.16966619958522"><ele>159.0</ele><time>2026-04-27T16:08:52Z</time></trkpt><trkpt lat="30.353710702565092" lon="-9.169730670237103"><ele>159.0</ele><time>2026-04-27T16:08:53Z</time></trkpt><trkpt lat="30.353543011117086" lon="-9.169804483757611"><ele>159.0</ele><time>2026-04-27T16:08:54Z</time></trkpt><trkpt lat="30.35338080196935" lon="-9.169884165441918"><ele>159.0</ele><time>2026-04-27T16:08:55Z</time></trkpt><trkpt lat="30.353217883783707" lon="-9.169972014217349"><ele>159.0</ele><time>2026-04-27T16:08:56Z</time></trkpt><trkpt lat="30.353051908411228" lon="-9.17006860491241"><ele>159.0</ele><time>2026-04-27T16:08:57Z</time></trkpt><trkpt lat="30.35288858972263" lon="-9.170170501466103"><ele>159.0</ele><time>2026-04-27T16:08:58Z</time></trkpt><trkpt lat="30.352724140379184" lon="-9.170283377655485"><ele>159.0</ele><time>2026-04-27T16:08:59Z</time></trkpt><trkpt lat="30.35256027656593" lon="-9.170410044462981"><ele>159.0</ele><time>2026-04-27T16:09:00Z</time></trkpt><trkpt lat="30.352401994224603" lon="-9.17054525668761"><ele>159.0</ele><time>2026-04-27T16:09:01Z</time></trkpt><trkpt lat="30.352248956241205" lon="-9.17069192401963"><ele>159.0</ele><time>2026-04-27T16:09:02Z</time></trkpt><trkpt lat="30.352101364100626" lon="-9.170848334401551"><ele>159.0</ele><time>2026-04-27T16:09:03Z</time></trkpt><trkpt lat="30.35195581909608" lon="-9.171012997136444"><ele>159.33333333333334</ele><time>2026-04-27T16:09:04Z</time></trkpt><trkpt lat="30.351807637159684" lon="-9.171179823992754"><ele>159.66666666666669</ele><time>2026-04-27T16:09:05Z</time></trkpt><trkpt lat="30.351658064589774" lon="-9.171351663421412"><ele>160.0</ele><time>2026-04-27T16:09:06Z</time></trkpt><trkpt lat="30.351505284073664" lon="-9.171526808477722"><ele>160.0</ele><time>2026-04-27T16:09:07Z</time></trkpt><trkpt lat="30.3513506007817" lon="-9.171705903173574"><ele>160.0</ele><time>2026-04-27T16:09:08Z</time></trkpt><trkpt lat="30.351194888739464" lon="-9.171887851235756"><ele>160.0</ele><time>2026-04-27T16:09:09Z</time></trkpt><trkpt lat="30.351033068119317" lon="-9.172073610668981"><ele>160.0</ele><time>2026-04-27T16:09:10Z</time></trkpt><trkpt lat="30.350869859172647" lon="-9.172257331568916"><ele>160.0</ele><time>2026-04-27T16:09:11Z</time></trkpt><trkpt lat="30.35070507866304" lon="-9.172444096201358"><ele>160.0</ele><time>2026-04-27T16:09:12Z</time></trkpt><trkpt lat="30.35054098466653" lon="-9.172629707662896"><ele>160.0</ele><time>2026-04-27T16:09:13Z</time></trkpt><trkpt lat="30.350376869009153" lon="-9.17282033461438"><ele>160.0</ele><time>2026-04-27T16:09:14Z</time></trkpt><trkpt lat="30.350212930081856" lon="-9.173013321003921"><ele>160.0</ele><time>2026-04-27T16:09:15Z</time></trkpt><trkpt lat="30.35004753370475" lon="-9.173209899074504"><ele>160.0</ele><time>2026-04-27T16:09:16Z</time></trkpt><trkpt lat="30.349882587356205" lon="-9.173407356840539"><ele>160.0</ele><time>2026-04-27T16:09:17Z</time></trkpt><trkpt lat="30.349713978166864" lon="-9.173606921890947"><ele>160.5</ele><time>2026-04-27T16:09:18Z</time></trkpt><trkpt lat="30.349541960565787" lon="-9.173806890777572"><ele>161.0</ele><time>2026-04-27T16:09:19Z</time></trkpt><trkpt lat="30.34937005326883" lon="-9.174006856762897"><ele>160.0</ele><time>2026-04-27T16:09:20Z</time></trkpt><trkpt lat="30.34919882156954" lon="-9.174205593066963"><ele>159.0</ele><time>2026-04-27T16:09:21Z</time></trkpt><trkpt lat="30.34902904948997" lon="-9.174401134883777"><ele>160.0</ele><time>2026-04-27T16:09:22Z</time></trkpt><trkpt lat="30.34886082824297" lon="-9.174592954251544"><ele>161.0</ele><time>2026-04-27T16:09:23Z</time></trkpt><trkpt lat="30.34869356093149" lon="-9.174785152277142"><ele>161.5</ele><time>2026-04-27T16:09:24Z</time></trkpt><trkpt lat="30.348529557038745" lon="-9.17497330195267"><ele>162.0</ele><time>2026-04-27T16:09:25Z</time></trkpt><trkpt lat="30.348367312141228" lon="-9.175156965488068"><ele>162.0</ele><time>2026-04-27T16:09:26Z</time></trkpt><trkpt lat="30.348204850383453" lon="-9.175343799186136"><ele>162.0</ele><time>2026-04-27T16:09:27Z</time></trkpt><trkpt lat="30.348046605771437" lon="-9.17553217571576"><ele>161.0</ele><time>2026-04-27T16:09:28Z</time></trkpt><trkpt lat="30.347891296174474" lon="-9.175723375696375"><ele>160.0</ele><time>2026-04-27T16:09:29Z</time></trkpt><trkpt lat="30.347736754165968" lon="-9.175917593502467"><ele>160.0</ele><time>2026-04-27T16:09:30Z</time></trkpt><trkpt lat="30.347587349653345" lon="-9.176114449734104"><ele>160.0</ele><time>2026-04-27T16:09:31Z</time></trkpt><trkpt lat="30.347440771854714" lon="-9.176315448516323"><ele>160.0</ele><time>2026-04-27T16:09:32Z</time></trkpt><trkpt lat="30.347297167980265" lon="-9.17651837812503"><ele>160.0</ele><time>2026-04-27T16:09:33Z</time></trkpt><trkpt lat="30.347159607890266" lon="-9.176724563667374"><ele>158.5</ele><time>2026-04-27T16:09:34Z</time></trkpt><trkpt lat="30.347027374143202" lon="-9.176936548263452"><ele>157.0</ele><time>2026-04-27T16:09:35Z</time></trkpt><trkpt lat="30.346898176168686" lon="-9.1771505928084"><ele>157.33333333333334</ele><time>2026-04-27T16:09:36Z</time></trkpt><trkpt lat="30.346767710545908" lon="-9.177362995199722"><ele>157.66666666666666</ele><time>2026-04-27T16:09:37Z</time></trkpt><trkpt lat="30.3466388476152" lon="-9.177570987773533"><ele>158.0</ele><time>2026-04-27T16:09:38Z</time></trkpt><trkpt lat="30.346510796751517" lon="-9.177779767703138"><ele>158.0</ele><time>2026-04-27T16:09:39Z</time></trkpt><trkpt lat="30.34638507322974" lon="-9.177992723692672"><ele>158.0</ele><time>2026-04-27T16:09:40Z</time></trkpt><trkpt lat="30.346258565772565" lon="-9.178203226687712"><ele>158.0</ele><time>2026-04-27T16:09:41Z</time></trkpt><trkpt lat="30.34613222019471" lon="-9.178412680382273"><ele>158.33333333333331</ele><time>2026-04-27T16:09:42Z</time></trkpt><trkpt lat="30.346005687291505" lon="-9.178620315433593"><ele>158.66666666666666</ele><time>2026-04-27T16:09:43Z</time></trkpt><trkpt lat="30.345877762304006" lon="-9.178825898644575"><ele>159.0</ele><time>2026-04-27T16:09:44Z</time></trkpt><trkpt lat="30.345748280014078" lon="-9.179033476573826"><ele>159.0</ele><time>2026-04-27T16:09:45Z</time></trkpt><trkpt lat="30.345620405418902" lon="-9.179238714491277"><ele>159.0</ele><time>2026-04-27T16:09:46Z</time></trkpt><trkpt lat="30.345491459609722" lon="-9.179448121642206"><ele>159.0</ele><time>2026-04-27T16:09:47Z</time></trkpt><trkpt lat="30.34536712472319" lon="-9.179655295202005"><ele>158.66666666666666</ele><time>2026-04-27T16:09:48Z</time></trkpt><trkpt lat="30.345243273064458" lon="-9.179862928041828"><ele>158.33333333333331</ele><time>2026-04-27T16:09:49Z</time></trkpt><trkpt lat="30.34512232864868" lon="-9.1800729871085"><ele>158.0</ele><time>2026-04-27T16:09:50Z</time></trkpt><trkpt lat="30.345008579133786" lon="-9.180287065750294"><ele>158.0</ele><time>2026-04-27T16:09:51Z</time></trkpt><trkpt lat="30.344899010082845" lon="-9.180505842304607"><ele>158.0</ele><time>2026-04-27T16:09:52Z</time></trkpt><trkpt lat="30.344799222026438" lon="-9.180727543431793"><ele>158.0</ele><time>2026-04-27T16:09:53Z</time></trkpt><trkpt lat="30.34471334230494" lon="-9.180957018763232"><ele>158.33333333333331</ele><time>2026-04-27T16:09:54Z</time></trkpt><trkpt lat="30.344640674147332" lon="-9.181191739833418"><ele>158.66666666666666</ele><time>2026-04-27T16:09:55Z</time></trkpt><trkpt lat="30.34457597637911" lon="-9.181433889519559"><ele>159.0</ele><time>2026-04-27T16:09:56Z</time></trkpt><trkpt lat="30.344513610759414" lon="-9.18167238244817"><ele>159.0</ele><time>2026-04-27T16:09:57Z</time></trkpt><trkpt lat="30.344451419307262" lon="-9.181910614693372"><ele>159.0</ele><time>2026-04-27T16:09:58Z</time></trkpt><trkpt lat="30.344389230297804" lon="-9.182153814412601"><ele>159.0</ele><time>2026-04-27T16:09:59Z</time></trkpt><trkpt lat="30.34432588095636" lon="-9.18239909015694"><ele>159.0</ele><time>2026-04-27T16:10:00Z</time></trkpt><trkpt lat="30.344261357677862" lon="-9.182649391888432"><ele>159.0</ele><time>2026-04-27T16:10:01Z</time></trkpt><trkpt lat="30.34419481302632" lon="-9.1829065963863"><ele>159.0</ele><time>2026-04-27T16:10:02Z</time></trkpt><trkpt lat="30.34412598197836" lon="-9.183161021684718"><ele>159.0</ele><time>2026-04-27T16:10:03Z</time></trkpt><trkpt lat="30.344057311968918" lon="-9.183419775289106"><ele>158.5</ele><time>2026-04-27T16:10:04Z</time></trkpt><trkpt lat="30.343991221818328" lon="-9.183679718356577"><ele>158.0</ele><time>2026-04-27T16:10:05Z</time></trkpt><trkpt lat="30.34392078955899" lon="-9.183944348703399"><ele>158.0</ele><time>2026-04-27T16:10:06Z</time></trkpt><trkpt lat="30.343840947910763" lon="-9.184199433538476"><ele>158.0</ele><time>2026-04-27T16:10:07Z</time></trkpt><trkpt lat="30.343758138966585" lon="-9.184437722830985"><ele>158.0</ele><time>2026-04-27T16:10:08Z</time></trkpt><trkpt lat="30.343670462379507" lon="-9.184652654039212"><ele>158.0</ele><time>2026-04-27T16:10:09Z</time></trkpt><trkpt lat="30.34358197637236" lon="-9.184853364980905"><ele>158.0</ele><time>2026-04-27T16:10:10Z</time></trkpt><trkpt lat="30.34349819694976" lon="-9.185036898915708"><ele>157.66666666666666</ele><time>2026-04-27T16:10:11Z</time></trkpt><trkpt lat="30.343421763862786" lon="-9.185214089558233"><ele>157.33333333333334</ele><time>2026-04-27T16:10:12Z</time></trkpt><trkpt lat="30.343359843933662" lon="-9.185376522892017"><ele>157.0</ele><time>2026-04-27T16:10:13Z</time></trkpt><trkpt lat="30.343313547711627" lon="-9.185526094182514"><ele>157.0</ele><time>2026-04-27T16:10:14Z</time></trkpt><trkpt lat="30.343277606831712" lon="-9.185659477399742"><ele>157.0</ele><time>2026-04-27T16:10:15Z</time></trkpt><trkpt lat="30.34325791015029" lon="-9.18577088745954"><ele>157.0</ele><time>2026-04-27T16:10:16Z</time></trkpt><trkpt lat="30.343247873104936" lon="-9.18588001734588"><ele>157.0</ele><time>2026-04-27T16:10:17Z</time></trkpt><trkpt lat="30.34324531696377" lon="-9.185975231386017"><ele>157.0</ele><time>2026-04-27T16:10:18Z</time></trkpt><trkpt lat="30.34323261599105" lon="-9.186048618159301"><ele>156.75</ele><time>2026-04-27T16:10:19Z</time></trkpt><trkpt lat="30.343149384031882" lon="-9.186167963457967"><ele>156.5</ele><time>2026-04-27T16:10:21Z</time></trkpt><trkpt lat="30.343069492332837" lon="-9.186237066531895"><ele>156.25</ele><time>2026-04-27T16:10:22Z</time></trkpt><trkpt lat="30.342966667554776" lon="-9.186320487897152"><ele>156.0</ele><time>2026-04-27T16:10:23Z</time></trkpt><trkpt lat="30.342853531969872" lon="-9.186445659857503"><ele>155.66666666666666</ele><time>2026-04-27T16:10:24Z</time></trkpt><trkpt lat="30.342746975835393" lon="-9.186601991321194"><ele>155.33333333333331</ele><time>2026-04-27T16:10:25Z</time></trkpt><trkpt lat="30.342650274946458" lon="-9.1867971015915"><ele>155.0</ele><time>2026-04-27T16:10:26Z</time></trkpt><trkpt lat="30.342558337909427" lon="-9.18701722634852"><ele>155.0</ele><time>2026-04-27T16:10:27Z</time></trkpt><trkpt lat="30.342466992352566" lon="-9.18723924873241"><ele>155.0</ele><time>2026-04-27T16:10:28Z</time></trkpt><trkpt lat="30.34237278198408" lon="-9.187455108956248"><ele>155.0</ele><time>2026-04-27T16:10:29Z</time></trkpt><trkpt lat="30.342265299841564" lon="-9.1876884409611"><ele>155.0</ele><time>2026-04-27T16:10:30Z</time></trkpt><trkpt lat="30.34214907373046" lon="-9.187935650954802"><ele>155.0</ele><time>2026-04-27T16:10:31Z</time></trkpt><trkpt lat="30.34203646232291" lon="-9.188177410451603"><ele>155.0</ele><time>2026-04-27T16:10:32Z</time></trkpt><trkpt lat="30.341929864000434" lon="-9.188409115612794"><ele>155.0</ele><time>2026-04-27T16:10:33Z</time></trkpt><trkpt lat="30.34181447731534" lon="-9.188646071088472"><ele>155.0</ele><time>2026-04-27T16:10:34Z</time></trkpt><trkpt lat="30.34169258175691" lon="-9.188884725111393"><ele>155.0</ele><time>2026-04-27T16:10:35Z</time></trkpt><trkpt lat="30.341575437390905" lon="-9.189124812728833"><ele>154.5</ele><time>2026-04-27T16:10:36Z</time></trkpt><trkpt lat="30.341460502567962" lon="-9.189368216440338"><ele>154.0</ele><time>2026-04-27T16:10:37Z</time></trkpt><trkpt lat="30.341346513001938" lon="-9.189615150181973"><ele>154.0</ele><time>2026-04-27T16:10:38Z</time></trkpt><trkpt lat="30.341239135307937" lon="-9.189863384834336"><ele>154.0</ele><time>2026-04-27T16:10:39Z</time></trkpt><trkpt lat="30.34113015268635" lon="-9.190110603062896"><ele>154.0</ele><time>2026-04-27T16:10:40Z</time></trkpt><trkpt lat="30.341017571810532" lon="-9.190358355780539"><ele>154.0</ele><time>2026-04-27T16:10:41Z</time></trkpt><trkpt lat="30.340905616265598" lon="-9.190605312874643"><ele>154.0</ele><time>2026-04-27T16:10:42Z</time></trkpt><trkpt lat="30.3407929429666" lon="-9.190851724024814"><ele>154.0</ele><time>2026-04-27T16:10:43Z</time></trkpt><trkpt lat="30.340679616782023" lon="-9.191092081321859"><ele>154.0</ele><time>2026-04-27T16:10:44Z</time></trkpt><trkpt lat="30.340563392354717" lon="-9.191339721229548"><ele>154.0</ele><time>2026-04-27T16:10:45Z</time></trkpt><trkpt lat="30.34044845930488" lon="-9.19158661389902"><ele>154.5</ele><time>2026-04-27T16:10:46Z</time></trkpt><trkpt lat="30.34033259632061" lon="-9.191834071270678"><ele>155.0</ele><time>2026-04-27T16:10:47Z</time></trkpt><trkpt lat="30.340218424943345" lon="-9.192081339963124"><ele>155.0</ele><time>2026-04-27T16:10:48Z</time></trkpt><trkpt lat="30.3401045338133" lon="-9.192328467223714"><ele>155.0</ele><time>2026-04-27T16:10:49Z</time></trkpt><trkpt lat="30.33999063581243" lon="-9.192574972223662"><ele>155.0</ele><time>2026-04-27T16:10:50Z</time></trkpt><trkpt lat="30.3398749212386" lon="-9.192818673293601"><ele>155.0</ele><time>2026-04-27T16:10:51Z</time></trkpt><trkpt lat="30.339759278370927" lon="-9.193059527545044"><ele>155.0</ele><time>2026-04-27T16:10:52Z</time></trkpt><trkpt lat="30.339642108212292" lon="-9.193303144737042"><ele>155.0</ele><time>2026-04-27T16:10:53Z</time></trkpt><trkpt lat="30.339526236942046" lon="-9.193546184881349"><ele>155.0</ele><time>2026-04-27T16:10:54Z</time></trkpt><trkpt lat="30.339411190419135" lon="-9.193788624517671"><ele>155.0</ele><time>2026-04-27T16:10:55Z</time></trkpt><trkpt lat="30.339294833523255" lon="-9.19402998817465"><ele>155.0</ele><time>2026-04-27T16:10:56Z</time></trkpt><trkpt lat="30.33917985732522" lon="-9.19427760686799"><ele>155.0</ele><time>2026-04-27T16:10:57Z</time></trkpt><trkpt lat="30.339068020055873" lon="-9.194523958595074"><ele>155.0</ele><time>2026-04-27T16:10:58Z</time></trkpt><trkpt lat="30.338958212639834" lon="-9.194772445650784"><ele>155.0</ele><time>2026-04-27T16:10:59Z</time></trkpt><trkpt lat="30.338853622036716" lon="-9.195020945301525"><ele>154.5</ele><time>2026-04-27T16:11:00Z</time></trkpt><trkpt lat="30.338752757990388" lon="-9.195273343184036"><ele>154.0</ele><time>2026-04-27T16:11:01Z</time></trkpt><trkpt lat="30.338657587363514" lon="-9.19553069037069"><ele>154.0</ele><time>2026-04-27T16:11:02Z</time></trkpt><trkpt lat="30.338572863212196" lon="-9.195792868728478"><ele>154.0</ele><time>2026-04-27T16:11:03Z</time></trkpt><trkpt lat="30.338497624023837" lon="-9.196056699480737"><ele>154.0</ele><time>2026-04-27T16:11:04Z</time></trkpt><trkpt lat="30.33843345797387" lon="-9.196326900364202"><ele>154.0</ele><time>2026-04-27T16:11:05Z</time></trkpt><trkpt lat="30.33838373624838" lon="-9.196600605258586"><ele>154.5</ele><time>2026-04-27T16:11:06Z</time></trkpt><trkpt lat="30.33834470771445" lon="-9.196875193337338"><ele>155.0</ele><time>2026-04-27T16:11:07Z</time></trkpt><trkpt lat="30.338309152644115" lon="-9.197150206959366"><ele>155.5</ele><time>2026-04-27T16:11:08Z</time></trkpt><trkpt lat="30.33827606647032" lon="-9.19742854993268"><ele>156.0</ele><time>2026-04-27T16:11:09Z</time></trkpt><trkpt lat="30.338242822274385" lon="-9.19770374820703"><ele>156.0</ele><time>2026-04-27T16:11:10Z</time></trkpt><trkpt lat="30.33821114443508" lon="-9.197982854503216"><ele>156.0</ele><time>2026-04-27T16:11:11Z</time></trkpt><trkpt lat="30.338172854256705" lon="-9.198261140931066"><ele>155.5</ele><time>2026-04-27T16:11:12Z</time></trkpt><trkpt lat="30.338131836092323" lon="-9.198536250975076"><ele>155.0</ele><time>2026-04-27T16:11:13Z</time></trkpt><trkpt lat="30.338091327533736" lon="-9.198817275218124"><ele>154.5</ele><time>2026-04-27T16:11:14Z</time></trkpt><trkpt lat="30.33805562527935" lon="-9.19909518503713"><ele>154.0</ele><time>2026-04-27T16:11:15Z</time></trkpt><trkpt lat="30.33802330006533" lon="-9.199372141483348"><ele>154.0</ele><time>2026-04-27T16:11:16Z</time></trkpt><trkpt lat="30.337990357098963" lon="-9.199650790088299"><ele>154.0</ele><time>2026-04-27T16:11:17Z</time></trkpt><trkpt lat="30.337957944519964" lon="-9.199926917427238"><ele>153.5</ele><time>2026-04-27T16:11:18Z</time></trkpt><trkpt lat="30.337928684704426" lon="-9.200205346979647"><ele>153.0</ele><time>2026-04-27T16:11:19Z</time></trkpt><trkpt lat="30.33790347832679" lon="-9.200481643857188"><ele>152.5</ele><time>2026-04-27T16:11:20Z</time></trkpt><trkpt lat="30.337878356761696" lon="-9.200757024168722"><ele>152.0</ele><time>2026-04-27T16:11:21Z</time></trkpt><trkpt lat="30.337853261860474" lon="-9.201033116784876"><ele>152.0</ele><time>2026-04-27T16:11:22Z</time></trkpt><trkpt lat="30.337825615138527" lon="-9.201308625084883"><ele>152.0</ele><time>2026-04-27T16:11:23Z</time></trkpt><trkpt lat="30.337794621105424" lon="-9.201585640912223"><ele>152.5</ele><time>2026-04-27T16:11:24Z</time></trkpt><trkpt lat="30.337760157205047" lon="-9.201862964604631"><ele>153.0</ele><time>2026-04-27T16:11:25Z</time></trkpt><trkpt lat="30.337727042168066" lon="-9.202138122775445"><ele>152.5</ele><time>2026-04-27T16:11:26Z</time></trkpt><trkpt lat="30.3376893512096" lon="-9.202411742511893"><ele>152.0</ele><time>2026-04-27T16:11:27Z</time></trkpt><trkpt lat="30.337655171307294" lon="-9.20268692527265"><ele>152.0</ele><time>2026-04-27T16:11:28Z</time></trkpt><trkpt lat="30.337624694231422" lon="-9.202965045900141"><ele>152.0</ele><time>2026-04-27T16:11:29Z</time></trkpt><trkpt lat="30.33759644256643" lon="-9.203241917880964"><ele>151.5</ele><time>2026-04-27T16:11:30Z</time></trkpt><trkpt lat="30.337565841316646" lon="-9.203518494261466"><ele>151.0</ele><time>2026-04-27T16:11:31Z</time></trkpt><trkpt lat="30.337536105786384" lon="-9.203794852291194"><ele>152.0</ele><time>2026-04-27T16:11:32Z</time></trkpt><trkpt lat="30.33750323776573" lon="-9.204072582755245"><ele>153.0</ele><time>2026-04-27T16:11:33Z</time></trkpt><trkpt lat="30.33747007882589" lon="-9.20434727520765"><ele>153.0</ele><time>2026-04-27T16:11:34Z</time></trkpt><trkpt lat="30.337435859102648" lon="-9.204604706829805"><ele>153.0</ele><time>2026-04-27T16:11:35Z</time></trkpt><trkpt lat="30.337400396752912" lon="-9.204846481700686"><ele>153.0</ele><time>2026-04-27T16:11:36Z</time></trkpt><trkpt lat="30.33736380598653" lon="-9.205070318543257"><ele>152.33333333333334</ele><time>2026-04-27T16:11:37Z</time></trkpt><trkpt lat="30.33732515309856" lon="-9.205288161214781"><ele>151.66666666666669</ele><time>2026-04-27T16:11:38Z</time></trkpt><trkpt lat="30.337278053533183" lon="-9.205513448646295"><ele>151.0</ele><time>2026-04-27T16:11:39Z</time></trkpt><trkpt lat="30.33722146821255" lon="-9.20574316392181"><ele>151.66666666666669</ele><time>2026-04-27T16:11:40Z</time></trkpt><trkpt lat="30.337155984754286" lon="-9.20597405055623"><ele>152.33333333333334</ele><time>2026-04-27T16:11:41Z</time></trkpt><trkpt lat="30.337077426720857" lon="-9.206208926270445"><ele>153.0</ele><time>2026-04-27T16:11:42Z</time></trkpt><trkpt lat="30.336990318166784" lon="-9.206441645263585"><ele>153.0</ele><time>2026-04-27T16:11:43Z</time></trkpt><trkpt lat="30.336897221784305" lon="-9.206678365319629"><ele>153.0</ele><time>2026-04-27T16:11:44Z</time></trkpt><trkpt lat="30.33679948870008" lon="-9.206912036903285"><ele>153.0</ele><time>2026-04-27T16:11:45Z</time></trkpt><trkpt lat="30.336704537928394" lon="-9.207155153371605"><ele>152.5</ele><time>2026-04-27T16:11:46Z</time></trkpt><trkpt lat="30.33660984670201" lon="-9.207401991024552"><ele>152.0</ele><time>2026-04-27T16:11:47Z</time></trkpt><trkpt lat="30.336514964909558" lon="-9.20765047640284"><ele>152.0</ele><time>2026-04-27T16:11:48Z</time></trkpt><trkpt lat="30.336419392575923" lon="-9.20790428276776"><ele>152.0</ele><time>2026-04-27T16:11:49Z</time></trkpt><trkpt lat="30.336320367136878" lon="-9.20815781465937"><ele>151.0</ele><time>2026-04-27T16:11:50Z</time></trkpt><trkpt lat="30.336220308883433" lon="-9.208412927316541"><ele>150.0</ele><time>2026-04-27T16:11:51Z</time></trkpt><trkpt lat="30.336121817589888" lon="-9.208670951997734"><ele>150.0</ele><time>2026-04-27T16:11:52Z</time></trkpt><trkpt lat="30.336022869077194" lon="-9.208930056483286"><ele>150.0</ele><time>2026-04-27T16:11:53Z</time></trkpt><trkpt lat="30.335924147371134" lon="-9.209191041703162"><ele>150.5</ele><time>2026-04-27T16:11:54Z</time></trkpt><trkpt lat="30.33582291720668" lon="-9.209455580532143"><ele>151.0</ele><time>2026-04-27T16:11:55Z</time></trkpt><trkpt lat="30.33572176394688" lon="-9.20971521006915"><ele>151.0</ele><time>2026-04-27T16:11:56Z</time></trkpt><trkpt lat="30.335620801828526" lon="-9.20997188171018"><ele>151.0</ele><time>2026-04-27T16:11:57Z</time></trkpt><trkpt lat="30.33552166108052" lon="-9.210227307112287"><ele>151.0</ele><time>2026-04-27T16:11:58Z</time></trkpt><trkpt lat="30.33542483260942" lon="-9.210478309121898"><ele>151.0</ele><time>2026-04-27T16:11:59Z</time></trkpt><trkpt lat="30.33532736230582" lon="-9.210730030204537"><ele>151.0</ele><time>2026-04-27T16:12:00Z</time></trkpt><trkpt lat="30.335231897116202" lon="-9.21097679786706"><ele>151.0</ele><time>2026-04-27T16:12:01Z</time></trkpt><trkpt lat="30.335137117529552" lon="-9.211222974670964"><ele>151.0</ele><time>2026-04-27T16:12:02Z</time></trkpt><trkpt lat="30.335042324983483" lon="-9.211467456611683"><ele>151.0</ele><time>2026-04-27T16:12:03Z</time></trkpt><trkpt lat="30.33494586148305" lon="-9.211712831403435"><ele>150.5</ele><time>2026-04-27T16:12:04Z</time></trkpt><trkpt lat="30.334850112159025" lon="-9.211955367389923"><ele>150.0</ele><time>2026-04-27T16:12:05Z</time></trkpt><trkpt lat="30.334756801782458" lon="-9.212197123218408"><ele>150.0</ele><time>2026-04-27T16:12:06Z</time></trkpt><trkpt lat="30.334667063673624" lon="-9.212440675089812"><ele>150.0</ele><time>2026-04-27T16:12:07Z</time></trkpt><trkpt lat="30.334580664007973" lon="-9.212681429417165"><ele>150.0</ele><time>2026-04-27T16:12:08Z</time></trkpt><trkpt lat="30.334500966552984" lon="-9.212925325004287"><ele>150.0</ele><time>2026-04-27T16:12:09Z</time></trkpt><trkpt lat="30.334429716560226" lon="-9.213169941914984"><ele>150.0</ele><time>2026-04-27T16:12:10Z</time></trkpt><trkpt lat="30.334368604805587" lon="-9.21341880815978"><ele>150.0</ele><time>2026-04-27T16:12:11Z</time></trkpt><trkpt lat="30.33431850199922" lon="-9.213669732534855"><ele>150.0</ele><time>2026-04-27T16:12:12Z</time></trkpt><trkpt lat="30.334278349602517" lon="-9.213923202267443"><ele>150.0</ele><time>2026-04-27T16:12:13Z</time></trkpt><trkpt lat="30.334251246605344" lon="-9.214175620581559"><ele>150.0</ele><time>2026-04-27T16:12:14Z</time></trkpt><trkpt lat="30.33423538705322" lon="-9.214431615982704"><ele>150.0</ele><time>2026-04-27T16:12:15Z</time></trkpt><trkpt lat="30.334237027060794" lon="-9.214689389335676"><ele>150.0</ele><time>2026-04-27T16:12:16Z</time></trkpt><trkpt lat="30.33424657075882" lon="-9.214943375900976"><ele>150.0</ele><time>2026-04-27T16:12:17Z</time></trkpt><trkpt lat="30.334257204772154" lon="-9.215201034438604"><ele>150.0</ele><time>2026-04-27T16:12:18Z</time></trkpt><trkpt lat="30.334271249874842" lon="-9.21545571546676"><ele>150.0</ele><time>2026-04-27T16:12:19Z</time></trkpt><trkpt lat="30.33428475358814" lon="-9.21571057691297"><ele>150.0</ele><time>2026-04-27T16:12:20Z</time></trkpt><trkpt lat="30.33430048233533" lon="-9.215967920092908"><ele>150.0</ele><time>2026-04-27T16:12:21Z</time></trkpt><trkpt lat="30.334316694942217" lon="-9.21622572486157"><ele>150.0</ele><time>2026-04-27T16:12:22Z</time></trkpt><trkpt lat="30.33433812888215" lon="-9.21648377766588"><ele>149.33333333333334</ele><time>2026-04-27T16:12:23Z</time></trkpt><trkpt lat="30.334365328565227" lon="-9.216738602242334"><ele>148.66666666666669</ele><time>2026-04-27T16:12:24Z</time></trkpt><trkpt lat="30.334391913760275" lon="-9.21699966726715"><ele>148.0</ele><time>2026-04-27T16:12:25Z</time></trkpt><trkpt lat="30.334411313235268" lon="-9.217254351331153"><ele>147.66666666666669</ele><time>2026-04-27T16:12:26Z</time></trkpt><trkpt lat="30.334431017570623" lon="-9.217513587040248"><ele>147.33333333333334</ele><time>2026-04-27T16:12:27Z</time></trkpt><trkpt lat="30.334451332540066" lon="-9.217771294428916"><ele>147.0</ele><time>2026-04-27T16:12:28Z</time></trkpt><trkpt lat="30.334469221845314" lon="-9.218032709287968"><ele>147.0</ele><time>2026-04-27T16:12:29Z</time></trkpt><trkpt lat="30.3344889581257" lon="-9.218282976472533"><ele>147.0</ele><time>2026-04-27T16:12:30Z</time></trkpt><trkpt lat="30.334511460354136" lon="-9.218527176047361"><ele>147.0</ele><time>2026-04-27T16:12:31Z</time></trkpt><trkpt lat="30.334535097304467" lon="-9.218769445367503"><ele>147.33333333333334</ele><time>2026-04-27T16:12:32Z</time></trkpt><trkpt lat="30.334553283070655" lon="-9.219006411670684"><ele>147.66666666666669</ele><time>2026-04-27T16:12:33Z</time></trkpt><trkpt lat="30.334565424107723" lon="-9.219240920084017"><ele>148.0</ele><time>2026-04-27T16:12:34Z</time></trkpt><trkpt lat="30.334570068015513" lon="-9.219473838111996"><ele>148.0</ele><time>2026-04-27T16:12:35Z</time></trkpt><trkpt lat="30.33456858234949" lon="-9.219709841702395"><ele>148.0</ele><time>2026-04-27T16:12:36Z</time></trkpt><trkpt lat="30.334557613435827" lon="-9.219956863084262"><ele>148.0</ele><time>2026-04-27T16:12:37Z</time></trkpt><trkpt lat="30.334540445891136" lon="-9.220200353268922"><ele>148.0</ele><time>2026-04-27T16:12:38Z</time></trkpt><trkpt lat="30.334515400493963" lon="-9.220451424100586"><ele>148.0</ele><time>2026-04-27T16:12:39Z</time></trkpt><trkpt lat="30.334484166132874" lon="-9.220701388151744"><ele>148.0</ele><time>2026-04-27T16:12:40Z</time></trkpt><trkpt lat="30.334445142828066" lon="-9.220956927009848"><ele>148.0</ele><time>2026-04-27T16:12:41Z</time></trkpt><trkpt lat="30.334403304234918" lon="-9.221215223771553"><ele>148.0</ele><time>2026-04-27T16:12:42Z</time></trkpt><trkpt lat="30.33436274899653" lon="-9.221475379445952"><ele>148.0</ele><time>2026-04-27T16:12:43Z</time></trkpt><trkpt lat="30.334328880588792" lon="-9.221742927595646"><ele>148.0</ele><time>2026-04-27T16:12:44Z</time></trkpt><trkpt lat="30.33430744993821" lon="-9.222008632458122"><ele>148.0</ele><time>2026-04-27T16:12:45Z</time></trkpt><trkpt lat="30.334294348409472" lon="-9.222276793761495"><ele>148.0</ele><time>2026-04-27T16:12:46Z</time></trkpt><trkpt lat="30.334286176863284" lon="-9.222550001531575"><ele>147.0</ele><time>2026-04-27T16:12:47Z</time></trkpt><trkpt lat="30.33428038730254" lon="-9.222824633846592"><ele>146.0</ele><time>2026-04-27T16:12:48Z</time></trkpt><trkpt lat="30.334279139398987" lon="-9.223098986084793"><ele>146.0</ele><time>2026-04-27T16:12:49Z</time></trkpt><trkpt lat="30.334283583690844" lon="-9.223377214193354"><ele>146.0</ele><time>2026-04-27T16:12:50Z</time></trkpt><trkpt lat="30.334291148713962" lon="-9.223652922724874"><ele>146.0</ele><time>2026-04-27T16:12:51Z</time></trkpt><trkpt lat="30.33430041272209" lon="-9.223931550976182"><ele>146.0</ele><time>2026-04-27T16:12:52Z</time></trkpt><trkpt lat="30.334311441310188" lon="-9.224209075203298"><ele>146.5</ele><time>2026-04-27T16:12:53Z</time></trkpt><trkpt lat="30.33432106716513" lon="-9.224484956964352"><ele>147.0</ele><time>2026-04-27T16:12:54Z</time></trkpt><trkpt lat="30.3343307493745" lon="-9.224752313687658"><ele>146.0</ele><time>2026-04-27T16:12:55Z</time></trkpt><trkpt lat="30.334338584970986" lon="-9.225016017066988"><ele>145.0</ele><time>2026-04-27T16:12:56Z</time></trkpt><trkpt lat="30.334347032815586" lon="-9.225274980745965"><ele>145.0</ele><time>2026-04-27T16:12:57Z</time></trkpt><trkpt lat="30.334358209353386" lon="-9.225530389221763"><ele>145.0</ele><time>2026-04-27T16:12:58Z</time></trkpt><trkpt lat="30.33436421237562" lon="-9.225783790934699"><ele>145.0</ele><time>2026-04-27T16:12:59Z</time></trkpt><trkpt lat="30.334369161990708" lon="-9.226035763576432"><ele>145.0</ele><time>2026-04-27T16:13:00Z</time></trkpt><trkpt lat="30.33437440758398" lon="-9.226288067004186"><ele>145.0</ele><time>2026-04-27T16:13:01Z</time></trkpt><trkpt lat="30.33438066670952" lon="-9.226535961149429"><ele>145.0</ele><time>2026-04-27T16:13:02Z</time></trkpt><trkpt lat="30.334387047540663" lon="-9.226784453973169"><ele>145.0</ele><time>2026-04-27T16:13:03Z</time></trkpt><trkpt lat="30.334396769396978" lon="-9.227030220831733"><ele>145.0</ele><time>2026-04-27T16:13:04Z</time></trkpt><trkpt lat="30.334405752201008" lon="-9.227276912718136"><ele>145.0</ele><time>2026-04-27T16:13:05Z</time></trkpt><trkpt lat="30.334413499527965" lon="-9.227529225844137"><ele>144.33333333333334</ele><time>2026-04-27T16:13:06Z</time></trkpt><trkpt lat="30.33442409002332" lon="-9.22778575195579"><ele>143.66666666666666</ele><time>2026-04-27T16:13:07Z</time></trkpt><trkpt lat="30.33443609273072" lon="-9.228047360191383"><ele>143.0</ele><time>2026-04-27T16:13:08Z</time></trkpt><trkpt lat="30.33444839793561" lon="-9.228306434264503"><ele>143.0</ele><time>2026-04-27T16:13:09Z</time></trkpt><trkpt lat="30.334460963382657" lon="-9.228569215869976"><ele>143.0</ele><time>2026-04-27T16:13:10Z</time></trkpt><trkpt lat="30.334471862250986" lon="-9.228836051346988"><ele>143.5</ele><time>2026-04-27T16:13:11Z</time></trkpt><trkpt lat="30.334480871251827" lon="-9.229105750827193"><ele>144.0</ele><time>2026-04-27T16:13:12Z</time></trkpt><trkpt lat="30.33448895427308" lon="-9.229375132409166"><ele>144.0</ele><time>2026-04-27T16:13:13Z</time></trkpt><trkpt lat="30.334497197574514" lon="-9.229649463123362"><ele>144.0</ele><time>2026-04-27T16:13:14Z</time></trkpt><trkpt lat="30.33450405165605" lon="-9.22992462208924"><ele>143.0</ele><time>2026-04-27T16:13:15Z</time></trkpt><trkpt lat="30.334510869168223" lon="-9.230203601284154"><ele>142.0</ele><time>2026-04-27T16:13:16Z</time></trkpt><trkpt lat="30.334521803475194" lon="-9.230481590283029"><ele>142.0</ele><time>2026-04-27T16:13:17Z</time></trkpt><trkpt lat="30.334533430816386" lon="-9.230764026959958"><ele>142.0</ele><time>2026-04-27T16:13:18Z</time></trkpt><trkpt lat="30.33454372057032" lon="-9.231047342430442"><ele>142.0</ele><time>2026-04-27T16:13:19Z</time></trkpt><trkpt lat="30.33455113795964" lon="-9.231332701598335"><ele>142.0</ele><time>2026-04-27T16:13:20Z</time></trkpt><trkpt lat="30.334557383331003" lon="-9.231612821544019"><ele>141.5</ele><time>2026-04-27T16:13:21Z</time></trkpt><trkpt lat="30.334564399336728" lon="-9.23188824821198"><ele>141.0</ele><time>2026-04-27T16:13:22Z</time></trkpt><trkpt lat="30.334571411371886" lon="-9.232159809121756"><ele>140.5</ele><time>2026-04-27T16:13:23Z</time></trkpt><trkpt lat="30.33457776603497" lon="-9.232428211102901"><ele>140.0</ele><time>2026-04-27T16:13:24Z</time></trkpt><trkpt lat="30.33458354212784" lon="-9.232694597803178"><ele>140.0</ele><time>2026-04-27T16:13:25Z</time></trkpt><trkpt lat="30.334589159001734" lon="-9.232958520390023"><ele>140.0</ele><time>2026-04-27T16:13:26Z</time></trkpt><trkpt lat="30.334593762112277" lon="-9.23322133922198"><ele>139.5</ele><time>2026-04-27T16:13:27Z</time></trkpt><trkpt lat="30.334596343898095" lon="-9.233484007856212"><ele>139.0</ele><time>2026-04-27T16:13:28Z</time></trkpt><trkpt lat="30.334602196587426" lon="-9.23375278458613"><ele>139.0</ele><time>2026-04-27T16:13:29Z</time></trkpt><trkpt lat="30.33460864970184" lon="-9.234025289204563"><ele>139.0</ele><time>2026-04-27T16:13:30Z</time></trkpt><trkpt lat="30.33461621774238" lon="-9.234297345088192"><ele>139.0</ele><time>2026-04-27T16:13:31Z</time></trkpt><trkpt lat="30.334626417572544" lon="-9.234570329107822"><ele>139.0</ele><time>2026-04-27T16:13:32Z</time></trkpt><trkpt lat="30.33463908107113" lon="-9.23484517694216"><ele>139.0</ele><time>2026-04-27T16:13:33Z</time></trkpt><trkpt lat="30.33465285527827" lon="-9.235118211100081"><ele>139.0</ele><time>2026-04-27T16:13:34Z</time></trkpt><trkpt lat="30.334665856983317" lon="-9.235392424638613"><ele>139.0</ele><time>2026-04-27T16:13:35Z</time></trkpt><trkpt lat="30.334677692123655" lon="-9.23567234918263"><ele>139.0</ele><time>2026-04-27T16:13:36Z</time></trkpt><trkpt lat="30.334689811070717" lon="-9.235947621559793"><ele>139.0</ele><time>2026-04-27T16:13:37Z</time></trkpt><trkpt lat="30.334701293976924" lon="-9.236220164110621"><ele>139.0</ele><time>2026-04-27T16:13:38Z</time></trkpt><trkpt lat="30.334710252271847" lon="-9.23649670932794"><ele>138.5</ele><time>2026-04-27T16:13:39Z</time></trkpt><trkpt lat="30.33471784973046" lon="-9.23677468776249"><ele>138.0</ele><time>2026-04-27T16:13:40Z</time></trkpt><trkpt lat="30.334725810314666" lon="-9.237052956596678"><ele>138.0</ele><time>2026-04-27T16:13:41Z</time></trkpt><trkpt lat="30.334735537793048" lon="-9.237330359366547"><ele>138.0</ele><time>2026-04-27T16:13:42Z</time></trkpt><trkpt lat="30.334746959733643" lon="-9.237609931379255"><ele>138.0</ele><time>2026-04-27T16:13:43Z</time></trkpt><trkpt lat="30.334756566903128" lon="-9.237888246700832"><ele>138.0</ele><time>2026-04-27T16:13:44Z</time></trkpt><trkpt lat="30.33476649889554" lon="-9.238166197800817"><ele>137.5</ele><time>2026-04-27T16:13:45Z</time></trkpt><trkpt lat="30.334774994980215" lon="-9.23844909905351"><ele>137.0</ele><time>2026-04-27T16:13:46Z</time></trkpt><trkpt lat="30.334784090476738" lon="-9.238729662407017"><ele>137.5</ele><time>2026-04-27T16:13:47Z</time></trkpt><trkpt lat="30.334796151993192" lon="-9.239014038765783"><ele>138.0</ele><time>2026-04-27T16:13:48Z</time></trkpt><trkpt lat="30.334805514043857" lon="-9.23929302341582"><ele>138.0</ele><time>2026-04-27T16:13:49Z</time></trkpt><trkpt lat="30.334808229036184" lon="-9.239568171371683"><ele>138.0</ele><time>2026-04-27T16:13:50Z</time></trkpt><trkpt lat="30.33481231671649" lon="-9.239840396358849"><ele>137.0</ele><time>2026-04-27T16:13:51Z</time></trkpt><trkpt lat="30.33481859886831" lon="-9.240108253361724"><ele>136.0</ele><time>2026-04-27T16:13:52Z</time></trkpt><trkpt lat="30.334825858682848" lon="-9.240371871909279"><ele>136.0</ele><time>2026-04-27T16:13:53Z</time></trkpt><trkpt lat="30.3348323479237" lon="-9.240634738892133"><ele>136.0</ele><time>2026-04-27T16:13:54Z</time></trkpt><trkpt lat="30.334838993071823" lon="-9.240898341428606"><ele>136.0</ele><time>2026-04-27T16:13:55Z</time></trkpt><trkpt lat="30.334844946695146" lon="-9.241164324512479"><ele>136.0</ele><time>2026-04-27T16:13:56Z</time></trkpt><trkpt lat="30.334851626610845" lon="-9.241432178319062"><ele>136.0</ele><time>2026-04-27T16:13:57Z</time></trkpt><trkpt lat="30.334857982335542" lon="-9.241708849143697"><ele>136.0</ele><time>2026-04-27T16:13:58Z</time></trkpt><trkpt lat="30.334864685305266" lon="-9.24198332654888"><ele>136.0</ele><time>2026-04-27T16:13:59Z</time></trkpt><trkpt lat="30.334874715288688" lon="-9.242259694453573"><ele>136.0</ele><time>2026-04-27T16:14:00Z</time></trkpt><trkpt lat="30.3348863685499" lon="-9.242535288483607"><ele>136.0</ele><time>2026-04-27T16:14:01Z</time></trkpt><trkpt lat="30.33489918480667" lon="-9.242812762490768"><ele>136.0</ele><time>2026-04-27T16:14:02Z</time></trkpt><trkpt lat="30.334914291758277" lon="-9.243088975885074"><ele>136.0</ele><time>2026-04-27T16:14:03Z</time></trkpt><trkpt lat="30.334930577213857" lon="-9.243362451808055"><ele>136.0</ele><time>2026-04-27T16:14:04Z</time></trkpt><trkpt lat="30.33494755289835" lon="-9.243642459709674"><ele>136.0</ele><time>2026-04-27T16:14:05Z</time></trkpt><trkpt lat="30.334963432433426" lon="-9.243920810400752"><ele>136.0</ele><time>2026-04-27T16:14:06Z</time></trkpt><trkpt lat="30.334976829500004" lon="-9.244197052898485"><ele>135.0</ele><time>2026-04-27T16:14:07Z</time></trkpt><trkpt lat="30.334988971683003" lon="-9.244479506188927"><ele>134.0</ele><time>2026-04-27T16:14:08Z</time></trkpt><trkpt lat="30.33499742974613" lon="-9.24476048251422"><ele>134.0</ele><time>2026-04-27T16:14:09Z</time></trkpt><trkpt lat="30.335003197067966" lon="-9.245038119896723"><ele>134.0</ele><time>2026-04-27T16:14:10Z</time></trkpt><trkpt lat="30.334999031348072" lon="-9.245303249644966"><ele>134.0</ele><time>2026-04-27T16:14:11Z</time></trkpt><trkpt lat="30.334992660123152" lon="-9.245564712491774"><ele>134.0</ele><time>2026-04-27T16:14:12Z</time></trkpt><trkpt lat="30.334982143866196" lon="-9.24582231282188"><ele>134.0</ele><time>2026-04-27T16:14:13Z</time></trkpt><trkpt lat="30.334967842573512" lon="-9.246076071117724"><ele>134.0</ele><time>2026-04-27T16:14:14Z</time></trkpt><trkpt lat="30.334950194701467" lon="-9.246325436145565"><ele>134.0</ele><time>2026-04-27T16:14:15Z</time></trkpt><trkpt lat="30.334923963775246" lon="-9.246571464830131"><ele>134.0</ele><time>2026-04-27T16:14:16Z</time></trkpt><trkpt lat="30.334891692065714" lon="-9.246817016475301"><ele>134.0</ele><time>2026-04-27T16:14:17Z</time></trkpt><trkpt lat="30.334853688449698" lon="-9.247066923102889"><ele>134.0</ele><time>2026-04-27T16:14:18Z</time></trkpt><trkpt lat="30.334808769225152" lon="-9.247314492813178"><ele>134.0</ele><time>2026-04-27T16:14:19Z</time></trkpt><trkpt lat="30.334758119208168" lon="-9.247564276627422"><ele>134.33333333333331</ele><time>2026-04-27T16:14:20Z</time></trkpt><trkpt lat="30.334704333833297" lon="-9.247811902497643"><ele>134.66666666666666</ele><time>2026-04-27T16:14:21Z</time></trkpt><trkpt lat="30.334648617244543" lon="-9.248059966255015"><ele>135.0</ele><time>2026-04-27T16:14:22Z</time></trkpt><trkpt lat="30.334580981395384" lon="-9.248305091963223"><ele>135.0</ele><time>2026-04-27T16:14:23Z</time></trkpt><trkpt lat="30.33450627359239" lon="-9.248553249410211"><ele>135.0</ele><time>2026-04-27T16:14:24Z</time></trkpt><trkpt lat="30.334424441817934" lon="-9.24880020857634"><ele>135.0</ele><time>2026-04-27T16:14:25Z</time></trkpt><trkpt lat="30.33434241815643" lon="-9.249052464068903"><ele>135.0</ele><time>2026-04-27T16:14:26Z</time></trkpt><trkpt lat="30.334263954035407" lon="-9.24930481352349"><ele>135.0</ele><time>2026-04-27T16:14:27Z</time></trkpt><trkpt lat="30.334188643445415" lon="-9.249559207068067"><ele>135.0</ele><time>2026-04-27T16:14:28Z</time></trkpt><trkpt lat="30.33411164009332" lon="-9.249815493877806"><ele>134.5</ele><time>2026-04-27T16:14:29Z</time></trkpt><trkpt lat="30.33403567093796" lon="-9.2500698234157"><ele>134.0</ele><time>2026-04-27T16:14:30Z</time></trkpt><trkpt lat="30.33395899365741" lon="-9.250325631805579"><ele>134.0</ele><time>2026-04-27T16:14:31Z</time></trkpt><trkpt lat="30.33387952244733" lon="-9.250576294913854"><ele>134.0</ele><time>2026-04-27T16:14:32Z</time></trkpt><trkpt lat="30.33379952545608" lon="-9.25082051581002"><ele>134.0</ele><time>2026-04-27T16:14:33Z</time></trkpt><trkpt lat="30.333723900336505" lon="-9.251058838300636"><ele>134.0</ele><time>2026-04-27T16:14:34Z</time></trkpt><trkpt lat="30.333651606909335" lon="-9.251288165763393"><ele>134.0</ele><time>2026-04-27T16:14:35Z</time></trkpt><trkpt lat="30.33358496596132" lon="-9.251506732288602"><ele>134.0</ele><time>2026-04-27T16:14:36Z</time></trkpt><trkpt lat="30.333519401910863" lon="-9.251723406220664"><ele>134.0</ele><time>2026-04-27T16:14:37Z</time></trkpt><trkpt lat="30.33345421355645" lon="-9.251932959453345"><ele>134.0</ele><time>2026-04-27T16:14:38Z</time></trkpt><trkpt lat="30.333387965784226" lon="-9.252142015992892"><ele>134.0</ele><time>2026-04-27T16:14:39Z</time></trkpt><trkpt lat="30.333322534765504" lon="-9.252350975513822"><ele>134.0</ele><time>2026-04-27T16:14:40Z</time></trkpt><trkpt lat="30.333258232692668" lon="-9.252554216897138"><ele>134.0</ele><time>2026-04-27T16:14:41Z</time></trkpt><trkpt lat="30.333195246325687" lon="-9.25275459007991"><ele>134.0</ele><time>2026-04-27T16:14:42Z</time></trkpt><trkpt lat="30.333133807522266" lon="-9.252937421805203"><ele>134.0</ele><time>2026-04-27T16:14:43Z</time></trkpt><trkpt lat="30.333072075925337" lon="-9.253109039162844"><ele>134.0</ele><time>2026-04-27T16:14:44Z</time></trkpt><trkpt lat="30.33301386262424" lon="-9.253269672189829"><ele>134.5</ele><time>2026-04-27T16:14:45Z</time></trkpt><trkpt lat="30.332961277284987" lon="-9.253428338735606"><ele>135.0</ele><time>2026-04-27T16:14:46Z</time></trkpt><trkpt lat="30.332911716178785" lon="-9.253578191947057"><ele>135.5</ele><time>2026-04-27T16:14:47Z</time></trkpt><trkpt lat="30.332862835410836" lon="-9.25371877559033"><ele>136.0</ele><time>2026-04-27T16:14:48Z</time></trkpt><trkpt lat="30.33281473046189" lon="-9.253852685488729"><ele>135.8</ele><time>2026-04-27T16:14:49Z</time></trkpt><trkpt lat="30.332771286208533" lon="-9.253983286320754"><ele>135.6</ele><time>2026-04-27T16:14:50Z</time></trkpt><trkpt lat="30.33273377979109" lon="-9.254107358627719"><ele>135.4</ele><time>2026-04-27T16:14:51Z</time></trkpt><trkpt lat="30.33269867056198" lon="-9.254225826096661"><ele>135.2</ele><time>2026-04-27T16:14:52Z</time></trkpt><trkpt lat="30.332664001693413" lon="-9.254335918672396"><ele>135.0</ele><time>2026-04-27T16:14:53Z</time></trkpt><trkpt lat="30.33263038664425" lon="-9.254440134319664"><ele>135.0</ele><time>2026-04-27T16:14:54Z</time></trkpt><trkpt lat="30.33259869563007" lon="-9.254536754319902"><ele>135.0</ele><time>2026-04-27T16:14:55Z</time></trkpt><trkpt lat="30.33257154196357" lon="-9.254639651249455"><ele>135.0</ele><time>2026-04-27T16:14:56Z</time></trkpt><trkpt lat="30.33254016347002" lon="-9.254744614592408"><ele>135.0</ele><time>2026-04-27T16:14:57Z</time></trkpt><trkpt lat="30.332508158868052" lon="-9.25485632888865"><ele>135.0</ele><time>2026-04-27T16:14:58Z</time></trkpt><trkpt lat="30.33247678617975" lon="-9.254976396166706"><ele>134.4</ele><time>2026-04-27T16:14:59Z</time></trkpt><trkpt lat="30.332446493270336" lon="-9.255098942965208"><ele>133.8</ele><time>2026-04-27T16:15:00Z</time></trkpt><trkpt lat="30.332412229087343" lon="-9.255211630756365"><ele>133.2</ele><time>2026-04-27T16:15:01Z</time></trkpt><trkpt lat="30.332378188116856" lon="-9.255316495080924"><ele>132.6</ele><time>2026-04-27T16:15:02Z</time></trkpt><trkpt lat="30.332340480541056" lon="-9.255421278996522"><ele>132.0</ele><time>2026-04-27T16:15:03Z</time></trkpt><trkpt lat="30.33230428350463" lon="-9.255533438831916"><ele>132.0</ele><time>2026-04-27T16:15:04Z</time></trkpt><trkpt lat="30.33226575959223" lon="-9.255642137019295"><ele>132.0</ele><time>2026-04-27T16:15:05Z</time></trkpt><trkpt lat="30.33222827486656" lon="-9.255746854663817"><ele>132.0</ele><time>2026-04-27T16:15:06Z</time></trkpt><trkpt lat="30.33219070361869" lon="-9.255839194947734"><ele>132.0</ele><time>2026-04-27T16:15:07Z</time></trkpt><trkpt lat="30.33216064851688" lon="-9.25592270440037"><ele>132.0</ele><time>2026-04-27T16:15:08Z</time></trkpt><trkpt lat="30.332140016333145" lon="-9.256005493910969"><ele>132.0</ele><time>2026-04-27T16:15:09Z</time></trkpt><trkpt lat="30.332120563064958" lon="-9.256122282662721"><ele>134.0</ele><time>2026-04-27T16:15:11Z</time></trkpt><trkpt lat="30.332096897291837" lon="-9.256191200466354"><ele>134.0</ele><time>2026-04-27T16:15:14Z</time></trkpt><trkpt lat="30.33203599483191" lon="-9.256249441140639"><ele>134.0</ele><time>2026-04-27T16:16:58Z</time></trkpt></trkseg><trkseg><trkpt lat="30.332043245001305" lon="-9.256151656789541"><ele>134.0</ele><time>2026-04-27T16:31:32.999Z</time></trkpt><trkpt lat="30.33210278243102" lon="-9.256176059475981"><ele>134.0</ele><time>2026-04-27T16:38:58.001Z</time></trkpt><trkpt lat="30.332069273312822" lon="-9.256255197356003"><ele>134.0</ele><time>2026-04-27T16:45:22Z</time></trkpt><trkpt lat="30.33200233396441" lon="-9.25618200712846"><ele>134.0</ele><time>2026-04-27T16:50:45.999Z</time></trkpt><trkpt lat="30.33199897602759" lon="-9.256281847582684"><ele>134.0</ele><time>2026-04-27T16:54:35Z</time></trkpt><trkpt lat="30.33194060258933" lon="-9.256422402272404"><ele>134.0</ele><time>2026-04-27T16:54:37Z</time></trkpt><trkpt lat="30.33191043834845" lon="-9.256510110142091"><ele>134.0</ele><time>2026-04-27T16:54:38Z</time></trkpt><trkpt lat="30.33187890072857" lon="-9.256592321963874"><ele>134.0</ele><time>2026-04-27T16:54:39Z</time></trkpt><trkpt lat="30.331852706699" lon="-9.256662542720933"><ele>134.0</ele><time>2026-04-27T16:54:40Z</time></trkpt><trkpt lat="30.331820051673002" lon="-9.256758330074007"><ele>134.0</ele><time>2026-04-27T16:54:41Z</time></trkpt><trkpt lat="30.3318085823948" lon="-9.256879950865013"><ele>134.0</ele><time>2026-04-27T16:54:42Z</time></trkpt><trkpt lat="30.33177157413849" lon="-9.256997368948392"><ele>134.0</ele><time>2026-04-27T16:54:43Z</time></trkpt><trkpt lat="30.331736352490193" lon="-9.257112214455075"><ele>134.0</ele><time>2026-04-27T16:54:44Z</time></trkpt><trkpt lat="30.331700025217025" lon="-9.257230985042204"><ele>134.0</ele><time>2026-04-27T16:54:45Z</time></trkpt><trkpt lat="30.331662256351038" lon="-9.25735446886776"><ele>134.0</ele><time>2026-04-27T16:54:46Z</time></trkpt><trkpt lat="30.3316223181793" lon="-9.257484637854734"><ele>134.0</ele><time>2026-04-27T16:54:47Z</time></trkpt><trkpt lat="30.33158176726146" lon="-9.257616649517024"><ele>134.25</ele><time>2026-04-27T16:54:48Z</time></trkpt><trkpt lat="30.331538990973804" lon="-9.25775590574015"><ele>134.5</ele><time>2026-04-27T16:54:49Z</time></trkpt><trkpt lat="30.33148356179999" lon="-9.257894614592361"><ele>134.75</ele><time>2026-04-27T16:54:50Z</time></trkpt><trkpt lat="30.331441207876576" lon="-9.258032917937125"><ele>135.0</ele><time>2026-04-27T16:54:51Z</time></trkpt><trkpt lat="30.331397414789798" lon="-9.258182221085269"><ele>135.0</ele><time>2026-04-27T16:54:52Z</time></trkpt><trkpt lat="30.331355097266538" lon="-9.258325663210247"><ele>135.0</ele><time>2026-04-27T16:54:53Z</time></trkpt><trkpt lat="30.331315223050485" lon="-9.2584656452414"><ele>135.0</ele><time>2026-04-27T16:54:54Z</time></trkpt><trkpt lat="30.3312720174916" lon="-9.258607115639224"><ele>135.0</ele><time>2026-04-27T16:54:55Z</time></trkpt><trkpt lat="30.331229413555786" lon="-9.258748411142546"><ele>135.0</ele><time>2026-04-27T16:54:56Z</time></trkpt><trkpt lat="30.33118741011884" lon="-9.258881649278797"><ele>135.0</ele><time>2026-04-27T16:54:57Z</time></trkpt><trkpt lat="30.331152004486704" lon="-9.259008288534403"><ele>135.0</ele><time>2026-04-27T16:54:58Z</time></trkpt><trkpt lat="30.331115744502526" lon="-9.259124497824244"><ele>135.0</ele><time>2026-04-27T16:54:59Z</time></trkpt><trkpt lat="30.331074276904136" lon="-9.259252598124482"><ele>134.75</ele><time>2026-04-27T16:55:00Z</time></trkpt><trkpt lat="30.33102765376075" lon="-9.259391017854435"><ele>134.5</ele><time>2026-04-27T16:55:01Z</time></trkpt><trkpt lat="30.330981748224204" lon="-9.259545898890847"><ele>134.25</ele><time>2026-04-27T16:55:02Z</time></trkpt><trkpt lat="30.330931590618853" lon="-9.259712185945096"><ele>134.0</ele><time>2026-04-27T16:55:03Z</time></trkpt><trkpt lat="30.33087949666837" lon="-9.25988696134501"><ele>133.0</ele><time>2026-04-27T16:55:04Z</time></trkpt><trkpt lat="30.330822842149626" lon="-9.260070984730364"><ele>132.0</ele><time>2026-04-27T16:55:05Z</time></trkpt><trkpt lat="30.330761430114766" lon="-9.260264699343768"><ele>131.0</ele><time>2026-04-27T16:55:06Z</time></trkpt><trkpt lat="30.330697847410118" lon="-9.260470261703613"><ele>130.66666666666666</ele><time>2026-04-27T16:55:07Z</time></trkpt><trkpt lat="30.33063911189969" lon="-9.260661991956628"><ele>130.33333333333334</ele><time>2026-04-27T16:55:08Z</time></trkpt><trkpt lat="30.330586576814053" lon="-9.260868534652953"><ele>130.0</ele><time>2026-04-27T16:55:09Z</time></trkpt><trkpt lat="30.330526114082225" lon="-9.261075544283923"><ele>130.0</ele><time>2026-04-27T16:55:10Z</time></trkpt><trkpt lat="30.330458800083708" lon="-9.261284383213043"><ele>130.0</ele><time>2026-04-27T16:55:11Z</time></trkpt><trkpt lat="30.330392408755436" lon="-9.26149266203"><ele>130.0</ele><time>2026-04-27T16:55:12Z</time></trkpt><trkpt lat="30.330324376984134" lon="-9.261695979759107"><ele>130.0</ele><time>2026-04-27T16:55:13Z</time></trkpt><trkpt lat="30.330254162646096" lon="-9.261913698974023"><ele>130.0</ele><time>2026-04-27T16:55:14Z</time></trkpt><trkpt lat="30.33018135444304" lon="-9.26213916309929"><ele>130.0</ele><time>2026-04-27T16:55:15Z</time></trkpt><trkpt lat="30.33011289311494" lon="-9.262375045097418"><ele>129.33333333333334</ele><time>2026-04-27T16:55:16Z</time></trkpt><trkpt lat="30.330059435692057" lon="-9.26260251607304"><ele>128.66666666666666</ele><time>2026-04-27T16:55:17Z</time></trkpt><trkpt lat="30.33001583598687" lon="-9.262812641525578"><ele>128.0</ele><time>2026-04-27T16:55:18Z</time></trkpt><trkpt lat="30.329979506828636" lon="-9.263008049350175"><ele>127.66666666666666</ele><time>2026-04-27T16:55:19Z</time></trkpt><trkpt lat="30.329941424353123" lon="-9.263224483580057"><ele>127.33333333333334</ele><time>2026-04-27T16:55:20Z</time></trkpt><trkpt lat="30.329902308263975" lon="-9.263475060418084"><ele>127.0</ele><time>2026-04-27T16:55:21Z</time></trkpt><trkpt lat="30.329871729356864" lon="-9.26373326676609"><ele>127.0</ele><time>2026-04-27T16:55:22Z</time></trkpt><trkpt lat="30.32984554255057" lon="-9.263987514689012"><ele>127.0</ele><time>2026-04-27T16:55:23Z</time></trkpt><trkpt lat="30.329816576597217" lon="-9.264248190453012"><ele>127.0</ele><time>2026-04-27T16:55:24Z</time></trkpt><trkpt lat="30.32978232187352" lon="-9.26450982892948"><ele>127.0</ele><time>2026-04-27T16:55:25Z</time></trkpt><trkpt lat="30.329745437318266" lon="-9.264774835947241"><ele>127.0</ele><time>2026-04-27T16:55:26Z</time></trkpt><trkpt lat="30.32970104394735" lon="-9.265040061843964"><ele>127.5</ele><time>2026-04-27T16:55:27Z</time></trkpt><trkpt lat="30.329650515010083" lon="-9.265306876500132"><ele>128.0</ele><time>2026-04-27T16:55:28Z</time></trkpt><trkpt lat="30.329591578947618" lon="-9.26556432844637"><ele>127.5</ele><time>2026-04-27T16:55:29Z</time></trkpt><trkpt lat="30.32952270578387" lon="-9.2658278553313"><ele>127.0</ele><time>2026-04-27T16:55:30Z</time></trkpt><trkpt lat="30.329445371734252" lon="-9.266090212730763"><ele>127.0</ele><time>2026-04-27T16:55:31Z</time></trkpt><trkpt lat="30.329363084677492" lon="-9.26634398993748"><ele>127.0</ele><time>2026-04-27T16:55:32Z</time></trkpt><trkpt lat="30.329278527969212" lon="-9.266586457266357"><ele>127.0</ele><time>2026-04-27T16:55:33Z</time></trkpt><trkpt lat="30.329188827238003" lon="-9.266820551957329"><ele>127.0</ele><time>2026-04-27T16:55:34Z</time></trkpt><trkpt lat="30.329094609525736" lon="-9.267045577090814"><ele>127.0</ele><time>2026-04-27T16:55:35Z</time></trkpt><trkpt lat="30.32899328163821" lon="-9.267264568523697"><ele>126.66666666666667</ele><time>2026-04-27T16:55:36Z</time></trkpt><trkpt lat="30.328875312728275" lon="-9.267473871408514"><ele>126.33333333333334</ele><time>2026-04-27T16:55:37Z</time></trkpt><trkpt lat="30.328749591098262" lon="-9.267687408990643"><ele>126.0</ele><time>2026-04-27T16:55:38Z</time></trkpt><trkpt lat="30.328623720627782" lon="-9.267912850221453"><ele>126.0</ele><time>2026-04-27T16:55:39Z</time></trkpt><trkpt lat="30.32849550746769" lon="-9.268141288359992"><ele>126.0</ele><time>2026-04-27T16:55:40Z</time></trkpt><trkpt lat="30.328363656855835" lon="-9.268375629237468"><ele>126.0</ele><time>2026-04-27T16:55:41Z</time></trkpt><trkpt lat="30.32823098184197" lon="-9.268622194805747"><ele>126.0</ele><time>2026-04-27T16:55:42Z</time></trkpt><trkpt lat="30.3280954979652" lon="-9.268877648429948"><ele>126.5</ele><time>2026-04-27T16:55:43Z</time></trkpt><trkpt lat="30.327954250969405" lon="-9.269144553608303"><ele>127.0</ele><time>2026-04-27T16:55:44Z</time></trkpt><trkpt lat="30.327810264080185" lon="-9.269415493579967"><ele>127.0</ele><time>2026-04-27T16:55:45Z</time></trkpt><trkpt lat="30.327667249409934" lon="-9.269680184226216"><ele>127.0</ele><time>2026-04-27T16:55:46Z</time></trkpt><trkpt lat="30.327523870298094" lon="-9.269946307129668"><ele>126.5</ele><time>2026-04-27T16:55:47Z</time></trkpt><trkpt lat="30.32737528831815" lon="-9.270215728460746"><ele>126.0</ele><time>2026-04-27T16:55:48Z</time></trkpt><trkpt lat="30.32722573360155" lon="-9.270483378932243"><ele>125.5</ele><time>2026-04-27T16:55:49.001Z</time></trkpt><trkpt lat="30.32707495115338" lon="-9.270756433424939"><ele>125.0</ele><time>2026-04-27T16:55:50.001Z</time></trkpt><trkpt lat="30.32692650056787" lon="-9.271031976498053"><ele>125.0</ele><time>2026-04-27T16:55:51.001Z</time></trkpt><trkpt lat="30.32677950991231" lon="-9.271308510823705"><ele>125.0</ele><time>2026-04-27T16:55:52.001Z</time></trkpt><trkpt lat="30.326638359855675" lon="-9.271577804257955"><ele>125.0</ele><time>2026-04-27T16:55:53.001Z</time></trkpt><trkpt lat="30.326502412720657" lon="-9.271837781181185"><ele>125.0</ele><time>2026-04-27T16:55:54.001Z</time></trkpt><trkpt lat="30.32637050929574" lon="-9.272086804859251"><ele>125.5</ele><time>2026-04-27T16:55:55.001Z</time></trkpt><trkpt lat="30.326242012244897" lon="-9.272323429298373"><ele>126.0</ele><time>2026-04-27T16:55:56.001Z</time></trkpt><trkpt lat="30.326111508595993" lon="-9.27255950220967"><ele>126.0</ele><time>2026-04-27T16:55:57.001Z</time></trkpt><trkpt lat="30.32597507033923" lon="-9.272798834768457"><ele>126.0</ele><time>2026-04-27T16:55:58.001Z</time></trkpt><trkpt lat="30.325832673843788" lon="-9.27303991154854"><ele>126.0</ele><time>2026-04-27T16:55:59.001Z</time></trkpt><trkpt lat="30.325686911983535" lon="-9.273280468106709"><ele>126.0</ele><time>2026-04-27T16:56:00.001Z</time></trkpt><trkpt lat="30.325540954327952" lon="-9.27352248873508"><ele>126.0</ele><time>2026-04-27T16:56:01.001Z</time></trkpt><trkpt lat="30.32538706967615" lon="-9.273759697331121"><ele>126.0</ele><time>2026-04-27T16:56:02.001Z</time></trkpt><trkpt lat="30.325218343806224" lon="-9.273989238643079"><ele>125.0</ele><time>2026-04-27T16:56:03.001Z</time></trkpt><trkpt lat="30.325038003451372" lon="-9.274209331904212"><ele>124.0</ele><time>2026-04-27T16:56:04.001Z</time></trkpt><trkpt lat="30.324854121592814" lon="-9.274415745537459"><ele>124.5</ele><time>2026-04-27T16:56:05.001Z</time></trkpt><trkpt lat="30.32466744493713" lon="-9.274615673812207"><ele>125.0</ele><time>2026-04-27T16:56:06.001Z</time></trkpt><trkpt lat="30.324476408911732" lon="-9.274811869230554"><ele>125.0</ele><time>2026-04-27T16:56:07.001Z</time></trkpt><trkpt lat="30.32429033705193" lon="-9.275001082899111"><ele>125.0</ele><time>2026-04-27T16:56:08.001Z</time></trkpt><trkpt lat="30.32410854300388" lon="-9.275185787218527"><ele>125.0</ele><time>2026-04-27T16:56:09.001Z</time></trkpt><trkpt lat="30.323925978958844" lon="-9.275372547742478"><ele>125.0</ele><time>2026-04-27T16:56:10.001Z</time></trkpt><trkpt lat="30.323749691208455" lon="-9.275561134951126"><ele>124.0</ele><time>2026-04-27T16:56:11.001Z</time></trkpt><trkpt lat="30.32358431672744" lon="-9.275754606780527"><ele>123.0</ele><time>2026-04-27T16:56:12.001Z</time></trkpt><trkpt lat="30.32342850891829" lon="-9.275956600880539"><ele>123.0</ele><time>2026-04-27T16:56:13.001Z</time></trkpt><trkpt lat="30.323289102780986" lon="-9.276166093587765"><ele>123.0</ele><time>2026-04-27T16:56:14.001Z</time></trkpt><trkpt lat="30.32316137470501" lon="-9.276385927838566"><ele>124.0</ele><time>2026-04-27T16:56:15.001Z</time></trkpt><trkpt lat="30.32304421039542" lon="-9.276614337386313"><ele>125.0</ele><time>2026-04-27T16:56:16.001Z</time></trkpt><trkpt lat="30.322931051719785" lon="-9.27686168429478"><ele>125.0</ele><time>2026-04-27T16:56:17.001Z</time></trkpt><trkpt lat="30.32282709875144" lon="-9.277110974949071"><ele>125.0</ele><time>2026-04-27T16:56:18.001Z</time></trkpt><trkpt lat="30.322732684801302" lon="-9.277365657383541"><ele>125.0</ele><time>2026-04-27T16:56:19.001Z</time></trkpt><trkpt lat="30.322651817296606" lon="-9.27761960321277"><ele>125.0</ele><time>2026-04-27T16:56:20.001Z</time></trkpt><trkpt lat="30.322582167288736" lon="-9.277877228195928"><ele>124.5</ele><time>2026-04-27T16:56:21.001Z</time></trkpt><trkpt lat="30.322519131827587" lon="-9.278146962649371"><ele>124.0</ele><time>2026-04-27T16:56:22.001Z</time></trkpt><trkpt lat="30.322456406066024" lon="-9.278430735697864"><ele>124.0</ele><time>2026-04-27T16:56:23.001Z</time></trkpt><trkpt lat="30.322397893346125" lon="-9.278725536123412"><ele>124.0</ele><time>2026-04-27T16:56:24.001Z</time></trkpt><trkpt lat="30.322342534806328" lon="-9.279017702632283"><ele>123.5</ele><time>2026-04-27T16:56:25.001Z</time></trkpt><trkpt lat="30.32229135734578" lon="-9.279304846739889"><ele>123.0</ele><time>2026-04-27T16:56:26.001Z</time></trkpt><trkpt lat="30.322254198643304" lon="-9.279589733139716"><ele>124.0</ele><time>2026-04-27T16:56:27.001Z</time></trkpt><trkpt lat="30.322224403055174" lon="-9.279879433122632"><ele>125.0</ele><time>2026-04-27T16:56:28.001Z</time></trkpt><trkpt lat="30.32217809993051" lon="-9.280165107367282"><ele>125.0</ele><time>2026-04-27T16:56:29.001Z</time></trkpt><trkpt lat="30.322122154387284" lon="-9.280453151658602"><ele>125.0</ele><time>2026-04-27T16:56:30.001Z</time></trkpt><trkpt lat="30.322065414859257" lon="-9.280738906385036"><ele>125.5</ele><time>2026-04-27T16:56:31.001Z</time></trkpt><trkpt lat="30.322005344016667" lon="-9.281026306814256"><ele>126.0</ele><time>2026-04-27T16:56:32.001Z</time></trkpt><trkpt lat="30.321946096103094" lon="-9.281315874128088"><ele>124.5</ele><time>2026-04-27T16:56:33.001Z</time></trkpt><trkpt lat="30.321886541621478" lon="-9.281597233026218"><ele>123.0</ele><time>2026-04-27T16:56:34.001Z</time></trkpt><trkpt lat="30.321834239730993" lon="-9.28188139274196"><ele>123.0</ele><time>2026-04-27T16:56:35.001Z</time></trkpt><trkpt lat="30.321794753988588" lon="-9.282162864738943"><ele>123.0</ele><time>2026-04-27T16:56:36.001Z</time></trkpt><trkpt lat="30.321761038710136" lon="-9.282443195263102"><ele>123.5</ele><time>2026-04-27T16:56:37.001Z</time></trkpt><trkpt lat="30.321716135100733" lon="-9.282710852311775"><ele>124.0</ele><time>2026-04-27T16:56:38.001Z</time></trkpt><trkpt lat="30.32166521762279" lon="-9.282974316458233"><ele>123.5</ele><time>2026-04-27T16:56:39.001Z</time></trkpt><trkpt lat="30.32161325507301" lon="-9.28323678646226"><ele>123.0</ele><time>2026-04-27T16:56:40Z</time></trkpt><trkpt lat="30.321562821913354" lon="-9.283498228551771"><ele>123.0</ele><time>2026-04-27T16:56:41Z</time></trkpt><trkpt lat="30.321514634826233" lon="-9.283758556800857"><ele>123.0</ele><time>2026-04-27T16:56:42Z</time></trkpt><trkpt lat="30.321468265612054" lon="-9.284017427124889"><ele>123.0</ele><time>2026-04-27T16:56:43Z</time></trkpt><trkpt lat="30.321416687982893" lon="-9.284281927917164"><ele>123.0</ele><time>2026-04-27T16:56:44Z</time></trkpt><trkpt lat="30.321363548020823" lon="-9.284547408352083"><ele>123.0</ele><time>2026-04-27T16:56:45Z</time></trkpt><trkpt lat="30.321307076260485" lon="-9.284812431192822"><ele>123.0</ele><time>2026-04-27T16:56:46Z</time></trkpt><trkpt lat="30.321252483167832" lon="-9.285082696755659"><ele>123.0</ele><time>2026-04-27T16:56:47Z</time></trkpt><trkpt lat="30.32120392552415" lon="-9.285351792674604"><ele>123.0</ele><time>2026-04-27T16:56:48Z</time></trkpt><trkpt lat="30.321156177438954" lon="-9.285638124378087"><ele>123.5</ele><time>2026-04-27T16:56:49Z</time></trkpt><trkpt lat="30.321124365376168" lon="-9.285908480950537"><ele>124.0</ele><time>2026-04-27T16:56:50Z</time></trkpt><trkpt lat="30.321083037343012" lon="-9.286171737065816"><ele>123.5</ele><time>2026-04-27T16:56:51Z</time></trkpt><trkpt lat="30.32103791984916" lon="-9.286431394191036"><ele>123.0</ele><time>2026-04-27T16:56:52Z</time></trkpt><trkpt lat="30.320992480031965" lon="-9.286689587216621"><ele>123.0</ele><time>2026-04-27T16:56:53Z</time></trkpt><trkpt lat="30.32094467218891" lon="-9.286946644611199"><ele>123.0</ele><time>2026-04-27T16:56:54Z</time></trkpt><trkpt lat="30.320895612951343" lon="-9.287210166954166"><ele>122.5</ele><time>2026-04-27T16:56:55Z</time></trkpt><trkpt lat="30.320844795656257" lon="-9.287476690421556"><ele>122.0</ele><time>2026-04-27T16:56:56Z</time></trkpt><trkpt lat="30.320793361501035" lon="-9.287744686354714"><ele>122.0</ele><time>2026-04-27T16:56:57Z</time></trkpt><trkpt lat="30.320745045631398" lon="-9.288009693257504"><ele>122.0</ele><time>2026-04-27T16:56:58Z</time></trkpt><trkpt lat="30.320697797543563" lon="-9.288275486261737"><ele>122.5</ele><time>2026-04-27T16:56:59Z</time></trkpt><trkpt lat="30.32065126495256" lon="-9.288538729964493"><ele>123.0</ele><time>2026-04-27T16:57:00Z</time></trkpt><trkpt lat="30.320602226732753" lon="-9.288808604298126"><ele>122.5</ele><time>2026-04-27T16:57:01Z</time></trkpt><trkpt lat="30.320553918414973" lon="-9.289078558520652"><ele>122.0</ele><time>2026-04-27T16:57:02Z</time></trkpt><trkpt lat="30.32050728065938" lon="-9.289348823558232"><ele>122.0</ele><time>2026-04-27T16:57:03Z</time></trkpt><trkpt lat="30.320460220179697" lon="-9.289616963866935"><ele>122.0</ele><time>2026-04-27T16:57:04Z</time></trkpt><trkpt lat="30.320411601704198" lon="-9.289879571863334"><ele>122.0</ele><time>2026-04-27T16:57:05Z</time></trkpt><trkpt lat="30.320366267466284" lon="-9.29014374135155"><ele>122.0</ele><time>2026-04-27T16:57:06Z</time></trkpt><trkpt lat="30.32032277453891" lon="-9.290409843278438"><ele>121.5</ele><time>2026-04-27T16:57:07Z</time></trkpt><trkpt lat="30.32027802755961" lon="-9.290675819146298"><ele>121.0</ele><time>2026-04-27T16:57:08Z</time></trkpt><trkpt lat="30.320230498413245" lon="-9.290946870346833"><ele>121.0</ele><time>2026-04-27T16:57:09Z</time></trkpt><trkpt lat="30.320182006644213" lon="-9.291216275775314"><ele>121.0</ele><time>2026-04-27T16:57:10Z</time></trkpt><trkpt lat="30.320137463007033" lon="-9.291493859404131"><ele>120.5</ele><time>2026-04-27T16:57:11Z</time></trkpt><trkpt lat="30.320097355264178" lon="-9.291777301937312"><ele>120.0</ele><time>2026-04-27T16:57:12Z</time></trkpt><trkpt lat="30.32006205925028" lon="-9.29206790813489"><ele>120.5</ele><time>2026-04-27T16:57:13Z</time></trkpt><trkpt lat="30.320037345959356" lon="-9.292371899607579"><ele>121.0</ele><time>2026-04-27T16:57:14Z</time></trkpt><trkpt lat="30.320022224506936" lon="-9.292683671611515"><ele>121.0</ele><time>2026-04-27T16:57:15Z</time></trkpt><trkpt lat="30.320016623264877" lon="-9.292994383067848"><ele>121.0</ele><time>2026-04-27T16:57:16Z</time></trkpt><trkpt lat="30.320017301779796" lon="-9.29330230366774"><ele>121.0</ele><time>2026-04-27T16:57:17Z</time></trkpt><trkpt lat="30.320022971508724" lon="-9.293609937113876"><ele>121.0</ele><time>2026-04-27T16:57:18Z</time></trkpt><trkpt lat="30.320030631184068" lon="-9.293916506183535"><ele>120.0</ele><time>2026-04-27T16:57:19Z</time></trkpt><trkpt lat="30.320037790109588" lon="-9.294223229697993"><ele>119.0</ele><time>2026-04-27T16:57:20Z</time></trkpt><trkpt lat="30.320046299273383" lon="-9.294523187922612"><ele>120.0</ele><time>2026-04-27T16:57:21Z</time></trkpt><trkpt lat="30.32005323494116" lon="-9.294820999038427"><ele>121.0</ele><time>2026-04-27T16:57:22Z</time></trkpt><trkpt lat="30.320060926966928" lon="-9.29511872993332"><ele>121.0</ele><time>2026-04-27T16:57:23Z</time></trkpt><trkpt lat="30.320072983628418" lon="-9.295414649569906"><ele>121.0</ele><time>2026-04-27T16:57:24Z</time></trkpt><trkpt lat="30.320088299647864" lon="-9.295701715435971"><ele>120.5</ele><time>2026-04-27T16:57:25Z</time></trkpt><trkpt lat="30.320112687696035" lon="-9.295984078896288"><ele>120.0</ele><time>2026-04-27T16:57:26Z</time></trkpt><trkpt lat="30.320133632996086" lon="-9.296265359901843"><ele>119.0</ele><time>2026-04-27T16:57:27Z</time></trkpt><trkpt lat="30.320146986108213" lon="-9.296544660745333"><ele>118.0</ele><time>2026-04-27T16:57:28Z</time></trkpt><trkpt lat="30.320157273217276" lon="-9.296827202890404"><ele>118.0</ele><time>2026-04-27T16:57:29Z</time></trkpt><trkpt lat="30.320168270702887" lon="-9.297108869334792"><ele>118.0</ele><time>2026-04-27T16:57:30Z</time></trkpt><trkpt lat="30.320181035306938" lon="-9.297390301595629"><ele>118.5</ele><time>2026-04-27T16:57:31Z</time></trkpt><trkpt lat="30.320195916070077" lon="-9.297676127864364"><ele>119.0</ele><time>2026-04-27T16:57:32Z</time></trkpt><trkpt lat="30.32021128111964" lon="-9.297966362836009"><ele>118.5</ele><time>2026-04-27T16:57:33Z</time></trkpt><trkpt lat="30.320224123654075" lon="-9.29825540265397"><ele>118.0</ele><time>2026-04-27T16:57:34Z</time></trkpt><trkpt lat="30.320234104442687" lon="-9.298540181477483"><ele>118.0</ele><time>2026-04-27T16:57:35Z</time></trkpt><trkpt lat="30.320242156237782" lon="-9.298830932390088"><ele>118.0</ele><time>2026-04-27T16:57:36Z</time></trkpt><trkpt lat="30.32025300031338" lon="-9.299133725147387"><ele>118.5</ele><time>2026-04-27T16:57:37Z</time></trkpt><trkpt lat="30.320265066809334" lon="-9.299439624416436"><ele>119.0</ele><time>2026-04-27T16:57:38Z</time></trkpt><trkpt lat="30.320276619390896" lon="-9.299743540452429"><ele>118.5</ele><time>2026-04-27T16:57:39Z</time></trkpt><trkpt lat="30.320288843085912" lon="-9.300043176612458"><ele>118.0</ele><time>2026-04-27T16:57:40Z</time></trkpt><trkpt lat="30.32030104695102" lon="-9.300341344960911"><ele>118.0</ele><time>2026-04-27T16:57:41Z</time></trkpt><trkpt lat="30.320313803907293" lon="-9.300636334319831"><ele>118.0</ele><time>2026-04-27T16:57:42Z</time></trkpt><trkpt lat="30.320326446324728" lon="-9.30092955539127"><ele>118.0</ele><time>2026-04-27T16:57:43Z</time></trkpt><trkpt lat="30.320338409946004" lon="-9.30123170390505"><ele>118.0</ele><time>2026-04-27T16:57:44Z</time></trkpt><trkpt lat="30.320350978293316" lon="-9.301532460260082"><ele>116.5</ele><time>2026-04-27T16:57:45Z</time></trkpt><trkpt lat="30.32036597920825" lon="-9.301831848000322"><ele>115.0</ele><time>2026-04-27T16:57:46Z</time></trkpt><trkpt lat="30.320379261288988" lon="-9.302127568833967"><ele>115.0</ele><time>2026-04-27T16:57:47Z</time></trkpt><trkpt lat="30.320391628216175" lon="-9.302423851526417"><ele>115.0</ele><time>2026-04-27T16:57:48Z</time></trkpt><trkpt lat="30.32040226314267" lon="-9.302723575399343"><ele>115.0</ele><time>2026-04-27T16:57:49Z</time></trkpt><trkpt lat="30.320411471773376" lon="-9.303024627047474"><ele>115.0</ele><time>2026-04-27T16:57:50Z</time></trkpt><trkpt lat="30.320420769153955" lon="-9.303330704359379"><ele>115.0</ele><time>2026-04-27T16:57:51Z</time></trkpt><trkpt lat="30.320432763065423" lon="-9.303638470904255"><ele>115.0</ele><time>2026-04-27T16:57:52Z</time></trkpt><trkpt lat="30.320446133512522" lon="-9.303949189250089"><ele>116.0</ele><time>2026-04-27T16:57:53Z</time></trkpt><trkpt lat="30.32046201132019" lon="-9.304260771744856"><ele>117.0</ele><time>2026-04-27T16:57:54Z</time></trkpt><trkpt lat="30.320479648923147" lon="-9.304572350011956"><ele>116.0</ele><time>2026-04-27T16:57:55Z</time></trkpt><trkpt lat="30.32049621798194" lon="-9.304882096274442"><ele>115.0</ele><time>2026-04-27T16:57:56.001Z</time></trkpt><trkpt lat="30.320509639813107" lon="-9.305188306662341"><ele>115.0</ele><time>2026-04-27T16:57:57.001Z</time></trkpt><trkpt lat="30.32052051222083" lon="-9.305492872233406"><ele>115.0</ele><time>2026-04-27T16:57:58.001Z</time></trkpt><trkpt lat="30.320532196778387" lon="-9.305795374047918"><ele>114.5</ele><time>2026-04-27T16:57:59.001Z</time></trkpt><trkpt lat="30.32054277390028" lon="-9.306099054623628"><ele>114.0</ele><time>2026-04-27T16:58:00.001Z</time></trkpt><trkpt lat="30.320556154147535" lon="-9.306392628625918"><ele>114.5</ele><time>2026-04-27T16:58:01.001Z</time></trkpt><trkpt lat="30.32056822621067" lon="-9.30667929779173"><ele>115.0</ele><time>2026-04-27T16:58:02.001Z</time></trkpt><trkpt lat="30.320580719943305" lon="-9.306962878854065"><ele>115.5</ele><time>2026-04-27T16:58:03.001Z</time></trkpt><trkpt lat="30.32059277946538" lon="-9.307246194240312"><ele>116.0</ele><time>2026-04-27T16:58:04.001Z</time></trkpt><trkpt lat="30.32060485483125" lon="-9.307535875144385"><ele>116.0</ele><time>2026-04-27T16:58:05.001Z</time></trkpt><trkpt lat="30.3206145136774" lon="-9.307823492017922"><ele>116.0</ele><time>2026-04-27T16:58:06.001Z</time></trkpt><trkpt lat="30.32062701863074" lon="-9.308107645261938"><ele>115.0</ele><time>2026-04-27T16:58:07.001Z</time></trkpt><trkpt lat="30.320640288209916" lon="-9.308395585141525"><ele>114.0</ele><time>2026-04-27T16:58:08.001Z</time></trkpt><trkpt lat="30.320654683550785" lon="-9.308683388548067"><ele>114.5</ele><time>2026-04-27T16:58:09.001Z</time></trkpt><trkpt lat="30.32066876585828" lon="-9.30897063052743"><ele>115.0</ele><time>2026-04-27T16:58:10.001Z</time></trkpt><trkpt lat="30.320681978406874" lon="-9.3092587591015"><ele>115.0</ele><time>2026-04-27T16:58:11.001Z</time></trkpt><trkpt lat="30.32069438189147" lon="-9.309552482199194"><ele>115.0</ele><time>2026-04-27T16:58:12.001Z</time></trkpt><trkpt lat="30.32070608561533" lon="-9.309845777527803"><ele>114.5</ele><time>2026-04-27T16:58:13.001Z</time></trkpt><trkpt lat="30.320718513972146" lon="-9.310143453797439"><ele>114.0</ele><time>2026-04-27T16:58:14.001Z</time></trkpt><trkpt lat="30.32073068717103" lon="-9.31043927496879"><ele>114.0</ele><time>2026-04-27T16:58:15.001Z</time></trkpt><trkpt lat="30.320742217646146" lon="-9.31073358369712"><ele>114.0</ele><time>2026-04-27T16:58:16.001Z</time></trkpt><trkpt lat="30.320755140397655" lon="-9.31102260177417"><ele>114.0</ele><time>2026-04-27T16:58:17.001Z</time></trkpt><trkpt lat="30.32076875609713" lon="-9.311310859604644"><ele>114.0</ele><time>2026-04-27T16:58:18.001Z</time></trkpt><trkpt lat="30.32078018780944" lon="-9.311598258044958"><ele>114.0</ele><time>2026-04-27T16:58:19.001Z</time></trkpt><trkpt lat="30.320790097840863" lon="-9.31189371995835"><ele>114.0</ele><time>2026-04-27T16:58:20.001Z</time></trkpt><trkpt lat="30.32080137869396" lon="-9.312183884650004"><ele>114.5</ele><time>2026-04-27T16:58:21.001Z</time></trkpt><trkpt lat="30.320809768435907" lon="-9.312472865813993"><ele>115.0</ele><time>2026-04-27T16:58:22.001Z</time></trkpt><trkpt lat="30.320816674054985" lon="-9.312763414962857"><ele>115.0</ele><time>2026-04-27T16:58:23.001Z</time></trkpt><trkpt lat="30.320824384480378" lon="-9.313055136904369"><ele>115.0</ele><time>2026-04-27T16:58:24.001Z</time></trkpt><trkpt lat="30.320836586643033" lon="-9.313344361931376"><ele>114.5</ele><time>2026-04-27T16:58:25.001Z</time></trkpt><trkpt lat="30.320851644518214" lon="-9.31363492396912"><ele>114.0</ele><time>2026-04-27T16:58:26.001Z</time></trkpt><trkpt lat="30.320863768294192" lon="-9.313922258598451"><ele>113.0</ele><time>2026-04-27T16:58:27.001Z</time></trkpt><trkpt lat="30.320876499730165" lon="-9.31421316370802"><ele>112.0</ele><time>2026-04-27T16:58:28.001Z</time></trkpt><trkpt lat="30.320888149292678" lon="-9.31450561021247"><ele>112.0</ele><time>2026-04-27T16:58:29.001Z</time></trkpt><trkpt lat="30.320898050534904" lon="-9.314798226394531"><ele>112.0</ele><time>2026-04-27T16:58:30.001Z</time></trkpt><trkpt lat="30.320910105415944" lon="-9.315093005701973"><ele>112.0</ele><time>2026-04-27T16:58:31.001Z</time></trkpt><trkpt lat="30.320922284095374" lon="-9.315382053920507"><ele>112.0</ele><time>2026-04-27T16:58:32.001Z</time></trkpt><trkpt lat="30.32093509768302" lon="-9.315662752535589"><ele>112.5</ele><time>2026-04-27T16:58:33.001Z</time></trkpt><trkpt lat="30.32094773769382" lon="-9.315942459473405"><ele>113.0</ele><time>2026-04-27T16:58:34.001Z</time></trkpt><trkpt lat="30.320960779858893" lon="-9.316221819295492"><ele>114.0</ele><time>2026-04-27T16:58:35.001Z</time></trkpt><trkpt lat="30.32097482090547" lon="-9.316502173650118"><ele>115.0</ele><time>2026-04-27T16:58:36.001Z</time></trkpt><trkpt lat="30.32098864725612" lon="-9.316786419524886"><ele>115.0</ele><time>2026-04-27T16:58:37.001Z</time></trkpt><trkpt lat="30.32100056509352" lon="-9.317067895433897"><ele>115.0</ele><time>2026-04-27T16:58:38.001Z</time></trkpt><trkpt lat="30.32100997970174" lon="-9.317351876859373"><ele>114.0</ele><time>2026-04-27T16:58:39.001Z</time></trkpt><trkpt lat="30.32102022882117" lon="-9.31763782757632"><ele>113.0</ele><time>2026-04-27T16:58:40.001Z</time></trkpt><trkpt lat="30.321031025585754" lon="-9.317929921929027"><ele>112.5</ele><time>2026-04-27T16:58:41.001Z</time></trkpt><trkpt lat="30.32104348158485" lon="-9.318226083186188"><ele>112.0</ele><time>2026-04-27T16:58:42.001Z</time></trkpt><trkpt lat="30.321058633367233" lon="-9.318522131307342"><ele>112.0</ele><time>2026-04-27T16:58:43.001Z</time></trkpt><trkpt lat="30.32107299373395" lon="-9.318819123901179"><ele>112.0</ele><time>2026-04-27T16:58:44.001Z</time></trkpt><trkpt lat="30.321087195212282" lon="-9.319114470709367"><ele>112.0</ele><time>2026-04-27T16:58:45.001Z</time></trkpt><trkpt lat="30.321100188289392" lon="-9.319411317093616"><ele>112.0</ele><time>2026-04-27T16:58:46.001Z</time></trkpt><trkpt lat="30.32111236476398" lon="-9.319709280533159"><ele>113.0</ele><time>2026-04-27T16:58:47.001Z</time></trkpt><trkpt lat="30.321122518509146" lon="-9.320007197199232"><ele>114.0</ele><time>2026-04-27T16:58:48.001Z</time></trkpt><trkpt lat="30.321134681239574" lon="-9.320307361052032"><ele>113.5</ele><time>2026-04-27T16:58:49.001Z</time></trkpt><trkpt lat="30.321147162621816" lon="-9.320608664837536"><ele>113.0</ele><time>2026-04-27T16:58:50.001Z</time></trkpt><trkpt lat="30.321164418389557" lon="-9.320905460993323"><ele>113.0</ele><time>2026-04-27T16:58:51.001Z</time></trkpt><trkpt lat="30.321186899512828" lon="-9.321200081210218"><ele>113.0</ele><time>2026-04-27T16:58:52.001Z</time></trkpt><trkpt lat="30.321213271799838" lon="-9.32148282222442"><ele>113.0</ele><time>2026-04-27T16:58:53.001Z</time></trkpt><trkpt lat="30.3212439206885" lon="-9.321760027643055"><ele>113.0</ele><time>2026-04-27T16:58:54.001Z</time></trkpt><trkpt lat="30.321278695291884" lon="-9.32203495534103"><ele>112.0</ele><time>2026-04-27T16:58:55.001Z</time></trkpt><trkpt lat="30.321319011990973" lon="-9.322311031539739"><ele>111.0</ele><time>2026-04-27T16:58:56.001Z</time></trkpt><trkpt lat="30.321368163867177" lon="-9.322590006233096"><ele>111.0</ele><time>2026-04-27T16:58:57.001Z</time></trkpt><trkpt lat="30.32142200169779" lon="-9.322864861438658"><ele>111.0</ele><time>2026-04-27T16:58:58.001Z</time></trkpt><trkpt lat="30.321477531195242" lon="-9.323139466414288"><ele>111.0</ele><time>2026-04-27T16:58:59.001Z</time></trkpt><trkpt lat="30.321535714489666" lon="-9.323415862151093"><ele>111.0</ele><time>2026-04-27T16:59:00Z</time></trkpt><trkpt lat="30.32159936459519" lon="-9.323699393224754"><ele>111.0</ele><time>2026-04-27T16:59:01Z</time></trkpt><trkpt lat="30.32166521987171" lon="-9.323977353481746"><ele>111.0</ele><time>2026-04-27T16:59:02Z</time></trkpt><trkpt lat="30.32173368246418" lon="-9.324252852264447"><ele>111.0</ele><time>2026-04-27T16:59:03Z</time></trkpt><trkpt lat="30.321801856714032" lon="-9.324528257767257"><ele>111.0</ele><time>2026-04-27T16:59:04Z</time></trkpt><trkpt lat="30.321867383886296" lon="-9.324804878801748"><ele>110.0</ele><time>2026-04-27T16:59:05Z</time></trkpt><trkpt lat="30.32193173917308" lon="-9.32508035255785"><ele>109.0</ele><time>2026-04-27T16:59:06Z</time></trkpt><trkpt lat="30.321997029072005" lon="-9.325354881369908"><ele>109.0</ele><time>2026-04-27T16:59:07Z</time></trkpt><trkpt lat="30.322062975938575" lon="-9.325626870838514"><ele>109.0</ele><time>2026-04-27T16:59:08Z</time></trkpt><trkpt lat="30.32212875028366" lon="-9.32589778721669"><ele>109.0</ele><time>2026-04-27T16:59:09Z</time></trkpt><trkpt lat="30.322194979819226" lon="-9.326168807406262"><ele>109.0</ele><time>2026-04-27T16:59:10Z</time></trkpt><trkpt lat="30.322262604903223" lon="-9.32644576523667"><ele>108.5</ele><time>2026-04-27T16:59:11Z</time></trkpt><trkpt lat="30.32233379881337" lon="-9.326725410649374"><ele>108.0</ele><time>2026-04-27T16:59:12Z</time></trkpt><trkpt lat="30.32240437816052" lon="-9.327004873031374"><ele>107.5</ele><time>2026-04-27T16:59:13Z</time></trkpt><trkpt lat="30.32247384017169" lon="-9.327285726564275"><ele>107.0</ele><time>2026-04-27T16:59:14Z</time></trkpt><trkpt lat="30.322541454023003" lon="-9.327558301325517"><ele>107.0</ele><time>2026-04-27T16:59:15Z</time></trkpt><trkpt lat="30.322605230484072" lon="-9.32783132184302"><ele>107.0</ele><time>2026-04-27T16:59:16Z</time></trkpt><trkpt lat="30.322669146045815" lon="-9.328098800635438"><ele>106.5</ele><time>2026-04-27T16:59:17Z</time></trkpt><trkpt lat="30.322732336645846" lon="-9.32836594115059"><ele>106.0</ele><time>2026-04-27T16:59:18Z</time></trkpt><trkpt lat="30.322798765205338" lon="-9.328630774295476"><ele>106.5</ele><time>2026-04-27T16:59:19Z</time></trkpt><trkpt lat="30.32286572049904" lon="-9.328895148639623"><ele>107.0</ele><time>2026-04-27T16:59:20Z</time></trkpt><trkpt lat="30.322933095206785" lon="-9.32915769142299"><ele>107.0</ele><time>2026-04-27T16:59:21Z</time></trkpt><trkpt lat="30.322997469739285" lon="-9.329419642314187"><ele>107.0</ele><time>2026-04-27T16:59:22Z</time></trkpt><trkpt lat="30.323061341656494" lon="-9.329677411827113"><ele>106.5</ele><time>2026-04-27T16:59:23Z</time></trkpt><trkpt lat="30.323123090961293" lon="-9.32993004631493"><ele>106.0</ele><time>2026-04-27T16:59:24Z</time></trkpt><trkpt lat="30.323185309643698" lon="-9.33018042749803"><ele>106.0</ele><time>2026-04-27T16:59:25Z</time></trkpt><trkpt lat="30.323247583632863" lon="-9.330432915120861"><ele>106.0</ele><time>2026-04-27T16:59:26Z</time></trkpt><trkpt lat="30.323309807375832" lon="-9.33068235122799"><ele>106.5</ele><time>2026-04-27T16:59:27.001Z</time></trkpt><trkpt lat="30.32337343386054" lon="-9.33094094340894"><ele>107.0</ele><time>2026-04-27T16:59:28.001Z</time></trkpt><trkpt lat="30.323437700072496" lon="-9.331197981960518"><ele>106.5</ele><time>2026-04-27T16:59:29.001Z</time></trkpt><trkpt lat="30.323499974134794" lon="-9.331450687384828"><ele>106.0</ele><time>2026-04-27T16:59:30.001Z</time></trkpt><trkpt lat="30.32356070404501" lon="-9.331701616925896"><ele>106.0</ele><time>2026-04-27T16:59:31.001Z</time></trkpt><trkpt lat="30.323621394378566" lon="-9.331956693466152"><ele>106.0</ele><time>2026-04-27T16:59:32.001Z</time></trkpt><trkpt lat="30.3236822105669" lon="-9.332216304026927"><ele>106.0</ele><time>2026-04-27T16:59:33.001Z</time></trkpt><trkpt lat="30.323745132015247" lon="-9.33248167280963"><ele>106.0</ele><time>2026-04-27T16:59:34.001Z</time></trkpt><trkpt lat="30.32380770559531" lon="-9.332750580697336"><ele>106.0</ele><time>2026-04-27T16:59:35.001Z</time></trkpt><trkpt lat="30.323872684229556" lon="-9.333028292715069"><ele>106.0</ele><time>2026-04-27T16:59:36.001Z</time></trkpt><trkpt lat="30.323943363018433" lon="-9.333319118384193"><ele>105.5</ele><time>2026-04-27T16:59:37.001Z</time></trkpt><trkpt lat="30.32401558206708" lon="-9.333619568502645"><ele>105.0</ele><time>2026-04-27T16:59:38.001Z</time></trkpt><trkpt lat="30.324086513778866" lon="-9.333927389784808"><ele>105.0</ele><time>2026-04-27T16:59:39.001Z</time></trkpt><trkpt lat="30.324156228350017" lon="-9.334232614869572"><ele>105.0</ele><time>2026-04-27T16:59:40.001Z</time></trkpt><trkpt lat="30.324225756254236" lon="-9.334541771829823"><ele>105.0</ele><time>2026-04-27T16:59:41.001Z</time></trkpt><trkpt lat="30.324295580359095" lon="-9.334845641186861"><ele>105.0</ele><time>2026-04-27T16:59:42.001Z</time></trkpt><trkpt lat="30.324366307590836" lon="-9.335141049596611"><ele>105.0</ele><time>2026-04-27T16:59:43.001Z</time></trkpt><trkpt lat="30.324439848592927" lon="-9.335432267765645"><ele>105.0</ele><time>2026-04-27T16:59:44.001Z</time></trkpt><trkpt lat="30.324519622345093" lon="-9.335718522068685"><ele>105.5</ele><time>2026-04-27T16:59:45.001Z</time></trkpt><trkpt lat="30.324597218561273" lon="-9.335998165400904"><ele>106.0</ele><time>2026-04-27T16:59:46.001Z</time></trkpt><trkpt lat="30.32467153171028" lon="-9.33627824353235"><ele>105.5</ele><time>2026-04-27T16:59:47.001Z</time></trkpt><trkpt lat="30.32474068164205" lon="-9.336557121191118"><ele>105.0</ele><time>2026-04-27T16:59:48.001Z</time></trkpt><trkpt lat="30.32480755788189" lon="-9.336837253514254"><ele>105.0</ele><time>2026-04-27T16:59:49.001Z</time></trkpt><trkpt lat="30.324873467128196" lon="-9.337116497683356"><ele>105.0</ele><time>2026-04-27T16:59:50.001Z</time></trkpt><trkpt lat="30.324941619211778" lon="-9.337396893276718"><ele>104.5</ele><time>2026-04-27T16:59:51.001Z</time></trkpt><trkpt lat="30.325009536844757" lon="-9.33767248219361"><ele>104.0</ele><time>2026-04-27T16:59:52.001Z</time></trkpt><trkpt lat="30.32507574930331" lon="-9.337945584154278"><ele>103.5</ele><time>2026-04-27T16:59:53.001Z</time></trkpt><trkpt lat="30.325140478638605" lon="-9.338218042802906"><ele>103.0</ele><time>2026-04-27T16:59:54.001Z</time></trkpt><trkpt lat="30.325205710123054" lon="-9.338484917968437"><ele>103.0</ele><time>2026-04-27T16:59:55.001Z</time></trkpt><trkpt lat="30.325271683945008" lon="-9.33875443227855"><ele>103.0</ele><time>2026-04-27T16:59:56.001Z</time></trkpt><trkpt lat="30.325336311297015" lon="-9.339021577287188"><ele>103.0</ele><time>2026-04-27T16:59:57.001Z</time></trkpt><trkpt lat="30.325400920132232" lon="-9.339296167057558"><ele>103.0</ele><time>2026-04-27T16:59:58.001Z</time></trkpt><trkpt lat="30.325465379014194" lon="-9.339571975102082"><ele>103.5</ele><time>2026-04-27T16:59:59.001Z</time></trkpt><trkpt lat="30.32552940722651" lon="-9.339842988700626"><ele>104.0</ele><time>2026-04-27T17:00:00.001Z</time></trkpt><trkpt lat="30.32559330634443" lon="-9.340114065594815"><ele>103.5</ele><time>2026-04-27T17:00:01.001Z</time></trkpt><trkpt lat="30.32565769973178" lon="-9.34038149019649"><ele>103.0</ele><time>2026-04-27T17:00:02.001Z</time></trkpt><trkpt lat="30.325719116703567" lon="-9.340645751774948"><ele>103.0</ele><time>2026-04-27T17:00:03.001Z</time></trkpt><trkpt lat="30.325781958620446" lon="-9.340911323806"><ele>103.0</ele><time>2026-04-27T17:00:04.001Z</time></trkpt><trkpt lat="30.32584832899226" lon="-9.34118044395547"><ele>102.0</ele><time>2026-04-27T17:00:05.001Z</time></trkpt><trkpt lat="30.32591284472305" lon="-9.341446824647749"><ele>101.0</ele><time>2026-04-27T17:00:06.001Z</time></trkpt><trkpt lat="30.325976525538763" lon="-9.34171610516994"><ele>101.0</ele><time>2026-04-27T17:00:07.001Z</time></trkpt><trkpt lat="30.326039103289354" lon="-9.341984844813297"><ele>101.0</ele><time>2026-04-27T17:00:08.001Z</time></trkpt><trkpt lat="30.32610226429589" lon="-9.342247098174795"><ele>101.0</ele><time>2026-04-27T17:00:09.001Z</time></trkpt><trkpt lat="30.326165688714052" lon="-9.342516197238472"><ele>101.0</ele><time>2026-04-27T17:00:10.001Z</time></trkpt><trkpt lat="30.326231012009284" lon="-9.342783946208542"><ele>100.5</ele><time>2026-04-27T17:00:11.001Z</time></trkpt><trkpt lat="30.32629632081496" lon="-9.343047599355618"><ele>100.0</ele><time>2026-04-27T17:00:12.001Z</time></trkpt><trkpt lat="30.326363946363866" lon="-9.343319309420451"><ele>100.5</ele><time>2026-04-27T17:00:13.001Z</time></trkpt><trkpt lat="30.32642971385324" lon="-9.343591308418729"><ele>101.0</ele><time>2026-04-27T17:00:14.001Z</time></trkpt><trkpt lat="30.326495233481783" lon="-9.343865033949832"><ele>100.5</ele><time>2026-04-27T17:00:15.001Z</time></trkpt><trkpt lat="30.32656226211469" lon="-9.344136552205162"><ele>100.0</ele><time>2026-04-27T17:00:16.001Z</time></trkpt><trkpt lat="30.32662952809827" lon="-9.344403230181337"><ele>100.0</ele><time>2026-04-27T17:00:17.001Z</time></trkpt><trkpt lat="30.326702735258273" lon="-9.344667239497614"><ele>100.0</ele><time>2026-04-27T17:00:18.001Z</time></trkpt><trkpt lat="30.326782979940162" lon="-9.344925764002975"><ele>99.0</ele><time>2026-04-27T17:00:19.001Z</time></trkpt><trkpt lat="30.326856002730672" lon="-9.345190821303458"><ele>98.0</ele><time>2026-04-27T17:00:20.001Z</time></trkpt><trkpt lat="30.32691982095635" lon="-9.345450537907782"><ele>97.5</ele><time>2026-04-27T17:00:21.001Z</time></trkpt><trkpt lat="30.326981738389954" lon="-9.345707340207106"><ele>97.0</ele><time>2026-04-27T17:00:22.001Z</time></trkpt><trkpt lat="30.32704277917004" lon="-9.34596293354087"><ele>97.0</ele><time>2026-04-27T17:00:23.001Z</time></trkpt><trkpt lat="30.32710517759223" lon="-9.346216834470118"><ele>97.0</ele><time>2026-04-27T17:00:24.001Z</time></trkpt><trkpt lat="30.327167810816764" lon="-9.346474288665929"><ele>96.5</ele><time>2026-04-27T17:00:25.001Z</time></trkpt><trkpt lat="30.32722695828433" lon="-9.346733631733235"><ele>96.0</ele><time>2026-04-27T17:00:26.001Z</time></trkpt><trkpt lat="30.327287580460236" lon="-9.346996283486819"><ele>96.0</ele><time>2026-04-27T17:00:27.001Z</time></trkpt><trkpt lat="30.327352172671425" lon="-9.34725774838306"><ele>96.0</ele><time>2026-04-27T17:00:28.001Z</time></trkpt><trkpt lat="30.327418061192468" lon="-9.347520959342171"><ele>96.0</ele><time>2026-04-27T17:00:29.001Z</time></trkpt><trkpt lat="30.327484534637016" lon="-9.347787287095903"><ele>96.0</ele><time>2026-04-27T17:00:30.001Z</time></trkpt><trkpt lat="30.32755033116353" lon="-9.348053064326368"><ele>96.5</ele><time>2026-04-27T17:00:31.001Z</time></trkpt><trkpt lat="30.327614591586283" lon="-9.348320930015717"><ele>97.0</ele><time>2026-04-27T17:00:32.001Z</time></trkpt><trkpt lat="30.327676571156612" lon="-9.34858639286873"><ele>97.0</ele><time>2026-04-27T17:00:33.001Z</time></trkpt><trkpt lat="30.327741531157123" lon="-9.348851693359402"><ele>97.0</ele><time>2026-04-27T17:00:34.001Z</time></trkpt><trkpt lat="30.327808115597914" lon="-9.349121317127993"><ele>97.0</ele><time>2026-04-27T17:00:35.001Z</time></trkpt><trkpt lat="30.32787179864337" lon="-9.349384805484497"><ele>97.0</ele><time>2026-04-27T17:00:36.001Z</time></trkpt><trkpt lat="30.32793346226306" lon="-9.349653993669142"><ele>97.0</ele><time>2026-04-27T17:00:37.001Z</time></trkpt><trkpt lat="30.327998918437594" lon="-9.34992515731852"><ele>97.0</ele><time>2026-04-27T17:00:38.001Z</time></trkpt><trkpt lat="30.32806358767702" lon="-9.350187687283467"><ele>97.0</ele><time>2026-04-27T17:00:39.001Z</time></trkpt><trkpt lat="30.328127968273023" lon="-9.35044623963549"><ele>97.0</ele><time>2026-04-27T17:00:40.001Z</time></trkpt><trkpt lat="30.328192861608983" lon="-9.350705516591928"><ele>97.0</ele><time>2026-04-27T17:00:41.001Z</time></trkpt><trkpt lat="30.328255586169902" lon="-9.350968144197587"><ele>97.0</ele><time>2026-04-27T17:00:42.001Z</time></trkpt><trkpt lat="30.32831985532501" lon="-9.351234465153183"><ele>96.5</ele><time>2026-04-27T17:00:43.001Z</time></trkpt><trkpt lat="30.328384467478607" lon="-9.351499596177524"><ele>96.0</ele><time>2026-04-27T17:00:44.001Z</time></trkpt><trkpt lat="30.328448749364107" lon="-9.351767908463426"><ele>96.0</ele><time>2026-04-27T17:00:45.001Z</time></trkpt><trkpt lat="30.328514843589577" lon="-9.352037761786237"><ele>96.0</ele><time>2026-04-27T17:00:46.001Z</time></trkpt><trkpt lat="30.328578496135982" lon="-9.352307354079732"><ele>96.5</ele><time>2026-04-27T17:00:47.001Z</time></trkpt><trkpt lat="30.328642412952536" lon="-9.352577343639625"><ele>97.0</ele><time>2026-04-27T17:00:48.001Z</time></trkpt><trkpt lat="30.328707872465166" lon="-9.352851993431065"><ele>96.0</ele><time>2026-04-27T17:00:49.001Z</time></trkpt><trkpt lat="30.32877509876141" lon="-9.353130054995116"><ele>95.0</ele><time>2026-04-27T17:00:50.001Z</time></trkpt><trkpt lat="30.32884314644337" lon="-9.353410685909786"><ele>95.0</ele><time>2026-04-27T17:00:51.001Z</time></trkpt><trkpt lat="30.328908965636906" lon="-9.353692392546925"><ele>95.0</ele><time>2026-04-27T17:00:52.001Z</time></trkpt><trkpt lat="30.328975947816208" lon="-9.353970868869299"><ele>94.0</ele><time>2026-04-27T17:00:53.001Z</time></trkpt><trkpt lat="30.32904256940099" lon="-9.35424714554526"><ele>93.0</ele><time>2026-04-27T17:00:54.001Z</time></trkpt><trkpt lat="30.32910798098709" lon="-9.35451842945974"><ele>93.5</ele><time>2026-04-27T17:00:55.001Z</time></trkpt><trkpt lat="30.329170461157652" lon="-9.354787109442121"><ele>94.0</ele><time>2026-04-27T17:00:56.001Z</time></trkpt><trkpt lat="30.329235685033794" lon="-9.355056861262845"><ele>94.0</ele><time>2026-04-27T17:00:57.001Z</time></trkpt><trkpt lat="30.32930410396234" lon="-9.355331430442"><ele>94.0</ele><time>2026-04-27T17:00:58.001Z</time></trkpt><trkpt lat="30.329374972158103" lon="-9.355608818872762"><ele>94.0</ele><time>2026-04-27T17:00:59.001Z</time></trkpt><trkpt lat="30.32944809380603" lon="-9.35588346297589"><ele>94.0</ele><time>2026-04-27T17:01:00.001Z</time></trkpt><trkpt lat="30.32952502921854" lon="-9.356159002053431"><ele>94.5</ele><time>2026-04-27T17:01:01.001Z</time></trkpt><trkpt lat="30.329599689285185" lon="-9.356431842026186"><ele>95.0</ele><time>2026-04-27T17:01:02.001Z</time></trkpt><trkpt lat="30.329668319240767" lon="-9.35670381742457"><ele>93.5</ele><time>2026-04-27T17:01:03.001Z</time></trkpt><trkpt lat="30.329734436615887" lon="-9.356973508281017"><ele>92.0</ele><time>2026-04-27T17:01:04.001Z</time></trkpt><trkpt lat="30.329798624184306" lon="-9.357241032044103"><ele>91.0</ele><time>2026-04-27T17:01:05.001Z</time></trkpt><trkpt lat="30.329864498554535" lon="-9.357509410406283"><ele>90.0</ele><time>2026-04-27T17:01:06.001Z</time></trkpt><trkpt lat="30.32992897422279" lon="-9.357776887433229"><ele>90.0</ele><time>2026-04-27T17:01:07.001Z</time></trkpt><trkpt lat="30.329990889797944" lon="-9.358036915394639"><ele>90.0</ele><time>2026-04-27T17:01:08.001Z</time></trkpt><trkpt lat="30.33004561936128" lon="-9.35827406420635"><ele>90.0</ele><time>2026-04-27T17:01:09.001Z</time></trkpt><trkpt lat="30.330094317510405" lon="-9.35849985936585"><ele>90.0</ele><time>2026-04-27T17:01:10.001Z</time></trkpt><trkpt lat="30.33014025142874" lon="-9.358707027396218"><ele>90.0</ele><time>2026-04-27T17:01:11.001Z</time></trkpt><trkpt lat="30.330180746436923" lon="-9.358891844324846"><ele>90.0</ele><time>2026-04-27T17:01:12.001Z</time></trkpt><trkpt lat="30.330218748474557" lon="-9.35905473963292"><ele>90.5</ele><time>2026-04-27T17:01:13.001Z</time></trkpt><trkpt lat="30.330252411180766" lon="-9.359196853938109"><ele>91.0</ele><time>2026-04-27T17:01:14.001Z</time></trkpt><trkpt lat="30.33029115483119" lon="-9.359329346538068"><ele>91.5</ele><time>2026-04-27T17:01:15.001Z</time></trkpt><trkpt lat="30.33033470987915" lon="-9.359452041779651"><ele>92.0</ele><time>2026-04-27T17:01:16.001Z</time></trkpt><trkpt lat="30.330394086547354" lon="-9.359578555466591"><ele>92.0</ele><time>2026-04-27T17:01:17.001Z</time></trkpt><trkpt lat="30.330465142443263" lon="-9.359692905779728"><ele>92.0</ele><time>2026-04-27T17:01:18Z</time></trkpt><trkpt lat="30.330532214109738" lon="-9.359785909841017"><ele>92.0</ele><time>2026-04-27T17:01:19Z</time></trkpt><trkpt lat="30.33056341138789" lon="-9.359882983019805"><ele>92.0</ele><time>2026-04-27T17:01:20Z</time></trkpt><trkpt lat="30.330554094106354" lon="-9.359992861382475"><ele>92.0</ele><time>2026-04-27T17:01:21Z</time></trkpt><trkpt lat="30.330530257664794" lon="-9.3601093288546"><ele>91.75</ele><time>2026-04-27T17:01:22Z</time></trkpt><trkpt lat="30.330537046886878" lon="-9.360249116141507"><ele>91.5</ele><time>2026-04-27T17:01:23Z</time></trkpt><trkpt lat="30.330574734579333" lon="-9.360412384191255"><ele>91.25</ele><time>2026-04-27T17:01:24Z</time></trkpt><trkpt lat="30.330618321628176" lon="-9.36057795806132"><ele>91.0</ele><time>2026-04-27T17:01:25.001Z</time></trkpt><trkpt lat="30.330664031179754" lon="-9.360769185916467"><ele>90.66666666666666</ele><time>2026-04-27T17:01:26.001Z</time></trkpt><trkpt lat="30.330710548905323" lon="-9.36097054707183"><ele>90.33333333333333</ele><time>2026-04-27T17:01:27.001Z</time></trkpt><trkpt lat="30.33075734297293" lon="-9.361191562563883"><ele>90.0</ele><time>2026-04-27T17:01:28.001Z</time></trkpt><trkpt lat="30.330804118863252" lon="-9.361431356575494"><ele>89.5</ele><time>2026-04-27T17:01:29.001Z</time></trkpt><trkpt lat="30.330850038633873" lon="-9.361686779320744"><ele>89.0</ele><time>2026-04-27T17:01:30.001Z</time></trkpt><trkpt lat="30.330893870811398" lon="-9.361949368987132"><ele>88.5</ele><time>2026-04-27T17:01:31.001Z</time></trkpt><trkpt lat="30.33093871473941" lon="-9.362221951383342"><ele>88.0</ele><time>2026-04-27T17:01:32.001Z</time></trkpt><trkpt lat="30.330988156781853" lon="-9.36250950290921"><ele>88.0</ele><time>2026-04-27T17:01:33.001Z</time></trkpt><trkpt lat="30.33103487564632" lon="-9.362813467724346"><ele>88.0</ele><time>2026-04-27T17:01:34.001Z</time></trkpt><trkpt lat="30.33107739984857" lon="-9.363103537760601"><ele>86.5</ele><time>2026-04-27T17:01:35.001Z</time></trkpt><trkpt lat="30.331116561955447" lon="-9.3633877816247"><ele>85.0</ele><time>2026-04-27T17:01:36.001Z</time></trkpt><trkpt lat="30.331149713344644" lon="-9.363671233154875"><ele>85.0</ele><time>2026-04-27T17:01:37.001Z</time></trkpt><trkpt lat="30.331176590808372" lon="-9.363960315712454"><ele>85.0</ele><time>2026-04-27T17:01:38.001Z</time></trkpt><trkpt lat="30.331197068254472" lon="-9.364240729600752"><ele>85.0</ele><time>2026-04-27T17:01:39.001Z</time></trkpt><trkpt lat="30.331217844457043" lon="-9.364513301744395"><ele>85.0</ele><time>2026-04-27T17:01:40.001Z</time></trkpt><trkpt lat="30.33123816200311" lon="-9.364781781476971"><ele>84.5</ele><time>2026-04-27T17:01:41.001Z</time></trkpt><trkpt lat="30.331256680455027" lon="-9.36505329087832"><ele>84.0</ele><time>2026-04-27T17:01:42.001Z</time></trkpt><trkpt lat="30.331272759285504" lon="-9.365328029622821"><ele>84.0</ele><time>2026-04-27T17:01:43.001Z</time></trkpt><trkpt lat="30.33129002420639" lon="-9.365606765020594"><ele>84.0</ele><time>2026-04-27T17:01:44.001Z</time></trkpt><trkpt lat="30.331303558727114" lon="-9.365886009784163"><ele>84.0</ele><time>2026-04-27T17:01:45.001Z</time></trkpt><trkpt lat="30.331317002620988" lon="-9.366174538912711"><ele>84.0</ele><time>2026-04-27T17:01:46.001Z</time></trkpt><trkpt lat="30.331333562924005" lon="-9.366463477740588"><ele>84.0</ele><time>2026-04-27T17:01:47.001Z</time></trkpt><trkpt lat="30.33135253779071" lon="-9.366749327651766"><ele>84.0</ele><time>2026-04-27T17:01:48.001Z</time></trkpt><trkpt lat="30.33137606759608" lon="-9.367032632981106"><ele>83.0</ele><time>2026-04-27T17:01:49.001Z</time></trkpt><trkpt lat="30.331408677284507" lon="-9.367316119111175"><ele>82.0</ele><time>2026-04-27T17:01:50.001Z</time></trkpt><trkpt lat="30.331442088930267" lon="-9.367599634440632"><ele>82.0</ele><time>2026-04-27T17:01:51.001Z</time></trkpt><trkpt lat="30.331466631803515" lon="-9.367875779858167"><ele>82.0</ele><time>2026-04-27T17:01:52.001Z</time></trkpt><trkpt lat="30.33148494150849" lon="-9.3681464119007"><ele>81.0</ele><time>2026-04-27T17:01:53.001Z</time></trkpt><trkpt lat="30.331500768545332" lon="-9.368416354900969"><ele>80.0</ele><time>2026-04-27T17:01:54.001Z</time></trkpt><trkpt lat="30.331518322417974" lon="-9.368686064674018"><ele>80.5</ele><time>2026-04-27T17:01:55.001Z</time></trkpt><trkpt lat="30.33153822719867" lon="-9.36895336270692"><ele>81.0</ele><time>2026-04-27T17:01:56.001Z</time></trkpt><trkpt lat="30.33156036329936" lon="-9.369217997970548"><ele>81.0</ele><time>2026-04-27T17:01:57.001Z</time></trkpt><trkpt lat="30.331581173851422" lon="-9.36946915824008"><ele>81.0</ele><time>2026-04-27T17:01:58.001Z</time></trkpt><trkpt lat="30.331599756554702" lon="-9.369707172195511"><ele>81.0</ele><time>2026-04-27T17:01:59.001Z</time></trkpt><trkpt lat="30.331616239138945" lon="-9.369942563027873"><ele>81.0</ele><time>2026-04-27T17:02:00.001Z</time></trkpt><trkpt lat="30.331630154252917" lon="-9.370181682328628"><ele>81.0</ele><time>2026-04-27T17:02:01.001Z</time></trkpt><trkpt lat="30.331642347108048" lon="-9.370434440204312"><ele>81.0</ele><time>2026-04-27T17:02:02.001Z</time></trkpt><trkpt lat="30.331657566297064" lon="-9.370706046134176"><ele>80.5</ele><time>2026-04-27T17:02:03.001Z</time></trkpt><trkpt lat="30.33167078333826" lon="-9.370991603411273"><ele>80.0</ele><time>2026-04-27T17:02:04.001Z</time></trkpt><trkpt lat="30.331687477236443" lon="-9.371278369950947"><ele>80.0</ele><time>2026-04-27T17:02:05.001Z</time></trkpt><trkpt lat="30.331714478381294" lon="-9.371565592038692"><ele>80.0</ele><time>2026-04-27T17:02:06.001Z</time></trkpt><trkpt lat="30.33174751269505" lon="-9.371855953642818"><ele>80.0</ele><time>2026-04-27T17:02:07.001Z</time></trkpt><trkpt lat="30.33177607874447" lon="-9.372146247998666"><ele>80.0</ele><time>2026-04-27T17:02:08.001Z</time></trkpt><trkpt lat="30.331797909709834" lon="-9.372433744970843"><ele>79.5</ele><time>2026-04-27T17:02:09.001Z</time></trkpt><trkpt lat="30.331818492802466" lon="-9.372720152024328"><ele>79.0</ele><time>2026-04-27T17:02:10.001Z</time></trkpt><trkpt lat="30.33183892864031" lon="-9.373005199128183"><ele>79.5</ele><time>2026-04-27T17:02:11.001Z</time></trkpt><trkpt lat="30.331859718659974" lon="-9.373292141706886"><ele>80.0</ele><time>2026-04-27T17:02:12.001Z</time></trkpt><trkpt lat="30.331877853804162" lon="-9.37358023258421"><ele>79.0</ele><time>2026-04-27T17:02:13.001Z</time></trkpt><trkpt lat="30.331896951283497" lon="-9.373866454040272"><ele>78.0</ele><time>2026-04-27T17:02:14.001Z</time></trkpt><trkpt lat="30.331917045737896" lon="-9.374149452701474"><ele>78.0</ele><time>2026-04-27T17:02:15.001Z</time></trkpt><trkpt lat="30.331938048098923" lon="-9.374431257936978"><ele>78.0</ele><time>2026-04-27T17:02:16.001Z</time></trkpt><trkpt lat="30.331958009136063" lon="-9.374711837719463"><ele>78.0</ele><time>2026-04-27T17:02:17.001Z</time></trkpt><trkpt lat="30.331976829795067" lon="-9.374995026052723"><ele>78.0</ele><time>2026-04-27T17:02:18.001Z</time></trkpt><trkpt lat="30.33199518617458" lon="-9.375277351008878"><ele>77.5</ele><time>2026-04-27T17:02:19.001Z</time></trkpt><trkpt lat="30.332015038611285" lon="-9.37556294308688"><ele>77.0</ele><time>2026-04-27T17:02:20.001Z</time></trkpt><trkpt lat="30.332036572655486" lon="-9.375842576580233"><ele>77.0</ele><time>2026-04-27T17:02:21.001Z</time></trkpt><trkpt lat="30.33205793758377" lon="-9.376107958485829"><ele>77.0</ele><time>2026-04-27T17:02:22.001Z</time></trkpt><trkpt lat="30.33207744369542" lon="-9.376341742202145"><ele>77.0</ele><time>2026-04-27T17:02:23.001Z</time></trkpt><trkpt lat="30.332095046162067" lon="-9.37655569237054"><ele>77.0</ele><time>2026-04-27T17:02:24.001Z</time></trkpt><trkpt lat="30.332111352620686" lon="-9.376764002021961"><ele>77.0</ele><time>2026-04-27T17:02:25.001Z</time></trkpt><trkpt lat="30.33212591204207" lon="-9.376977748536358"><ele>77.0</ele><time>2026-04-27T17:02:26.001Z</time></trkpt><trkpt lat="30.33214375035142" lon="-9.377209159653217"><ele>77.0</ele><time>2026-04-27T17:02:27.001Z</time></trkpt><trkpt lat="30.33216491728135" lon="-9.377460349976655"><ele>77.0</ele><time>2026-04-27T17:02:28.001Z</time></trkpt><trkpt lat="30.332184504012826" lon="-9.377736339100872"><ele>77.0</ele><time>2026-04-27T17:02:29.001Z</time></trkpt><trkpt lat="30.332202927668366" lon="-9.378019652576377"><ele>77.0</ele><time>2026-04-27T17:02:30.001Z</time></trkpt><trkpt lat="30.332223955364412" lon="-9.378301957194594"><ele>78.0</ele><time>2026-04-27T17:02:31.001Z</time></trkpt><trkpt lat="30.332248586683264" lon="-9.378588312505272"><ele>79.0</ele><time>2026-04-27T17:02:32.001Z</time></trkpt><trkpt lat="30.332272616534727" lon="-9.378877034695746"><ele>79.0</ele><time>2026-04-27T17:02:33.001Z</time></trkpt><trkpt lat="30.332294331045084" lon="-9.379160291118392"><ele>79.0</ele><time>2026-04-27T17:02:34.001Z</time></trkpt><trkpt lat="30.33231343473422" lon="-9.379449326070409"><ele>78.5</ele><time>2026-04-27T17:02:35.001Z</time></trkpt><trkpt lat="30.332330722464693" lon="-9.379740214161995"><ele>78.0</ele><time>2026-04-27T17:02:36.001Z</time></trkpt><trkpt lat="30.332347117802097" lon="-9.380024958841195"><ele>78.0</ele><time>2026-04-27T17:02:37.001Z</time></trkpt><trkpt lat="30.332364984053733" lon="-9.38030663209698"><ele>78.0</ele><time>2026-04-27T17:02:38.001Z</time></trkpt><trkpt lat="30.33238134424884" lon="-9.380591072921616"><ele>78.0</ele><time>2026-04-27T17:02:39.001Z</time></trkpt><trkpt lat="30.33239724375387" lon="-9.38088135500781"><ele>78.0</ele><time>2026-04-27T17:02:40.001Z</time></trkpt><trkpt lat="30.332414251573912" lon="-9.381176821425015"><ele>78.5</ele><time>2026-04-27T17:02:41.001Z</time></trkpt><trkpt lat="30.332432274058018" lon="-9.381469143739409"><ele>79.0</ele><time>2026-04-27T17:02:42.001Z</time></trkpt><trkpt lat="30.33245074505948" lon="-9.381762282095142"><ele>79.0</ele><time>2026-04-27T17:02:43.001Z</time></trkpt><trkpt lat="30.332468857209488" lon="-9.382051249602176"><ele>79.0</ele><time>2026-04-27T17:02:44.001Z</time></trkpt><trkpt lat="30.332489239071865" lon="-9.382337666651532"><ele>78.0</ele><time>2026-04-27T17:02:45.001Z</time></trkpt><trkpt lat="30.33251045635975" lon="-9.38262101354073"><ele>77.0</ele><time>2026-04-27T17:02:46.001Z</time></trkpt><trkpt lat="30.332534011672237" lon="-9.382900256977184"><ele>76.5</ele><time>2026-04-27T17:02:47.001Z</time></trkpt><trkpt lat="30.332556354449952" lon="-9.383180394066576"><ele>76.0</ele><time>2026-04-27T17:02:48.001Z</time></trkpt><trkpt lat="30.332574775102984" lon="-9.383462467757372"><ele>76.0</ele><time>2026-04-27T17:02:49.001Z</time></trkpt><trkpt lat="30.332594015630935" lon="-9.38375038973849"><ele>76.0</ele><time>2026-04-27T17:02:50.001Z</time></trkpt><trkpt lat="30.332614162044294" lon="-9.38403493844534"><ele>76.0</ele><time>2026-04-27T17:02:51.001Z</time></trkpt><trkpt lat="30.332632901008576" lon="-9.384323575993637"><ele>76.0</ele><time>2026-04-27T17:02:52.001Z</time></trkpt><trkpt lat="30.332651572347707" lon="-9.384614958590902"><ele>76.5</ele><time>2026-04-27T17:02:53.001Z</time></trkpt><trkpt lat="30.332671794854555" lon="-9.38490295895075"><ele>77.0</ele><time>2026-04-27T17:02:54.001Z</time></trkpt><trkpt lat="30.33269864487196" lon="-9.385190533303875"><ele>77.0</ele><time>2026-04-27T17:02:55.001Z</time></trkpt><trkpt lat="30.332731120660284" lon="-9.38548272225899"><ele>77.0</ele><time>2026-04-27T17:02:56.001Z</time></trkpt><trkpt lat="30.332761638509353" lon="-9.38577290366476"><ele>77.0</ele><time>2026-04-27T17:02:57.001Z</time></trkpt><trkpt lat="30.332785922318383" lon="-9.386061118710556"><ele>77.0</ele><time>2026-04-27T17:02:58.001Z</time></trkpt><trkpt lat="30.332808681201254" lon="-9.386345782737873"><ele>77.0</ele><time>2026-04-27T17:02:59.001Z</time></trkpt><trkpt lat="30.332830476888866" lon="-9.386628878139343"><ele>77.0</ele><time>2026-04-27T17:03:00.001Z</time></trkpt><trkpt lat="30.332851407759" lon="-9.3869174363576"><ele>77.0</ele><time>2026-04-27T17:03:01.001Z</time></trkpt><trkpt lat="30.33287056943166" lon="-9.38720258432843"><ele>77.0</ele><time>2026-04-27T17:03:02.001Z</time></trkpt><trkpt lat="30.332890516495745" lon="-9.387486140628488"><ele>77.0</ele><time>2026-04-27T17:03:03.001Z</time></trkpt><trkpt lat="30.33290988376516" lon="-9.387766438860806"><ele>77.0</ele><time>2026-04-27T17:03:04.001Z</time></trkpt><trkpt lat="30.33292963279863" lon="-9.388044909110487"><ele>76.5</ele><time>2026-04-27T17:03:05.001Z</time></trkpt><trkpt lat="30.332950759527602" lon="-9.388316282735378"><ele>76.0</ele><time>2026-04-27T17:03:06.001Z</time></trkpt><trkpt lat="30.332973455047984" lon="-9.388586472054644"><ele>77.0</ele><time>2026-04-27T17:03:07.001Z</time></trkpt><trkpt lat="30.332993636966556" lon="-9.388858049665641"><ele>78.0</ele><time>2026-04-27T17:03:08.001Z</time></trkpt><trkpt lat="30.333013190554336" lon="-9.389132081956786"><ele>78.0</ele><time>2026-04-27T17:03:09.001Z</time></trkpt><trkpt lat="30.33303336569949" lon="-9.389401483238844"><ele>78.0</ele><time>2026-04-27T17:03:10.001Z</time></trkpt><trkpt lat="30.33305343824326" lon="-9.38967059643959"><ele>77.0</ele><time>2026-04-27T17:03:11.001Z</time></trkpt><trkpt lat="30.33306939799598" lon="-9.389935057189426"><ele>76.0</ele><time>2026-04-27T17:03:12.001Z</time></trkpt><trkpt lat="30.33308407806598" lon="-9.390203598985106"><ele>76.0</ele><time>2026-04-27T17:03:13.001Z</time></trkpt><trkpt lat="30.333101522969944" lon="-9.390471195746303"><ele>76.0</ele><time>2026-04-27T17:03:14.001Z</time></trkpt><trkpt lat="30.333122295627607" lon="-9.390744144467158"><ele>75.5</ele><time>2026-04-27T17:03:15.001Z</time></trkpt><trkpt lat="30.333140378571883" lon="-9.39101767108496"><ele>75.0</ele><time>2026-04-27T17:03:16.001Z</time></trkpt><trkpt lat="30.333159428355685" lon="-9.391283591893423"><ele>74.5</ele><time>2026-04-27T17:03:17.001Z</time></trkpt><trkpt lat="30.333180251753213" lon="-9.391548521431545"><ele>74.0</ele><time>2026-04-27T17:03:18.001Z</time></trkpt><trkpt lat="30.33320432328787" lon="-9.391817261709617"><ele>74.0</ele><time>2026-04-27T17:03:19.001Z</time></trkpt><trkpt lat="30.333226351400203" lon="-9.39208707271393"><ele>74.0</ele><time>2026-04-27T17:03:20.001Z</time></trkpt><trkpt lat="30.33324688309758" lon="-9.392357186248764"><ele>74.0</ele><time>2026-04-27T17:03:21.001Z</time></trkpt><trkpt lat="30.333264998826635" lon="-9.392625821375766"><ele>74.0</ele><time>2026-04-27T17:03:22.001Z</time></trkpt><trkpt lat="30.33328189701139" lon="-9.39289399737527"><ele>73.5</ele><time>2026-04-27T17:03:23.001Z</time></trkpt><trkpt lat="30.333298927945215" lon="-9.393163708797587"><ele>73.0</ele><time>2026-04-27T17:03:24.001Z</time></trkpt><trkpt lat="30.333317057009534" lon="-9.393431317252197"><ele>73.0</ele><time>2026-04-27T17:03:25Z</time></trkpt><trkpt lat="30.33333584430573" lon="-9.393704091729493"><ele>73.0</ele><time>2026-04-27T17:03:26Z</time></trkpt><trkpt lat="30.333355925074507" lon="-9.393978325695423"><ele>73.0</ele><time>2026-04-27T17:03:27Z</time></trkpt><trkpt lat="30.333377093281733" lon="-9.394249404855438"><ele>73.0</ele><time>2026-04-27T17:03:28Z</time></trkpt><trkpt lat="30.333399388391317" lon="-9.394524225638195"><ele>72.5</ele><time>2026-04-27T17:03:29Z</time></trkpt><trkpt lat="30.33341862519448" lon="-9.39480368793994"><ele>72.0</ele><time>2026-04-27T17:03:30Z</time></trkpt><trkpt lat="30.333435543593325" lon="-9.39508194390249"><ele>72.0</ele><time>2026-04-27T17:03:31Z</time></trkpt><trkpt lat="30.333455246807908" lon="-9.395358046291753"><ele>72.0</ele><time>2026-04-27T17:03:32Z</time></trkpt><trkpt lat="30.333474099633513" lon="-9.39563495215488"><ele>72.0</ele><time>2026-04-27T17:03:33Z</time></trkpt><trkpt lat="30.333492719829295" lon="-9.395916811610157"><ele>72.0</ele><time>2026-04-27T17:03:34Z</time></trkpt><trkpt lat="30.333513028230936" lon="-9.396205799039711"><ele>71.0</ele><time>2026-04-27T17:03:35Z</time></trkpt><trkpt lat="30.333537376691716" lon="-9.39650112658443"><ele>70.0</ele><time>2026-04-27T17:03:36Z</time></trkpt><trkpt lat="30.333560671146756" lon="-9.396792303412711"><ele>70.0</ele><time>2026-04-27T17:03:37Z</time></trkpt><trkpt lat="30.33358145323276" lon="-9.39708694532764"><ele>70.0</ele><time>2026-04-27T17:03:38Z</time></trkpt><trkpt lat="30.33359948486332" lon="-9.397384908188522"><ele>70.0</ele><time>2026-04-27T17:03:39Z</time></trkpt><trkpt lat="30.333611513743268" lon="-9.397687043886677"><ele>70.0</ele><time>2026-04-27T17:03:40Z</time></trkpt><trkpt lat="30.333619520955512" lon="-9.397994547831901"><ele>69.5</ele><time>2026-04-27T17:03:41Z</time></trkpt><trkpt lat="30.33362775668381" lon="-9.398296098892613"><ele>69.0</ele><time>2026-04-27T17:03:42Z</time></trkpt><trkpt lat="30.333636291635806" lon="-9.398597971240628"><ele>69.0</ele><time>2026-04-27T17:03:43Z</time></trkpt><trkpt lat="30.33364400774804" lon="-9.398904262838062"><ele>69.0</ele><time>2026-04-27T17:03:44Z</time></trkpt><trkpt lat="30.33365133573458" lon="-9.399214836734561"><ele>69.0</ele><time>2026-04-27T17:03:45Z</time></trkpt><trkpt lat="30.33365645258138" lon="-9.399529501862846"><ele>69.0</ele><time>2026-04-27T17:03:46.001Z</time></trkpt><trkpt lat="30.333662945253852" lon="-9.399845858893404"><ele>69.5</ele><time>2026-04-27T17:03:47.001Z</time></trkpt><trkpt lat="30.333667590899235" lon="-9.400145019095623"><ele>70.0</ele><time>2026-04-27T17:03:48.001Z</time></trkpt><trkpt lat="30.33367270810043" lon="-9.400445587649815"><ele>68.5</ele><time>2026-04-27T17:03:49.001Z</time></trkpt><trkpt lat="30.333678829850346" lon="-9.400746928662578"><ele>67.0</ele><time>2026-04-27T17:03:50.001Z</time></trkpt><trkpt lat="30.333689010155627" lon="-9.401047857778638"><ele>66.5</ele><time>2026-04-27T17:03:51.001Z</time></trkpt><trkpt lat="30.333699390831384" lon="-9.401349857152026"><ele>66.0</ele><time>2026-04-27T17:03:52.001Z</time></trkpt><trkpt lat="30.333710256580616" lon="-9.401646747991794"><ele>66.0</ele><time>2026-04-27T17:03:53.001Z</time></trkpt><trkpt lat="30.333720525140645" lon="-9.401942932789426"><ele>66.0</ele><time>2026-04-27T17:03:54.001Z</time></trkpt><trkpt lat="30.333730699753715" lon="-9.402227369674568"><ele>67.0</ele><time>2026-04-27T17:03:55.001Z</time></trkpt><trkpt lat="30.333743098705646" lon="-9.402503493901879"><ele>68.0</ele><time>2026-04-27T17:03:56.001Z</time></trkpt><trkpt lat="30.33376287041755" lon="-9.402774868169121"><ele>67.5</ele><time>2026-04-27T17:03:57.001Z</time></trkpt><trkpt lat="30.333789964596566" lon="-9.40304757088416"><ele>67.0</ele><time>2026-04-27T17:03:58.001Z</time></trkpt><trkpt lat="30.33382046972546" lon="-9.40332126548882"><ele>67.0</ele><time>2026-04-27T17:03:59.001Z</time></trkpt><trkpt lat="30.333854983881945" lon="-9.403592345274692"><ele>67.0</ele><time>2026-04-27T17:04:00.001Z</time></trkpt><trkpt lat="30.33388792371293" lon="-9.403849494189618"><ele>66.33333333333333</ele><time>2026-04-27T17:04:01.001Z</time></trkpt><trkpt lat="30.333918870548437" lon="-9.404101060236464"><ele>65.66666666666667</ele><time>2026-04-27T17:04:02.001Z</time></trkpt><trkpt lat="30.333954041561256" lon="-9.404362169821201"><ele>65.0</ele><time>2026-04-27T17:04:03.001Z</time></trkpt><trkpt lat="30.33399266680029" lon="-9.404627132510125"><ele>65.0</ele><time>2026-04-27T17:04:04.001Z</time></trkpt><trkpt lat="30.33403162937445" lon="-9.404896724408593"><ele>65.0</ele><time>2026-04-27T17:04:05.001Z</time></trkpt><trkpt lat="30.33407130077138" lon="-9.405177325830385"><ele>65.0</ele><time>2026-04-27T17:04:06.001Z</time></trkpt><trkpt lat="30.334109368141657" lon="-9.40546714855834"><ele>65.0</ele><time>2026-04-27T17:04:07.001Z</time></trkpt><trkpt lat="30.33414982715759" lon="-9.405751922327699"><ele>64.5</ele><time>2026-04-27T17:04:08.001Z</time></trkpt><trkpt lat="30.334187381131866" lon="-9.406029324755817"><ele>64.0</ele><time>2026-04-27T17:04:09.001Z</time></trkpt><trkpt lat="30.33421939334826" lon="-9.406296815116585"><ele>63.5</ele><time>2026-04-27T17:04:10.001Z</time></trkpt><trkpt lat="30.33424501611549" lon="-9.406560153543333"><ele>63.0</ele><time>2026-04-27T17:04:11.001Z</time></trkpt><trkpt lat="30.334264523672083" lon="-9.406815194348672"><ele>63.0</ele><time>2026-04-27T17:04:12.001Z</time></trkpt><trkpt lat="30.334281208477886" lon="-9.407057554764027"><ele>63.0</ele><time>2026-04-27T17:04:13.001Z</time></trkpt><trkpt lat="30.334296358423238" lon="-9.40728493741949"><ele>63.0</ele><time>2026-04-27T17:04:14.001Z</time></trkpt><trkpt lat="30.334315909668394" lon="-9.40750828063507"><ele>63.0</ele><time>2026-04-27T17:04:15.001Z</time></trkpt><trkpt lat="30.334342335449797" lon="-9.407735823796433"><ele>63.0</ele><time>2026-04-27T17:04:16.001Z</time></trkpt><trkpt lat="30.334364910775363" lon="-9.407961490278526"><ele>63.0</ele><time>2026-04-27T17:04:17.001Z</time></trkpt><trkpt lat="30.334381057713987" lon="-9.408174924595404"><ele>63.0</ele><time>2026-04-27T17:04:18.001Z</time></trkpt><trkpt lat="30.33439450136864" lon="-9.408388651797267"><ele>63.0</ele><time>2026-04-27T17:04:19.001Z</time></trkpt><trkpt lat="30.33441007599822" lon="-9.40860243860604"><ele>63.0</ele><time>2026-04-27T17:04:20.001Z</time></trkpt><trkpt lat="30.334426528727494" lon="-9.408812832814306"><ele>62.66666666666667</ele><time>2026-04-27T17:04:21.001Z</time></trkpt><trkpt lat="30.334442087299163" lon="-9.409006579191129"><ele>62.333333333333336</ele><time>2026-04-27T17:04:22.001Z</time></trkpt><trkpt lat="30.334457479410947" lon="-9.409194026634694"><ele>62.0</ele><time>2026-04-27T17:04:23.001Z</time></trkpt><trkpt lat="30.33447314928714" lon="-9.409365684700298"><ele>62.0</ele><time>2026-04-27T17:04:24.001Z</time></trkpt><trkpt lat="30.33448809414535" lon="-9.409524118399313"><ele>62.0</ele><time>2026-04-27T17:04:25.001Z</time></trkpt><trkpt lat="30.33450047861099" lon="-9.409668289497297"><ele>62.0</ele><time>2026-04-27T17:04:26.001Z</time></trkpt><trkpt lat="30.3345133906501" lon="-9.409802905301591"><ele>62.0</ele><time>2026-04-27T17:04:27.001Z</time></trkpt><trkpt lat="30.334528552563853" lon="-9.409926933559433"><ele>62.2</ele><time>2026-04-27T17:04:28.001Z</time></trkpt><trkpt lat="30.334550088101107" lon="-9.410028567902902"><ele>62.400000000000006</ele><time>2026-04-27T17:04:29.001Z</time></trkpt><trkpt lat="30.334580701055472" lon="-9.410107300949706"><ele>62.599999999999994</ele><time>2026-04-27T17:04:30.001Z</time></trkpt><trkpt lat="30.334638565772405" lon="-9.410206647234034"><ele>62.8</ele><time>2026-04-27T17:04:32.001Z</time></trkpt><trkpt lat="30.334680936707333" lon="-9.410347778716142"><ele>63.0</ele><time>2026-04-27T17:04:34.001Z</time></trkpt><trkpt lat="30.334679485955945" lon="-9.41044681110665"><ele>63.2</ele><time>2026-04-27T17:04:35.001Z</time></trkpt><trkpt lat="30.334658867751806" lon="-9.410553524816526"><ele>63.4</ele><time>2026-04-27T17:04:36.001Z</time></trkpt><trkpt lat="30.334635085469905" lon="-9.41065645441385"><ele>63.60000000000001</ele><time>2026-04-27T17:04:37.001Z</time></trkpt><trkpt lat="30.334608800463208" lon="-9.410766920760834"><ele>63.800000000000004</ele><time>2026-04-27T17:04:38.001Z</time></trkpt><trkpt lat="30.334596323385753" lon="-9.410900925962666"><ele>64.0</ele><time>2026-04-27T17:04:39.001Z</time></trkpt><trkpt lat="30.334591813363474" lon="-9.411049414722537"><ele>64.0</ele><time>2026-04-27T17:04:40.001Z</time></trkpt><trkpt lat="30.334591773076237" lon="-9.411198673186307"><ele>64.0</ele><time>2026-04-27T17:04:41.001Z</time></trkpt><trkpt lat="30.33459554743812" lon="-9.41137211563756"><ele>64.0</ele><time>2026-04-27T17:04:42.001Z</time></trkpt><trkpt lat="30.334605547419564" lon="-9.411567837034248"><ele>64.0</ele><time>2026-04-27T17:04:43.001Z</time></trkpt><trkpt lat="30.33461923391373" lon="-9.41174808524275"><ele>64.0</ele><time>2026-04-27T17:04:44.001Z</time></trkpt><trkpt lat="30.334639095667047" lon="-9.411970211949047"><ele>64.0</ele><time>2026-04-27T17:04:45.001Z</time></trkpt><trkpt lat="30.334673665371106" lon="-9.412206198870713"><ele>64.0</ele><time>2026-04-27T17:04:46.001Z</time></trkpt><trkpt lat="30.33470431955481" lon="-9.412438578056102"><ele>64.0</ele><time>2026-04-27T17:04:47.001Z</time></trkpt><trkpt lat="30.334728388860913" lon="-9.412681944777518"><ele>64.0</ele><time>2026-04-27T17:04:48.001Z</time></trkpt><trkpt lat="30.33474605443727" lon="-9.412927885850475"><ele>64.0</ele><time>2026-04-27T17:04:49.001Z</time></trkpt><trkpt lat="30.334762073685013" lon="-9.413162191539099"><ele>64.33333333333333</ele><time>2026-04-27T17:04:50.001Z</time></trkpt><trkpt lat="30.33477849381831" lon="-9.413403555022578"><ele>64.66666666666667</ele><time>2026-04-27T17:04:51.001Z</time></trkpt><trkpt lat="30.33479337281323" lon="-9.413647006485464"><ele>65.0</ele><time>2026-04-27T17:04:52.001Z</time></trkpt><trkpt lat="30.334809869662106" lon="-9.413900672949257"><ele>64.33333333333334</ele><time>2026-04-27T17:04:53.001Z</time></trkpt><trkpt lat="30.334823831907393" lon="-9.41415285253595"><ele>63.66666666666667</ele><time>2026-04-27T17:04:54.001Z</time></trkpt><trkpt lat="30.334836916224628" lon="-9.414401837435653"><ele>63.0</ele><time>2026-04-27T17:04:55.001Z</time></trkpt><trkpt lat="30.334851795185276" lon="-9.414645591812235"><ele>63.0</ele><time>2026-04-27T17:04:56.001Z</time></trkpt><trkpt lat="30.334868128750216" lon="-9.41488214773435"><ele>63.0</ele><time>2026-04-27T17:04:57.001Z</time></trkpt><trkpt lat="30.33488456453197" lon="-9.415101955018374"><ele>63.0</ele><time>2026-04-27T17:04:58.001Z</time></trkpt><trkpt lat="30.334900903644" lon="-9.415311832793739"><ele>62.66666666666667</ele><time>2026-04-27T17:04:59.001Z</time></trkpt><trkpt lat="30.334916542109898" lon="-9.415507883711456"><ele>62.333333333333336</ele><time>2026-04-27T17:05:00.001Z</time></trkpt><trkpt lat="30.334930172960725" lon="-9.415694714817779"><ele>62.0</ele><time>2026-04-27T17:05:01.001Z</time></trkpt><trkpt lat="30.334942255136" lon="-9.415874941261226"><ele>62.0</ele><time>2026-04-27T17:05:02.001Z</time></trkpt><trkpt lat="30.334953666819143" lon="-9.416046373814682"><ele>62.0</ele><time>2026-04-27T17:05:03.001Z</time></trkpt><trkpt lat="30.334965880858096" lon="-9.416220334345375"><ele>62.0</ele><time>2026-04-27T17:05:04.001Z</time></trkpt><trkpt lat="30.33497920082244" lon="-9.416400279913399"><ele>62.333333333333336</ele><time>2026-04-27T17:05:05.001Z</time></trkpt><trkpt lat="30.33499342460533" lon="-9.416575997438317"><ele>62.66666666666667</ele><time>2026-04-27T17:05:06.001Z</time></trkpt><trkpt lat="30.335005605869842" lon="-9.416751023511434"><ele>63.0</ele><time>2026-04-27T17:05:07.001Z</time></trkpt><trkpt lat="30.335019639753163" lon="-9.416931878373894"><ele>63.0</ele><time>2026-04-27T17:05:08.001Z</time></trkpt><trkpt lat="30.335033993613546" lon="-9.417122678321824"><ele>63.0</ele><time>2026-04-27T17:05:09.001Z</time></trkpt><trkpt lat="30.335055812573604" lon="-9.417333613990497"><ele>63.0</ele><time>2026-04-27T17:05:10.001Z</time></trkpt><trkpt lat="30.33508385840267" lon="-9.41754796375553"><ele>63.33333333333333</ele><time>2026-04-27T17:05:11.001Z</time></trkpt><trkpt lat="30.335108664153363" lon="-9.417760910775304"><ele>63.666666666666664</ele><time>2026-04-27T17:05:12.001Z</time></trkpt><trkpt lat="30.335124920252323" lon="-9.417976618026863"><ele>64.0</ele><time>2026-04-27T17:05:13.001Z</time></trkpt><trkpt lat="30.33513535397329" lon="-9.418220922964"><ele>64.0</ele><time>2026-04-27T17:05:14.001Z</time></trkpt><trkpt lat="30.335142586198042" lon="-9.418482744493208"><ele>64.0</ele><time>2026-04-27T17:05:15.001Z</time></trkpt><trkpt lat="30.335153010488053" lon="-9.418751128633442"><ele>63.0</ele><time>2026-04-27T17:05:16.001Z</time></trkpt><trkpt lat="30.33517217728372" lon="-9.419029272498502"><ele>62.0</ele><time>2026-04-27T17:05:17.001Z</time></trkpt><trkpt lat="30.33519515330438" lon="-9.4193090522172"><ele>62.0</ele><time>2026-04-27T17:05:18.001Z</time></trkpt><trkpt lat="30.335217220551037" lon="-9.419585452707912"><ele>62.0</ele><time>2026-04-27T17:05:19Z</time></trkpt><trkpt lat="30.33523836340507" lon="-9.419852710616222"><ele>61.0</ele><time>2026-04-27T17:05:20Z</time></trkpt><trkpt lat="30.335258146850077" lon="-9.42011232327476"><ele>60.0</ele><time>2026-04-27T17:05:21Z</time></trkpt><trkpt lat="30.3352833848533" lon="-9.420364554248785"><ele>59.0</ele><time>2026-04-27T17:05:22Z</time></trkpt><trkpt lat="30.33532099049236" lon="-9.420614331916482"><ele>59.0</ele><time>2026-04-27T17:05:23Z</time></trkpt><trkpt lat="30.335354777251755" lon="-9.420866574807299"><ele>59.0</ele><time>2026-04-27T17:05:24Z</time></trkpt><trkpt lat="30.335370564672736" lon="-9.421100862451672"><ele>59.0</ele><time>2026-04-27T17:05:25Z</time></trkpt><trkpt lat="30.335386623410606" lon="-9.421331963153252"><ele>59.0</ele><time>2026-04-27T17:05:26Z</time></trkpt><trkpt lat="30.335407797907923" lon="-9.421567960607268"><ele>59.0</ele><time>2026-04-27T17:05:27Z</time></trkpt><trkpt lat="30.335431005318977" lon="-9.421810500764852"><ele>59.0</ele><time>2026-04-27T17:05:28Z</time></trkpt><trkpt lat="30.33545511327748" lon="-9.4220560743544"><ele>59.66666666666667</ele><time>2026-04-27T17:05:29Z</time></trkpt><trkpt lat="30.335478212557184" lon="-9.422308037138306"><ele>60.33333333333333</ele><time>2026-04-27T17:05:30Z</time></trkpt><trkpt lat="30.335502958247638" lon="-9.42256283518676"><ele>61.0</ele><time>2026-04-27T17:05:31Z</time></trkpt><trkpt lat="30.335522514413835" lon="-9.42282165662089"><ele>61.0</ele><time>2026-04-27T17:05:32Z</time></trkpt><trkpt lat="30.335539075593772" lon="-9.423081714031833"><ele>61.0</ele><time>2026-04-27T17:05:33Z</time></trkpt><trkpt lat="30.335556236543667" lon="-9.423337891633377"><ele>61.0</ele><time>2026-04-27T17:05:34Z</time></trkpt><trkpt lat="30.33557869116768" lon="-9.423586077336996"><ele>60.33333333333333</ele><time>2026-04-27T17:05:35Z</time></trkpt><trkpt lat="30.335601315206535" lon="-9.423838252939504"><ele>59.66666666666667</ele><time>2026-04-27T17:05:36Z</time></trkpt><trkpt lat="30.335622873005672" lon="-9.424095389164941"><ele>59.0</ele><time>2026-04-27T17:05:37Z</time></trkpt><trkpt lat="30.33564565744388" lon="-9.424357262369668"><ele>59.0</ele><time>2026-04-27T17:05:38Z</time></trkpt><trkpt lat="30.335670417875708" lon="-9.424621314884513"><ele>59.0</ele><time>2026-04-27T17:05:39Z</time></trkpt><trkpt lat="30.335692465180934" lon="-9.42488796578763"><ele>59.5</ele><time>2026-04-27T17:05:40Z</time></trkpt><trkpt lat="30.335716091035653" lon="-9.425163129985053"><ele>60.0</ele><time>2026-04-27T17:05:41Z</time></trkpt><trkpt lat="30.335741090727307" lon="-9.425439685767985"><ele>59.5</ele><time>2026-04-27T17:05:42Z</time></trkpt><trkpt lat="30.335762790297963" lon="-9.4257087783775"><ele>59.0</ele><time>2026-04-27T17:05:43Z</time></trkpt><trkpt lat="30.335783508391653" lon="-9.425974983332935"><ele>59.0</ele><time>2026-04-27T17:05:44Z</time></trkpt><trkpt lat="30.33580329338473" lon="-9.426239234026832"><ele>59.0</ele><time>2026-04-27T17:05:45Z</time></trkpt><trkpt lat="30.3358220350472" lon="-9.426505368750046"><ele>58.5</ele><time>2026-04-27T17:05:46Z</time></trkpt><trkpt lat="30.335841015738957" lon="-9.42677526259203"><ele>58.0</ele><time>2026-04-27T17:05:47Z</time></trkpt><trkpt lat="30.33585911933003" lon="-9.427052239930727"><ele>58.5</ele><time>2026-04-27T17:05:48Z</time></trkpt><trkpt lat="30.33588344639425" lon="-9.427332068253035"><ele>59.0</ele><time>2026-04-27T17:05:49Z</time></trkpt><trkpt lat="30.3359048145594" lon="-9.427615669596262"><ele>59.0</ele><time>2026-04-27T17:05:50Z</time></trkpt><trkpt lat="30.335927326822507" lon="-9.427894261853723"><ele>59.0</ele><time>2026-04-27T17:05:51Z</time></trkpt><trkpt lat="30.335948754602455" lon="-9.428168454025148"><ele>60.0</ele><time>2026-04-27T17:05:52Z</time></trkpt><trkpt lat="30.335967198491264" lon="-9.428429970816032"><ele>61.0</ele><time>2026-04-27T17:05:53Z</time></trkpt><trkpt lat="30.33598354570315" lon="-9.428688694935166"><ele>59.0</ele><time>2026-04-27T17:05:54Z</time></trkpt><trkpt lat="30.33600122951321" lon="-9.428952557163187"><ele>57.0</ele><time>2026-04-27T17:05:55Z</time></trkpt><trkpt lat="30.33602108515745" lon="-9.429223266080578"><ele>57.0</ele><time>2026-04-27T17:05:56Z</time></trkpt><trkpt lat="30.33604238212097" lon="-9.429494929049087"><ele>57.0</ele><time>2026-04-27T17:05:57Z</time></trkpt><trkpt lat="30.336066020445127" lon="-9.429767417751519"><ele>56.5</ele><time>2026-04-27T17:05:58Z</time></trkpt><trkpt lat="30.33608877923908" lon="-9.430045838661805"><ele>56.0</ele><time>2026-04-27T17:05:59Z</time></trkpt><trkpt lat="30.336111310609937" lon="-9.430332590723737"><ele>57.5</ele><time>2026-04-27T17:06:00Z</time></trkpt><trkpt lat="30.336139461427706" lon="-9.430622727983776"><ele>59.0</ele><time>2026-04-27T17:06:01Z</time></trkpt><trkpt lat="30.33617272705404" lon="-9.430909866216794"><ele>59.0</ele><time>2026-04-27T17:06:02Z</time></trkpt><trkpt lat="30.336202349842615" lon="-9.43118914622242"><ele>59.0</ele><time>2026-04-27T17:06:03Z</time></trkpt><trkpt lat="30.336225952239822" lon="-9.43146118980626"><ele>58.0</ele><time>2026-04-27T17:06:04Z</time></trkpt><trkpt lat="30.336243914183918" lon="-9.431725744453674"><ele>57.0</ele><time>2026-04-27T17:06:05Z</time></trkpt><trkpt lat="30.336263559466207" lon="-9.431993437060148"><ele>58.0</ele><time>2026-04-27T17:06:06Z</time></trkpt><trkpt lat="30.336285229807118" lon="-9.43226064713207"><ele>59.0</ele><time>2026-04-27T17:06:07Z</time></trkpt><trkpt lat="30.336305187472753" lon="-9.432530876435536"><ele>59.0</ele><time>2026-04-27T17:06:08Z</time></trkpt><trkpt lat="30.33632251050919" lon="-9.432805457297635"><ele>59.0</ele><time>2026-04-27T17:06:09Z</time></trkpt><trkpt lat="30.336340109481934" lon="-9.43308303610911"><ele>58.5</ele><time>2026-04-27T17:06:10Z</time></trkpt><trkpt lat="30.33635877159313" lon="-9.433360876265478"><ele>58.0</ele><time>2026-04-27T17:06:11Z</time></trkpt><trkpt lat="30.336376050310847" lon="-9.433636248126497"><ele>57.0</ele><time>2026-04-27T17:06:12Z</time></trkpt><trkpt lat="30.336392976620026" lon="-9.433907278439298"><ele>56.0</ele><time>2026-04-27T17:06:13Z</time></trkpt><trkpt lat="30.33641087686715" lon="-9.434172616514623"><ele>56.0</ele><time>2026-04-27T17:06:14Z</time></trkpt><trkpt lat="30.336432376400133" lon="-9.434441086544552"><ele>56.0</ele><time>2026-04-27T17:06:15Z</time></trkpt><trkpt lat="30.336459375761475" lon="-9.43471213695424"><ele>56.5</ele><time>2026-04-27T17:06:16Z</time></trkpt><trkpt lat="30.336491107712234" lon="-9.434981057759948"><ele>57.0</ele><time>2026-04-27T17:06:17Z</time></trkpt><trkpt lat="30.33652042106221" lon="-9.435251163737009"><ele>56.5</ele><time>2026-04-27T17:06:18Z</time></trkpt><trkpt lat="30.33654013149693" lon="-9.435522098797348"><ele>56.0</ele><time>2026-04-27T17:06:19Z</time></trkpt><trkpt lat="30.336556479110293" lon="-9.435792253120862"><ele>56.0</ele><time>2026-04-27T17:06:20Z</time></trkpt><trkpt lat="30.336571306580066" lon="-9.436057485177956"><ele>56.0</ele><time>2026-04-27T17:06:21Z</time></trkpt><trkpt lat="30.33658664169426" lon="-9.436317955501972"><ele>55.0</ele><time>2026-04-27T17:06:22Z</time></trkpt><trkpt lat="30.336601593619307" lon="-9.436579637205499"><ele>54.0</ele><time>2026-04-27T17:06:23Z</time></trkpt><trkpt lat="30.33661687617064" lon="-9.436842549370553"><ele>54.0</ele><time>2026-04-27T17:06:24Z</time></trkpt><trkpt lat="30.33663331759871" lon="-9.437103653711484"><ele>54.0</ele><time>2026-04-27T17:06:25Z</time></trkpt><trkpt lat="30.33665203089855" lon="-9.437364267881657"><ele>55.5</ele><time>2026-04-27T17:06:26Z</time></trkpt><trkpt lat="30.336672498930906" lon="-9.43763113657539"><ele>57.0</ele><time>2026-04-27T17:06:27Z</time></trkpt><trkpt lat="30.336690410222445" lon="-9.437905057549788"><ele>57.0</ele><time>2026-04-27T17:06:28Z</time></trkpt><trkpt lat="30.33671005713907" lon="-9.43818101003503"><ele>57.0</ele><time>2026-04-27T17:06:29Z</time></trkpt><trkpt lat="30.33673045768763" lon="-9.43845505263783"><ele>57.0</ele><time>2026-04-27T17:06:30Z</time></trkpt><trkpt lat="30.336753127673337" lon="-9.438719245713799"><ele>57.0</ele><time>2026-04-27T17:06:31Z</time></trkpt><trkpt lat="30.336779822752305" lon="-9.43898096689523"><ele>56.5</ele><time>2026-04-27T17:06:32Z</time></trkpt><trkpt lat="30.33680629858184" lon="-9.439242024487076"><ele>56.0</ele><time>2026-04-27T17:06:33Z</time></trkpt><trkpt lat="30.336827697371994" lon="-9.439507114198658"><ele>56.0</ele><time>2026-04-27T17:06:34Z</time></trkpt><trkpt lat="30.33685091056688" lon="-9.439777171114137"><ele>56.0</ele><time>2026-04-27T17:06:35Z</time></trkpt><trkpt lat="30.336874896219822" lon="-9.440041724300842"><ele>56.0</ele><time>2026-04-27T17:06:36Z</time></trkpt><trkpt lat="30.336897205266713" lon="-9.440300894029779"><ele>56.0</ele><time>2026-04-27T17:06:37Z</time></trkpt><trkpt lat="30.336918622704992" lon="-9.440556100706642"><ele>56.0</ele><time>2026-04-27T17:06:38Z</time></trkpt><trkpt lat="30.336939958730092" lon="-9.440803108764081"><ele>55.66666666666667</ele><time>2026-04-27T17:06:39Z</time></trkpt><trkpt lat="30.336957473004446" lon="-9.441035730768371"><ele>55.33333333333333</ele><time>2026-04-27T17:06:40Z</time></trkpt><trkpt lat="30.336972077599118" lon="-9.441252492506253"><ele>55.0</ele><time>2026-04-27T17:06:41Z</time></trkpt><trkpt lat="30.33698561786221" lon="-9.441454392409508"><ele>55.0</ele><time>2026-04-27T17:06:42Z</time></trkpt><trkpt lat="30.336999523715004" lon="-9.441640937373863"><ele>55.0</ele><time>2026-04-27T17:06:43Z</time></trkpt><trkpt lat="30.337012009910417" lon="-9.441813103704217"><ele>55.0</ele><time>2026-04-27T17:06:44Z</time></trkpt><trkpt lat="30.33702637322271" lon="-9.44198221059516"><ele>55.0</ele><time>2026-04-27T17:06:45Z</time></trkpt><trkpt lat="30.33704221116551" lon="-9.442132715704767"><ele>55.0</ele><time>2026-04-27T17:06:46Z</time></trkpt><trkpt lat="30.33706046382009" lon="-9.442272422790246"><ele>55.0</ele><time>2026-04-27T17:06:47Z</time></trkpt><trkpt lat="30.33708433187591" lon="-9.44240619769982"><ele>55.0</ele><time>2026-04-27T17:06:48Z</time></trkpt><trkpt lat="30.337111547695553" lon="-9.44252186473087"><ele>55.0</ele><time>2026-04-27T17:06:49Z</time></trkpt><trkpt lat="30.337139613245274" lon="-9.44261776551998"><ele>55.0</ele><time>2026-04-27T17:06:50Z</time></trkpt><trkpt lat="30.337170054472764" lon="-9.442712585993117"><ele>55.0</ele><time>2026-04-27T17:06:52Z</time></trkpt><trkpt lat="30.337219941214197" lon="-9.442847875024283"><ele>55.0</ele><time>2026-04-27T17:06:55.001Z</time></trkpt><trkpt lat="30.33722282912759" lon="-9.442930383016488"><ele>55.0</ele><time>2026-04-27T17:06:56.001Z</time></trkpt><trkpt lat="30.33721895909205" lon="-9.443019363062948"><ele>54.5</ele><time>2026-04-27T17:06:57.001Z</time></trkpt><trkpt lat="30.337203042929982" lon="-9.443137565011634"><ele>54.0</ele><time>2026-04-27T17:06:58.001Z</time></trkpt><trkpt lat="30.337179037510182" lon="-9.443291302219372"><ele>53.5</ele><time>2026-04-27T17:06:59.001Z</time></trkpt><trkpt lat="30.337161580264368" lon="-9.443472536044986"><ele>53.0</ele><time>2026-04-27T17:07:00.001Z</time></trkpt><trkpt lat="30.337158108744283" lon="-9.443658786597792"><ele>52.0</ele><time>2026-04-27T17:07:01.001Z</time></trkpt><trkpt lat="30.337169205472488" lon="-9.443875913086373"><ele>51.0</ele><time>2026-04-27T17:07:02.001Z</time></trkpt><trkpt lat="30.337188563947098" lon="-9.444111336616457"><ele>50.0</ele><time>2026-04-27T17:07:03.001Z</time></trkpt><trkpt lat="30.33720735837468" lon="-9.444350444029858"><ele>50.0</ele><time>2026-04-27T17:07:04.001Z</time></trkpt><trkpt lat="30.337224822957435" lon="-9.44460628374311"><ele>50.0</ele><time>2026-04-27T17:07:05.001Z</time></trkpt><trkpt lat="30.337240499514056" lon="-9.444868198594534"><ele>50.0</ele><time>2026-04-27T17:07:06.001Z</time></trkpt><trkpt lat="30.337253530256707" lon="-9.445114257359894"><ele>50.0</ele><time>2026-04-27T17:07:07.001Z</time></trkpt><trkpt lat="30.337268914065692" lon="-9.445349180898386"><ele>50.0</ele><time>2026-04-27T17:07:08.001Z</time></trkpt><trkpt lat="30.337283942051783" lon="-9.445573333875645"><ele>50.0</ele><time>2026-04-27T17:07:09.001Z</time></trkpt><trkpt lat="30.337298371448234" lon="-9.445789422827344"><ele>50.0</ele><time>2026-04-27T17:07:10Z</time></trkpt><trkpt lat="30.337313286975554" lon="-9.445993228095375"><ele>50.0</ele><time>2026-04-27T17:07:11Z</time></trkpt><trkpt lat="30.337328925237564" lon="-9.446199977590076"><ele>50.0</ele><time>2026-04-27T17:07:12Z</time></trkpt><trkpt lat="30.33734480510424" lon="-9.446405691022076"><ele>50.0</ele><time>2026-04-27T17:07:13Z</time></trkpt><trkpt lat="30.337364916457275" lon="-9.446618170955302"><ele>50.0</ele><time>2026-04-27T17:07:14Z</time></trkpt><trkpt lat="30.337386291558097" lon="-9.446836563132532"><ele>50.0</ele><time>2026-04-27T17:07:15Z</time></trkpt><trkpt lat="30.33741036842624" lon="-9.447068525862909"><ele>49.66666666666667</ele><time>2026-04-27T17:07:16Z</time></trkpt><trkpt lat="30.337427920464897" lon="-9.447286413790007"><ele>49.33333333333333</ele><time>2026-04-27T17:07:17Z</time></trkpt><trkpt lat="30.337436155531304" lon="-9.447492332419175"><ele>49.0</ele><time>2026-04-27T17:07:18Z</time></trkpt><trkpt lat="30.337445777932356" lon="-9.447707443860697"><ele>49.0</ele><time>2026-04-27T17:07:19Z</time></trkpt><trkpt lat="30.337457766492182" lon="-9.447938806009487"><ele>49.0</ele><time>2026-04-27T17:07:20Z</time></trkpt><trkpt lat="30.3374691219581" lon="-9.448176702371757"><ele>49.0</ele><time>2026-04-27T17:07:21Z</time></trkpt><trkpt lat="30.33748660540011" lon="-9.44842620525471"><ele>48.5</ele><time>2026-04-27T17:07:22Z</time></trkpt><trkpt lat="30.337509460084988" lon="-9.44869211102763"><ele>48.0</ele><time>2026-04-27T17:07:23Z</time></trkpt><trkpt lat="30.337535263618285" lon="-9.44896002494787"><ele>48.0</ele><time>2026-04-27T17:07:24Z</time></trkpt><trkpt lat="30.33756124906281" lon="-9.449231779048558"><ele>48.0</ele><time>2026-04-27T17:07:25Z</time></trkpt><trkpt lat="30.337588648622706" lon="-9.449505613142348"><ele>48.0</ele><time>2026-04-27T17:07:26Z</time></trkpt><trkpt lat="30.337612404234715" lon="-9.4497802959929"><ele>48.0</ele><time>2026-04-27T17:07:27Z</time></trkpt><trkpt lat="30.337635608223273" lon="-9.450057500028477"><ele>48.0</ele><time>2026-04-27T17:07:28Z</time></trkpt><trkpt lat="30.337657789082176" lon="-9.450330044661744"><ele>48.0</ele><time>2026-04-27T17:07:29Z</time></trkpt><trkpt lat="30.33767732389224" lon="-9.450588169116731"><ele>48.0</ele><time>2026-04-27T17:07:30Z</time></trkpt><trkpt lat="30.337694246476854" lon="-9.450832601877165"><ele>48.0</ele><time>2026-04-27T17:07:31Z</time></trkpt><trkpt lat="30.337710293414528" lon="-9.451068348928734"><ele>48.0</ele><time>2026-04-27T17:07:32Z</time></trkpt><trkpt lat="30.33772650640418" lon="-9.451295690602874"><ele>47.666666666666664</ele><time>2026-04-27T17:07:33Z</time></trkpt><trkpt lat="30.337744356076435" lon="-9.451528339024609"><ele>47.33333333333333</ele><time>2026-04-27T17:07:34Z</time></trkpt><trkpt lat="30.337761507967702" lon="-9.451763318020914"><ele>47.0</ele><time>2026-04-27T17:07:35Z</time></trkpt><trkpt lat="30.337778653527916" lon="-9.451995609496477"><ele>47.33333333333333</ele><time>2026-04-27T17:07:36Z</time></trkpt><trkpt lat="30.33779624198203" lon="-9.452220747324706"><ele>47.666666666666664</ele><time>2026-04-27T17:07:37Z</time></trkpt><trkpt lat="30.33781368283975" lon="-9.452442025985581"><ele>48.0</ele><time>2026-04-27T17:07:38Z</time></trkpt><trkpt lat="30.337831733230637" lon="-9.452661458583266"><ele>48.0</ele><time>2026-04-27T17:07:39Z</time></trkpt><trkpt lat="30.33784654614494" lon="-9.452884220863153"><ele>48.0</ele><time>2026-04-27T17:07:40Z</time></trkpt><trkpt lat="30.33786173977154" lon="-9.453105280050991"><ele>48.0</ele><time>2026-04-27T17:07:41Z</time></trkpt><trkpt lat="30.337878440146557" lon="-9.453328507309147"><ele>47.666666666666664</ele><time>2026-04-27T17:07:42Z</time></trkpt><trkpt lat="30.337896392135534" lon="-9.453556015057194"><ele>47.33333333333333</ele><time>2026-04-27T17:07:43Z</time></trkpt><trkpt lat="30.337914781813467" lon="-9.453788853842433"><ele>47.0</ele><time>2026-04-27T17:07:44Z</time></trkpt><trkpt lat="30.33793290881868" lon="-9.454030124689906"><ele>47.0</ele><time>2026-04-27T17:07:45Z</time></trkpt><trkpt lat="30.337949970502333" lon="-9.454276610289902"><ele>47.0</ele><time>2026-04-27T17:07:46Z</time></trkpt><trkpt lat="30.337967528248235" lon="-9.4545240005539"><ele>47.0</ele><time>2026-04-27T17:07:47Z</time></trkpt><trkpt lat="30.337986065080322" lon="-9.454769769923725"><ele>46.666666666666664</ele><time>2026-04-27T17:07:48Z</time></trkpt><trkpt lat="30.338005725601125" lon="-9.45501692730341"><ele>46.333333333333336</ele><time>2026-04-27T17:07:49Z</time></trkpt><trkpt lat="30.338026852778345" lon="-9.455268244510268"><ele>46.0</ele><time>2026-04-27T17:07:50Z</time></trkpt><trkpt lat="30.338045544719176" lon="-9.455511982399836"><ele>46.0</ele><time>2026-04-27T17:07:51Z</time></trkpt><trkpt lat="30.338064028288215" lon="-9.455745700917403"><ele>46.0</ele><time>2026-04-27T17:07:52Z</time></trkpt><trkpt lat="30.338082093341246" lon="-9.455974400163102"><ele>46.0</ele><time>2026-04-27T17:07:53Z</time></trkpt><trkpt lat="30.338100069776136" lon="-9.456209472762227"><ele>46.0</ele><time>2026-04-27T17:07:54Z</time></trkpt><trkpt lat="30.33811835566399" lon="-9.456444837849537"><ele>46.0</ele><time>2026-04-27T17:07:55Z</time></trkpt><trkpt lat="30.338136358525887" lon="-9.45667697781029"><ele>46.0</ele><time>2026-04-27T17:07:56Z</time></trkpt><trkpt lat="30.33815583389344" lon="-9.456912802655916"><ele>45.0</ele><time>2026-04-27T17:07:57Z</time></trkpt><trkpt lat="30.338174343654373" lon="-9.457145459616937"><ele>44.0</ele><time>2026-04-27T17:07:58Z</time></trkpt><trkpt lat="30.338192891435146" lon="-9.457380802263623"><ele>43.0</ele><time>2026-04-27T17:07:59Z</time></trkpt><trkpt lat="30.338211371569894" lon="-9.457620352659175"><ele>43.0</ele><time>2026-04-27T17:08:00Z</time></trkpt><trkpt lat="30.338229909429522" lon="-9.457863407580763"><ele>43.0</ele><time>2026-04-27T17:08:01Z</time></trkpt><trkpt lat="30.338248765231477" lon="-9.458109000440801"><ele>43.0</ele><time>2026-04-27T17:08:02Z</time></trkpt><trkpt lat="30.338266851765702" lon="-9.458355980831328"><ele>43.66666666666667</ele><time>2026-04-27T17:08:03Z</time></trkpt><trkpt lat="30.33828346374902" lon="-9.458605472750328"><ele>44.333333333333336</ele><time>2026-04-27T17:08:04Z</time></trkpt><trkpt lat="30.338300054921778" lon="-9.458855623281012"><ele>45.0</ele><time>2026-04-27T17:08:05Z</time></trkpt><trkpt lat="30.338318211644914" lon="-9.45910858458593"><ele>43.0</ele><time>2026-04-27T17:08:06Z</time></trkpt><trkpt lat="30.338340350786357" lon="-9.459364742048821"><ele>41.0</ele><time>2026-04-27T17:08:07Z</time></trkpt><trkpt lat="30.338362371876165" lon="-9.459628178060472"><ele>40.0</ele><time>2026-04-27T17:08:08Z</time></trkpt><trkpt lat="30.338384579307057" lon="-9.459901149221833"><ele>39.0</ele><time>2026-04-27T17:08:09Z</time></trkpt><trkpt lat="30.338404166563436" lon="-9.460176829983684"><ele>39.0</ele><time>2026-04-27T17:08:10Z</time></trkpt><trkpt lat="30.338422748888785" lon="-9.460443549992288"><ele>39.0</ele><time>2026-04-27T17:08:11Z</time></trkpt><trkpt lat="30.338442094729142" lon="-9.460695332789383"><ele>39.0</ele><time>2026-04-27T17:08:12Z</time></trkpt><trkpt lat="30.338461125897396" lon="-9.460938507366865"><ele>39.0</ele><time>2026-04-27T17:08:13Z</time></trkpt><trkpt lat="30.338479847562443" lon="-9.461179082788055"><ele>39.0</ele><time>2026-04-27T17:08:14Z</time></trkpt><trkpt lat="30.338499055200877" lon="-9.461426050515435"><ele>39.0</ele><time>2026-04-27T17:08:15Z</time></trkpt><trkpt lat="30.33851774595535" lon="-9.461677160617931"><ele>39.0</ele><time>2026-04-27T17:08:16Z</time></trkpt><trkpt lat="30.338535727048484" lon="-9.461930337213797"><ele>39.0</ele><time>2026-04-27T17:08:17Z</time></trkpt><trkpt lat="30.338554633028828" lon="-9.462187765745197"><ele>39.0</ele><time>2026-04-27T17:08:18Z</time></trkpt><trkpt lat="30.33857391981532" lon="-9.462447549731728"><ele>39.0</ele><time>2026-04-27T17:08:19Z</time></trkpt><trkpt lat="30.338591699490774" lon="-9.462705644101591"><ele>39.0</ele><time>2026-04-27T17:08:20Z</time></trkpt><trkpt lat="30.338610390186087" lon="-9.462960509395772"><ele>39.0</ele><time>2026-04-27T17:08:21Z</time></trkpt><trkpt lat="30.33863123656971" lon="-9.463222400281113"><ele>38.5</ele><time>2026-04-27T17:08:22Z</time></trkpt><trkpt lat="30.338652506331574" lon="-9.463494680958988"><ele>38.0</ele><time>2026-04-27T17:08:23Z</time></trkpt><trkpt lat="30.338673655015786" lon="-9.463771219361133"><ele>38.0</ele><time>2026-04-27T17:08:24Z</time></trkpt><trkpt lat="30.33869593489983" lon="-9.464055767273031"><ele>38.0</ele><time>2026-04-27T17:08:25Z</time></trkpt><trkpt lat="30.338717907539447" lon="-9.464342604979313"><ele>40.0</ele><time>2026-04-27T17:08:26Z</time></trkpt><trkpt lat="30.33874173821803" lon="-9.46462732812666"><ele>42.0</ele><time>2026-04-27T17:08:27Z</time></trkpt><trkpt lat="30.338765845307414" lon="-9.464908605988064"><ele>42.0</ele><time>2026-04-27T17:08:28Z</time></trkpt><trkpt lat="30.338787457039853" lon="-9.465190884638083"><ele>42.0</ele><time>2026-04-27T17:08:29Z</time></trkpt><trkpt lat="30.33880924448349" lon="-9.465474630303024"><ele>41.0</ele><time>2026-04-27T17:08:30Z</time></trkpt><trkpt lat="30.338828349263743" lon="-9.46575401175647"><ele>40.0</ele><time>2026-04-27T17:08:31Z</time></trkpt><trkpt lat="30.33884460652182" lon="-9.466036479437122"><ele>39.5</ele><time>2026-04-27T17:08:32Z</time></trkpt><trkpt lat="30.338862902658" lon="-9.46631470775033"><ele>39.0</ele><time>2026-04-27T17:08:33Z</time></trkpt><trkpt lat="30.338881676736968" lon="-9.466589534866714"><ele>38.5</ele><time>2026-04-27T17:08:34Z</time></trkpt><trkpt lat="30.338901587017148" lon="-9.466865223188591"><ele>38.0</ele><time>2026-04-27T17:08:35Z</time></trkpt><trkpt lat="30.338922472171333" lon="-9.467140613093127"><ele>38.0</ele><time>2026-04-27T17:08:36Z</time></trkpt><trkpt lat="30.3389450143915" lon="-9.467418825137383"><ele>38.0</ele><time>2026-04-27T17:08:37Z</time></trkpt><trkpt lat="30.338968116710543" lon="-9.467699599453024"><ele>38.0</ele><time>2026-04-27T17:08:38Z</time></trkpt><trkpt lat="30.338990293405473" lon="-9.467981037503325"><ele>38.0</ele><time>2026-04-27T17:08:39Z</time></trkpt><trkpt lat="30.339015513783313" lon="-9.468272972863161"><ele>38.0</ele><time>2026-04-27T17:08:40Z</time></trkpt><trkpt lat="30.33904798851139" lon="-9.468565312332398"><ele>38.0</ele><time>2026-04-27T17:08:41Z</time></trkpt><trkpt lat="30.339083852406645" lon="-9.468853927828228"><ele>39.0</ele><time>2026-04-27T17:08:42Z</time></trkpt><trkpt lat="30.3391176362307" lon="-9.46914071770171"><ele>40.0</ele><time>2026-04-27T17:08:43Z</time></trkpt><trkpt lat="30.339146216076426" lon="-9.469420893283488"><ele>37.0</ele><time>2026-04-27T17:08:44Z</time></trkpt><trkpt lat="30.339168230451484" lon="-9.469690301991887"><ele>34.0</ele><time>2026-04-27T17:08:45Z</time></trkpt><trkpt lat="30.33918747379989" lon="-9.46995801537704"><ele>34.0</ele><time>2026-04-27T17:08:46Z</time></trkpt><trkpt lat="30.339208260067807" lon="-9.470221818419965"><ele>34.0</ele><time>2026-04-27T17:08:47Z</time></trkpt><trkpt lat="30.339226369232364" lon="-9.470483952315355"><ele>33.5</ele><time>2026-04-27T17:08:48Z</time></trkpt><trkpt lat="30.33924310610097" lon="-9.470748002900729"><ele>33.0</ele><time>2026-04-27T17:08:49Z</time></trkpt><trkpt lat="30.33926112522825" lon="-9.471008689585926"><ele>33.0</ele><time>2026-04-27T17:08:50Z</time></trkpt><trkpt lat="30.33927938756291" lon="-9.471270342044624"><ele>33.0</ele><time>2026-04-27T17:08:51Z</time></trkpt><trkpt lat="30.339298326566702" lon="-9.471535325687748"><ele>32.5</ele><time>2026-04-27T17:08:52Z</time></trkpt><trkpt lat="30.339316892986393" lon="-9.471798764853693"><ele>32.0</ele><time>2026-04-27T17:08:53Z</time></trkpt><trkpt lat="30.339336129830652" lon="-9.472063897339519"><ele>31.0</ele><time>2026-04-27T17:08:54Z</time></trkpt><trkpt lat="30.339357433053326" lon="-9.4723240828364"><ele>30.0</ele><time>2026-04-27T17:08:55Z</time></trkpt><trkpt lat="30.339378156372458" lon="-9.472585028613164"><ele>30.0</ele><time>2026-04-27T17:08:56Z</time></trkpt><trkpt lat="30.339397346375772" lon="-9.472843137156852"><ele>30.0</ele><time>2026-04-27T17:08:57Z</time></trkpt><trkpt lat="30.33941557594258" lon="-9.473094842007082"><ele>30.0</ele><time>2026-04-27T17:08:58Z</time></trkpt><trkpt lat="30.339433129028595" lon="-9.473347353252525"><ele>30.666666666666664</ele><time>2026-04-27T17:08:59Z</time></trkpt><trkpt lat="30.339453055130903" lon="-9.473600886498888"><ele>31.333333333333332</ele><time>2026-04-27T17:09:00Z</time></trkpt><trkpt lat="30.33947207305333" lon="-9.473853401703675"><ele>32.0</ele><time>2026-04-27T17:09:01Z</time></trkpt><trkpt lat="30.339487784100303" lon="-9.474103390263389"><ele>32.0</ele><time>2026-04-27T17:09:02Z</time></trkpt><trkpt lat="30.339505342036478" lon="-9.474354960853319"><ele>32.0</ele><time>2026-04-27T17:09:03Z</time></trkpt><trkpt lat="30.339521207706746" lon="-9.474608313170098"><ele>32.0</ele><time>2026-04-27T17:09:04Z</time></trkpt><trkpt lat="30.339537930959114" lon="-9.474870457297838"><ele>32.0</ele><time>2026-04-27T17:09:05Z</time></trkpt><trkpt lat="30.33955227738637" lon="-9.47513523513127"><ele>32.0</ele><time>2026-04-27T17:09:06Z</time></trkpt><trkpt lat="30.339565741660437" lon="-9.475395323427666"><ele>31.666666666666664</ele><time>2026-04-27T17:09:07Z</time></trkpt><trkpt lat="30.3395811559228" lon="-9.475642316244357"><ele>31.333333333333336</ele><time>2026-04-27T17:09:08Z</time></trkpt><trkpt lat="30.339598815574234" lon="-9.475882383885958"><ele>31.0</ele><time>2026-04-27T17:09:09Z</time></trkpt><trkpt lat="30.339617148012742" lon="-9.476125389390049"><ele>30.333333333333336</ele><time>2026-04-27T17:09:10Z</time></trkpt><trkpt lat="30.339635240164355" lon="-9.476370298419976"><ele>29.666666666666664</ele><time>2026-04-27T17:09:11Z</time></trkpt><trkpt lat="30.339652658945557" lon="-9.476609959420452"><ele>29.0</ele><time>2026-04-27T17:09:12Z</time></trkpt><trkpt lat="30.339668559597122" lon="-9.476836223693471"><ele>29.0</ele><time>2026-04-27T17:09:13Z</time></trkpt><trkpt lat="30.33968378143055" lon="-9.477048605930351"><ele>29.0</ele><time>2026-04-27T17:09:14Z</time></trkpt><trkpt lat="30.339694207472952" lon="-9.477247033496328"><ele>29.0</ele><time>2026-04-27T17:09:15Z</time></trkpt><trkpt lat="30.339703918203305" lon="-9.477435134485939"><ele>29.0</ele><time>2026-04-27T17:09:16Z</time></trkpt><trkpt lat="30.339711980298013" lon="-9.477594128931361"><ele>29.0</ele><time>2026-04-27T17:09:17Z</time></trkpt><trkpt lat="30.339720429392745" lon="-9.477721399142794"><ele>29.0</ele><time>2026-04-27T17:09:18Z</time></trkpt><trkpt lat="30.339729519198254" lon="-9.477824700680243"><ele>29.0</ele><time>2026-04-27T17:09:19Z</time></trkpt><trkpt lat="30.339740960279563" lon="-9.477900877666976"><ele>29.0</ele><time>2026-04-27T17:09:20Z</time></trkpt><trkpt lat="30.339772694117777" lon="-9.47798209037358"><ele>28.833333333333332</ele><time>2026-04-27T17:09:24Z</time></trkpt><trkpt lat="30.339805006344864" lon="-9.478069633202233"><ele>28.666666666666664</ele><time>2026-04-27T17:09:26Z</time></trkpt><trkpt lat="30.339845933071878" lon="-9.478132459356408"><ele>28.5</ele><time>2026-04-27T17:09:27Z</time></trkpt><trkpt lat="30.33989158003941" lon="-9.478199636764943"><ele>28.333333333333336</ele><time>2026-04-27T17:09:28Z</time></trkpt><trkpt lat="30.339917104641902" lon="-9.47827662009277"><ele>28.166666666666668</ele><time>2026-04-27T17:09:29Z</time></trkpt><trkpt lat="30.339920912867154" lon="-9.478371857388007"><ele>28.0</ele><time>2026-04-27T17:09:30Z</time></trkpt><trkpt lat="30.339902379040463" lon="-9.478459844563107"><ele>28.0</ele><time>2026-04-27T17:09:31Z</time></trkpt><trkpt lat="30.339861336032783" lon="-9.478529065239371"><ele>27.999999999999996</ele><time>2026-04-27T17:09:32Z</time></trkpt><trkpt lat="30.33980022358251" lon="-9.478583576426963"><ele>27.999999999999996</ele><time>2026-04-27T17:09:33Z</time></trkpt><trkpt lat="30.339721860017654" lon="-9.478617524708588"><ele>28.0</ele><time>2026-04-27T17:09:34Z</time></trkpt><trkpt lat="30.339616898538736" lon="-9.47861923456379"><ele>28.0</ele><time>2026-04-27T17:09:35Z</time></trkpt><trkpt lat="30.339498732369012" lon="-9.478582497669475"><ele>28.5</ele><time>2026-04-27T17:09:36Z</time></trkpt><trkpt lat="30.33938416707172" lon="-9.47853486697859"><ele>29.0</ele><time>2026-04-27T17:09:37Z</time></trkpt><trkpt lat="30.339255518868498" lon="-9.47849268270129"><ele>29.5</ele><time>2026-04-27T17:09:38Z</time></trkpt><trkpt lat="30.339110631008843" lon="-9.47848546470841"><ele>30.0</ele><time>2026-04-27T17:09:39Z</time></trkpt><trkpt lat="30.338945915293007" lon="-9.478498369856574"><ele>29.666666666666664</ele><time>2026-04-27T17:09:40Z</time></trkpt><trkpt lat="30.338764292577338" lon="-9.478523768648556"><ele>29.333333333333332</ele><time>2026-04-27T17:09:41Z</time></trkpt><trkpt lat="30.33856785241516" lon="-9.478552938221151"><ele>29.0</ele><time>2026-04-27T17:09:42Z</time></trkpt><trkpt lat="30.338351628203323" lon="-9.478574965406223"><ele>29.0</ele><time>2026-04-27T17:09:43Z</time></trkpt><trkpt lat="30.338128579135514" lon="-9.478587512328755"><ele>29.0</ele><time>2026-04-27T17:09:44Z</time></trkpt><trkpt lat="30.337907641977804" lon="-9.478591785512208"><ele>29.0</ele><time>2026-04-27T17:09:45Z</time></trkpt><trkpt lat="30.337685902145097" lon="-9.478592223290729"><ele>29.0</ele><time>2026-04-27T17:09:46Z</time></trkpt><trkpt lat="30.33747293554904" lon="-9.478592343165337"><ele>29.0</ele><time>2026-04-27T17:09:47Z</time></trkpt><trkpt lat="30.337263821474902" lon="-9.478594040308447"><ele>29.0</ele><time>2026-04-27T17:09:48Z</time></trkpt><trkpt lat="30.337058135617653" lon="-9.478597041104964"><ele>29.666666666666664</ele><time>2026-04-27T17:09:49Z</time></trkpt><trkpt lat="30.336851495606727" lon="-9.478596696758782"><ele>30.333333333333336</ele><time>2026-04-27T17:09:50Z</time></trkpt><trkpt lat="30.336650576557563" lon="-9.478595977207986"><ele>31.0</ele><time>2026-04-27T17:09:51Z</time></trkpt><trkpt lat="30.33644998706935" lon="-9.478599254044497"><ele>31.333333333333336</ele><time>2026-04-27T17:09:52Z</time></trkpt><trkpt lat="30.336256166123093" lon="-9.478605336988052"><ele>31.666666666666664</ele><time>2026-04-27T17:09:53Z</time></trkpt><trkpt lat="30.336089761929603" lon="-9.478609192061828"><ele>32.0</ele><time>2026-04-27T17:09:54Z</time></trkpt><trkpt lat="30.33593935987677" lon="-9.478611769167268"><ele>32.0</ele><time>2026-04-27T17:09:55Z</time></trkpt><trkpt lat="30.335789407579632" lon="-9.478612722425831"><ele>32.0</ele><time>2026-04-27T17:09:56Z</time></trkpt><trkpt lat="30.33562159112331" lon="-9.478613853790705"><ele>32.0</ele><time>2026-04-27T17:09:57Z</time></trkpt><trkpt lat="30.335442844591004" lon="-9.478613462041634"><ele>32.0</ele><time>2026-04-27T17:09:58Z</time></trkpt><trkpt lat="30.335258304660357" lon="-9.478608870121512"><ele>32.0</ele><time>2026-04-27T17:09:59Z</time></trkpt><trkpt lat="30.335069858107733" lon="-9.478608586920029"><ele>32.0</ele><time>2026-04-27T17:10:00Z</time></trkpt><trkpt lat="30.33488159376158" lon="-9.478615784484997"><ele>32.0</ele><time>2026-04-27T17:10:01Z</time></trkpt><trkpt lat="30.33469161360626" lon="-9.47862637391119"><ele>32.0</ele><time>2026-04-27T17:10:02Z</time></trkpt><trkpt lat="30.334495874231404" lon="-9.4786386685989"><ele>32.0</ele><time>2026-04-27T17:10:03Z</time></trkpt><trkpt lat="30.334294375368756" lon="-9.478649649850086"><ele>32.0</ele><time>2026-04-27T17:10:04Z</time></trkpt><trkpt lat="30.33409482640388" lon="-9.478658766378963"><ele>32.0</ele><time>2026-04-27T17:10:05Z</time></trkpt><trkpt lat="30.333897890877257" lon="-9.478661663369122"><ele>32.0</ele><time>2026-04-27T17:10:06Z</time></trkpt><trkpt lat="30.333700317791585" lon="-9.478661451238011"><ele>32.33333333333333</ele><time>2026-04-27T17:10:07Z</time></trkpt><trkpt lat="30.333501677521966" lon="-9.478662574726393"><ele>32.666666666666664</ele><time>2026-04-27T17:10:08Z</time></trkpt><trkpt lat="30.333305652062798" lon="-9.478667983567346"><ele>33.0</ele><time>2026-04-27T17:10:09Z</time></trkpt><trkpt lat="30.33310997484822" lon="-9.47867399538687"><ele>33.333333333333336</ele><time>2026-04-27T17:10:10Z</time></trkpt><trkpt lat="30.33291908833773" lon="-9.478682990840163"><ele>33.66666666666667</ele><time>2026-04-27T17:10:11Z</time></trkpt><trkpt lat="30.332729051865634" lon="-9.478686647527644"><ele>34.0</ele><time>2026-04-27T17:10:12Z</time></trkpt><trkpt lat="30.332541856470513" lon="-9.478690660340224"><ele>34.0</ele><time>2026-04-27T17:10:13Z</time></trkpt><trkpt lat="30.332358531704408" lon="-9.478693316925552"><ele>34.0</ele><time>2026-04-27T17:10:14Z</time></trkpt><trkpt lat="30.33217518686965" lon="-9.478703390668732"><ele>34.0</ele><time>2026-04-27T17:10:15Z</time></trkpt><trkpt lat="30.33199165641292" lon="-9.478721874886544"><ele>33.66666666666667</ele><time>2026-04-27T17:10:16Z</time></trkpt><trkpt lat="30.331808321609028" lon="-9.478743925071182"><ele>33.333333333333336</ele><time>2026-04-27T17:10:17Z</time></trkpt><trkpt lat="30.331621748961986" lon="-9.478767570304228"><ele>33.0</ele><time>2026-04-27T17:10:18Z</time></trkpt><trkpt lat="30.331436082742123" lon="-9.478793884192687"><ele>33.333333333333336</ele><time>2026-04-27T17:10:19Z</time></trkpt><trkpt lat="30.33124949987879" lon="-9.478826575562689"><ele>33.66666666666667</ele><time>2026-04-27T17:10:20Z</time></trkpt><trkpt lat="30.331062095904336" lon="-9.47886628158392"><ele>34.0</ele><time>2026-04-27T17:10:21Z</time></trkpt><trkpt lat="30.33087928413216" lon="-9.478909156879936"><ele>34.0</ele><time>2026-04-27T17:10:22Z</time></trkpt><trkpt lat="30.330698468032878" lon="-9.478951630395132"><ele>34.0</ele><time>2026-04-27T17:10:23Z</time></trkpt><trkpt lat="30.330519132836184" lon="-9.478999050217867"><ele>34.0</ele><time>2026-04-27T17:10:24Z</time></trkpt><trkpt lat="30.33034378895901" lon="-9.479053804186032"><ele>34.0</ele><time>2026-04-27T17:10:25Z</time></trkpt><trkpt lat="30.330166099610487" lon="-9.479112727355906"><ele>34.0</ele><time>2026-04-27T17:10:26Z</time></trkpt><trkpt lat="30.329990705249898" lon="-9.479171377865852"><ele>34.0</ele><time>2026-04-27T17:10:27Z</time></trkpt><trkpt lat="30.329811749658965" lon="-9.479236598738998"><ele>34.66666666666667</ele><time>2026-04-27T17:10:28Z</time></trkpt><trkpt lat="30.329633047111486" lon="-9.47930701357423"><ele>35.333333333333336</ele><time>2026-04-27T17:10:29Z</time></trkpt><trkpt lat="30.329449230229223" lon="-9.47938029019219"><ele>36.0</ele><time>2026-04-27T17:10:30Z</time></trkpt><trkpt lat="30.329262236463112" lon="-9.479463284794495"><ele>36.0</ele><time>2026-04-27T17:10:31Z</time></trkpt><trkpt lat="30.3290784071431" lon="-9.479553163517819"><ele>36.0</ele><time>2026-04-27T17:10:32Z</time></trkpt><trkpt lat="30.32889311412595" lon="-9.47964377563199"><ele>36.0</ele><time>2026-04-27T17:10:33Z</time></trkpt><trkpt lat="30.328710155689613" lon="-9.479738774567712"><ele>35.333333333333336</ele><time>2026-04-27T17:10:34Z</time></trkpt><trkpt lat="30.32853298034917" lon="-9.47983418807736"><ele>34.66666666666667</ele><time>2026-04-27T17:10:35Z</time></trkpt><trkpt lat="30.32835703929098" lon="-9.47993357493918"><ele>34.0</ele><time>2026-04-27T17:10:36Z</time></trkpt><trkpt lat="30.32818143117907" lon="-9.48003901677302"><ele>33.333333333333336</ele><time>2026-04-27T17:10:37Z</time></trkpt><trkpt lat="30.32800920614552" lon="-9.480146010488491"><ele>32.666666666666664</ele><time>2026-04-27T17:10:38Z</time></trkpt><trkpt lat="30.32784109218754" lon="-9.48025259188184"><ele>32.0</ele><time>2026-04-27T17:10:39Z</time></trkpt><trkpt lat="30.327679775331173" lon="-9.480363632118467"><ele>32.33333333333333</ele><time>2026-04-27T17:10:40Z</time></trkpt><trkpt lat="30.32752310125184" lon="-9.480478086560279"><ele>32.666666666666664</ele><time>2026-04-27T17:10:41Z</time></trkpt><trkpt lat="30.327367839348486" lon="-9.48059714160218"><ele>33.0</ele><time>2026-04-27T17:10:42Z</time></trkpt><trkpt lat="30.327211873926128" lon="-9.480721313145143"><ele>34.333333333333336</ele><time>2026-04-27T17:10:43Z</time></trkpt><trkpt lat="30.327054718364586" lon="-9.480851613993464"><ele>35.66666666666667</ele><time>2026-04-27T17:10:44Z</time></trkpt><trkpt lat="30.32689606021486" lon="-9.480986025609198"><ele>37.0</ele><time>2026-04-27T17:10:45Z</time></trkpt><trkpt lat="30.3267395369619" lon="-9.481118396540161"><ele>37.0</ele><time>2026-04-27T17:10:46Z</time></trkpt><trkpt lat="30.3265835726637" lon="-9.481252898230139"><ele>37.0</ele><time>2026-04-27T17:10:47Z</time></trkpt><trkpt lat="30.326425375303177" lon="-9.481390482766729"><ele>37.0</ele><time>2026-04-27T17:10:48Z</time></trkpt><trkpt lat="30.326265528742894" lon="-9.48153820347954"><ele>37.0</ele><time>2026-04-27T17:10:49Z</time></trkpt><trkpt lat="30.32611123014881" lon="-9.481694811545797"><ele>37.0</ele><time>2026-04-27T17:10:50Z</time></trkpt><trkpt lat="30.325964568813152" lon="-9.48186159059425"><ele>37.0</ele><time>2026-04-27T17:10:51Z</time></trkpt><trkpt lat="30.325826693259906" lon="-9.482031619488842"><ele>36.0</ele><time>2026-04-27T17:10:52Z</time></trkpt><trkpt lat="30.325699001899444" lon="-9.482194027199418"><ele>35.0</ele><time>2026-04-27T17:10:53Z</time></trkpt><trkpt lat="30.3255770123254" lon="-9.482345878574558"><ele>34.0</ele><time>2026-04-27T17:10:54Z</time></trkpt><trkpt lat="30.32546130733976" lon="-9.482486521582114"><ele>34.0</ele><time>2026-04-27T17:10:55Z</time></trkpt><trkpt lat="30.325354889056115" lon="-9.482616107471484"><ele>34.0</ele><time>2026-04-27T17:10:56Z</time></trkpt><trkpt lat="30.325257209728584" lon="-9.482740559978293"><ele>34.0</ele><time>2026-04-27T17:10:57Z</time></trkpt><trkpt lat="30.32517030317775" lon="-9.482859332825191"><ele>34.0</ele><time>2026-04-27T17:10:58Z</time></trkpt><trkpt lat="30.325095453439584" lon="-9.482967177022989"><ele>33.6</ele><time>2026-04-27T17:10:59Z</time></trkpt><trkpt lat="30.32503033396898" lon="-9.483066451885245"><ele>33.2</ele><time>2026-04-27T17:11:00Z</time></trkpt><trkpt lat="30.324976889650426" lon="-9.483155009941177"><ele>32.800000000000004</ele><time>2026-04-27T17:11:01Z</time></trkpt><trkpt lat="30.324934356805606" lon="-9.483232880847906"><ele>32.4</ele><time>2026-04-27T17:11:02Z</time></trkpt><trkpt lat="30.32489066679873" lon="-9.483329757331774"><ele>32.0</ele><time>2026-04-27T17:11:04Z</time></trkpt><trkpt lat="30.32486449648099" lon="-9.483413219892586"><ele>32.0</ele><time>2026-04-27T17:11:07Z</time></trkpt><trkpt lat="30.324846926409748" lon="-9.483487196181358"><ele>31.999999999999996</ele><time>2026-04-27T17:11:09Z</time></trkpt><trkpt lat="30.324827778136374" lon="-9.483572859451026"><ele>32.0</ele><time>2026-04-27T17:11:11Z</time></trkpt><trkpt lat="30.32479520530936" lon="-9.48368358589579"><ele>32.0</ele><time>2026-04-27T17:11:13Z</time></trkpt><trkpt lat="30.324753463661192" lon="-9.483740651343686"><ele>31.999999999999996</ele><time>2026-04-27T17:11:14Z</time></trkpt><trkpt lat="30.324701481845246" lon="-9.483789725767057"><ele>32.0</ele><time>2026-04-27T17:11:15Z</time></trkpt><trkpt lat="30.3246430322395" lon="-9.48382763968507"><ele>32.0</ele><time>2026-04-27T17:11:16Z</time></trkpt><trkpt lat="30.324572885472413" lon="-9.483851308028083"><ele>33.0</ele><time>2026-04-27T17:11:17Z</time></trkpt><trkpt lat="30.324485317331558" lon="-9.483881381062476"><ele>34.0</ele><time>2026-04-27T17:11:18Z</time></trkpt><trkpt lat="30.324387169328777" lon="-9.483946576127988"><ele>35.0</ele><time>2026-04-27T17:11:19Z</time></trkpt><trkpt lat="30.324291107717613" lon="-9.484042891750704"><ele>36.0</ele><time>2026-04-27T17:11:20Z</time></trkpt><trkpt lat="30.324206609240406" lon="-9.484144132989849"><ele>36.0</ele><time>2026-04-27T17:11:21Z</time></trkpt><trkpt lat="30.324116129152365" lon="-9.484251390612078"><ele>36.0</ele><time>2026-04-27T17:11:22Z</time></trkpt><trkpt lat="30.324017206761717" lon="-9.484368145862861"><ele>36.0</ele><time>2026-04-27T17:11:23Z</time></trkpt><trkpt lat="30.323910314299848" lon="-9.484497644839204"><ele>36.0</ele><time>2026-04-27T17:11:24Z</time></trkpt><trkpt lat="30.323795521540216" lon="-9.484636183019562"><ele>35.5</ele><time>2026-04-27T17:11:25Z</time></trkpt><trkpt lat="30.32369406381964" lon="-9.484756693486075"><ele>35.0</ele><time>2026-04-27T17:11:26Z</time></trkpt><trkpt lat="30.323606988716936" lon="-9.484861653694608"><ele>34.5</ele><time>2026-04-27T17:11:27Z</time></trkpt><trkpt lat="30.323532578521746" lon="-9.484953786554424"><ele>34.0</ele><time>2026-04-27T17:11:28Z</time></trkpt><trkpt lat="30.323458645766998" lon="-9.485046057878057"><ele>34.0</ele><time>2026-04-27T17:11:29Z</time></trkpt><trkpt lat="30.32337594164648" lon="-9.485143528193975"><ele>34.0</ele><time>2026-04-27T17:11:30Z</time></trkpt><trkpt lat="30.323294272542327" lon="-9.485245182134772"><ele>34.0</ele><time>2026-04-27T17:11:31Z</time></trkpt><trkpt lat="30.323212898945346" lon="-9.485356306734074"><ele>34.0</ele><time>2026-04-27T17:11:32Z</time></trkpt><trkpt lat="30.323125850014574" lon="-9.485471123147367"><ele>33.0</ele><time>2026-04-27T17:11:33Z</time></trkpt><trkpt lat="30.32303694978089" lon="-9.485584352342206"><ele>32.0</ele><time>2026-04-27T17:11:34Z</time></trkpt><trkpt lat="30.322942000164144" lon="-9.485701588678003"><ele>31.0</ele><time>2026-04-27T17:11:35Z</time></trkpt><trkpt lat="30.32284753670933" lon="-9.485818450226947"><ele>30.0</ele><time>2026-04-27T17:11:36Z</time></trkpt><trkpt lat="30.322751609290965" lon="-9.485940531662157"><ele>30.0</ele><time>2026-04-27T17:11:37Z</time></trkpt><trkpt lat="30.322651338153236" lon="-9.486069750626221"><ele>30.0</ele><time>2026-04-27T17:11:38Z</time></trkpt><trkpt lat="30.322544121286462" lon="-9.486205446944426"><ele>30.0</ele><time>2026-04-27T17:11:39Z</time></trkpt><trkpt lat="30.32243945707525" lon="-9.48633855979774"><ele>30.333333333333336</ele><time>2026-04-27T17:11:40Z</time></trkpt><trkpt lat="30.322328421436648" lon="-9.486486589574781"><ele>30.666666666666668</ele><time>2026-04-27T17:11:41Z</time></trkpt><trkpt lat="30.322210958712304" lon="-9.486642710646844"><ele>31.0</ele><time>2026-04-27T17:11:42Z</time></trkpt><trkpt lat="30.322089921058083" lon="-9.486800923119706"><ele>31.0</ele><time>2026-04-27T17:11:43Z</time></trkpt><trkpt lat="30.32195867041462" lon="-9.486971395813152"><ele>31.0</ele><time>2026-04-27T17:11:44Z</time></trkpt><trkpt lat="30.32181689785536" lon="-9.487155394550557"><ele>31.0</ele><time>2026-04-27T17:11:45Z</time></trkpt><trkpt lat="30.32167632746738" lon="-9.487334644344815"><ele>31.0</ele><time>2026-04-27T17:11:46Z</time></trkpt><trkpt lat="30.321532933105424" lon="-9.487513602602943"><ele>31.0</ele><time>2026-04-27T17:11:47Z</time></trkpt><trkpt lat="30.321385012211437" lon="-9.487697506260359"><ele>31.0</ele><time>2026-04-27T17:11:48Z</time></trkpt><trkpt lat="30.321236853233376" lon="-9.487884675993648"><ele>30.666666666666668</ele><time>2026-04-27T17:11:49Z</time></trkpt><trkpt lat="30.321089431042438" lon="-9.488075825250395"><ele>30.333333333333336</ele><time>2026-04-27T17:11:50Z</time></trkpt><trkpt lat="30.320936294570572" lon="-9.488270056583271"><ele>30.0</ele><time>2026-04-27T17:11:51Z</time></trkpt><trkpt lat="30.320783525975454" lon="-9.488464285014373"><ele>30.0</ele><time>2026-04-27T17:11:52Z</time></trkpt><trkpt lat="30.320630925420208" lon="-9.48865742213447"><ele>30.0</ele><time>2026-04-27T17:11:53Z</time></trkpt><trkpt lat="30.32047609716561" lon="-9.488856746891082"><ele>30.0</ele><time>2026-04-27T17:11:54Z</time></trkpt><trkpt lat="30.320320614453195" lon="-9.489052361978713"><ele>30.0</ele><time>2026-04-27T17:11:55Z</time></trkpt><trkpt lat="30.320160966964874" lon="-9.489249493132572"><ele>30.0</ele><time>2026-04-27T17:11:56Z</time></trkpt><trkpt lat="30.3199969823529" lon="-9.489437287089928"><ele>30.0</ele><time>2026-04-27T17:11:57Z</time></trkpt><trkpt lat="30.319829611751725" lon="-9.4896336026424"><ele>29.5</ele><time>2026-04-27T17:11:58Z</time></trkpt><trkpt lat="30.31966276429408" lon="-9.489841275613044"><ele>29.0</ele><time>2026-04-27T17:11:59Z</time></trkpt><trkpt lat="30.31949949542807" lon="-9.490054612926306"><ele>29.0</ele><time>2026-04-27T17:12:00Z</time></trkpt><trkpt lat="30.31934023823584" lon="-9.490272604150176"><ele>29.0</ele><time>2026-04-27T17:12:01Z</time></trkpt><trkpt lat="30.319183247072186" lon="-9.490495394971692"><ele>28.5</ele><time>2026-04-27T17:12:02Z</time></trkpt><trkpt lat="30.31902694518995" lon="-9.490710598891543"><ele>28.0</ele><time>2026-04-27T17:12:03Z</time></trkpt><trkpt lat="30.318866486705346" lon="-9.49091255549946"><ele>29.5</ele><time>2026-04-27T17:12:04Z</time></trkpt><trkpt lat="30.31870599669569" lon="-9.491112650488217"><ele>31.0</ele><time>2026-04-27T17:12:05Z</time></trkpt><trkpt lat="30.318548220842825" lon="-9.491312241268021"><ele>31.0</ele><time>2026-04-27T17:12:06Z</time></trkpt><trkpt lat="30.318394754429907" lon="-9.491508217349072"><ele>31.0</ele><time>2026-04-27T17:12:07Z</time></trkpt><trkpt lat="30.31824231792452" lon="-9.491703463778334"><ele>31.0</ele><time>2026-04-27T17:12:08Z</time></trkpt><trkpt lat="30.31809009023539" lon="-9.491895924265489"><ele>31.0</ele><time>2026-04-27T17:12:09Z</time></trkpt><trkpt lat="30.317941656386232" lon="-9.492085332422455"><ele>31.0</ele><time>2026-04-27T17:12:10Z</time></trkpt><trkpt lat="30.317794972788363" lon="-9.492273612642059"><ele>30.0</ele><time>2026-04-27T17:12:11Z</time></trkpt><trkpt lat="30.31764699648401" lon="-9.49246260005831"><ele>29.0</ele><time>2026-04-27T17:12:12Z</time></trkpt><trkpt lat="30.31750023811776" lon="-9.492652487900171"><ele>28.0</ele><time>2026-04-27T17:12:13Z</time></trkpt><trkpt lat="30.317353170023747" lon="-9.492842372930108"><ele>28.666666666666668</ele><time>2026-04-27T17:12:14Z</time></trkpt><trkpt lat="30.31720621644747" lon="-9.493028931676177"><ele>29.333333333333336</ele><time>2026-04-27T17:12:15Z</time></trkpt><trkpt lat="30.317060230384502" lon="-9.493212771009146"><ele>30.0</ele><time>2026-04-27T17:12:16Z</time></trkpt><trkpt lat="30.31691551865494" lon="-9.493396054510606"><ele>30.0</ele><time>2026-04-27T17:12:17Z</time></trkpt><trkpt lat="30.316772863021402" lon="-9.493579478697757"><ele>30.0</ele><time>2026-04-27T17:12:18Z</time></trkpt><trkpt lat="30.316630029992133" lon="-9.493762544956281"><ele>30.0</ele><time>2026-04-27T17:12:19Z</time></trkpt><trkpt lat="30.31648672763916" lon="-9.493945647961183"><ele>30.0</ele><time>2026-04-27T17:12:20Z</time></trkpt><trkpt lat="30.316342620651632" lon="-9.494129358964496"><ele>30.0</ele><time>2026-04-27T17:12:21Z</time></trkpt><trkpt lat="30.31619932080937" lon="-9.494311200196147"><ele>30.0</ele><time>2026-04-27T17:12:22Z</time></trkpt><trkpt lat="30.316056639617173" lon="-9.494494173134232"><ele>30.0</ele><time>2026-04-27T17:12:23Z</time></trkpt><trkpt lat="30.31591369857032" lon="-9.494679490524948"><ele>30.0</ele><time>2026-04-27T17:12:24Z</time></trkpt><trkpt lat="30.31576787000361" lon="-9.494861329835484"><ele>30.0</ele><time>2026-04-27T17:12:25Z</time></trkpt><trkpt lat="30.31562036134334" lon="-9.49504383830734"><ele>30.0</ele><time>2026-04-27T17:12:26Z</time></trkpt><trkpt lat="30.31547009708749" lon="-9.49522555594991"><ele>30.0</ele><time>2026-04-27T17:12:27Z</time></trkpt><trkpt lat="30.315317131775366" lon="-9.495415353597677"><ele>30.0</ele><time>2026-04-27T17:12:28Z</time></trkpt><trkpt lat="30.31515742736044" lon="-9.495609439611105"><ele>30.0</ele><time>2026-04-27T17:12:29Z</time></trkpt><trkpt lat="30.31499597849756" lon="-9.495805542885291"><ele>30.0</ele><time>2026-04-27T17:12:30Z</time></trkpt><trkpt lat="30.314833076251336" lon="-9.496006072645221"><ele>30.0</ele><time>2026-04-27T17:12:31Z</time></trkpt><trkpt lat="30.31467407940842" lon="-9.4962057239134"><ele>30.0</ele><time>2026-04-27T17:12:32Z</time></trkpt><trkpt lat="30.31452370388625" lon="-9.496402090768644"><ele>30.0</ele><time>2026-04-27T17:12:33Z</time></trkpt><trkpt lat="30.314372661462244" lon="-9.496600880195675"><ele>30.0</ele><time>2026-04-27T17:12:34Z</time></trkpt><trkpt lat="30.314219691606457" lon="-9.496798799312032"><ele>30.0</ele><time>2026-04-27T17:12:35Z</time></trkpt><trkpt lat="30.314066277936398" lon="-9.496998089807727"><ele>30.0</ele><time>2026-04-27T17:12:36Z</time></trkpt><trkpt lat="30.313911792600134" lon="-9.49719325896064"><ele>30.0</ele><time>2026-04-27T17:12:37Z</time></trkpt><trkpt lat="30.31375457639286" lon="-9.497390198757115"><ele>30.0</ele><time>2026-04-27T17:12:38Z</time></trkpt><trkpt lat="30.3135976632267" lon="-9.4975874493115"><ele>30.0</ele><time>2026-04-27T17:12:39Z</time></trkpt><trkpt lat="30.313439986139166" lon="-9.497784269166017"><ele>30.0</ele><time>2026-04-27T17:12:40Z</time></trkpt><trkpt lat="30.313286121607824" lon="-9.497981270898418"><ele>30.0</ele><time>2026-04-27T17:12:41Z</time></trkpt><trkpt lat="30.313137171502063" lon="-9.498180500185748"><ele>30.0</ele><time>2026-04-27T17:12:42Z</time></trkpt><trkpt lat="30.31299449969837" lon="-9.498374829488466"><ele>30.0</ele><time>2026-04-27T17:12:43Z</time></trkpt><trkpt lat="30.312855871251344" lon="-9.498568454799948"><ele>30.333333333333336</ele><time>2026-04-27T17:12:44Z</time></trkpt><trkpt lat="30.312718916119294" lon="-9.498758317947415"><ele>30.666666666666668</ele><time>2026-04-27T17:12:45Z</time></trkpt><trkpt lat="30.31258621493423" lon="-9.498934137371124"><ele>31.0</ele><time>2026-04-27T17:12:46Z</time></trkpt><trkpt lat="30.31245248993549" lon="-9.499106040124992"><ele>31.0</ele><time>2026-04-27T17:12:47Z</time></trkpt><trkpt lat="30.31231871454272" lon="-9.499265541141398"><ele>31.0</ele><time>2026-04-27T17:12:48Z</time></trkpt><trkpt lat="30.31218997858645" lon="-9.499417319757974"><ele>31.0</ele><time>2026-04-27T17:12:49Z</time></trkpt><trkpt lat="30.312058381277453" lon="-9.499569072607292"><ele>30.666666666666668</ele><time>2026-04-27T17:12:50Z</time></trkpt><trkpt lat="30.311926418000173" lon="-9.499730060126806"><ele>30.333333333333336</ele><time>2026-04-27T17:12:51Z</time></trkpt><trkpt lat="30.31179060733695" lon="-9.499894789956778"><ele>30.0</ele><time>2026-04-27T17:12:52Z</time></trkpt><trkpt lat="30.311658875737233" lon="-9.500058797915356"><ele>30.0</ele><time>2026-04-27T17:12:53Z</time></trkpt><trkpt lat="30.31153124455285" lon="-9.500222136393399"><ele>30.0</ele><time>2026-04-27T17:12:54Z</time></trkpt><trkpt lat="30.311403585048758" lon="-9.500386094952386"><ele>30.0</ele><time>2026-04-27T17:12:55Z</time></trkpt><trkpt lat="30.31127618849851" lon="-9.500547236051824"><ele>29.333333333333336</ele><time>2026-04-27T17:12:56Z</time></trkpt><trkpt lat="30.31115911032773" lon="-9.500700576152438"><ele>28.666666666666668</ele><time>2026-04-27T17:12:57Z</time></trkpt><trkpt lat="30.31104507504783" lon="-9.50084633618271"><ele>28.0</ele><time>2026-04-27T17:12:58Z</time></trkpt><trkpt lat="30.310939206866937" lon="-9.500977429876198"><ele>28.0</ele><time>2026-04-27T17:12:59Z</time></trkpt><trkpt lat="30.310840006285005" lon="-9.501098476911448"><ele>28.0</ele><time>2026-04-27T17:13:00Z</time></trkpt><trkpt lat="30.310750753797514" lon="-9.501207271439307"><ele>28.0</ele><time>2026-04-27T17:13:01Z</time></trkpt><trkpt lat="30.310666654945045" lon="-9.50130650837764"><ele>28.0</ele><time>2026-04-27T17:13:02Z</time></trkpt><trkpt lat="30.310590918555828" lon="-9.501398404045998"><ele>28.500000000000004</ele><time>2026-04-27T17:13:03Z</time></trkpt><trkpt lat="30.31051960819415" lon="-9.501491874293981"><ele>29.0</ele><time>2026-04-27T17:13:04Z</time></trkpt><trkpt lat="30.310455509039585" lon="-9.501575931331818"><ele>29.5</ele><time>2026-04-27T17:13:05Z</time></trkpt><trkpt lat="30.310404199889405" lon="-9.501655666226444"><ele>30.0</ele><time>2026-04-27T17:13:06Z</time></trkpt><trkpt lat="30.31036035887834" lon="-9.501718964804624"><ele>30.500000000000004</ele><time>2026-04-27T17:13:07Z</time></trkpt><trkpt lat="30.310307234345988" lon="-9.501798602891027"><ele>31.0</ele><time>2026-04-27T17:13:09Z</time></trkpt><trkpt lat="30.310261477712743" lon="-9.501864179756526"><ele>31.000000000000004</ele><time>2026-04-27T17:13:13Z</time></trkpt><trkpt lat="30.310190230766892" lon="-9.501955502548537"><ele>31.0</ele><time>2026-04-27T17:13:17Z</time></trkpt><trkpt lat="30.310160896918394" lon="-9.502044516410031"><ele>31.0</ele><time>2026-04-27T17:13:19Z</time></trkpt><trkpt lat="30.310126528269915" lon="-9.502171194578382"><ele>31.0</ele><time>2026-04-27T17:13:21Z</time></trkpt><trkpt lat="30.310118115017655" lon="-9.502244054615954"><ele>31.000000000000004</ele><time>2026-04-27T17:13:24Z</time></trkpt><trkpt lat="30.310107781266865" lon="-9.50231735606962"><ele>31.0</ele><time>2026-04-27T17:13:33Z</time></trkpt><trkpt lat="30.310124111240892" lon="-9.502461264302662"><ele>30.571428571428573</ele><time>2026-04-27T17:13:40Z</time></trkpt><trkpt lat="30.31014477800185" lon="-9.502544080748418"><ele>30.142857142857146</ele><time>2026-04-27T17:13:41Z</time></trkpt><trkpt lat="30.31013697457717" lon="-9.50263412717583"><ele>29.714285714285715</ele><time>2026-04-27T17:13:42Z</time></trkpt><trkpt lat="30.310107508841746" lon="-9.502712756596427"><ele>29.285714285714285</ele><time>2026-04-27T17:13:43Z</time></trkpt><trkpt lat="30.310058789671277" lon="-9.502778629712294"><ele>28.857142857142858</ele><time>2026-04-27T17:13:44Z</time></trkpt><trkpt lat="30.309994050898556" lon="-9.502822228151892"><ele>28.42857142857143</ele><time>2026-04-27T17:13:45Z</time></trkpt><trkpt lat="30.309931544092475" lon="-9.50283790233167"><ele>28.0</ele><time>2026-04-27T17:13:46Z</time></trkpt><trkpt lat="30.309861065518945" lon="-9.502838409491751"><ele>28.000000000000004</ele><time>2026-04-27T17:13:47Z</time></trkpt><trkpt lat="30.3097899552634" lon="-9.50281589320413"><ele>28.0</ele><time>2026-04-27T17:13:48Z</time></trkpt><trkpt lat="30.309721730415866" lon="-9.50278239167918"><ele>28.0</ele><time>2026-04-27T17:13:49Z</time></trkpt><trkpt lat="30.309619416374854" lon="-9.502759298042818"><ele>28.0</ele><time>2026-04-27T17:13:51Z</time></trkpt><trkpt lat="30.309550719493437" lon="-9.502765654013704"><ele>28.000000000000004</ele><time>2026-04-27T17:13:52Z</time></trkpt><trkpt lat="30.30947511792177" lon="-9.502757718673097"><ele>28.0</ele><time>2026-04-27T17:13:53Z</time></trkpt><trkpt lat="30.309397525850827" lon="-9.502604717013886"><ele>28.0</ele><time>2026-04-27T17:13:54Z</time></trkpt><trkpt lat="30.309279929946097" lon="-9.502593717221433"><ele>27.999999999999996</ele><time>2026-04-27T17:13:55Z</time></trkpt><trkpt lat="30.30917337929692" lon="-9.50258769511449"><ele>27.999999999999996</ele><time>2026-04-27T17:13:56Z</time></trkpt><trkpt lat="30.309073694333588" lon="-9.502581562410734"><ele>28.0</ele><time>2026-04-27T17:13:57Z</time></trkpt><trkpt lat="30.308979453762934" lon="-9.50257576465412"><ele>28.0</ele><time>2026-04-27T17:13:58Z</time></trkpt><trkpt lat="30.308876261229948" lon="-9.502581241605663"><ele>28.000000000000004</ele><time>2026-04-27T17:13:59Z</time></trkpt><trkpt lat="30.308774601144698" lon="-9.502570257570504"><ele>28.0</ele><time>2026-04-27T17:14:00Z</time></trkpt><trkpt lat="30.30867722373016" lon="-9.502562938559793"><ele>28.0</ele><time>2026-04-27T17:14:01Z</time></trkpt><trkpt lat="30.30859124262247" lon="-9.502554086382748"><ele>28.0</ele><time>2026-04-27T17:14:02Z</time></trkpt><trkpt lat="30.308519454183426" lon="-9.502548767160688"><ele>28.000000000000004</ele><time>2026-04-27T17:14:03Z</time></trkpt><trkpt lat="30.308440204783167" lon="-9.50254654852423"><ele>28.0</ele><time>2026-04-27T17:14:04Z</time></trkpt><trkpt lat="30.308360979527507" lon="-9.50254319574457"><ele>28.0</ele><time>2026-04-27T17:14:05Z</time></trkpt><trkpt lat="30.308277147126127" lon="-9.502540397192616"><ele>27.999999999999996</ele><time>2026-04-27T17:14:06Z</time></trkpt><trkpt lat="30.308186104157734" lon="-9.502531014989641"><ele>27.999999999999996</ele><time>2026-04-27T17:14:07Z</time></trkpt><trkpt lat="30.308090774951165" lon="-9.50251944925762"><ele>28.0</ele><time>2026-04-27T17:14:08Z</time></trkpt><trkpt lat="30.307979787771007" lon="-9.502510580561223"><ele>28.0</ele><time>2026-04-27T17:14:09Z</time></trkpt><trkpt lat="30.307860866174593" lon="-9.502503406367062"><ele>28.5</ele><time>2026-04-27T17:14:10Z</time></trkpt><trkpt lat="30.307724018071063" lon="-9.502492845429394"><ele>29.0</ele><time>2026-04-27T17:14:11Z</time></trkpt><trkpt lat="30.307576259944366" lon="-9.502485553238772"><ele>29.5</ele><time>2026-04-27T17:14:12Z</time></trkpt><trkpt lat="30.30742070240213" lon="-9.50248012087123"><ele>30.0</ele><time>2026-04-27T17:14:13Z</time></trkpt><trkpt lat="30.307257926773932" lon="-9.502471586813682"><ele>30.0</ele><time>2026-04-27T17:14:14Z</time></trkpt><trkpt lat="30.307080693617188" lon="-9.502461552487183"><ele>30.0</ele><time>2026-04-27T17:14:15Z</time></trkpt><trkpt lat="30.30690382714041" lon="-9.50245015050949"><ele>30.0</ele><time>2026-04-27T17:14:16Z</time></trkpt><trkpt lat="30.306728467262086" lon="-9.502439651868091"><ele>30.0</ele><time>2026-04-27T17:14:17Z</time></trkpt><trkpt lat="30.30654990716099" lon="-9.502433472559558"><ele>30.0</ele><time>2026-04-27T17:14:18Z</time></trkpt><trkpt lat="30.306368717227663" lon="-9.502424912476656"><ele>30.0</ele><time>2026-04-27T17:14:19Z</time></trkpt><trkpt lat="30.306179507511857" lon="-9.502412760438384"><ele>30.333333333333336</ele><time>2026-04-27T17:14:20Z</time></trkpt><trkpt lat="30.30597565201308" lon="-9.50239954349986"><ele>30.666666666666668</ele><time>2026-04-27T17:14:21Z</time></trkpt><trkpt lat="30.305752077108078" lon="-9.502383885963987"><ele>31.0</ele><time>2026-04-27T17:14:22Z</time></trkpt><trkpt lat="30.30551390413496" lon="-9.50236526860813"><ele>31.0</ele><time>2026-04-27T17:14:23Z</time></trkpt><trkpt lat="30.305262278155446" lon="-9.502343536717826"><ele>31.0</ele><time>2026-04-27T17:14:24Z</time></trkpt><trkpt lat="30.304995102583884" lon="-9.502323258875146"><ele>33.0</ele><time>2026-04-27T17:14:25Z</time></trkpt><trkpt lat="30.304719464201376" lon="-9.502301839858992"><ele>35.0</ele><time>2026-04-27T17:14:26Z</time></trkpt><trkpt lat="30.304432697496345" lon="-9.502279671085164"><ele>35.0</ele><time>2026-04-27T17:14:27Z</time></trkpt><trkpt lat="30.304151026657557" lon="-9.50226013688546"><ele>35.0</ele><time>2026-04-27T17:14:28Z</time></trkpt><trkpt lat="30.303884111203462" lon="-9.502241060329013"><ele>36.0</ele><time>2026-04-27T17:14:29Z</time></trkpt><trkpt lat="30.30363227992239" lon="-9.502225723356139"><ele>37.0</ele><time>2026-04-27T17:14:30Z</time></trkpt><trkpt lat="30.30339564756889" lon="-9.50221276489767"><ele>37.0</ele><time>2026-04-27T17:14:31Z</time></trkpt><trkpt lat="30.303157606285673" lon="-9.502199907784192"><ele>37.0</ele><time>2026-04-27T17:14:32Z</time></trkpt><trkpt lat="30.3029219788036" lon="-9.502191978831267"><ele>36.5</ele><time>2026-04-27T17:14:33Z</time></trkpt><trkpt lat="30.302693265210447" lon="-9.502192782788537"><ele>36.0</ele><time>2026-04-27T17:14:34Z</time></trkpt><trkpt lat="30.302471923059237" lon="-9.502196983620378"><ele>36.0</ele><time>2026-04-27T17:14:35Z</time></trkpt><trkpt lat="30.30226173595859" lon="-9.502201147982282"><ele>36.0</ele><time>2026-04-27T17:14:36Z</time></trkpt><trkpt lat="30.30206462224247" lon="-9.502205682644568"><ele>36.0</ele><time>2026-04-27T17:14:37Z</time></trkpt><trkpt lat="30.301865723805882" lon="-9.502221239263468"><ele>35.666666666666664</ele><time>2026-04-27T17:14:38Z</time></trkpt><trkpt lat="30.30166558036415" lon="-9.502246316938784"><ele>35.33333333333333</ele><time>2026-04-27T17:14:39Z</time></trkpt><trkpt lat="30.301459275245765" lon="-9.502275324198921"><ele>35.0</ele><time>2026-04-27T17:14:40Z</time></trkpt><trkpt lat="30.301247584292256" lon="-9.502311881976556"><ele>35.0</ele><time>2026-04-27T17:14:41Z</time></trkpt><trkpt lat="30.301034642851285" lon="-9.502359433982107"><ele>35.0</ele><time>2026-04-27T17:14:42Z</time></trkpt><trkpt lat="30.30082323898263" lon="-9.502412695374229"><ele>35.0</ele><time>2026-04-27T17:14:43Z</time></trkpt><trkpt lat="30.3006136152577" lon="-9.502478820474535"><ele>35.666666666666664</ele><time>2026-04-27T17:14:44Z</time></trkpt><trkpt lat="30.300405918869387" lon="-9.50255140110836"><ele>36.333333333333336</ele><time>2026-04-27T17:14:45Z</time></trkpt><trkpt lat="30.300201378716785" lon="-9.502628368057461"><ele>37.0</ele><time>2026-04-27T17:14:46Z</time></trkpt><trkpt lat="30.299997212412528" lon="-9.502713124133514"><ele>37.0</ele><time>2026-04-27T17:14:47Z</time></trkpt><trkpt lat="30.299794291037372" lon="-9.502807071504215"><ele>37.0</ele><time>2026-04-27T17:14:48Z</time></trkpt><trkpt lat="30.299592575861944" lon="-9.50290791689697"><ele>37.0</ele><time>2026-04-27T17:14:49Z</time></trkpt><trkpt lat="30.299404756562215" lon="-9.503004005766977"><ele>37.0</ele><time>2026-04-27T17:14:50Z</time></trkpt><trkpt lat="30.29922892666816" lon="-9.503099693895763"><ele>37.0</ele><time>2026-04-27T17:14:51Z</time></trkpt><trkpt lat="30.299061859495826" lon="-9.50320644433598"><ele>37.0</ele><time>2026-04-27T17:14:52Z</time></trkpt><trkpt lat="30.298897321257876" lon="-9.503331769773206"><ele>37.0</ele><time>2026-04-27T17:14:53Z</time></trkpt><trkpt lat="30.29871867565629" lon="-9.503441186539959"><ele>37.0</ele><time>2026-04-27T17:14:54Z</time></trkpt><trkpt lat="30.298541796109678" lon="-9.503557727726022"><ele>37.0</ele><time>2026-04-27T17:14:55Z</time></trkpt><trkpt lat="30.298372181416674" lon="-9.503690236390714"><ele>37.0</ele><time>2026-04-27T17:14:56Z</time></trkpt><trkpt lat="30.29819303044406" lon="-9.503808540833925"><ele>37.0</ele><time>2026-04-27T17:14:57Z</time></trkpt><trkpt lat="30.29801090837812" lon="-9.503930248008693"><ele>37.0</ele><time>2026-04-27T17:14:58Z</time></trkpt><trkpt lat="30.29781749333543" lon="-9.50403986731117"><ele>37.0</ele><time>2026-04-27T17:14:59Z</time></trkpt><trkpt lat="30.297642139352302" lon="-9.504181421472278"><ele>37.0</ele><time>2026-04-27T17:15:00Z</time></trkpt><trkpt lat="30.297456338931532" lon="-9.504305163926476"><ele>37.0</ele><time>2026-04-27T17:15:01Z</time></trkpt><trkpt lat="30.297269574026295" lon="-9.504429190774307"><ele>37.0</ele><time>2026-04-27T17:15:02Z</time></trkpt><trkpt lat="30.297085656270742" lon="-9.504553573068147"><ele>37.0</ele><time>2026-04-27T17:15:03Z</time></trkpt><trkpt lat="30.296907928578015" lon="-9.504673827042405"><ele>37.0</ele><time>2026-04-27T17:15:04Z</time></trkpt><trkpt lat="30.296730914418383" lon="-9.504790845120896"><ele>37.0</ele><time>2026-04-27T17:15:05Z</time></trkpt><trkpt lat="30.29655583153527" lon="-9.504904121876939"><ele>37.0</ele><time>2026-04-27T17:15:06Z</time></trkpt><trkpt lat="30.29638280868935" lon="-9.505013346248383"><ele>37.0</ele><time>2026-04-27T17:15:07Z</time></trkpt><trkpt lat="30.296210827766217" lon="-9.505117240807659"><ele>37.333333333333336</ele><time>2026-04-27T17:15:08Z</time></trkpt><trkpt lat="30.296031850493208" lon="-9.505218244968741"><ele>37.666666666666664</ele><time>2026-04-27T17:15:09Z</time></trkpt><trkpt lat="30.29584455690903" lon="-9.505313396895577"><ele>38.0</ele><time>2026-04-27T17:15:10Z</time></trkpt><trkpt lat="30.29565520065657" lon="-9.505401538622174"><ele>38.0</ele><time>2026-04-27T17:15:11Z</time></trkpt><trkpt lat="30.295464996893756" lon="-9.505487074891986"><ele>38.0</ele><time>2026-04-27T17:15:12Z</time></trkpt><trkpt lat="30.29527029687161" lon="-9.505573672139393"><ele>38.0</ele><time>2026-04-27T17:15:13Z</time></trkpt><trkpt lat="30.295067163295748" lon="-9.50566231879212"><ele>38.0</ele><time>2026-04-27T17:15:14Z</time></trkpt><trkpt lat="30.294864523549567" lon="-9.505748779450892"><ele>38.0</ele><time>2026-04-27T17:15:15Z</time></trkpt><trkpt lat="30.294656726915104" lon="-9.505837542623588"><ele>38.0</ele><time>2026-04-27T17:15:16Z</time></trkpt><trkpt lat="30.294442950006296" lon="-9.505929997383337"><ele>37.5</ele><time>2026-04-27T17:15:17Z</time></trkpt><trkpt lat="30.29423152353092" lon="-9.506021487403624"><ele>37.0</ele><time>2026-04-27T17:15:18Z</time></trkpt><trkpt lat="30.294020741185196" lon="-9.506112078422895"><ele>37.5</ele><time>2026-04-27T17:15:19Z</time></trkpt><trkpt lat="30.293801265039367" lon="-9.506205159906076"><ele>38.0</ele><time>2026-04-27T17:15:20Z</time></trkpt><trkpt lat="30.293575507513278" lon="-9.506299848560337"><ele>38.0</ele><time>2026-04-27T17:15:21Z</time></trkpt><trkpt lat="30.293353608597663" lon="-9.506393406014283"><ele>38.0</ele><time>2026-04-27T17:15:22Z</time></trkpt><trkpt lat="30.293135281291782" lon="-9.506487706339195"><ele>38.5</ele><time>2026-04-27T17:15:23Z</time></trkpt><trkpt lat="30.29291600432149" lon="-9.506581266059273"><ele>39.0</ele><time>2026-04-27T17:15:24Z</time></trkpt><trkpt lat="30.29269153829954" lon="-9.506672885289198"><ele>39.0</ele><time>2026-04-27T17:15:25Z</time></trkpt><trkpt lat="30.292466094707375" lon="-9.50676429714195"><ele>39.0</ele><time>2026-04-27T17:15:26Z</time></trkpt><trkpt lat="30.29223614948788" lon="-9.506859057797504"><ele>40.0</ele><time>2026-04-27T17:15:27Z</time></trkpt><trkpt lat="30.292008717621645" lon="-9.506955419631078"><ele>41.0</ele><time>2026-04-27T17:15:28Z</time></trkpt><trkpt lat="30.29178805027849" lon="-9.507059121981502"><ele>41.0</ele><time>2026-04-27T17:15:29Z</time></trkpt><trkpt lat="30.29157103765499" lon="-9.50716753675421"><ele>41.0</ele><time>2026-04-27T17:15:30Z</time></trkpt><trkpt lat="30.291352865713158" lon="-9.507268636808643"><ele>41.5</ele><time>2026-04-27T17:15:31Z</time></trkpt><trkpt lat="30.291134250756556" lon="-9.507362131641887"><ele>42.0</ele><time>2026-04-27T17:15:32Z</time></trkpt><trkpt lat="30.29091954950708" lon="-9.507456521951484"><ele>42.0</ele><time>2026-04-27T17:15:33Z</time></trkpt><trkpt lat="30.290715361605645" lon="-9.507546974428461"><ele>42.0</ele><time>2026-04-27T17:15:34Z</time></trkpt><trkpt lat="30.29052449832734" lon="-9.507631614747694"><ele>42.0</ele><time>2026-04-27T17:15:35Z</time></trkpt><trkpt lat="30.290332335406617" lon="-9.507713882200775"><ele>41.666666666666664</ele><time>2026-04-27T17:15:36Z</time></trkpt><trkpt lat="30.290137480914854" lon="-9.507797224422108"><ele>41.33333333333333</ele><time>2026-04-27T17:15:37Z</time></trkpt><trkpt lat="30.28994439363525" lon="-9.507879362719903"><ele>41.0</ele><time>2026-04-27T17:15:38Z</time></trkpt><trkpt lat="30.289750827229973" lon="-9.50796557304408"><ele>41.0</ele><time>2026-04-27T17:15:39Z</time></trkpt><trkpt lat="30.28955810067775" lon="-9.508048628046373"><ele>41.0</ele><time>2026-04-27T17:15:40Z</time></trkpt><trkpt lat="30.2893667673447" lon="-9.508131001554903"><ele>41.0</ele><time>2026-04-27T17:15:41Z</time></trkpt><trkpt lat="30.28918429546739" lon="-9.508213229317242"><ele>41.0</ele><time>2026-04-27T17:15:42Z</time></trkpt><trkpt lat="30.289010772630867" lon="-9.508291145438983"><ele>41.0</ele><time>2026-04-27T17:15:43Z</time></trkpt><trkpt lat="30.288847731101573" lon="-9.508364272099481"><ele>41.0</ele><time>2026-04-27T17:15:44Z</time></trkpt><trkpt lat="30.288691830625844" lon="-9.508432533893252"><ele>41.0</ele><time>2026-04-27T17:15:45Z</time></trkpt><trkpt lat="30.288546086263125" lon="-9.50849772167944"><ele>41.0</ele><time>2026-04-27T17:15:46Z</time></trkpt><trkpt lat="30.288408494341766" lon="-9.508557060859856"><ele>41.0</ele><time>2026-04-27T17:15:47Z</time></trkpt><trkpt lat="30.288267742072733" lon="-9.508619552273668"><ele>41.0</ele><time>2026-04-27T17:15:48Z</time></trkpt><trkpt lat="30.288128515257448" lon="-9.508678338455109"><ele>41.0</ele><time>2026-04-27T17:15:49Z</time></trkpt><trkpt lat="30.287993071276112" lon="-9.50873556068104"><ele>41.0</ele><time>2026-04-27T17:15:50Z</time></trkpt><trkpt lat="30.287864027931516" lon="-9.508786236200024"><ele>41.0</ele><time>2026-04-27T17:15:51Z</time></trkpt><trkpt lat="30.28773646551767" lon="-9.508835995938538"><ele>41.0</ele><time>2026-04-27T17:15:52Z</time></trkpt><trkpt lat="30.28760218396688" lon="-9.508891207444554"><ele>41.0</ele><time>2026-04-27T17:15:53Z</time></trkpt><trkpt lat="30.28746786364623" lon="-9.508945250603603"><ele>41.0</ele><time>2026-04-27T17:15:54Z</time></trkpt><trkpt lat="30.28733282727079" lon="-9.508998620640961"><ele>41.0</ele><time>2026-04-27T17:15:55Z</time></trkpt><trkpt lat="30.28719686970972" lon="-9.50905285502679"><ele>41.75</ele><time>2026-04-27T17:15:56Z</time></trkpt><trkpt lat="30.287061565068456" lon="-9.509108776077472"><ele>42.5</ele><time>2026-04-27T17:15:57Z</time></trkpt><trkpt lat="30.28692391867239" lon="-9.50916793097585"><ele>43.25</ele><time>2026-04-27T17:15:58Z</time></trkpt><trkpt lat="30.286786298704282" lon="-9.509226666411685"><ele>44.0</ele><time>2026-04-27T17:15:59Z</time></trkpt><trkpt lat="30.28665991383115" lon="-9.50927927793997"><ele>44.0</ele><time>2026-04-27T17:16:00Z</time></trkpt><trkpt lat="30.286547102641986" lon="-9.5093280231303"><ele>44.0</ele><time>2026-04-27T17:16:01Z</time></trkpt><trkpt lat="30.286439721340614" lon="-9.509375355346481"><ele>44.0</ele><time>2026-04-27T17:16:02Z</time></trkpt><trkpt lat="30.28633825675133" lon="-9.509419204709227"><ele>44.0</ele><time>2026-04-27T17:16:03Z</time></trkpt><trkpt lat="30.286243808921142" lon="-9.509460799890354"><ele>44.0</ele><time>2026-04-27T17:16:04Z</time></trkpt><trkpt lat="30.286145030497046" lon="-9.509503267631962"><ele>44.2</ele><time>2026-04-27T17:16:05Z</time></trkpt><trkpt lat="30.28604698520321" lon="-9.509545596648316"><ele>44.400000000000006</ele><time>2026-04-27T17:16:06Z</time></trkpt><trkpt lat="30.285951860918573" lon="-9.509587264182848"><ele>44.6</ele><time>2026-04-27T17:16:07Z</time></trkpt><trkpt lat="30.285863686960038" lon="-9.509629455282635"><ele>44.8</ele><time>2026-04-27T17:16:08Z</time></trkpt><trkpt lat="30.2857813490234" lon="-9.50966739170756"><ele>45.0</ele><time>2026-04-27T17:16:09Z</time></trkpt><trkpt lat="30.28570809395149" lon="-9.509703982854429"><ele>45.0</ele><time>2026-04-27T17:16:10Z</time></trkpt><trkpt lat="30.28564173922419" lon="-9.509744602541565"><ele>45.0</ele><time>2026-04-27T17:16:11Z</time></trkpt><trkpt lat="30.28558589687159" lon="-9.509784431532868"><ele>45.0</ele><time>2026-04-27T17:16:12Z</time></trkpt><trkpt lat="30.28551361162186" lon="-9.50985264876225"><ele>45.0</ele><time>2026-04-27T17:16:14Z</time></trkpt><trkpt lat="30.285457085916796" lon="-9.50981318507227"><ele>45.0</ele><time>2026-04-27T17:16:15Z</time></trkpt><trkpt lat="30.2853655470799" lon="-9.509852990807929"><ele>45.0</ele><time>2026-04-27T17:16:17Z</time></trkpt><trkpt lat="30.285239763733177" lon="-9.509908092489129"><ele>45.0</ele><time>2026-04-27T17:16:19Z</time></trkpt><trkpt lat="30.285165659577842" lon="-9.509940239492984"><ele>45.0</ele><time>2026-04-27T17:16:20Z</time></trkpt><trkpt lat="30.285077382797223" lon="-9.509978246837164"><ele>45.0</ele><time>2026-04-27T17:16:21Z</time></trkpt><trkpt lat="30.284979320595646" lon="-9.510021180146003"><ele>45.0</ele><time>2026-04-27T17:16:22Z</time></trkpt><trkpt lat="30.284868349345683" lon="-9.51006865435569"><ele>45.0</ele><time>2026-04-27T17:16:23Z</time></trkpt><trkpt lat="30.284734054670434" lon="-9.51012692818406"><ele>45.0</ele><time>2026-04-27T17:16:24Z</time></trkpt><trkpt lat="30.284588936428204" lon="-9.51018957360037"><ele>45.0</ele><time>2026-04-27T17:16:25Z</time></trkpt><trkpt lat="30.284444425275" lon="-9.51026836490907"><ele>45.0</ele><time>2026-04-27T17:16:26Z</time></trkpt><trkpt lat="30.284313822410162" lon="-9.510320039565043"><ele>45.0</ele><time>2026-04-27T17:16:27Z</time></trkpt><trkpt lat="30.284193014044142" lon="-9.510371324611562"><ele>45.0</ele><time>2026-04-27T17:16:28Z</time></trkpt><trkpt lat="30.28407074991092" lon="-9.510420291767005"><ele>45.0</ele><time>2026-04-27T17:16:29Z</time></trkpt><trkpt lat="30.283952464249996" lon="-9.510471096743725"><ele>45.0</ele><time>2026-04-27T17:16:30Z</time></trkpt><trkpt lat="30.283819144151426" lon="-9.510528671575893"><ele>44.666666666666664</ele><time>2026-04-27T17:16:31Z</time></trkpt><trkpt lat="30.283672698258787" lon="-9.510590930747204"><ele>44.33333333333333</ele><time>2026-04-27T17:16:32Z</time></trkpt><trkpt lat="30.283499208852472" lon="-9.510660077587028"><ele>44.0</ele><time>2026-04-27T17:16:33Z</time></trkpt><trkpt lat="30.283316775238436" lon="-9.510732793404811"><ele>44.0</ele><time>2026-04-27T17:16:34Z</time></trkpt><trkpt lat="30.28312293028844" lon="-9.51081763513031"><ele>44.0</ele><time>2026-04-27T17:16:35Z</time></trkpt><trkpt lat="30.282915706418756" lon="-9.510907855484794"><ele>44.0</ele><time>2026-04-27T17:16:36Z</time></trkpt><trkpt lat="30.282700621196184" lon="-9.51100221037043"><ele>43.5</ele><time>2026-04-27T17:16:37Z</time></trkpt><trkpt lat="30.28247449655537" lon="-9.511099801021679"><ele>43.0</ele><time>2026-04-27T17:16:38Z</time></trkpt><trkpt lat="30.28224294165361" lon="-9.511200922154885"><ele>44.5</ele><time>2026-04-27T17:16:39Z</time></trkpt><trkpt lat="30.28201064976859" lon="-9.511305010762205"><ele>46.0</ele><time>2026-04-27T17:16:40Z</time></trkpt><trkpt lat="30.281776225414358" lon="-9.511410701210176"><ele>46.0</ele><time>2026-04-27T17:16:41Z</time></trkpt><trkpt lat="30.28154291855079" lon="-9.511513032893594"><ele>46.0</ele><time>2026-04-27T17:16:42Z</time></trkpt><trkpt lat="30.28130981233996" lon="-9.511614212686935"><ele>46.5</ele><time>2026-04-27T17:16:43Z</time></trkpt><trkpt lat="30.28107821425421" lon="-9.511711763310235"><ele>47.0</ele><time>2026-04-27T17:16:44Z</time></trkpt><trkpt lat="30.280848355655625" lon="-9.511807473130126"><ele>47.0</ele><time>2026-04-27T17:16:45Z</time></trkpt><trkpt lat="30.280620838820372" lon="-9.511901998681815"><ele>47.0</ele><time>2026-04-27T17:16:46Z</time></trkpt><trkpt lat="30.28039677378641" lon="-9.511996625112712"><ele>46.5</ele><time>2026-04-27T17:16:47Z</time></trkpt><trkpt lat="30.280171458839515" lon="-9.512095963192401"><ele>46.0</ele><time>2026-04-27T17:16:48Z</time></trkpt><trkpt lat="30.279949423380955" lon="-9.512196540335262"><ele>47.0</ele><time>2026-04-27T17:16:49Z</time></trkpt><trkpt lat="30.279735953671473" lon="-9.512290721031949"><ele>48.0</ele><time>2026-04-27T17:16:50Z</time></trkpt><trkpt lat="30.279532056673222" lon="-9.512381503999096"><ele>49.0</ele><time>2026-04-27T17:16:51Z</time></trkpt><trkpt lat="30.279324106629886" lon="-9.512472410449451"><ele>49.0</ele><time>2026-04-27T17:16:52Z</time></trkpt><trkpt lat="30.27911067359665" lon="-9.512562962086692"><ele>49.0</ele><time>2026-04-27T17:16:53Z</time></trkpt><trkpt lat="30.278897989098972" lon="-9.512654167146884"><ele>49.5</ele><time>2026-04-27T17:16:54Z</time></trkpt><trkpt lat="30.278687314384268" lon="-9.512745335855369"><ele>50.0</ele><time>2026-04-27T17:16:55Z</time></trkpt><trkpt lat="30.27847476818492" lon="-9.512836530121184"><ele>49.66666666666667</ele><time>2026-04-27T17:16:56Z</time></trkpt><trkpt lat="30.278268948844307" lon="-9.51292435163109"><ele>49.33333333333333</ele><time>2026-04-27T17:16:57Z</time></trkpt><trkpt lat="30.278065422362797" lon="-9.513014774160133"><ele>49.0</ele><time>2026-04-27T17:16:58Z</time></trkpt><trkpt lat="30.27786468079894" lon="-9.513103132552985"><ele>48.0</ele><time>2026-04-27T17:16:59Z</time></trkpt><trkpt lat="30.277664294043" lon="-9.513187246208377"><ele>47.0</ele><time>2026-04-27T17:17:00Z</time></trkpt><trkpt lat="30.277466611776614" lon="-9.513269545013953"><ele>46.0</ele><time>2026-04-27T17:17:01Z</time></trkpt><trkpt lat="30.277275819989764" lon="-9.513350854664143"><ele>46.66666666666667</ele><time>2026-04-27T17:17:02Z</time></trkpt><trkpt lat="30.277096919517287" lon="-9.513428112440511"><ele>47.333333333333336</ele><time>2026-04-27T17:17:03Z</time></trkpt><trkpt lat="30.27692110873022" lon="-9.513504996941151"><ele>48.0</ele><time>2026-04-27T17:17:04Z</time></trkpt><trkpt lat="30.276740904855153" lon="-9.513583049139394"><ele>48.0</ele><time>2026-04-27T17:17:05Z</time></trkpt><trkpt lat="30.27655036068716" lon="-9.5136650665185"><ele>48.0</ele><time>2026-04-27T17:17:06Z</time></trkpt><trkpt lat="30.27634506581076" lon="-9.51375276110826"><ele>48.0</ele><time>2026-04-27T17:17:07Z</time></trkpt><trkpt lat="30.276138381316265" lon="-9.513839745916124"><ele>48.66666666666667</ele><time>2026-04-27T17:17:08Z</time></trkpt><trkpt lat="30.275934903764654" lon="-9.513927340872419"><ele>49.333333333333336</ele><time>2026-04-27T17:17:09Z</time></trkpt><trkpt lat="30.275730777851038" lon="-9.514014479576451"><ele>50.0</ele><time>2026-04-27T17:17:10Z</time></trkpt><trkpt lat="30.275527977983476" lon="-9.51410274793772"><ele>50.0</ele><time>2026-04-27T17:17:11Z</time></trkpt><trkpt lat="30.27532792858788" lon="-9.51418987579068"><ele>50.0</ele><time>2026-04-27T17:17:12Z</time></trkpt><trkpt lat="30.275133852323503" lon="-9.514273390429333"><ele>50.0</ele><time>2026-04-27T17:17:13Z</time></trkpt><trkpt lat="30.274950510311626" lon="-9.514354207042661"><ele>50.333333333333336</ele><time>2026-04-27T17:17:14Z</time></trkpt><trkpt lat="30.274765680844755" lon="-9.514435031240636"><ele>50.66666666666667</ele><time>2026-04-27T17:17:15Z</time></trkpt><trkpt lat="30.27457258583772" lon="-9.51451690331555"><ele>51.0</ele><time>2026-04-27T17:17:16Z</time></trkpt><trkpt lat="30.274378467717437" lon="-9.514599427953854"><ele>51.0</ele><time>2026-04-27T17:17:17Z</time></trkpt><trkpt lat="30.274180691280762" lon="-9.514682091470403"><ele>51.0</ele><time>2026-04-27T17:17:18Z</time></trkpt><trkpt lat="30.27397903576369" lon="-9.514768328361553"><ele>51.0</ele><time>2026-04-27T17:17:19Z</time></trkpt><trkpt lat="30.273776357859017" lon="-9.514857387944364"><ele>51.66666666666667</ele><time>2026-04-27T17:17:20Z</time></trkpt><trkpt lat="30.273571353350395" lon="-9.514946227046464"><ele>52.333333333333336</ele><time>2026-04-27T17:17:21Z</time></trkpt><trkpt lat="30.27336406636891" lon="-9.515034314237006"><ele>53.0</ele><time>2026-04-27T17:17:22Z</time></trkpt><trkpt lat="30.273142713768802" lon="-9.515124793826825"><ele>52.0</ele><time>2026-04-27T17:17:23Z</time></trkpt><trkpt lat="30.2729141977058" lon="-9.5152137069615"><ele>51.0</ele><time>2026-04-27T17:17:24Z</time></trkpt><trkpt lat="30.27268203738369" lon="-9.515300439592522"><ele>51.0</ele><time>2026-04-27T17:17:25Z</time></trkpt><trkpt lat="30.272447490482413" lon="-9.515382003686987"><ele>51.0</ele><time>2026-04-27T17:17:26Z</time></trkpt><trkpt lat="30.272212415748253" lon="-9.515458314428084"><ele>51.0</ele><time>2026-04-27T17:17:27Z</time></trkpt><trkpt lat="30.271976136434386" lon="-9.515523052769135"><ele>51.0</ele><time>2026-04-27T17:17:28Z</time></trkpt><trkpt lat="30.271739769132928" lon="-9.515581899364873"><ele>51.0</ele><time>2026-04-27T17:17:29Z</time></trkpt><trkpt lat="30.271508152944417" lon="-9.515630525720214"><ele>51.0</ele><time>2026-04-27T17:17:30Z</time></trkpt><trkpt lat="30.271280242677832" lon="-9.515669193408236"><ele>50.33333333333333</ele><time>2026-04-27T17:17:31Z</time></trkpt><trkpt lat="30.271057326470547" lon="-9.515700040682322"><ele>49.666666666666664</ele><time>2026-04-27T17:17:32Z</time></trkpt><trkpt lat="30.270836520157886" lon="-9.515723258314228"><ele>49.0</ele><time>2026-04-27T17:17:33Z</time></trkpt><trkpt lat="30.270622760069664" lon="-9.51573978781882"><ele>50.0</ele><time>2026-04-27T17:17:34Z</time></trkpt><trkpt lat="30.270418662949595" lon="-9.515751376934"><ele>51.0</ele><time>2026-04-27T17:17:35Z</time></trkpt><trkpt lat="30.270220320534467" lon="-9.515755275686939"><ele>52.0</ele><time>2026-04-27T17:17:36Z</time></trkpt><trkpt lat="30.27002500463275" lon="-9.515754524550246"><ele>52.0</ele><time>2026-04-27T17:17:37Z</time></trkpt><trkpt lat="30.2698409657953" lon="-9.515753511880012"><ele>52.0</ele><time>2026-04-27T17:17:38Z</time></trkpt><trkpt lat="30.26966295945907" lon="-9.515752308882231"><ele>52.0</ele><time>2026-04-27T17:17:39Z</time></trkpt><trkpt lat="30.269469979445745" lon="-9.515752010029708"><ele>52.0</ele><time>2026-04-27T17:17:40Z</time></trkpt><trkpt lat="30.269277947821124" lon="-9.51574732032751"><ele>52.0</ele><time>2026-04-27T17:17:41Z</time></trkpt><trkpt lat="30.26908771419939" lon="-9.515745384167582"><ele>52.0</ele><time>2026-04-27T17:17:42Z</time></trkpt><trkpt lat="30.268908193150686" lon="-9.515744116107028"><ele>52.0</ele><time>2026-04-27T17:17:43Z</time></trkpt><trkpt lat="30.268731761543492" lon="-9.515744079759635"><ele>52.0</ele><time>2026-04-27T17:17:44Z</time></trkpt><trkpt lat="30.26856635601365" lon="-9.515745130533562"><ele>52.0</ele><time>2026-04-27T17:17:45Z</time></trkpt><trkpt lat="30.268409831407183" lon="-9.515747912824875"><ele>52.0</ele><time>2026-04-27T17:17:46Z</time></trkpt><trkpt lat="30.268261410291966" lon="-9.515748614606705"><ele>52.0</ele><time>2026-04-27T17:17:47Z</time></trkpt><trkpt lat="30.268114947974773" lon="-9.515746298291042"><ele>52.0</ele><time>2026-04-27T17:17:48Z</time></trkpt><trkpt lat="30.26797193691418" lon="-9.515745503864743"><ele>52.0</ele><time>2026-04-27T17:17:49Z</time></trkpt><trkpt lat="30.267837457216864" lon="-9.51574820101439"><ele>52.5</ele><time>2026-04-27T17:17:50Z</time></trkpt><trkpt lat="30.267706712440095" lon="-9.515750801921813"><ele>53.0</ele><time>2026-04-27T17:17:51Z</time></trkpt><trkpt lat="30.267572028766832" lon="-9.515747885404188"><ele>53.5</ele><time>2026-04-27T17:17:52Z</time></trkpt><trkpt lat="30.26742325099575" lon="-9.5157454893103"><ele>54.0</ele><time>2026-04-27T17:17:53Z</time></trkpt><trkpt lat="30.267260730910174" lon="-9.515743584196521"><ele>54.0</ele><time>2026-04-27T17:17:54Z</time></trkpt><trkpt lat="30.267102543164967" lon="-9.515743266602763"><ele>54.0</ele><time>2026-04-27T17:17:55Z</time></trkpt><trkpt lat="30.266952957545296" lon="-9.515745037301354"><ele>54.0</ele><time>2026-04-27T17:17:56Z</time></trkpt><trkpt lat="30.26681055382037" lon="-9.515746639024393"><ele>54.0</ele><time>2026-04-27T17:17:57Z</time></trkpt><trkpt lat="30.266669686991747" lon="-9.515745388310542"><ele>54.0</ele><time>2026-04-27T17:17:58Z</time></trkpt><trkpt lat="30.266528329719865" lon="-9.515744522803478"><ele>54.0</ele><time>2026-04-27T17:17:59Z</time></trkpt><trkpt lat="30.266394090445825" lon="-9.515743467707447"><ele>54.0</ele><time>2026-04-27T17:18:00Z</time></trkpt><trkpt lat="30.26626723104219" lon="-9.515743436231546"><ele>54.400000000000006</ele><time>2026-04-27T17:18:01Z</time></trkpt><trkpt lat="30.26615189363991" lon="-9.515742230593933"><ele>54.800000000000004</ele><time>2026-04-27T17:18:02Z</time></trkpt><trkpt lat="30.266046869906464" lon="-9.515741400502034"><ele>55.199999999999996</ele><time>2026-04-27T17:18:03Z</time></trkpt><trkpt lat="30.26594837304896" lon="-9.515740753236651"><ele>55.599999999999994</ele><time>2026-04-27T17:18:04Z</time></trkpt><trkpt lat="30.265865403384907" lon="-9.51574098345799"><ele>56.0</ele><time>2026-04-27T17:18:05Z</time></trkpt><trkpt lat="30.265791035920113" lon="-9.515741517149046"><ele>56.0</ele><time>2026-04-27T17:18:06Z</time></trkpt><trkpt lat="30.265681091571334" lon="-9.515745857293563"><ele>55.99999999999999</ele><time>2026-04-27T17:18:08Z</time></trkpt><trkpt lat="30.265570185786405" lon="-9.515752087529114"><ele>55.99999999999999</ele><time>2026-04-27T17:18:10Z</time></trkpt><trkpt lat="30.265501921092387" lon="-9.51575205256277"><ele>56.0</ele><time>2026-04-27T17:18:11Z</time></trkpt><trkpt lat="30.26541602623643" lon="-9.515747816203788"><ele>56.0</ele><time>2026-04-27T17:18:12Z</time></trkpt><trkpt lat="30.26531493067595" lon="-9.515737679411005"><ele>56.0</ele><time>2026-04-27T17:18:13Z</time></trkpt><trkpt lat="30.265197629132782" lon="-9.515731759265023"><ele>56.0</ele><time>2026-04-27T17:18:14Z</time></trkpt><trkpt lat="30.26506805156342" lon="-9.515731178909848"><ele>56.0</ele><time>2026-04-27T17:18:15Z</time></trkpt><trkpt lat="30.264931280189497" lon="-9.515732960934512"><ele>56.0</ele><time>2026-04-27T17:18:16Z</time></trkpt><trkpt lat="30.264778469096512" lon="-9.51572936156483"><ele>56.0</ele><time>2026-04-27T17:18:17Z</time></trkpt><trkpt lat="30.264616072562387" lon="-9.51572389548303"><ele>56.0</ele><time>2026-04-27T17:18:18Z</time></trkpt><trkpt lat="30.264438533342513" lon="-9.515720501951117"><ele>56.0</ele><time>2026-04-27T17:18:19Z</time></trkpt><trkpt lat="30.26425811237074" lon="-9.515718482136855"><ele>56.0</ele><time>2026-04-27T17:18:20Z</time></trkpt><trkpt lat="30.26406517737108" lon="-9.515715437824449"><ele>56.0</ele><time>2026-04-27T17:18:21Z</time></trkpt><trkpt lat="30.263864976590696" lon="-9.515714296791272"><ele>56.0</ele><time>2026-04-27T17:18:22Z</time></trkpt><trkpt lat="30.263661861809716" lon="-9.515713845355029"><ele>56.0</ele><time>2026-04-27T17:18:23Z</time></trkpt><trkpt lat="30.263457350207993" lon="-9.515713625061755"><ele>56.0</ele><time>2026-04-27T17:18:24Z</time></trkpt><trkpt lat="30.263263414088584" lon="-9.515714753198804"><ele>56.0</ele><time>2026-04-27T17:18:25Z</time></trkpt><trkpt lat="30.26307383584889" lon="-9.515717994172526"><ele>57.333333333333336</ele><time>2026-04-27T17:18:26Z</time></trkpt><trkpt lat="30.262875204073428" lon="-9.515720233341085"><ele>58.66666666666667</ele><time>2026-04-27T17:18:27Z</time></trkpt><trkpt lat="30.262669784492097" lon="-9.515722524226906"><ele>60.0</ele><time>2026-04-27T17:18:28Z</time></trkpt><trkpt lat="30.262468119002307" lon="-9.51572333028895"><ele>60.0</ele><time>2026-04-27T17:18:29Z</time></trkpt><trkpt lat="30.262267793828627" lon="-9.515721490741445"><ele>60.0</ele><time>2026-04-27T17:18:30Z</time></trkpt><trkpt lat="30.26206619767327" lon="-9.515719968311178"><ele>60.0</ele><time>2026-04-27T17:18:31Z</time></trkpt><trkpt lat="30.26186898303653" lon="-9.515719357746356"><ele>60.0</ele><time>2026-04-27T17:18:32Z</time></trkpt><trkpt lat="30.261685868269872" lon="-9.515718025095396"><ele>60.0</ele><time>2026-04-27T17:18:33Z</time></trkpt><trkpt lat="30.261510616057716" lon="-9.515718003720597"><ele>60.0</ele><time>2026-04-27T17:18:34Z</time></trkpt><trkpt lat="30.26133390555691" lon="-9.51571875225715"><ele>59.33333333333333</ele><time>2026-04-27T17:18:35Z</time></trkpt><trkpt lat="30.26115880771221" lon="-9.515718646874214"><ele>58.666666666666664</ele><time>2026-04-27T17:18:36Z</time></trkpt><trkpt lat="30.26098444618983" lon="-9.515718850709744"><ele>58.0</ele><time>2026-04-27T17:18:37Z</time></trkpt><trkpt lat="30.260810300437484" lon="-9.51571947581299"><ele>58.0</ele><time>2026-04-27T17:18:38Z</time></trkpt><trkpt lat="30.26064266390011" lon="-9.515718783271822"><ele>58.0</ele><time>2026-04-27T17:18:39Z</time></trkpt><trkpt lat="30.26048500732681" lon="-9.515718974450001"><ele>58.0</ele><time>2026-04-27T17:18:40Z</time></trkpt><trkpt lat="30.260332283080114" lon="-9.515718712130772"><ele>59.33333333333333</ele><time>2026-04-27T17:18:41Z</time></trkpt><trkpt lat="30.260178936207186" lon="-9.515717059422439"><ele>60.66666666666667</ele><time>2026-04-27T17:18:42Z</time></trkpt><trkpt lat="30.260016211783206" lon="-9.515715363959846"><ele>62.0</ele><time>2026-04-27T17:18:43Z</time></trkpt><trkpt lat="30.259852295613697" lon="-9.515712994512747"><ele>61.0</ele><time>2026-04-27T17:18:44Z</time></trkpt><trkpt lat="30.259687004583363" lon="-9.515711004540576"><ele>60.0</ele><time>2026-04-27T17:18:45Z</time></trkpt><trkpt lat="30.259513989868147" lon="-9.515710460606014"><ele>59.0</ele><time>2026-04-27T17:18:46Z</time></trkpt><trkpt lat="30.259325917741247" lon="-9.515710265696265"><ele>59.0</ele><time>2026-04-27T17:18:47Z</time></trkpt><trkpt lat="30.259124482144028" lon="-9.515706980112185"><ele>59.0</ele><time>2026-04-27T17:18:48Z</time></trkpt><trkpt lat="30.25893324675257" lon="-9.515704148072665"><ele>59.0</ele><time>2026-04-27T17:18:49Z</time></trkpt><trkpt lat="30.25874971321763" lon="-9.515703791596735"><ele>58.66666666666667</ele><time>2026-04-27T17:18:50Z</time></trkpt><trkpt lat="30.258575892281087" lon="-9.51570295894225"><ele>58.33333333333333</ele><time>2026-04-27T17:18:51Z</time></trkpt><trkpt lat="30.258405157540455" lon="-9.515701909345612"><ele>58.0</ele><time>2026-04-27T17:18:52Z</time></trkpt><trkpt lat="30.258230094393454" lon="-9.515701427222496"><ele>57.33333333333333</ele><time>2026-04-27T17:18:53Z</time></trkpt><trkpt lat="30.25805774078311" lon="-9.515699858858339"><ele>56.66666666666667</ele><time>2026-04-27T17:18:54Z</time></trkpt><trkpt lat="30.25787790981795" lon="-9.515697620635503"><ele>56.0</ele><time>2026-04-27T17:18:55Z</time></trkpt><trkpt lat="30.257694679651877" lon="-9.515698027365188"><ele>56.0</ele><time>2026-04-27T17:18:56Z</time></trkpt><trkpt lat="30.25751045664613" lon="-9.515697109361835"><ele>56.0</ele><time>2026-04-27T17:18:57Z</time></trkpt><trkpt lat="30.257320382747913" lon="-9.515696716182944"><ele>56.0</ele><time>2026-04-27T17:18:58Z</time></trkpt><trkpt lat="30.257125982091573" lon="-9.515696537909964"><ele>57.0</ele><time>2026-04-27T17:18:59Z</time></trkpt><trkpt lat="30.256928300889495" lon="-9.515698172254114"><ele>58.0</ele><time>2026-04-27T17:19:00Z</time></trkpt><trkpt lat="30.25672223630115" lon="-9.515702239903526"><ele>59.0</ele><time>2026-04-27T17:19:01Z</time></trkpt><trkpt lat="30.256513881215742" lon="-9.51570971337518"><ele>60.333333333333336</ele><time>2026-04-27T17:19:02Z</time></trkpt><trkpt lat="30.256320750888044" lon="-9.515714513386191"><ele>61.66666666666667</ele><time>2026-04-27T17:19:03Z</time></trkpt><trkpt lat="30.256137780506343" lon="-9.515714872485393"><ele>63.0</ele><time>2026-04-27T17:19:04Z</time></trkpt><trkpt lat="30.255953976678494" lon="-9.515713793608874"><ele>63.0</ele><time>2026-04-27T17:19:05Z</time></trkpt><trkpt lat="30.255773020755637" lon="-9.515712591814468"><ele>63.0</ele><time>2026-04-27T17:19:06Z</time></trkpt><trkpt lat="30.255588519819277" lon="-9.515711064175864"><ele>63.0</ele><time>2026-04-27T17:19:07Z</time></trkpt><trkpt lat="30.25540237487868" lon="-9.515708578049782"><ele>62.33333333333333</ele><time>2026-04-27T17:19:08Z</time></trkpt><trkpt lat="30.25521598823763" lon="-9.515705552038929"><ele>61.666666666666664</ele><time>2026-04-27T17:19:09Z</time></trkpt><trkpt lat="30.255032107113397" lon="-9.515703836353198"><ele>61.0</ele><time>2026-04-27T17:19:10Z</time></trkpt><trkpt lat="30.254846800000603" lon="-9.515704141408293"><ele>62.0</ele><time>2026-04-27T17:19:11Z</time></trkpt><trkpt lat="30.254660209003593" lon="-9.515707002022273"><ele>63.0</ele><time>2026-04-27T17:19:12Z</time></trkpt><trkpt lat="30.254474106879023" lon="-9.51570701731209"><ele>64.0</ele><time>2026-04-27T17:19:13Z</time></trkpt><trkpt lat="30.254291439845144" lon="-9.515708952007001"><ele>64.0</ele><time>2026-04-27T17:19:14Z</time></trkpt><trkpt lat="30.254113749658504" lon="-9.515713422863653"><ele>64.0</ele><time>2026-04-27T17:19:15Z</time></trkpt><trkpt lat="30.253938855719923" lon="-9.515724362416078"><ele>64.0</ele><time>2026-04-27T17:19:16Z</time></trkpt><trkpt lat="30.253765774200808" lon="-9.515740425053185"><ele>63.666666666666664</ele><time>2026-04-27T17:19:17Z</time></trkpt><trkpt lat="30.25359774559019" lon="-9.515764333355353"><ele>63.33333333333333</ele><time>2026-04-27T17:19:18Z</time></trkpt><trkpt lat="30.25343149964598" lon="-9.515797727397386"><ele>63.0</ele><time>2026-04-27T17:19:19Z</time></trkpt><trkpt lat="30.253267833527076" lon="-9.515843473324026"><ele>64.0</ele><time>2026-04-27T17:19:20Z</time></trkpt><trkpt lat="30.253096926834374" lon="-9.515893416527733"><ele>65.0</ele><time>2026-04-27T17:19:21Z</time></trkpt><trkpt lat="30.252926736997946" lon="-9.515950788739342"><ele>66.0</ele><time>2026-04-27T17:19:22Z</time></trkpt><trkpt lat="30.25277010778438" lon="-9.516013943160944"><ele>66.0</ele><time>2026-04-27T17:19:23Z</time></trkpt><trkpt lat="30.252622825846544" lon="-9.516079520028306"><ele>66.0</ele><time>2026-04-27T17:19:24Z</time></trkpt><trkpt lat="30.252470895388516" lon="-9.516152738129446"><ele>66.0</ele><time>2026-04-27T17:19:25Z</time></trkpt><trkpt lat="30.252324380336656" lon="-9.516230894722751"><ele>64.66666666666667</ele><time>2026-04-27T17:19:26Z</time></trkpt><trkpt lat="30.25218638953605" lon="-9.516308526289906"><ele>63.333333333333336</ele><time>2026-04-27T17:19:27Z</time></trkpt><trkpt lat="30.252048803812947" lon="-9.516394802595265"><ele>62.0</ele><time>2026-04-27T17:19:28Z</time></trkpt><trkpt lat="30.251918911281557" lon="-9.516479970110762"><ele>62.0</ele><time>2026-04-27T17:19:29Z</time></trkpt><trkpt lat="30.251800866759705" lon="-9.516562377474793"><ele>62.0</ele><time>2026-04-27T17:19:30Z</time></trkpt><trkpt lat="30.251695305267663" lon="-9.51663779923996"><ele>62.0</ele><time>2026-04-27T17:19:31Z</time></trkpt><trkpt lat="30.25159196330719" lon="-9.516709426547793"><ele>62.0</ele><time>2026-04-27T17:19:32Z</time></trkpt><trkpt lat="30.251489514125048" lon="-9.516776335521232"><ele>61.8</ele><time>2026-04-27T17:19:33Z</time></trkpt><trkpt lat="30.25138326922067" lon="-9.516844499319301"><ele>61.6</ele><time>2026-04-27T17:19:34Z</time></trkpt><trkpt lat="30.251289478067562" lon="-9.516906900632375"><ele>61.39999999999999</ele><time>2026-04-27T17:19:35Z</time></trkpt><trkpt lat="30.251202961828998" lon="-9.516964148129611"><ele>61.199999999999996</ele><time>2026-04-27T17:19:36Z</time></trkpt><trkpt lat="30.251116264485365" lon="-9.517022967732943"><ele>61.0</ele><time>2026-04-27T17:19:37Z</time></trkpt><trkpt lat="30.251038873886216" lon="-9.517081726793025"><ele>61.599999999999994</ele><time>2026-04-27T17:19:38Z</time></trkpt><trkpt lat="30.25097104847606" lon="-9.517144259481709"><ele>62.199999999999996</ele><time>2026-04-27T17:19:39Z</time></trkpt><trkpt lat="30.250919092843276" lon="-9.517210496568895"><ele>62.800000000000004</ele><time>2026-04-27T17:19:40Z</time></trkpt><trkpt lat="30.250868170097245" lon="-9.517293942282391"><ele>63.400000000000006</ele><time>2026-04-27T17:19:41Z</time></trkpt><trkpt lat="30.2508162614014" lon="-9.517392746219668"><ele>64.0</ele><time>2026-04-27T17:19:42Z</time></trkpt><trkpt lat="30.2507586272549" lon="-9.51748620737141"><ele>64.0</ele><time>2026-04-27T17:19:43Z</time></trkpt><trkpt lat="30.250689460947626" lon="-9.517548515116115"><ele>64.0</ele><time>2026-04-27T17:19:44Z</time></trkpt><trkpt lat="30.250586546121095" lon="-9.517591164586085"><ele>64.0</ele><time>2026-04-27T17:19:45Z</time></trkpt><trkpt lat="30.250437047100128" lon="-9.517576873837353"><ele>64.0</ele><time>2026-04-27T17:19:46Z</time></trkpt><trkpt lat="30.25030440491649" lon="-9.517622782295138"><ele>64.0</ele><time>2026-04-27T17:19:47Z</time></trkpt><trkpt lat="30.250172411910228" lon="-9.517723209451072"><ele>64.0</ele><time>2026-04-27T17:19:48Z</time></trkpt><trkpt lat="30.250018470748454" lon="-9.517816047568285"><ele>64.0</ele><time>2026-04-27T17:19:49Z</time></trkpt><trkpt lat="30.249876778603685" lon="-9.517912089486622"><ele>63.0</ele><time>2026-04-27T17:19:50Z</time></trkpt><trkpt lat="30.249728761818155" lon="-9.518018406461962"><ele>62.0</ele><time>2026-04-27T17:19:51Z</time></trkpt><trkpt lat="30.249568510028944" lon="-9.518136368068296"><ele>61.0</ele><time>2026-04-27T17:19:52Z</time></trkpt><trkpt lat="30.249409674004408" lon="-9.518251501522137"><ele>61.0</ele><time>2026-04-27T17:19:53Z</time></trkpt><trkpt lat="30.249249344050597" lon="-9.518367699114416"><ele>61.0</ele><time>2026-04-27T17:19:54Z</time></trkpt><trkpt lat="30.249074111599782" lon="-9.51848719570072"><ele>61.0</ele><time>2026-04-27T17:19:55Z</time></trkpt><trkpt lat="30.248882804097867" lon="-9.51860864020474"><ele>60.0</ele><time>2026-04-27T17:19:56Z</time></trkpt><trkpt lat="30.248682383938178" lon="-9.518745051243247"><ele>59.0</ele><time>2026-04-27T17:19:57Z</time></trkpt><trkpt lat="30.24847505268486" lon="-9.518890205100659"><ele>59.0</ele><time>2026-04-27T17:19:58Z</time></trkpt><trkpt lat="30.248257945739013" lon="-9.519041382514889"><ele>59.0</ele><time>2026-04-27T17:19:59Z</time></trkpt><trkpt lat="30.248035205632082" lon="-9.519198368146743"><ele>59.0</ele><time>2026-04-27T17:20:00Z</time></trkpt><trkpt lat="30.24781108730284" lon="-9.519358879486976"><ele>59.0</ele><time>2026-04-27T17:20:01Z</time></trkpt><trkpt lat="30.247591134975508" lon="-9.519516796820328"><ele>59.0</ele><time>2026-04-27T17:20:02Z</time></trkpt><trkpt lat="30.24737468619151" lon="-9.519670355684962"><ele>59.0</ele><time>2026-04-27T17:20:03Z</time></trkpt><trkpt lat="30.247170413576544" lon="-9.51981753860288"><ele>59.333333333333336</ele><time>2026-04-27T17:20:04Z</time></trkpt><trkpt lat="30.24697706271043" lon="-9.51995778122585"><ele>59.66666666666667</ele><time>2026-04-27T17:20:05Z</time></trkpt><trkpt lat="30.24679309004855" lon="-9.520090303978499"><ele>60.0</ele><time>2026-04-27T17:20:06Z</time></trkpt><trkpt lat="30.246619066358818" lon="-9.520215247503959"><ele>60.66666666666667</ele><time>2026-04-27T17:20:07Z</time></trkpt><trkpt lat="30.246452933219526" lon="-9.520332622284323"><ele>61.333333333333336</ele><time>2026-04-27T17:20:08Z</time></trkpt><trkpt lat="30.2462831495215" lon="-9.520445167119435"><ele>62.0</ele><time>2026-04-27T17:20:09Z</time></trkpt><trkpt lat="30.24611615785523" lon="-9.520553618875345"><ele>62.0</ele><time>2026-04-27T17:20:10Z</time></trkpt><trkpt lat="30.24593992823727" lon="-9.520674624513367"><ele>62.0</ele><time>2026-04-27T17:20:11Z</time></trkpt><trkpt lat="30.24576381240756" lon="-9.520798296849307"><ele>62.0</ele><time>2026-04-27T17:20:12Z</time></trkpt><trkpt lat="30.245598405182058" lon="-9.520917113799449"><ele>62.66666666666667</ele><time>2026-04-27T17:20:13Z</time></trkpt><trkpt lat="30.245429586012033" lon="-9.521038199176797"><ele>63.33333333333333</ele><time>2026-04-27T17:20:14Z</time></trkpt><trkpt lat="30.245253098270645" lon="-9.521170493132665"><ele>64.0</ele><time>2026-04-27T17:20:15Z</time></trkpt><trkpt lat="30.245076520344938" lon="-9.521312223079397"><ele>64.33333333333333</ele><time>2026-04-27T17:20:16Z</time></trkpt><trkpt lat="30.244902253256658" lon="-9.521414262864859"><ele>64.66666666666667</ele><time>2026-04-27T17:20:17Z</time></trkpt><trkpt lat="30.24474429689154" lon="-9.521524127539394"><ele>65.0</ele><time>2026-04-27T17:20:18Z</time></trkpt><trkpt lat="30.244594055738993" lon="-9.52162741843955"><ele>65.0</ele><time>2026-04-27T17:20:19Z</time></trkpt><trkpt lat="30.244452825707338" lon="-9.52172951184948"><ele>65.0</ele><time>2026-04-27T17:20:20Z</time></trkpt><trkpt lat="30.244328446356587" lon="-9.52184659494709"><ele>65.0</ele><time>2026-04-27T17:20:21Z</time></trkpt><trkpt lat="30.24419814224174" lon="-9.52193305899613"><ele>65.0</ele><time>2026-04-27T17:20:22Z</time></trkpt><trkpt lat="30.244075993903085" lon="-9.522012672140601"><ele>65.0</ele><time>2026-04-27T17:20:23Z</time></trkpt><trkpt lat="30.243965540276356" lon="-9.522083061624858"><ele>65.0</ele><time>2026-04-27T17:20:24Z</time></trkpt><trkpt lat="30.243869867027986" lon="-9.52214704367609"><ele>65.0</ele><time>2026-04-27T17:20:25Z</time></trkpt><trkpt lat="30.24378437741552" lon="-9.522206384270334"><ele>64.83333333333334</ele><time>2026-04-27T17:20:26Z</time></trkpt><trkpt lat="30.2437102776873" lon="-9.522257881768084"><ele>64.66666666666667</ele><time>2026-04-27T17:20:27Z</time></trkpt><trkpt lat="30.243645331007247" lon="-9.522304073980568"><ele>64.5</ele><time>2026-04-27T17:20:28Z</time></trkpt><trkpt lat="30.243585499638186" lon="-9.522349145279419"><ele>64.33333333333333</ele><time>2026-04-27T17:20:29Z</time></trkpt><trkpt lat="30.24353171267746" lon="-9.522392325523601"><ele>64.16666666666666</ele><time>2026-04-27T17:20:30Z</time></trkpt><trkpt lat="30.243454559119964" lon="-9.522453699413527"><ele>64.0</ele><time>2026-04-27T17:20:32Z</time></trkpt><trkpt lat="30.24340296550391" lon="-9.522505097279415"><ele>64.0</ele><time>2026-04-27T17:20:34Z</time></trkpt><trkpt lat="30.243343867012307" lon="-9.52259713368561"><ele>64.0</ele><time>2026-04-27T17:20:37Z</time></trkpt><trkpt lat="30.24330908364859" lon="-9.522709804376385"><ele>64.0</ele><time>2026-04-27T17:20:39Z</time></trkpt><trkpt lat="30.243240755539247" lon="-9.522835166284208"><ele>64.0</ele><time>2026-04-27T17:20:41Z</time></trkpt><trkpt lat="30.243181666103546" lon="-9.522884594813362"><ele>64.0</ele><time>2026-04-27T17:20:42Z</time></trkpt><trkpt lat="30.243106925877406" lon="-9.522919775995579"><ele>63.800000000000004</ele><time>2026-04-27T17:20:43Z</time></trkpt><trkpt lat="30.243015127425906" lon="-9.522938571945057"><ele>63.60000000000001</ele><time>2026-04-27T17:20:44Z</time></trkpt><trkpt lat="30.242923567991713" lon="-9.522944413104115"><ele>63.4</ele><time>2026-04-27T17:20:45Z</time></trkpt><trkpt lat="30.2428214425939" lon="-9.522958301620774"><ele>63.2</ele><time>2026-04-27T17:20:46Z</time></trkpt><trkpt lat="30.242719177981318" lon="-9.523009752274932"><ele>63.0</ele><time>2026-04-27T17:20:47Z</time></trkpt><trkpt lat="30.242602499663203" lon="-9.523089441238312"><ele>63.0</ele><time>2026-04-27T17:20:48Z</time></trkpt><trkpt lat="30.242477002997845" lon="-9.523177376474592"><ele>63.0</ele><time>2026-04-27T17:20:49Z</time></trkpt><trkpt lat="30.24234887946562" lon="-9.523267142927685"><ele>63.0</ele><time>2026-04-27T17:20:50Z</time></trkpt><trkpt lat="30.24221287028811" lon="-9.523355355543453"><ele>64.0</ele><time>2026-04-27T17:20:51Z</time></trkpt><trkpt lat="30.242078660936563" lon="-9.523440506377264"><ele>65.0</ele><time>2026-04-27T17:20:52Z</time></trkpt><trkpt lat="30.241952985870572" lon="-9.523520986561032"><ele>66.0</ele><time>2026-04-27T17:20:53Z</time></trkpt><trkpt lat="30.241815844720893" lon="-9.523610371612829"><ele>66.0</ele><time>2026-04-27T17:20:54Z</time></trkpt><trkpt lat="30.241679705621397" lon="-9.523706873198762"><ele>66.0</ele><time>2026-04-27T17:20:55Z</time></trkpt><trkpt lat="30.241543702523753" lon="-9.523805259801753"><ele>66.0</ele><time>2026-04-27T17:20:56Z</time></trkpt><trkpt lat="30.241409540749608" lon="-9.52390202763424"><ele>66.25</ele><time>2026-04-27T17:20:57Z</time></trkpt><trkpt lat="30.241283216524657" lon="-9.523992767739532"><ele>66.5</ele><time>2026-04-27T17:20:58Z</time></trkpt><trkpt lat="30.24116604090231" lon="-9.524075928388624"><ele>66.75</ele><time>2026-04-27T17:20:59Z</time></trkpt><trkpt lat="30.24105725463849" lon="-9.524153732929573"><ele>67.0</ele><time>2026-04-27T17:21:00Z</time></trkpt><trkpt lat="30.24095568389179" lon="-9.524227539489571"><ele>67.0</ele><time>2026-04-27T17:21:01Z</time></trkpt><trkpt lat="30.240856913231617" lon="-9.524301096881041"><ele>67.0</ele><time>2026-04-27T17:21:02Z</time></trkpt><trkpt lat="30.240759733779797" lon="-9.524371595350953"><ele>67.0</ele><time>2026-04-27T17:21:03Z</time></trkpt><trkpt lat="30.24066979935386" lon="-9.524435268546172"><ele>67.0</ele><time>2026-04-27T17:21:04Z</time></trkpt><trkpt lat="30.240590183189944" lon="-9.524491551921168"><ele>67.0</ele><time>2026-04-27T17:21:05Z</time></trkpt><trkpt lat="30.2405072297919" lon="-9.524549486143787"><ele>67.0</ele><time>2026-04-27T17:21:06Z</time></trkpt><trkpt lat="30.24041369084276" lon="-9.524621468591008"><ele>67.0</ele><time>2026-04-27T17:21:07Z</time></trkpt><trkpt lat="30.24031870965604" lon="-9.524695061773615"><ele>67.0</ele><time>2026-04-27T17:21:08Z</time></trkpt><trkpt lat="30.240235236969035" lon="-9.524756036548094"><ele>67.0</ele><time>2026-04-27T17:21:09Z</time></trkpt><trkpt lat="30.240159668025793" lon="-9.52481347073281"><ele>67.0</ele><time>2026-04-27T17:21:10Z</time></trkpt><trkpt lat="30.240072199408623" lon="-9.524863685618927"><ele>67.0</ele><time>2026-04-27T17:21:11Z</time></trkpt><trkpt lat="30.23996746446951" lon="-9.524932499974165"><ele>67.0</ele><time>2026-04-27T17:21:12Z</time></trkpt><trkpt lat="30.239848047304235" lon="-9.52500119198557"><ele>67.0</ele><time>2026-04-27T17:21:13Z</time></trkpt><trkpt lat="30.239724088161527" lon="-9.525085821369567"><ele>67.0</ele><time>2026-04-27T17:21:14Z</time></trkpt><trkpt lat="30.23959089158276" lon="-9.525179313418931"><ele>66.75</ele><time>2026-04-27T17:21:15Z</time></trkpt><trkpt lat="30.239460633880086" lon="-9.525270348809476"><ele>66.5</ele><time>2026-04-27T17:21:16Z</time></trkpt><trkpt lat="30.2393404500743" lon="-9.525354695130003"><ele>66.25</ele><time>2026-04-27T17:21:17Z</time></trkpt><trkpt lat="30.239231384209347" lon="-9.525429314677071"><ele>66.0</ele><time>2026-04-27T17:21:18Z</time></trkpt><trkpt lat="30.23912809562024" lon="-9.52550086366966"><ele>66.0</ele><time>2026-04-27T17:21:19Z</time></trkpt><trkpt lat="30.23902970688467" lon="-9.525569977571559"><ele>66.0</ele><time>2026-04-27T17:21:20Z</time></trkpt><trkpt lat="30.23893200312308" lon="-9.525638603295999"><ele>66.0</ele><time>2026-04-27T17:21:21Z</time></trkpt><trkpt lat="30.238836759599195" lon="-9.525706876810949"><ele>66.0</ele><time>2026-04-27T17:21:22Z</time></trkpt><trkpt lat="30.23873524654025" lon="-9.52577920732915"><ele>65.25</ele><time>2026-04-27T17:21:23Z</time></trkpt><trkpt lat="30.238632810593927" lon="-9.52584959586319"><ele>64.5</ele><time>2026-04-27T17:21:24Z</time></trkpt><trkpt lat="30.23853664733462" lon="-9.525918758736873"><ele>63.75</ele><time>2026-04-27T17:21:25Z</time></trkpt><trkpt lat="30.23843537234476" lon="-9.525991385978733"><ele>63.0</ele><time>2026-04-27T17:21:26Z</time></trkpt><trkpt lat="30.238334315390563" lon="-9.526063442853568"><ele>63.0</ele><time>2026-04-27T17:21:27Z</time></trkpt><trkpt lat="30.238230864986107" lon="-9.526136623447288"><ele>63.0</ele><time>2026-04-27T17:21:28Z</time></trkpt><trkpt lat="30.238129634971695" lon="-9.526209678807156"><ele>63.0</ele><time>2026-04-27T17:21:29Z</time></trkpt><trkpt lat="30.238031637130142" lon="-9.526278644809782"><ele>63.0</ele><time>2026-04-27T17:21:30Z</time></trkpt><trkpt lat="30.237941205756275" lon="-9.526343972561444"><ele>63.4</ele><time>2026-04-27T17:21:31Z</time></trkpt><trkpt lat="30.23785759764395" lon="-9.526403546368938"><ele>63.8</ele><time>2026-04-27T17:21:32Z</time></trkpt><trkpt lat="30.237777343707243" lon="-9.526459952542826"><ele>64.2</ele><time>2026-04-27T17:21:33Z</time></trkpt><trkpt lat="30.237704956550626" lon="-9.526510972823838"><ele>64.6</ele><time>2026-04-27T17:21:34Z</time></trkpt><trkpt lat="30.237643411992153" lon="-9.52655449152347"><ele>65.0</ele><time>2026-04-27T17:21:35Z</time></trkpt><trkpt lat="30.23753862087152" lon="-9.526623572882835"><ele>65.0</ele><time>2026-04-27T17:21:37Z</time></trkpt><trkpt lat="30.23742546709522" lon="-9.52670208256428"><ele>65.0</ele><time>2026-04-27T17:21:39Z</time></trkpt><trkpt lat="30.23735819791637" lon="-9.526748937178157"><ele>65.0</ele><time>2026-04-27T17:21:40Z</time></trkpt><trkpt lat="30.23728695469438" lon="-9.526797978239111"><ele>65.0</ele><time>2026-04-27T17:21:41Z</time></trkpt><trkpt lat="30.237200571878716" lon="-9.526858440961238"><ele>65.0</ele><time>2026-04-27T17:21:42Z</time></trkpt><trkpt lat="30.23710813702012" lon="-9.526922874319395"><ele>65.0</ele><time>2026-04-27T17:21:43Z</time></trkpt><trkpt lat="30.237017959252633" lon="-9.52699508928178"><ele>65.0</ele><time>2026-04-27T17:21:44Z</time></trkpt><trkpt lat="30.236935908769585" lon="-9.527061829584067"><ele>65.0</ele><time>2026-04-27T17:21:45Z</time></trkpt><trkpt lat="30.236854208121738" lon="-9.527126683179553"><ele>65.0</ele><time>2026-04-27T17:21:46Z</time></trkpt><trkpt lat="30.236762507420952" lon="-9.527197407224625"><ele>65.0</ele><time>2026-04-27T17:21:47Z</time></trkpt><trkpt lat="30.236672935677493" lon="-9.527263892884655"><ele>65.0</ele><time>2026-04-27T17:21:48Z</time></trkpt><trkpt lat="30.236579289325924" lon="-9.527330310562636"><ele>65.0</ele><time>2026-04-27T17:21:49Z</time></trkpt><trkpt lat="30.23647827078897" lon="-9.527400627439118"><ele>65.0</ele><time>2026-04-27T17:21:50Z</time></trkpt><trkpt lat="30.236379582038424" lon="-9.527467287343653"><ele>65.0</ele><time>2026-04-27T17:21:51Z</time></trkpt><trkpt lat="30.23628873318544" lon="-9.527527493093256"><ele>65.0</ele><time>2026-04-27T17:21:52Z</time></trkpt><trkpt lat="30.236190071360884" lon="-9.527590330232682"><ele>64.5</ele><time>2026-04-27T17:21:53Z</time></trkpt><trkpt lat="30.236080414513427" lon="-9.527658819605998"><ele>64.0</ele><time>2026-04-27T17:21:54Z</time></trkpt><trkpt lat="30.23596328185806" lon="-9.527727944923514"><ele>63.5</ele><time>2026-04-27T17:21:55Z</time></trkpt><trkpt lat="30.23585348982663" lon="-9.527794752288417"><ele>63.0</ele><time>2026-04-27T17:21:56Z</time></trkpt><trkpt lat="30.23574816422543" lon="-9.527854879453384"><ele>62.75</ele><time>2026-04-27T17:21:57Z</time></trkpt><trkpt lat="30.235640244914148" lon="-9.527916082497816"><ele>62.5</ele><time>2026-04-27T17:21:58Z</time></trkpt><trkpt lat="30.23552442673485" lon="-9.527976265997692"><ele>62.25</ele><time>2026-04-27T17:21:59Z</time></trkpt><trkpt lat="30.23540472831141" lon="-9.528039413482265"><ele>62.0</ele><time>2026-04-27T17:22:00Z</time></trkpt><trkpt lat="30.235286479953672" lon="-9.528100179207733"><ele>62.5</ele><time>2026-04-27T17:22:01Z</time></trkpt><trkpt lat="30.235173050523994" lon="-9.528155757733604"><ele>63.0</ele><time>2026-04-27T17:22:02Z</time></trkpt><trkpt lat="30.23505827444368" lon="-9.528210057867698"><ele>63.5</ele><time>2026-04-27T17:22:03Z</time></trkpt><trkpt lat="30.234940030408108" lon="-9.528264202780266"><ele>64.0</ele><time>2026-04-27T17:22:04Z</time></trkpt><trkpt lat="30.234818196738292" lon="-9.528316885549502"><ele>64.25</ele><time>2026-04-27T17:22:05Z</time></trkpt><trkpt lat="30.234701487757555" lon="-9.52836358183725"><ele>64.5</ele><time>2026-04-27T17:22:06Z</time></trkpt><trkpt lat="30.234587573187248" lon="-9.528405762046157"><ele>64.75</ele><time>2026-04-27T17:22:07Z</time></trkpt><trkpt lat="30.23447826040897" lon="-9.528446800687933"><ele>65.0</ele><time>2026-04-27T17:22:08Z</time></trkpt><trkpt lat="30.234378548406294" lon="-9.528484376204709"><ele>65.0</ele><time>2026-04-27T17:22:09Z</time></trkpt><trkpt lat="30.23429179617876" lon="-9.528516167648993"><ele>65.0</ele><time>2026-04-27T17:22:10Z</time></trkpt><trkpt lat="30.23421299978467" lon="-9.528544047951385"><ele>65.0</ele><time>2026-04-27T17:22:11Z</time></trkpt><trkpt lat="30.23413978399868" lon="-9.528569085769"><ele>65.0</ele><time>2026-04-27T17:22:12Z</time></trkpt><trkpt lat="30.23406238529144" lon="-9.528596510613879"><ele>65.0</ele><time>2026-04-27T17:22:13Z</time></trkpt><trkpt lat="30.23397032149735" lon="-9.528628478240643"><ele>65.0</ele><time>2026-04-27T17:22:14Z</time></trkpt><trkpt lat="30.233877803997522" lon="-9.528658767438516"><ele>65.0</ele><time>2026-04-27T17:22:15Z</time></trkpt><trkpt lat="30.233795100137215" lon="-9.528683703785031"><ele>65.0</ele><time>2026-04-27T17:22:16Z</time></trkpt><trkpt lat="30.23371900890388" lon="-9.528708994947056"><ele>65.0</ele><time>2026-04-27T17:22:17Z</time></trkpt><trkpt lat="30.233634581197435" lon="-9.52873917982162"><ele>65.0</ele><time>2026-04-27T17:22:18Z</time></trkpt><trkpt lat="30.233531411086673" lon="-9.528776132064419"><ele>65.0</ele><time>2026-04-27T17:22:19Z</time></trkpt><trkpt lat="30.233425466885397" lon="-9.528812373499568"><ele>65.0</ele><time>2026-04-27T17:22:20Z</time></trkpt><trkpt lat="30.233313623998352" lon="-9.528853545616556"><ele>65.0</ele><time>2026-04-27T17:22:21Z</time></trkpt><trkpt lat="30.233190362328518" lon="-9.528897841134446"><ele>65.0</ele><time>2026-04-27T17:22:22Z</time></trkpt><trkpt lat="30.233063103738505" lon="-9.528944426967561"><ele>65.0</ele><time>2026-04-27T17:22:23Z</time></trkpt><trkpt lat="30.23291517248895" lon="-9.528998162876851"><ele>65.33333333333334</ele><time>2026-04-27T17:22:24Z</time></trkpt><trkpt lat="30.232760720453815" lon="-9.529056294905903"><ele>65.66666666666667</ele><time>2026-04-27T17:22:25Z</time></trkpt><trkpt lat="30.232601722198737" lon="-9.529115891049136"><ele>66.0</ele><time>2026-04-27T17:22:26Z</time></trkpt><trkpt lat="30.23243981139927" lon="-9.529177249142373"><ele>66.33333333333333</ele><time>2026-04-27T17:22:27Z</time></trkpt><trkpt lat="30.23226646159685" lon="-9.529243912540421"><ele>66.66666666666666</ele><time>2026-04-27T17:22:28Z</time></trkpt><trkpt lat="30.232091588784765" lon="-9.529310628768954"><ele>67.0</ele><time>2026-04-27T17:22:29Z</time></trkpt><trkpt lat="30.23191925300854" lon="-9.52937416973162"><ele>67.0</ele><time>2026-04-27T17:22:30Z</time></trkpt><trkpt lat="30.231762574293246" lon="-9.529431138915115"><ele>67.0</ele><time>2026-04-27T17:22:31Z</time></trkpt><trkpt lat="30.23161902193701" lon="-9.529483711852391"><ele>67.0</ele><time>2026-04-27T17:22:32Z</time></trkpt><trkpt lat="30.231500483337705" lon="-9.529530687682305"><ele>67.0</ele><time>2026-04-27T17:22:33Z</time></trkpt><trkpt lat="30.23140134353467" lon="-9.529575262457575"><ele>66.83333333333333</ele><time>2026-04-27T17:22:34Z</time></trkpt><trkpt lat="30.231321928399787" lon="-9.52962256368732"><ele>66.66666666666666</ele><time>2026-04-27T17:22:35Z</time></trkpt><trkpt lat="30.231254452976003" lon="-9.529674115849069"><ele>66.5</ele><time>2026-04-27T17:22:36Z</time></trkpt><trkpt lat="30.231210946389353" lon="-9.52973357701186"><ele>66.33333333333333</ele><time>2026-04-27T17:22:37Z</time></trkpt><trkpt lat="30.231150059512373" lon="-9.529802912130124"><ele>66.16666666666667</ele><time>2026-04-27T17:22:39Z</time></trkpt><trkpt lat="30.231039001428947" lon="-9.529841748246685"><ele>66.0</ele><time>2026-04-27T17:22:42Z</time></trkpt><trkpt lat="30.23095915072746" lon="-9.529824479218906"><ele>66.0</ele><time>2026-04-27T17:22:43Z</time></trkpt><trkpt lat="30.230856019993226" lon="-9.529803770076692"><ele>66.0</ele><time>2026-04-27T17:22:44Z</time></trkpt><trkpt lat="30.23072848043317" lon="-9.529805487431393"><ele>66.0</ele><time>2026-04-27T17:22:45Z</time></trkpt><trkpt lat="30.23057707989414" lon="-9.52984887507208"><ele>66.0</ele><time>2026-04-27T17:22:46Z</time></trkpt><trkpt lat="30.230420654188805" lon="-9.529907417768952"><ele>66.0</ele><time>2026-04-27T17:22:47Z</time></trkpt><trkpt lat="30.23024115273142" lon="-9.529977508259597"><ele>66.0</ele><time>2026-04-27T17:22:48Z</time></trkpt><trkpt lat="30.230057992577855" lon="-9.530048359179096"><ele>66.0</ele><time>2026-04-27T17:22:49Z</time></trkpt><trkpt lat="30.229869730016503" lon="-9.530122532102839"><ele>66.0</ele><time>2026-04-27T17:22:50Z</time></trkpt><trkpt lat="30.22965786074756" lon="-9.530204139217947"><ele>66.0</ele><time>2026-04-27T17:22:51Z</time></trkpt><trkpt lat="30.22943136667424" lon="-9.530287044320053"><ele>66.0</ele><time>2026-04-27T17:22:52Z</time></trkpt><trkpt lat="30.22921138785804" lon="-9.530364546694447"><ele>66.0</ele><time>2026-04-27T17:22:53Z</time></trkpt><trkpt lat="30.22898314816041" lon="-9.530445659861899"><ele>66.0</ele><time>2026-04-27T17:22:54Z</time></trkpt><trkpt lat="30.22875623344812" lon="-9.5305298347464"><ele>66.0</ele><time>2026-04-27T17:22:55Z</time></trkpt><trkpt lat="30.228527522145928" lon="-9.5306167261785"><ele>66.0</ele><time>2026-04-27T17:22:56Z</time></trkpt><trkpt lat="30.228293086204967" lon="-9.530700138116487"><ele>66.0</ele><time>2026-04-27T17:22:57Z</time></trkpt><trkpt lat="30.22805557331609" lon="-9.53077833712769"><ele>66.33333333333333</ele><time>2026-04-27T17:22:58Z</time></trkpt><trkpt lat="30.227843333065273" lon="-9.530851070346682"><ele>66.66666666666666</ele><time>2026-04-27T17:22:59Z</time></trkpt><trkpt lat="30.227663127720387" lon="-9.530920919889391"><ele>67.0</ele><time>2026-04-27T17:23:00Z</time></trkpt><trkpt lat="30.22749769823445" lon="-9.530988638809841"><ele>67.0</ele><time>2026-04-27T17:23:01Z</time></trkpt><trkpt lat="30.22733330481369" lon="-9.531052144166306"><ele>67.0</ele><time>2026-04-27T17:23:02Z</time></trkpt><trkpt lat="30.227156986804324" lon="-9.531110197272568"><ele>67.0</ele><time>2026-04-27T17:23:03Z</time></trkpt><trkpt lat="30.226955850065455" lon="-9.53117705312231"><ele>66.0</ele><time>2026-04-27T17:23:04Z</time></trkpt><trkpt lat="30.226734426365216" lon="-9.53125066188072"><ele>65.0</ele><time>2026-04-27T17:23:05Z</time></trkpt><trkpt lat="30.22650824858031" lon="-9.531332128977365"><ele>64.5</ele><time>2026-04-27T17:23:06Z</time></trkpt><trkpt lat="30.226287864631033" lon="-9.53142097820463"><ele>64.0</ele><time>2026-04-27T17:23:07Z</time></trkpt><trkpt lat="30.226073648720348" lon="-9.531496750522463"><ele>64.0</ele><time>2026-04-27T17:23:08Z</time></trkpt><trkpt lat="30.225864493372278" lon="-9.531568657157047"><ele>64.0</ele><time>2026-04-27T17:23:09Z</time></trkpt><trkpt lat="30.225657101317115" lon="-9.531642331246069"><ele>64.0</ele><time>2026-04-27T17:23:10Z</time></trkpt><trkpt lat="30.225448713427703" lon="-9.53171989810801"><ele>64.0</ele><time>2026-04-27T17:23:11Z</time></trkpt><trkpt lat="30.225245227107663" lon="-9.53179468857155"><ele>64.0</ele><time>2026-04-27T17:23:12Z</time></trkpt><trkpt lat="30.22504274310453" lon="-9.531868253637859"><ele>64.0</ele><time>2026-04-27T17:23:13Z</time></trkpt><trkpt lat="30.224850320582153" lon="-9.5319359358249"><ele>64.33333333333333</ele><time>2026-04-27T17:23:14Z</time></trkpt><trkpt lat="30.224676473528735" lon="-9.532001078633305"><ele>64.66666666666667</ele><time>2026-04-27T17:23:15Z</time></trkpt><trkpt lat="30.224518923298877" lon="-9.532062799274856"><ele>65.0</ele><time>2026-04-27T17:23:16Z</time></trkpt><trkpt lat="30.22436565856708" lon="-9.532124052762564"><ele>65.0</ele><time>2026-04-27T17:23:17Z</time></trkpt><trkpt lat="30.224210382815954" lon="-9.532181987821723"><ele>65.0</ele><time>2026-04-27T17:23:18Z</time></trkpt><trkpt lat="30.22404436298697" lon="-9.532241265479255"><ele>65.0</ele><time>2026-04-27T17:23:19Z</time></trkpt><trkpt lat="30.22386804031605" lon="-9.532306585434648"><ele>65.33333333333334</ele><time>2026-04-27T17:23:20Z</time></trkpt><trkpt lat="30.223687022264777" lon="-9.532371057297325"><ele>65.66666666666667</ele><time>2026-04-27T17:23:21Z</time></trkpt><trkpt lat="30.22351270933463" lon="-9.532434208389777"><ele>66.0</ele><time>2026-04-27T17:23:22Z</time></trkpt><trkpt lat="30.223348128616667" lon="-9.532489591420264"><ele>66.0</ele><time>2026-04-27T17:23:23Z</time></trkpt><trkpt lat="30.223173886717213" lon="-9.532551264807458"><ele>66.0</ele><time>2026-04-27T17:23:24Z</time></trkpt><trkpt lat="30.222999747032333" lon="-9.53261859477044"><ele>66.0</ele><time>2026-04-27T17:23:25Z</time></trkpt><trkpt lat="30.222829736196104" lon="-9.532680785733548"><ele>66.0</ele><time>2026-04-27T17:23:26Z</time></trkpt><trkpt lat="30.222655410261904" lon="-9.532742616910923"><ele>66.0</ele><time>2026-04-27T17:23:27Z</time></trkpt><trkpt lat="30.222482199523167" lon="-9.532807085446667"><ele>66.0</ele><time>2026-04-27T17:23:28Z</time></trkpt><trkpt lat="30.222308864457016" lon="-9.532868884086383"><ele>66.66666666666667</ele><time>2026-04-27T17:23:29Z</time></trkpt><trkpt lat="30.222140874418518" lon="-9.532930779426184"><ele>67.33333333333334</ele><time>2026-04-27T17:23:30Z</time></trkpt><trkpt lat="30.221977783201943" lon="-9.53299047160058"><ele>68.0</ele><time>2026-04-27T17:23:31Z</time></trkpt><trkpt lat="30.221816534763434" lon="-9.533048940159949"><ele>68.0</ele><time>2026-04-27T17:23:32Z</time></trkpt><trkpt lat="30.221653804977812" lon="-9.533110043828767"><ele>68.0</ele><time>2026-04-27T17:23:33Z</time></trkpt><trkpt lat="30.221487006829303" lon="-9.533170416884964"><ele>68.0</ele><time>2026-04-27T17:23:34Z</time></trkpt><trkpt lat="30.221321447288915" lon="-9.533230902749189"><ele>67.33333333333334</ele><time>2026-04-27T17:23:35Z</time></trkpt><trkpt lat="30.221154726266157" lon="-9.533290013642572"><ele>66.66666666666667</ele><time>2026-04-27T17:23:36Z</time></trkpt><trkpt lat="30.220988704809198" lon="-9.53334904020935"><ele>66.0</ele><time>2026-04-27T17:23:37Z</time></trkpt><trkpt lat="30.2208112637343" lon="-9.533415106443012"><ele>66.66666666666667</ele><time>2026-04-27T17:23:38Z</time></trkpt><trkpt lat="30.22062996463652" lon="-9.53348529510768"><ele>67.33333333333334</ele><time>2026-04-27T17:23:39Z</time></trkpt><trkpt lat="30.22044952388419" lon="-9.533555650089482"><ele>68.0</ele><time>2026-04-27T17:23:40Z</time></trkpt><trkpt lat="30.220270406347943" lon="-9.533625169648891"><ele>68.0</ele><time>2026-04-27T17:23:41Z</time></trkpt><trkpt lat="30.220090988684206" lon="-9.53369379681649"><ele>68.0</ele><time>2026-04-27T17:23:42Z</time></trkpt><trkpt lat="30.219916152562128" lon="-9.533761626874881"><ele>68.0</ele><time>2026-04-27T17:23:43Z</time></trkpt><trkpt lat="30.219753403222143" lon="-9.53382428350359"><ele>67.66666666666667</ele><time>2026-04-27T17:23:44Z</time></trkpt><trkpt lat="30.219596345478323" lon="-9.533881764478261"><ele>67.33333333333333</ele><time>2026-04-27T17:23:45Z</time></trkpt><trkpt lat="30.219444416470633" lon="-9.533938057604011"><ele>67.0</ele><time>2026-04-27T17:23:46Z</time></trkpt><trkpt lat="30.21928705388852" lon="-9.533994964254981"><ele>67.0</ele><time>2026-04-27T17:23:47Z</time></trkpt><trkpt lat="30.219125696782132" lon="-9.534054176797552"><ele>67.0</ele><time>2026-04-27T17:23:48Z</time></trkpt><trkpt lat="30.21896210594007" lon="-9.534114698967928"><ele>67.0</ele><time>2026-04-27T17:23:49Z</time></trkpt><trkpt lat="30.218797315627647" lon="-9.534175030187765"><ele>67.0</ele><time>2026-04-27T17:23:50Z</time></trkpt><trkpt lat="30.218628923899818" lon="-9.534233677038976"><ele>67.0</ele><time>2026-04-27T17:23:51Z</time></trkpt><trkpt lat="30.21845052748562" lon="-9.534294351989816"><ele>67.0</ele><time>2026-04-27T17:23:52Z</time></trkpt><trkpt lat="30.21826067235632" lon="-9.53435911882257"><ele>67.0</ele><time>2026-04-27T17:23:53Z</time></trkpt><trkpt lat="30.218071342303016" lon="-9.534424362908458"><ele>67.0</ele><time>2026-04-27T17:23:54Z</time></trkpt><trkpt lat="30.21789216531893" lon="-9.534485729163851"><ele>67.0</ele><time>2026-04-27T17:23:55Z</time></trkpt><trkpt lat="30.21771976056135" lon="-9.534550425813913"><ele>67.0</ele><time>2026-04-27T17:23:56Z</time></trkpt><trkpt lat="30.217543976277106" lon="-9.53462049913025"><ele>67.0</ele><time>2026-04-27T17:23:57Z</time></trkpt><trkpt lat="30.217363568863014" lon="-9.534692737430847"><ele>67.0</ele><time>2026-04-27T17:23:58Z</time></trkpt><trkpt lat="30.217185981287926" lon="-9.534759706368824"><ele>67.0</ele><time>2026-04-27T17:23:59Z</time></trkpt><trkpt lat="30.217011239190438" lon="-9.534823805945313"><ele>67.0</ele><time>2026-04-27T17:24:00Z</time></trkpt><trkpt lat="30.216833001800683" lon="-9.534885413466714"><ele>67.0</ele><time>2026-04-27T17:24:01Z</time></trkpt><trkpt lat="30.21665994400752" lon="-9.534945939266983"><ele>67.0</ele><time>2026-04-27T17:24:02Z</time></trkpt><trkpt lat="30.2164942827853" lon="-9.53500550430921"><ele>67.0</ele><time>2026-04-27T17:24:03Z</time></trkpt><trkpt lat="30.21632774075405" lon="-9.5350647186811"><ele>67.0</ele><time>2026-04-27T17:24:04Z</time></trkpt><trkpt lat="30.21615550798906" lon="-9.535125077562292"><ele>67.33333333333333</ele><time>2026-04-27T17:24:05Z</time></trkpt><trkpt lat="30.215982564938574" lon="-9.53518482127128"><ele>67.66666666666667</ele><time>2026-04-27T17:24:06Z</time></trkpt><trkpt lat="30.215809622615783" lon="-9.535249009724842"><ele>68.0</ele><time>2026-04-27T17:24:07Z</time></trkpt><trkpt lat="30.215628860632314" lon="-9.535313563135556"><ele>67.66666666666667</ele><time>2026-04-27T17:24:08Z</time></trkpt><trkpt lat="30.215445414693875" lon="-9.53537582062749"><ele>67.33333333333333</ele><time>2026-04-27T17:24:09Z</time></trkpt><trkpt lat="30.215261868947348" lon="-9.535437403076974"><ele>67.0</ele><time>2026-04-27T17:24:10Z</time></trkpt><trkpt lat="30.215072849765953" lon="-9.535505684062702"><ele>67.0</ele><time>2026-04-27T17:24:11Z</time></trkpt><trkpt lat="30.214881148783494" lon="-9.535578461374996"><ele>67.0</ele><time>2026-04-27T17:24:12Z</time></trkpt><trkpt lat="30.21468400783667" lon="-9.535644056108225"><ele>67.0</ele><time>2026-04-27T17:24:13Z</time></trkpt><trkpt lat="30.214477655694086" lon="-9.535701480397876"><ele>67.33333333333333</ele><time>2026-04-27T17:24:14Z</time></trkpt><trkpt lat="30.214269014284707" lon="-9.535750601335595"><ele>67.66666666666667</ele><time>2026-04-27T17:24:15Z</time></trkpt><trkpt lat="30.21406147170989" lon="-9.535790976290631"><ele>68.0</ele><time>2026-04-27T17:24:16Z</time></trkpt><trkpt lat="30.213857256658695" lon="-9.53582659780257"><ele>68.0</ele><time>2026-04-27T17:24:17Z</time></trkpt><trkpt lat="30.21365614303119" lon="-9.535857524528861"><ele>68.0</ele><time>2026-04-27T17:24:18Z</time></trkpt><trkpt lat="30.213459035861618" lon="-9.535885083024594"><ele>68.0</ele><time>2026-04-27T17:24:19Z</time></trkpt><trkpt lat="30.21326321303695" lon="-9.535909340372086"><ele>68.66666666666667</ele><time>2026-04-27T17:24:20Z</time></trkpt><trkpt lat="30.21306884874029" lon="-9.535928292197982"><ele>69.33333333333333</ele><time>2026-04-27T17:24:21Z</time></trkpt><trkpt lat="30.212873711646168" lon="-9.535944473401301"><ele>70.0</ele><time>2026-04-27T17:24:22Z</time></trkpt><trkpt lat="30.212675402214078" lon="-9.535957458833979"><ele>70.0</ele><time>2026-04-27T17:24:23Z</time></trkpt><trkpt lat="30.21247621714951" lon="-9.535969448584835"><ele>70.0</ele><time>2026-04-27T17:24:24Z</time></trkpt><trkpt lat="30.212274227562823" lon="-9.53598207556514"><ele>70.0</ele><time>2026-04-27T17:24:25Z</time></trkpt><trkpt lat="30.21207377421169" lon="-9.535994350770604"><ele>70.0</ele><time>2026-04-27T17:24:26Z</time></trkpt><trkpt lat="30.211871919962405" lon="-9.536006917846018"><ele>70.0</ele><time>2026-04-27T17:24:27Z</time></trkpt><trkpt lat="30.21166841206146" lon="-9.536019474588581"><ele>70.0</ele><time>2026-04-27T17:24:28Z</time></trkpt><trkpt lat="30.211463056616108" lon="-9.536033002126553"><ele>69.33333333333333</ele><time>2026-04-27T17:24:29Z</time></trkpt><trkpt lat="30.211256349394773" lon="-9.536045069960505"><ele>68.66666666666667</ele><time>2026-04-27T17:24:30Z</time></trkpt><trkpt lat="30.211049621143726" lon="-9.536056645552717"><ele>68.0</ele><time>2026-04-27T17:24:31Z</time></trkpt><trkpt lat="30.210842513352535" lon="-9.53606828402424"><ele>69.0</ele><time>2026-04-27T17:24:32Z</time></trkpt><trkpt lat="30.210636224366137" lon="-9.536081623241872"><ele>70.0</ele><time>2026-04-27T17:24:33Z</time></trkpt><trkpt lat="30.21042711510182" lon="-9.536093346884382"><ele>71.0</ele><time>2026-04-27T17:24:34Z</time></trkpt><trkpt lat="30.210218635470227" lon="-9.536107741720077"><ele>71.0</ele><time>2026-04-27T17:24:35Z</time></trkpt><trkpt lat="30.210014485455932" lon="-9.536123288102086"><ele>71.0</ele><time>2026-04-27T17:24:36Z</time></trkpt><trkpt lat="30.209811689979087" lon="-9.536140007781619"><ele>71.0</ele><time>2026-04-27T17:24:37Z</time></trkpt><trkpt lat="30.20960796495015" lon="-9.53615531473884"><ele>71.33333333333334</ele><time>2026-04-27T17:24:38Z</time></trkpt><trkpt lat="30.209405176630213" lon="-9.536170647478535"><ele>71.66666666666667</ele><time>2026-04-27T17:24:39Z</time></trkpt><trkpt lat="30.209204974252383" lon="-9.536184197145188"><ele>72.0</ele><time>2026-04-27T17:24:40Z</time></trkpt><trkpt lat="30.209005133837767" lon="-9.53619795542652"><ele>72.0</ele><time>2026-04-27T17:24:41Z</time></trkpt><trkpt lat="30.208804357774238" lon="-9.536210263631292"><ele>72.0</ele><time>2026-04-27T17:24:42Z</time></trkpt><trkpt lat="30.208603682226677" lon="-9.536223196232932"><ele>72.0</ele><time>2026-04-27T17:24:43Z</time></trkpt><trkpt lat="30.20840295825613" lon="-9.536241854294653"><ele>72.0</ele><time>2026-04-27T17:24:44Z</time></trkpt><trkpt lat="30.208202365494166" lon="-9.536261983685101"><ele>72.0</ele><time>2026-04-27T17:24:45Z</time></trkpt><trkpt lat="30.208002202999925" lon="-9.536280292748549"><ele>72.0</ele><time>2026-04-27T17:24:46Z</time></trkpt><trkpt lat="30.20780263248537" lon="-9.536295933899877"><ele>72.0</ele><time>2026-04-27T17:24:47Z</time></trkpt><trkpt lat="30.207602500362565" lon="-9.536312482048846"><ele>72.0</ele><time>2026-04-27T17:24:48Z</time></trkpt><trkpt lat="30.207403037205665" lon="-9.536326868716275"><ele>72.0</ele><time>2026-04-27T17:24:49Z</time></trkpt><trkpt lat="30.207204359104747" lon="-9.536338973210992"><ele>72.33333333333333</ele><time>2026-04-27T17:24:50Z</time></trkpt><trkpt lat="30.207005670532432" lon="-9.53635134717293"><ele>72.66666666666666</ele><time>2026-04-27T17:24:51Z</time></trkpt><trkpt lat="30.206807925861675" lon="-9.536362532725551"><ele>73.0</ele><time>2026-04-27T17:24:52Z</time></trkpt><trkpt lat="30.20660868328773" lon="-9.536373403606051"><ele>72.33333333333333</ele><time>2026-04-27T17:24:53Z</time></trkpt><trkpt lat="30.206410043789504" lon="-9.53638442959824"><ele>71.66666666666667</ele><time>2026-04-27T17:24:54Z</time></trkpt><trkpt lat="30.206211966010073" lon="-9.53639356696819"><ele>71.0</ele><time>2026-04-27T17:24:55Z</time></trkpt><trkpt lat="30.206015727672455" lon="-9.53640520196349"><ele>71.0</ele><time>2026-04-27T17:24:56Z</time></trkpt><trkpt lat="30.205818231501762" lon="-9.536415238013495"><ele>71.0</ele><time>2026-04-27T17:24:57Z</time></trkpt><trkpt lat="30.205621079049465" lon="-9.536425680840136"><ele>71.0</ele><time>2026-04-27T17:24:58Z</time></trkpt><trkpt lat="30.205422799945705" lon="-9.536434687266935"><ele>71.33333333333334</ele><time>2026-04-27T17:24:59Z</time></trkpt><trkpt lat="30.20522197262607" lon="-9.536442321046396"><ele>71.66666666666667</ele><time>2026-04-27T17:25:00Z</time></trkpt><trkpt lat="30.20501796724634" lon="-9.536450025321397"><ele>72.0</ele><time>2026-04-27T17:25:01Z</time></trkpt><trkpt lat="30.204800666179274" lon="-9.536455347185054"><ele>72.33333333333333</ele><time>2026-04-27T17:25:02Z</time></trkpt><trkpt lat="30.20457984011576" lon="-9.536461391838358"><ele>72.66666666666666</ele><time>2026-04-27T17:25:03Z</time></trkpt><trkpt lat="30.20436249723759" lon="-9.536468521533717"><ele>73.0</ele><time>2026-04-27T17:25:04Z</time></trkpt><trkpt lat="30.20414313521476" lon="-9.53647643328087"><ele>73.0</ele><time>2026-04-27T17:25:05Z</time></trkpt><trkpt lat="30.20392390619718" lon="-9.536486525990062"><ele>73.0</ele><time>2026-04-27T17:25:06Z</time></trkpt><trkpt lat="30.203706735313713" lon="-9.536496439960205"><ele>73.0</ele><time>2026-04-27T17:25:07Z</time></trkpt><trkpt lat="30.203491321931075" lon="-9.536509499548483"><ele>73.0</ele><time>2026-04-27T17:25:08Z</time></trkpt><trkpt lat="30.203277946639854" lon="-9.536527314844301"><ele>73.0</ele><time>2026-04-27T17:25:09Z</time></trkpt><trkpt lat="30.203066644724156" lon="-9.536545825703877"><ele>73.0</ele><time>2026-04-27T17:25:10Z</time></trkpt><trkpt lat="30.202858769969893" lon="-9.536563471397612"><ele>73.0</ele><time>2026-04-27T17:25:11Z</time></trkpt><trkpt lat="30.202656430574827" lon="-9.536581829128588"><ele>73.0</ele><time>2026-04-27T17:25:12Z</time></trkpt><trkpt lat="30.202456203038178" lon="-9.536597944241327"><ele>73.0</ele><time>2026-04-27T17:25:13Z</time></trkpt><trkpt lat="30.202252830322823" lon="-9.536613419910994"><ele>73.0</ele><time>2026-04-27T17:25:14Z</time></trkpt><trkpt lat="30.202046096412342" lon="-9.536623236715872"><ele>73.0</ele><time>2026-04-27T17:25:15Z</time></trkpt><trkpt lat="30.20183860040925" lon="-9.536632029397436"><ele>73.0</ele><time>2026-04-27T17:25:16Z</time></trkpt><trkpt lat="30.201628955039013" lon="-9.536642706303121"><ele>73.0</ele><time>2026-04-27T17:25:17Z</time></trkpt><trkpt lat="30.201417367497513" lon="-9.5366552836033"><ele>73.0</ele><time>2026-04-27T17:25:18Z</time></trkpt><trkpt lat="30.201205795501906" lon="-9.536666668996725"><ele>73.0</ele><time>2026-04-27T17:25:19Z</time></trkpt><trkpt lat="30.200993309460152" lon="-9.536679379210497"><ele>73.0</ele><time>2026-04-27T17:25:20Z</time></trkpt><trkpt lat="30.20077802563467" lon="-9.536691283220573"><ele>73.0</ele><time>2026-04-27T17:25:21Z</time></trkpt><trkpt lat="30.200562569510357" lon="-9.536702520136549"><ele>73.0</ele><time>2026-04-27T17:25:22Z</time></trkpt><trkpt lat="30.200347410363527" lon="-9.536715153375527"><ele>72.66666666666666</ele><time>2026-04-27T17:25:23Z</time></trkpt><trkpt lat="30.20013050076409" lon="-9.536728490576007"><ele>72.33333333333333</ele><time>2026-04-27T17:25:24Z</time></trkpt><trkpt lat="30.19991626860793" lon="-9.536740975437782"><ele>72.0</ele><time>2026-04-27T17:25:25Z</time></trkpt><trkpt lat="30.199697317787113" lon="-9.53675378727385"><ele>72.66666666666667</ele><time>2026-04-27T17:25:26Z</time></trkpt><trkpt lat="30.199476617819503" lon="-9.53676769148094"><ele>73.33333333333334</ele><time>2026-04-27T17:25:27Z</time></trkpt><trkpt lat="30.199250893118013" lon="-9.536780355918832"><ele>74.0</ele><time>2026-04-27T17:25:28Z</time></trkpt><trkpt lat="30.199016575337374" lon="-9.536794299857565"><ele>74.0</ele><time>2026-04-27T17:25:29Z</time></trkpt><trkpt lat="30.198774092001955" lon="-9.53680749125924"><ele>74.0</ele><time>2026-04-27T17:25:30Z</time></trkpt><trkpt lat="30.198533052306974" lon="-9.536822684525243"><ele>74.0</ele><time>2026-04-27T17:25:31Z</time></trkpt><trkpt lat="30.19829716726254" lon="-9.536837570829684"><ele>74.0</ele><time>2026-04-27T17:25:32Z</time></trkpt><trkpt lat="30.19806301745311" lon="-9.53685092440025"><ele>74.5</ele><time>2026-04-27T17:25:33Z</time></trkpt><trkpt lat="30.197832580467445" lon="-9.536864064313134"><ele>75.0</ele><time>2026-04-27T17:25:34Z</time></trkpt><trkpt lat="30.197606807024897" lon="-9.536874991139843"><ele>75.0</ele><time>2026-04-27T17:25:35Z</time></trkpt><trkpt lat="30.197383333280033" lon="-9.536885790930791"><ele>75.0</ele><time>2026-04-27T17:25:36Z</time></trkpt><trkpt lat="30.197164559223932" lon="-9.536897237700263"><ele>75.0</ele><time>2026-04-27T17:25:37Z</time></trkpt><trkpt lat="30.196946961587944" lon="-9.536911761244955"><ele>75.33333333333333</ele><time>2026-04-27T17:25:38Z</time></trkpt><trkpt lat="30.19673218653557" lon="-9.536924780538072"><ele>75.66666666666666</ele><time>2026-04-27T17:25:39Z</time></trkpt><trkpt lat="30.196518326239215" lon="-9.536937581364306"><ele>76.0</ele><time>2026-04-27T17:25:40Z</time></trkpt><trkpt lat="30.196304793123765" lon="-9.53694947528959"><ele>76.33333333333333</ele><time>2026-04-27T17:25:41Z</time></trkpt><trkpt lat="30.196089832622274" lon="-9.536961738578842"><ele>76.66666666666667</ele><time>2026-04-27T17:25:42Z</time></trkpt><trkpt lat="30.195874911919198" lon="-9.536973226177466"><ele>77.0</ele><time>2026-04-27T17:25:43Z</time></trkpt><trkpt lat="30.195658831234873" lon="-9.536983927657454"><ele>77.33333333333334</ele><time>2026-04-27T17:25:44Z</time></trkpt><trkpt lat="30.19544482493691" lon="-9.536995093729647"><ele>77.66666666666667</ele><time>2026-04-27T17:25:45Z</time></trkpt><trkpt lat="30.195229678616645" lon="-9.53700618326116"><ele>78.0</ele><time>2026-04-27T17:25:46Z</time></trkpt><trkpt lat="30.195012197437585" lon="-9.537013512941938"><ele>78.66666666666667</ele><time>2026-04-27T17:25:47Z</time></trkpt><trkpt lat="30.19479790628343" lon="-9.537018481462345"><ele>79.33333333333334</ele><time>2026-04-27T17:25:48Z</time></trkpt><trkpt lat="30.19458108195269" lon="-9.537027988542174"><ele>80.0</ele><time>2026-04-27T17:25:49Z</time></trkpt><trkpt lat="30.194364294791686" lon="-9.537042324528253"><ele>79.33333333333334</ele><time>2026-04-27T17:25:50Z</time></trkpt><trkpt lat="30.1941485363433" lon="-9.537057987086472"><ele>78.66666666666667</ele><time>2026-04-27T17:25:51Z</time></trkpt><trkpt lat="30.193931706121028" lon="-9.53707443123005"><ele>78.0</ele><time>2026-04-27T17:25:52Z</time></trkpt><trkpt lat="30.19371688679731" lon="-9.53708953039726"><ele>77.66666666666667</ele><time>2026-04-27T17:25:53Z</time></trkpt><trkpt lat="30.193498488523296" lon="-9.537102908885002"><ele>77.33333333333334</ele><time>2026-04-27T17:25:54Z</time></trkpt><trkpt lat="30.193282168293454" lon="-9.537112217584918"><ele>77.0</ele><time>2026-04-27T17:25:55Z</time></trkpt><trkpt lat="30.193063709973657" lon="-9.537123479185643"><ele>77.0</ele><time>2026-04-27T17:25:56Z</time></trkpt><trkpt lat="30.192847025331563" lon="-9.537133312637765"><ele>77.0</ele><time>2026-04-27T17:25:57Z</time></trkpt><trkpt lat="30.1926317191485" lon="-9.537141079131471"><ele>77.0</ele><time>2026-04-27T17:25:58Z</time></trkpt><trkpt lat="30.192414150634413" lon="-9.53714689566138"><ele>77.33333333333334</ele><time>2026-04-27T17:25:59Z</time></trkpt><trkpt lat="30.19219749571572" lon="-9.537154238937111"><ele>77.66666666666667</ele><time>2026-04-27T17:26:00Z</time></trkpt><trkpt lat="30.191983687079162" lon="-9.537166720060192"><ele>78.0</ele><time>2026-04-27T17:26:01Z</time></trkpt><trkpt lat="30.191766484278073" lon="-9.53717561368864"><ele>78.0</ele><time>2026-04-27T17:26:02Z</time></trkpt><trkpt lat="30.19154804790684" lon="-9.537184415270636"><ele>78.0</ele><time>2026-04-27T17:26:03Z</time></trkpt><trkpt lat="30.191331561820213" lon="-9.537193968339748"><ele>78.0</ele><time>2026-04-27T17:26:04Z</time></trkpt><trkpt lat="30.191114974735054" lon="-9.53720388717495"><ele>77.66666666666667</ele><time>2026-04-27T17:26:05Z</time></trkpt><trkpt lat="30.190895417526598" lon="-9.53721306047116"><ele>77.33333333333334</ele><time>2026-04-27T17:26:06Z</time></trkpt><trkpt lat="30.19067544422494" lon="-9.537221749998654"><ele>77.0</ele><time>2026-04-27T17:26:07Z</time></trkpt><trkpt lat="30.19045654876189" lon="-9.537236848580683"><ele>76.66666666666667</ele><time>2026-04-27T17:26:08Z</time></trkpt><trkpt lat="30.190239103430113" lon="-9.537258244120888"><ele>76.33333333333333</ele><time>2026-04-27T17:26:09Z</time></trkpt><trkpt lat="30.19002178375481" lon="-9.537285548164666"><ele>76.0</ele><time>2026-04-27T17:26:10Z</time></trkpt><trkpt lat="30.189802897398426" lon="-9.537304963738842"><ele>76.0</ele><time>2026-04-27T17:26:11Z</time></trkpt><trkpt lat="30.189582794890658" lon="-9.537312904425232"><ele>76.0</ele><time>2026-04-27T17:26:12Z</time></trkpt><trkpt lat="30.189363105488813" lon="-9.53731994202965"><ele>76.0</ele><time>2026-04-27T17:26:13Z</time></trkpt><trkpt lat="30.18914544097968" lon="-9.537333920403738"><ele>76.0</ele><time>2026-04-27T17:26:14Z</time></trkpt><trkpt lat="30.188926257078815" lon="-9.537346758341746"><ele>76.0</ele><time>2026-04-27T17:26:15Z</time></trkpt><trkpt lat="30.188707654543066" lon="-9.53735892066426"><ele>76.0</ele><time>2026-04-27T17:26:16Z</time></trkpt><trkpt lat="30.188489869469745" lon="-9.537370791377674"><ele>76.0</ele><time>2026-04-27T17:26:17Z</time></trkpt><trkpt lat="30.188269093622406" lon="-9.5373831077088"><ele>76.0</ele><time>2026-04-27T17:26:18Z</time></trkpt><trkpt lat="30.18804911336357" lon="-9.537394082531655"><ele>76.0</ele><time>2026-04-27T17:26:19Z</time></trkpt><trkpt lat="30.187828678702875" lon="-9.537405079573997"><ele>76.0</ele><time>2026-04-27T17:26:20Z</time></trkpt><trkpt lat="30.187610296030737" lon="-9.537416161657251"><ele>76.0</ele><time>2026-04-27T17:26:21Z</time></trkpt><trkpt lat="30.187392358288516" lon="-9.537429242620535"><ele>76.0</ele><time>2026-04-27T17:26:22Z</time></trkpt><trkpt lat="30.187177249249793" lon="-9.537440452241864"><ele>76.0</ele><time>2026-04-27T17:26:23Z</time></trkpt><trkpt lat="30.186962685783747" lon="-9.537451130677242"><ele>76.0</ele><time>2026-04-27T17:26:24Z</time></trkpt><trkpt lat="30.1867478610015" lon="-9.537464362482732"><ele>76.0</ele><time>2026-04-27T17:26:25Z</time></trkpt><trkpt lat="30.18653431682924" lon="-9.537477502736392"><ele>76.0</ele><time>2026-04-27T17:26:26Z</time></trkpt><trkpt lat="30.18632061293161" lon="-9.537492882439057"><ele>76.0</ele><time>2026-04-27T17:26:27Z</time></trkpt><trkpt lat="30.186107274246655" lon="-9.537505848512117"><ele>76.0</ele><time>2026-04-27T17:26:28Z</time></trkpt><trkpt lat="30.18589317449159" lon="-9.537517111642286"><ele>76.0</ele><time>2026-04-27T17:26:29Z</time></trkpt><trkpt lat="30.185680018542886" lon="-9.537528233377241"><ele>76.0</ele><time>2026-04-27T17:26:30Z</time></trkpt><trkpt lat="30.18546628361359" lon="-9.537541493596503"><ele>76.0</ele><time>2026-04-27T17:26:31Z</time></trkpt><trkpt lat="30.185255754344944" lon="-9.537554760309822"><ele>76.0</ele><time>2026-04-27T17:26:32Z</time></trkpt><trkpt lat="30.185059040730263" lon="-9.537568058562742"><ele>76.0</ele><time>2026-04-27T17:26:33Z</time></trkpt><trkpt lat="30.184873471798966" lon="-9.537579488814838"><ele>76.0</ele><time>2026-04-27T17:26:34Z</time></trkpt><trkpt lat="30.184698381321937" lon="-9.53759235379779"><ele>76.0</ele><time>2026-04-27T17:26:35Z</time></trkpt><trkpt lat="30.184512353593615" lon="-9.537602651816604"><ele>76.0</ele><time>2026-04-27T17:26:36Z</time></trkpt><trkpt lat="30.184300931170675" lon="-9.537610486534787"><ele>76.0</ele><time>2026-04-27T17:26:37Z</time></trkpt><trkpt lat="30.184080767971288" lon="-9.537617590371948"><ele>76.5</ele><time>2026-04-27T17:26:38Z</time></trkpt><trkpt lat="30.183852883150944" lon="-9.537627163934053"><ele>77.0</ele><time>2026-04-27T17:26:39Z</time></trkpt><trkpt lat="30.18363103787443" lon="-9.537635471870784"><ele>77.0</ele><time>2026-04-27T17:26:40Z</time></trkpt><trkpt lat="30.18341857586786" lon="-9.537645230622704"><ele>77.0</ele><time>2026-04-27T17:26:41Z</time></trkpt><trkpt lat="30.18322290108364" lon="-9.537652242438174"><ele>77.0</ele><time>2026-04-27T17:26:42Z</time></trkpt><trkpt lat="30.183039373081062" lon="-9.537657941204744"><ele>78.0</ele><time>2026-04-27T17:26:43Z</time></trkpt><trkpt lat="30.182878113918033" lon="-9.537660947111746"><ele>79.0</ele><time>2026-04-27T17:26:44Z</time></trkpt><trkpt lat="30.18273235638321" lon="-9.537662616769213"><ele>80.0</ele><time>2026-04-27T17:26:45Z</time></trkpt><trkpt lat="30.182606871104813" lon="-9.537667065156699"><ele>81.0</ele><time>2026-04-27T17:26:46Z</time></trkpt><trkpt lat="30.182494876126917" lon="-9.537675601588592"><ele>81.0</ele><time>2026-04-27T17:26:47Z</time></trkpt><trkpt lat="30.182402547867497" lon="-9.537688057203795"><ele>81.0</ele><time>2026-04-27T17:26:48Z</time></trkpt><trkpt lat="30.182331269927484" lon="-9.537702244656156"><ele>81.0</ele><time>2026-04-27T17:26:49Z</time></trkpt><trkpt lat="30.182230697090663" lon="-9.537740647550853"><ele>81.0</ele><time>2026-04-27T17:26:51Z</time></trkpt><trkpt lat="30.182131802627183" lon="-9.53783235673967"><ele>81.0</ele><time>2026-04-27T17:26:53Z</time></trkpt><trkpt lat="30.182075427268117" lon="-9.53787573368746"><ele>80.5</ele><time>2026-04-27T17:26:54Z</time></trkpt><trkpt lat="30.182010116582134" lon="-9.537900600571305"><ele>80.0</ele><time>2026-04-27T17:26:55Z</time></trkpt><trkpt lat="30.181932156272698" lon="-9.537901826451153"><ele>79.5</ele><time>2026-04-27T17:26:56Z</time></trkpt><trkpt lat="30.181859258282923" lon="-9.537883654083094"><ele>79.0</ele><time>2026-04-27T17:26:57Z</time></trkpt><trkpt lat="30.18177462287728" lon="-9.537848040747297"><ele>78.5</ele><time>2026-04-27T17:26:58Z</time></trkpt><trkpt lat="30.18168573301743" lon="-9.537803100221785"><ele>78.0</ele><time>2026-04-27T17:26:59Z</time></trkpt><trkpt lat="30.18158183768433" lon="-9.537763070790438"><ele>78.0</ele><time>2026-04-27T17:27:00Z</time></trkpt><trkpt lat="30.18147209526981" lon="-9.53774083989126"><ele>78.0</ele><time>2026-04-27T17:27:01Z</time></trkpt><trkpt lat="30.18135458437558" lon="-9.537733463744942"><ele>78.0</ele><time>2026-04-27T17:27:02Z</time></trkpt><trkpt lat="30.18122429926477" lon="-9.537734548712427"><ele>78.0</ele><time>2026-04-27T17:27:03Z</time></trkpt><trkpt lat="30.181077780114858" lon="-9.537735239235026"><ele>78.0</ele><time>2026-04-27T17:27:04Z</time></trkpt><trkpt lat="30.18092411340977" lon="-9.537743181471184"><ele>78.0</ele><time>2026-04-27T17:27:05Z</time></trkpt><trkpt lat="30.1807687177045" lon="-9.5377492492484"><ele>78.0</ele><time>2026-04-27T17:27:06Z</time></trkpt><trkpt lat="30.180599795456683" lon="-9.537753913771443"><ele>77.0</ele><time>2026-04-27T17:27:07Z</time></trkpt><trkpt lat="30.180430841704116" lon="-9.537758560200711"><ele>76.0</ele><time>2026-04-27T17:27:08Z</time></trkpt><trkpt lat="30.180262871018396" lon="-9.537767826635195"><ele>75.0</ele><time>2026-04-27T17:27:09Z</time></trkpt><trkpt lat="30.180091024850064" lon="-9.537782506546288"><ele>75.0</ele><time>2026-04-27T17:27:10Z</time></trkpt><trkpt lat="30.179918219436193" lon="-9.537799023165231"><ele>75.0</ele><time>2026-04-27T17:27:11Z</time></trkpt><trkpt lat="30.179740404494083" lon="-9.537812559942095"><ele>75.0</ele><time>2026-04-27T17:27:12Z</time></trkpt><trkpt lat="30.179561362963366" lon="-9.537826381077856"><ele>75.33333333333333</ele><time>2026-04-27T17:27:13Z</time></trkpt><trkpt lat="30.17938405959301" lon="-9.537838688203164"><ele>75.66666666666666</ele><time>2026-04-27T17:27:14Z</time></trkpt><trkpt lat="30.179209767095863" lon="-9.537849236205798"><ele>76.0</ele><time>2026-04-27T17:27:15Z</time></trkpt><trkpt lat="30.17903478401824" lon="-9.537861680664188"><ele>76.33333333333333</ele><time>2026-04-27T17:27:16Z</time></trkpt><trkpt lat="30.17887255426997" lon="-9.537873431885874"><ele>76.66666666666667</ele><time>2026-04-27T17:27:17Z</time></trkpt><trkpt lat="30.178714712273067" lon="-9.537883689121031"><ele>77.0</ele><time>2026-04-27T17:27:18Z</time></trkpt><trkpt lat="30.17856156904181" lon="-9.53788956120221"><ele>76.33333333333334</ele><time>2026-04-27T17:27:19Z</time></trkpt><trkpt lat="30.178410672811946" lon="-9.537894179163676"><ele>75.66666666666667</ele><time>2026-04-27T17:27:20Z</time></trkpt><trkpt lat="30.17826009025896" lon="-9.53790075857203"><ele>75.0</ele><time>2026-04-27T17:27:21Z</time></trkpt><trkpt lat="30.178111258793788" lon="-9.537907280027838"><ele>75.0</ele><time>2026-04-27T17:27:22Z</time></trkpt><trkpt lat="30.177966223881786" lon="-9.537914476626561"><ele>75.0</ele><time>2026-04-27T17:27:23Z</time></trkpt><trkpt lat="30.177818340004652" lon="-9.537922442177956"><ele>75.0</ele><time>2026-04-27T17:27:24Z</time></trkpt><trkpt lat="30.177666889513038" lon="-9.537930655569848"><ele>75.0</ele><time>2026-04-27T17:27:25Z</time></trkpt><trkpt lat="30.17751094435372" lon="-9.53793582298704"><ele>75.0</ele><time>2026-04-27T17:27:26Z</time></trkpt><trkpt lat="30.177350560174713" lon="-9.537943225891"><ele>75.0</ele><time>2026-04-27T17:27:27Z</time></trkpt><trkpt lat="30.177185456746773" lon="-9.53794721482502"><ele>75.0</ele><time>2026-04-27T17:27:28Z</time></trkpt><trkpt lat="30.17701704683565" lon="-9.537950647455656"><ele>75.0</ele><time>2026-04-27T17:27:29Z</time></trkpt><trkpt lat="30.17684658433217" lon="-9.537955661147068"><ele>75.0</ele><time>2026-04-27T17:27:30Z</time></trkpt><trkpt lat="30.17667577393651" lon="-9.53796192160057"><ele>75.0</ele><time>2026-04-27T17:27:31Z</time></trkpt><trkpt lat="30.176512888711287" lon="-9.537968940016492"><ele>75.66666666666667</ele><time>2026-04-27T17:27:32Z</time></trkpt><trkpt lat="30.17634872656185" lon="-9.537975446797594"><ele>76.33333333333334</ele><time>2026-04-27T17:27:33Z</time></trkpt><trkpt lat="30.17618200065128" lon="-9.537983002315277"><ele>77.0</ele><time>2026-04-27T17:27:34Z</time></trkpt><trkpt lat="30.17602133732032" lon="-9.537991135500997"><ele>77.0</ele><time>2026-04-27T17:27:35Z</time></trkpt><trkpt lat="30.17586132065273" lon="-9.537997873417986"><ele>77.0</ele><time>2026-04-27T17:27:36Z</time></trkpt><trkpt lat="30.17569765421531" lon="-9.538007964383018"><ele>77.0</ele><time>2026-04-27T17:27:37Z</time></trkpt><trkpt lat="30.175533515101748" lon="-9.538019073446009"><ele>76.33333333333334</ele><time>2026-04-27T17:27:38Z</time></trkpt><trkpt lat="30.17537198166086" lon="-9.538037360743772"><ele>75.66666666666667</ele><time>2026-04-27T17:27:39Z</time></trkpt><trkpt lat="30.175216889239472" lon="-9.53805779483033"><ele>75.0</ele><time>2026-04-27T17:27:40Z</time></trkpt><trkpt lat="30.175055719257397" lon="-9.538077384565199"><ele>75.0</ele><time>2026-04-27T17:27:41Z</time></trkpt><trkpt lat="30.174894021859572" lon="-9.538092226619998"><ele>75.0</ele><time>2026-04-27T17:27:42Z</time></trkpt><trkpt lat="30.174733391929625" lon="-9.538104918951435"><ele>75.0</ele><time>2026-04-27T17:27:43Z</time></trkpt><trkpt lat="30.174570989796045" lon="-9.538113360900015"><ele>75.33333333333333</ele><time>2026-04-27T17:27:44Z</time></trkpt><trkpt lat="30.174409798934125" lon="-9.538122767904463"><ele>75.66666666666666</ele><time>2026-04-27T17:27:45Z</time></trkpt><trkpt lat="30.17425045964521" lon="-9.538131794044276"><ele>76.0</ele><time>2026-04-27T17:27:46Z</time></trkpt><trkpt lat="30.1740976642424" lon="-9.538140245884373"><ele>76.0</ele><time>2026-04-27T17:27:47Z</time></trkpt><trkpt lat="30.173941477355715" lon="-9.538147606024777"><ele>76.0</ele><time>2026-04-27T17:27:48Z</time></trkpt><trkpt lat="30.173785368130336" lon="-9.538156289427357"><ele>76.0</ele><time>2026-04-27T17:27:49Z</time></trkpt><trkpt lat="30.17362903746288" lon="-9.53816459237952"><ele>76.0</ele><time>2026-04-27T17:27:50Z</time></trkpt><trkpt lat="30.17347119183281" lon="-9.538172902707808"><ele>76.0</ele><time>2026-04-27T17:27:51Z</time></trkpt><trkpt lat="30.173312544048436" lon="-9.538181880188752"><ele>76.0</ele><time>2026-04-27T17:27:52Z</time></trkpt><trkpt lat="30.17315189427284" lon="-9.538190419420078"><ele>75.33333333333333</ele><time>2026-04-27T17:27:53Z</time></trkpt><trkpt lat="30.17298656053653" lon="-9.538199376821453"><ele>74.66666666666667</ele><time>2026-04-27T17:27:54Z</time></trkpt><trkpt lat="30.172821728061322" lon="-9.538207051161987"><ele>74.0</ele><time>2026-04-27T17:27:55Z</time></trkpt><trkpt lat="30.1726528956173" lon="-9.53821783846831"><ele>74.0</ele><time>2026-04-27T17:27:56Z</time></trkpt><trkpt lat="30.172483033088756" lon="-9.5382272251705"><ele>74.0</ele><time>2026-04-27T17:27:57Z</time></trkpt><trkpt lat="30.1723093265097" lon="-9.53823802429702"><ele>74.0</ele><time>2026-04-27T17:27:58Z</time></trkpt><trkpt lat="30.172132372713545" lon="-9.538249331317358"><ele>74.66666666666667</ele><time>2026-04-27T17:27:59Z</time></trkpt><trkpt lat="30.171951618547194" lon="-9.538258169606896"><ele>75.33333333333333</ele><time>2026-04-27T17:28:00Z</time></trkpt><trkpt lat="30.171762213012727" lon="-9.538267901101454"><ele>76.0</ele><time>2026-04-27T17:28:01Z</time></trkpt><trkpt lat="30.171573256797366" lon="-9.538276718858588"><ele>76.66666666666666</ele><time>2026-04-27T17:28:02Z</time></trkpt><trkpt lat="30.171388511563233" lon="-9.538283393928731"><ele>77.33333333333333</ele><time>2026-04-27T17:28:03Z</time></trkpt><trkpt lat="30.171207918016552" lon="-9.53829074675286"><ele>78.0</ele><time>2026-04-27T17:28:04Z</time></trkpt><trkpt lat="30.171029426135433" lon="-9.538297223306454"><ele>78.0</ele><time>2026-04-27T17:28:05Z</time></trkpt><trkpt lat="30.170848618470895" lon="-9.538306319632754"><ele>78.0</ele><time>2026-04-27T17:28:06Z</time></trkpt><trkpt lat="30.170669108168457" lon="-9.5383150305205"><ele>78.0</ele><time>2026-04-27T17:28:07Z</time></trkpt><trkpt lat="30.17048999928525" lon="-9.538321773965112"><ele>78.0</ele><time>2026-04-27T17:28:08Z</time></trkpt><trkpt lat="30.17031363289446" lon="-9.53833021653978"><ele>78.0</ele><time>2026-04-27T17:28:09Z</time></trkpt><trkpt lat="30.170126984927197" lon="-9.538340366961515"><ele>78.0</ele><time>2026-04-27T17:28:10Z</time></trkpt><trkpt lat="30.169932119851364" lon="-9.538350055206772"><ele>78.0</ele><time>2026-04-27T17:28:11Z</time></trkpt><trkpt lat="30.169749157181204" lon="-9.538360193952588"><ele>78.0</ele><time>2026-04-27T17:28:12Z</time></trkpt><trkpt lat="30.169575768425094" lon="-9.538370704841489"><ele>78.0</ele><time>2026-04-27T17:28:13Z</time></trkpt><trkpt lat="30.169402339542025" lon="-9.538381508982768"><ele>78.0</ele><time>2026-04-27T17:28:14Z</time></trkpt><trkpt lat="30.169225115538275" lon="-9.538389125662853"><ele>78.0</ele><time>2026-04-27T17:28:15Z</time></trkpt><trkpt lat="30.169045440063673" lon="-9.53839416644223"><ele>78.0</ele><time>2026-04-27T17:28:16Z</time></trkpt><trkpt lat="30.168856104169972" lon="-9.538397474172392"><ele>78.0</ele><time>2026-04-27T17:28:17Z</time></trkpt><trkpt lat="30.168664609627452" lon="-9.53840298211916"><ele>78.0</ele><time>2026-04-27T17:28:18Z</time></trkpt><trkpt lat="30.16847279847038" lon="-9.53841167660621"><ele>78.0</ele><time>2026-04-27T17:28:19Z</time></trkpt><trkpt lat="30.168296846572336" lon="-9.538421352919265"><ele>77.33333333333333</ele><time>2026-04-27T17:28:20Z</time></trkpt><trkpt lat="30.168126936381295" lon="-9.538428701041338"><ele>76.66666666666666</ele><time>2026-04-27T17:28:21Z</time></trkpt><trkpt lat="30.167960863992782" lon="-9.538439535221256"><ele>76.0</ele><time>2026-04-27T17:28:22Z</time></trkpt><trkpt lat="30.167791026690477" lon="-9.53844951277143"><ele>76.0</ele><time>2026-04-27T17:28:23Z</time></trkpt><trkpt lat="30.167615561054962" lon="-9.538457020868831"><ele>76.0</ele><time>2026-04-27T17:28:24Z</time></trkpt><trkpt lat="30.167440151845348" lon="-9.53846488524697"><ele>76.0</ele><time>2026-04-27T17:28:25Z</time></trkpt><trkpt lat="30.16725327567808" lon="-9.538480590675839"><ele>76.66666666666666</ele><time>2026-04-27T17:28:26Z</time></trkpt><trkpt lat="30.16706616931078" lon="-9.538498804241641"><ele>77.33333333333333</ele><time>2026-04-27T17:28:27Z</time></trkpt><trkpt lat="30.166874355278967" lon="-9.538521815460816"><ele>78.0</ele><time>2026-04-27T17:28:28Z</time></trkpt><trkpt lat="30.166686010330473" lon="-9.538542418903118"><ele>77.33333333333333</ele><time>2026-04-27T17:28:29Z</time></trkpt><trkpt lat="30.166502808967675" lon="-9.538559578465346"><ele>76.66666666666666</ele><time>2026-04-27T17:28:30Z</time></trkpt><trkpt lat="30.166322311332895" lon="-9.538570664676536"><ele>76.0</ele><time>2026-04-27T17:28:31Z</time></trkpt><trkpt lat="30.16614341159627" lon="-9.5385774605487"><ele>76.0</ele><time>2026-04-27T17:28:32Z</time></trkpt><trkpt lat="30.165975678819553" lon="-9.538581884812093"><ele>76.0</ele><time>2026-04-27T17:28:33Z</time></trkpt><trkpt lat="30.165816698397546" lon="-9.538587008718187"><ele>76.0</ele><time>2026-04-27T17:28:34Z</time></trkpt><trkpt lat="30.165667530554913" lon="-9.538595088775356"><ele>76.0</ele><time>2026-04-27T17:28:35Z</time></trkpt><trkpt lat="30.165515768418736" lon="-9.538605905962829"><ele>76.0</ele><time>2026-04-27T17:28:36Z</time></trkpt><trkpt lat="30.16534701564533" lon="-9.538615081171692"><ele>76.0</ele><time>2026-04-27T17:28:37Z</time></trkpt><trkpt lat="30.165163405322183" lon="-9.538619353959795"><ele>76.0</ele><time>2026-04-27T17:28:38Z</time></trkpt><trkpt lat="30.164970405538746" lon="-9.538622466603398"><ele>76.0</ele><time>2026-04-27T17:28:39Z</time></trkpt><trkpt lat="30.16478242865998" lon="-9.538629517959244"><ele>76.0</ele><time>2026-04-27T17:28:40Z</time></trkpt><trkpt lat="30.16458794841057" lon="-9.538640060929795"><ele>76.0</ele><time>2026-04-27T17:28:41Z</time></trkpt><trkpt lat="30.164392482186567" lon="-9.53865150780367"><ele>76.0</ele><time>2026-04-27T17:28:42Z</time></trkpt><trkpt lat="30.16420305099597" lon="-9.538660377855699"><ele>76.0</ele><time>2026-04-27T17:28:43Z</time></trkpt><trkpt lat="30.1640149800955" lon="-9.538673385267508"><ele>76.0</ele><time>2026-04-27T17:28:44Z</time></trkpt><trkpt lat="30.16382348297964" lon="-9.538686101425414"><ele>76.0</ele><time>2026-04-27T17:28:45Z</time></trkpt><trkpt lat="30.163633088075567" lon="-9.538700775541606"><ele>76.0</ele><time>2026-04-27T17:28:46Z</time></trkpt><trkpt lat="30.163440218293797" lon="-9.538718673474836"><ele>75.66666666666666</ele><time>2026-04-27T17:28:47Z</time></trkpt><trkpt lat="30.163247799752156" lon="-9.53873468909288"><ele>75.33333333333333</ele><time>2026-04-27T17:28:48Z</time></trkpt><trkpt lat="30.163067265543045" lon="-9.53874742202043"><ele>75.0</ele><time>2026-04-27T17:28:49Z</time></trkpt><trkpt lat="30.162890440054476" lon="-9.538763085915146"><ele>75.0</ele><time>2026-04-27T17:28:50Z</time></trkpt><trkpt lat="30.162712635054547" lon="-9.53877675248905"><ele>75.0</ele><time>2026-04-27T17:28:51Z</time></trkpt><trkpt lat="30.162530537270186" lon="-9.538794614025715"><ele>75.0</ele><time>2026-04-27T17:28:52Z</time></trkpt><trkpt lat="30.16234528082385" lon="-9.53881712748078"><ele>75.0</ele><time>2026-04-27T17:28:53Z</time></trkpt><trkpt lat="30.16215901114413" lon="-9.538846621566515"><ele>75.0</ele><time>2026-04-27T17:28:54Z</time></trkpt><trkpt lat="30.16197223473027" lon="-9.538882982304466"><ele>75.0</ele><time>2026-04-27T17:28:55Z</time></trkpt><trkpt lat="30.16178512939542" lon="-9.53892159530015"><ele>75.0</ele><time>2026-04-27T17:28:56Z</time></trkpt><trkpt lat="30.161589975513433" lon="-9.538967943759213"><ele>75.0</ele><time>2026-04-27T17:28:57Z</time></trkpt><trkpt lat="30.161396917396303" lon="-9.539022248327813"><ele>75.0</ele><time>2026-04-27T17:28:58Z</time></trkpt><trkpt lat="30.161202576454706" lon="-9.539082252602773"><ele>75.33333333333333</ele><time>2026-04-27T17:28:59Z</time></trkpt><trkpt lat="30.161011743684906" lon="-9.539145668776085"><ele>75.66666666666666</ele><time>2026-04-27T17:29:00Z</time></trkpt><trkpt lat="30.16082865646518" lon="-9.539211679399305"><ele>76.0</ele><time>2026-04-27T17:29:01Z</time></trkpt><trkpt lat="30.160647393326514" lon="-9.539278680686019"><ele>76.0</ele><time>2026-04-27T17:29:02Z</time></trkpt><trkpt lat="30.160470837334753" lon="-9.539346238419803"><ele>76.0</ele><time>2026-04-27T17:29:03Z</time></trkpt><trkpt lat="30.160289553469628" lon="-9.539418606323657"><ele>76.0</ele><time>2026-04-27T17:29:04Z</time></trkpt><trkpt lat="30.160108401602752" lon="-9.539492017828621"><ele>75.33333333333333</ele><time>2026-04-27T17:29:05Z</time></trkpt><trkpt lat="30.159927932679143" lon="-9.539565551383772"><ele>74.66666666666667</ele><time>2026-04-27T17:29:06Z</time></trkpt><trkpt lat="30.159746746287" lon="-9.539639812607229"><ele>74.0</ele><time>2026-04-27T17:29:07Z</time></trkpt><trkpt lat="30.15956671651727" lon="-9.539712520774371"><ele>74.0</ele><time>2026-04-27T17:29:08Z</time></trkpt><trkpt lat="30.15939653109017" lon="-9.53978059520039"><ele>74.0</ele><time>2026-04-27T17:29:09Z</time></trkpt><trkpt lat="30.159232623840868" lon="-9.539845418489717"><ele>74.0</ele><time>2026-04-27T17:29:10Z</time></trkpt><trkpt lat="30.15907608723625" lon="-9.539908978144272"><ele>74.33333333333334</ele><time>2026-04-27T17:29:11Z</time></trkpt><trkpt lat="30.158919282023856" lon="-9.539971023458872"><ele>74.66666666666667</ele><time>2026-04-27T17:29:12Z</time></trkpt><trkpt lat="30.158760151846643" lon="-9.540033080722308"><ele>75.0</ele><time>2026-04-27T17:29:13Z</time></trkpt><trkpt lat="30.15859570202617" lon="-9.540097065848643"><ele>75.0</ele><time>2026-04-27T17:29:14Z</time></trkpt><trkpt lat="30.158429359477292" lon="-9.540163162790337"><ele>75.0</ele><time>2026-04-27T17:29:15Z</time></trkpt><trkpt lat="30.158259857156573" lon="-9.540232481289689"><ele>75.0</ele><time>2026-04-27T17:29:16Z</time></trkpt><trkpt lat="30.15809186849529" lon="-9.540302694258733"><ele>75.33333333333333</ele><time>2026-04-27T17:29:17Z</time></trkpt><trkpt lat="30.157921252016916" lon="-9.540373777719225"><ele>75.66666666666666</ele><time>2026-04-27T17:29:18Z</time></trkpt><trkpt lat="30.157748868103578" lon="-9.540444998988871"><ele>76.0</ele><time>2026-04-27T17:29:19Z</time></trkpt><trkpt lat="30.15757139499914" lon="-9.54051669390371"><ele>76.0</ele><time>2026-04-27T17:29:20Z</time></trkpt><trkpt lat="30.15739060860333" lon="-9.540588455518085"><ele>76.0</ele><time>2026-04-27T17:29:21Z</time></trkpt><trkpt lat="30.157209525088575" lon="-9.540660855498816"><ele>76.0</ele><time>2026-04-27T17:29:22Z</time></trkpt><trkpt lat="30.157026109218865" lon="-9.54073289853163"><ele>76.0</ele><time>2026-04-27T17:29:23Z</time></trkpt><trkpt lat="30.156842052213957" lon="-9.540805378002638"><ele>76.0</ele><time>2026-04-27T17:29:24Z</time></trkpt><trkpt lat="30.1566585812999" lon="-9.54087942349024"><ele>76.0</ele><time>2026-04-27T17:29:25Z</time></trkpt><trkpt lat="30.15647282261657" lon="-9.5409517495948"><ele>76.0</ele><time>2026-04-27T17:29:26Z</time></trkpt><trkpt lat="30.156286272419035" lon="-9.541022798326756"><ele>76.0</ele><time>2026-04-27T17:29:27Z</time></trkpt><trkpt lat="30.15610044921985" lon="-9.541094559224492"><ele>76.0</ele><time>2026-04-27T17:29:28Z</time></trkpt><trkpt lat="30.15591109268854" lon="-9.541170065201174"><ele>75.33333333333333</ele><time>2026-04-27T17:29:29Z</time></trkpt><trkpt lat="30.155725633633857" lon="-9.541244534088367"><ele>74.66666666666667</ele><time>2026-04-27T17:29:30Z</time></trkpt><trkpt lat="30.155541690004338" lon="-9.541318090104701"><ele>74.0</ele><time>2026-04-27T17:29:31Z</time></trkpt><trkpt lat="30.155351992077634" lon="-9.541398462919553"><ele>73.66666666666667</ele><time>2026-04-27T17:29:32Z</time></trkpt><trkpt lat="30.155169203576275" lon="-9.541478148332164"><ele>73.33333333333333</ele><time>2026-04-27T17:29:33Z</time></trkpt><trkpt lat="30.15498121230828" lon="-9.541553975581978"><ele>73.0</ele><time>2026-04-27T17:29:34Z</time></trkpt><trkpt lat="30.154783182394603" lon="-9.541623074552577"><ele>73.0</ele><time>2026-04-27T17:29:35Z</time></trkpt><trkpt lat="30.15458684630859" lon="-9.541689482653965"><ele>73.0</ele><time>2026-04-27T17:29:36Z</time></trkpt><trkpt lat="30.154393800344213" lon="-9.541760664725656"><ele>73.0</ele><time>2026-04-27T17:29:37Z</time></trkpt><trkpt lat="30.154208250183373" lon="-9.541836486866483"><ele>73.0</ele><time>2026-04-27T17:29:38Z</time></trkpt><trkpt lat="30.154020794624923" lon="-9.541914544168117"><ele>73.0</ele><time>2026-04-27T17:29:39Z</time></trkpt><trkpt lat="30.15382955927613" lon="-9.541990687769841"><ele>73.0</ele><time>2026-04-27T17:29:40Z</time></trkpt><trkpt lat="30.153633663385087" lon="-9.542066807897083"><ele>73.66666666666666</ele><time>2026-04-27T17:29:41Z</time></trkpt><trkpt lat="30.153433160828985" lon="-9.542145836535685"><ele>74.33333333333333</ele><time>2026-04-27T17:29:42Z</time></trkpt><trkpt lat="30.15323397977969" lon="-9.542224034379558"><ele>75.0</ele><time>2026-04-27T17:29:43Z</time></trkpt><trkpt lat="30.153033753752133" lon="-9.542304576764934"><ele>75.0</ele><time>2026-04-27T17:29:44Z</time></trkpt><trkpt lat="30.15283290745208" lon="-9.54239065901152"><ele>75.0</ele><time>2026-04-27T17:29:45Z</time></trkpt><trkpt lat="30.152628719869323" lon="-9.542484604235492"><ele>75.0</ele><time>2026-04-27T17:29:46Z</time></trkpt><trkpt lat="30.15241903615468" lon="-9.542578345584676"><ele>75.0</ele><time>2026-04-27T17:29:47Z</time></trkpt><trkpt lat="30.1522082576416" lon="-9.542669198864571"><ele>75.0</ele><time>2026-04-27T17:29:48Z</time></trkpt><trkpt lat="30.151994636172528" lon="-9.542760488719082"><ele>75.0</ele><time>2026-04-27T17:29:49Z</time></trkpt><trkpt lat="30.15177808940441" lon="-9.54284810718075"><ele>75.0</ele><time>2026-04-27T17:29:50Z</time></trkpt><trkpt lat="30.15156072450743" lon="-9.542935544059837"><ele>75.5</ele><time>2026-04-27T17:29:51Z</time></trkpt><trkpt lat="30.15134237585587" lon="-9.543023602968445"><ele>76.0</ele><time>2026-04-27T17:29:52Z</time></trkpt><trkpt lat="30.151123017545256" lon="-9.543112258985607"><ele>76.0</ele><time>2026-04-27T17:29:53Z</time></trkpt><trkpt lat="30.150901602666973" lon="-9.543203638226974"><ele>76.0</ele><time>2026-04-27T17:29:54Z</time></trkpt><trkpt lat="30.1506805646988" lon="-9.543295149581724"><ele>76.33333333333333</ele><time>2026-04-27T17:29:55Z</time></trkpt><trkpt lat="30.150471269158395" lon="-9.543381155002335"><ele>76.66666666666667</ele><time>2026-04-27T17:29:56Z</time></trkpt><trkpt lat="30.15026930114331" lon="-9.543464452894014"><ele>77.0</ele><time>2026-04-27T17:29:57Z</time></trkpt><trkpt lat="30.15006870612116" lon="-9.543545090945127"><ele>77.33333333333334</ele><time>2026-04-27T17:29:58Z</time></trkpt><trkpt lat="30.149863032461035" lon="-9.543626062780213"><ele>77.66666666666667</ele><time>2026-04-27T17:29:59Z</time></trkpt><trkpt lat="30.14965530500247" lon="-9.543707231041513"><ele>78.0</ele><time>2026-04-27T17:30:00Z</time></trkpt><trkpt lat="30.14945023565466" lon="-9.543786282998722"><ele>77.66666666666667</ele><time>2026-04-27T17:30:01Z</time></trkpt><trkpt lat="30.149248777121432" lon="-9.543863679676317"><ele>77.33333333333334</ele><time>2026-04-27T17:30:02Z</time></trkpt><trkpt lat="30.149055117502893" lon="-9.543941221042333"><ele>77.0</ele><time>2026-04-27T17:30:03Z</time></trkpt><trkpt lat="30.148870638602627" lon="-9.544014883057034"><ele>77.0</ele><time>2026-04-27T17:30:04Z</time></trkpt><trkpt lat="30.14869608119307" lon="-9.544085999707642"><ele>77.0</ele><time>2026-04-27T17:30:05Z</time></trkpt><trkpt lat="30.148531928695867" lon="-9.544154006447341"><ele>77.0</ele><time>2026-04-27T17:30:06Z</time></trkpt><trkpt lat="30.148375096917203" lon="-9.544224227979747"><ele>77.0</ele><time>2026-04-27T17:30:07Z</time></trkpt><trkpt lat="30.148229571213903" lon="-9.544292056705554"><ele>77.0</ele><time>2026-04-27T17:30:08Z</time></trkpt><trkpt lat="30.14809511331817" lon="-9.544365376473785"><ele>77.0</ele><time>2026-04-27T17:30:09Z</time></trkpt><trkpt lat="30.147970949082715" lon="-9.544446733772235"><ele>77.0</ele><time>2026-04-27T17:30:10Z</time></trkpt><trkpt lat="30.147854539290904" lon="-9.544524944470265"><ele>76.75</ele><time>2026-04-27T17:30:11Z</time></trkpt><trkpt lat="30.14774472903665" lon="-9.544581044365955"><ele>76.5</ele><time>2026-04-27T17:30:12Z</time></trkpt><trkpt lat="30.1476233163213" lon="-9.544605693884407"><ele>76.25</ele><time>2026-04-27T17:30:13Z</time></trkpt><trkpt lat="30.147484392384218" lon="-9.544623297085918"><ele>76.0</ele><time>2026-04-27T17:30:14Z</time></trkpt><trkpt lat="30.147339973453448" lon="-9.544649319030434"><ele>75.33333333333333</ele><time>2026-04-27T17:30:15Z</time></trkpt><trkpt lat="30.147185876632765" lon="-9.544693895215593"><ele>74.66666666666667</ele><time>2026-04-27T17:30:16Z</time></trkpt><trkpt lat="30.147020089508032" lon="-9.544747108598772"><ele>74.0</ele><time>2026-04-27T17:30:17Z</time></trkpt><trkpt lat="30.146840889522338" lon="-9.54481450625723"><ele>74.0</ele><time>2026-04-27T17:30:18Z</time></trkpt><trkpt lat="30.146651249641867" lon="-9.544889578708748"><ele>74.0</ele><time>2026-04-27T17:30:19Z</time></trkpt><trkpt lat="30.14645230026981" lon="-9.544968145739874"><ele>74.0</ele><time>2026-04-27T17:30:20Z</time></trkpt><trkpt lat="30.146247644569307" lon="-9.545049371472325"><ele>74.0</ele><time>2026-04-27T17:30:21Z</time></trkpt><trkpt lat="30.14604000392794" lon="-9.54512996609639"><ele>74.0</ele><time>2026-04-27T17:30:22Z</time></trkpt><trkpt lat="30.145825911485936" lon="-9.545217029197268"><ele>74.0</ele><time>2026-04-27T17:30:23Z</time></trkpt><trkpt lat="30.145610198599293" lon="-9.545313555814813"><ele>74.5</ele><time>2026-04-27T17:30:24Z</time></trkpt><trkpt lat="30.145385579577553" lon="-9.545417662338258"><ele>75.0</ele><time>2026-04-27T17:30:25Z</time></trkpt><trkpt lat="30.145153574173555" lon="-9.545523721795128"><ele>75.0</ele><time>2026-04-27T17:30:26Z</time></trkpt><trkpt lat="30.144919071303683" lon="-9.545625432331908"><ele>75.0</ele><time>2026-04-27T17:30:27Z</time></trkpt><trkpt lat="30.144682534696397" lon="-9.545722786933311"><ele>75.5</ele><time>2026-04-27T17:30:28Z</time></trkpt><trkpt lat="30.144442572397203" lon="-9.545820228785235"><ele>76.0</ele><time>2026-04-27T17:30:29Z</time></trkpt><trkpt lat="30.144201576809827" lon="-9.545920438251818"><ele>77.0</ele><time>2026-04-27T17:30:30Z</time></trkpt><trkpt lat="30.143961015886575" lon="-9.546018557084443"><ele>78.0</ele><time>2026-04-27T17:30:31Z</time></trkpt><trkpt lat="30.14372425025589" lon="-9.546113886261717"><ele>78.0</ele><time>2026-04-27T17:30:32Z</time></trkpt><trkpt lat="30.143489489711886" lon="-9.546206304143196"><ele>78.0</ele><time>2026-04-27T17:30:33Z</time></trkpt><trkpt lat="30.143259626875313" lon="-9.54629540159169"><ele>76.0</ele><time>2026-04-27T17:30:34Z</time></trkpt><trkpt lat="30.143038709311742" lon="-9.546383017787699"><ele>74.0</ele><time>2026-04-27T17:30:35Z</time></trkpt><trkpt lat="30.142823597561215" lon="-9.546468669622739"><ele>74.0</ele><time>2026-04-27T17:30:36Z</time></trkpt><trkpt lat="30.142604794077638" lon="-9.546552807582948"><ele>74.0</ele><time>2026-04-27T17:30:37Z</time></trkpt><trkpt lat="30.14238280816408" lon="-9.546635292371914"><ele>75.5</ele><time>2026-04-27T17:30:38Z</time></trkpt><trkpt lat="30.14215992860418" lon="-9.546716934431755"><ele>77.0</ele><time>2026-04-27T17:30:39Z</time></trkpt><trkpt lat="30.14193939351262" lon="-9.546799471052212"><ele>77.0</ele><time>2026-04-27T17:30:40Z</time></trkpt><trkpt lat="30.14171779653361" lon="-9.5468854954053"><ele>77.0</ele><time>2026-04-27T17:30:41Z</time></trkpt><trkpt lat="30.141498041603985" lon="-9.546975903071953"><ele>78.0</ele><time>2026-04-27T17:30:42Z</time></trkpt><trkpt lat="30.141283185387362" lon="-9.547073060364292"><ele>79.0</ele><time>2026-04-27T17:30:43Z</time></trkpt><trkpt lat="30.14106620428305" lon="-9.54717222022904"><ele>79.0</ele><time>2026-04-27T17:30:44Z</time></trkpt><trkpt lat="30.140845449872288" lon="-9.547262683012685"><ele>79.0</ele><time>2026-04-27T17:30:45Z</time></trkpt><trkpt lat="30.140620871092523" lon="-9.54735576493981"><ele>77.5</ele><time>2026-04-27T17:30:46Z</time></trkpt><trkpt lat="30.140393951222855" lon="-9.547450008177139"><ele>76.0</ele><time>2026-04-27T17:30:47Z</time></trkpt><trkpt lat="30.140166592188063" lon="-9.547545848519237"><ele>76.0</ele><time>2026-04-27T17:30:48Z</time></trkpt><trkpt lat="30.13993798549452" lon="-9.54764073915975"><ele>76.0</ele><time>2026-04-27T17:30:49Z</time></trkpt><trkpt lat="30.13970962164096" lon="-9.547730696066612"><ele>76.5</ele><time>2026-04-27T17:30:50Z</time></trkpt><trkpt lat="30.139481509193246" lon="-9.547821757342122"><ele>77.0</ele><time>2026-04-27T17:30:51Z</time></trkpt><trkpt lat="30.139251056718663" lon="-9.547912419247321"><ele>76.5</ele><time>2026-04-27T17:30:52Z</time></trkpt><trkpt lat="30.13902246666783" lon="-9.548001856557299"><ele>76.0</ele><time>2026-04-27T17:30:53Z</time></trkpt><trkpt lat="30.138798149803833" lon="-9.548092648030384"><ele>76.0</ele><time>2026-04-27T17:30:54Z</time></trkpt><trkpt lat="30.13857963482935" lon="-9.548183039083868"><ele>76.0</ele><time>2026-04-27T17:30:55Z</time></trkpt><trkpt lat="30.138361986781945" lon="-9.548272287414859"><ele>76.5</ele><time>2026-04-27T17:30:56Z</time></trkpt><trkpt lat="30.13814122555359" lon="-9.548360705973307"><ele>77.0</ele><time>2026-04-27T17:30:57Z</time></trkpt><trkpt lat="30.13791551842363" lon="-9.548450347763714"><ele>77.0</ele><time>2026-04-27T17:30:58Z</time></trkpt><trkpt lat="30.137687281438012" lon="-9.548538976000527"><ele>77.0</ele><time>2026-04-27T17:30:59Z</time></trkpt><trkpt lat="30.13746172736124" lon="-9.548629057744764"><ele>75.5</ele><time>2026-04-27T17:31:00Z</time></trkpt><trkpt lat="30.137232972818982" lon="-9.54872204901017"><ele>74.0</ele><time>2026-04-27T17:31:01Z</time></trkpt><trkpt lat="30.13700740402315" lon="-9.548818518616782"><ele>74.0</ele><time>2026-04-27T17:31:02Z</time></trkpt><trkpt lat="30.136779210586383" lon="-9.548912916987259"><ele>74.0</ele><time>2026-04-27T17:31:03Z</time></trkpt><trkpt lat="30.13655629167934" lon="-9.54900132651357"><ele>74.5</ele><time>2026-04-27T17:31:04Z</time></trkpt><trkpt lat="30.13633471827165" lon="-9.549084484577403"><ele>75.0</ele><time>2026-04-27T17:31:05Z</time></trkpt><trkpt lat="30.136111992348415" lon="-9.549166341674805"><ele>75.0</ele><time>2026-04-27T17:31:06Z</time></trkpt><trkpt lat="30.135889978956016" lon="-9.549250332033543"><ele>75.0</ele><time>2026-04-27T17:31:07Z</time></trkpt><trkpt lat="30.13566838444084" lon="-9.549335826038726"><ele>76.0</ele><time>2026-04-27T17:31:08Z</time></trkpt><trkpt lat="30.135446762651195" lon="-9.549419693354787"><ele>77.0</ele><time>2026-04-27T17:31:09Z</time></trkpt><trkpt lat="30.135225221379137" lon="-9.549509380223313"><ele>77.0</ele><time>2026-04-27T17:31:10Z</time></trkpt><trkpt lat="30.135007711642626" lon="-9.549597523988691"><ele>77.0</ele><time>2026-04-27T17:31:11Z</time></trkpt><trkpt lat="30.134796218671966" lon="-9.549683230597385"><ele>77.0</ele><time>2026-04-27T17:31:12Z</time></trkpt><trkpt lat="30.13458244339464" lon="-9.54976760620899"><ele>77.0</ele><time>2026-04-27T17:31:13Z</time></trkpt><trkpt lat="30.13436748472675" lon="-9.549851068611659"><ele>77.0</ele><time>2026-04-27T17:31:14Z</time></trkpt><trkpt lat="30.134154429718823" lon="-9.549934741913184"><ele>77.0</ele><time>2026-04-27T17:31:15Z</time></trkpt><trkpt lat="30.133939824290177" lon="-9.550019819760333"><ele>76.0</ele><time>2026-04-27T17:31:16Z</time></trkpt><trkpt lat="30.133724851281904" lon="-9.550105268417603"><ele>75.0</ele><time>2026-04-27T17:31:17Z</time></trkpt><trkpt lat="30.133508138744407" lon="-9.550191287816174"><ele>75.0</ele><time>2026-04-27T17:31:18Z</time></trkpt><trkpt lat="30.133294445639564" lon="-9.55028002270208"><ele>75.0</ele><time>2026-04-27T17:31:19Z</time></trkpt><trkpt lat="30.133082805820443" lon="-9.550377998500908"><ele>74.0</ele><time>2026-04-27T17:31:20Z</time></trkpt><trkpt lat="30.132871442527996" lon="-9.550477223113754"><ele>73.0</ele><time>2026-04-27T17:31:21Z</time></trkpt><trkpt lat="30.13265153487568" lon="-9.55057182723758"><ele>73.0</ele><time>2026-04-27T17:31:22Z</time></trkpt><trkpt lat="30.132434492255257" lon="-9.550660501496486"><ele>73.0</ele><time>2026-04-27T17:31:23Z</time></trkpt><trkpt lat="30.132222469239093" lon="-9.550745671939499"><ele>73.33333333333333</ele><time>2026-04-27T17:31:24Z</time></trkpt><trkpt lat="30.132012397789335" lon="-9.550826709938143"><ele>73.66666666666667</ele><time>2026-04-27T17:31:25Z</time></trkpt><trkpt lat="30.13180551099669" lon="-9.550902006063465"><ele>74.0</ele><time>2026-04-27T17:31:26Z</time></trkpt><trkpt lat="30.131612789328653" lon="-9.550964106343782"><ele>74.33333333333334</ele><time>2026-04-27T17:31:27Z</time></trkpt><trkpt lat="30.131436751544182" lon="-9.551012762732993"><ele>74.66666666666667</ele><time>2026-04-27T17:31:28Z</time></trkpt><trkpt lat="30.131269988370562" lon="-9.551052658702009"><ele>75.0</ele><time>2026-04-27T17:31:29Z</time></trkpt><trkpt lat="30.13111238013633" lon="-9.551086070385546"><ele>75.0</ele><time>2026-04-27T17:31:30Z</time></trkpt><trkpt lat="30.13095828978925" lon="-9.551114909843914"><ele>75.0</ele><time>2026-04-27T17:31:31Z</time></trkpt><trkpt lat="30.13080185198703" lon="-9.5511387370585"><ele>75.0</ele><time>2026-04-27T17:31:32Z</time></trkpt><trkpt lat="30.13064731815641" lon="-9.551161196114958"><ele>75.0</ele><time>2026-04-27T17:31:33Z</time></trkpt><trkpt lat="30.130517512627936" lon="-9.551181437719986"><ele>75.0</ele><time>2026-04-27T17:31:34Z</time></trkpt><trkpt lat="30.130394852292216" lon="-9.551205517961453"><ele>75.0</ele><time>2026-04-27T17:31:35Z</time></trkpt><trkpt lat="30.130286342029084" lon="-9.551239058023468"><ele>75.0</ele><time>2026-04-27T17:31:36Z</time></trkpt><trkpt lat="30.13018619394582" lon="-9.55127824813548"><ele>75.0</ele><time>2026-04-27T17:31:37Z</time></trkpt><trkpt lat="30.13010427013912" lon="-9.551312986025197"><ele>75.0</ele><time>2026-04-27T17:31:38Z</time></trkpt><trkpt lat="30.130038702553005" lon="-9.551337567408538"><ele>75.0</ele><time>2026-04-27T17:31:39Z</time></trkpt><trkpt lat="30.129975108690328" lon="-9.551348262005787"><ele>75.0</ele><time>2026-04-27T17:31:40Z</time></trkpt><trkpt lat="30.129891783978564" lon="-9.551335268673974"><ele>75.0</ele><time>2026-04-27T17:31:41Z</time></trkpt><trkpt lat="30.129781355012344" lon="-9.55131178699292"><ele>75.0</ele><time>2026-04-27T17:31:42Z</time></trkpt><trkpt lat="30.129655067914026" lon="-9.551301823442225"><ele>75.0</ele><time>2026-04-27T17:31:43Z</time></trkpt><trkpt lat="30.129514359832534" lon="-9.551311384130235"><ele>75.0</ele><time>2026-04-27T17:31:44Z</time></trkpt><trkpt lat="30.12934971102245" lon="-9.55133216170815"><ele>75.0</ele><time>2026-04-27T17:31:45Z</time></trkpt><trkpt lat="30.129171586765555" lon="-9.551357834231903"><ele>75.66666666666667</ele><time>2026-04-27T17:31:46Z</time></trkpt><trkpt lat="30.128999869086872" lon="-9.55138476671728"><ele>76.33333333333334</ele><time>2026-04-27T17:31:47Z</time></trkpt><trkpt lat="30.128801137463217" lon="-9.551415402405102"><ele>77.0</ele><time>2026-04-27T17:31:48Z</time></trkpt><trkpt lat="30.128599189274475" lon="-9.55145432911288"><ele>77.0</ele><time>2026-04-27T17:31:49Z</time></trkpt><trkpt lat="30.12841285862947" lon="-9.551491042943807"><ele>77.0</ele><time>2026-04-27T17:31:50Z</time></trkpt><trkpt lat="30.128234662719848" lon="-9.551525658700458"><ele>77.0</ele><time>2026-04-27T17:31:51Z</time></trkpt><trkpt lat="30.128076432025004" lon="-9.551558607530449"><ele>77.0</ele><time>2026-04-27T17:31:52Z</time></trkpt><trkpt lat="30.127931320940284" lon="-9.551584695934428"><ele>77.0</ele><time>2026-04-27T17:31:53Z</time></trkpt><trkpt lat="30.1277965599657" lon="-9.551605849965846"><ele>77.0</ele><time>2026-04-27T17:31:54Z</time></trkpt><trkpt lat="30.12766147143309" lon="-9.551623474435479"><ele>77.0</ele><time>2026-04-27T17:31:55Z</time></trkpt><trkpt lat="30.127523014007803" lon="-9.551643084762333"><ele>76.5</ele><time>2026-04-27T17:31:56Z</time></trkpt><trkpt lat="30.127377823978044" lon="-9.551666218905366"><ele>76.0</ele><time>2026-04-27T17:31:57Z</time></trkpt><trkpt lat="30.12722974803299" lon="-9.551697349616237"><ele>75.5</ele><time>2026-04-27T17:31:58Z</time></trkpt><trkpt lat="30.127082147620794" lon="-9.551724606521187"><ele>75.0</ele><time>2026-04-27T17:31:59Z</time></trkpt><trkpt lat="30.12693742589525" lon="-9.551747639970518"><ele>75.0</ele><time>2026-04-27T17:32:00Z</time></trkpt><trkpt lat="30.12680411496688" lon="-9.55177058558462"><ele>75.0</ele><time>2026-04-27T17:32:01Z</time></trkpt><trkpt lat="30.126679213616516" lon="-9.551789557274425"><ele>75.0</ele><time>2026-04-27T17:32:02Z</time></trkpt><trkpt lat="30.12656398136432" lon="-9.551810381311181"><ele>75.0</ele><time>2026-04-27T17:32:03Z</time></trkpt><trkpt lat="30.126450867809393" lon="-9.551829647784732"><ele>75.25</ele><time>2026-04-27T17:32:04Z</time></trkpt><trkpt lat="30.126327174969205" lon="-9.551850650846696"><ele>75.5</ele><time>2026-04-27T17:32:05Z</time></trkpt><trkpt lat="30.12620094932011" lon="-9.551871704527244"><ele>75.75</ele><time>2026-04-27T17:32:06Z</time></trkpt><trkpt lat="30.12608627023237" lon="-9.551890407431456"><ele>76.0</ele><time>2026-04-27T17:32:07Z</time></trkpt><trkpt lat="30.125976987000822" lon="-9.55191101193956"><ele>76.0</ele><time>2026-04-27T17:32:08Z</time></trkpt><trkpt lat="30.12586005714975" lon="-9.551930098045544"><ele>76.0</ele><time>2026-04-27T17:32:09Z</time></trkpt><trkpt lat="30.12574099855017" lon="-9.551946733313983"><ele>76.0</ele><time>2026-04-27T17:32:10Z</time></trkpt><trkpt lat="30.125625516279175" lon="-9.551961468113362"><ele>76.0</ele><time>2026-04-27T17:32:11Z</time></trkpt><trkpt lat="30.125513094859734" lon="-9.551976967744741"><ele>76.0</ele><time>2026-04-27T17:32:12Z</time></trkpt><trkpt lat="30.12540485602718" lon="-9.551992334374221"><ele>76.0</ele><time>2026-04-27T17:32:13Z</time></trkpt><trkpt lat="30.125301288967083" lon="-9.55200993879275"><ele>76.0</ele><time>2026-04-27T17:32:14Z</time></trkpt><trkpt lat="30.12519982137962" lon="-9.552026884024736"><ele>76.0</ele><time>2026-04-27T17:32:15Z</time></trkpt><trkpt lat="30.125096572026187" lon="-9.552044040473337"><ele>76.0</ele><time>2026-04-27T17:32:16Z</time></trkpt><trkpt lat="30.124992033211875" lon="-9.552059906382064"><ele>76.25</ele><time>2026-04-27T17:32:17Z</time></trkpt><trkpt lat="30.12488180501639" lon="-9.55207393798868"><ele>76.5</ele><time>2026-04-27T17:32:18Z</time></trkpt><trkpt lat="30.12476831262046" lon="-9.55208882525204"><ele>76.75</ele><time>2026-04-27T17:32:19Z</time></trkpt><trkpt lat="30.124648807629484" lon="-9.55210832638208"><ele>77.0</ele><time>2026-04-27T17:32:20Z</time></trkpt><trkpt lat="30.124517585648302" lon="-9.552127111382129"><ele>77.0</ele><time>2026-04-27T17:32:21Z</time></trkpt><trkpt lat="30.124370372330066" lon="-9.552143665025563"><ele>77.0</ele><time>2026-04-27T17:32:22Z</time></trkpt><trkpt lat="30.124210596333082" lon="-9.552162935421572"><ele>77.0</ele><time>2026-04-27T17:32:23Z</time></trkpt><trkpt lat="30.124063257330402" lon="-9.552185034868923"><ele>77.0</ele><time>2026-04-27T17:32:24Z</time></trkpt><trkpt lat="30.123923328265423" lon="-9.552208142130828"><ele>77.0</ele><time>2026-04-27T17:32:25Z</time></trkpt><trkpt lat="30.123791964748275" lon="-9.552228681335794"><ele>77.0</ele><time>2026-04-27T17:32:26Z</time></trkpt><trkpt lat="30.12365405588118" lon="-9.552249213464949"><ele>77.0</ele><time>2026-04-27T17:32:27Z</time></trkpt><trkpt lat="30.123494341525" lon="-9.552272319142965"><ele>77.0</ele><time>2026-04-27T17:32:28Z</time></trkpt><trkpt lat="30.123323990369755" lon="-9.552298714725163"><ele>77.0</ele><time>2026-04-27T17:32:29Z</time></trkpt><trkpt lat="30.12314777596812" lon="-9.552325267939281"><ele>77.0</ele><time>2026-04-27T17:32:30Z</time></trkpt><trkpt lat="30.122966943556353" lon="-9.552350816356348"><ele>76.0</ele><time>2026-04-27T17:32:31Z</time></trkpt><trkpt lat="30.12278702352393" lon="-9.552379085871028"><ele>75.0</ele><time>2026-04-27T17:32:32Z</time></trkpt><trkpt lat="30.122604335714602" lon="-9.55241144397774"><ele>74.0</ele><time>2026-04-27T17:32:33Z</time></trkpt><trkpt lat="30.122420698888398" lon="-9.552445769506928"><ele>75.0</ele><time>2026-04-27T17:32:34Z</time></trkpt><trkpt lat="30.12224256913249" lon="-9.552481659446785"><ele>76.0</ele><time>2026-04-27T17:32:35Z</time></trkpt><trkpt lat="30.122072676326884" lon="-9.5525147936531"><ele>77.0</ele><time>2026-04-27T17:32:36Z</time></trkpt><trkpt lat="30.121907004000455" lon="-9.552543078071771"><ele>77.0</ele><time>2026-04-27T17:32:37Z</time></trkpt><trkpt lat="30.12174533794398" lon="-9.552568724660663"><ele>77.0</ele><time>2026-04-27T17:32:38Z</time></trkpt><trkpt lat="30.121588959672984" lon="-9.552594445797881"><ele>77.0</ele><time>2026-04-27T17:32:39Z</time></trkpt><trkpt lat="30.121436208604095" lon="-9.552621259828152"><ele>77.66666666666667</ele><time>2026-04-27T17:32:40Z</time></trkpt><trkpt lat="30.121275906316924" lon="-9.552647647032686"><ele>78.33333333333333</ele><time>2026-04-27T17:32:41Z</time></trkpt><trkpt lat="30.12110982945191" lon="-9.552671580970992"><ele>79.0</ele><time>2026-04-27T17:32:42Z</time></trkpt><trkpt lat="30.12094372561738" lon="-9.552694122813229"><ele>79.0</ele><time>2026-04-27T17:32:43Z</time></trkpt><trkpt lat="30.120777954356235" lon="-9.55271752200661"><ele>79.0</ele><time>2026-04-27T17:32:44Z</time></trkpt><trkpt lat="30.120616841992746" lon="-9.552742506717054"><ele>79.0</ele><time>2026-04-27T17:32:45Z</time></trkpt><trkpt lat="30.120465524091536" lon="-9.55276689944325"><ele>77.33333333333333</ele><time>2026-04-27T17:32:46Z</time></trkpt><trkpt lat="30.120312564831224" lon="-9.552788267218197"><ele>75.66666666666667</ele><time>2026-04-27T17:32:47Z</time></trkpt><trkpt lat="30.12015349498962" lon="-9.552809545007497"><ele>74.0</ele><time>2026-04-27T17:32:48Z</time></trkpt><trkpt lat="30.119996642398817" lon="-9.552827687051764"><ele>73.75</ele><time>2026-04-27T17:32:49Z</time></trkpt><trkpt lat="30.119848243658655" lon="-9.552845762160988"><ele>73.5</ele><time>2026-04-27T17:32:50Z</time></trkpt><trkpt lat="30.11970290568549" lon="-9.552867119811243"><ele>73.25</ele><time>2026-04-27T17:32:51Z</time></trkpt><trkpt lat="30.11955665209997" lon="-9.552890470417582"><ele>73.0</ele><time>2026-04-27T17:32:52Z</time></trkpt><trkpt lat="30.119415712090596" lon="-9.552913429588383"><ele>73.0</ele><time>2026-04-27T17:32:53Z</time></trkpt><trkpt lat="30.119286960082615" lon="-9.55293678778154"><ele>73.0</ele><time>2026-04-27T17:32:54Z</time></trkpt><trkpt lat="30.119167264615665" lon="-9.552965078076074"><ele>73.0</ele><time>2026-04-27T17:32:55Z</time></trkpt><trkpt lat="30.119064856240577" lon="-9.553000157261032"><ele>73.0</ele><time>2026-04-27T17:32:56Z</time></trkpt><trkpt lat="30.11897692927848" lon="-9.553044611641244"><ele>73.0</ele><time>2026-04-27T17:32:57Z</time></trkpt><trkpt lat="30.118899556513288" lon="-9.553094654124228"><ele>73.0</ele><time>2026-04-27T17:32:58Z</time></trkpt><trkpt lat="30.118820964452834" lon="-9.553146044541936"><ele>73.0</ele><time>2026-04-27T17:32:59Z</time></trkpt><trkpt lat="30.118726641847847" lon="-9.553162412824568"><ele>73.0</ele><time>2026-04-27T17:33:00Z</time></trkpt><trkpt lat="30.118617481059612" lon="-9.553144475363974"><ele>73.0</ele><time>2026-04-27T17:33:01Z</time></trkpt><trkpt lat="30.118502044438685" lon="-9.553108728540215"><ele>73.0</ele><time>2026-04-27T17:33:02Z</time></trkpt><trkpt lat="30.118373122705144" lon="-9.553092684131496"><ele>73.0</ele><time>2026-04-27T17:33:03Z</time></trkpt><trkpt lat="30.11822635687143" lon="-9.553095561640857"><ele>73.0</ele><time>2026-04-27T17:33:04Z</time></trkpt><trkpt lat="30.118067496023677" lon="-9.553113297038497"><ele>73.0</ele><time>2026-04-27T17:33:05Z</time></trkpt><trkpt lat="30.117911400143306" lon="-9.55314705926072"><ele>73.66666666666666</ele><time>2026-04-27T17:33:06Z</time></trkpt><trkpt lat="30.11775333767939" lon="-9.553182271747863"><ele>74.33333333333333</ele><time>2026-04-27T17:33:07Z</time></trkpt><trkpt lat="30.117604469437868" lon="-9.553205998877596"><ele>75.0</ele><time>2026-04-27T17:33:08Z</time></trkpt><trkpt lat="30.117456860156643" lon="-9.553220791756601"><ele>74.75</ele><time>2026-04-27T17:33:09Z</time></trkpt><trkpt lat="30.11730910587485" lon="-9.553241439666408"><ele>74.5</ele><time>2026-04-27T17:33:10Z</time></trkpt><trkpt lat="30.11716664983164" lon="-9.553260878699628"><ele>74.25</ele><time>2026-04-27T17:33:11Z</time></trkpt><trkpt lat="30.11703257588667" lon="-9.55327628719458"><ele>74.0</ele><time>2026-04-27T17:33:12Z</time></trkpt><trkpt lat="30.116907614466676" lon="-9.553293555899147"><ele>74.0</ele><time>2026-04-27T17:33:13Z</time></trkpt><trkpt lat="30.116790220170635" lon="-9.55331507561158"><ele>74.0</ele><time>2026-04-27T17:33:14Z</time></trkpt><trkpt lat="30.1166814282149" lon="-9.553340188374994"><ele>74.0</ele><time>2026-04-27T17:33:15Z</time></trkpt><trkpt lat="30.11658047770283" lon="-9.553358967750896"><ele>74.0</ele><time>2026-04-27T17:33:16Z</time></trkpt><trkpt lat="30.11648825046664" lon="-9.553368420279593"><ele>74.0</ele><time>2026-04-27T17:33:17Z</time></trkpt><trkpt lat="30.116389804934798" lon="-9.553377023113512"><ele>74.0</ele><time>2026-04-27T17:33:18Z</time></trkpt><trkpt lat="30.116282147050473" lon="-9.55339289153892"><ele>74.0</ele><time>2026-04-27T17:33:19Z</time></trkpt><trkpt lat="30.1161801430876" lon="-9.553408356597158"><ele>74.0</ele><time>2026-04-27T17:33:20Z</time></trkpt><trkpt lat="30.116087431794224" lon="-9.553423092151416"><ele>74.0</ele><time>2026-04-27T17:33:21Z</time></trkpt><trkpt lat="30.115995826152698" lon="-9.553437611085485"><ele>74.0</ele><time>2026-04-27T17:33:22Z</time></trkpt><trkpt lat="30.11590035338921" lon="-9.553455934851229"><ele>74.0</ele><time>2026-04-27T17:33:23Z</time></trkpt><trkpt lat="30.115797690829904" lon="-9.55347211808098"><ele>74.0</ele><time>2026-04-27T17:33:24Z</time></trkpt><trkpt lat="30.11567838811775" lon="-9.55349151896175"><ele>74.0</ele><time>2026-04-27T17:33:25Z</time></trkpt><trkpt lat="30.115550217701248" lon="-9.553512801026006"><ele>74.0</ele><time>2026-04-27T17:33:26Z</time></trkpt><trkpt lat="30.11541820563372" lon="-9.553532714435395"><ele>73.75</ele><time>2026-04-27T17:33:27Z</time></trkpt><trkpt lat="30.11528226136435" lon="-9.553550916352515"><ele>73.5</ele><time>2026-04-27T17:33:28Z</time></trkpt><trkpt lat="30.11514016284789" lon="-9.553571679040218"><ele>73.25</ele><time>2026-04-27T17:33:29Z</time></trkpt><trkpt lat="30.114992516743953" lon="-9.55359477301677"><ele>73.0</ele><time>2026-04-27T17:33:30Z</time></trkpt><trkpt lat="30.11483583209886" lon="-9.553618117840827"><ele>73.0</ele><time>2026-04-27T17:33:31Z</time></trkpt><trkpt lat="30.11466842359497" lon="-9.55363984591074"><ele>73.0</ele><time>2026-04-27T17:33:32Z</time></trkpt><trkpt lat="30.11449294042231" lon="-9.553662881874368"><ele>73.0</ele><time>2026-04-27T17:33:33Z</time></trkpt><trkpt lat="30.114306907260705" lon="-9.55368558362685"><ele>73.0</ele><time>2026-04-27T17:33:34Z</time></trkpt><trkpt lat="30.114112743169237" lon="-9.553707668478419"><ele>73.0</ele><time>2026-04-27T17:33:35Z</time></trkpt><trkpt lat="30.11391268372218" lon="-9.553725647251834"><ele>73.0</ele><time>2026-04-27T17:33:36Z</time></trkpt><trkpt lat="30.113706104182434" lon="-9.553742974087573"><ele>73.0</ele><time>2026-04-27T17:33:37Z</time></trkpt><trkpt lat="30.11349355323635" lon="-9.553759571544447"><ele>73.0</ele><time>2026-04-27T17:33:38Z</time></trkpt><trkpt lat="30.11328438435908" lon="-9.553775717591233"><ele>73.0</ele><time>2026-04-27T17:33:39Z</time></trkpt><trkpt lat="30.11307947058301" lon="-9.553789165439273"><ele>73.0</ele><time>2026-04-27T17:33:40Z</time></trkpt><trkpt lat="30.112876864883745" lon="-9.55380086127926"><ele>73.0</ele><time>2026-04-27T17:33:41Z</time></trkpt><trkpt lat="30.112676115663977" lon="-9.553814265701705"><ele>73.0</ele><time>2026-04-27T17:33:42Z</time></trkpt><trkpt lat="30.11247124158015" lon="-9.553825083518081"><ele>73.33333333333333</ele><time>2026-04-27T17:33:43Z</time></trkpt><trkpt lat="30.11225996509591" lon="-9.553833620499988"><ele>73.66666666666667</ele><time>2026-04-27T17:33:44Z</time></trkpt><trkpt lat="30.112041472345226" lon="-9.553841978289691"><ele>74.0</ele><time>2026-04-27T17:33:45Z</time></trkpt><trkpt lat="30.111829976971563" lon="-9.553851152165599"><ele>74.0</ele><time>2026-04-27T17:33:46Z</time></trkpt><trkpt lat="30.111612872061738" lon="-9.553864387807577"><ele>74.0</ele><time>2026-04-27T17:33:47Z</time></trkpt><trkpt lat="30.11138456727694" lon="-9.553878314817414"><ele>74.0</ele><time>2026-04-27T17:33:48Z</time></trkpt><trkpt lat="30.11115342290362" lon="-9.553891796425573"><ele>74.0</ele><time>2026-04-27T17:33:49Z</time></trkpt><trkpt lat="30.110924184942238" lon="-9.553904815456912"><ele>74.0</ele><time>2026-04-27T17:33:50Z</time></trkpt><trkpt lat="30.11069318919688" lon="-9.553916365254597"><ele>74.0</ele><time>2026-04-27T17:33:51Z</time></trkpt><trkpt lat="30.11046213202683" lon="-9.553930296987964"><ele>74.0</ele><time>2026-04-27T17:33:52Z</time></trkpt><trkpt lat="30.110229433896663" lon="-9.553946847285884"><ele>74.0</ele><time>2026-04-27T17:33:53Z</time></trkpt><trkpt lat="30.10999838103934" lon="-9.553968001314706"><ele>74.0</ele><time>2026-04-27T17:33:54Z</time></trkpt><trkpt lat="30.109765819434397" lon="-9.55398524849859"><ele>73.0</ele><time>2026-04-27T17:33:55Z</time></trkpt><trkpt lat="30.109534189485547" lon="-9.553999886585004"><ele>72.0</ele><time>2026-04-27T17:33:56Z</time></trkpt><trkpt lat="30.10930282551144" lon="-9.554012953339136"><ele>72.0</ele><time>2026-04-27T17:33:57Z</time></trkpt><trkpt lat="30.109077444419555" lon="-9.554023158921051"><ele>72.0</ele><time>2026-04-27T17:33:58Z</time></trkpt><trkpt lat="30.10884775593648" lon="-9.554033945634623"><ele>70.5</ele><time>2026-04-27T17:33:59Z</time></trkpt><trkpt lat="30.108616282081126" lon="-9.554044919697738"><ele>69.0</ele><time>2026-04-27T17:34:00Z</time></trkpt><trkpt lat="30.1083897143798" lon="-9.554058265958401"><ele>70.5</ele><time>2026-04-27T17:34:01Z</time></trkpt><trkpt lat="30.108160248124438" lon="-9.554076419998209"><ele>72.0</ele><time>2026-04-27T17:34:02Z</time></trkpt><trkpt lat="30.10792694804931" lon="-9.554099239282788"><ele>72.0</ele><time>2026-04-27T17:34:03Z</time></trkpt><trkpt lat="30.10769615214526" lon="-9.554120451027803"><ele>72.0</ele><time>2026-04-27T17:34:04Z</time></trkpt><trkpt lat="30.10747338157428" lon="-9.554134218227091"><ele>73.33333333333333</ele><time>2026-04-27T17:34:05Z</time></trkpt><trkpt lat="30.107253896751363" lon="-9.554144295637126"><ele>74.66666666666666</ele><time>2026-04-27T17:34:06Z</time></trkpt><trkpt lat="30.107029085928467" lon="-9.55415387047259"><ele>76.0</ele><time>2026-04-27T17:34:07Z</time></trkpt><trkpt lat="30.106800695177085" lon="-9.554164034176948"><ele>76.0</ele><time>2026-04-27T17:34:08Z</time></trkpt><trkpt lat="30.10657097554417" lon="-9.554174839770512"><ele>76.0</ele><time>2026-04-27T17:34:09Z</time></trkpt><trkpt lat="30.10634117831563" lon="-9.554184485909765"><ele>76.0</ele><time>2026-04-27T17:34:10Z</time></trkpt><trkpt lat="30.106112713217925" lon="-9.554194338102253"><ele>76.0</ele><time>2026-04-27T17:34:11Z</time></trkpt><trkpt lat="30.105889253058155" lon="-9.5542015502723"><ele>73.5</ele><time>2026-04-27T17:34:12Z</time></trkpt><trkpt lat="30.10565945207804" lon="-9.554207837377628"><ele>71.0</ele><time>2026-04-27T17:34:13Z</time></trkpt><trkpt lat="30.105428850761456" lon="-9.554215869046473"><ele>71.0</ele><time>2026-04-27T17:34:14Z</time></trkpt><trkpt lat="30.105197638426773" lon="-9.554236052972394"><ele>71.0</ele><time>2026-04-27T17:34:15Z</time></trkpt><trkpt lat="30.104968319203934" lon="-9.554269379812116"><ele>72.5</ele><time>2026-04-27T17:34:16Z</time></trkpt><trkpt lat="30.104737153594133" lon="-9.554296863254747"><ele>74.0</ele><time>2026-04-27T17:34:17Z</time></trkpt><trkpt lat="30.10451113312657" lon="-9.554308379716119"><ele>74.0</ele><time>2026-04-27T17:34:18Z</time></trkpt><trkpt lat="30.10428684894368" lon="-9.554318004564399"><ele>74.0</ele><time>2026-04-27T17:34:19Z</time></trkpt><trkpt lat="30.10406500522339" lon="-9.554328709732282"><ele>74.0</ele><time>2026-04-27T17:34:20Z</time></trkpt><trkpt lat="30.10385049602706" lon="-9.554341084375979"><ele>73.66666666666667</ele><time>2026-04-27T17:34:21Z</time></trkpt><trkpt lat="30.10363812164508" lon="-9.554352056317546"><ele>73.33333333333333</ele><time>2026-04-27T17:34:22Z</time></trkpt><trkpt lat="30.103427299524512" lon="-9.554363168170896"><ele>73.0</ele><time>2026-04-27T17:34:23Z</time></trkpt><trkpt lat="30.103215808216184" lon="-9.554374716286002"><ele>73.0</ele><time>2026-04-27T17:34:24Z</time></trkpt><trkpt lat="30.103006023820818" lon="-9.554385035394418"><ele>73.0</ele><time>2026-04-27T17:34:25Z</time></trkpt><trkpt lat="30.102799922526682" lon="-9.554396267214678"><ele>73.0</ele><time>2026-04-27T17:34:26Z</time></trkpt><trkpt lat="30.102597448908856" lon="-9.55441036307629"><ele>72.33333333333333</ele><time>2026-04-27T17:34:27Z</time></trkpt><trkpt lat="30.10238996275485" lon="-9.554425978560857"><ele>71.66666666666667</ele><time>2026-04-27T17:34:28Z</time></trkpt><trkpt lat="30.102182658584525" lon="-9.554436519631912"><ele>71.0</ele><time>2026-04-27T17:34:29Z</time></trkpt><trkpt lat="30.10197700960159" lon="-9.55444479885805"><ele>71.0</ele><time>2026-04-27T17:34:30Z</time></trkpt><trkpt lat="30.10178299773608" lon="-9.554452914763706"><ele>71.0</ele><time>2026-04-27T17:34:31Z</time></trkpt><trkpt lat="30.101605428941838" lon="-9.554459324760048"><ele>71.0</ele><time>2026-04-27T17:34:32Z</time></trkpt><trkpt lat="30.101437689772066" lon="-9.554467674839442"><ele>71.33333333333334</ele><time>2026-04-27T17:34:33Z</time></trkpt><trkpt lat="30.10127816073479" lon="-9.554476183801285"><ele>71.66666666666667</ele><time>2026-04-27T17:34:34Z</time></trkpt><trkpt lat="30.10111175406581" lon="-9.554484858756421"><ele>72.0</ele><time>2026-04-27T17:34:35Z</time></trkpt><trkpt lat="30.100937410172794" lon="-9.55449389756337"><ele>72.0</ele><time>2026-04-27T17:34:36Z</time></trkpt><trkpt lat="30.10075402016192" lon="-9.55450025676487"><ele>72.0</ele><time>2026-04-27T17:34:37Z</time></trkpt><trkpt lat="30.100575836569416" lon="-9.554506897155495"><ele>72.0</ele><time>2026-04-27T17:34:38Z</time></trkpt><trkpt lat="30.10040280844512" lon="-9.554514586152228"><ele>72.0</ele><time>2026-04-27T17:34:39Z</time></trkpt><trkpt lat="30.100226298395526" lon="-9.55452180837049"><ele>72.0</ele><time>2026-04-27T17:34:40Z</time></trkpt><trkpt lat="30.100058054319096" lon="-9.554528144476189"><ele>72.0</ele><time>2026-04-27T17:34:41Z</time></trkpt><trkpt lat="30.09989407383104" lon="-9.554531254804425"><ele>72.0</ele><time>2026-04-27T17:34:42Z</time></trkpt><trkpt lat="30.09973271945317" lon="-9.554534712146936"><ele>72.0</ele><time>2026-04-27T17:34:43Z</time></trkpt><trkpt lat="30.099571528058302" lon="-9.554541129252753"><ele>72.0</ele><time>2026-04-27T17:34:44Z</time></trkpt><trkpt lat="30.09942036617511" lon="-9.554551407240076"><ele>72.0</ele><time>2026-04-27T17:34:45Z</time></trkpt><trkpt lat="30.099285998653283" lon="-9.554562191995478"><ele>72.0</ele><time>2026-04-27T17:34:46Z</time></trkpt><trkpt lat="30.099162705577314" lon="-9.55457033664191"><ele>72.0</ele><time>2026-04-27T17:34:47Z</time></trkpt><trkpt lat="30.099043750907533" lon="-9.55457406388832"><ele>72.0</ele><time>2026-04-27T17:34:48Z</time></trkpt><trkpt lat="30.098919931910572" lon="-9.554579969221171"><ele>72.0</ele><time>2026-04-27T17:34:49Z</time></trkpt><trkpt lat="30.0987926083275" lon="-9.554585765518121"><ele>72.0</ele><time>2026-04-27T17:34:50Z</time></trkpt><trkpt lat="30.098665235469845" lon="-9.554594898307428"><ele>72.0</ele><time>2026-04-27T17:34:51Z</time></trkpt><trkpt lat="30.09853674381056" lon="-9.554601653082635"><ele>72.0</ele><time>2026-04-27T17:34:52Z</time></trkpt><trkpt lat="30.098412283161714" lon="-9.55459852360027"><ele>72.0</ele><time>2026-04-27T17:34:53Z</time></trkpt><trkpt lat="30.09829771293182" lon="-9.554603458910936"><ele>72.0</ele><time>2026-04-27T17:34:54Z</time></trkpt><trkpt lat="30.098189717666795" lon="-9.554608383663412"><ele>72.0</ele><time>2026-04-27T17:34:55Z</time></trkpt><trkpt lat="30.098088005442573" lon="-9.554620040675808"><ele>72.0</ele><time>2026-04-27T17:34:56Z</time></trkpt><trkpt lat="30.0979905320763" lon="-9.554627964491274"><ele>72.0</ele><time>2026-04-27T17:34:57Z</time></trkpt><trkpt lat="30.097887714664132" lon="-9.554633653256033"><ele>72.0</ele><time>2026-04-27T17:34:58Z</time></trkpt><trkpt lat="30.097778166825968" lon="-9.554642661571593"><ele>72.0</ele><time>2026-04-27T17:34:59Z</time></trkpt><trkpt lat="30.09766066984716" lon="-9.554651855926156"><ele>72.0</ele><time>2026-04-27T17:35:00Z</time></trkpt><trkpt lat="30.097518222221435" lon="-9.554665663582798"><ele>72.0</ele><time>2026-04-27T17:35:01Z</time></trkpt><trkpt lat="30.097374099131823" lon="-9.554675644814278"><ele>72.0</ele><time>2026-04-27T17:35:02Z</time></trkpt><trkpt lat="30.097214546951495" lon="-9.554666624256038"><ele>72.0</ele><time>2026-04-27T17:35:03Z</time></trkpt><trkpt lat="30.097030270844986" lon="-9.554662836220311"><ele>72.0</ele><time>2026-04-27T17:35:04Z</time></trkpt><trkpt lat="30.096824165670135" lon="-9.554675093315167"><ele>72.0</ele><time>2026-04-27T17:35:05Z</time></trkpt><trkpt lat="30.096625746149233" lon="-9.554685174461259"><ele>72.0</ele><time>2026-04-27T17:35:06Z</time></trkpt><trkpt lat="30.09644091471103" lon="-9.554696050919867"><ele>72.0</ele><time>2026-04-27T17:35:07Z</time></trkpt><trkpt lat="30.096260157453806" lon="-9.554711383066866"><ele>72.0</ele><time>2026-04-27T17:35:08Z</time></trkpt><trkpt lat="30.096088061248572" lon="-9.55472307486014"><ele>72.0</ele><time>2026-04-27T17:35:09Z</time></trkpt><trkpt lat="30.09590781810962" lon="-9.554736362901187"><ele>72.0</ele><time>2026-04-27T17:35:10Z</time></trkpt><trkpt lat="30.09569984272019" lon="-9.554749207216805"><ele>70.33333333333333</ele><time>2026-04-27T17:35:11Z</time></trkpt><trkpt lat="30.095485973055307" lon="-9.55476118084364"><ele>68.66666666666666</ele><time>2026-04-27T17:35:12Z</time></trkpt><trkpt lat="30.09526614787458" lon="-9.554776282986536"><ele>67.0</ele><time>2026-04-27T17:35:13Z</time></trkpt><trkpt lat="30.095051288079716" lon="-9.554793479086307"><ele>68.0</ele><time>2026-04-27T17:35:14Z</time></trkpt><trkpt lat="30.09483220550642" lon="-9.554813335322965"><ele>69.0</ele><time>2026-04-27T17:35:15Z</time></trkpt><trkpt lat="30.09461566359189" lon="-9.554828919623061"><ele>70.0</ele><time>2026-04-27T17:35:16Z</time></trkpt><trkpt lat="30.094409945837025" lon="-9.554843762192814"><ele>70.0</ele><time>2026-04-27T17:35:17Z</time></trkpt><trkpt lat="30.09421412866184" lon="-9.554858210065268"><ele>70.0</ele><time>2026-04-27T17:35:18Z</time></trkpt><trkpt lat="30.094017677968598" lon="-9.554870530135908"><ele>70.0</ele><time>2026-04-27T17:35:19Z</time></trkpt><trkpt lat="30.093817103454107" lon="-9.55488180473339"><ele>70.0</ele><time>2026-04-27T17:35:20Z</time></trkpt><trkpt lat="30.093612220471897" lon="-9.554892410287085"><ele>70.0</ele><time>2026-04-27T17:35:21Z</time></trkpt><trkpt lat="30.093402897555833" lon="-9.554905858968517"><ele>70.0</ele><time>2026-04-27T17:35:22Z</time></trkpt><trkpt lat="30.093187166485986" lon="-9.554920712990073"><ele>70.0</ele><time>2026-04-27T17:35:23Z</time></trkpt><trkpt lat="30.0929742769869" lon="-9.554933133917737"><ele>70.0</ele><time>2026-04-27T17:35:24Z</time></trkpt><trkpt lat="30.092754771856907" lon="-9.554939269956595"><ele>70.0</ele><time>2026-04-27T17:35:25Z</time></trkpt><trkpt lat="30.092532132894544" lon="-9.554948248651817"><ele>70.0</ele><time>2026-04-27T17:35:26Z</time></trkpt><trkpt lat="30.092308678624224" lon="-9.55496119019317"><ele>70.0</ele><time>2026-04-27T17:35:27Z</time></trkpt><trkpt lat="30.092086481585266" lon="-9.554974003360721"><ele>70.0</ele><time>2026-04-27T17:35:28Z</time></trkpt><trkpt lat="30.09186113043205" lon="-9.554981364872445"><ele>70.0</ele><time>2026-04-27T17:35:29Z</time></trkpt><trkpt lat="30.09163806954521" lon="-9.554991694985727"><ele>70.0</ele><time>2026-04-27T17:35:30Z</time></trkpt><trkpt lat="30.0914179773396" lon="-9.555007213786093"><ele>70.0</ele><time>2026-04-27T17:35:31Z</time></trkpt><trkpt lat="30.091197368412832" lon="-9.555022090974205"><ele>69.66666666666666</ele><time>2026-04-27T17:35:32Z</time></trkpt><trkpt lat="30.090979033503512" lon="-9.555034178506954"><ele>69.33333333333333</ele><time>2026-04-27T17:35:33Z</time></trkpt><trkpt lat="30.090762637364566" lon="-9.555043754632552"><ele>69.0</ele><time>2026-04-27T17:35:34Z</time></trkpt><trkpt lat="30.090546283280265" lon="-9.555054667562343"><ele>68.66666666666667</ele><time>2026-04-27T17:35:35Z</time></trkpt><trkpt lat="30.090328281007874" lon="-9.555066051177922"><ele>68.33333333333334</ele><time>2026-04-27T17:35:36Z</time></trkpt><trkpt lat="30.090105394176874" lon="-9.555077289636738"><ele>68.0</ele><time>2026-04-27T17:35:37Z</time></trkpt><trkpt lat="30.089881778042074" lon="-9.55509225961906"><ele>68.66666666666667</ele><time>2026-04-27T17:35:38Z</time></trkpt><trkpt lat="30.08966323215307" lon="-9.555106584578853"><ele>69.33333333333333</ele><time>2026-04-27T17:35:39Z</time></trkpt><trkpt lat="30.089445567568117" lon="-9.555118848038884"><ele>70.0</ele><time>2026-04-27T17:35:40Z</time></trkpt><trkpt lat="30.08922795079063" lon="-9.55512875681016"><ele>70.33333333333333</ele><time>2026-04-27T17:35:41Z</time></trkpt><trkpt lat="30.08900769340048" lon="-9.55513409146585"><ele>70.66666666666667</ele><time>2026-04-27T17:35:42Z</time></trkpt><trkpt lat="30.08878709324825" lon="-9.555140969338684"><ele>71.0</ele><time>2026-04-27T17:35:43Z</time></trkpt><trkpt lat="30.088566842811783" lon="-9.555152681822744"><ele>71.0</ele><time>2026-04-27T17:35:44Z</time></trkpt><trkpt lat="30.088349422850275" lon="-9.555163795992643"><ele>71.0</ele><time>2026-04-27T17:35:45Z</time></trkpt><trkpt lat="30.08813085028461" lon="-9.555175638378344"><ele>71.0</ele><time>2026-04-27T17:35:46Z</time></trkpt><trkpt lat="30.087912774857454" lon="-9.555190014040988"><ele>70.66666666666667</ele><time>2026-04-27T17:35:47Z</time></trkpt><trkpt lat="30.087695982235644" lon="-9.555204955748097"><ele>70.33333333333333</ele><time>2026-04-27T17:35:48Z</time></trkpt><trkpt lat="30.08746607507438" lon="-9.555213653319045"><ele>70.0</ele><time>2026-04-27T17:35:49Z</time></trkpt><trkpt lat="30.087214159392442" lon="-9.555212994541426"><ele>70.0</ele><time>2026-04-27T17:35:50Z</time></trkpt><trkpt lat="30.086949853564253" lon="-9.555215611907393"><ele>70.0</ele><time>2026-04-27T17:35:51Z</time></trkpt><trkpt lat="30.086689408377882" lon="-9.55522544853688"><ele>71.0</ele><time>2026-04-27T17:35:52Z</time></trkpt><trkpt lat="30.0864297827826" lon="-9.555238796411937"><ele>72.0</ele><time>2026-04-27T17:35:53Z</time></trkpt><trkpt lat="30.086173294794786" lon="-9.555249480210756"><ele>72.0</ele><time>2026-04-27T17:35:54Z</time></trkpt><trkpt lat="30.085950695017726" lon="-9.555259437863265"><ele>72.0</ele><time>2026-04-27T17:35:55Z</time></trkpt><trkpt lat="30.08574649106878" lon="-9.555267597050598"><ele>72.0</ele><time>2026-04-27T17:35:56Z</time></trkpt><trkpt lat="30.085548813824527" lon="-9.555276510378413"><ele>72.0</ele><time>2026-04-27T17:35:57Z</time></trkpt><trkpt lat="30.08535537841209" lon="-9.55528826638142"><ele>72.0</ele><time>2026-04-27T17:35:58Z</time></trkpt><trkpt lat="30.08514486767927" lon="-9.55530372891864"><ele>72.0</ele><time>2026-04-27T17:35:59Z</time></trkpt><trkpt lat="30.084935351586488" lon="-9.555315356922842"><ele>71.0</ele><time>2026-04-27T17:36:00Z</time></trkpt><trkpt lat="30.084735238020187" lon="-9.55532347547007"><ele>70.0</ele><time>2026-04-27T17:36:01Z</time></trkpt><trkpt lat="30.084533237810504" lon="-9.55533331041152"><ele>69.0</ele><time>2026-04-27T17:36:02Z</time></trkpt><trkpt lat="30.084330453865125" lon="-9.555346122630958"><ele>69.0</ele><time>2026-04-27T17:36:03Z</time></trkpt><trkpt lat="30.08412589321871" lon="-9.555357734414022"><ele>69.0</ele><time>2026-04-27T17:36:04Z</time></trkpt><trkpt lat="30.08390584850397" lon="-9.555369719831036"><ele>69.0</ele><time>2026-04-27T17:36:05Z</time></trkpt><trkpt lat="30.083687122987467" lon="-9.555383450643513"><ele>69.33333333333333</ele><time>2026-04-27T17:36:06Z</time></trkpt><trkpt lat="30.083485277635408" lon="-9.55539382937635"><ele>69.66666666666666</ele><time>2026-04-27T17:36:07Z</time></trkpt><trkpt lat="30.083295609429605" lon="-9.555405872855374"><ele>70.0</ele><time>2026-04-27T17:36:08Z</time></trkpt><trkpt lat="30.08311287085754" lon="-9.555416672122758"><ele>70.66666666666666</ele><time>2026-04-27T17:36:09Z</time></trkpt><trkpt lat="30.08293546873367" lon="-9.55543102909576"><ele>71.33333333333333</ele><time>2026-04-27T17:36:10Z</time></trkpt><trkpt lat="30.082772231681105" lon="-9.55544286162286"><ele>72.0</ele><time>2026-04-27T17:36:11Z</time></trkpt><trkpt lat="30.082617376339016" lon="-9.555455058465173"><ele>72.0</ele><time>2026-04-27T17:36:12Z</time></trkpt><trkpt lat="30.082470282444223" lon="-9.555467342845247"><ele>72.0</ele><time>2026-04-27T17:36:13Z</time></trkpt><trkpt lat="30.082330663882065" lon="-9.555474858912973"><ele>72.0</ele><time>2026-04-27T17:36:14Z</time></trkpt><trkpt lat="30.08218352593805" lon="-9.555479414750414"><ele>72.0</ele><time>2026-04-27T17:36:15Z</time></trkpt><trkpt lat="30.082020664219606" lon="-9.555482647133164"><ele>72.33333333333333</ele><time>2026-04-27T17:36:16Z</time></trkpt><trkpt lat="30.08185053322683" lon="-9.555484751763126"><ele>72.66666666666666</ele><time>2026-04-27T17:36:17Z</time></trkpt><trkpt lat="30.08169238238759" lon="-9.555488457268902"><ele>73.0</ele><time>2026-04-27T17:36:18Z</time></trkpt><trkpt lat="30.081541163729618" lon="-9.555496751007167"><ele>73.0</ele><time>2026-04-27T17:36:19Z</time></trkpt><trkpt lat="30.081389457830365" lon="-9.555506383465254"><ele>73.0</ele><time>2026-04-27T17:36:20Z</time></trkpt><trkpt lat="30.081233752888767" lon="-9.55551689987867"><ele>73.0</ele><time>2026-04-27T17:36:21Z</time></trkpt><trkpt lat="30.081078700613737" lon="-9.555524945225873"><ele>73.0</ele><time>2026-04-27T17:36:22Z</time></trkpt><trkpt lat="30.08093003489073" lon="-9.555532469867114"><ele>73.0</ele><time>2026-04-27T17:36:23Z</time></trkpt><trkpt lat="30.080788760421182" lon="-9.555541171206428"><ele>73.0</ele><time>2026-04-27T17:36:24Z</time></trkpt><trkpt lat="30.080651627128574" lon="-9.55555022171755"><ele>73.0</ele><time>2026-04-27T17:36:25Z</time></trkpt><trkpt lat="30.080505209629926" lon="-9.555556742293108"><ele>72.0</ele><time>2026-04-27T17:36:26Z</time></trkpt><trkpt lat="30.080358848193125" lon="-9.555562829711066"><ele>71.0</ele><time>2026-04-27T17:36:27Z</time></trkpt><trkpt lat="30.080206252773884" lon="-9.555567033256944"><ele>70.0</ele><time>2026-04-27T17:36:28Z</time></trkpt><trkpt lat="30.08005288587998" lon="-9.555570045356237"><ele>69.66666666666666</ele><time>2026-04-27T17:36:29Z</time></trkpt><trkpt lat="30.079890020080732" lon="-9.55557399949418"><ele>69.33333333333333</ele><time>2026-04-27T17:36:30Z</time></trkpt><trkpt lat="30.079702981632234" lon="-9.555580186523219"><ele>69.0</ele><time>2026-04-27T17:36:31Z</time></trkpt><trkpt lat="30.079506553451225" lon="-9.55558978048714"><ele>69.0</ele><time>2026-04-27T17:36:32Z</time></trkpt><trkpt lat="30.079305645982938" lon="-9.55560101872444"><ele>69.0</ele><time>2026-04-27T17:36:33Z</time></trkpt><trkpt lat="30.07910860165375" lon="-9.555612761633217"><ele>69.0</ele><time>2026-04-27T17:36:34Z</time></trkpt><trkpt lat="30.078896368749692" lon="-9.55562591880694"><ele>68.5</ele><time>2026-04-27T17:36:35Z</time></trkpt><trkpt lat="30.078669109578318" lon="-9.555642011493573"><ele>68.0</ele><time>2026-04-27T17:36:36Z</time></trkpt><trkpt lat="30.07843550650075" lon="-9.555656572804272"><ele>69.5</ele><time>2026-04-27T17:36:37Z</time></trkpt><trkpt lat="30.078207583198225" lon="-9.555668029327657"><ele>71.0</ele><time>2026-04-27T17:36:38Z</time></trkpt><trkpt lat="30.07798633077214" lon="-9.555681395829163"><ele>71.0</ele><time>2026-04-27T17:36:39Z</time></trkpt><trkpt lat="30.077787654531523" lon="-9.555697317931388"><ele>71.0</ele><time>2026-04-27T17:36:40Z</time></trkpt><trkpt lat="30.07759418032626" lon="-9.555712715246868"><ele>71.0</ele><time>2026-04-27T17:36:41Z</time></trkpt><trkpt lat="30.077396257081652" lon="-9.555725953215573"><ele>71.0</ele><time>2026-04-27T17:36:42Z</time></trkpt><trkpt lat="30.077204470879785" lon="-9.555735542224566"><ele>71.0</ele><time>2026-04-27T17:36:43Z</time></trkpt><trkpt lat="30.076996162293156" lon="-9.555749476103188"><ele>71.0</ele><time>2026-04-27T17:36:44Z</time></trkpt><trkpt lat="30.07677518612998" lon="-9.555769560558613"><ele>70.33333333333334</ele><time>2026-04-27T17:36:45Z</time></trkpt><trkpt lat="30.07654930266185" lon="-9.555789648543984"><ele>69.66666666666667</ele><time>2026-04-27T17:36:46Z</time></trkpt><trkpt lat="30.07632704272889" lon="-9.55580601228255"><ele>69.0</ele><time>2026-04-27T17:36:47Z</time></trkpt><trkpt lat="30.07610659849023" lon="-9.555822974965482"><ele>69.0</ele><time>2026-04-27T17:36:48Z</time></trkpt><trkpt lat="30.075891150988983" lon="-9.555837687645216"><ele>69.0</ele><time>2026-04-27T17:36:49Z</time></trkpt><trkpt lat="30.075674841643302" lon="-9.555852173413177"><ele>69.0</ele><time>2026-04-27T17:36:50Z</time></trkpt><trkpt lat="30.075455837883364" lon="-9.555863593276637"><ele>69.0</ele><time>2026-04-27T17:36:51Z</time></trkpt><trkpt lat="30.075231441839346" lon="-9.555874734030901"><ele>69.0</ele><time>2026-04-27T17:36:52Z</time></trkpt><trkpt lat="30.07500414314923" lon="-9.55588620156698"><ele>70.0</ele><time>2026-04-27T17:36:53Z</time></trkpt><trkpt lat="30.074772460114485" lon="-9.555897748750407"><ele>71.0</ele><time>2026-04-27T17:36:54Z</time></trkpt><trkpt lat="30.074538966715142" lon="-9.55590931722817"><ele>71.0</ele><time>2026-04-27T17:36:55Z</time></trkpt><trkpt lat="30.074312277077134" lon="-9.555923053011101"><ele>71.0</ele><time>2026-04-27T17:36:56Z</time></trkpt><trkpt lat="30.074086189200987" lon="-9.55593348068286"><ele>71.33333333333334</ele><time>2026-04-27T17:36:57Z</time></trkpt><trkpt lat="30.073864037733923" lon="-9.555947614179185"><ele>71.66666666666667</ele><time>2026-04-27T17:36:58Z</time></trkpt><trkpt lat="30.073644791872045" lon="-9.555959194425556"><ele>72.0</ele><time>2026-04-27T17:36:59Z</time></trkpt><trkpt lat="30.073426039251274" lon="-9.555969553188467"><ele>71.66666666666667</ele><time>2026-04-27T17:37:00Z</time></trkpt><trkpt lat="30.073207222747904" lon="-9.555980749752997"><ele>71.33333333333334</ele><time>2026-04-27T17:37:01Z</time></trkpt><trkpt lat="30.072988259605232" lon="-9.55599035657471"><ele>71.0</ele><time>2026-04-27T17:37:02Z</time></trkpt><trkpt lat="30.07277039543705" lon="-9.556000468284894"><ele>71.0</ele><time>2026-04-27T17:37:03Z</time></trkpt><trkpt lat="30.072552501148227" lon="-9.556011169238355"><ele>71.0</ele><time>2026-04-27T17:37:04Z</time></trkpt><trkpt lat="30.0723295669994" lon="-9.556025163601927"><ele>71.0</ele><time>2026-04-27T17:37:05Z</time></trkpt><trkpt lat="30.07210543479677" lon="-9.556035452704569"><ele>71.0</ele><time>2026-04-27T17:37:06Z</time></trkpt><trkpt lat="30.07187793567864" lon="-9.5560473222167"><ele>71.0</ele><time>2026-04-27T17:37:07Z</time></trkpt><trkpt lat="30.071647191065843" lon="-9.556060048022257"><ele>71.0</ele><time>2026-04-27T17:37:08Z</time></trkpt><trkpt lat="30.071416570326075" lon="-9.556073878896738"><ele>71.0</ele><time>2026-04-27T17:37:09Z</time></trkpt><trkpt lat="30.07120095321947" lon="-9.556085899648997"><ele>71.0</ele><time>2026-04-27T17:37:10Z</time></trkpt><trkpt lat="30.0709981706627" lon="-9.556098113398159"><ele>71.0</ele><time>2026-04-27T17:37:11Z</time></trkpt><trkpt lat="30.070799374266986" lon="-9.556108599754381"><ele>71.0</ele><time>2026-04-27T17:37:12Z</time></trkpt><trkpt lat="30.07058699630106" lon="-9.556120005598046"><ele>71.0</ele><time>2026-04-27T17:37:13Z</time></trkpt><trkpt lat="30.070355651455863" lon="-9.556131423631243"><ele>71.0</ele><time>2026-04-27T17:37:14Z</time></trkpt><trkpt lat="30.070116009609627" lon="-9.556149699081978"><ele>71.0</ele><time>2026-04-27T17:37:15Z</time></trkpt><trkpt lat="30.069873992390704" lon="-9.556180286804066"><ele>70.0</ele><time>2026-04-27T17:37:16Z</time></trkpt><trkpt lat="30.069634061392794" lon="-9.556216910687825"><ele>69.0</ele><time>2026-04-27T17:37:17Z</time></trkpt><trkpt lat="30.06940072290218" lon="-9.55626818777311"><ele>69.0</ele><time>2026-04-27T17:37:18Z</time></trkpt><trkpt lat="30.06916744353655" lon="-9.556337861292915"><ele>69.0</ele><time>2026-04-27T17:37:19Z</time></trkpt><trkpt lat="30.068936080412936" lon="-9.556422002166247"><ele>70.5</ele><time>2026-04-27T17:37:20Z</time></trkpt><trkpt lat="30.068707952832362" lon="-9.556514483203054"><ele>72.0</ele><time>2026-04-27T17:37:21Z</time></trkpt><trkpt lat="30.068483618485516" lon="-9.556609605324383"><ele>72.0</ele><time>2026-04-27T17:37:22Z</time></trkpt><trkpt lat="30.068262023332146" lon="-9.556712743133206"><ele>72.0</ele><time>2026-04-27T17:37:23Z</time></trkpt><trkpt lat="30.068037704395184" lon="-9.556828529964733"><ele>72.0</ele><time>2026-04-27T17:37:24Z</time></trkpt><trkpt lat="30.06782956003218" lon="-9.556945048181333"><ele>72.0</ele><time>2026-04-27T17:37:25Z</time></trkpt><trkpt lat="30.06764294390403" lon="-9.5570595581317"><ele>72.0</ele><time>2026-04-27T17:37:26Z</time></trkpt><trkpt lat="30.06745777934438" lon="-9.557178714571076"><ele>71.33333333333333</ele><time>2026-04-27T17:37:27Z</time></trkpt><trkpt lat="30.067274343652176" lon="-9.55729313071631"><ele>70.66666666666666</ele><time>2026-04-27T17:37:28Z</time></trkpt><trkpt lat="30.06709713570315" lon="-9.557392713095025"><ele>70.0</ele><time>2026-04-27T17:37:29Z</time></trkpt><trkpt lat="30.066916870038074" lon="-9.55748964444221"><ele>70.0</ele><time>2026-04-27T17:37:30Z</time></trkpt><trkpt lat="30.066732092322106" lon="-9.557581316452843"><ele>70.0</ele><time>2026-04-27T17:37:31Z</time></trkpt><trkpt lat="30.066547290908517" lon="-9.557677847647929"><ele>70.0</ele><time>2026-04-27T17:37:32Z</time></trkpt><trkpt lat="30.06635906408815" lon="-9.557775385556576"><ele>69.66666666666666</ele><time>2026-04-27T17:37:33Z</time></trkpt><trkpt lat="30.066155795115673" lon="-9.557876092075562"><ele>69.33333333333333</ele><time>2026-04-27T17:37:34Z</time></trkpt><trkpt lat="30.065948359543007" lon="-9.557974131904382"><ele>69.0</ele><time>2026-04-27T17:37:35Z</time></trkpt><trkpt lat="30.065741697191942" lon="-9.55807440399172"><ele>68.33333333333333</ele><time>2026-04-27T17:37:36Z</time></trkpt><trkpt lat="30.065541557385696" lon="-9.55817521882595"><ele>67.66666666666666</ele><time>2026-04-27T17:37:37Z</time></trkpt><trkpt lat="30.065359389359134" lon="-9.55827678599084"><ele>67.0</ele><time>2026-04-27T17:37:38Z</time></trkpt><trkpt lat="30.06518536521812" lon="-9.558374415672501"><ele>67.0</ele><time>2026-04-27T17:37:39Z</time></trkpt><trkpt lat="30.06501563391841" lon="-9.558466098066546"><ele>67.0</ele><time>2026-04-27T17:37:40Z</time></trkpt><trkpt lat="30.064840365127388" lon="-9.558551794894536"><ele>67.0</ele><time>2026-04-27T17:37:41Z</time></trkpt><trkpt lat="30.064654201043002" lon="-9.55863896141844"><ele>68.66666666666666</ele><time>2026-04-27T17:37:42Z</time></trkpt><trkpt lat="30.06445501448686" lon="-9.5587329961693"><ele>70.33333333333333</ele><time>2026-04-27T17:37:43Z</time></trkpt><trkpt lat="30.064257125052084" lon="-9.55883435367989"><ele>72.0</ele><time>2026-04-27T17:37:44Z</time></trkpt><trkpt lat="30.064062672328383" lon="-9.558941502379742"><ele>72.5</ele><time>2026-04-27T17:37:45Z</time></trkpt><trkpt lat="30.063855999829638" lon="-9.559056069801304"><ele>73.0</ele><time>2026-04-27T17:37:46Z</time></trkpt><trkpt lat="30.06363950988827" lon="-9.55917691539374"><ele>73.0</ele><time>2026-04-27T17:37:47Z</time></trkpt><trkpt lat="30.063420850588205" lon="-9.559301137393213"><ele>73.0</ele><time>2026-04-27T17:37:48Z</time></trkpt><trkpt lat="30.063204317364924" lon="-9.559421677354159"><ele>71.5</ele><time>2026-04-27T17:37:49Z</time></trkpt><trkpt lat="30.062986180755612" lon="-9.559540725166844"><ele>70.0</ele><time>2026-04-27T17:37:50Z</time></trkpt><trkpt lat="30.062762594844262" lon="-9.559659544879558"><ele>70.0</ele><time>2026-04-27T17:37:51Z</time></trkpt><trkpt lat="30.062529903186984" lon="-9.559779025100372"><ele>70.0</ele><time>2026-04-27T17:37:52Z</time></trkpt><trkpt lat="30.06230125541311" lon="-9.559894980562497"><ele>70.5</ele><time>2026-04-27T17:37:53Z</time></trkpt><trkpt lat="30.06207977038158" lon="-9.560010104197092"><ele>71.0</ele><time>2026-04-27T17:37:54Z</time></trkpt><trkpt lat="30.061867524717197" lon="-9.560123370265233"><ele>71.0</ele><time>2026-04-27T17:37:55Z</time></trkpt><trkpt lat="30.061663873135565" lon="-9.56023858955908"><ele>71.0</ele><time>2026-04-27T17:37:56Z</time></trkpt><trkpt lat="30.061461359294103" lon="-9.56035450266392"><ele>70.5</ele><time>2026-04-27T17:37:57Z</time></trkpt><trkpt lat="30.061255272135433" lon="-9.560466685019692"><ele>70.0</ele><time>2026-04-27T17:37:58Z</time></trkpt><trkpt lat="30.061048735917847" lon="-9.560576048662528"><ele>70.0</ele><time>2026-04-27T17:37:59Z</time></trkpt><trkpt lat="30.060835382717094" lon="-9.560686321227116"><ele>70.0</ele><time>2026-04-27T17:38:00Z</time></trkpt><trkpt lat="30.060628178944643" lon="-9.560795564240006"><ele>70.0</ele><time>2026-04-27T17:38:01Z</time></trkpt><trkpt lat="30.0604185249015" lon="-9.560902105897688"><ele>70.0</ele><time>2026-04-27T17:38:02Z</time></trkpt><trkpt lat="30.060208144153535" lon="-9.561000981670764"><ele>70.0</ele><time>2026-04-27T17:38:03Z</time></trkpt><trkpt lat="30.059991137081273" lon="-9.561092660205889"><ele>70.0</ele><time>2026-04-27T17:38:04Z</time></trkpt><trkpt lat="30.05977238617998" lon="-9.561175490675863"><ele>69.0</ele><time>2026-04-27T17:38:05Z</time></trkpt><trkpt lat="30.059547648134828" lon="-9.561258155966286"><ele>68.0</ele><time>2026-04-27T17:38:06Z</time></trkpt><trkpt lat="30.05932191408066" lon="-9.561347983381467"><ele>68.0</ele><time>2026-04-27T17:38:07Z</time></trkpt><trkpt lat="30.059093997947652" lon="-9.561444769149936"><ele>68.0</ele><time>2026-04-27T17:38:08Z</time></trkpt><trkpt lat="30.058867618778752" lon="-9.561538925745811"><ele>68.0</ele><time>2026-04-27T17:38:09Z</time></trkpt><trkpt lat="30.058641052228005" lon="-9.561625303327803"><ele>68.0</ele><time>2026-04-27T17:38:10Z</time></trkpt><trkpt lat="30.05841764930336" lon="-9.56170526608292"><ele>68.5</ele><time>2026-04-27T17:38:11Z</time></trkpt><trkpt lat="30.0581975546229" lon="-9.561782707554421"><ele>69.0</ele><time>2026-04-27T17:38:12Z</time></trkpt><trkpt lat="30.057979999396174" lon="-9.561863837969216"><ele>69.0</ele><time>2026-04-27T17:38:13Z</time></trkpt><trkpt lat="30.057762006931465" lon="-9.561945448575623"><ele>69.0</ele><time>2026-04-27T17:38:14Z</time></trkpt><trkpt lat="30.057543996651013" lon="-9.562024643999369"><ele>68.33333333333333</ele><time>2026-04-27T17:38:15Z</time></trkpt><trkpt lat="30.05734135070307" lon="-9.562100179673939"><ele>67.66666666666666</ele><time>2026-04-27T17:38:16Z</time></trkpt><trkpt lat="30.057154429498503" lon="-9.562169136605094"><ele>67.0</ele><time>2026-04-27T17:38:17Z</time></trkpt><trkpt lat="30.056974329638585" lon="-9.562234187809658"><ele>67.0</ele><time>2026-04-27T17:38:18Z</time></trkpt><trkpt lat="30.0567862182771" lon="-9.562294402519369"><ele>67.0</ele><time>2026-04-27T17:38:19Z</time></trkpt><trkpt lat="30.05657845014148" lon="-9.562359241759602"><ele>67.0</ele><time>2026-04-27T17:38:20Z</time></trkpt><trkpt lat="30.056360853945844" lon="-9.562430588311978"><ele>66.5</ele><time>2026-04-27T17:38:21Z</time></trkpt><trkpt lat="30.056136579432277" lon="-9.562502586276535"><ele>66.0</ele><time>2026-04-27T17:38:22Z</time></trkpt><trkpt lat="30.055915575037726" lon="-9.562575981225255"><ele>66.0</ele><time>2026-04-27T17:38:23Z</time></trkpt><trkpt lat="30.0556944150189" lon="-9.562655512707092"><ele>66.0</ele><time>2026-04-27T17:38:24Z</time></trkpt><trkpt lat="30.055467710164386" lon="-9.562747807121028"><ele>66.0</ele><time>2026-04-27T17:38:25Z</time></trkpt><trkpt lat="30.05523809539258" lon="-9.562844345489388"><ele>66.0</ele><time>2026-04-27T17:38:26Z</time></trkpt><trkpt lat="30.055004378369006" lon="-9.562939013877642"><ele>67.0</ele><time>2026-04-27T17:38:27Z</time></trkpt><trkpt lat="30.054773478183122" lon="-9.563027308311796"><ele>68.0</ele><time>2026-04-27T17:38:28Z</time></trkpt><trkpt lat="30.054548062271106" lon="-9.563106809848078"><ele>68.0</ele><time>2026-04-27T17:38:29Z</time></trkpt><trkpt lat="30.05432703176968" lon="-9.563183206607883"><ele>68.0</ele><time>2026-04-27T17:38:30Z</time></trkpt><trkpt lat="30.05413367405343" lon="-9.56324689127861"><ele>68.0</ele><time>2026-04-27T17:38:31Z</time></trkpt><trkpt lat="30.053969993833583" lon="-9.56329691226672"><ele>68.75</ele><time>2026-04-27T17:38:32Z</time></trkpt><trkpt lat="30.05382175900594" lon="-9.563342431500782"><ele>69.5</ele><time>2026-04-27T17:38:33Z</time></trkpt><trkpt lat="30.053681206994113" lon="-9.56339065383094"><ele>70.25</ele><time>2026-04-27T17:38:34Z</time></trkpt><trkpt lat="30.053540585508614" lon="-9.563442887607792"><ele>71.0</ele><time>2026-04-27T17:38:35Z</time></trkpt><trkpt lat="30.053382932262174" lon="-9.563504297552827"><ele>70.66666666666667</ele><time>2026-04-27T17:38:36Z</time></trkpt><trkpt lat="30.05321575365823" lon="-9.563572692851883"><ele>70.33333333333333</ele><time>2026-04-27T17:38:37Z</time></trkpt><trkpt lat="30.05304519400281" lon="-9.563643543382629"><ele>70.0</ele><time>2026-04-27T17:38:38Z</time></trkpt><trkpt lat="30.05287860964977" lon="-9.563710903072195"><ele>69.66666666666666</ele><time>2026-04-27T17:38:39Z</time></trkpt><trkpt lat="30.052721732331516" lon="-9.563770881317485"><ele>69.33333333333333</ele><time>2026-04-27T17:38:40Z</time></trkpt><trkpt lat="30.052572956041093" lon="-9.563824735106474"><ele>69.0</ele><time>2026-04-27T17:38:41Z</time></trkpt><trkpt lat="30.052434202790543" lon="-9.563875170200689"><ele>67.75</ele><time>2026-04-27T17:38:42Z</time></trkpt><trkpt lat="30.052303368916593" lon="-9.563919836853731"><ele>66.5</ele><time>2026-04-27T17:38:43Z</time></trkpt><trkpt lat="30.05217566177204" lon="-9.56396382880747"><ele>65.25</ele><time>2026-04-27T17:38:44Z</time></trkpt><trkpt lat="30.05204795392342" lon="-9.564009192858084"><ele>64.0</ele><time>2026-04-27T17:38:45Z</time></trkpt><trkpt lat="30.051927826337316" lon="-9.56405635894529"><ele>64.0</ele><time>2026-04-27T17:38:46Z</time></trkpt><trkpt lat="30.051818900553684" lon="-9.564099116962591"><ele>64.0</ele><time>2026-04-27T17:38:47Z</time></trkpt><trkpt lat="30.051723154666863" lon="-9.564139252374531"><ele>64.0</ele><time>2026-04-27T17:38:48Z</time></trkpt><trkpt lat="30.05163470209525" lon="-9.564178443702929"><ele>64.0</ele><time>2026-04-27T17:38:49Z</time></trkpt><trkpt lat="30.05154822949762" lon="-9.564218738778706"><ele>64.0</ele><time>2026-04-27T17:38:50Z</time></trkpt><trkpt lat="30.05146632745069" lon="-9.564260825088542"><ele>64.28571428571428</ele><time>2026-04-27T17:38:51Z</time></trkpt><trkpt lat="30.05139115034424" lon="-9.564303318847966"><ele>64.57142857142857</ele><time>2026-04-27T17:38:52Z</time></trkpt><trkpt lat="30.051324832132398" lon="-9.564343186339267"><ele>64.85714285714286</ele><time>2026-04-27T17:38:53Z</time></trkpt><trkpt lat="30.05126963084469" lon="-9.564384341036247"><ele>65.14285714285714</ele><time>2026-04-27T17:38:54Z</time></trkpt><trkpt lat="30.0512114981278" lon="-9.564431470489797"><ele>65.42857142857143</ele><time>2026-04-27T17:38:55Z</time></trkpt><trkpt lat="30.05115153071114" lon="-9.564477242251199"><ele>65.71428571428571</ele><time>2026-04-27T17:38:56Z</time></trkpt><trkpt lat="30.051081943714433" lon="-9.564511647089471"><ele>66.0</ele><time>2026-04-27T17:38:57Z</time></trkpt><trkpt lat="30.05098958743195" lon="-9.564525482500171"><ele>66.0</ele><time>2026-04-27T17:38:58Z</time></trkpt><trkpt lat="30.050869425357952" lon="-9.564519676707079"><ele>66.0</ele><time>2026-04-27T17:38:59Z</time></trkpt><trkpt lat="30.05073758353758" lon="-9.564519937739396"><ele>66.0</ele><time>2026-04-27T17:39:00Z</time></trkpt><trkpt lat="30.050610421331374" lon="-9.564547435669644"><ele>66.0</ele><time>2026-04-27T17:39:01Z</time></trkpt><trkpt lat="30.05047471866423" lon="-9.564598664447177"><ele>66.25</ele><time>2026-04-27T17:39:02Z</time></trkpt><trkpt lat="30.050331559889948" lon="-9.564654132802808"><ele>66.5</ele><time>2026-04-27T17:39:03Z</time></trkpt><trkpt lat="30.050205606236975" lon="-9.564702666282212"><ele>66.75</ele><time>2026-04-27T17:39:04Z</time></trkpt><trkpt lat="30.050092341676383" lon="-9.564745714275713"><ele>67.0</ele><time>2026-04-27T17:39:05Z</time></trkpt><trkpt lat="30.049990149254622" lon="-9.564784311014105"><ele>67.0</ele><time>2026-04-27T17:39:06Z</time></trkpt><trkpt lat="30.049893546530733" lon="-9.564820747546598"><ele>67.0</ele><time>2026-04-27T17:39:07Z</time></trkpt><trkpt lat="30.04980427344882" lon="-9.56485499411439"><ele>67.0</ele><time>2026-04-27T17:39:08Z</time></trkpt><trkpt lat="30.049722257398862" lon="-9.564885390107362"><ele>67.0</ele><time>2026-04-27T17:39:09Z</time></trkpt><trkpt lat="30.049631826880955" lon="-9.564915251329705"><ele>67.0</ele><time>2026-04-27T17:39:10Z</time></trkpt><trkpt lat="30.049535732243076" lon="-9.564951544406869"><ele>67.0</ele><time>2026-04-27T17:39:11Z</time></trkpt><trkpt lat="30.049440066959374" lon="-9.564989725735701"><ele>67.0</ele><time>2026-04-27T17:39:12Z</time></trkpt><trkpt lat="30.049356017115276" lon="-9.565021365432404"><ele>67.0</ele><time>2026-04-27T17:39:13Z</time></trkpt><trkpt lat="30.049275974427513" lon="-9.565049069851055"><ele>67.0</ele><time>2026-04-27T17:39:14Z</time></trkpt><trkpt lat="30.049186106461953" lon="-9.565082113216581"><ele>67.0</ele><time>2026-04-27T17:39:15Z</time></trkpt><trkpt lat="30.04908925153215" lon="-9.565117019819812"><ele>67.0</ele><time>2026-04-27T17:39:16Z</time></trkpt><trkpt lat="30.048993301462726" lon="-9.565150996669054"><ele>67.0</ele><time>2026-04-27T17:39:17Z</time></trkpt><trkpt lat="30.048893968893537" lon="-9.565188812834505"><ele>67.0</ele><time>2026-04-27T17:39:18Z</time></trkpt><trkpt lat="30.048799153051146" lon="-9.565225112007589"><ele>67.0</ele><time>2026-04-27T17:39:19Z</time></trkpt><trkpt lat="30.048706397554163" lon="-9.56525853544538"><ele>67.0</ele><time>2026-04-27T17:39:20Z</time></trkpt><trkpt lat="30.048617992289216" lon="-9.565291216932756"><ele>67.0</ele><time>2026-04-27T17:39:21Z</time></trkpt><trkpt lat="30.048531488878364" lon="-9.565324837074794"><ele>67.0</ele><time>2026-04-27T17:39:22Z</time></trkpt><trkpt lat="30.048435062387874" lon="-9.565361556410078"><ele>67.0</ele><time>2026-04-27T17:39:23Z</time></trkpt><trkpt lat="30.048338497905913" lon="-9.565396579120671"><ele>67.0</ele><time>2026-04-27T17:39:24Z</time></trkpt><trkpt lat="30.04823957761646" lon="-9.565433084937563"><ele>67.0</ele><time>2026-04-27T17:39:25Z</time></trkpt><trkpt lat="30.04813788087006" lon="-9.565466303030016"><ele>67.0</ele><time>2026-04-27T17:39:26Z</time></trkpt><trkpt lat="30.04803639950564" lon="-9.565501641128403"><ele>67.0</ele><time>2026-04-27T17:39:27Z</time></trkpt><trkpt lat="30.04793493559931" lon="-9.56554039732609"><ele>67.0</ele><time>2026-04-27T17:39:28Z</time></trkpt><trkpt lat="30.04784278881038" lon="-9.56557580634193"><ele>67.0</ele><time>2026-04-27T17:39:29Z</time></trkpt><trkpt lat="30.047759203290948" lon="-9.56560838501932"><ele>67.0</ele><time>2026-04-27T17:39:30Z</time></trkpt><trkpt lat="30.047672380955984" lon="-9.565640722149338"><ele>67.0</ele><time>2026-04-27T17:39:31Z</time></trkpt><trkpt lat="30.047573368865418" lon="-9.565678216887827"><ele>67.0</ele><time>2026-04-27T17:39:32Z</time></trkpt><trkpt lat="30.04746985918931" lon="-9.565711062179107"><ele>67.0</ele><time>2026-04-27T17:39:33Z</time></trkpt><trkpt lat="30.047363151346122" lon="-9.565747199799283"><ele>67.0</ele><time>2026-04-27T17:39:34Z</time></trkpt><trkpt lat="30.047256846778012" lon="-9.565783870307424"><ele>67.0</ele><time>2026-04-27T17:39:35Z</time></trkpt><trkpt lat="30.047139015216192" lon="-9.565825899342299"><ele>67.25</ele><time>2026-04-27T17:39:36Z</time></trkpt><trkpt lat="30.047014787343112" lon="-9.565868584218192"><ele>67.5</ele><time>2026-04-27T17:39:37Z</time></trkpt><trkpt lat="30.046897938369515" lon="-9.56591076972557"><ele>67.75</ele><time>2026-04-27T17:39:38Z</time></trkpt><trkpt lat="30.04678236585206" lon="-9.565952936890442"><ele>68.0</ele><time>2026-04-27T17:39:39Z</time></trkpt><trkpt lat="30.046659392622647" lon="-9.56599905854234"><ele>68.25</ele><time>2026-04-27T17:39:40Z</time></trkpt><trkpt lat="30.04653226666007" lon="-9.566046950514433"><ele>68.5</ele><time>2026-04-27T17:39:41Z</time></trkpt><trkpt lat="30.04640200851377" lon="-9.566091918263217"><ele>68.75</ele><time>2026-04-27T17:39:42Z</time></trkpt><trkpt lat="30.04627017196965" lon="-9.566135873601317"><ele>69.0</ele><time>2026-04-27T17:39:43Z</time></trkpt><trkpt lat="30.046140557031073" lon="-9.566179817469388"><ele>68.75</ele><time>2026-04-27T17:39:44Z</time></trkpt><trkpt lat="30.046014768553455" lon="-9.566223581936224"><ele>68.5</ele><time>2026-04-27T17:39:45Z</time></trkpt><trkpt lat="30.045891820834818" lon="-9.566271610850622"><ele>68.25</ele><time>2026-04-27T17:39:46Z</time></trkpt><trkpt lat="30.04576817102018" lon="-9.566316901926122"><ele>68.0</ele><time>2026-04-27T17:39:47Z</time></trkpt><trkpt lat="30.045647899244283" lon="-9.566360573328051"><ele>68.0</ele><time>2026-04-27T17:39:48Z</time></trkpt><trkpt lat="30.045537603030784" lon="-9.56639958175022"><ele>68.0</ele><time>2026-04-27T17:39:49Z</time></trkpt><trkpt lat="30.045433193358363" lon="-9.566436611769822"><ele>68.0</ele><time>2026-04-27T17:39:50Z</time></trkpt><trkpt lat="30.045334686922498" lon="-9.566472761628294"><ele>68.0</ele><time>2026-04-27T17:39:51Z</time></trkpt><trkpt lat="30.04524615648231" lon="-9.566504627511032"><ele>68.0</ele><time>2026-04-27T17:39:52Z</time></trkpt><trkpt lat="30.045173612594205" lon="-9.566532068269767"><ele>68.0</ele><time>2026-04-27T17:39:53Z</time></trkpt><trkpt lat="30.04510013240419" lon="-9.566560279887014"><ele>68.0</ele><time>2026-04-27T17:39:54Z</time></trkpt><trkpt lat="30.045015475400444" lon="-9.566588182988765"><ele>68.0</ele><time>2026-04-27T17:39:55Z</time></trkpt><trkpt lat="30.04492867187174" lon="-9.566617683771875"><ele>68.0</ele><time>2026-04-27T17:39:56Z</time></trkpt><trkpt lat="30.044833303203813" lon="-9.566663160181323"><ele>68.0</ele><time>2026-04-27T17:39:57Z</time></trkpt><trkpt lat="30.044719980299163" lon="-9.566715733915652"><ele>68.0</ele><time>2026-04-27T17:39:58Z</time></trkpt><trkpt lat="30.044604586593092" lon="-9.566768402263476"><ele>68.0</ele><time>2026-04-27T17:39:59Z</time></trkpt><trkpt lat="30.04449145945546" lon="-9.566810963698222"><ele>68.0</ele><time>2026-04-27T17:40:00Z</time></trkpt><trkpt lat="30.0443744354974" lon="-9.56685060508618"><ele>68.0</ele><time>2026-04-27T17:40:01Z</time></trkpt><trkpt lat="30.044258079130724" lon="-9.566891519927491"><ele>68.0</ele><time>2026-04-27T17:40:02Z</time></trkpt><trkpt lat="30.044145248819618" lon="-9.566935268326217"><ele>68.0</ele><time>2026-04-27T17:40:03Z</time></trkpt><trkpt lat="30.044018582651407" lon="-9.566982756399897"><ele>68.0</ele><time>2026-04-27T17:40:04Z</time></trkpt><trkpt lat="30.043872011141943" lon="-9.567033718744975"><ele>68.0</ele><time>2026-04-27T17:40:05Z</time></trkpt><trkpt lat="30.043729311079478" lon="-9.567077292569497"><ele>69.0</ele><time>2026-04-27T17:40:06Z</time></trkpt><trkpt lat="30.043574961818372" lon="-9.567124611322194"><ele>70.0</ele><time>2026-04-27T17:40:07Z</time></trkpt><trkpt lat="30.043404877185456" lon="-9.567189145736833"><ele>71.0</ele><time>2026-04-27T17:40:08Z</time></trkpt><trkpt lat="30.043232190974052" lon="-9.567263520817473"><ele>71.0</ele><time>2026-04-27T17:40:09Z</time></trkpt><trkpt lat="30.043040870322542" lon="-9.567349267654075"><ele>71.0</ele><time>2026-04-27T17:40:10Z</time></trkpt><trkpt lat="30.04284109519147" lon="-9.567443271148154"><ele>71.0</ele><time>2026-04-27T17:40:11Z</time></trkpt><trkpt lat="30.042634999834384" lon="-9.567541552567988"><ele>71.0</ele><time>2026-04-27T17:40:12Z</time></trkpt><trkpt lat="30.042438109320454" lon="-9.567634325178847"><ele>71.0</ele><time>2026-04-27T17:40:13Z</time></trkpt><trkpt lat="30.042240013973185" lon="-9.567725341387373"><ele>71.0</ele><time>2026-04-27T17:40:14Z</time></trkpt><trkpt lat="30.042040284206628" lon="-9.567813914006132"><ele>70.5</ele><time>2026-04-27T17:40:15Z</time></trkpt><trkpt lat="30.041828274932804" lon="-9.567908913689678"><ele>70.0</ele><time>2026-04-27T17:40:16Z</time></trkpt><trkpt lat="30.041612144808475" lon="-9.568006065816634"><ele>70.0</ele><time>2026-04-27T17:40:17Z</time></trkpt><trkpt lat="30.041392905440105" lon="-9.56810600710535"><ele>70.0</ele><time>2026-04-27T17:40:18Z</time></trkpt><trkpt lat="30.041167475529488" lon="-9.568214377211943"><ele>70.0</ele><time>2026-04-27T17:40:19Z</time></trkpt><trkpt lat="30.040928947466046" lon="-9.568328898423072"><ele>70.0</ele><time>2026-04-27T17:40:20Z</time></trkpt><trkpt lat="30.04067703781385" lon="-9.568447995662028"><ele>70.0</ele><time>2026-04-27T17:40:21Z</time></trkpt><trkpt lat="30.04042873469124" lon="-9.568567896193704"><ele>70.0</ele><time>2026-04-27T17:40:22Z</time></trkpt><trkpt lat="30.040185997735907" lon="-9.568687456177909"><ele>69.5</ele><time>2026-04-27T17:40:23Z</time></trkpt><trkpt lat="30.039947617826304" lon="-9.56880811827202"><ele>69.0</ele><time>2026-04-27T17:40:24Z</time></trkpt><trkpt lat="30.039709419902227" lon="-9.568932414935329"><ele>69.0</ele><time>2026-04-27T17:40:25Z</time></trkpt><trkpt lat="30.03946990820414" lon="-9.5690534838562"><ele>69.0</ele><time>2026-04-27T17:40:26Z</time></trkpt><trkpt lat="30.039233108528283" lon="-9.56916501994538"><ele>69.5</ele><time>2026-04-27T17:40:27Z</time></trkpt><trkpt lat="30.038995941018783" lon="-9.569270006272236"><ele>70.0</ele><time>2026-04-27T17:40:28Z</time></trkpt><trkpt lat="30.038758978172304" lon="-9.569371545643731"><ele>70.0</ele><time>2026-04-27T17:40:29Z</time></trkpt><trkpt lat="30.038525140126712" lon="-9.569467681647065"><ele>70.0</ele><time>2026-04-27T17:40:30Z</time></trkpt><trkpt lat="30.038304172689134" lon="-9.569560006515742"><ele>71.5</ele><time>2026-04-27T17:40:31Z</time></trkpt><trkpt lat="30.038082131422147" lon="-9.569660800594734"><ele>73.0</ele><time>2026-04-27T17:40:32Z</time></trkpt><trkpt lat="30.03784966472415" lon="-9.569778086860984"><ele>73.0</ele><time>2026-04-27T17:40:33Z</time></trkpt><trkpt lat="30.037612102085234" lon="-9.5699042282416"><ele>73.0</ele><time>2026-04-27T17:40:34Z</time></trkpt><trkpt lat="30.03737255869963" lon="-9.57002759311912"><ele>72.5</ele><time>2026-04-27T17:40:35Z</time></trkpt><trkpt lat="30.037129492393245" lon="-9.570145823871973"><ele>72.0</ele><time>2026-04-27T17:40:36Z</time></trkpt><trkpt lat="30.036884675841772" lon="-9.570263305740868"><ele>70.0</ele><time>2026-04-27T17:40:37Z</time></trkpt><trkpt lat="30.036635757295628" lon="-9.570381899794588"><ele>68.0</ele><time>2026-04-27T17:40:38Z</time></trkpt><trkpt lat="30.036386445269862" lon="-9.570500073394381"><ele>68.0</ele><time>2026-04-27T17:40:39Z</time></trkpt><trkpt lat="30.036135653038063" lon="-9.570617130585646"><ele>68.0</ele><time>2026-04-27T17:40:40Z</time></trkpt><trkpt lat="30.035886248679486" lon="-9.570729956205136"><ele>70.5</ele><time>2026-04-27T17:40:41Z</time></trkpt><trkpt lat="30.035638863014068" lon="-9.570843283978144"><ele>73.0</ele><time>2026-04-27T17:40:42Z</time></trkpt><trkpt lat="30.035394262791215" lon="-9.570957304466727"><ele>73.0</ele><time>2026-04-27T17:40:43Z</time></trkpt><trkpt lat="30.03515338850599" lon="-9.571074404685053"><ele>73.0</ele><time>2026-04-27T17:40:44Z</time></trkpt><trkpt lat="30.0349104633325" lon="-9.571193465361999"><ele>72.5</ele><time>2026-04-27T17:40:45Z</time></trkpt><trkpt lat="30.03468241378707" lon="-9.571304804921997"><ele>72.0</ele><time>2026-04-27T17:40:46Z</time></trkpt><trkpt lat="30.034458444711532" lon="-9.57141037197562"><ele>72.0</ele><time>2026-04-27T17:40:47Z</time></trkpt><trkpt lat="30.03423111113895" lon="-9.57151540345476"><ele>72.0</ele><time>2026-04-27T17:40:48Z</time></trkpt><trkpt lat="30.03399944742855" lon="-9.571621673093121"><ele>72.0</ele><time>2026-04-27T17:40:49Z</time></trkpt><trkpt lat="30.033765704631843" lon="-9.571731656447861"><ele>72.0</ele><time>2026-04-27T17:40:50Z</time></trkpt><trkpt lat="30.03353190115262" lon="-9.571842875153857"><ele>71.0</ele><time>2026-04-27T17:40:51Z</time></trkpt><trkpt lat="30.033298056733408" lon="-9.571952745877194"><ele>70.0</ele><time>2026-04-27T17:40:52Z</time></trkpt><trkpt lat="30.033061829756527" lon="-9.57206253606425"><ele>70.0</ele><time>2026-04-27T17:40:53Z</time></trkpt><trkpt lat="30.032828013527016" lon="-9.572170980285"><ele>70.0</ele><time>2026-04-27T17:40:54Z</time></trkpt><trkpt lat="30.032595384439613" lon="-9.572277219012056"><ele>71.5</ele><time>2026-04-27T17:40:55Z</time></trkpt><trkpt lat="30.03236402424545" lon="-9.572380699968427"><ele>73.0</ele><time>2026-04-27T17:40:56Z</time></trkpt><trkpt lat="30.03213311255388" lon="-9.572492050403195"><ele>73.0</ele><time>2026-04-27T17:40:57Z</time></trkpt><trkpt lat="30.031905402120934" lon="-9.572597637421598"><ele>73.0</ele><time>2026-04-27T17:40:58Z</time></trkpt><trkpt lat="30.031672937778296" lon="-9.572703051664453"><ele>72.5</ele><time>2026-04-27T17:40:59Z</time></trkpt><trkpt lat="30.031437510738645" lon="-9.572812733653542"><ele>72.0</ele><time>2026-04-27T17:41:00Z</time></trkpt><trkpt lat="30.031203982288424" lon="-9.572923550726186"><ele>72.5</ele><time>2026-04-27T17:41:01Z</time></trkpt><trkpt lat="30.03097582138699" lon="-9.573030749151826"><ele>73.0</ele><time>2026-04-27T17:41:02Z</time></trkpt><trkpt lat="30.030751935835394" lon="-9.573132743826974"><ele>73.0</ele><time>2026-04-27T17:41:03Z</time></trkpt><trkpt lat="30.03052935178002" lon="-9.573235771536616"><ele>73.0</ele><time>2026-04-27T17:41:04Z</time></trkpt><trkpt lat="30.030307537873636" lon="-9.573339316648704"><ele>73.0</ele><time>2026-04-27T17:41:05Z</time></trkpt><trkpt lat="30.030084494628998" lon="-9.573441710848487"><ele>73.0</ele><time>2026-04-27T17:41:06Z</time></trkpt><trkpt lat="30.029856487365763" lon="-9.573547230022621"><ele>72.5</ele><time>2026-04-27T17:41:07Z</time></trkpt><trkpt lat="30.029631185352372" lon="-9.573654970698234"><ele>72.0</ele><time>2026-04-27T17:41:08Z</time></trkpt><trkpt lat="30.02940573922816" lon="-9.57376044941329"><ele>71.5</ele><time>2026-04-27T17:41:09Z</time></trkpt><trkpt lat="30.029179166956297" lon="-9.57386266716112"><ele>71.0</ele><time>2026-04-27T17:41:10Z</time></trkpt><trkpt lat="30.02895473982177" lon="-9.573964001334538"><ele>71.0</ele><time>2026-04-27T17:41:11Z</time></trkpt><trkpt lat="30.028730484812026" lon="-9.57406707290573"><ele>71.0</ele><time>2026-04-27T17:41:12Z</time></trkpt><trkpt lat="30.028504388958503" lon="-9.574171409863478"><ele>73.0</ele><time>2026-04-27T17:41:13Z</time></trkpt><trkpt lat="30.02827972373819" lon="-9.574275713126237"><ele>75.0</ele><time>2026-04-27T17:41:14Z</time></trkpt><trkpt lat="30.028058305648496" lon="-9.574377537315938"><ele>75.0</ele><time>2026-04-27T17:41:15Z</time></trkpt><trkpt lat="30.027832895476873" lon="-9.574481159893104"><ele>75.0</ele><time>2026-04-27T17:41:16Z</time></trkpt><trkpt lat="30.027613186812243" lon="-9.574584175420163"><ele>74.5</ele><time>2026-04-27T17:41:17Z</time></trkpt><trkpt lat="30.027399544779136" lon="-9.574685695387702"><ele>74.0</ele><time>2026-04-27T17:41:18Z</time></trkpt><trkpt lat="30.02718725957978" lon="-9.57478785081389"><ele>74.0</ele><time>2026-04-27T17:41:19Z</time></trkpt><trkpt lat="30.02697229327924" lon="-9.574891300094587"><ele>74.0</ele><time>2026-04-27T17:41:20Z</time></trkpt><trkpt lat="30.026755545980016" lon="-9.5749919222494"><ele>75.5</ele><time>2026-04-27T17:41:21Z</time></trkpt><trkpt lat="30.026535035598602" lon="-9.575093336057446"><ele>77.0</ele><time>2026-04-27T17:41:22Z</time></trkpt><trkpt lat="30.026313739985685" lon="-9.575194255800552"><ele>77.0</ele><time>2026-04-27T17:41:23Z</time></trkpt><trkpt lat="30.026092600423897" lon="-9.575296062562572"><ele>77.0</ele><time>2026-04-27T17:41:24Z</time></trkpt><trkpt lat="30.02587564090383" lon="-9.57539762963034"><ele>77.5</ele><time>2026-04-27T17:41:25Z</time></trkpt><trkpt lat="30.02565645432392" lon="-9.575498757933975"><ele>78.0</ele><time>2026-04-27T17:41:26Z</time></trkpt><trkpt lat="30.025452409897586" lon="-9.575594233647406"><ele>78.0</ele><time>2026-04-27T17:41:27Z</time></trkpt><trkpt lat="30.02526111504911" lon="-9.575685088074533"><ele>78.0</ele><time>2026-04-27T17:41:28Z</time></trkpt><trkpt lat="30.025073804945592" lon="-9.575776131565254"><ele>78.0</ele><time>2026-04-27T17:41:29Z</time></trkpt><trkpt lat="30.02488257659098" lon="-9.57586440914573"><ele>76.0</ele><time>2026-04-27T17:41:30Z</time></trkpt><trkpt lat="30.024684867951898" lon="-9.575954441091264"><ele>74.0</ele><time>2026-04-27T17:41:31Z</time></trkpt><trkpt lat="30.024483706567075" lon="-9.576043559087367"><ele>72.0</ele><time>2026-04-27T17:41:32Z</time></trkpt><trkpt lat="30.024280622023465" lon="-9.576132963809876"><ele>71.66666666666667</ele><time>2026-04-27T17:41:33Z</time></trkpt><trkpt lat="30.024077651154354" lon="-9.57622408616092"><ele>71.33333333333334</ele><time>2026-04-27T17:41:34Z</time></trkpt><trkpt lat="30.02387415231686" lon="-9.576316680344481"><ele>71.0</ele><time>2026-04-27T17:41:35Z</time></trkpt><trkpt lat="30.023666662604228" lon="-9.576409235525066"><ele>71.0</ele><time>2026-04-27T17:41:36Z</time></trkpt><trkpt lat="30.02345164976713" lon="-9.576502453266308"><ele>71.0</ele><time>2026-04-27T17:41:37Z</time></trkpt><trkpt lat="30.02323697267567" lon="-9.576600869404015"><ele>71.0</ele><time>2026-04-27T17:41:38Z</time></trkpt><trkpt lat="30.023023277470106" lon="-9.57669808119338"><ele>71.0</ele><time>2026-04-27T17:41:39Z</time></trkpt><trkpt lat="30.022806948593683" lon="-9.576798725299964"><ele>71.0</ele><time>2026-04-27T17:41:40Z</time></trkpt><trkpt lat="30.02258840071946" lon="-9.576901280216717"><ele>71.0</ele><time>2026-04-27T17:41:41Z</time></trkpt><trkpt lat="30.022366847917272" lon="-9.577004445158206"><ele>71.0</ele><time>2026-04-27T17:41:42Z</time></trkpt><trkpt lat="30.02214311846134" lon="-9.577109054162626"><ele>71.0</ele><time>2026-04-27T17:41:43Z</time></trkpt><trkpt lat="30.02192124886986" lon="-9.577211929166774"><ele>71.0</ele><time>2026-04-27T17:41:44Z</time></trkpt><trkpt lat="30.021700026304213" lon="-9.577313145809653"><ele>71.0</ele><time>2026-04-27T17:41:45Z</time></trkpt><trkpt lat="30.021481455393666" lon="-9.577413551126737"><ele>70.5</ele><time>2026-04-27T17:41:46Z</time></trkpt><trkpt lat="30.02126173747411" lon="-9.577512868018708"><ele>70.0</ele><time>2026-04-27T17:41:47Z</time></trkpt><trkpt lat="30.021047394596028" lon="-9.57761370064782"><ele>70.0</ele><time>2026-04-27T17:41:48Z</time></trkpt><trkpt lat="30.020838973056097" lon="-9.57771044926262"><ele>70.0</ele><time>2026-04-27T17:41:49Z</time></trkpt><trkpt lat="30.02063758544644" lon="-9.577803788613656"><ele>70.0</ele><time>2026-04-27T17:41:50Z</time></trkpt><trkpt lat="30.020438822939948" lon="-9.577894380019538"><ele>69.66666666666666</ele><time>2026-04-27T17:41:51Z</time></trkpt><trkpt lat="30.02024400081461" lon="-9.577986827558155"><ele>69.33333333333333</ele><time>2026-04-27T17:41:52Z</time></trkpt><trkpt lat="30.020046799232578" lon="-9.578081685507893"><ele>69.0</ele><time>2026-04-27T17:41:53Z</time></trkpt><trkpt lat="30.01984852326146" lon="-9.578178399984962"><ele>69.0</ele><time>2026-04-27T17:41:54Z</time></trkpt><trkpt lat="30.019649869800737" lon="-9.578278308718305"><ele>69.0</ele><time>2026-04-27T17:41:55Z</time></trkpt><trkpt lat="30.019446521787724" lon="-9.578384916415288"><ele>69.0</ele><time>2026-04-27T17:41:56Z</time></trkpt><trkpt lat="30.019245052512563" lon="-9.57849682849668"><ele>69.0</ele><time>2026-04-27T17:41:57Z</time></trkpt><trkpt lat="30.01904159197794" lon="-9.578614557027315"><ele>69.0</ele><time>2026-04-27T17:41:58Z</time></trkpt><trkpt lat="30.01883919779947" lon="-9.578738908800482"><ele>68.5</ele><time>2026-04-27T17:41:59Z</time></trkpt><trkpt lat="30.01864067909912" lon="-9.578866900679987"><ele>68.0</ele><time>2026-04-27T17:42:00Z</time></trkpt><trkpt lat="30.018444887171718" lon="-9.579000393491922"><ele>67.66666666666667</ele><time>2026-04-27T17:42:01Z</time></trkpt><trkpt lat="30.01825062077558" lon="-9.579130092975012"><ele>67.33333333333333</ele><time>2026-04-27T17:42:02Z</time></trkpt><trkpt lat="30.018066168538983" lon="-9.579255961055875"><ele>67.0</ele><time>2026-04-27T17:42:03Z</time></trkpt><trkpt lat="30.017894148269015" lon="-9.579378349701557"><ele>67.0</ele><time>2026-04-27T17:42:04Z</time></trkpt><trkpt lat="30.017729122483" lon="-9.579498515062225"><ele>67.0</ele><time>2026-04-27T17:42:05Z</time></trkpt><trkpt lat="30.017556359709655" lon="-9.579618016449828"><ele>67.0</ele><time>2026-04-27T17:42:06Z</time></trkpt><trkpt lat="30.01737906536742" lon="-9.579737110172742"><ele>67.0</ele><time>2026-04-27T17:42:07Z</time></trkpt><trkpt lat="30.017194346553126" lon="-9.579857809026874"><ele>67.0</ele><time>2026-04-27T17:42:08Z</time></trkpt><trkpt lat="30.01700737585053" lon="-9.579971988834403"><ele>67.0</ele><time>2026-04-27T17:42:09Z</time></trkpt><trkpt lat="30.0168173506581" lon="-9.580094208731184"><ele>67.33333333333333</ele><time>2026-04-27T17:42:10Z</time></trkpt><trkpt lat="30.016631284741855" lon="-9.580218302772765"><ele>67.66666666666667</ele><time>2026-04-27T17:42:11Z</time></trkpt><trkpt lat="30.016444538321124" lon="-9.580342118360633"><ele>68.0</ele><time>2026-04-27T17:42:12Z</time></trkpt><trkpt lat="30.016264395054325" lon="-9.580458601680048"><ele>68.0</ele><time>2026-04-27T17:42:13Z</time></trkpt><trkpt lat="30.016088661714637" lon="-9.580570890740265"><ele>68.0</ele><time>2026-04-27T17:42:14Z</time></trkpt><trkpt lat="30.01592175423208" lon="-9.58067725271084"><ele>68.0</ele><time>2026-04-27T17:42:15Z</time></trkpt><trkpt lat="30.01576449211956" lon="-9.580778106886225"><ele>67.5</ele><time>2026-04-27T17:42:16Z</time></trkpt><trkpt lat="30.015618346396554" lon="-9.580872877080758"><ele>67.0</ele><time>2026-04-27T17:42:17Z</time></trkpt><trkpt lat="30.01549043901225" lon="-9.58095737849683"><ele>66.5</ele><time>2026-04-27T17:42:18Z</time></trkpt><trkpt lat="30.015380888223905" lon="-9.58103483806993"><ele>66.0</ele><time>2026-04-27T17:42:19Z</time></trkpt><trkpt lat="30.01529495756624" lon="-9.581102114040544"><ele>66.0</ele><time>2026-04-27T17:42:20Z</time></trkpt><trkpt lat="30.0152142451531" lon="-9.581173891092849"><ele>66.0</ele><time>2026-04-27T17:42:21Z</time></trkpt><trkpt lat="30.0151509663375" lon="-9.581251582140954"><ele>66.0</ele><time>2026-04-27T17:42:22Z</time></trkpt><trkpt lat="30.01509477344702" lon="-9.581332553903831"><ele>66.0</ele><time>2026-04-27T17:42:23Z</time></trkpt><trkpt lat="30.0150234724813" lon="-9.581407406044981"><ele>66.0</ele><time>2026-04-27T17:42:24Z</time></trkpt><trkpt lat="30.014919269976797" lon="-9.58145520084889"><ele>65.33333333333333</ele><time>2026-04-27T17:42:25Z</time></trkpt><trkpt lat="30.014780121177886" lon="-9.581492071261573"><ele>64.66666666666666</ele><time>2026-04-27T17:42:26Z</time></trkpt><trkpt lat="30.01461516483941" lon="-9.58156512128864"><ele>64.0</ele><time>2026-04-27T17:42:27Z</time></trkpt><trkpt lat="30.01445172322727" lon="-9.581660750239502"><ele>64.0</ele><time>2026-04-27T17:42:28Z</time></trkpt><trkpt lat="30.014280205170643" lon="-9.581772890958225"><ele>64.0</ele><time>2026-04-27T17:42:29Z</time></trkpt><trkpt lat="30.014101223935054" lon="-9.581892403249093"><ele>64.0</ele><time>2026-04-27T17:42:30Z</time></trkpt><trkpt lat="30.013911862298674" lon="-9.582022140580808"><ele>64.66666666666666</ele><time>2026-04-27T17:42:31Z</time></trkpt><trkpt lat="30.013717864465963" lon="-9.582150705128436"><ele>65.33333333333333</ele><time>2026-04-27T17:42:32Z</time></trkpt><trkpt lat="30.01352328582705" lon="-9.582279537594644"><ele>66.0</ele><time>2026-04-27T17:42:33Z</time></trkpt><trkpt lat="30.01332488517341" lon="-9.582402665494241"><ele>65.0</ele><time>2026-04-27T17:42:34Z</time></trkpt><trkpt lat="30.01311829429215" lon="-9.58253076407209"><ele>64.0</ele><time>2026-04-27T17:42:35Z</time></trkpt><trkpt lat="30.012904331395404" lon="-9.582667729936224"><ele>64.0</ele><time>2026-04-27T17:42:36Z</time></trkpt><trkpt lat="30.012683604601246" lon="-9.582814557284285"><ele>64.0</ele><time>2026-04-27T17:42:37Z</time></trkpt><trkpt lat="30.012471176093342" lon="-9.58295539945846"><ele>65.0</ele><time>2026-04-27T17:42:38Z</time></trkpt><trkpt lat="30.01225913491194" lon="-9.583094131348092"><ele>66.0</ele><time>2026-04-27T17:42:39Z</time></trkpt><trkpt lat="30.012042867800503" lon="-9.583232973391459"><ele>66.0</ele><time>2026-04-27T17:42:40Z</time></trkpt><trkpt lat="30.01183562325728" lon="-9.583364271739566"><ele>66.0</ele><time>2026-04-27T17:42:41Z</time></trkpt><trkpt lat="30.01162705722435" lon="-9.583488298902846"><ele>65.0</ele><time>2026-04-27T17:42:42Z</time></trkpt><trkpt lat="30.01140466362879" lon="-9.58361100765157"><ele>64.0</ele><time>2026-04-27T17:42:43Z</time></trkpt><trkpt lat="30.01116890651542" lon="-9.583729576336497"><ele>63.0</ele><time>2026-04-27T17:42:44Z</time></trkpt><trkpt lat="30.010928606150184" lon="-9.583834333322482"><ele>62.0</ele><time>2026-04-27T17:42:45Z</time></trkpt><trkpt lat="30.010679377261752" lon="-9.583937374390805"><ele>62.0</ele><time>2026-04-27T17:42:46Z</time></trkpt><trkpt lat="30.01041481272042" lon="-9.584042244880223"><ele>62.0</ele><time>2026-04-27T17:42:47Z</time></trkpt><trkpt lat="30.01015514898545" lon="-9.584141584207446"><ele>59.5</ele><time>2026-04-27T17:42:48Z</time></trkpt><trkpt lat="30.00991672082631" lon="-9.5842189264048"><ele>57.0</ele><time>2026-04-27T17:42:49Z</time></trkpt><trkpt lat="30.009689471638325" lon="-9.58429373791037"><ele>57.0</ele><time>2026-04-27T17:42:50Z</time></trkpt><trkpt lat="30.00946007331167" lon="-9.58436895528442"><ele>57.0</ele><time>2026-04-27T17:42:51Z</time></trkpt><trkpt lat="30.009223418355695" lon="-9.58444369010029"><ele>58.0</ele><time>2026-04-27T17:42:52Z</time></trkpt><trkpt lat="30.00897762602047" lon="-9.584523905687282"><ele>59.0</ele><time>2026-04-27T17:42:53Z</time></trkpt><trkpt lat="30.008722811690184" lon="-9.584607172425295"><ele>59.0</ele><time>2026-04-27T17:42:54Z</time></trkpt><trkpt lat="30.00846767583735" lon="-9.584687592429633"><ele>59.0</ele><time>2026-04-27T17:42:55Z</time></trkpt><trkpt lat="30.008214255821578" lon="-9.584768269000804"><ele>59.5</ele><time>2026-04-27T17:42:56Z</time></trkpt><trkpt lat="30.007963461690153" lon="-9.584848702775684"><ele>60.0</ele><time>2026-04-27T17:42:57Z</time></trkpt><trkpt lat="30.0077101023675" lon="-9.58493158626916"><ele>61.0</ele><time>2026-04-27T17:42:58Z</time></trkpt><trkpt lat="30.007459824777854" lon="-9.585014243651651"><ele>62.0</ele><time>2026-04-27T17:42:59Z</time></trkpt><trkpt lat="30.007231550111882" lon="-9.585085171247364"><ele>62.0</ele><time>2026-04-27T17:43:00Z</time></trkpt><trkpt lat="30.00703128992161" lon="-9.585151918664781"><ele>62.0</ele><time>2026-04-27T17:43:01Z</time></trkpt><trkpt lat="30.006842153683095" lon="-9.585219323044415"><ele>62.0</ele><time>2026-04-27T17:43:02Z</time></trkpt><trkpt lat="30.006658328799986" lon="-9.585284619407942"><ele>61.0</ele><time>2026-04-27T17:43:03Z</time></trkpt><trkpt lat="30.00647299077927" lon="-9.58534400650877"><ele>60.0</ele><time>2026-04-27T17:43:04Z</time></trkpt><trkpt lat="30.00628062297652" lon="-9.585404162814767"><ele>59.0</ele><time>2026-04-27T17:43:05Z</time></trkpt><trkpt lat="30.006088086666324" lon="-9.58546891487859"><ele>58.66666666666667</ele><time>2026-04-27T17:43:06Z</time></trkpt><trkpt lat="30.005892723712915" lon="-9.58553780901541"><ele>58.33333333333333</ele><time>2026-04-27T17:43:07Z</time></trkpt><trkpt lat="30.00569708285006" lon="-9.585604529090126"><ele>58.0</ele><time>2026-04-27T17:43:08Z</time></trkpt><trkpt lat="30.00550372327642" lon="-9.585669007567516"><ele>58.0</ele><time>2026-04-27T17:43:09Z</time></trkpt><trkpt lat="30.00531446457751" lon="-9.585731371723826"><ele>58.0</ele><time>2026-04-27T17:43:10Z</time></trkpt><trkpt lat="30.005126657603643" lon="-9.585795314041341"><ele>58.0</ele><time>2026-04-27T17:43:11Z</time></trkpt><trkpt lat="30.004952865069978" lon="-9.585856530930666"><ele>57.666666666666664</ele><time>2026-04-27T17:43:12Z</time></trkpt><trkpt lat="30.004785642913475" lon="-9.585913766703245"><ele>57.33333333333333</ele><time>2026-04-27T17:43:13Z</time></trkpt><trkpt lat="30.00459797394079" lon="-9.585973956352843"><ele>57.0</ele><time>2026-04-27T17:43:14Z</time></trkpt><trkpt lat="30.00439629371693" lon="-9.586038711591849"><ele>57.0</ele><time>2026-04-27T17:43:15Z</time></trkpt><trkpt lat="30.004206955277855" lon="-9.586097643103399"><ele>57.0</ele><time>2026-04-27T17:43:16Z</time></trkpt><trkpt lat="30.004023294973308" lon="-9.586153117892504"><ele>57.0</ele><time>2026-04-27T17:43:17Z</time></trkpt><trkpt lat="30.003839731872585" lon="-9.586207662657813"><ele>57.33333333333333</ele><time>2026-04-27T17:43:18Z</time></trkpt><trkpt lat="30.003656077291723" lon="-9.58626293812401"><ele>57.666666666666664</ele><time>2026-04-27T17:43:19Z</time></trkpt><trkpt lat="30.003470197457567" lon="-9.58631947057323"><ele>58.0</ele><time>2026-04-27T17:43:20Z</time></trkpt><trkpt lat="30.00328524635284" lon="-9.586370708579011"><ele>58.0</ele><time>2026-04-27T17:43:21Z</time></trkpt><trkpt lat="30.00309491425875" lon="-9.58642418701119"><ele>58.0</ele><time>2026-04-27T17:43:22Z</time></trkpt><trkpt lat="30.002899860802156" lon="-9.586481496259786"><ele>58.0</ele><time>2026-04-27T17:43:23Z</time></trkpt><trkpt lat="30.00269909389643" lon="-9.586540798235399"><ele>58.0</ele><time>2026-04-27T17:43:24Z</time></trkpt><trkpt lat="30.00250683715186" lon="-9.58660864015804"><ele>58.0</ele><time>2026-04-27T17:43:25Z</time></trkpt><trkpt lat="30.002303749135045" lon="-9.586670688750383"><ele>58.0</ele><time>2026-04-27T17:43:26Z</time></trkpt><trkpt lat="30.00207573600217" lon="-9.58673762965676"><ele>58.5</ele><time>2026-04-27T17:43:27Z</time></trkpt><trkpt lat="30.00183570529844" lon="-9.586818111140284"><ele>59.0</ele><time>2026-04-27T17:43:28Z</time></trkpt><trkpt lat="30.001589901843367" lon="-9.586907471976671"><ele>59.0</ele><time>2026-04-27T17:43:29Z</time></trkpt><trkpt lat="30.00133749114087" lon="-9.587000402974425"><ele>59.0</ele><time>2026-04-27T17:43:30Z</time></trkpt><trkpt lat="30.001080468292468" lon="-9.587088723447962"><ele>56.5</ele><time>2026-04-27T17:43:31Z</time></trkpt><trkpt lat="30.00081796412182" lon="-9.587173488133825"><ele>54.0</ele><time>2026-04-27T17:43:32Z</time></trkpt><trkpt lat="30.00056026686926" lon="-9.587256045089179"><ele>54.0</ele><time>2026-04-27T17:43:33Z</time></trkpt><trkpt lat="30.00030182610506" lon="-9.587336701271223"><ele>54.0</ele><time>2026-04-27T17:43:34Z</time></trkpt><trkpt lat="30.000044372349297" lon="-9.587416904459968"><ele>54.0</ele><time>2026-04-27T17:43:35Z</time></trkpt><trkpt lat="29.999787618967385" lon="-9.587496382296838"><ele>54.0</ele><time>2026-04-27T17:43:36Z</time></trkpt><trkpt lat="29.999535580216726" lon="-9.587575128528611"><ele>54.0</ele><time>2026-04-27T17:43:37Z</time></trkpt><trkpt lat="29.99928219244424" lon="-9.587649879072647"><ele>54.0</ele><time>2026-04-27T17:43:38Z</time></trkpt><trkpt lat="29.99901811360023" lon="-9.587729034445449"><ele>54.0</ele><time>2026-04-27T17:43:39Z</time></trkpt><trkpt lat="29.998750279789743" lon="-9.587813300950092"><ele>54.0</ele><time>2026-04-27T17:43:40Z</time></trkpt><trkpt lat="29.99848261119836" lon="-9.587897831307991"><ele>53.5</ele><time>2026-04-27T17:43:41Z</time></trkpt><trkpt lat="29.99821723899111" lon="-9.58798122385616"><ele>53.0</ele><time>2026-04-27T17:43:42Z</time></trkpt><trkpt lat="29.997951960314474" lon="-9.588066433945112"><ele>53.0</ele><time>2026-04-27T17:43:43Z</time></trkpt><trkpt lat="29.997686051029135" lon="-9.588154562065258"><ele>53.0</ele><time>2026-04-27T17:43:44Z</time></trkpt><trkpt lat="29.997427870491087" lon="-9.588244774138865"><ele>53.5</ele><time>2026-04-27T17:43:45Z</time></trkpt><trkpt lat="29.99717667590149" lon="-9.588341879474916"><ele>54.0</ele><time>2026-04-27T17:43:46Z</time></trkpt><trkpt lat="29.996923002707288" lon="-9.588439305178749"><ele>54.0</ele><time>2026-04-27T17:43:47Z</time></trkpt><trkpt lat="29.996666479809136" lon="-9.588530198347884"><ele>54.0</ele><time>2026-04-27T17:43:48Z</time></trkpt><trkpt lat="29.996406697366808" lon="-9.588619651551552"><ele>53.5</ele><time>2026-04-27T17:43:49Z</time></trkpt><trkpt lat="29.996148545688488" lon="-9.588705736503142"><ele>53.0</ele><time>2026-04-27T17:43:50Z</time></trkpt><trkpt lat="29.995890720796634" lon="-9.588788412559527"><ele>52.5</ele><time>2026-04-27T17:43:51Z</time></trkpt><trkpt lat="29.995634733764255" lon="-9.588870148995932"><ele>52.0</ele><time>2026-04-27T17:43:52Z</time></trkpt><trkpt lat="29.99538005503287" lon="-9.588952497075425"><ele>52.0</ele><time>2026-04-27T17:43:53Z</time></trkpt><trkpt lat="29.99512166009539" lon="-9.589036095216382"><ele>52.0</ele><time>2026-04-27T17:43:54Z</time></trkpt><trkpt lat="29.99486504670139" lon="-9.589117963078598"><ele>52.5</ele><time>2026-04-27T17:43:55Z</time></trkpt><trkpt lat="29.99461009650225" lon="-9.589199801064245"><ele>53.0</ele><time>2026-04-27T17:43:56Z</time></trkpt><trkpt lat="29.994360822021704" lon="-9.589280773550529"><ele>53.0</ele><time>2026-04-27T17:43:57Z</time></trkpt><trkpt lat="29.994128139028838" lon="-9.589357529643067"><ele>53.0</ele><time>2026-04-27T17:43:58Z</time></trkpt><trkpt lat="29.993907954530624" lon="-9.589431299367888"><ele>53.0</ele><time>2026-04-27T17:43:59Z</time></trkpt><trkpt lat="29.993699585579556" lon="-9.58950169872315"><ele>53.0</ele><time>2026-04-27T17:44:00Z</time></trkpt><trkpt lat="29.993500399606273" lon="-9.58956717729718"><ele>53.0</ele><time>2026-04-27T17:44:01Z</time></trkpt><trkpt lat="29.993313608027652" lon="-9.589628173229999"><ele>53.0</ele><time>2026-04-27T17:44:02Z</time></trkpt><trkpt lat="29.99313511129277" lon="-9.589685613894805"><ele>53.0</ele><time>2026-04-27T17:44:03Z</time></trkpt><trkpt lat="29.99296767243029" lon="-9.589739037727922"><ele>53.0</ele><time>2026-04-27T17:44:04Z</time></trkpt><trkpt lat="29.992812065993103" lon="-9.58979121794531"><ele>53.0</ele><time>2026-04-27T17:44:05Z</time></trkpt><trkpt lat="29.992666810494097" lon="-9.58984067182491"><ele>53.0</ele><time>2026-04-27T17:44:06Z</time></trkpt><trkpt lat="29.992528787774287" lon="-9.589887641188154"><ele>53.0</ele><time>2026-04-27T17:44:07Z</time></trkpt><trkpt lat="29.992395499135053" lon="-9.589929643341492"><ele>53.0</ele><time>2026-04-27T17:44:08Z</time></trkpt><trkpt lat="29.992263553595635" lon="-9.589971826820456"><ele>52.66666666666667</ele><time>2026-04-27T17:44:09Z</time></trkpt><trkpt lat="29.99211219383489" lon="-9.590019658717177"><ele>52.33333333333333</ele><time>2026-04-27T17:44:10Z</time></trkpt><trkpt lat="29.991949371131778" lon="-9.59006971542055"><ele>52.0</ele><time>2026-04-27T17:44:11Z</time></trkpt><trkpt lat="29.991771288760013" lon="-9.590123177409689"><ele>53.0</ele><time>2026-04-27T17:44:12Z</time></trkpt><trkpt lat="29.991580440621664" lon="-9.590181293215492"><ele>54.0</ele><time>2026-04-27T17:44:13Z</time></trkpt><trkpt lat="29.991398015436975" lon="-9.590234761115187"><ele>55.0</ele><time>2026-04-27T17:44:14Z</time></trkpt><trkpt lat="29.991207926985144" lon="-9.590290338336729"><ele>54.33333333333333</ele><time>2026-04-27T17:44:15Z</time></trkpt><trkpt lat="29.99102147062276" lon="-9.59034614858057"><ele>53.66666666666667</ele><time>2026-04-27T17:44:16Z</time></trkpt><trkpt lat="29.99083951945447" lon="-9.590400934991841"><ele>53.0</ele><time>2026-04-27T17:44:17Z</time></trkpt><trkpt lat="29.990664559484806" lon="-9.590457536746143"><ele>52.333333333333336</ele><time>2026-04-27T17:44:18Z</time></trkpt><trkpt lat="29.99048944455314" lon="-9.590515246715732"><ele>51.66666666666667</ele><time>2026-04-27T17:44:19Z</time></trkpt><trkpt lat="29.99031759471812" lon="-9.590572661269368"><ele>51.0</ele><time>2026-04-27T17:44:20Z</time></trkpt><trkpt lat="29.99015477127941" lon="-9.59062434398886"><ele>50.66666666666667</ele><time>2026-04-27T17:44:21Z</time></trkpt><trkpt lat="29.989991407279476" lon="-9.590674889754801"><ele>50.333333333333336</ele><time>2026-04-27T17:44:22Z</time></trkpt><trkpt lat="29.98983872839053" lon="-9.590724911641898"><ele>50.0</ele><time>2026-04-27T17:44:23Z</time></trkpt><trkpt lat="29.98969987767835" lon="-9.59077552580959"><ele>50.0</ele><time>2026-04-27T17:44:24Z</time></trkpt><trkpt lat="29.98955888329257" lon="-9.590847792011793"><ele>50.0</ele><time>2026-04-27T17:44:25Z</time></trkpt><trkpt lat="29.98943304401325" lon="-9.590927056198211"><ele>50.0</ele><time>2026-04-27T17:44:26Z</time></trkpt><trkpt lat="29.989321880880432" lon="-9.591003597382697"><ele>50.0</ele><time>2026-04-27T17:44:27Z</time></trkpt><trkpt lat="29.989210857868628" lon="-9.59104505579613"><ele>50.0</ele><time>2026-04-27T17:44:28Z</time></trkpt><trkpt lat="29.989090984359297" lon="-9.591047844597671"><ele>50.0</ele><time>2026-04-27T17:44:29Z</time></trkpt><trkpt lat="29.988988645084728" lon="-9.591052048228436"><ele>50.0</ele><time>2026-04-27T17:44:30Z</time></trkpt><trkpt lat="29.988891685385607" lon="-9.591071644421666"><ele>50.0</ele><time>2026-04-27T17:44:31Z</time></trkpt><trkpt lat="29.988791157663844" lon="-9.591102347017893"><ele>50.0</ele><time>2026-04-27T17:44:32Z</time></trkpt><trkpt lat="29.988690651965285" lon="-9.591139795378718"><ele>50.00000000000001</ele><time>2026-04-27T17:44:33Z</time></trkpt><trkpt lat="29.988598420532433" lon="-9.591171482594971"><ele>50.0</ele><time>2026-04-27T17:44:34Z</time></trkpt><trkpt lat="29.98851153977232" lon="-9.591195137527848"><ele>50.0</ele><time>2026-04-27T17:44:35Z</time></trkpt><trkpt lat="29.98842713674356" lon="-9.591216512937736"><ele>50.0</ele><time>2026-04-27T17:44:36Z</time></trkpt><trkpt lat="29.98834989234454" lon="-9.591238682289854"><ele>50.00000000000001</ele><time>2026-04-27T17:44:37Z</time></trkpt><trkpt lat="29.988264501459927" lon="-9.59125957185932"><ele>50.0</ele><time>2026-04-27T17:44:38Z</time></trkpt><trkpt lat="29.988191248956184" lon="-9.591282509323646"><ele>50.0</ele><time>2026-04-27T17:44:39Z</time></trkpt><trkpt lat="29.988127314893077" lon="-9.591304702874265"><ele>50.0</ele><time>2026-04-27T17:44:40Z</time></trkpt><trkpt lat="29.988046037813074" lon="-9.59132851504288"><ele>50.0</ele><time>2026-04-27T17:44:41Z</time></trkpt><trkpt lat="29.98793791115368" lon="-9.591369731364024"><ele>50.0</ele><time>2026-04-27T17:44:42Z</time></trkpt><trkpt lat="29.98778607445686" lon="-9.591431235740574"><ele>50.0</ele><time>2026-04-27T17:44:43Z</time></trkpt><trkpt lat="29.98762847153374" lon="-9.59149035993378"><ele>50.0</ele><time>2026-04-27T17:44:44Z</time></trkpt><trkpt lat="29.987473923716983" lon="-9.591543908167335"><ele>50.0</ele><time>2026-04-27T17:44:45Z</time></trkpt><trkpt lat="29.987326217452182" lon="-9.591591177071873"><ele>50.0</ele><time>2026-04-27T17:44:46Z</time></trkpt><trkpt lat="29.987192127374545" lon="-9.5916350273163"><ele>50.0</ele><time>2026-04-27T17:44:47Z</time></trkpt><trkpt lat="29.987065263181023" lon="-9.591678146424"><ele>50.0</ele><time>2026-04-27T17:44:48Z</time></trkpt><trkpt lat="29.986955580226308" lon="-9.591712110218198"><ele>50.0</ele><time>2026-04-27T17:44:49Z</time></trkpt><trkpt lat="29.98685212620051" lon="-9.591736403142239"><ele>50.0</ele><time>2026-04-27T17:44:50Z</time></trkpt><trkpt lat="29.986760497675494" lon="-9.591763610393409"><ele>50.0</ele><time>2026-04-27T17:44:51Z</time></trkpt><trkpt lat="29.986680618880886" lon="-9.591786275972638"><ele>50.00000000000001</ele><time>2026-04-27T17:44:52Z</time></trkpt><trkpt lat="29.986603088661177" lon="-9.591811646503096"><ele>50.0</ele><time>2026-04-27T17:44:53Z</time></trkpt><trkpt lat="29.986519384370503" lon="-9.591835806532492"><ele>50.0</ele><time>2026-04-27T17:44:54Z</time></trkpt><trkpt lat="29.986430431400798" lon="-9.591862879072782"><ele>50.0</ele><time>2026-04-27T17:44:55Z</time></trkpt><trkpt lat="29.986339489941226" lon="-9.591891003577937"><ele>50.00000000000001</ele><time>2026-04-27T17:44:56Z</time></trkpt><trkpt lat="29.986248453922233" lon="-9.591921164487834"><ele>50.0</ele><time>2026-04-27T17:44:57Z</time></trkpt><trkpt lat="29.986158532200495" lon="-9.591952444677059"><ele>50.00000000000001</ele><time>2026-04-27T17:44:58Z</time></trkpt><trkpt lat="29.986075448646147" lon="-9.591980901598811"><ele>50.0</ele><time>2026-04-27T17:44:59Z</time></trkpt><trkpt lat="29.98600107317943" lon="-9.592004754406913"><ele>50.0</ele><time>2026-04-27T17:45:00Z</time></trkpt><trkpt lat="29.985928664052203" lon="-9.592027735829301"><ele>50.0</ele><time>2026-04-27T17:45:01Z</time></trkpt><trkpt lat="29.985866294342646" lon="-9.592045952421662"><ele>50.0</ele><time>2026-04-27T17:45:02Z</time></trkpt><trkpt lat="29.985804092135023" lon="-9.592064815830502"><ele>50.00000000000001</ele><time>2026-04-27T17:45:03Z</time></trkpt><trkpt lat="29.985738660931073" lon="-9.592084947980345"><ele>50.0</ele><time>2026-04-27T17:45:04Z</time></trkpt><trkpt lat="29.98566547360019" lon="-9.592107591693386"><ele>50.0</ele><time>2026-04-27T17:45:05Z</time></trkpt><trkpt lat="29.98558397666523" lon="-9.592134132658998"><ele>50.0</ele><time>2026-04-27T17:45:06Z</time></trkpt><trkpt lat="29.985498249964024" lon="-9.592165455484082"><ele>50.0</ele><time>2026-04-27T17:45:07Z</time></trkpt><trkpt lat="29.985400551072836" lon="-9.592200054511096"><ele>50.0</ele><time>2026-04-27T17:45:08Z</time></trkpt><trkpt lat="29.98528581183882" lon="-9.592234418809056"><ele>50.0</ele><time>2026-04-27T17:45:09Z</time></trkpt><trkpt lat="29.985167282638805" lon="-9.592270908127125"><ele>50.0</ele><time>2026-04-27T17:45:10Z</time></trkpt><trkpt lat="29.985028263454844" lon="-9.592314338017168"><ele>50.0</ele><time>2026-04-27T17:45:11Z</time></trkpt><trkpt lat="29.984871914824957" lon="-9.59236255985598"><ele>50.0</ele><time>2026-04-27T17:45:12Z</time></trkpt><trkpt lat="29.984698939475265" lon="-9.59241214058325"><ele>50.0</ele><time>2026-04-27T17:45:13Z</time></trkpt><trkpt lat="29.984514834400315" lon="-9.59246442256975"><ele>50.0</ele><time>2026-04-27T17:45:14Z</time></trkpt><trkpt lat="29.98433115968165" lon="-9.592517515836532"><ele>50.0</ele><time>2026-04-27T17:45:15Z</time></trkpt><trkpt lat="29.9841389248155" lon="-9.592574675341652"><ele>48.5</ele><time>2026-04-27T17:45:16Z</time></trkpt><trkpt lat="29.983927338507687" lon="-9.59264087868011"><ele>47.0</ele><time>2026-04-27T17:45:17Z</time></trkpt><trkpt lat="29.983697132837804" lon="-9.592713960721134"><ele>47.0</ele><time>2026-04-27T17:45:18Z</time></trkpt><trkpt lat="29.983451353561264" lon="-9.592789413904422"><ele>47.0</ele><time>2026-04-27T17:45:19Z</time></trkpt><trkpt lat="29.98320008178391" lon="-9.592871122918543"><ele>46.5</ele><time>2026-04-27T17:45:20Z</time></trkpt><trkpt lat="29.98295337474882" lon="-9.592952211531628"><ele>46.0</ele><time>2026-04-27T17:45:21Z</time></trkpt><trkpt lat="29.98270057729152" lon="-9.593035382551045"><ele>47.0</ele><time>2026-04-27T17:45:22Z</time></trkpt><trkpt lat="29.982444960878617" lon="-9.593123468572342"><ele>48.0</ele><time>2026-04-27T17:45:23Z</time></trkpt><trkpt lat="29.982188093334205" lon="-9.593217760307349"><ele>48.0</ele><time>2026-04-27T17:45:24Z</time></trkpt><trkpt lat="29.981928690942404" lon="-9.59331450451585"><ele>48.0</ele><time>2026-04-27T17:45:25Z</time></trkpt><trkpt lat="29.981668488071506" lon="-9.593405910360833"><ele>48.0</ele><time>2026-04-27T17:45:26Z</time></trkpt><trkpt lat="29.98141107441519" lon="-9.593492781931896"><ele>48.0</ele><time>2026-04-27T17:45:27Z</time></trkpt><trkpt lat="29.981158180695125" lon="-9.593575323091713"><ele>48.0</ele><time>2026-04-27T17:45:28Z</time></trkpt><trkpt lat="29.98090874514384" lon="-9.593655176385818"><ele>48.0</ele><time>2026-04-27T17:45:29Z</time></trkpt><trkpt lat="29.980663006748895" lon="-9.59373552185681"><ele>46.5</ele><time>2026-04-27T17:45:30Z</time></trkpt><trkpt lat="29.980423991868808" lon="-9.593816091103927"><ele>45.0</ele><time>2026-04-27T17:45:31Z</time></trkpt><trkpt lat="29.98018326178616" lon="-9.593897118743246"><ele>46.0</ele><time>2026-04-27T17:45:32Z</time></trkpt><trkpt lat="29.979940468946502" lon="-9.59397579278118"><ele>47.0</ele><time>2026-04-27T17:45:33Z</time></trkpt><trkpt lat="29.979702951305665" lon="-9.59405109053546"><ele>47.0</ele><time>2026-04-27T17:45:34Z</time></trkpt><trkpt lat="29.979463465626857" lon="-9.594124375443059"><ele>47.0</ele><time>2026-04-27T17:45:35Z</time></trkpt><trkpt lat="29.979216792492846" lon="-9.5941933752994"><ele>49.0</ele><time>2026-04-27T17:45:36Z</time></trkpt><trkpt lat="29.978960710993835" lon="-9.594256356731492"><ele>51.0</ele><time>2026-04-27T17:45:37Z</time></trkpt><trkpt lat="29.978697632917456" lon="-9.594306760223969"><ele>51.0</ele><time>2026-04-27T17:45:38Z</time></trkpt><trkpt lat="29.978432783243214" lon="-9.594344589098915"><ele>51.0</ele><time>2026-04-27T17:45:39Z</time></trkpt><trkpt lat="29.978166187738847" lon="-9.594373938553655"><ele>50.0</ele><time>2026-04-27T17:45:40Z</time></trkpt><trkpt lat="29.97789825830555" lon="-9.59440058262615"><ele>49.0</ele><time>2026-04-27T17:45:41Z</time></trkpt><trkpt lat="29.977629712740843" lon="-9.594422892770389"><ele>49.5</ele><time>2026-04-27T17:45:42Z</time></trkpt><trkpt lat="29.97735885309788" lon="-9.594436055982523"><ele>50.0</ele><time>2026-04-27T17:45:43Z</time></trkpt><trkpt lat="29.97708705808417" lon="-9.594441599316465"><ele>50.0</ele><time>2026-04-27T17:45:44Z</time></trkpt><trkpt lat="29.976812192562633" lon="-9.594448081324888"><ele>50.0</ele><time>2026-04-27T17:45:45Z</time></trkpt><trkpt lat="29.976538899081053" lon="-9.594457846797845"><ele>50.0</ele><time>2026-04-27T17:45:46Z</time></trkpt><trkpt lat="29.97626969932045" lon="-9.594468192253457"><ele>50.0</ele><time>2026-04-27T17:45:47Z</time></trkpt><trkpt lat="29.976001447710246" lon="-9.59447551241576"><ele>49.0</ele><time>2026-04-27T17:45:48Z</time></trkpt><trkpt lat="29.97573487694242" lon="-9.594486037848363"><ele>48.0</ele><time>2026-04-27T17:45:49Z</time></trkpt><trkpt lat="29.97546374792612" lon="-9.594496675763382"><ele>47.0</ele><time>2026-04-27T17:45:50Z</time></trkpt><trkpt lat="29.975196205466624" lon="-9.594507027920463"><ele>46.0</ele><time>2026-04-27T17:45:51Z</time></trkpt><trkpt lat="29.97493090345517" lon="-9.594513530419954"><ele>46.0</ele><time>2026-04-27T17:45:52Z</time></trkpt><trkpt lat="29.974664589202252" lon="-9.594518775971332"><ele>46.0</ele><time>2026-04-27T17:45:53Z</time></trkpt><trkpt lat="29.97440498260491" lon="-9.594524619106814"><ele>45.0</ele><time>2026-04-27T17:45:54Z</time></trkpt><trkpt lat="29.974156076539675" lon="-9.594531667838298"><ele>44.0</ele><time>2026-04-27T17:45:55Z</time></trkpt><trkpt lat="29.97390796518916" lon="-9.594541522009669"><ele>44.0</ele><time>2026-04-27T17:45:56Z</time></trkpt><trkpt lat="29.97366104981003" lon="-9.594552463558124"><ele>44.0</ele><time>2026-04-27T17:45:57Z</time></trkpt><trkpt lat="29.973418072595905" lon="-9.594561509085677"><ele>43.5</ele><time>2026-04-27T17:45:58Z</time></trkpt><trkpt lat="29.973177391955776" lon="-9.594570523006118"><ele>43.0</ele><time>2026-04-27T17:45:59Z</time></trkpt><trkpt lat="29.97293561163587" lon="-9.594578124795902"><ele>43.0</ele><time>2026-04-27T17:46:00Z</time></trkpt><trkpt lat="29.97269305414139" lon="-9.59458602299229"><ele>43.0</ele><time>2026-04-27T17:46:01Z</time></trkpt><trkpt lat="29.972451821468145" lon="-9.594592052421959"><ele>43.0</ele><time>2026-04-27T17:46:02Z</time></trkpt><trkpt lat="29.972212251478272" lon="-9.594597010158084"><ele>43.0</ele><time>2026-04-27T17:46:03Z</time></trkpt><trkpt lat="29.97197387721749" lon="-9.594600314046174"><ele>43.0</ele><time>2026-04-27T17:46:04Z</time></trkpt><trkpt lat="29.971740753238898" lon="-9.594604081916687"><ele>43.0</ele><time>2026-04-27T17:46:05Z</time></trkpt><trkpt lat="29.971511017882218" lon="-9.594609348659066"><ele>42.5</ele><time>2026-04-27T17:46:06Z</time></trkpt><trkpt lat="29.97128049036982" lon="-9.594614135778977"><ele>42.0</ele><time>2026-04-27T17:46:07Z</time></trkpt><trkpt lat="29.971046935360892" lon="-9.594614952536674"><ele>42.5</ele><time>2026-04-27T17:46:08Z</time></trkpt><trkpt lat="29.970809573725823" lon="-9.594615002424856"><ele>43.0</ele><time>2026-04-27T17:46:09Z</time></trkpt><trkpt lat="29.970581620894247" lon="-9.594614840345459"><ele>43.0</ele><time>2026-04-27T17:46:10Z</time></trkpt><trkpt lat="29.97036607043408" lon="-9.594616045884617"><ele>43.0</ele><time>2026-04-27T17:46:11Z</time></trkpt><trkpt lat="29.970163023378053" lon="-9.59462297238759"><ele>43.0</ele><time>2026-04-27T17:46:12Z</time></trkpt><trkpt lat="29.969969526522135" lon="-9.594636496259106"><ele>44.333333333333336</ele><time>2026-04-27T17:46:13Z</time></trkpt><trkpt lat="29.969786446453785" lon="-9.594652831229613"><ele>45.666666666666664</ele><time>2026-04-27T17:46:14Z</time></trkpt><trkpt lat="29.96961510265863" lon="-9.594665661797386"><ele>47.0</ele><time>2026-04-27T17:46:15Z</time></trkpt><trkpt lat="29.96945054359585" lon="-9.594673590924723"><ele>47.0</ele><time>2026-04-27T17:46:16Z</time></trkpt><trkpt lat="29.969291182545096" lon="-9.594676047236536"><ele>47.0</ele><time>2026-04-27T17:46:17Z</time></trkpt><trkpt lat="29.969133780774516" lon="-9.59467602635556"><ele>47.0</ele><time>2026-04-27T17:46:18Z</time></trkpt><trkpt lat="29.96897739469108" lon="-9.594679286337128"><ele>46.33333333333333</ele><time>2026-04-27T17:46:19Z</time></trkpt><trkpt lat="29.96881991551005" lon="-9.594687094053615"><ele>45.666666666666664</ele><time>2026-04-27T17:46:20Z</time></trkpt><trkpt lat="29.968662690700878" lon="-9.594694991669972"><ele>45.0</ele><time>2026-04-27T17:46:21Z</time></trkpt><trkpt lat="29.9685036824502" lon="-9.59470019089093"><ele>45.333333333333336</ele><time>2026-04-27T17:46:22Z</time></trkpt><trkpt lat="29.968339082701455" lon="-9.594704444067526"><ele>45.66666666666667</ele><time>2026-04-27T17:46:23Z</time></trkpt><trkpt lat="29.968172707455203" lon="-9.59470516436906"><ele>46.0</ele><time>2026-04-27T17:46:24Z</time></trkpt><trkpt lat="29.968014256131255" lon="-9.594710511111302"><ele>46.0</ele><time>2026-04-27T17:46:25Z</time></trkpt><trkpt lat="29.96784664934583" lon="-9.594713666561573"><ele>46.0</ele><time>2026-04-27T17:46:26Z</time></trkpt><trkpt lat="29.967663801862557" lon="-9.594719091528113"><ele>46.0</ele><time>2026-04-27T17:46:27Z</time></trkpt><trkpt lat="29.96745620435865" lon="-9.594718999200891"><ele>46.0</ele><time>2026-04-27T17:46:28Z</time></trkpt><trkpt lat="29.96723416179668" lon="-9.594716666466276"><ele>46.0</ele><time>2026-04-27T17:46:29Z</time></trkpt><trkpt lat="29.966995681485486" lon="-9.594725525249103"><ele>46.0</ele><time>2026-04-27T17:46:30Z</time></trkpt><trkpt lat="29.96674607378987" lon="-9.594742453704995"><ele>46.0</ele><time>2026-04-27T17:46:31Z</time></trkpt><trkpt lat="29.96648636728348" lon="-9.594759309169982"><ele>47.0</ele><time>2026-04-27T17:46:32Z</time></trkpt><trkpt lat="29.96622943677546" lon="-9.59477311885328"><ele>48.0</ele><time>2026-04-27T17:46:33Z</time></trkpt><trkpt lat="29.965971276700333" lon="-9.594782738868428"><ele>47.5</ele><time>2026-04-27T17:46:34Z</time></trkpt><trkpt lat="29.965715159057385" lon="-9.594790845894702"><ele>47.0</ele><time>2026-04-27T17:46:35Z</time></trkpt><trkpt lat="29.965464652557397" lon="-9.594801265036937"><ele>47.0</ele><time>2026-04-27T17:46:36Z</time></trkpt><trkpt lat="29.9652191210647" lon="-9.594811903073904"><ele>47.0</ele><time>2026-04-27T17:46:37Z</time></trkpt><trkpt lat="29.964973766839236" lon="-9.594819166060464"><ele>47.5</ele><time>2026-04-27T17:46:38Z</time></trkpt><trkpt lat="29.96473120462444" lon="-9.594826307353417"><ele>48.0</ele><time>2026-04-27T17:46:39Z</time></trkpt><trkpt lat="29.96449023862682" lon="-9.594835621239158"><ele>48.0</ele><time>2026-04-27T17:46:40Z</time></trkpt><trkpt lat="29.964249130095997" lon="-9.594843831184889"><ele>48.0</ele><time>2026-04-27T17:46:41Z</time></trkpt><trkpt lat="29.964010406906088" lon="-9.594850803125407"><ele>48.0</ele><time>2026-04-27T17:46:42Z</time></trkpt><trkpt lat="29.963770677893898" lon="-9.59485380319843"><ele>48.0</ele><time>2026-04-27T17:46:43Z</time></trkpt><trkpt lat="29.963527558907934" lon="-9.594854993559752"><ele>48.0</ele><time>2026-04-27T17:46:44Z</time></trkpt><trkpt lat="29.96328115884631" lon="-9.594858852187357"><ele>48.0</ele><time>2026-04-27T17:46:45Z</time></trkpt><trkpt lat="29.963036626832572" lon="-9.5948612445308"><ele>48.0</ele><time>2026-04-27T17:46:46Z</time></trkpt><trkpt lat="29.962782024982268" lon="-9.594865390207218"><ele>48.0</ele><time>2026-04-27T17:46:47Z</time></trkpt><trkpt lat="29.962524941156676" lon="-9.594873736983601"><ele>49.0</ele><time>2026-04-27T17:46:48Z</time></trkpt><trkpt lat="29.962265589691548" lon="-9.594884502216972"><ele>50.0</ele><time>2026-04-27T17:46:49Z</time></trkpt><trkpt lat="29.96200493657469" lon="-9.594895869817806"><ele>50.0</ele><time>2026-04-27T17:46:50Z</time></trkpt><trkpt lat="29.961747037290106" lon="-9.594910622482855"><ele>50.0</ele><time>2026-04-27T17:46:51Z</time></trkpt><trkpt lat="29.961494297039685" lon="-9.594927344122613"><ele>50.5</ele><time>2026-04-27T17:46:52Z</time></trkpt><trkpt lat="29.961244766090235" lon="-9.594942302788638"><ele>51.0</ele><time>2026-04-27T17:46:53Z</time></trkpt><trkpt lat="29.960996460892705" lon="-9.594957913357147"><ele>50.5</ele><time>2026-04-27T17:46:54Z</time></trkpt><trkpt lat="29.96074961542707" lon="-9.594972026110797"><ele>50.0</ele><time>2026-04-27T17:46:55Z</time></trkpt><trkpt lat="29.96050627209659" lon="-9.59498580411133"><ele>50.0</ele><time>2026-04-27T17:46:56Z</time></trkpt><trkpt lat="29.960271767733303" lon="-9.594995688275848"><ele>50.0</ele><time>2026-04-27T17:46:57Z</time></trkpt><trkpt lat="29.96005253222399" lon="-9.594999629110736"><ele>50.66666666666667</ele><time>2026-04-27T17:46:58Z</time></trkpt><trkpt lat="29.959844391038736" lon="-9.594999111959885"><ele>51.33333333333333</ele><time>2026-04-27T17:46:59Z</time></trkpt><trkpt lat="29.95964700840309" lon="-9.59499948621954"><ele>52.0</ele><time>2026-04-27T17:47:00Z</time></trkpt><trkpt lat="29.95945859426314" lon="-9.59499896260634"><ele>52.0</ele><time>2026-04-27T17:47:01Z</time></trkpt><trkpt lat="29.95927570544535" lon="-9.594998531087677"><ele>52.0</ele><time>2026-04-27T17:47:02Z</time></trkpt><trkpt lat="29.959100306622013" lon="-9.59500283689261"><ele>52.0</ele><time>2026-04-27T17:47:03Z</time></trkpt><trkpt lat="29.958924658595844" lon="-9.595010794076968"><ele>52.0</ele><time>2026-04-27T17:47:04Z</time></trkpt><trkpt lat="29.958744915509257" lon="-9.595020047785164"><ele>52.0</ele><time>2026-04-27T17:47:05Z</time></trkpt><trkpt lat="29.958564762091356" lon="-9.595025148399044"><ele>52.0</ele><time>2026-04-27T17:47:06Z</time></trkpt><trkpt lat="29.95838543511259" lon="-9.595031350947368"><ele>51.0</ele><time>2026-04-27T17:47:07Z</time></trkpt><trkpt lat="29.958205047098055" lon="-9.59503727737172"><ele>50.0</ele><time>2026-04-27T17:47:08Z</time></trkpt><trkpt lat="29.95802064710941" lon="-9.595044244910408"><ele>49.0</ele><time>2026-04-27T17:47:09Z</time></trkpt><trkpt lat="29.957837213656894" lon="-9.595050016462087"><ele>49.0</ele><time>2026-04-27T17:47:10Z</time></trkpt><trkpt lat="29.957648966553272" lon="-9.595056647796842"><ele>49.0</ele><time>2026-04-27T17:47:11Z</time></trkpt><trkpt lat="29.957463142853232" lon="-9.59506395536301"><ele>49.0</ele><time>2026-04-27T17:47:12Z</time></trkpt><trkpt lat="29.957275824099824" lon="-9.595070490783188"><ele>48.666666666666664</ele><time>2026-04-27T17:47:13Z</time></trkpt><trkpt lat="29.957087771019253" lon="-9.595079312359156"><ele>48.33333333333333</ele><time>2026-04-27T17:47:14Z</time></trkpt><trkpt lat="29.956897279197392" lon="-9.595086008179578"><ele>48.0</ele><time>2026-04-27T17:47:15Z</time></trkpt><trkpt lat="29.956707501302407" lon="-9.595090508215502"><ele>48.33333333333333</ele><time>2026-04-27T17:47:16Z</time></trkpt><trkpt lat="29.95651770466874" lon="-9.595094316840365"><ele>48.666666666666664</ele><time>2026-04-27T17:47:17Z</time></trkpt><trkpt lat="29.956324088177464" lon="-9.595103345470866"><ele>49.0</ele><time>2026-04-27T17:47:18Z</time></trkpt><trkpt lat="29.95613325510862" lon="-9.595112316261028"><ele>49.0</ele><time>2026-04-27T17:47:19Z</time></trkpt><trkpt lat="29.95594130545773" lon="-9.595119353140351"><ele>49.0</ele><time>2026-04-27T17:47:20Z</time></trkpt><trkpt lat="29.95575213732018" lon="-9.595126987166868"><ele>49.0</ele><time>2026-04-27T17:47:21Z</time></trkpt><trkpt lat="29.955557926066906" lon="-9.595131974868313"><ele>50.0</ele><time>2026-04-27T17:47:22Z</time></trkpt><trkpt lat="29.955364506622637" lon="-9.595135739149438"><ele>51.0</ele><time>2026-04-27T17:47:23Z</time></trkpt><trkpt lat="29.955168091627968" lon="-9.595140529353975"><ele>52.0</ele><time>2026-04-27T17:47:24Z</time></trkpt><trkpt lat="29.954975272369882" lon="-9.595147492509975"><ele>52.0</ele><time>2026-04-27T17:47:25Z</time></trkpt><trkpt lat="29.954781914203448" lon="-9.59515592856841"><ele>52.0</ele><time>2026-04-27T17:47:26Z</time></trkpt><trkpt lat="29.954584041726246" lon="-9.595163215774813"><ele>52.0</ele><time>2026-04-27T17:47:27Z</time></trkpt><trkpt lat="29.954385059382346" lon="-9.595171433878422"><ele>51.666666666666664</ele><time>2026-04-27T17:47:28Z</time></trkpt><trkpt lat="29.954181850736205" lon="-9.595179396745637"><ele>51.33333333333333</ele><time>2026-04-27T17:47:29Z</time></trkpt><trkpt lat="29.953968921335036" lon="-9.595185672205472"><ele>51.0</ele><time>2026-04-27T17:47:30Z</time></trkpt><trkpt lat="29.95375571618058" lon="-9.595191685514063"><ele>51.0</ele><time>2026-04-27T17:47:31Z</time></trkpt><trkpt lat="29.953534548847266" lon="-9.595198109747509"><ele>51.0</ele><time>2026-04-27T17:47:32Z</time></trkpt><trkpt lat="29.95331038982355" lon="-9.595202102288548"><ele>51.0</ele><time>2026-04-27T17:47:33Z</time></trkpt><trkpt lat="29.953082388215634" lon="-9.595205128369496"><ele>51.0</ele><time>2026-04-27T17:47:34Z</time></trkpt><trkpt lat="29.95285371358186" lon="-9.595210091218874"><ele>51.0</ele><time>2026-04-27T17:47:35Z</time></trkpt><trkpt lat="29.9526248265149" lon="-9.595217212108219"><ele>50.5</ele><time>2026-04-27T17:47:36Z</time></trkpt><trkpt lat="29.952393055746494" lon="-9.595226755019114"><ele>50.0</ele><time>2026-04-27T17:47:37Z</time></trkpt><trkpt lat="29.952163621470795" lon="-9.595238910416741"><ele>50.0</ele><time>2026-04-27T17:47:38Z</time></trkpt><trkpt lat="29.951930035573376" lon="-9.595249185151008"><ele>50.0</ele><time>2026-04-27T17:47:39Z</time></trkpt><trkpt lat="29.951693730769424" lon="-9.595253575182522"><ele>50.0</ele><time>2026-04-27T17:47:40Z</time></trkpt><trkpt lat="29.951455977182455" lon="-9.595254582208916"><ele>50.0</ele><time>2026-04-27T17:47:41Z</time></trkpt><trkpt lat="29.951223483902595" lon="-9.595260043488722"><ele>50.0</ele><time>2026-04-27T17:47:42Z</time></trkpt><trkpt lat="29.95101712288449" lon="-9.595266805711987"><ele>50.0</ele><time>2026-04-27T17:47:43Z</time></trkpt><trkpt lat="29.95082901576077" lon="-9.595273075160124"><ele>50.0</ele><time>2026-04-27T17:47:44Z</time></trkpt><trkpt lat="29.9506584259936" lon="-9.595281336749487"><ele>50.4</ele><time>2026-04-27T17:47:45Z</time></trkpt><trkpt lat="29.950516466659526" lon="-9.595291671511305"><ele>50.8</ele><time>2026-04-27T17:47:46Z</time></trkpt><trkpt lat="29.95039784563108" lon="-9.595299462280696"><ele>51.2</ele><time>2026-04-27T17:47:47Z</time></trkpt><trkpt lat="29.950303091811453" lon="-9.595308922401237"><ele>51.6</ele><time>2026-04-27T17:47:48Z</time></trkpt><trkpt lat="29.950229344848935" lon="-9.59532170387458"><ele>52.0</ele><time>2026-04-27T17:47:49Z</time></trkpt><trkpt lat="29.95013290051058" lon="-9.59534343557084"><ele>51.99999999999999</ele><time>2026-04-27T17:47:51Z</time></trkpt><trkpt lat="29.950053603874675" lon="-9.595330912030983"><ele>52.0</ele><time>2026-04-27T17:47:53Z</time></trkpt><trkpt lat="29.949986704451298" lon="-9.595332775043468"><ele>52.0</ele><time>2026-04-27T17:47:57Z</time></trkpt><trkpt lat="29.94990374258274" lon="-9.595334041181337"><ele>52.0</ele><time>2026-04-27T17:50:37Z</time></trkpt><trkpt lat="29.949766737511904" lon="-9.595328996434247"><ele>51.99999999999999</ele><time>2026-04-27T17:50:39Z</time></trkpt><trkpt lat="29.949699186981476" lon="-9.59532829737928"><ele>52.0</ele><time>2026-04-27T17:50:40Z</time></trkpt><trkpt lat="29.949627641344332" lon="-9.595328241266925"><ele>52.0</ele><time>2026-04-27T17:50:41Z</time></trkpt><trkpt lat="29.94954050891565" lon="-9.595334291391849"><ele>52.0</ele><time>2026-04-27T17:50:42Z</time></trkpt><trkpt lat="29.949441517662198" lon="-9.595337804335685"><ele>52.0</ele><time>2026-04-27T17:50:43Z</time></trkpt><trkpt lat="29.949324908779076" lon="-9.595339951988642"><ele>52.0</ele><time>2026-04-27T17:50:44Z</time></trkpt><trkpt lat="29.94918861721704" lon="-9.595348548529731"><ele>52.0</ele><time>2026-04-27T17:50:45Z</time></trkpt><trkpt lat="29.949053254523204" lon="-9.595357971391444"><ele>51.33333333333333</ele><time>2026-04-27T17:50:46Z</time></trkpt><trkpt lat="29.948911562568117" lon="-9.595369165033194"><ele>50.66666666666667</ele><time>2026-04-27T17:50:47Z</time></trkpt><trkpt lat="29.948754129321593" lon="-9.595385696349297"><ele>50.0</ele><time>2026-04-27T17:50:48Z</time></trkpt><trkpt lat="29.948577133680327" lon="-9.595411750596972"><ele>50.0</ele><time>2026-04-27T17:50:49Z</time></trkpt><trkpt lat="29.948394330302975" lon="-9.595436925267908"><ele>50.0</ele><time>2026-04-27T17:50:50Z</time></trkpt><trkpt lat="29.948209965837066" lon="-9.595466601007653"><ele>50.0</ele><time>2026-04-27T17:50:51Z</time></trkpt><trkpt lat="29.948021438951283" lon="-9.595495901278648"><ele>50.0</ele><time>2026-04-27T17:50:52Z</time></trkpt><trkpt lat="29.94783021199378" lon="-9.595524417460238"><ele>50.0</ele><time>2026-04-27T17:50:53Z</time></trkpt><trkpt lat="29.94762357201826" lon="-9.5955573183405"><ele>50.0</ele><time>2026-04-27T17:50:54Z</time></trkpt><trkpt lat="29.94739529218499" lon="-9.595591583466762"><ele>50.0</ele><time>2026-04-27T17:50:55Z</time></trkpt><trkpt lat="29.94715169488497" lon="-9.595626139634936"><ele>50.0</ele><time>2026-04-27T17:50:56Z</time></trkpt><trkpt lat="29.94689391530047" lon="-9.59566255330611"><ele>50.0</ele><time>2026-04-27T17:50:57Z</time></trkpt><trkpt lat="29.946620106481944" lon="-9.595704126715166"><ele>50.0</ele><time>2026-04-27T17:50:58Z</time></trkpt><trkpt lat="29.946360735545678" lon="-9.595741050223799"><ele>50.0</ele><time>2026-04-27T17:50:59Z</time></trkpt><trkpt lat="29.946128854176116" lon="-9.595774657484705"><ele>50.0</ele><time>2026-04-27T17:51:00Z</time></trkpt><trkpt lat="29.945913134720637" lon="-9.595806902801387"><ele>49.333333333333336</ele><time>2026-04-27T17:51:01Z</time></trkpt><trkpt lat="29.945709168880512" lon="-9.595840215338116"><ele>48.66666666666667</ele><time>2026-04-27T17:51:02Z</time></trkpt><trkpt lat="29.945499804938954" lon="-9.595871310019001"><ele>48.0</ele><time>2026-04-27T17:51:03Z</time></trkpt><trkpt lat="29.94528551168376" lon="-9.595901318938095"><ele>48.0</ele><time>2026-04-27T17:51:04Z</time></trkpt><trkpt lat="29.945088923728253" lon="-9.5959298817839"><ele>48.0</ele><time>2026-04-27T17:51:05Z</time></trkpt><trkpt lat="29.94489301178978" lon="-9.595958974989607"><ele>48.0</ele><time>2026-04-27T17:51:06Z</time></trkpt><trkpt lat="29.944671993185548" lon="-9.595995093594405"><ele>49.0</ele><time>2026-04-27T17:51:07Z</time></trkpt><trkpt lat="29.944434701488454" lon="-9.596032380407518"><ele>50.0</ele><time>2026-04-27T17:51:08Z</time></trkpt><trkpt lat="29.944191780333217" lon="-9.596067322198413"><ele>50.0</ele><time>2026-04-27T17:51:09Z</time></trkpt><trkpt lat="29.943944923025597" lon="-9.59610388777248"><ele>50.0</ele><time>2026-04-27T17:51:10Z</time></trkpt><trkpt lat="29.94369303069789" lon="-9.596141651677586"><ele>50.0</ele><time>2026-04-27T17:51:11Z</time></trkpt><trkpt lat="29.943433262178658" lon="-9.59618066697141"><ele>50.0</ele><time>2026-04-27T17:51:12Z</time></trkpt><trkpt lat="29.94317176355663" lon="-9.596218832938641"><ele>50.0</ele><time>2026-04-27T17:51:13Z</time></trkpt><trkpt lat="29.94290539100782" lon="-9.596261620234927"><ele>50.0</ele><time>2026-04-27T17:51:14Z</time></trkpt><trkpt lat="29.942630999990914" lon="-9.596306369393462"><ele>49.5</ele><time>2026-04-27T17:51:15Z</time></trkpt><trkpt lat="29.942354851520157" lon="-9.59634400313728"><ele>49.0</ele><time>2026-04-27T17:51:16Z</time></trkpt><trkpt lat="29.942075861870784" lon="-9.596379542780197"><ele>49.0</ele><time>2026-04-27T17:51:17Z</time></trkpt><trkpt lat="29.941790897211646" lon="-9.596417099850147"><ele>49.0</ele><time>2026-04-27T17:51:18Z</time></trkpt><trkpt lat="29.941504734625553" lon="-9.596456282152934"><ele>48.0</ele><time>2026-04-27T17:51:19Z</time></trkpt><trkpt lat="29.941215174450164" lon="-9.596497216998712"><ele>47.0</ele><time>2026-04-27T17:51:20Z</time></trkpt><trkpt lat="29.940924742993893" lon="-9.59653726696115"><ele>47.5</ele><time>2026-04-27T17:51:21Z</time></trkpt><trkpt lat="29.94063509901354" lon="-9.596581220907773"><ele>48.0</ele><time>2026-04-27T17:51:22Z</time></trkpt><trkpt lat="29.94035675727442" lon="-9.596626389382742"><ele>48.0</ele><time>2026-04-27T17:51:23Z</time></trkpt><trkpt lat="29.940079587956426" lon="-9.596674272150763"><ele>48.0</ele><time>2026-04-27T17:51:24Z</time></trkpt><trkpt lat="29.939809946797634" lon="-9.596722009990893"><ele>49.0</ele><time>2026-04-27T17:51:25Z</time></trkpt><trkpt lat="29.93954036080173" lon="-9.596768580719619"><ele>50.0</ele><time>2026-04-27T17:51:26Z</time></trkpt><trkpt lat="29.939271264156734" lon="-9.596813355444421"><ele>50.0</ele><time>2026-04-27T17:51:27Z</time></trkpt><trkpt lat="29.939006713292404" lon="-9.596856502029384"><ele>50.0</ele><time>2026-04-27T17:51:28Z</time></trkpt><trkpt lat="29.938741138426877" lon="-9.596895705107173"><ele>50.0</ele><time>2026-04-27T17:51:29Z</time></trkpt><trkpt lat="29.938478427685997" lon="-9.596936849448321"><ele>50.0</ele><time>2026-04-27T17:51:30Z</time></trkpt><trkpt lat="29.938219057046723" lon="-9.596978337648876"><ele>49.5</ele><time>2026-04-27T17:51:31Z</time></trkpt><trkpt lat="29.937961186884266" lon="-9.597020386813615"><ele>49.0</ele><time>2026-04-27T17:51:32Z</time></trkpt><trkpt lat="29.937702807843618" lon="-9.597061937016836"><ele>49.5</ele><time>2026-04-27T17:51:33Z</time></trkpt><trkpt lat="29.937446464114725" lon="-9.597102288425551"><ele>50.0</ele><time>2026-04-27T17:51:34Z</time></trkpt><trkpt lat="29.937190742786647" lon="-9.597141777774803"><ele>50.0</ele><time>2026-04-27T17:51:35Z</time></trkpt><trkpt lat="29.936937773273957" lon="-9.59718014330666"><ele>50.0</ele><time>2026-04-27T17:51:36Z</time></trkpt><trkpt lat="29.93668451704856" lon="-9.597218681195653"><ele>50.5</ele><time>2026-04-27T17:51:37Z</time></trkpt><trkpt lat="29.936433082284232" lon="-9.597255736398427"><ele>51.0</ele><time>2026-04-27T17:51:38Z</time></trkpt><trkpt lat="29.93618059970443" lon="-9.59729286410344"><ele>51.0</ele><time>2026-04-27T17:51:39Z</time></trkpt><trkpt lat="29.935929697103447" lon="-9.597331376718222"><ele>51.0</ele><time>2026-04-27T17:51:40Z</time></trkpt><trkpt lat="29.9356792305599" lon="-9.597370986960465"><ele>52.5</ele><time>2026-04-27T17:51:41Z</time></trkpt><trkpt lat="29.935427509810772" lon="-9.597409509545486"><ele>54.0</ele><time>2026-04-27T17:51:42Z</time></trkpt><trkpt lat="29.935175034044224" lon="-9.597448731912603"><ele>53.0</ele><time>2026-04-27T17:51:43Z</time></trkpt><trkpt lat="29.93492254341454" lon="-9.597489559359078"><ele>52.0</ele><time>2026-04-27T17:51:44Z</time></trkpt><trkpt lat="29.934672745852907" lon="-9.597526007216697"><ele>52.0</ele><time>2026-04-27T17:51:45Z</time></trkpt><trkpt lat="29.934422490334228" lon="-9.597562696377837"><ele>52.0</ele><time>2026-04-27T17:51:46Z</time></trkpt><trkpt lat="29.934171251634705" lon="-9.597601299075693"><ele>52.5</ele><time>2026-04-27T17:51:47Z</time></trkpt><trkpt lat="29.93391893892505" lon="-9.597641045838309"><ele>53.0</ele><time>2026-04-27T17:51:48Z</time></trkpt><trkpt lat="29.933666853421503" lon="-9.597679106145518"><ele>53.0</ele><time>2026-04-27T17:51:49Z</time></trkpt><trkpt lat="29.933414366601582" lon="-9.597715583511583"><ele>53.0</ele><time>2026-04-27T17:51:50Z</time></trkpt><trkpt lat="29.933163074549903" lon="-9.597752086284055"><ele>53.0</ele><time>2026-04-27T17:51:51Z</time></trkpt><trkpt lat="29.932910946698424" lon="-9.597791701629118"><ele>53.0</ele><time>2026-04-27T17:51:52Z</time></trkpt><trkpt lat="29.93265791385938" lon="-9.597828383877491"><ele>52.0</ele><time>2026-04-27T17:51:53Z</time></trkpt><trkpt lat="29.93240401454183" lon="-9.597864687674278"><ele>51.0</ele><time>2026-04-27T17:51:54Z</time></trkpt><trkpt lat="29.93215051881839" lon="-9.597903271411072"><ele>51.0</ele><time>2026-04-27T17:51:55Z</time></trkpt><trkpt lat="29.93189601810815" lon="-9.597941437246595"><ele>51.0</ele><time>2026-04-27T17:51:56Z</time></trkpt><trkpt lat="29.931642259318778" lon="-9.597974134639422"><ele>49.0</ele><time>2026-04-27T17:51:57Z</time></trkpt><trkpt lat="29.931386128727404" lon="-9.59800415728344"><ele>47.0</ele><time>2026-04-27T17:51:58Z</time></trkpt><trkpt lat="29.93112809662384" lon="-9.598034630670796"><ele>48.5</ele><time>2026-04-27T17:51:59Z</time></trkpt><trkpt lat="29.93087272328028" lon="-9.598069980379805"><ele>50.0</ele><time>2026-04-27T17:52:00Z</time></trkpt><trkpt lat="29.930618064861505" lon="-9.598108839961622"><ele>50.0</ele><time>2026-04-27T17:52:01Z</time></trkpt><trkpt lat="29.93036317853272" lon="-9.598147810787653"><ele>50.0</ele><time>2026-04-27T17:52:02Z</time></trkpt><trkpt lat="29.930109189860623" lon="-9.598185558533542"><ele>49.0</ele><time>2026-04-27T17:52:03Z</time></trkpt><trkpt lat="29.92985478155714" lon="-9.598226165457124"><ele>48.0</ele><time>2026-04-27T17:52:04Z</time></trkpt><trkpt lat="29.9296011426894" lon="-9.598269832340586"><ele>48.0</ele><time>2026-04-27T17:52:05Z</time></trkpt><trkpt lat="29.92934879775394" lon="-9.598315584522629"><ele>48.0</ele><time>2026-04-27T17:52:06Z</time></trkpt><trkpt lat="29.929096384179452" lon="-9.598361435413706"><ele>49.0</ele><time>2026-04-27T17:52:07Z</time></trkpt><trkpt lat="29.928847159109306" lon="-9.598403908176666"><ele>50.0</ele><time>2026-04-27T17:52:08Z</time></trkpt><trkpt lat="29.928593215627256" lon="-9.598441278909233"><ele>50.0</ele><time>2026-04-27T17:52:09Z</time></trkpt><trkpt lat="29.92834397271212" lon="-9.598479953963304"><ele>50.0</ele><time>2026-04-27T17:52:10Z</time></trkpt><trkpt lat="29.92809476762955" lon="-9.598517420249705"><ele>50.0</ele><time>2026-04-27T17:52:11Z</time></trkpt><trkpt lat="29.92784572129535" lon="-9.598554270384984"><ele>50.0</ele><time>2026-04-27T17:52:12Z</time></trkpt><trkpt lat="29.927598631886333" lon="-9.598593719563723"><ele>51.0</ele><time>2026-04-27T17:52:13Z</time></trkpt><trkpt lat="29.92735080237216" lon="-9.598633772225142"><ele>52.0</ele><time>2026-04-27T17:52:14Z</time></trkpt><trkpt lat="29.927103651235043" lon="-9.59867396551395"><ele>52.5</ele><time>2026-04-27T17:52:15Z</time></trkpt><trkpt lat="29.926854305671633" lon="-9.598714553254514"><ele>53.0</ele><time>2026-04-27T17:52:16Z</time></trkpt><trkpt lat="29.926607276515977" lon="-9.59875540077271"><ele>53.0</ele><time>2026-04-27T17:52:17Z</time></trkpt><trkpt lat="29.926359202369778" lon="-9.598793705942647"><ele>53.0</ele><time>2026-04-27T17:52:18Z</time></trkpt><trkpt lat="29.926111177738875" lon="-9.59883051647031"><ele>53.0</ele><time>2026-04-27T17:52:19Z</time></trkpt><trkpt lat="29.92586240136887" lon="-9.598868788900315"><ele>53.0</ele><time>2026-04-27T17:52:20Z</time></trkpt><trkpt lat="29.925613877359204" lon="-9.59890941417375"><ele>53.0</ele><time>2026-04-27T17:52:21Z</time></trkpt><trkpt lat="29.925363882189618" lon="-9.598946513509786"><ele>53.0</ele><time>2026-04-27T17:52:22Z</time></trkpt><trkpt lat="29.925116466652202" lon="-9.598982426859619"><ele>53.5</ele><time>2026-04-27T17:52:23Z</time></trkpt><trkpt lat="29.924864684453635" lon="-9.599019674528602"><ele>54.0</ele><time>2026-04-27T17:52:24Z</time></trkpt><trkpt lat="29.92461901089266" lon="-9.599059154524218"><ele>54.0</ele><time>2026-04-27T17:52:25Z</time></trkpt><trkpt lat="29.92436997731157" lon="-9.599097416504538"><ele>54.0</ele><time>2026-04-27T17:52:26Z</time></trkpt><trkpt lat="29.92412436603655" lon="-9.599136537459625"><ele>54.0</ele><time>2026-04-27T17:52:27Z</time></trkpt><trkpt lat="29.92387452629762" lon="-9.599173676757765"><ele>54.0</ele><time>2026-04-27T17:52:28Z</time></trkpt><trkpt lat="29.923625930489315" lon="-9.599212360034517"><ele>54.5</ele><time>2026-04-27T17:52:29Z</time></trkpt><trkpt lat="29.92337670848036" lon="-9.599250446620628"><ele>55.0</ele><time>2026-04-27T17:52:30Z</time></trkpt><trkpt lat="29.92312792274832" lon="-9.59928662568521"><ele>55.0</ele><time>2026-04-27T17:52:31Z</time></trkpt><trkpt lat="29.922879379960314" lon="-9.599322873029557"><ele>55.0</ele><time>2026-04-27T17:52:32Z</time></trkpt><trkpt lat="29.9226313087568" lon="-9.599360390182097"><ele>54.0</ele><time>2026-04-27T17:52:33Z</time></trkpt><trkpt lat="29.922382373560225" lon="-9.599397661874919"><ele>53.0</ele><time>2026-04-27T17:52:34Z</time></trkpt><trkpt lat="29.922134465281154" lon="-9.599435896645105"><ele>53.0</ele><time>2026-04-27T17:52:35Z</time></trkpt><trkpt lat="29.921887601913475" lon="-9.599473928837785"><ele>53.0</ele><time>2026-04-27T17:52:36Z</time></trkpt><trkpt lat="29.921638001943506" lon="-9.599511968283371"><ele>51.5</ele><time>2026-04-27T17:52:37Z</time></trkpt><trkpt lat="29.921386998801623" lon="-9.599549284159325"><ele>50.0</ele><time>2026-04-27T17:52:38Z</time></trkpt><trkpt lat="29.921137596573043" lon="-9.599588661245239"><ele>50.5</ele><time>2026-04-27T17:52:39Z</time></trkpt><trkpt lat="29.920887451000056" lon="-9.599626599390868"><ele>51.0</ele><time>2026-04-27T17:52:40Z</time></trkpt><trkpt lat="29.92063638178776" lon="-9.599663672266072"><ele>51.0</ele><time>2026-04-27T17:52:41Z</time></trkpt><trkpt lat="29.920387404938158" lon="-9.599700084587633"><ele>51.0</ele><time>2026-04-27T17:52:42Z</time></trkpt><trkpt lat="29.92014337200196" lon="-9.59973627090778"><ele>52.5</ele><time>2026-04-27T17:52:43Z</time></trkpt><trkpt lat="29.91989444195868" lon="-9.599774881115707"><ele>54.0</ele><time>2026-04-27T17:52:44Z</time></trkpt><trkpt lat="29.919648346276055" lon="-9.59981435048998"><ele>54.0</ele><time>2026-04-27T17:52:45Z</time></trkpt><trkpt lat="29.919401769518508" lon="-9.59985189177815"><ele>54.0</ele><time>2026-04-27T17:52:46Z</time></trkpt><trkpt lat="29.919156310888653" lon="-9.599891426538582"><ele>54.5</ele><time>2026-04-27T17:52:47Z</time></trkpt><trkpt lat="29.918912066068245" lon="-9.599926785956752"><ele>55.0</ele><time>2026-04-27T17:52:48Z</time></trkpt><trkpt lat="29.918666942817843" lon="-9.599960335992565"><ele>55.0</ele><time>2026-04-27T17:52:49Z</time></trkpt><trkpt lat="29.91842401701441" lon="-9.599995154173117"><ele>55.0</ele><time>2026-04-27T17:52:50Z</time></trkpt><trkpt lat="29.91817747264979" lon="-9.600032879053021"><ele>54.5</ele><time>2026-04-27T17:52:51Z</time></trkpt><trkpt lat="29.91793096830069" lon="-9.600074578618612"><ele>54.0</ele><time>2026-04-27T17:52:52Z</time></trkpt><trkpt lat="29.917681906883743" lon="-9.600113538667454"><ele>55.0</ele><time>2026-04-27T17:52:53Z</time></trkpt><trkpt lat="29.917434297064027" lon="-9.60014979037056"><ele>56.0</ele><time>2026-04-27T17:52:54Z</time></trkpt><trkpt lat="29.91718391611381" lon="-9.600188011473515"><ele>56.0</ele><time>2026-04-27T17:52:55Z</time></trkpt><trkpt lat="29.91693431729765" lon="-9.600224565687592"><ele>56.0</ele><time>2026-04-27T17:52:56Z</time></trkpt><trkpt lat="29.91668445892989" lon="-9.600259966089261"><ele>56.0</ele><time>2026-04-27T17:52:57Z</time></trkpt><trkpt lat="29.916436051253832" lon="-9.600296346532462"><ele>56.0</ele><time>2026-04-27T17:52:58Z</time></trkpt><trkpt lat="29.916186720838734" lon="-9.600335551216645"><ele>56.0</ele><time>2026-04-27T17:52:59Z</time></trkpt><trkpt lat="29.915939167445988" lon="-9.600376279151682"><ele>56.0</ele><time>2026-04-27T17:53:00Z</time></trkpt><trkpt lat="29.915691776963836" lon="-9.600417921498364"><ele>55.5</ele><time>2026-04-27T17:53:01Z</time></trkpt><trkpt lat="29.91544375723165" lon="-9.600455583859983"><ele>55.0</ele><time>2026-04-27T17:53:02Z</time></trkpt><trkpt lat="29.915195865255363" lon="-9.600491867475746"><ele>54.5</ele><time>2026-04-27T17:53:03Z</time></trkpt><trkpt lat="29.914946998801824" lon="-9.600527739828639"><ele>54.0</ele><time>2026-04-27T17:53:04Z</time></trkpt><trkpt lat="29.914699529536612" lon="-9.600562765335717"><ele>54.0</ele><time>2026-04-27T17:53:05Z</time></trkpt><trkpt lat="29.914451952370175" lon="-9.600599499086634"><ele>54.0</ele><time>2026-04-27T17:53:06Z</time></trkpt><trkpt lat="29.91420384406431" lon="-9.600639087512368"><ele>55.0</ele><time>2026-04-27T17:53:07Z</time></trkpt><trkpt lat="29.91395588817915" lon="-9.600678644020876"><ele>56.0</ele><time>2026-04-27T17:53:08Z</time></trkpt><trkpt lat="29.91370731295102" lon="-9.600715694818327"><ele>56.0</ele><time>2026-04-27T17:53:09Z</time></trkpt><trkpt lat="29.91345779283604" lon="-9.60075134859336"><ele>56.0</ele><time>2026-04-27T17:53:10Z</time></trkpt><trkpt lat="29.913208600103918" lon="-9.600788060760193"><ele>55.5</ele><time>2026-04-27T17:53:11Z</time></trkpt><trkpt lat="29.912957138068105" lon="-9.600817112044288"><ele>55.0</ele><time>2026-04-27T17:53:12Z</time></trkpt><trkpt lat="29.912703922676297" lon="-9.600833658456201"><ele>54.5</ele><time>2026-04-27T17:53:13Z</time></trkpt><trkpt lat="29.912448799031296" lon="-9.600838814962149"><ele>54.0</ele><time>2026-04-27T17:53:14Z</time></trkpt><trkpt lat="29.912196905867617" lon="-9.600831985560337"><ele>54.0</ele><time>2026-04-27T17:53:15Z</time></trkpt><trkpt lat="29.911941136722383" lon="-9.600813627620727"><ele>54.0</ele><time>2026-04-27T17:53:16Z</time></trkpt><trkpt lat="29.91168931739987" lon="-9.600785986973879"><ele>53.5</ele><time>2026-04-27T17:53:17Z</time></trkpt><trkpt lat="29.91143423210695" lon="-9.600748519839936"><ele>53.0</ele><time>2026-04-27T17:53:18Z</time></trkpt><trkpt lat="29.911180437670634" lon="-9.600697319080963"><ele>53.0</ele><time>2026-04-27T17:53:19Z</time></trkpt><trkpt lat="29.910927046403256" lon="-9.600631252091436"><ele>53.0</ele><time>2026-04-27T17:53:20Z</time></trkpt><trkpt lat="29.910677574410048" lon="-9.600551965181179"><ele>53.5</ele><time>2026-04-27T17:53:21Z</time></trkpt><trkpt lat="29.910427834279442" lon="-9.600463068230242"><ele>54.0</ele><time>2026-04-27T17:53:22Z</time></trkpt><trkpt lat="29.910175938705617" lon="-9.60036948205216"><ele>54.0</ele><time>2026-04-27T17:53:23Z</time></trkpt><trkpt lat="29.90992453595531" lon="-9.60027280221962"><ele>54.0</ele><time>2026-04-27T17:53:24Z</time></trkpt><trkpt lat="29.909671768623944" lon="-9.60017328553342"><ele>54.0</ele><time>2026-04-27T17:53:25Z</time></trkpt><trkpt lat="29.90941828818962" lon="-9.600069238143886"><ele>54.0</ele><time>2026-04-27T17:53:26Z</time></trkpt><trkpt lat="29.909162094715466" lon="-9.599964474297458"><ele>50.0</ele><time>2026-04-27T17:53:27Z</time></trkpt><trkpt lat="29.908904656494947" lon="-9.599859153197214"><ele>46.0</ele><time>2026-04-27T17:53:28Z</time></trkpt><trkpt lat="29.90864259625763" lon="-9.599752588940062"><ele>43.0</ele><time>2026-04-27T17:53:29Z</time></trkpt><trkpt lat="29.908379594337784" lon="-9.59964668071712"><ele>40.0</ele><time>2026-04-27T17:53:30Z</time></trkpt><trkpt lat="29.908114415423825" lon="-9.59953867003978"><ele>42.0</ele><time>2026-04-27T17:53:31Z</time></trkpt><trkpt lat="29.9078443836871" lon="-9.599431412014608"><ele>44.0</ele><time>2026-04-27T17:53:32Z</time></trkpt><trkpt lat="29.907572957399267" lon="-9.599320785433093"><ele>40.0</ele><time>2026-04-27T17:53:33Z</time></trkpt><trkpt lat="29.90730374455236" lon="-9.599204912489645"><ele>36.0</ele><time>2026-04-27T17:53:34Z</time></trkpt><trkpt lat="29.907035286354095" lon="-9.599087337360325"><ele>36.0</ele><time>2026-04-27T17:53:35Z</time></trkpt><trkpt lat="29.906767423620373" lon="-9.598973904918052"><ele>36.0</ele><time>2026-04-27T17:53:36Z</time></trkpt><trkpt lat="29.906499898769408" lon="-9.598867692858361"><ele>35.5</ele><time>2026-04-27T17:53:37Z</time></trkpt><trkpt lat="29.906235763971228" lon="-9.598763594366309"><ele>35.0</ele><time>2026-04-27T17:53:38Z</time></trkpt><trkpt lat="29.905973685834834" lon="-9.598660530285162"><ele>38.5</ele><time>2026-04-27T17:53:39Z</time></trkpt><trkpt lat="29.90571297912119" lon="-9.598562505877705"><ele>42.0</ele><time>2026-04-27T17:53:40Z</time></trkpt><trkpt lat="29.90545304205166" lon="-9.598469078584497"><ele>42.0</ele><time>2026-04-27T17:53:41Z</time></trkpt><trkpt lat="29.905195645064342" lon="-9.598373657025954"><ele>42.0</ele><time>2026-04-27T17:53:42Z</time></trkpt><trkpt lat="29.9049419965043" lon="-9.598274500761768"><ele>41.5</ele><time>2026-04-27T17:53:43Z</time></trkpt><trkpt lat="29.904688696428334" lon="-9.598174715825051"><ele>41.0</ele><time>2026-04-27T17:53:44Z</time></trkpt><trkpt lat="29.904436234415073" lon="-9.598075489008814"><ele>40.5</ele><time>2026-04-27T17:53:45Z</time></trkpt><trkpt lat="29.90418483940644" lon="-9.597974404808943"><ele>40.0</ele><time>2026-04-27T17:53:46Z</time></trkpt><trkpt lat="29.903935003627396" lon="-9.597874096784052"><ele>42.5</ele><time>2026-04-27T17:53:47Z</time></trkpt><trkpt lat="29.903684597968482" lon="-9.597775276548976"><ele>45.0</ele><time>2026-04-27T17:53:48Z</time></trkpt><trkpt lat="29.903433786531227" lon="-9.59767504019553"><ele>43.0</ele><time>2026-04-27T17:53:49Z</time></trkpt><trkpt lat="29.903182042406662" lon="-9.597575035080595"><ele>41.0</ele><time>2026-04-27T17:53:50Z</time></trkpt><trkpt lat="29.902932629410977" lon="-9.597476376516882"><ele>41.0</ele><time>2026-04-27T17:53:51Z</time></trkpt><trkpt lat="29.902680780815082" lon="-9.597376040133055"><ele>41.0</ele><time>2026-04-27T17:53:52Z</time></trkpt><trkpt lat="29.902431197661294" lon="-9.597275007142137"><ele>41.0</ele><time>2026-04-27T17:53:53Z</time></trkpt><trkpt lat="29.902182534558122" lon="-9.597173930897851"><ele>41.0</ele><time>2026-04-27T17:53:54Z</time></trkpt><trkpt lat="29.901932217016366" lon="-9.597072843296665"><ele>41.0</ele><time>2026-04-27T17:53:55Z</time></trkpt><trkpt lat="29.90168107799367" lon="-9.596972081545507"><ele>41.0</ele><time>2026-04-27T17:53:56Z</time></trkpt><trkpt lat="29.901430842015547" lon="-9.596875648591897"><ele>41.0</ele><time>2026-04-27T17:53:57Z</time></trkpt><trkpt lat="29.901180655210144" lon="-9.596778862899171"><ele>41.0</ele><time>2026-04-27T17:53:58Z</time></trkpt><trkpt lat="29.900930397288498" lon="-9.596679835813356"><ele>41.0</ele><time>2026-04-27T17:53:59Z</time></trkpt><trkpt lat="29.900680594601454" lon="-9.596581781386286"><ele>41.0</ele><time>2026-04-27T17:54:00Z</time></trkpt><trkpt lat="29.900430415478432" lon="-9.596483118084633"><ele>41.0</ele><time>2026-04-27T17:54:01Z</time></trkpt><trkpt lat="29.900181187522115" lon="-9.596382995983783"><ele>41.0</ele><time>2026-04-27T17:54:02Z</time></trkpt><trkpt lat="29.899931109086115" lon="-9.596282743157603"><ele>40.0</ele><time>2026-04-27T17:54:03Z</time></trkpt><trkpt lat="29.8996817959786" lon="-9.596184389157639"><ele>39.0</ele><time>2026-04-27T17:54:04Z</time></trkpt><trkpt lat="29.899431710003846" lon="-9.596085162662996"><ele>37.5</ele><time>2026-04-27T17:54:05Z</time></trkpt><trkpt lat="29.89918275865391" lon="-9.595984580253258"><ele>36.0</ele><time>2026-04-27T17:54:06Z</time></trkpt><trkpt lat="29.89893345991041" lon="-9.59588576735462"><ele>36.0</ele><time>2026-04-27T17:54:07Z</time></trkpt><trkpt lat="29.898684985198408" lon="-9.59578805255766"><ele>36.0</ele><time>2026-04-27T17:54:08Z</time></trkpt><trkpt lat="29.898437896467204" lon="-9.595690371988221"><ele>39.0</ele><time>2026-04-27T17:54:09Z</time></trkpt><trkpt lat="29.89819113873118" lon="-9.595593150230375"><ele>42.0</ele><time>2026-04-27T17:54:10Z</time></trkpt><trkpt lat="29.897948270822216" lon="-9.595495403061506"><ele>42.0</ele><time>2026-04-27T17:54:11Z</time></trkpt><trkpt lat="29.897706176941785" lon="-9.59539763146111"><ele>42.0</ele><time>2026-04-27T17:54:12Z</time></trkpt><trkpt lat="29.897463650162486" lon="-9.595299961351234"><ele>44.5</ele><time>2026-04-27T17:54:13Z</time></trkpt><trkpt lat="29.897222067179356" lon="-9.59520307293946"><ele>47.0</ele><time>2026-04-27T17:54:14Z</time></trkpt><trkpt lat="29.89698142255247" lon="-9.595107989669067"><ele>46.5</ele><time>2026-04-27T17:54:15Z</time></trkpt><trkpt lat="29.896743040093114" lon="-9.595010910318196"><ele>46.0</ele><time>2026-04-27T17:54:16Z</time></trkpt><trkpt lat="29.896506358092697" lon="-9.594914003713944"><ele>46.0</ele><time>2026-04-27T17:54:17Z</time></trkpt><trkpt lat="29.896271047656533" lon="-9.594814351356217"><ele>46.0</ele><time>2026-04-27T17:54:18Z</time></trkpt><trkpt lat="29.8960386463034" lon="-9.594711389717416"><ele>46.0</ele><time>2026-04-27T17:54:19Z</time></trkpt><trkpt lat="29.895808242844133" lon="-9.594604704905418"><ele>46.0</ele><time>2026-04-27T17:54:20Z</time></trkpt><trkpt lat="29.895580063327504" lon="-9.594495966117849"><ele>48.0</ele><time>2026-04-27T17:54:21Z</time></trkpt><trkpt lat="29.895354521809413" lon="-9.5943836826211"><ele>50.0</ele><time>2026-04-27T17:54:22Z</time></trkpt><trkpt lat="29.895129091098596" lon="-9.594262975808327"><ele>52.5</ele><time>2026-04-27T17:54:23Z</time></trkpt><trkpt lat="29.894906619734446" lon="-9.594130122563424"><ele>55.0</ele><time>2026-04-27T17:54:24Z</time></trkpt><trkpt lat="29.894688494447355" lon="-9.59398900989353"><ele>55.0</ele><time>2026-04-27T17:54:25Z</time></trkpt><trkpt lat="29.894469991051135" lon="-9.593842665275636"><ele>55.0</ele><time>2026-04-27T17:54:26Z</time></trkpt><trkpt lat="29.894251350798108" lon="-9.593690080602222"><ele>55.0</ele><time>2026-04-27T17:54:27Z</time></trkpt><trkpt lat="29.89403308575272" lon="-9.593534788089793"><ele>55.0</ele><time>2026-04-27T17:54:28Z</time></trkpt><trkpt lat="29.89381171808325" lon="-9.593375362523018"><ele>55.0</ele><time>2026-04-27T17:54:29Z</time></trkpt><trkpt lat="29.89358863004395" lon="-9.593214484986879"><ele>55.0</ele><time>2026-04-27T17:54:30Z</time></trkpt><trkpt lat="29.893364010265355" lon="-9.593049397707036"><ele>55.5</ele><time>2026-04-27T17:54:31Z</time></trkpt><trkpt lat="29.893142296560317" lon="-9.592878310488134"><ele>56.0</ele><time>2026-04-27T17:54:32Z</time></trkpt><trkpt lat="29.892915451584688" lon="-9.592701878943743"><ele>56.0</ele><time>2026-04-27T17:54:33Z</time></trkpt><trkpt lat="29.89268688537987" lon="-9.592528889185065"><ele>56.0</ele><time>2026-04-27T17:54:34Z</time></trkpt><trkpt lat="29.89245019905601" lon="-9.59235714376262"><ele>52.0</ele><time>2026-04-27T17:54:35Z</time></trkpt><trkpt lat="29.892207060684115" lon="-9.592192126312732"><ele>48.0</ele><time>2026-04-27T17:54:36Z</time></trkpt><trkpt lat="29.89195524074173" lon="-9.592040780567345"><ele>49.0</ele><time>2026-04-27T17:54:37Z</time></trkpt><trkpt lat="29.891690661663144" lon="-9.591905805043732"><ele>50.0</ele><time>2026-04-27T17:54:38Z</time></trkpt><trkpt lat="29.891419139155577" lon="-9.591794621909674"><ele>50.0</ele><time>2026-04-27T17:54:39Z</time></trkpt><trkpt lat="29.891135276149488" lon="-9.59171018398926"><ele>50.0</ele><time>2026-04-27T17:54:40Z</time></trkpt><trkpt lat="29.89084472320877" lon="-9.591662699851213"><ele>44.0</ele><time>2026-04-27T17:54:41Z</time></trkpt><trkpt lat="29.89054822592288" lon="-9.591644924073401"><ele>38.0</ele><time>2026-04-27T17:54:42Z</time></trkpt><trkpt lat="29.89024962260261" lon="-9.591650357684864"><ele>32.5</ele><time>2026-04-27T17:54:43Z</time></trkpt><trkpt lat="29.889953127312577" lon="-9.591674089719213"><ele>27.0</ele><time>2026-04-27T17:54:44Z</time></trkpt><trkpt lat="29.889665624126" lon="-9.591710999656787"><ele>27.0</ele><time>2026-04-27T17:54:45Z</time></trkpt><trkpt lat="29.889386293364357" lon="-9.591748503283089"><ele>27.0</ele><time>2026-04-27T17:54:46Z</time></trkpt><trkpt lat="29.889124973906856" lon="-9.59177903241873"><ele>25.5</ele><time>2026-04-27T17:54:47Z</time></trkpt><trkpt lat="29.888879578775082" lon="-9.591800922919319"><ele>24.0</ele><time>2026-04-27T17:54:48Z</time></trkpt><trkpt lat="29.888637095132722" lon="-9.591827562304315"><ele>30.0</ele><time>2026-04-27T17:54:49Z</time></trkpt><trkpt lat="29.88839501232639" lon="-9.591866335208755"><ele>36.0</ele><time>2026-04-27T17:54:50Z</time></trkpt><trkpt lat="29.88815446997144" lon="-9.59191715236098"><ele>36.0</ele><time>2026-04-27T17:54:51Z</time></trkpt><trkpt lat="29.887907617395012" lon="-9.59198876880289"><ele>36.0</ele><time>2026-04-27T17:54:52Z</time></trkpt><trkpt lat="29.88766393774109" lon="-9.592084395971137"><ele>39.0</ele><time>2026-04-27T17:54:53Z</time></trkpt><trkpt lat="29.88742537696903" lon="-9.592202730698132"><ele>42.0</ele><time>2026-04-27T17:54:54Z</time></trkpt><trkpt lat="29.88719222431908" lon="-9.59234274946901"><ele>42.0</ele><time>2026-04-27T17:54:55Z</time></trkpt><trkpt lat="29.886966173790537" lon="-9.592498329410732"><ele>42.0</ele><time>2026-04-27T17:54:56Z</time></trkpt><trkpt lat="29.88674219961735" lon="-9.592670329413576"><ele>45.0</ele><time>2026-04-27T17:54:57Z</time></trkpt><trkpt lat="29.88652133648523" lon="-9.592839565463137"><ele>48.0</ele><time>2026-04-27T17:54:58Z</time></trkpt><trkpt lat="29.886298314642907" lon="-9.593009890491592"><ele>48.0</ele><time>2026-04-27T17:54:59Z</time></trkpt><trkpt lat="29.886080084483677" lon="-9.593180143205878"><ele>48.0</ele><time>2026-04-27T17:55:00Z</time></trkpt><trkpt lat="29.885865993932896" lon="-9.593353082326008"><ele>48.0</ele><time>2026-04-27T17:55:01Z</time></trkpt><trkpt lat="29.88565361946641" lon="-9.593527650514238"><ele>48.0</ele><time>2026-04-27T17:55:02Z</time></trkpt><trkpt lat="29.885442043564055" lon="-9.593699137581497"><ele>48.0</ele><time>2026-04-27T17:55:03Z</time></trkpt><trkpt lat="29.885230582944477" lon="-9.593867519293225"><ele>48.0</ele><time>2026-04-27T17:55:04Z</time></trkpt><trkpt lat="29.885016186800126" lon="-9.594028730317309"><ele>49.5</ele><time>2026-04-27T17:55:05Z</time></trkpt><trkpt lat="29.884798368139162" lon="-9.594177544395935"><ele>51.0</ele><time>2026-04-27T17:55:06Z</time></trkpt><trkpt lat="29.884575203106706" lon="-9.594317390406921"><ele>51.0</ele><time>2026-04-27T17:55:07Z</time></trkpt><trkpt lat="29.88434730652536" lon="-9.59444278941525"><ele>51.0</ele><time>2026-04-27T17:55:08Z</time></trkpt><trkpt lat="29.88411523787552" lon="-9.594552156776855"><ele>53.5</ele><time>2026-04-27T17:55:09Z</time></trkpt><trkpt lat="29.883879342143597" lon="-9.594648146540388"><ele>56.0</ele><time>2026-04-27T17:55:10Z</time></trkpt><trkpt lat="29.883642117837734" lon="-9.594727326110542"><ele>58.0</ele><time>2026-04-27T17:55:11Z</time></trkpt><trkpt lat="29.88340233206311" lon="-9.594789362893277"><ele>60.0</ele><time>2026-04-27T17:55:12Z</time></trkpt><trkpt lat="29.88316161494388" lon="-9.594840627510088"><ele>60.0</ele><time>2026-04-27T17:55:13Z</time></trkpt><trkpt lat="29.882921289050326" lon="-9.594887541797235"><ele>60.0</ele><time>2026-04-27T17:55:14Z</time></trkpt><trkpt lat="29.88268186886042" lon="-9.59493381098593"><ele>61.0</ele><time>2026-04-27T17:55:15Z</time></trkpt><trkpt lat="29.882443442790763" lon="-9.594983976080526"><ele>62.0</ele><time>2026-04-27T17:55:16Z</time></trkpt><trkpt lat="29.882201833112216" lon="-9.595038953821842"><ele>62.0</ele><time>2026-04-27T17:55:17Z</time></trkpt><trkpt lat="29.881963000002212" lon="-9.595103286846998"><ele>62.0</ele><time>2026-04-27T17:55:18Z</time></trkpt><trkpt lat="29.881726361164723" lon="-9.595184278003167"><ele>63.0</ele><time>2026-04-27T17:55:19Z</time></trkpt><trkpt lat="29.881493095437847" lon="-9.595281313285538"><ele>64.0</ele><time>2026-04-27T17:55:20Z</time></trkpt><trkpt lat="29.881268151222926" lon="-9.595393384317426"><ele>64.5</ele><time>2026-04-27T17:55:21Z</time></trkpt><trkpt lat="29.881051368474893" lon="-9.595525195157835"><ele>65.0</ele><time>2026-04-27T17:55:22Z</time></trkpt><trkpt lat="29.880842184629202" lon="-9.595675782058825"><ele>65.0</ele><time>2026-04-27T17:55:23Z</time></trkpt><trkpt lat="29.880642031571597" lon="-9.595835241975662"><ele>65.0</ele><time>2026-04-27T17:55:24Z</time></trkpt><trkpt lat="29.880447345028045" lon="-9.596005338211535"><ele>67.5</ele><time>2026-04-27T17:55:25Z</time></trkpt><trkpt lat="29.880258983409284" lon="-9.596182503431661"><ele>70.0</ele><time>2026-04-27T17:55:26Z</time></trkpt><trkpt lat="29.880075901563117" lon="-9.596367598990856"><ele>71.0</ele><time>2026-04-27T17:55:27Z</time></trkpt><trkpt lat="29.879899713849444" lon="-9.596563480500967"><ele>72.0</ele><time>2026-04-27T17:55:28Z</time></trkpt><trkpt lat="29.879726907881928" lon="-9.59676251292042"><ele>72.0</ele><time>2026-04-27T17:55:29Z</time></trkpt><trkpt lat="29.879554606101465" lon="-9.596962768071764"><ele>72.0</ele><time>2026-04-27T17:55:30Z</time></trkpt><trkpt lat="29.879379729429687" lon="-9.597159806024148"><ele>75.5</ele><time>2026-04-27T17:55:31Z</time></trkpt><trkpt lat="29.87919733853492" lon="-9.597349619445719"><ele>79.0</ele><time>2026-04-27T17:55:32Z</time></trkpt><trkpt lat="29.879010880115647" lon="-9.597536344432651"><ele>79.0</ele><time>2026-04-27T17:55:33Z</time></trkpt><trkpt lat="29.878823206784972" lon="-9.5977214622145"><ele>79.0</ele><time>2026-04-27T17:55:34Z</time></trkpt><trkpt lat="29.878631116481632" lon="-9.597896388686207"><ele>79.0</ele><time>2026-04-27T17:55:35Z</time></trkpt><trkpt lat="29.878427177815787" lon="-9.598062047782248"><ele>79.0</ele><time>2026-04-27T17:55:36Z</time></trkpt><trkpt lat="29.87821990152123" lon="-9.598214733615421"><ele>79.0</ele><time>2026-04-27T17:55:37Z</time></trkpt><trkpt lat="29.878040342379286" lon="-9.598377968906151"><ele>79.0</ele><time>2026-04-27T17:55:38Z</time></trkpt><trkpt lat="29.87783252947489" lon="-9.598473333077342"><ele>79.0</ele><time>2026-04-27T17:55:39Z</time></trkpt><trkpt lat="29.87763975622733" lon="-9.598584389038825"><ele>79.0</ele><time>2026-04-27T17:55:40Z</time></trkpt><trkpt lat="29.877434170387744" lon="-9.598690118738809"><ele>79.0</ele><time>2026-04-27T17:55:41Z</time></trkpt><trkpt lat="29.87722216495845" lon="-9.598799753978486"><ele>81.0</ele><time>2026-04-27T17:55:42Z</time></trkpt><trkpt lat="29.877000381808166" lon="-9.59892177328299"><ele>83.0</ele><time>2026-04-27T17:55:43Z</time></trkpt><trkpt lat="29.87677017132537" lon="-9.59905328056899"><ele>82.0</ele><time>2026-04-27T17:55:44Z</time></trkpt><trkpt lat="29.876536605772635" lon="-9.59918522358633"><ele>81.0</ele><time>2026-04-27T17:55:45Z</time></trkpt><trkpt lat="29.876296157619112" lon="-9.599319986544822"><ele>81.0</ele><time>2026-04-27T17:55:46Z</time></trkpt><trkpt lat="29.876051270818902" lon="-9.599457136652054"><ele>81.0</ele><time>2026-04-27T17:55:47Z</time></trkpt><trkpt lat="29.875803328102364" lon="-9.59959452084332"><ele>81.0</ele><time>2026-04-27T17:55:48Z</time></trkpt><trkpt lat="29.875553845477725" lon="-9.599737764718085"><ele>81.0</ele><time>2026-04-27T17:55:49Z</time></trkpt><trkpt lat="29.87530260383165" lon="-9.599882863809137"><ele>81.5</ele><time>2026-04-27T17:55:50Z</time></trkpt><trkpt lat="29.875050306206923" lon="-9.600022720566553"><ele>82.0</ele><time>2026-04-27T17:55:51Z</time></trkpt><trkpt lat="29.874796443608748" lon="-9.600158087056279"><ele>82.0</ele><time>2026-04-27T17:55:52Z</time></trkpt><trkpt lat="29.8745395834654" lon="-9.600287720481157"><ele>82.0</ele><time>2026-04-27T17:55:53Z</time></trkpt><trkpt lat="29.874281440705666" lon="-9.600417705548027"><ele>82.5</ele><time>2026-04-27T17:55:54Z</time></trkpt><trkpt lat="29.874048023657938" lon="-9.60054074254375"><ele>83.0</ele><time>2026-04-27T17:55:55Z</time></trkpt><trkpt lat="29.873832492400968" lon="-9.600656688868748"><ele>83.0</ele><time>2026-04-27T17:55:56Z</time></trkpt><trkpt lat="29.87362976235774" lon="-9.600766141094379"><ele>83.0</ele><time>2026-04-27T17:55:57Z</time></trkpt><trkpt lat="29.87342606453873" lon="-9.600879995640724"><ele>84.0</ele><time>2026-04-27T17:55:58Z</time></trkpt><trkpt lat="29.873209731271107" lon="-9.601004460662786"><ele>85.0</ele><time>2026-04-27T17:55:59Z</time></trkpt><trkpt lat="29.872987761648883" lon="-9.601145568560515"><ele>85.5</ele><time>2026-04-27T17:56:00Z</time></trkpt><trkpt lat="29.872761853214225" lon="-9.601312949914318"><ele>86.0</ele><time>2026-04-27T17:56:01Z</time></trkpt><trkpt lat="29.87254232944345" lon="-9.601509650239096"><ele>86.0</ele><time>2026-04-27T17:56:02Z</time></trkpt><trkpt lat="29.872323432019435" lon="-9.601725032231487"><ele>86.0</ele><time>2026-04-27T17:56:03Z</time></trkpt><trkpt lat="29.872102303024576" lon="-9.60194862228469"><ele>87.0</ele><time>2026-04-27T17:56:04Z</time></trkpt><trkpt lat="29.87188413132923" lon="-9.602173127865374"><ele>88.0</ele><time>2026-04-27T17:56:05Z</time></trkpt><trkpt lat="29.871669642939132" lon="-9.602400785864628"><ele>88.0</ele><time>2026-04-27T17:56:06Z</time></trkpt><trkpt lat="29.87145878747291" lon="-9.602627209107697"><ele>88.0</ele><time>2026-04-27T17:56:07Z</time></trkpt><trkpt lat="29.871247902749825" lon="-9.602853524076004"><ele>88.0</ele><time>2026-04-27T17:56:08Z</time></trkpt><trkpt lat="29.871039024740234" lon="-9.603079211815267"><ele>88.0</ele><time>2026-04-27T17:56:09Z</time></trkpt><trkpt lat="29.870830416511065" lon="-9.603304776828585"><ele>88.0</ele><time>2026-04-27T17:56:10Z</time></trkpt><trkpt lat="29.870626851943232" lon="-9.603523626395326"><ele>88.0</ele><time>2026-04-27T17:56:11Z</time></trkpt><trkpt lat="29.87042520495347" lon="-9.60374270619536"><ele>88.0</ele><time>2026-04-27T17:56:12Z</time></trkpt><trkpt lat="29.870224056925007" lon="-9.60395960290568"><ele>88.0</ele><time>2026-04-27T17:56:13Z</time></trkpt><trkpt lat="29.870025971245408" lon="-9.604174560445433"><ele>88.0</ele><time>2026-04-27T17:56:14Z</time></trkpt><trkpt lat="29.869831007259563" lon="-9.604386171574571"><ele>88.0</ele><time>2026-04-27T17:56:15Z</time></trkpt><trkpt lat="29.869637167251863" lon="-9.604595436614805"><ele>88.0</ele><time>2026-04-27T17:56:16Z</time></trkpt><trkpt lat="29.86944169481062" lon="-9.604807931890742"><ele>88.0</ele><time>2026-04-27T17:56:17Z</time></trkpt><trkpt lat="29.869246466373603" lon="-9.605016486441995"><ele>88.0</ele><time>2026-04-27T17:56:18Z</time></trkpt><trkpt lat="29.869050262531466" lon="-9.605222655719517"><ele>88.0</ele><time>2026-04-27T17:56:19Z</time></trkpt><trkpt lat="29.868854301432314" lon="-9.605426354877931"><ele>88.0</ele><time>2026-04-27T17:56:20Z</time></trkpt><trkpt lat="29.868661295903372" lon="-9.605631153463571"><ele>88.0</ele><time>2026-04-27T17:56:21Z</time></trkpt><trkpt lat="29.86846802790375" lon="-9.605836395635345"><ele>88.0</ele><time>2026-04-27T17:56:22Z</time></trkpt><trkpt lat="29.868270676789294" lon="-9.606039788147239"><ele>88.0</ele><time>2026-04-27T17:56:23Z</time></trkpt><trkpt lat="29.868073064343882" lon="-9.606244850356159"><ele>89.5</ele><time>2026-04-27T17:56:24Z</time></trkpt><trkpt lat="29.867873732456328" lon="-9.606455450890206"><ele>91.0</ele><time>2026-04-27T17:56:25Z</time></trkpt><trkpt lat="29.86767779957081" lon="-9.606665331285281"><ele>91.0</ele><time>2026-04-27T17:56:26Z</time></trkpt><trkpt lat="29.867481297450762" lon="-9.606874063905027"><ele>91.0</ele><time>2026-04-27T17:56:27Z</time></trkpt><trkpt lat="29.867284447260996" lon="-9.607082039702528"><ele>91.0</ele><time>2026-04-27T17:56:28Z</time></trkpt><trkpt lat="29.867090194227664" lon="-9.607290057040885"><ele>91.0</ele><time>2026-04-27T17:56:29Z</time></trkpt><trkpt lat="29.866895430847187" lon="-9.607499376348763"><ele>91.0</ele><time>2026-04-27T17:56:30Z</time></trkpt><trkpt lat="29.866697890683366" lon="-9.607709301225489"><ele>91.0</ele><time>2026-04-27T17:56:31Z</time></trkpt><trkpt lat="29.86650279787768" lon="-9.607920077800681"><ele>91.0</ele><time>2026-04-27T17:56:32Z</time></trkpt><trkpt lat="29.866308620114037" lon="-9.608130824770848"><ele>91.0</ele><time>2026-04-27T17:56:33Z</time></trkpt><trkpt lat="29.866116142553796" lon="-9.60833597502103"><ele>91.0</ele><time>2026-04-27T17:56:34Z</time></trkpt><trkpt lat="29.865923816581173" lon="-9.608541263482259"><ele>91.0</ele><time>2026-04-27T17:56:35Z</time></trkpt><trkpt lat="29.865734995714202" lon="-9.6087442853099"><ele>91.0</ele><time>2026-04-27T17:56:36Z</time></trkpt><trkpt lat="29.865545168012876" lon="-9.608941915407112"><ele>91.0</ele><time>2026-04-27T17:56:37Z</time></trkpt><trkpt lat="29.865355889656414" lon="-9.609136353249026"><ele>91.0</ele><time>2026-04-27T17:56:38Z</time></trkpt><trkpt lat="29.86516808279166" lon="-9.609328453302286"><ele>91.0</ele><time>2026-04-27T17:56:39Z</time></trkpt><trkpt lat="29.864982677287447" lon="-9.609522206200309"><ele>91.5</ele><time>2026-04-27T17:56:40Z</time></trkpt><trkpt lat="29.86479728197098" lon="-9.609718838540502"><ele>92.0</ele><time>2026-04-27T17:56:41Z</time></trkpt><trkpt lat="29.864614068314772" lon="-9.609916102013258"><ele>92.0</ele><time>2026-04-27T17:56:42Z</time></trkpt><trkpt lat="29.86443050892002" lon="-9.61011257868759"><ele>92.0</ele><time>2026-04-27T17:56:43Z</time></trkpt><trkpt lat="29.86424390504189" lon="-9.610306292699907"><ele>93.0</ele><time>2026-04-27T17:56:44Z</time></trkpt><trkpt lat="29.864054887721945" lon="-9.610491885169285"><ele>94.0</ele><time>2026-04-27T17:56:45Z</time></trkpt><trkpt lat="29.863863491226546" lon="-9.610683206325197"><ele>94.0</ele><time>2026-04-27T17:56:46Z</time></trkpt><trkpt lat="29.86367351220636" lon="-9.610884573175149"><ele>94.0</ele><time>2026-04-27T17:56:47Z</time></trkpt><trkpt lat="29.86348005517963" lon="-9.611090023815427"><ele>95.5</ele><time>2026-04-27T17:56:48Z</time></trkpt><trkpt lat="29.86328241545775" lon="-9.611295742235745"><ele>97.0</ele><time>2026-04-27T17:56:49Z</time></trkpt><trkpt lat="29.863082885369327" lon="-9.611503071656612"><ele>97.0</ele><time>2026-04-27T17:56:50Z</time></trkpt><trkpt lat="29.862884458255945" lon="-9.611710314369871"><ele>97.0</ele><time>2026-04-27T17:56:51Z</time></trkpt><trkpt lat="29.86268306063646" lon="-9.611920316842166"><ele>97.0</ele><time>2026-04-27T17:56:52Z</time></trkpt><trkpt lat="29.862484933592505" lon="-9.612130004012245"><ele>97.0</ele><time>2026-04-27T17:56:53Z</time></trkpt><trkpt lat="29.86228990353575" lon="-9.612339787491985"><ele>97.0</ele><time>2026-04-27T17:56:54Z</time></trkpt><trkpt lat="29.862095942714973" lon="-9.612546115549089"><ele>97.0</ele><time>2026-04-27T17:56:55Z</time></trkpt><trkpt lat="29.861904444672405" lon="-9.612754169407854"><ele>95.5</ele><time>2026-04-27T17:56:56Z</time></trkpt><trkpt lat="29.861716859570645" lon="-9.612957918450084"><ele>94.0</ele><time>2026-04-27T17:56:57Z</time></trkpt><trkpt lat="29.861532280006983" lon="-9.613158560740946"><ele>94.0</ele><time>2026-04-27T17:56:58Z</time></trkpt><trkpt lat="29.86135066270459" lon="-9.613357221504497"><ele>94.0</ele><time>2026-04-27T17:56:59Z</time></trkpt><trkpt lat="29.861169443212983" lon="-9.613555232567167"><ele>94.0</ele><time>2026-04-27T17:57:00Z</time></trkpt><trkpt lat="29.860988864058093" lon="-9.61375388620533"><ele>94.0</ele><time>2026-04-27T17:57:01Z</time></trkpt><trkpt lat="29.860803199512006" lon="-9.613956307646282"><ele>95.0</ele><time>2026-04-27T17:57:02Z</time></trkpt><trkpt lat="29.860617462443273" lon="-9.614157415695667"><ele>96.0</ele><time>2026-04-27T17:57:03Z</time></trkpt><trkpt lat="29.86043326746521" lon="-9.61435691924194"><ele>95.0</ele><time>2026-04-27T17:57:04Z</time></trkpt><trkpt lat="29.8602463942099" lon="-9.61455685607915"><ele>94.0</ele><time>2026-04-27T17:57:05Z</time></trkpt><trkpt lat="29.860055061976933" lon="-9.614759295375755"><ele>96.0</ele><time>2026-04-27T17:57:06Z</time></trkpt><trkpt lat="29.85986471627112" lon="-9.614963782717666"><ele>98.0</ele><time>2026-04-27T17:57:07Z</time></trkpt><trkpt lat="29.859671843377875" lon="-9.615167054259095"><ele>97.5</ele><time>2026-04-27T17:57:08Z</time></trkpt><trkpt lat="29.85947919187896" lon="-9.615372723672568"><ele>97.0</ele><time>2026-04-27T17:57:09Z</time></trkpt><trkpt lat="29.859284535084274" lon="-9.615577243132094"><ele>97.0</ele><time>2026-04-27T17:57:10Z</time></trkpt><trkpt lat="29.859089465797293" lon="-9.61578045936267"><ele>97.0</ele><time>2026-04-27T17:57:11Z</time></trkpt><trkpt lat="29.858897582321042" lon="-9.615984633698567"><ele>97.0</ele><time>2026-04-27T17:57:12Z</time></trkpt><trkpt lat="29.858705085733188" lon="-9.616186802900923"><ele>97.0</ele><time>2026-04-27T17:57:13Z</time></trkpt><trkpt lat="29.858507933006766" lon="-9.616391174297977"><ele>97.0</ele><time>2026-04-27T17:57:14Z</time></trkpt><trkpt lat="29.85830502136096" lon="-9.616600604328491"><ele>97.0</ele><time>2026-04-27T17:57:15Z</time></trkpt><trkpt lat="29.85810295739003" lon="-9.616813098446599"><ele>98.0</ele><time>2026-04-27T17:57:16Z</time></trkpt><trkpt lat="29.85790148481977" lon="-9.617023559104242"><ele>99.0</ele><time>2026-04-27T17:57:17Z</time></trkpt><trkpt lat="29.857699458896025" lon="-9.617237969511656"><ele>99.5</ele><time>2026-04-27T17:57:18Z</time></trkpt><trkpt lat="29.85749946220798" lon="-9.617454929211647"><ele>100.0</ele><time>2026-04-27T17:57:19Z</time></trkpt><trkpt lat="29.857295824970816" lon="-9.617669465006365"><ele>101.0</ele><time>2026-04-27T17:57:20Z</time></trkpt><trkpt lat="29.857090200472495" lon="-9.61788515680724"><ele>102.0</ele><time>2026-04-27T17:57:21Z</time></trkpt><trkpt lat="29.856886400420223" lon="-9.618098007288745"><ele>100.0</ele><time>2026-04-27T17:57:22Z</time></trkpt><trkpt lat="29.856686439026912" lon="-9.618309290157525"><ele>98.0</ele><time>2026-04-27T17:57:23Z</time></trkpt><trkpt lat="29.856488327143648" lon="-9.618516246411756"><ele>98.0</ele><time>2026-04-27T17:57:24Z</time></trkpt><trkpt lat="29.85629340882546" lon="-9.618720977740352"><ele>98.0</ele><time>2026-04-27T17:57:25Z</time></trkpt><trkpt lat="29.856103824576522" lon="-9.618924351052225"><ele>98.0</ele><time>2026-04-27T17:57:26Z</time></trkpt><trkpt lat="29.855917893677937" lon="-9.619126023367281"><ele>98.0</ele><time>2026-04-27T17:57:27Z</time></trkpt><trkpt lat="29.855736476970232" lon="-9.619319644342305"><ele>99.0</ele><time>2026-04-27T17:57:28Z</time></trkpt><trkpt lat="29.855554683948" lon="-9.619513171389055"><ele>100.0</ele><time>2026-04-27T17:57:29Z</time></trkpt><trkpt lat="29.855371904071013" lon="-9.619705025452827"><ele>100.0</ele><time>2026-04-27T17:57:30Z</time></trkpt><trkpt lat="29.855187557820695" lon="-9.619895909223658"><ele>100.0</ele><time>2026-04-27T17:57:31Z</time></trkpt><trkpt lat="29.85500011378398" lon="-9.620087019862746"><ele>99.5</ele><time>2026-04-27T17:57:32Z</time></trkpt><trkpt lat="29.854806398384138" lon="-9.620276214503448"><ele>99.0</ele><time>2026-04-27T17:57:33Z</time></trkpt><trkpt lat="29.8546121042797" lon="-9.620455717362619"><ele>99.0</ele><time>2026-04-27T17:57:34Z</time></trkpt><trkpt lat="29.854413561632562" lon="-9.620632586886845"><ele>99.0</ele><time>2026-04-27T17:57:35Z</time></trkpt><trkpt lat="29.854207127163654" lon="-9.620802529049817"><ele>99.5</ele><time>2026-04-27T17:57:36Z</time></trkpt><trkpt lat="29.85399076180653" lon="-9.620969304430881"><ele>100.0</ele><time>2026-04-27T17:57:37Z</time></trkpt><trkpt lat="29.85376583706652" lon="-9.621129466086598"><ele>100.0</ele><time>2026-04-27T17:57:38Z</time></trkpt><trkpt lat="29.85353036510382" lon="-9.621286392977215"><ele>100.0</ele><time>2026-04-27T17:57:39Z</time></trkpt><trkpt lat="29.853292020213235" lon="-9.621442752715824"><ele>100.5</ele><time>2026-04-27T17:57:40Z</time></trkpt><trkpt lat="29.85306097501463" lon="-9.621595030511891"><ele>101.0</ele><time>2026-04-27T17:57:41Z</time></trkpt><trkpt lat="29.8528417798104" lon="-9.621742224404297"><ele>101.0</ele><time>2026-04-27T17:57:42Z</time></trkpt><trkpt lat="29.852621782981423" lon="-9.621887709991393"><ele>101.0</ele><time>2026-04-27T17:57:43Z</time></trkpt><trkpt lat="29.852400160353632" lon="-9.622038026182594"><ele>101.0</ele><time>2026-04-27T17:57:44Z</time></trkpt><trkpt lat="29.85217279914853" lon="-9.622192965240552"><ele>101.0</ele><time>2026-04-27T17:57:45Z</time></trkpt><trkpt lat="29.851949083097065" lon="-9.62234466318677"><ele>102.0</ele><time>2026-04-27T17:57:46Z</time></trkpt><trkpt lat="29.85172625560599" lon="-9.62249301843491"><ele>103.0</ele><time>2026-04-27T17:57:47Z</time></trkpt><trkpt lat="29.851502795189177" lon="-9.622644102455512"><ele>103.0</ele><time>2026-04-27T17:57:48Z</time></trkpt><trkpt lat="29.851277068986356" lon="-9.622797343195913"><ele>103.0</ele><time>2026-04-27T17:57:49Z</time></trkpt><trkpt lat="29.85105546374814" lon="-9.62295349384598"><ele>104.5</ele><time>2026-04-27T17:57:50Z</time></trkpt><trkpt lat="29.8508348161058" lon="-9.62311728847831"><ele>106.0</ele><time>2026-04-27T17:57:51Z</time></trkpt><trkpt lat="29.850615499815405" lon="-9.623278993658749"><ele>106.0</ele><time>2026-04-27T17:57:52Z</time></trkpt><trkpt lat="29.85039724662084" lon="-9.623431209382998"><ele>106.0</ele><time>2026-04-27T17:57:53Z</time></trkpt><trkpt lat="29.850177121020913" lon="-9.623582139657152"><ele>106.5</ele><time>2026-04-27T17:57:54Z</time></trkpt><trkpt lat="29.849952935521163" lon="-9.623731346729203"><ele>107.0</ele><time>2026-04-27T17:57:55Z</time></trkpt><trkpt lat="29.849722702902465" lon="-9.623885568152955"><ele>107.0</ele><time>2026-04-27T17:57:56Z</time></trkpt><trkpt lat="29.849491921289175" lon="-9.624040236490774"><ele>107.0</ele><time>2026-04-27T17:57:57Z</time></trkpt><trkpt lat="29.849261555230395" lon="-9.62419371827719"><ele>107.0</ele><time>2026-04-27T17:57:58Z</time></trkpt><trkpt lat="29.849030500722147" lon="-9.624347375338054"><ele>107.0</ele><time>2026-04-27T17:57:59Z</time></trkpt><trkpt lat="29.848804001588206" lon="-9.624496132849595"><ele>106.5</ele><time>2026-04-27T17:58:00Z</time></trkpt><trkpt lat="29.848575939092143" lon="-9.624642178266916"><ele>106.0</ele><time>2026-04-27T17:58:01Z</time></trkpt><trkpt lat="29.84834770508722" lon="-9.624788459128524"><ele>108.0</ele><time>2026-04-27T17:58:02Z</time></trkpt><trkpt lat="29.848122603204363" lon="-9.624937432234052"><ele>110.0</ele><time>2026-04-27T17:58:03Z</time></trkpt><trkpt lat="29.847899494455145" lon="-9.625087043430966"><ele>110.0</ele><time>2026-04-27T17:58:04Z</time></trkpt><trkpt lat="29.84767136613892" lon="-9.62523911418199"><ele>110.0</ele><time>2026-04-27T17:58:05Z</time></trkpt><trkpt lat="29.8474446183742" lon="-9.625387917781165"><ele>109.0</ele><time>2026-04-27T17:58:06Z</time></trkpt><trkpt lat="29.84721926102287" lon="-9.6255386782238"><ele>108.0</ele><time>2026-04-27T17:58:07Z</time></trkpt><trkpt lat="29.846993723994757" lon="-9.625693191816513"><ele>108.5</ele><time>2026-04-27T17:58:08Z</time></trkpt><trkpt lat="29.846770513912908" lon="-9.625844076752282"><ele>109.0</ele><time>2026-04-27T17:58:09Z</time></trkpt><trkpt lat="29.84654539065275" lon="-9.62598960055901"><ele>109.0</ele><time>2026-04-27T17:58:10Z</time></trkpt><trkpt lat="29.84631726799339" lon="-9.626128413177923"><ele>109.0</ele><time>2026-04-27T17:58:11Z</time></trkpt><trkpt lat="29.846085487091287" lon="-9.62625732610569"><ele>110.5</ele><time>2026-04-27T17:58:12Z</time></trkpt><trkpt lat="29.845850358405052" lon="-9.626380094509427"><ele>112.0</ele><time>2026-04-27T17:58:13Z</time></trkpt><trkpt lat="29.845613975865312" lon="-9.626495207882536"><ele>112.0</ele><time>2026-04-27T17:58:14Z</time></trkpt><trkpt lat="29.845374492256372" lon="-9.626609174845532"><ele>112.0</ele><time>2026-04-27T17:58:15Z</time></trkpt><trkpt lat="29.845132856584723" lon="-9.626720448276311"><ele>113.0</ele><time>2026-04-27T17:58:16Z</time></trkpt><trkpt lat="29.844892096474304" lon="-9.626831260563327"><ele>114.0</ele><time>2026-04-27T17:58:17Z</time></trkpt><trkpt lat="29.844650822855606" lon="-9.626940923397605"><ele>112.5</ele><time>2026-04-27T17:58:18Z</time></trkpt><trkpt lat="29.844403904752163" lon="-9.627054176395115"><ele>111.0</ele><time>2026-04-27T17:58:19Z</time></trkpt><trkpt lat="29.84415414658608" lon="-9.627170568688948"><ele>111.0</ele><time>2026-04-27T17:58:20Z</time></trkpt><trkpt lat="29.843902013634942" lon="-9.62728643917232"><ele>111.0</ele><time>2026-04-27T17:58:21Z</time></trkpt><trkpt lat="29.843647534069387" lon="-9.627404610529506"><ele>113.0</ele><time>2026-04-27T17:58:22Z</time></trkpt><trkpt lat="29.84339467018663" lon="-9.627519459788452"><ele>115.0</ele><time>2026-04-27T17:58:23Z</time></trkpt><trkpt lat="29.843141291007253" lon="-9.627634106766743"><ele>115.0</ele><time>2026-04-27T17:58:24Z</time></trkpt><trkpt lat="29.842883524947904" lon="-9.627751969774586"><ele>115.0</ele><time>2026-04-27T17:58:25Z</time></trkpt><trkpt lat="29.842626600839843" lon="-9.627870043932067"><ele>114.0</ele><time>2026-04-27T17:58:26Z</time></trkpt><trkpt lat="29.842368650684055" lon="-9.627988356565963"><ele>113.0</ele><time>2026-04-27T17:58:27Z</time></trkpt><trkpt lat="29.84210884177929" lon="-9.628105339230832"><ele>113.0</ele><time>2026-04-27T17:58:28Z</time></trkpt><trkpt lat="29.841846287058825" lon="-9.62822384363028"><ele>113.0</ele><time>2026-04-27T17:58:29Z</time></trkpt><trkpt lat="29.841583533950445" lon="-9.628346257337077"><ele>114.0</ele><time>2026-04-27T17:58:30Z</time></trkpt><trkpt lat="29.841323441775863" lon="-9.62846648867986"><ele>115.0</ele><time>2026-04-27T17:58:31Z</time></trkpt><trkpt lat="29.841064347404124" lon="-9.628582990414788"><ele>114.5</ele><time>2026-04-27T17:58:32Z</time></trkpt><trkpt lat="29.84080508074191" lon="-9.628698691158949"><ele>114.0</ele><time>2026-04-27T17:58:33Z</time></trkpt><trkpt lat="29.840547002331387" lon="-9.628814676073995"><ele>114.0</ele><time>2026-04-27T17:58:34Z</time></trkpt><trkpt lat="29.840287644914543" lon="-9.6289323657403"><ele>114.0</ele><time>2026-04-27T17:58:35Z</time></trkpt><trkpt lat="29.840029276036596" lon="-9.629051249088201"><ele>114.0</ele><time>2026-04-27T17:58:36Z</time></trkpt><trkpt lat="29.839772103438275" lon="-9.62917101401121"><ele>114.0</ele><time>2026-04-27T17:58:37Z</time></trkpt><trkpt lat="29.83951297797293" lon="-9.629291184327032"><ele>114.5</ele><time>2026-04-27T17:58:38Z</time></trkpt><trkpt lat="29.83925459357172" lon="-9.629413025360302"><ele>115.0</ele><time>2026-04-27T17:58:39Z</time></trkpt><trkpt lat="29.83899690196943" lon="-9.629533991994274"><ele>115.0</ele><time>2026-04-27T17:58:40Z</time></trkpt><trkpt lat="29.83874020210343" lon="-9.629652594229416"><ele>115.0</ele><time>2026-04-27T17:58:41Z</time></trkpt><trkpt lat="29.838480098666494" lon="-9.62976961281084"><ele>117.0</ele><time>2026-04-27T17:58:42Z</time></trkpt><trkpt lat="29.838221829919952" lon="-9.629884489248639"><ele>119.0</ele><time>2026-04-27T17:58:43Z</time></trkpt><trkpt lat="29.837963449866457" lon="-9.630000079182249"><ele>119.0</ele><time>2026-04-27T17:58:44Z</time></trkpt><trkpt lat="29.837704390006916" lon="-9.630117026492032"><ele>119.0</ele><time>2026-04-27T17:58:45Z</time></trkpt><trkpt lat="29.837444240671473" lon="-9.630236531827116"><ele>118.5</ele><time>2026-04-27T17:58:46Z</time></trkpt><trkpt lat="29.83718346574551" lon="-9.630355849150249"><ele>118.0</ele><time>2026-04-27T17:58:47Z</time></trkpt><trkpt lat="29.83692077305312" lon="-9.630476390548319"><ele>120.0</ele><time>2026-04-27T17:58:48Z</time></trkpt><trkpt lat="29.83665673843561" lon="-9.630598968610872"><ele>122.0</ele><time>2026-04-27T17:58:49Z</time></trkpt><trkpt lat="29.836391353087745" lon="-9.630721505585223"><ele>122.0</ele><time>2026-04-27T17:58:50Z</time></trkpt><trkpt lat="29.836122497590786" lon="-9.630843630400566"><ele>122.0</ele><time>2026-04-27T17:58:51Z</time></trkpt><trkpt lat="29.835856230097086" lon="-9.630967676608721"><ele>121.5</ele><time>2026-04-27T17:58:52Z</time></trkpt><trkpt lat="29.835590424072752" lon="-9.631088287095647"><ele>121.0</ele><time>2026-04-27T17:58:53Z</time></trkpt><trkpt lat="29.835321542798468" lon="-9.631210292999118"><ele>121.5</ele><time>2026-04-27T17:58:54Z</time></trkpt><trkpt lat="29.835049449801033" lon="-9.63133364714533"><ele>122.0</ele><time>2026-04-27T17:58:55Z</time></trkpt><trkpt lat="29.83477600394819" lon="-9.631459113016982"><ele>122.0</ele><time>2026-04-27T17:58:56Z</time></trkpt><trkpt lat="29.834501379351874" lon="-9.631586515550124"><ele>122.0</ele><time>2026-04-27T17:58:57Z</time></trkpt><trkpt lat="29.834226498195065" lon="-9.631712889496212"><ele>122.0</ele><time>2026-04-27T17:58:58Z</time></trkpt><trkpt lat="29.833950260942014" lon="-9.63184132033469"><ele>122.0</ele><time>2026-04-27T17:58:59Z</time></trkpt><trkpt lat="29.833673413839637" lon="-9.631966806746492"><ele>120.5</ele><time>2026-04-27T17:59:00Z</time></trkpt><trkpt lat="29.83339331458247" lon="-9.632092988991817"><ele>119.0</ele><time>2026-04-27T17:59:01Z</time></trkpt><trkpt lat="29.83311017264527" lon="-9.632221654450857"><ele>119.0</ele><time>2026-04-27T17:59:02Z</time></trkpt><trkpt lat="29.83282754301115" lon="-9.632349535813503"><ele>119.0</ele><time>2026-04-27T17:59:03Z</time></trkpt><trkpt lat="29.832545309495057" lon="-9.63247957463209"><ele>119.5</ele><time>2026-04-27T17:59:04Z</time></trkpt><trkpt lat="29.832262427009024" lon="-9.63260751659782"><ele>120.0</ele><time>2026-04-27T17:59:05Z</time></trkpt><trkpt lat="29.831980213390125" lon="-9.632737932474427"><ele>120.0</ele><time>2026-04-27T17:59:06Z</time></trkpt><trkpt lat="29.831701190555062" lon="-9.632867588275742"><ele>120.0</ele><time>2026-04-27T17:59:07Z</time></trkpt><trkpt lat="29.831422113093065" lon="-9.632995757142961"><ele>120.0</ele><time>2026-04-27T17:59:08Z</time></trkpt><trkpt lat="29.8311456976392" lon="-9.633123283578767"><ele>120.0</ele><time>2026-04-27T17:59:09Z</time></trkpt><trkpt lat="29.83087268862764" lon="-9.633254718600698"><ele>119.5</ele><time>2026-04-27T17:59:10Z</time></trkpt><trkpt lat="29.830603603294726" lon="-9.633391076240388"><ele>119.0</ele><time>2026-04-27T17:59:11Z</time></trkpt><trkpt lat="29.830341941371742" lon="-9.633535788221138"><ele>120.0</ele><time>2026-04-27T17:59:12Z</time></trkpt><trkpt lat="29.83008182799021" lon="-9.633685591191592"><ele>121.0</ele><time>2026-04-27T17:59:13Z</time></trkpt><trkpt lat="29.829826696051008" lon="-9.633838093582245"><ele>121.0</ele><time>2026-04-27T17:59:14Z</time></trkpt><trkpt lat="29.82957133933641" lon="-9.633987796912857"><ele>121.0</ele><time>2026-04-27T17:59:15Z</time></trkpt><trkpt lat="29.829313143509097" lon="-9.63413297470248"><ele>123.0</ele><time>2026-04-27T17:59:16Z</time></trkpt><trkpt lat="29.82905390952116" lon="-9.63427453238586"><ele>125.0</ele><time>2026-04-27T17:59:17Z</time></trkpt><trkpt lat="29.828795518077165" lon="-9.634415463312651"><ele>124.5</ele><time>2026-04-27T17:59:18Z</time></trkpt><trkpt lat="29.828540952176382" lon="-9.634555301991035"><ele>124.0</ele><time>2026-04-27T17:59:19Z</time></trkpt><trkpt lat="29.82828805021715" lon="-9.63469580157733"><ele>124.0</ele><time>2026-04-27T17:59:20Z</time></trkpt><trkpt lat="29.828030095957423" lon="-9.634843459668971"><ele>124.0</ele><time>2026-04-27T17:59:21Z</time></trkpt><trkpt lat="29.827766852367724" lon="-9.634994745778803"><ele>125.0</ele><time>2026-04-27T17:59:22Z</time></trkpt><trkpt lat="29.827498644878943" lon="-9.635151074982026"><ele>126.0</ele><time>2026-04-27T17:59:23Z</time></trkpt><trkpt lat="29.827228751641496" lon="-9.635310421000835"><ele>126.0</ele><time>2026-04-27T17:59:24Z</time></trkpt><trkpt lat="29.82696266991775" lon="-9.635464476146579"><ele>126.0</ele><time>2026-04-27T17:59:25Z</time></trkpt><trkpt lat="29.826699564682787" lon="-9.635611704007687"><ele>127.5</ele><time>2026-04-27T17:59:26Z</time></trkpt><trkpt lat="29.82643862113548" lon="-9.635756532606951"><ele>129.0</ele><time>2026-04-27T17:59:27Z</time></trkpt><trkpt lat="29.826178968373934" lon="-9.635902837455424"><ele>130.0</ele><time>2026-04-27T17:59:28Z</time></trkpt><trkpt lat="29.825920213384133" lon="-9.636045214820358"><ele>131.0</ele><time>2026-04-27T17:59:29Z</time></trkpt><trkpt lat="29.8256641870813" lon="-9.636186660100323"><ele>129.0</ele><time>2026-04-27T17:59:30Z</time></trkpt><trkpt lat="29.82540862468518" lon="-9.63632883391535"><ele>127.0</ele><time>2026-04-27T17:59:31Z</time></trkpt><trkpt lat="29.825153257193673" lon="-9.636472564716215"><ele>128.0</ele><time>2026-04-27T17:59:32Z</time></trkpt><trkpt lat="29.82489556336853" lon="-9.636617376979443"><ele>129.0</ele><time>2026-04-27T17:59:33Z</time></trkpt><trkpt lat="29.824640180161104" lon="-9.636763964298554"><ele>129.0</ele><time>2026-04-27T17:59:34Z</time></trkpt><trkpt lat="29.82438771495617" lon="-9.636907940201791"><ele>129.0</ele><time>2026-04-27T17:59:35Z</time></trkpt><trkpt lat="29.82413686770918" lon="-9.637054733189979"><ele>129.5</ele><time>2026-04-27T17:59:36Z</time></trkpt><trkpt lat="29.823887603517157" lon="-9.63720076902011"><ele>130.0</ele><time>2026-04-27T17:59:37Z</time></trkpt><trkpt lat="29.823640819770603" lon="-9.637343933897835"><ele>131.0</ele><time>2026-04-27T17:59:38Z</time></trkpt><trkpt lat="29.823392797887927" lon="-9.637483229379786"><ele>132.0</ele><time>2026-04-27T17:59:39Z</time></trkpt><trkpt lat="29.823142040659132" lon="-9.637617524580563"><ele>132.0</ele><time>2026-04-27T17:59:40Z</time></trkpt><trkpt lat="29.82288893719414" lon="-9.63775444315009"><ele>132.0</ele><time>2026-04-27T17:59:41Z</time></trkpt><trkpt lat="29.822636430836766" lon="-9.637892500235887"><ele>131.5</ele><time>2026-04-27T17:59:42Z</time></trkpt><trkpt lat="29.82238545976655" lon="-9.638028934419888"><ele>131.0</ele><time>2026-04-27T17:59:43Z</time></trkpt><trkpt lat="29.822140886134267" lon="-9.638162836876177"><ele>131.0</ele><time>2026-04-27T17:59:44Z</time></trkpt><trkpt lat="29.821896379083544" lon="-9.638296747320467"><ele>131.0</ele><time>2026-04-27T17:59:45Z</time></trkpt><trkpt lat="29.821649176133764" lon="-9.638430453372289"><ele>132.0</ele><time>2026-04-27T17:59:46Z</time></trkpt><trkpt lat="29.82139881571135" lon="-9.638566337186091"><ele>133.0</ele><time>2026-04-27T17:59:47Z</time></trkpt><trkpt lat="29.821148431288876" lon="-9.638703389380574"><ele>134.0</ele><time>2026-04-27T17:59:48Z</time></trkpt><trkpt lat="29.820899410629274" lon="-9.63884028573067"><ele>135.0</ele><time>2026-04-27T17:59:49Z</time></trkpt><trkpt lat="29.82065134370189" lon="-9.638978184089925"><ele>135.0</ele><time>2026-04-27T17:59:50Z</time></trkpt><trkpt lat="29.820404279966446" lon="-9.639117337722027"><ele>135.0</ele><time>2026-04-27T17:59:51Z</time></trkpt><trkpt lat="29.820157005966575" lon="-9.639254219450642"><ele>135.0</ele><time>2026-04-27T17:59:52Z</time></trkpt><trkpt lat="29.81990862980826" lon="-9.6393901132126"><ele>135.0</ele><time>2026-04-27T17:59:53Z</time></trkpt><trkpt lat="29.81965891147771" lon="-9.63952472176634"><ele>135.0</ele><time>2026-04-27T17:59:54Z</time></trkpt><trkpt lat="29.81940900847116" lon="-9.639659195476431"><ele>135.0</ele><time>2026-04-27T17:59:55Z</time></trkpt><trkpt lat="29.819160466019433" lon="-9.639794819247735"><ele>137.0</ele><time>2026-04-27T17:59:56Z</time></trkpt><trkpt lat="29.81891946466912" lon="-9.639929360892676"><ele>139.0</ele><time>2026-04-27T17:59:57Z</time></trkpt><trkpt lat="29.818681210199664" lon="-9.640062396389485"><ele>139.0</ele><time>2026-04-27T17:59:58Z</time></trkpt><trkpt lat="29.818440172717125" lon="-9.64019411018429"><ele>139.0</ele><time>2026-04-27T17:59:59Z</time></trkpt><trkpt lat="29.818199081059717" lon="-9.640329138794312"><ele>138.0</ele><time>2026-04-27T18:00:00Z</time></trkpt><trkpt lat="29.817958600956615" lon="-9.640465150334398"><ele>137.0</ele><time>2026-04-27T18:00:01Z</time></trkpt><trkpt lat="29.817719255466347" lon="-9.640604007361308"><ele>136.0</ele><time>2026-04-27T18:00:02Z</time></trkpt><trkpt lat="29.81747963737041" lon="-9.640738199842321"><ele>135.0</ele><time>2026-04-27T18:00:03Z</time></trkpt><trkpt lat="29.81724566925367" lon="-9.640865748716083"><ele>135.0</ele><time>2026-04-27T18:00:04Z</time></trkpt><trkpt lat="29.817011181241455" lon="-9.64099013094954"><ele>135.0</ele><time>2026-04-27T18:00:05Z</time></trkpt><trkpt lat="29.816776283020896" lon="-9.641116788601996"><ele>134.5</ele><time>2026-04-27T18:00:06Z</time></trkpt><trkpt lat="29.816538467964474" lon="-9.641244546555576"><ele>134.0</ele><time>2026-04-27T18:00:07Z</time></trkpt><trkpt lat="29.81629393979194" lon="-9.641375336648833"><ele>134.0</ele><time>2026-04-27T18:00:08Z</time></trkpt><trkpt lat="29.81604546812907" lon="-9.64150768949687"><ele>134.0</ele><time>2026-04-27T18:00:09Z</time></trkpt><trkpt lat="29.815798811340787" lon="-9.641639372772653"><ele>135.5</ele><time>2026-04-27T18:00:10Z</time></trkpt><trkpt lat="29.815555588124244" lon="-9.64177121301139"><ele>137.0</ele><time>2026-04-27T18:00:11Z</time></trkpt><trkpt lat="29.815314773529483" lon="-9.64190428833593"><ele>136.5</ele><time>2026-04-27T18:00:12Z</time></trkpt><trkpt lat="29.815075389065793" lon="-9.64203890337783"><ele>136.0</ele><time>2026-04-27T18:00:13Z</time></trkpt><trkpt lat="29.8148348860735" lon="-9.642171716305555"><ele>136.0</ele><time>2026-04-27T18:00:14Z</time></trkpt><trkpt lat="29.81459678261623" lon="-9.642301978106817"><ele>136.0</ele><time>2026-04-27T18:00:15Z</time></trkpt><trkpt lat="29.81436137432365" lon="-9.64243422699905"><ele>135.5</ele><time>2026-04-27T18:00:16Z</time></trkpt><trkpt lat="29.81412372771964" lon="-9.64256637705892"><ele>135.0</ele><time>2026-04-27T18:00:17Z</time></trkpt><trkpt lat="29.81388630023463" lon="-9.642698653195229"><ele>135.0</ele><time>2026-04-27T18:00:18Z</time></trkpt><trkpt lat="29.813650569021267" lon="-9.642827560175462"><ele>135.0</ele><time>2026-04-27T18:00:19Z</time></trkpt><trkpt lat="29.813415670748483" lon="-9.64295750491562"><ele>135.5</ele><time>2026-04-27T18:00:20Z</time></trkpt><trkpt lat="29.81318570065351" lon="-9.6430874393284"><ele>136.0</ele><time>2026-04-27T18:00:21Z</time></trkpt><trkpt lat="29.81295619094288" lon="-9.6432182820047"><ele>136.0</ele><time>2026-04-27T18:00:22Z</time></trkpt><trkpt lat="29.812727278534073" lon="-9.643347963494271"><ele>136.0</ele><time>2026-04-27T18:00:23Z</time></trkpt><trkpt lat="29.81249612563393" lon="-9.643478095650718"><ele>136.5</ele><time>2026-04-27T18:00:24Z</time></trkpt><trkpt lat="29.812264650763286" lon="-9.643607192434995"><ele>137.0</ele><time>2026-04-27T18:00:25Z</time></trkpt><trkpt lat="29.812033048123137" lon="-9.64373686259737"><ele>138.5</ele><time>2026-04-27T18:00:26Z</time></trkpt><trkpt lat="29.81179922677473" lon="-9.643867177135828"><ele>140.0</ele><time>2026-04-27T18:00:27Z</time></trkpt><trkpt lat="29.811564579224825" lon="-9.643992921304202"><ele>140.0</ele><time>2026-04-27T18:00:28Z</time></trkpt><trkpt lat="29.811328541214348" lon="-9.64411972241577"><ele>140.0</ele><time>2026-04-27T18:00:29Z</time></trkpt><trkpt lat="29.811092994700438" lon="-9.6442507205345"><ele>139.5</ele><time>2026-04-27T18:00:30Z</time></trkpt><trkpt lat="29.81085698810369" lon="-9.64438463683206"><ele>139.0</ele><time>2026-04-27T18:00:31Z</time></trkpt><trkpt lat="29.810619717380096" lon="-9.644518227277553"><ele>139.0</ele><time>2026-04-27T18:00:32Z</time></trkpt><trkpt lat="29.810378177460247" lon="-9.644655816428564"><ele>139.0</ele><time>2026-04-27T18:00:33Z</time></trkpt><trkpt lat="29.810138227057923" lon="-9.6447954735737"><ele>139.5</ele><time>2026-04-27T18:00:34Z</time></trkpt><trkpt lat="29.809895777175715" lon="-9.644937885808648"><ele>140.0</ele><time>2026-04-27T18:00:35Z</time></trkpt><trkpt lat="29.809652905744937" lon="-9.64508436456484"><ele>140.0</ele><time>2026-04-27T18:00:36Z</time></trkpt><trkpt lat="29.8094074724457" lon="-9.645235756637412"><ele>140.0</ele><time>2026-04-27T18:00:37Z</time></trkpt><trkpt lat="29.809160143947462" lon="-9.645388970389314"><ele>141.0</ele><time>2026-04-27T18:00:38Z</time></trkpt><trkpt lat="29.808916944075037" lon="-9.645543296813205"><ele>142.0</ele><time>2026-04-27T18:00:39Z</time></trkpt><trkpt lat="29.808686036149872" lon="-9.645701940913462"><ele>143.0</ele><time>2026-04-27T18:00:40Z</time></trkpt><trkpt lat="29.808456815675346" lon="-9.645860979762025"><ele>144.0</ele><time>2026-04-27T18:00:41Z</time></trkpt><trkpt lat="29.808222655402282" lon="-9.646018139586209"><ele>143.5</ele><time>2026-04-27T18:00:42Z</time></trkpt><trkpt lat="29.807989771632435" lon="-9.646170283563384"><ele>143.0</ele><time>2026-04-27T18:00:43Z</time></trkpt><trkpt lat="29.807757665940077" lon="-9.646322882484574"><ele>145.0</ele><time>2026-04-27T18:00:44Z</time></trkpt><trkpt lat="29.80752738629798" lon="-9.646480984016547"><ele>147.0</ele><time>2026-04-27T18:00:45Z</time></trkpt><trkpt lat="29.807297584876274" lon="-9.646637402982735"><ele>147.0</ele><time>2026-04-27T18:00:46Z</time></trkpt><trkpt lat="29.80707287014378" lon="-9.646793546106446"><ele>147.0</ele><time>2026-04-27T18:00:47Z</time></trkpt><trkpt lat="29.80685183270746" lon="-9.64695143893675"><ele>146.5</ele><time>2026-04-27T18:00:48Z</time></trkpt><trkpt lat="29.80662909583998" lon="-9.647112923593093"><ele>146.0</ele><time>2026-04-27T18:00:49Z</time></trkpt><trkpt lat="29.80640721413695" lon="-9.647278411105855"><ele>146.0</ele><time>2026-04-27T18:00:50Z</time></trkpt><trkpt lat="29.80619124320446" lon="-9.64743632742077"><ele>146.0</ele><time>2026-04-27T18:00:51Z</time></trkpt><trkpt lat="29.805985494730415" lon="-9.64758269862899"><ele>147.0</ele><time>2026-04-27T18:00:52Z</time></trkpt><trkpt lat="29.805781521442405" lon="-9.647721603420498"><ele>148.0</ele><time>2026-04-27T18:00:53Z</time></trkpt><trkpt lat="29.805577577221346" lon="-9.64785764153216"><ele>148.5</ele><time>2026-04-27T18:00:54Z</time></trkpt><trkpt lat="29.805373703348703" lon="-9.647994581140646"><ele>149.0</ele><time>2026-04-27T18:00:55Z</time></trkpt><trkpt lat="29.805167914816195" lon="-9.648131325132187"><ele>149.5</ele><time>2026-04-27T18:00:56Z</time></trkpt><trkpt lat="29.80495800372479" lon="-9.648273235135072"><ele>150.0</ele><time>2026-04-27T18:00:57Z</time></trkpt><trkpt lat="29.804747942063123" lon="-9.648414639292788"><ele>150.0</ele><time>2026-04-27T18:00:58Z</time></trkpt><trkpt lat="29.804533980237412" lon="-9.648560729799883"><ele>150.0</ele><time>2026-04-27T18:00:59Z</time></trkpt><trkpt lat="29.804317954660448" lon="-9.648708745605685"><ele>149.5</ele><time>2026-04-27T18:01:00Z</time></trkpt><trkpt lat="29.804102885113423" lon="-9.648857219054078"><ele>149.0</ele><time>2026-04-27T18:01:01Z</time></trkpt><trkpt lat="29.803888113339337" lon="-9.649006911469504"><ele>149.0</ele><time>2026-04-27T18:01:02Z</time></trkpt><trkpt lat="29.803676701351883" lon="-9.649152904285451"><ele>149.0</ele><time>2026-04-27T18:01:03Z</time></trkpt><trkpt lat="29.803473235555128" lon="-9.64929379601732"><ele>149.0</ele><time>2026-04-27T18:01:04Z</time></trkpt><trkpt lat="29.803273267986185" lon="-9.649429273428408"><ele>149.0</ele><time>2026-04-27T18:01:05Z</time></trkpt><trkpt lat="29.803073002897737" lon="-9.649562398345978"><ele>149.5</ele><time>2026-04-27T18:01:06Z</time></trkpt><trkpt lat="29.802873233571688" lon="-9.64969937946152"><ele>150.0</ele><time>2026-04-27T18:01:07Z</time></trkpt><trkpt lat="29.80267280628875" lon="-9.649840864882108"><ele>150.0</ele><time>2026-04-27T18:01:08Z</time></trkpt><trkpt lat="29.80247260448331" lon="-9.649981456804722"><ele>150.0</ele><time>2026-04-27T18:01:09Z</time></trkpt><trkpt lat="29.802275074269033" lon="-9.650120774065158"><ele>150.0</ele><time>2026-04-27T18:01:10Z</time></trkpt><trkpt lat="29.802077204471836" lon="-9.650255385754729"><ele>150.0</ele><time>2026-04-27T18:01:11Z</time></trkpt><trkpt lat="29.80187411225259" lon="-9.650390401244609"><ele>149.0</ele><time>2026-04-27T18:01:12Z</time></trkpt><trkpt lat="29.801658065690045" lon="-9.650529811724663"><ele>148.0</ele><time>2026-04-27T18:01:13Z</time></trkpt><trkpt lat="29.801425379661403" lon="-9.65067489821879"><ele>148.0</ele><time>2026-04-27T18:01:14Z</time></trkpt><trkpt lat="29.80118089562214" lon="-9.650831204664394"><ele>148.0</ele><time>2026-04-27T18:01:15Z</time></trkpt><trkpt lat="29.800929098688663" lon="-9.650997994376166"><ele>150.5</ele><time>2026-04-27T18:01:16Z</time></trkpt><trkpt lat="29.800671909740604" lon="-9.651171452971244"><ele>153.0</ele><time>2026-04-27T18:01:17Z</time></trkpt><trkpt lat="29.80041219937638" lon="-9.651346049552636"><ele>153.0</ele><time>2026-04-27T18:01:18Z</time></trkpt><trkpt lat="29.80015811570807" lon="-9.651526103481467"><ele>153.0</ele><time>2026-04-27T18:01:19Z</time></trkpt><trkpt lat="29.799910612202513" lon="-9.65170962828408"><ele>153.0</ele><time>2026-04-27T18:01:20Z</time></trkpt><trkpt lat="29.79966661984584" lon="-9.651890729297687"><ele>153.0</ele><time>2026-04-27T18:01:21Z</time></trkpt><trkpt lat="29.79943038070248" lon="-9.652060068958297"><ele>154.5</ele><time>2026-04-27T18:01:22Z</time></trkpt><trkpt lat="29.799192812225083" lon="-9.652219848137666"><ele>156.0</ele><time>2026-04-27T18:01:23Z</time></trkpt><trkpt lat="29.79895811769988" lon="-9.652377560812749"><ele>156.0</ele><time>2026-04-27T18:01:24Z</time></trkpt><trkpt lat="29.798726341618696" lon="-9.652536814678216"><ele>156.0</ele><time>2026-04-27T18:01:25Z</time></trkpt><trkpt lat="29.798496296563034" lon="-9.65269766514917"><ele>156.0</ele><time>2026-04-27T18:01:26Z</time></trkpt><trkpt lat="29.798269056057133" lon="-9.652858733686989"><ele>156.0</ele><time>2026-04-27T18:01:27Z</time></trkpt><trkpt lat="29.7980400339937" lon="-9.653017310869066"><ele>156.0</ele><time>2026-04-27T18:01:28Z</time></trkpt><trkpt lat="29.797811089673825" lon="-9.653175165405548"><ele>156.0</ele><time>2026-04-27T18:01:29Z</time></trkpt><trkpt lat="29.797580055041315" lon="-9.653332168157702"><ele>157.0</ele><time>2026-04-27T18:01:30Z</time></trkpt><trkpt lat="29.797351859319587" lon="-9.653489413608023"><ele>158.0</ele><time>2026-04-27T18:01:31Z</time></trkpt><trkpt lat="29.79712238872278" lon="-9.65364748741933"><ele>156.0</ele><time>2026-04-27T18:01:32Z</time></trkpt><trkpt lat="29.796888319599596" lon="-9.653806249245703"><ele>154.0</ele><time>2026-04-27T18:01:33Z</time></trkpt><trkpt lat="29.79665386606728" lon="-9.65396360020448"><ele>154.0</ele><time>2026-04-27T18:01:34Z</time></trkpt><trkpt lat="29.796420913429735" lon="-9.65411718581297"><ele>154.0</ele><time>2026-04-27T18:01:35Z</time></trkpt><trkpt lat="29.796188343710845" lon="-9.654268980825126"><ele>154.5</ele><time>2026-04-27T18:01:36Z</time></trkpt><trkpt lat="29.795960654626658" lon="-9.654420371198084"><ele>155.0</ele><time>2026-04-27T18:01:37Z</time></trkpt><trkpt lat="29.795732946131952" lon="-9.654575462828475"><ele>155.5</ele><time>2026-04-27T18:01:38Z</time></trkpt><trkpt lat="29.79550510434805" lon="-9.654734977429092"><ele>156.0</ele><time>2026-04-27T18:01:39Z</time></trkpt><trkpt lat="29.795276034929177" lon="-9.654894344742758"><ele>156.5</ele><time>2026-04-27T18:01:40Z</time></trkpt><trkpt lat="29.79504777793527" lon="-9.655048159921702"><ele>157.0</ele><time>2026-04-27T18:01:41Z</time></trkpt><trkpt lat="29.79481662935775" lon="-9.655202245972921"><ele>157.0</ele><time>2026-04-27T18:01:42Z</time></trkpt><trkpt lat="29.7945783825085" lon="-9.655359927416724"><ele>157.0</ele><time>2026-04-27T18:01:43Z</time></trkpt><trkpt lat="29.794337300212586" lon="-9.655519554919096"><ele>157.0</ele><time>2026-04-27T18:01:44Z</time></trkpt><trkpt lat="29.794099418576096" lon="-9.655674660233815"><ele>157.0</ele><time>2026-04-27T18:01:45Z</time></trkpt><trkpt lat="29.793869374268258" lon="-9.655824389163723"><ele>157.0</ele><time>2026-04-27T18:01:46Z</time></trkpt><trkpt lat="29.793641470208794" lon="-9.65597651382144"><ele>157.0</ele><time>2026-04-27T18:01:47Z</time></trkpt><trkpt lat="29.793411946818484" lon="-9.65613390293021"><ele>157.0</ele><time>2026-04-27T18:01:48Z</time></trkpt><trkpt lat="29.79317871708793" lon="-9.656291235015557"><ele>157.0</ele><time>2026-04-27T18:01:49Z</time></trkpt><trkpt lat="29.792943813656777" lon="-9.656452479190463"><ele>157.0</ele><time>2026-04-27T18:01:50Z</time></trkpt><trkpt lat="29.79270547604126" lon="-9.656618444180934"><ele>157.0</ele><time>2026-04-27T18:01:51Z</time></trkpt><trkpt lat="29.792472439409828" lon="-9.656785535094762"><ele>159.5</ele><time>2026-04-27T18:01:52Z</time></trkpt><trkpt lat="29.79224501846649" lon="-9.656948621192878"><ele>162.0</ele><time>2026-04-27T18:01:53Z</time></trkpt><trkpt lat="29.792022815350972" lon="-9.65710945245805"><ele>161.5</ele><time>2026-04-27T18:01:54Z</time></trkpt><trkpt lat="29.791795228929097" lon="-9.657271377592648"><ele>161.0</ele><time>2026-04-27T18:01:55Z</time></trkpt><trkpt lat="29.791566179423437" lon="-9.657429227913466"><ele>161.0</ele><time>2026-04-27T18:01:56Z</time></trkpt><trkpt lat="29.79133959982601" lon="-9.657585050441055"><ele>161.0</ele><time>2026-04-27T18:01:57Z</time></trkpt><trkpt lat="29.791111602125344" lon="-9.657741803547294"><ele>160.0</ele><time>2026-04-27T18:01:58Z</time></trkpt><trkpt lat="29.79088556151456" lon="-9.657898322629269"><ele>159.0</ele><time>2026-04-27T18:01:59Z</time></trkpt><trkpt lat="29.7906609229662" lon="-9.658056072690192"><ele>159.0</ele><time>2026-04-27T18:02:00Z</time></trkpt><trkpt lat="29.79043724408746" lon="-9.658211294185788"><ele>159.0</ele><time>2026-04-27T18:02:01Z</time></trkpt><trkpt lat="29.790215380279996" lon="-9.658367210127352"><ele>160.0</ele><time>2026-04-27T18:02:02Z</time></trkpt><trkpt lat="29.789994781782706" lon="-9.658526407516014"><ele>161.0</ele><time>2026-04-27T18:02:03Z</time></trkpt><trkpt lat="29.789771930458013" lon="-9.658682414363087"><ele>162.0</ele><time>2026-04-27T18:02:04Z</time></trkpt><trkpt lat="29.789548501037014" lon="-9.658836763386471"><ele>163.0</ele><time>2026-04-27T18:02:05Z</time></trkpt><trkpt lat="29.789327551006227" lon="-9.658987080319076"><ele>164.0</ele><time>2026-04-27T18:02:06Z</time></trkpt><trkpt lat="29.789103806672813" lon="-9.65913257343679"><ele>165.0</ele><time>2026-04-27T18:02:07Z</time></trkpt><trkpt lat="29.78887853529935" lon="-9.659277089663714"><ele>165.0</ele><time>2026-04-27T18:02:08Z</time></trkpt><trkpt lat="29.78865270722715" lon="-9.65942630546267"><ele>165.0</ele><time>2026-04-27T18:02:09Z</time></trkpt><trkpt lat="29.788425657353674" lon="-9.659577637853323"><ele>163.5</ele><time>2026-04-27T18:02:10Z</time></trkpt><trkpt lat="29.78819762561265" lon="-9.659730055566982"><ele>162.0</ele><time>2026-04-27T18:02:11Z</time></trkpt><trkpt lat="29.78796666597589" lon="-9.659887053310639"><ele>162.0</ele><time>2026-04-27T18:02:12Z</time></trkpt><trkpt lat="29.78773819052443" lon="-9.660044264614202"><ele>162.0</ele><time>2026-04-27T18:02:13Z</time></trkpt><trkpt lat="29.787507581371766" lon="-9.660203763900327"><ele>163.0</ele><time>2026-04-27T18:02:14Z</time></trkpt><trkpt lat="29.787276222448718" lon="-9.660361451649983"><ele>164.0</ele><time>2026-04-27T18:02:15Z</time></trkpt><trkpt lat="29.78704577646304" lon="-9.660517772985719"><ele>164.5</ele><time>2026-04-27T18:02:16Z</time></trkpt><trkpt lat="29.78681294978304" lon="-9.660674537245166"><ele>165.0</ele><time>2026-04-27T18:02:17Z</time></trkpt><trkpt lat="29.786581431725125" lon="-9.66083333862802"><ele>165.0</ele><time>2026-04-27T18:02:18Z</time></trkpt><trkpt lat="29.786349687126616" lon="-9.66099459587962"><ele>165.0</ele><time>2026-04-27T18:02:19Z</time></trkpt><trkpt lat="29.78611735234106" lon="-9.661156378221142"><ele>166.5</ele><time>2026-04-27T18:02:20Z</time></trkpt><trkpt lat="29.785894448992405" lon="-9.661312938105041"><ele>168.0</ele><time>2026-04-27T18:02:21Z</time></trkpt><trkpt lat="29.785684644779472" lon="-9.661457751470676"><ele>168.0</ele><time>2026-04-27T18:02:22Z</time></trkpt><trkpt lat="29.785480361370656" lon="-9.661596521561782"><ele>168.0</ele><time>2026-04-27T18:02:23Z</time></trkpt><trkpt lat="29.785273707295257" lon="-9.6617380883944"><ele>168.0</ele><time>2026-04-27T18:02:24Z</time></trkpt><trkpt lat="29.785062279461247" lon="-9.661883591006397"><ele>168.0</ele><time>2026-04-27T18:02:25Z</time></trkpt><trkpt lat="29.784851591121953" lon="-9.662026999860098"><ele>167.66666666666666</ele><time>2026-04-27T18:02:26Z</time></trkpt><trkpt lat="29.784650532316807" lon="-9.662163635940313"><ele>167.33333333333331</ele><time>2026-04-27T18:02:27Z</time></trkpt><trkpt lat="29.78446522352137" lon="-9.662290032800247"><ele>167.0</ele><time>2026-04-27T18:02:28Z</time></trkpt><trkpt lat="29.784291885157256" lon="-9.662409290465723"><ele>167.0</ele><time>2026-04-27T18:02:29Z</time></trkpt><trkpt lat="29.78413036051422" lon="-9.66251951344833"><ele>167.0</ele><time>2026-04-27T18:02:30Z</time></trkpt><trkpt lat="29.783975918962202" lon="-9.662623650361605"><ele>167.0</ele><time>2026-04-27T18:02:31Z</time></trkpt><trkpt lat="29.783831539049263" lon="-9.662721525623414"><ele>166.66666666666666</ele><time>2026-04-27T18:02:32Z</time></trkpt><trkpt lat="29.783694323053393" lon="-9.66281693761537"><ele>166.33333333333334</ele><time>2026-04-27T18:02:33Z</time></trkpt><trkpt lat="29.783568903157345" lon="-9.662904446255114"><ele>166.0</ele><time>2026-04-27T18:02:34Z</time></trkpt><trkpt lat="29.783445405377638" lon="-9.662987120251726"><ele>167.0</ele><time>2026-04-27T18:02:35Z</time></trkpt><trkpt lat="29.783320772780282" lon="-9.663070584279861"><ele>168.0</ele><time>2026-04-27T18:02:36Z</time></trkpt><trkpt lat="29.783196337342602" lon="-9.663154233849522"><ele>169.0</ele><time>2026-04-27T18:02:37Z</time></trkpt><trkpt lat="29.783078772976914" lon="-9.663236794589395"><ele>170.0</ele><time>2026-04-27T18:02:38Z</time></trkpt><trkpt lat="29.782969625090235" lon="-9.663313822222396"><ele>170.0</ele><time>2026-04-27T18:02:39Z</time></trkpt><trkpt lat="29.78287344024774" lon="-9.663386298666591"><ele>170.0</ele><time>2026-04-27T18:02:40Z</time></trkpt><trkpt lat="29.782795390561358" lon="-9.663460128285688"><ele>170.0</ele><time>2026-04-27T18:02:41Z</time></trkpt><trkpt lat="29.7827402913453" lon="-9.663540005653223"><ele>170.0</ele><time>2026-04-27T18:02:42Z</time></trkpt><trkpt lat="29.782688082532886" lon="-9.663628551071813"><ele>170.0</ele><time>2026-04-27T18:02:43Z</time></trkpt><trkpt lat="29.782620529183507" lon="-9.663706508263306"><ele>169.0</ele><time>2026-04-27T18:02:44Z</time></trkpt><trkpt lat="29.78252824467947" lon="-9.663756542578476"><ele>168.0</ele><time>2026-04-27T18:02:45Z</time></trkpt><trkpt lat="29.78240809908103" lon="-9.66377675477673"><ele>167.0</ele><time>2026-04-27T18:02:46Z</time></trkpt><trkpt lat="29.782265160807903" lon="-9.663799569757074"><ele>166.0</ele><time>2026-04-27T18:02:47Z</time></trkpt><trkpt lat="29.782120373300828" lon="-9.663857103199705"><ele>166.0</ele><time>2026-04-27T18:02:48Z</time></trkpt><trkpt lat="29.781981099868545" lon="-9.663949527471338"><ele>166.0</ele><time>2026-04-27T18:02:49Z</time></trkpt><trkpt lat="29.781823976848486" lon="-9.664073354419756"><ele>166.0</ele><time>2026-04-27T18:02:50Z</time></trkpt><trkpt lat="29.781643005269824" lon="-9.66420606901763"><ele>167.0</ele><time>2026-04-27T18:02:51Z</time></trkpt><trkpt lat="29.781444532040418" lon="-9.66434203124351"><ele>168.0</ele><time>2026-04-27T18:02:52Z</time></trkpt><trkpt lat="29.781252437073707" lon="-9.664472390352303"><ele>167.5</ele><time>2026-04-27T18:02:53Z</time></trkpt><trkpt lat="29.78105028091" lon="-9.664610372467063"><ele>167.0</ele><time>2026-04-27T18:02:54Z</time></trkpt><trkpt lat="29.780847692383258" lon="-9.664749468039716"><ele>167.0</ele><time>2026-04-27T18:02:55Z</time></trkpt><trkpt lat="29.780653144439768" lon="-9.664883435096199"><ele>167.0</ele><time>2026-04-27T18:02:56Z</time></trkpt><trkpt lat="29.78045185240407" lon="-9.665019460792609"><ele>167.0</ele><time>2026-04-27T18:02:57Z</time></trkpt><trkpt lat="29.7802436573448" lon="-9.665162274729168"><ele>167.0</ele><time>2026-04-27T18:02:58Z</time></trkpt><trkpt lat="29.780030632736974" lon="-9.66530868419563"><ele>168.5</ele><time>2026-04-27T18:02:59Z</time></trkpt><trkpt lat="29.7798115630267" lon="-9.665460718781445"><ele>170.0</ele><time>2026-04-27T18:03:00Z</time></trkpt><trkpt lat="29.779591837198048" lon="-9.665614145956763"><ele>170.0</ele><time>2026-04-27T18:03:01Z</time></trkpt><trkpt lat="29.779365953331915" lon="-9.665771354729877"><ele>170.0</ele><time>2026-04-27T18:03:02Z</time></trkpt><trkpt lat="29.779133256244904" lon="-9.665930025252926"><ele>169.5</ele><time>2026-04-27T18:03:03Z</time></trkpt><trkpt lat="29.77889674858092" lon="-9.666093397226435"><ele>169.0</ele><time>2026-04-27T18:03:04Z</time></trkpt><trkpt lat="29.778655780548632" lon="-9.666258531338032"><ele>168.0</ele><time>2026-04-27T18:03:05Z</time></trkpt><trkpt lat="29.7784145724298" lon="-9.666423387306232"><ele>167.0</ele><time>2026-04-27T18:03:06Z</time></trkpt><trkpt lat="29.77817046205542" lon="-9.666588252792181"><ele>167.0</ele><time>2026-04-27T18:03:07Z</time></trkpt><trkpt lat="29.77792477886127" lon="-9.666754967205735"><ele>167.0</ele><time>2026-04-27T18:03:08Z</time></trkpt><trkpt lat="29.77768272879415" lon="-9.66691722894544"><ele>168.0</ele><time>2026-04-27T18:03:09Z</time></trkpt><trkpt lat="29.77744355502622" lon="-9.667077183396081"><ele>169.0</ele><time>2026-04-27T18:03:10Z</time></trkpt><trkpt lat="29.77720371371136" lon="-9.667238156888665"><ele>169.0</ele><time>2026-04-27T18:03:11Z</time></trkpt><trkpt lat="29.776964037642053" lon="-9.667398945963663"><ele>169.0</ele><time>2026-04-27T18:03:12Z</time></trkpt><trkpt lat="29.77672654944417" lon="-9.667562604226452"><ele>169.0</ele><time>2026-04-27T18:03:13Z</time></trkpt><trkpt lat="29.77649080307677" lon="-9.667723962116902"><ele>169.0</ele><time>2026-04-27T18:03:14Z</time></trkpt><trkpt lat="29.776255270938673" lon="-9.667886299422845"><ele>168.0</ele><time>2026-04-27T18:03:15Z</time></trkpt><trkpt lat="29.776020363173167" lon="-9.668048856697986"><ele>167.0</ele><time>2026-04-27T18:03:16Z</time></trkpt><trkpt lat="29.775786907356135" lon="-9.668210490043185"><ele>167.0</ele><time>2026-04-27T18:03:17Z</time></trkpt><trkpt lat="29.77555530715495" lon="-9.668369674921198"><ele>167.0</ele><time>2026-04-27T18:03:18Z</time></trkpt><trkpt lat="29.77532809203296" lon="-9.668524030307447"><ele>165.5</ele><time>2026-04-27T18:03:19Z</time></trkpt><trkpt lat="29.775103328176456" lon="-9.668678156578263"><ele>164.0</ele><time>2026-04-27T18:03:20Z</time></trkpt><trkpt lat="29.774877121024105" lon="-9.668834791018199"><ele>164.0</ele><time>2026-04-27T18:03:21Z</time></trkpt><trkpt lat="29.77465013147101" lon="-9.668993749470253"><ele>164.0</ele><time>2026-04-27T18:03:22Z</time></trkpt><trkpt lat="29.774423986907212" lon="-9.669150934518287"><ele>165.0</ele><time>2026-04-27T18:03:23Z</time></trkpt><trkpt lat="29.774195018262912" lon="-9.669305813592018"><ele>166.0</ele><time>2026-04-27T18:03:24Z</time></trkpt><trkpt lat="29.773965301444" lon="-9.66945969138777"><ele>167.0</ele><time>2026-04-27T18:03:25Z</time></trkpt><trkpt lat="29.773734958671042" lon="-9.669614655354424"><ele>168.0</ele><time>2026-04-27T18:03:26Z</time></trkpt><trkpt lat="29.77350842241224" lon="-9.669767951184744"><ele>168.0</ele><time>2026-04-27T18:03:27Z</time></trkpt><trkpt lat="29.77329220645125" lon="-9.669916588908354"><ele>168.0</ele><time>2026-04-27T18:03:28Z</time></trkpt><trkpt lat="29.773078717398498" lon="-9.670066246336853"><ele>168.0</ele><time>2026-04-27T18:03:29Z</time></trkpt><trkpt lat="29.772864029841912" lon="-9.670218757805626"><ele>168.0</ele><time>2026-04-27T18:03:30Z</time></trkpt><trkpt lat="29.772650146837858" lon="-9.670366996631076"><ele>167.5</ele><time>2026-04-27T18:03:31Z</time></trkpt><trkpt lat="29.77243733433757" lon="-9.670515588711416"><ele>167.0</ele><time>2026-04-27T18:03:32Z</time></trkpt><trkpt lat="29.77222131420266" lon="-9.670665697300791"><ele>167.0</ele><time>2026-04-27T18:03:33Z</time></trkpt><trkpt lat="29.772004851512467" lon="-9.670815003238884"><ele>167.0</ele><time>2026-04-27T18:03:34Z</time></trkpt><trkpt lat="29.77179051310987" lon="-9.670965624888757"><ele>169.0</ele><time>2026-04-27T18:03:35Z</time></trkpt><trkpt lat="29.771566964316122" lon="-9.671100945911842"><ele>171.0</ele><time>2026-04-27T18:03:36Z</time></trkpt><trkpt lat="29.77134941533905" lon="-9.671249351695199"><ele>171.5</ele><time>2026-04-27T18:03:37Z</time></trkpt><trkpt lat="29.771136116894155" lon="-9.671408211909625"><ele>172.0</ele><time>2026-04-27T18:03:38Z</time></trkpt><trkpt lat="29.77091833570034" lon="-9.671552012715642"><ele>171.0</ele><time>2026-04-27T18:03:39Z</time></trkpt><trkpt lat="29.770705821688818" lon="-9.67169363129608"><ele>170.0</ele><time>2026-04-27T18:03:40Z</time></trkpt><trkpt lat="29.77049196635526" lon="-9.671836637586017"><ele>171.5</ele><time>2026-04-27T18:03:41Z</time></trkpt><trkpt lat="29.770280412744587" lon="-9.671978360005378"><ele>173.0</ele><time>2026-04-27T18:03:42Z</time></trkpt><trkpt lat="29.770069841122556" lon="-9.67211822530494"><ele>173.0</ele><time>2026-04-27T18:03:43Z</time></trkpt><trkpt lat="29.76985819231016" lon="-9.672260290483507"><ele>173.0</ele><time>2026-04-27T18:03:44Z</time></trkpt><trkpt lat="29.76964582020118" lon="-9.67240475028743"><ele>173.0</ele><time>2026-04-27T18:03:45Z</time></trkpt><trkpt lat="29.76943339161332" lon="-9.672548381507355"><ele>173.0</ele><time>2026-04-27T18:03:46Z</time></trkpt><trkpt lat="29.76922821845374" lon="-9.67270851645374"><ele>174.0</ele><time>2026-04-27T18:03:47Z</time></trkpt><trkpt lat="29.769014284286424" lon="-9.67284763678745"><ele>175.0</ele><time>2026-04-27T18:03:48Z</time></trkpt><trkpt lat="29.768795882638898" lon="-9.672979849163294"><ele>175.0</ele><time>2026-04-27T18:03:49Z</time></trkpt><trkpt lat="29.76856805758043" lon="-9.67311668129934"><ele>175.0</ele><time>2026-04-27T18:03:50Z</time></trkpt><trkpt lat="29.768342612459804" lon="-9.673262835125806"><ele>175.0</ele><time>2026-04-27T18:03:51Z</time></trkpt><trkpt lat="29.7681247266813" lon="-9.67341054145387"><ele>175.0</ele><time>2026-04-27T18:03:52Z</time></trkpt><trkpt lat="29.767904961618655" lon="-9.673559712525405"><ele>173.5</ele><time>2026-04-27T18:03:53Z</time></trkpt><trkpt lat="29.76768958962404" lon="-9.67371289805775"><ele>172.0</ele><time>2026-04-27T18:03:54Z</time></trkpt><trkpt lat="29.767474707856607" lon="-9.673868145453083"><ele>172.0</ele><time>2026-04-27T18:03:55Z</time></trkpt><trkpt lat="29.76725940078887" lon="-9.674025969608046"><ele>172.0</ele><time>2026-04-27T18:03:56Z</time></trkpt><trkpt lat="29.76703938475476" lon="-9.674183511551089"><ele>172.0</ele><time>2026-04-27T18:03:57Z</time></trkpt><trkpt lat="29.766818910694703" lon="-9.67434031961152"><ele>172.0</ele><time>2026-04-27T18:03:58Z</time></trkpt><trkpt lat="29.766596163889282" lon="-9.674496899557614"><ele>171.5</ele><time>2026-04-27T18:03:59Z</time></trkpt><trkpt lat="29.766375572114153" lon="-9.674651374067782"><ele>171.0</ele><time>2026-04-27T18:04:00Z</time></trkpt><trkpt lat="29.766153001255287" lon="-9.67480340992958"><ele>170.5</ele><time>2026-04-27T18:04:01Z</time></trkpt><trkpt lat="29.765928520068844" lon="-9.674954027137549"><ele>170.0</ele><time>2026-04-27T18:04:02Z</time></trkpt><trkpt lat="29.76570380519092" lon="-9.675105105958902"><ele>170.0</ele><time>2026-04-27T18:04:03Z</time></trkpt><trkpt lat="29.765480191218778" lon="-9.675257832422721"><ele>170.0</ele><time>2026-04-27T18:04:04Z</time></trkpt><trkpt lat="29.765258238453487" lon="-9.67540886721791"><ele>170.0</ele><time>2026-04-27T18:04:05Z</time></trkpt><trkpt lat="29.76504821248126" lon="-9.675553373353035"><ele>170.0</ele><time>2026-04-27T18:04:06Z</time></trkpt><trkpt lat="29.76485431872606" lon="-9.67568517703245"><ele>170.0</ele><time>2026-04-27T18:04:07Z</time></trkpt><trkpt lat="29.764670715276406" lon="-9.675807421230136"><ele>170.0</ele><time>2026-04-27T18:04:08Z</time></trkpt><trkpt lat="29.764499608855477" lon="-9.675920895874352"><ele>170.0</ele><time>2026-04-27T18:04:09Z</time></trkpt><trkpt lat="29.764341747987444" lon="-9.676029949654675"><ele>171.25</ele><time>2026-04-27T18:04:10Z</time></trkpt><trkpt lat="29.76419967557311" lon="-9.676128737657594"><ele>172.5</ele><time>2026-04-27T18:04:11Z</time></trkpt><trkpt lat="29.764072600109042" lon="-9.676218057842481"><ele>173.75</ele><time>2026-04-27T18:04:12Z</time></trkpt><trkpt lat="29.76396315826261" lon="-9.676294178199472"><ele>175.0</ele><time>2026-04-27T18:04:13Z</time></trkpt><trkpt lat="29.763858420582228" lon="-9.676365737949846"><ele>175.0</ele><time>2026-04-27T18:04:14Z</time></trkpt><trkpt lat="29.76376494570602" lon="-9.67643272143081"><ele>175.0</ele><time>2026-04-27T18:04:15Z</time></trkpt><trkpt lat="29.76368008098532" lon="-9.676492499059286"><ele>175.0</ele><time>2026-04-27T18:04:16Z</time></trkpt><trkpt lat="29.763600016615133" lon="-9.676549245443935"><ele>175.0</ele><time>2026-04-27T18:04:17Z</time></trkpt><trkpt lat="29.763522583531724" lon="-9.67661439131647"><ele>175.0</ele><time>2026-04-27T18:04:18Z</time></trkpt><trkpt lat="29.763452874858306" lon="-9.676697622482584"><ele>175.2</ele><time>2026-04-27T18:04:19Z</time></trkpt><trkpt lat="29.763393407800276" lon="-9.676780390506"><ele>175.4</ele><time>2026-04-27T18:04:20Z</time></trkpt><trkpt lat="29.763331835307774" lon="-9.676853800141659"><ele>175.60000000000002</ele><time>2026-04-27T18:04:21Z</time></trkpt><trkpt lat="29.76326464140154" lon="-9.676903175314429"><ele>175.8</ele><time>2026-04-27T18:04:22Z</time></trkpt><trkpt lat="29.763178536849956" lon="-9.676912756017593"><ele>176.0</ele><time>2026-04-27T18:04:23Z</time></trkpt><trkpt lat="29.763076804257956" lon="-9.676923903443782"><ele>176.0</ele><time>2026-04-27T18:04:24Z</time></trkpt><trkpt lat="29.762966906402887" lon="-9.67696749500651"><ele>176.0</ele><time>2026-04-27T18:04:25Z</time></trkpt><trkpt lat="29.762840835887495" lon="-9.677038843935874"><ele>176.0</ele><time>2026-04-27T18:04:26Z</time></trkpt><trkpt lat="29.76270021824147" lon="-9.677125651943909"><ele>176.0</ele><time>2026-04-27T18:04:27Z</time></trkpt><trkpt lat="29.762537570528337" lon="-9.677231712496978"><ele>176.33333333333331</ele><time>2026-04-27T18:04:28Z</time></trkpt><trkpt lat="29.762353659351493" lon="-9.677350324532707"><ele>176.66666666666666</ele><time>2026-04-27T18:04:29Z</time></trkpt><trkpt lat="29.762156022383987" lon="-9.677487073396303"><ele>177.0</ele><time>2026-04-27T18:04:30Z</time></trkpt><trkpt lat="29.76194509172074" lon="-9.677638569418871"><ele>177.5</ele><time>2026-04-27T18:04:31Z</time></trkpt><trkpt lat="29.761721987117568" lon="-9.677793281099113"><ele>178.0</ele><time>2026-04-27T18:04:32Z</time></trkpt><trkpt lat="29.7614837122913" lon="-9.67795508588808"><ele>178.0</ele><time>2026-04-27T18:04:33Z</time></trkpt><trkpt lat="29.76124964678273" lon="-9.678113663974191"><ele>178.0</ele><time>2026-04-27T18:04:34Z</time></trkpt><trkpt lat="29.761023471009512" lon="-9.678267848964493"><ele>179.5</ele><time>2026-04-27T18:04:35Z</time></trkpt><trkpt lat="29.760800925955166" lon="-9.678417300184242"><ele>181.0</ele><time>2026-04-27T18:04:36Z</time></trkpt><trkpt lat="29.76058320391292" lon="-9.678561345395682"><ele>182.0</ele><time>2026-04-27T18:04:37Z</time></trkpt><trkpt lat="29.760372751042233" lon="-9.678702044840485"><ele>183.0</ele><time>2026-04-27T18:04:38Z</time></trkpt><trkpt lat="29.760162821782252" lon="-9.678842375933973"><ele>184.5</ele><time>2026-04-27T18:04:39Z</time></trkpt><trkpt lat="29.759954700493623" lon="-9.678985180863975"><ele>186.0</ele><time>2026-04-27T18:04:40Z</time></trkpt><trkpt lat="29.759747842788148" lon="-9.679126428721787"><ele>186.0</ele><time>2026-04-27T18:04:41Z</time></trkpt><trkpt lat="29.759535654124942" lon="-9.679268884141282"><ele>186.0</ele><time>2026-04-27T18:04:42Z</time></trkpt><trkpt lat="29.759317353154643" lon="-9.67941948873247"><ele>188.5</ele><time>2026-04-27T18:04:43Z</time></trkpt><trkpt lat="29.759090622654163" lon="-9.67957495156152"><ele>191.0</ele><time>2026-04-27T18:04:44Z</time></trkpt><trkpt lat="29.758863424967505" lon="-9.679730826988825"><ele>191.0</ele><time>2026-04-27T18:04:45Z</time></trkpt><trkpt lat="29.758639708378528" lon="-9.67989183481508"><ele>191.0</ele><time>2026-04-27T18:04:46Z</time></trkpt><trkpt lat="29.75842071758968" lon="-9.680052252828034"><ele>191.5</ele><time>2026-04-27T18:04:47Z</time></trkpt><trkpt lat="29.75820118588968" lon="-9.680210868440675"><ele>192.0</ele><time>2026-04-27T18:04:48Z</time></trkpt><trkpt lat="29.75798086646793" lon="-9.680366717840933"><ele>192.0</ele><time>2026-04-27T18:04:49Z</time></trkpt><trkpt lat="29.75776098907178" lon="-9.680519084929514"><ele>192.0</ele><time>2026-04-27T18:04:50Z</time></trkpt><trkpt lat="29.757542482495992" lon="-9.680668844663629"><ele>191.5</ele><time>2026-04-27T18:04:51Z</time></trkpt><trkpt lat="29.757324987653096" lon="-9.680818768136389"><ele>191.0</ele><time>2026-04-27T18:04:52Z</time></trkpt><trkpt lat="29.7571028332859" lon="-9.680971340295141"><ele>191.0</ele><time>2026-04-27T18:04:53Z</time></trkpt><trkpt lat="29.756880627737118" lon="-9.681124764441224"><ele>191.0</ele><time>2026-04-27T18:04:54Z</time></trkpt><trkpt lat="29.756658593472235" lon="-9.681278438036662"><ele>191.0</ele><time>2026-04-27T18:04:55Z</time></trkpt><trkpt lat="29.75643620854382" lon="-9.68143019529362"><ele>191.0</ele><time>2026-04-27T18:04:56Z</time></trkpt><trkpt lat="29.756210368940984" lon="-9.681582023793178"><ele>191.0</ele><time>2026-04-27T18:04:57Z</time></trkpt><trkpt lat="29.755984462555272" lon="-9.681733644423646"><ele>191.0</ele><time>2026-04-27T18:04:58Z</time></trkpt><trkpt lat="29.755759726895793" lon="-9.681886397563565"><ele>191.0</ele><time>2026-04-27T18:04:59Z</time></trkpt><trkpt lat="29.755537512091745" lon="-9.682040540289732"><ele>191.0</ele><time>2026-04-27T18:05:00Z</time></trkpt><trkpt lat="29.755310129555127" lon="-9.682196415133808"><ele>191.5</ele><time>2026-04-27T18:05:01Z</time></trkpt><trkpt lat="29.75508148206134" lon="-9.682351787188628"><ele>192.0</ele><time>2026-04-27T18:05:02Z</time></trkpt><trkpt lat="29.75485336367915" lon="-9.68250638241813"><ele>192.0</ele><time>2026-04-27T18:05:03Z</time></trkpt><trkpt lat="29.754628894427125" lon="-9.682657800862811"><ele>192.0</ele><time>2026-04-27T18:05:04Z</time></trkpt><trkpt lat="29.754405191838234" lon="-9.682806612461517"><ele>190.0</ele><time>2026-04-27T18:05:05Z</time></trkpt><trkpt lat="29.754183159808758" lon="-9.68295744834054"><ele>188.0</ele><time>2026-04-27T18:05:06Z</time></trkpt><trkpt lat="29.753960884273738" lon="-9.683109931704362"><ele>188.0</ele><time>2026-04-27T18:05:07Z</time></trkpt><trkpt lat="29.753737311936984" lon="-9.683263342042109"><ele>188.0</ele><time>2026-04-27T18:05:08Z</time></trkpt><trkpt lat="29.753511251888007" lon="-9.683417746897021"><ele>187.5</ele><time>2026-04-27T18:05:09Z</time></trkpt><trkpt lat="29.753285536076735" lon="-9.683576393701667"><ele>187.0</ele><time>2026-04-27T18:05:10Z</time></trkpt><trkpt lat="29.75305886761013" lon="-9.683733831282495"><ele>187.0</ele><time>2026-04-27T18:05:11Z</time></trkpt><trkpt lat="29.752833035343" lon="-9.68388709320619"><ele>187.0</ele><time>2026-04-27T18:05:12Z</time></trkpt><trkpt lat="29.752605910846967" lon="-9.684040185643282"><ele>188.5</ele><time>2026-04-27T18:05:13Z</time></trkpt><trkpt lat="29.752379684462166" lon="-9.684191348847586"><ele>190.0</ele><time>2026-04-27T18:05:14Z</time></trkpt><trkpt lat="29.75215126626196" lon="-9.684343579716607"><ele>189.5</ele><time>2026-04-27T18:05:15Z</time></trkpt><trkpt lat="29.75192334974538" lon="-9.68449553045476"><ele>189.0</ele><time>2026-04-27T18:05:16Z</time></trkpt><trkpt lat="29.751693953505086" lon="-9.684648256431835"><ele>190.5</ele><time>2026-04-27T18:05:17Z</time></trkpt><trkpt lat="29.751466085002495" lon="-9.68480203360117"><ele>192.0</ele><time>2026-04-27T18:05:18Z</time></trkpt><trkpt lat="29.751237855598216" lon="-9.684953337936955"><ele>192.5</ele><time>2026-04-27T18:05:19Z</time></trkpt><trkpt lat="29.751013527430658" lon="-9.685103034927941"><ele>193.0</ele><time>2026-04-27T18:05:20Z</time></trkpt><trkpt lat="29.750794918169298" lon="-9.685252310332913"><ele>192.0</ele><time>2026-04-27T18:05:21Z</time></trkpt><trkpt lat="29.75057689390371" lon="-9.685400847219341"><ele>191.0</ele><time>2026-04-27T18:05:22Z</time></trkpt><trkpt lat="29.750354966655685" lon="-9.685548642046317"><ele>192.5</ele><time>2026-04-27T18:05:23Z</time></trkpt><trkpt lat="29.750133523887925" lon="-9.685699010897935"><ele>194.0</ele><time>2026-04-27T18:05:24Z</time></trkpt><trkpt lat="29.749917952776784" lon="-9.685847355138089"><ele>194.0</ele><time>2026-04-27T18:05:25Z</time></trkpt><trkpt lat="29.749705616199613" lon="-9.68599079176648"><ele>194.0</ele><time>2026-04-27T18:05:26Z</time></trkpt><trkpt lat="29.749495002959705" lon="-9.686133636874848"><ele>194.5</ele><time>2026-04-27T18:05:27Z</time></trkpt><trkpt lat="29.749284871572208" lon="-9.68627806412337"><ele>195.0</ele><time>2026-04-27T18:05:28Z</time></trkpt><trkpt lat="29.749066059715382" lon="-9.68643178421792"><ele>195.0</ele><time>2026-04-27T18:05:29Z</time></trkpt><trkpt lat="29.74884105842628" lon="-9.686588047682143"><ele>195.0</ele><time>2026-04-27T18:05:30Z</time></trkpt><trkpt lat="29.748614004378318" lon="-9.686743212323075"><ele>195.0</ele><time>2026-04-27T18:05:31Z</time></trkpt><trkpt lat="29.748386695532908" lon="-9.68690004816278"><ele>195.0</ele><time>2026-04-27T18:05:32Z</time></trkpt><trkpt lat="29.748162176335395" lon="-9.687055426214485"><ele>196.0</ele><time>2026-04-27T18:05:33Z</time></trkpt><trkpt lat="29.747940069420647" lon="-9.687210759164333"><ele>197.0</ele><time>2026-04-27T18:05:34Z</time></trkpt><trkpt lat="29.747717579996866" lon="-9.687366641758675"><ele>197.5</ele><time>2026-04-27T18:05:35Z</time></trkpt><trkpt lat="29.747495095470775" lon="-9.687516619137627"><ele>198.0</ele><time>2026-04-27T18:05:36Z</time></trkpt><trkpt lat="29.74726212098495" lon="-9.68766345065025"><ele>197.0</ele><time>2026-04-27T18:05:37Z</time></trkpt><trkpt lat="29.74702031730072" lon="-9.687821187296572"><ele>196.0</ele><time>2026-04-27T18:05:38Z</time></trkpt><trkpt lat="29.746789109466704" lon="-9.68798811433869"><ele>195.5</ele><time>2026-04-27T18:05:39Z</time></trkpt><trkpt lat="29.746567576104855" lon="-9.688153990657522"><ele>195.0</ele><time>2026-04-27T18:05:40Z</time></trkpt><trkpt lat="29.746346672618873" lon="-9.688310685768363"><ele>195.0</ele><time>2026-04-27T18:05:41Z</time></trkpt><trkpt lat="29.74612663841301" lon="-9.68846210476689"><ele>195.0</ele><time>2026-04-27T18:05:42Z</time></trkpt><trkpt lat="29.745902916321924" lon="-9.688614611688603"><ele>196.0</ele><time>2026-04-27T18:05:43Z</time></trkpt><trkpt lat="29.745673053094066" lon="-9.688772210581973"><ele>197.0</ele><time>2026-04-27T18:05:44Z</time></trkpt><trkpt lat="29.745443166820127" lon="-9.68893084090929"><ele>197.0</ele><time>2026-04-27T18:05:45Z</time></trkpt><trkpt lat="29.745214739482456" lon="-9.689088242933257"><ele>197.0</ele><time>2026-04-27T18:05:46Z</time></trkpt><trkpt lat="29.74498263773961" lon="-9.689248678969014"><ele>198.0</ele><time>2026-04-27T18:05:47Z</time></trkpt><trkpt lat="29.74475260870362" lon="-9.689407128530538"><ele>199.0</ele><time>2026-04-27T18:05:48Z</time></trkpt><trkpt lat="29.7445281321681" lon="-9.689558991937217"><ele>199.5</ele><time>2026-04-27T18:05:49Z</time></trkpt><trkpt lat="29.744310364078167" lon="-9.689705968035648"><ele>200.0</ele><time>2026-04-27T18:05:50Z</time></trkpt><trkpt lat="29.74409404240991" lon="-9.68985121519021"><ele>200.0</ele><time>2026-04-27T18:05:51Z</time></trkpt><trkpt lat="29.74387449090951" lon="-9.689999918549415"><ele>200.0</ele><time>2026-04-27T18:05:52Z</time></trkpt><trkpt lat="29.74365103811569" lon="-9.690149321136088"><ele>200.0</ele><time>2026-04-27T18:05:53Z</time></trkpt><trkpt lat="29.74342816151788" lon="-9.690300500569409"><ele>200.0</ele><time>2026-04-27T18:05:54Z</time></trkpt><trkpt lat="29.74320325425497" lon="-9.690453802362052"><ele>200.0</ele><time>2026-04-27T18:05:55Z</time></trkpt><trkpt lat="29.742979804927227" lon="-9.690605698225388"><ele>200.0</ele><time>2026-04-27T18:05:56Z</time></trkpt><trkpt lat="29.742758233735984" lon="-9.690753230377386"><ele>201.0</ele><time>2026-04-27T18:05:57Z</time></trkpt><trkpt lat="29.742536122965298" lon="-9.690901919565642"><ele>202.0</ele><time>2026-04-27T18:05:58Z</time></trkpt><trkpt lat="29.742323010350322" lon="-9.691046037810093"><ele>202.0</ele><time>2026-04-27T18:05:59Z</time></trkpt><trkpt lat="29.7421159933287" lon="-9.691190578264022"><ele>202.0</ele><time>2026-04-27T18:06:00Z</time></trkpt><trkpt lat="29.741915092046412" lon="-9.69133429284085"><ele>201.0</ele><time>2026-04-27T18:06:01Z</time></trkpt><trkpt lat="29.74171523065143" lon="-9.691479237873587"><ele>200.0</ele><time>2026-04-27T18:06:02Z</time></trkpt><trkpt lat="29.74151266778414" lon="-9.69162126018106"><ele>200.0</ele><time>2026-04-27T18:06:03Z</time></trkpt><trkpt lat="29.74130457204501" lon="-9.691764264630287"><ele>200.0</ele><time>2026-04-27T18:06:04Z</time></trkpt><trkpt lat="29.74108573831947" lon="-9.691912908221163"><ele>200.5</ele><time>2026-04-27T18:06:05Z</time></trkpt><trkpt lat="29.740856573038414" lon="-9.69206820282211"><ele>201.0</ele><time>2026-04-27T18:06:06Z</time></trkpt><trkpt lat="29.740618725546902" lon="-9.692230207276442"><ele>201.0</ele><time>2026-04-27T18:06:07Z</time></trkpt><trkpt lat="29.740377097799914" lon="-9.692394731640869"><ele>201.0</ele><time>2026-04-27T18:06:08Z</time></trkpt><trkpt lat="29.74013660121742" lon="-9.692555990665232"><ele>202.0</ele><time>2026-04-27T18:06:09Z</time></trkpt><trkpt lat="29.739892986804048" lon="-9.692719961396572"><ele>203.0</ele><time>2026-04-27T18:06:10Z</time></trkpt><trkpt lat="29.73964644278823" lon="-9.692886352889902"><ele>203.0</ele><time>2026-04-27T18:06:11Z</time></trkpt><trkpt lat="29.739403057728698" lon="-9.693053113972713"><ele>203.0</ele><time>2026-04-27T18:06:12Z</time></trkpt><trkpt lat="29.73916960140499" lon="-9.693212867266235"><ele>203.0</ele><time>2026-04-27T18:06:13Z</time></trkpt><trkpt lat="29.738938812449266" lon="-9.693369779179601"><ele>203.0</ele><time>2026-04-27T18:06:14Z</time></trkpt><trkpt lat="29.738707103887517" lon="-9.69352769513369"><ele>203.0</ele><time>2026-04-27T18:06:15Z</time></trkpt><trkpt lat="29.73847748549828" lon="-9.69368233170402"><ele>203.0</ele><time>2026-04-27T18:06:16Z</time></trkpt><trkpt lat="29.73824926801456" lon="-9.693837845825389"><ele>203.0</ele><time>2026-04-27T18:06:17Z</time></trkpt><trkpt lat="29.73802204382476" lon="-9.693993176833313"><ele>203.0</ele><time>2026-04-27T18:06:18Z</time></trkpt><trkpt lat="29.737794917584523" lon="-9.694148327476627"><ele>203.0</ele><time>2026-04-27T18:06:19Z</time></trkpt><trkpt lat="29.73756336260737" lon="-9.694303288067886"><ele>203.0</ele><time>2026-04-27T18:06:20Z</time></trkpt><trkpt lat="29.737333582919483" lon="-9.694455840072077"><ele>201.5</ele><time>2026-04-27T18:06:21Z</time></trkpt><trkpt lat="29.737098870028177" lon="-9.694611932149176"><ele>200.0</ele><time>2026-04-27T18:06:22Z</time></trkpt><trkpt lat="29.736860801084536" lon="-9.694774166192332"><ele>200.0</ele><time>2026-04-27T18:06:23Z</time></trkpt><trkpt lat="29.736628192936468" lon="-9.694938439339085"><ele>200.0</ele><time>2026-04-27T18:06:24Z</time></trkpt><trkpt lat="29.73639930303897" lon="-9.69510302529857"><ele>199.5</ele><time>2026-04-27T18:06:25Z</time></trkpt><trkpt lat="29.736167575281495" lon="-9.69526855180933"><ele>199.0</ele><time>2026-04-27T18:06:26Z</time></trkpt><trkpt lat="29.735936442359154" lon="-9.695427879321345"><ele>200.0</ele><time>2026-04-27T18:06:27Z</time></trkpt><trkpt lat="29.735708416639735" lon="-9.695583089773306"><ele>201.0</ele><time>2026-04-27T18:06:28Z</time></trkpt><trkpt lat="29.73548386096173" lon="-9.69574009305873"><ele>201.0</ele><time>2026-04-27T18:06:29Z</time></trkpt><trkpt lat="29.735259509880365" lon="-9.69589805864519"><ele>201.0</ele><time>2026-04-27T18:06:30Z</time></trkpt><trkpt lat="29.735038807753206" lon="-9.696052268186932"><ele>201.0</ele><time>2026-04-27T18:06:31Z</time></trkpt><trkpt lat="29.73482096692682" lon="-9.69620151047584"><ele>201.0</ele><time>2026-04-27T18:06:32Z</time></trkpt><trkpt lat="29.73460540824337" lon="-9.696348350025286"><ele>201.0</ele><time>2026-04-27T18:06:33Z</time></trkpt><trkpt lat="29.73438821504667" lon="-9.696495825688828"><ele>201.0</ele><time>2026-04-27T18:06:34Z</time></trkpt><trkpt lat="29.73417012380509" lon="-9.69663984241085"><ele>201.5</ele><time>2026-04-27T18:06:35Z</time></trkpt><trkpt lat="29.733943238730077" lon="-9.696786889137842"><ele>202.0</ele><time>2026-04-27T18:06:36Z</time></trkpt><trkpt lat="29.73370839914797" lon="-9.696939109475595"><ele>203.0</ele><time>2026-04-27T18:06:37Z</time></trkpt><trkpt lat="29.73348122659435" lon="-9.697099323853635"><ele>204.0</ele><time>2026-04-27T18:06:38Z</time></trkpt><trkpt lat="29.73325811761329" lon="-9.697260342849242"><ele>204.0</ele><time>2026-04-27T18:06:39Z</time></trkpt><trkpt lat="29.733033789821803" lon="-9.697417351549653"><ele>204.0</ele><time>2026-04-27T18:06:40Z</time></trkpt><trkpt lat="29.732811304373655" lon="-9.697570925731393"><ele>205.0</ele><time>2026-04-27T18:06:41Z</time></trkpt><trkpt lat="29.732587817793547" lon="-9.697724714080325"><ele>206.0</ele><time>2026-04-27T18:06:42Z</time></trkpt><trkpt lat="29.732363927974163" lon="-9.697879434653279"><ele>206.0</ele><time>2026-04-27T18:06:43Z</time></trkpt><trkpt lat="29.73213554718848" lon="-9.698034370061261"><ele>206.0</ele><time>2026-04-27T18:06:44Z</time></trkpt><trkpt lat="29.73190728477378" lon="-9.698188376098638"><ele>206.0</ele><time>2026-04-27T18:06:45Z</time></trkpt><trkpt lat="29.73167661336053" lon="-9.698345294372238"><ele>206.0</ele><time>2026-04-27T18:06:46Z</time></trkpt><trkpt lat="29.73144416266626" lon="-9.698499651870698"><ele>206.0</ele><time>2026-04-27T18:06:47Z</time></trkpt><trkpt lat="29.73121250608254" lon="-9.698652713970592"><ele>206.0</ele><time>2026-04-27T18:06:48Z</time></trkpt><trkpt lat="29.730980867943543" lon="-9.69880675980011"><ele>206.0</ele><time>2026-04-27T18:06:49Z</time></trkpt><trkpt lat="29.7307485458114" lon="-9.69896413247854"><ele>206.0</ele><time>2026-04-27T18:06:50Z</time></trkpt><trkpt lat="29.730513530442995" lon="-9.699124980014455"><ele>206.0</ele><time>2026-04-27T18:06:51Z</time></trkpt><trkpt lat="29.73027852498354" lon="-9.699288126884625"><ele>206.0</ele><time>2026-04-27T18:06:52Z</time></trkpt><trkpt lat="29.730051306117605" lon="-9.699444910970174"><ele>207.0</ele><time>2026-04-27T18:06:53Z</time></trkpt><trkpt lat="29.729829473698697" lon="-9.699595045354693"><ele>208.0</ele><time>2026-04-27T18:06:54Z</time></trkpt><trkpt lat="29.729611562599867" lon="-9.699743484278104"><ele>208.0</ele><time>2026-04-27T18:06:55Z</time></trkpt><trkpt lat="29.72939488316309" lon="-9.699890230077434"><ele>208.0</ele><time>2026-04-27T18:06:56Z</time></trkpt><trkpt lat="29.72917527150359" lon="-9.700040464116398"><ele>209.5</ele><time>2026-04-27T18:06:57Z</time></trkpt><trkpt lat="29.728954043664647" lon="-9.700191272713754"><ele>211.0</ele><time>2026-04-27T18:06:58Z</time></trkpt><trkpt lat="29.728728735643156" lon="-9.700344157428425"><ele>212.5</ele><time>2026-04-27T18:06:59Z</time></trkpt><trkpt lat="29.72849736087399" lon="-9.700501953865553"><ele>214.0</ele><time>2026-04-27T18:07:00Z</time></trkpt><trkpt lat="29.728263322632277" lon="-9.700658679661746"><ele>214.0</ele><time>2026-04-27T18:07:01Z</time></trkpt><trkpt lat="29.72802986147898" lon="-9.700815218589236"><ele>214.0</ele><time>2026-04-27T18:07:02Z</time></trkpt><trkpt lat="29.727792266548732" lon="-9.70096789481138"><ele>212.5</ele><time>2026-04-27T18:07:03Z</time></trkpt><trkpt lat="29.72755174108161" lon="-9.701120205462061"><ele>211.0</ele><time>2026-04-27T18:07:04Z</time></trkpt><trkpt lat="29.72731532994846" lon="-9.701275874458371"><ele>211.0</ele><time>2026-04-27T18:07:05Z</time></trkpt><trkpt lat="29.727082223844427" lon="-9.701433969697447"><ele>211.0</ele><time>2026-04-27T18:07:06Z</time></trkpt><trkpt lat="29.726851555485784" lon="-9.701590688331528"><ele>212.0</ele><time>2026-04-27T18:07:07Z</time></trkpt><trkpt lat="29.726627621791117" lon="-9.701744548585605"><ele>213.0</ele><time>2026-04-27T18:07:08Z</time></trkpt><trkpt lat="29.72640517184874" lon="-9.701901824004034"><ele>213.0</ele><time>2026-04-27T18:07:09Z</time></trkpt><trkpt lat="29.726182709691074" lon="-9.702064674016684"><ele>213.0</ele><time>2026-04-27T18:07:10Z</time></trkpt><trkpt lat="29.7259596767283" lon="-9.702232803625176"><ele>213.0</ele><time>2026-04-27T18:07:11Z</time></trkpt><trkpt lat="29.72573655804653" lon="-9.702397091894676"><ele>213.0</ele><time>2026-04-27T18:07:12Z</time></trkpt><trkpt lat="29.725510334260434" lon="-9.702558067443723"><ele>213.0</ele><time>2026-04-27T18:07:13Z</time></trkpt><trkpt lat="29.725280113187612" lon="-9.702714498714375"><ele>213.0</ele><time>2026-04-27T18:07:14Z</time></trkpt><trkpt lat="29.725050572055956" lon="-9.702867304395292"><ele>213.5</ele><time>2026-04-27T18:07:15Z</time></trkpt><trkpt lat="29.72482528069128" lon="-9.703020156417706"><ele>214.0</ele><time>2026-04-27T18:07:16Z</time></trkpt><trkpt lat="29.7245975240965" lon="-9.703175726260323"><ele>214.0</ele><time>2026-04-27T18:07:17Z</time></trkpt><trkpt lat="29.72436920787851" lon="-9.703329743076052"><ele>214.0</ele><time>2026-04-27T18:07:18Z</time></trkpt><trkpt lat="29.724141802418007" lon="-9.703482475881069"><ele>213.5</ele><time>2026-04-27T18:07:19Z</time></trkpt><trkpt lat="29.723917153440716" lon="-9.70362846845293"><ele>213.0</ele><time>2026-04-27T18:07:20Z</time></trkpt><trkpt lat="29.723702057595204" lon="-9.703764772990736"><ele>212.66666666666669</ele><time>2026-04-27T18:07:21Z</time></trkpt><trkpt lat="29.723499609382817" lon="-9.703895850920775"><ele>212.33333333333334</ele><time>2026-04-27T18:07:22Z</time></trkpt><trkpt lat="29.723314543223506" lon="-9.704020460702864"><ele>212.0</ele><time>2026-04-27T18:07:23Z</time></trkpt><trkpt lat="29.723139936317207" lon="-9.704141233056161"><ele>212.0</ele><time>2026-04-27T18:07:24Z</time></trkpt><trkpt lat="29.722972815809737" lon="-9.704255448687057"><ele>212.0</ele><time>2026-04-27T18:07:25Z</time></trkpt><trkpt lat="29.72281575861914" lon="-9.704363790536238"><ele>212.0</ele><time>2026-04-27T18:07:26Z</time></trkpt><trkpt lat="29.722666326370142" lon="-9.704465179383062"><ele>211.33333333333334</ele><time>2026-04-27T18:07:27Z</time></trkpt><trkpt lat="29.72252325601527" lon="-9.704561661394061"><ele>210.66666666666669</ele><time>2026-04-27T18:07:28Z</time></trkpt><trkpt lat="29.72238671606783" lon="-9.704652059341411"><ele>210.0</ele><time>2026-04-27T18:07:29Z</time></trkpt><trkpt lat="29.72226496780856" lon="-9.704736551145434"><ele>210.0</ele><time>2026-04-27T18:07:30Z</time></trkpt><trkpt lat="29.72214978839086" lon="-9.7048185878678"><ele>210.0</ele><time>2026-04-27T18:07:31Z</time></trkpt><trkpt lat="29.722043510748136" lon="-9.704908197388002"><ele>210.0</ele><time>2026-04-27T18:07:32Z</time></trkpt><trkpt lat="29.721950035542072" lon="-9.705006412101302"><ele>210.0</ele><time>2026-04-27T18:07:33Z</time></trkpt><trkpt lat="29.721865560738983" lon="-9.70510969448135"><ele>210.0</ele><time>2026-04-27T18:07:34Z</time></trkpt><trkpt lat="29.721777887959636" lon="-9.705194458118381"><ele>210.0</ele><time>2026-04-27T18:07:35Z</time></trkpt><trkpt lat="29.721656200003956" lon="-9.705254153208934"><ele>210.0</ele><time>2026-04-27T18:07:36Z</time></trkpt><trkpt lat="29.72149754802163" lon="-9.705315539638196"><ele>210.0</ele><time>2026-04-27T18:07:37Z</time></trkpt><trkpt lat="29.721318566000058" lon="-9.705407940817754"><ele>210.0</ele><time>2026-04-27T18:07:38Z</time></trkpt><trkpt lat="29.721138303018105" lon="-9.705525313296885"><ele>210.0</ele><time>2026-04-27T18:07:39Z</time></trkpt><trkpt lat="29.72095513075892" lon="-9.705648486209302"><ele>210.0</ele><time>2026-04-27T18:07:40Z</time></trkpt><trkpt lat="29.720749602940238" lon="-9.705788431531802"><ele>210.0</ele><time>2026-04-27T18:07:41Z</time></trkpt><trkpt lat="29.72053201421886" lon="-9.705937206611521"><ele>210.0</ele><time>2026-04-27T18:07:42Z</time></trkpt><trkpt lat="29.72032380342205" lon="-9.706081123575796"><ele>211.5</ele><time>2026-04-27T18:07:43Z</time></trkpt><trkpt lat="29.72010080248415" lon="-9.706229544183051"><ele>213.0</ele><time>2026-04-27T18:07:44Z</time></trkpt><trkpt lat="29.719864427868195" lon="-9.706381664038759"><ele>213.0</ele><time>2026-04-27T18:07:45Z</time></trkpt><trkpt lat="29.719629519870765" lon="-9.706535010976344"><ele>213.0</ele><time>2026-04-27T18:07:46Z</time></trkpt><trkpt lat="29.719401884285496" lon="-9.706685836902464"><ele>213.5</ele><time>2026-04-27T18:07:47Z</time></trkpt><trkpt lat="29.719179517568342" lon="-9.706834953642893"><ele>214.0</ele><time>2026-04-27T18:07:48Z</time></trkpt><trkpt lat="29.718969364575454" lon="-9.706984115549005"><ele>215.5</ele><time>2026-04-27T18:07:49Z</time></trkpt><trkpt lat="29.718764933960514" lon="-9.707133348730444"><ele>217.0</ele><time>2026-04-27T18:07:50Z</time></trkpt><trkpt lat="29.71856024665984" lon="-9.707280522470013"><ele>218.5</ele><time>2026-04-27T18:07:51Z</time></trkpt><trkpt lat="29.71835172187686" lon="-9.707423357992981"><ele>220.0</ele><time>2026-04-27T18:07:52Z</time></trkpt><trkpt lat="29.71814090967929" lon="-9.707567139205459"><ele>220.0</ele><time>2026-04-27T18:07:53Z</time></trkpt><trkpt lat="29.717928126201034" lon="-9.707712492878475"><ele>220.0</ele><time>2026-04-27T18:07:54Z</time></trkpt><trkpt lat="29.71771617061261" lon="-9.707859397074811"><ele>221.5</ele><time>2026-04-27T18:07:55Z</time></trkpt><trkpt lat="29.7175039857364" lon="-9.708003735562778"><ele>223.0</ele><time>2026-04-27T18:07:56Z</time></trkpt><trkpt lat="29.71729262068054" lon="-9.70814691671314"><ele>223.0</ele><time>2026-04-27T18:07:57Z</time></trkpt><trkpt lat="29.717084762949344" lon="-9.7082899067288"><ele>223.0</ele><time>2026-04-27T18:07:58Z</time></trkpt><trkpt lat="29.716873057719287" lon="-9.708433664443875"><ele>223.5</ele><time>2026-04-27T18:07:59Z</time></trkpt><trkpt lat="29.716663064029756" lon="-9.708579711256318"><ele>224.0</ele><time>2026-04-27T18:08:00Z</time></trkpt><trkpt lat="29.716451673815886" lon="-9.708725591794824"><ele>224.0</ele><time>2026-04-27T18:08:01Z</time></trkpt><trkpt lat="29.7162347680822" lon="-9.708873076215726"><ele>224.0</ele><time>2026-04-27T18:08:02Z</time></trkpt><trkpt lat="29.71601374972044" lon="-9.70902236673059"><ele>226.0</ele><time>2026-04-27T18:08:03Z</time></trkpt><trkpt lat="29.715791668135942" lon="-9.709170544052729"><ele>228.0</ele><time>2026-04-27T18:08:04Z</time></trkpt><trkpt lat="29.715568921392205" lon="-9.70931841374965"><ele>227.5</ele><time>2026-04-27T18:08:05Z</time></trkpt><trkpt lat="29.715345960803994" lon="-9.709468349567583"><ele>227.0</ele><time>2026-04-27T18:08:06Z</time></trkpt><trkpt lat="29.71512301902458" lon="-9.709617952312952"><ele>227.0</ele><time>2026-04-27T18:08:07Z</time></trkpt><trkpt lat="29.71489763137653" lon="-9.709769882162794"><ele>227.0</ele><time>2026-04-27T18:08:08Z</time></trkpt><trkpt lat="29.714673619084113" lon="-9.709922684980212"><ele>227.0</ele><time>2026-04-27T18:08:09Z</time></trkpt><trkpt lat="29.714450726666993" lon="-9.710072830555655"><ele>227.0</ele><time>2026-04-27T18:08:10Z</time></trkpt><trkpt lat="29.714226505989224" lon="-9.710220489093397"><ele>227.5</ele><time>2026-04-27T18:08:11Z</time></trkpt><trkpt lat="29.714002119033545" lon="-9.710369395976354"><ele>228.0</ele><time>2026-04-27T18:08:12Z</time></trkpt><trkpt lat="29.713777632020637" lon="-9.710520068554828"><ele>229.0</ele><time>2026-04-27T18:08:13Z</time></trkpt><trkpt lat="29.71355121720322" lon="-9.710673238616852"><ele>230.0</ele><time>2026-04-27T18:08:14Z</time></trkpt><trkpt lat="29.713325299107513" lon="-9.710830980364237"><ele>230.0</ele><time>2026-04-27T18:08:15Z</time></trkpt><trkpt lat="29.713105907458118" lon="-9.71098348778268"><ele>230.0</ele><time>2026-04-27T18:08:16Z</time></trkpt><trkpt lat="29.712889644409533" lon="-9.711130208272332"><ele>229.5</ele><time>2026-04-27T18:08:17Z</time></trkpt><trkpt lat="29.712675753806163" lon="-9.711273130543882"><ele>229.0</ele><time>2026-04-27T18:08:18Z</time></trkpt><trkpt lat="29.712461941226607" lon="-9.711419476820394"><ele>229.0</ele><time>2026-04-27T18:08:19Z</time></trkpt><trkpt lat="29.71225270241074" lon="-9.71156773651596"><ele>229.0</ele><time>2026-04-27T18:08:20Z</time></trkpt><trkpt lat="29.712045234856387" lon="-9.711716127353954"><ele>229.0</ele><time>2026-04-27T18:08:21Z</time></trkpt><trkpt lat="29.71183560747405" lon="-9.711864749808244"><ele>229.0</ele><time>2026-04-27T18:08:22Z</time></trkpt><trkpt lat="29.711621165320302" lon="-9.712014422599083"><ele>229.0</ele><time>2026-04-27T18:08:23Z</time></trkpt><trkpt lat="29.71140891278981" lon="-9.712161031189039"><ele>229.0</ele><time>2026-04-27T18:08:24Z</time></trkpt><trkpt lat="29.711197861502633" lon="-9.712310157995532"><ele>231.0</ele><time>2026-04-27T18:08:25Z</time></trkpt><trkpt lat="29.710986992062036" lon="-9.71245890259592"><ele>233.0</ele><time>2026-04-27T18:08:26Z</time></trkpt><trkpt lat="29.71077556276696" lon="-9.71260894503995"><ele>231.5</ele><time>2026-04-27T18:08:27Z</time></trkpt><trkpt lat="29.71056444234072" lon="-9.712752184873386"><ele>230.0</ele><time>2026-04-27T18:08:28Z</time></trkpt><trkpt lat="29.710356081361645" lon="-9.712896952315635"><ele>231.5</ele><time>2026-04-27T18:08:29Z</time></trkpt><trkpt lat="29.71014649770679" lon="-9.713043244831583"><ele>233.0</ele><time>2026-04-27T18:08:30Z</time></trkpt><trkpt lat="29.709938494805296" lon="-9.713186768386317"><ele>233.0</ele><time>2026-04-27T18:08:31Z</time></trkpt><trkpt lat="29.709732188312092" lon="-9.713330315978233"><ele>233.0</ele><time>2026-04-27T18:08:32Z</time></trkpt><trkpt lat="29.709523929867565" lon="-9.713471579669594"><ele>233.5</ele><time>2026-04-27T18:08:33Z</time></trkpt><trkpt lat="29.70930864253955" lon="-9.71361543768972"><ele>234.0</ele><time>2026-04-27T18:08:34Z</time></trkpt><trkpt lat="29.70909082421572" lon="-9.713761523419596"><ele>234.0</ele><time>2026-04-27T18:08:35Z</time></trkpt><trkpt lat="29.70887737643573" lon="-9.713908648322061"><ele>234.0</ele><time>2026-04-27T18:08:36Z</time></trkpt><trkpt lat="29.70866534990464" lon="-9.714049892334923"><ele>234.5</ele><time>2026-04-27T18:08:37Z</time></trkpt><trkpt lat="29.708457585913553" lon="-9.714185299601343"><ele>235.0</ele><time>2026-04-27T18:08:38Z</time></trkpt><trkpt lat="29.70825426082637" lon="-9.714314399446286"><ele>234.33333333333331</ele><time>2026-04-27T18:08:39Z</time></trkpt><trkpt lat="29.708063079321498" lon="-9.714440973822205"><ele>233.66666666666669</ele><time>2026-04-27T18:08:40Z</time></trkpt><trkpt lat="29.707884431229484" lon="-9.714561282086597"><ele>233.0</ele><time>2026-04-27T18:08:41Z</time></trkpt><trkpt lat="29.70771300041776" lon="-9.714678852751037"><ele>233.0</ele><time>2026-04-27T18:08:42Z</time></trkpt><trkpt lat="29.707544259835956" lon="-9.71479420514921"><ele>233.0</ele><time>2026-04-27T18:08:43Z</time></trkpt><trkpt lat="29.70737289944592" lon="-9.714913502796563"><ele>233.0</ele><time>2026-04-27T18:08:44Z</time></trkpt><trkpt lat="29.7072142548697" lon="-9.715026684282522"><ele>233.0</ele><time>2026-04-27T18:08:45Z</time></trkpt><trkpt lat="29.707060274530342" lon="-9.715130572207944"><ele>233.0</ele><time>2026-04-27T18:08:46Z</time></trkpt><trkpt lat="29.70690862826007" lon="-9.71523508357525"><ele>233.0</ele><time>2026-04-27T18:08:47Z</time></trkpt><trkpt lat="29.706770809694447" lon="-9.71533485735319"><ele>232.0</ele><time>2026-04-27T18:08:48Z</time></trkpt><trkpt lat="29.706636838500657" lon="-9.715438849555195"><ele>231.0</ele><time>2026-04-27T18:08:49Z</time></trkpt><trkpt lat="29.706515718569584" lon="-9.715540165403219"><ele>230.0</ele><time>2026-04-27T18:08:50Z</time></trkpt><trkpt lat="29.706404436697213" lon="-9.715640714733691"><ele>230.0</ele><time>2026-04-27T18:08:51Z</time></trkpt><trkpt lat="29.70629717196105" lon="-9.715740251230075"><ele>230.0</ele><time>2026-04-27T18:08:52Z</time></trkpt><trkpt lat="29.70619109600576" lon="-9.715831779140736"><ele>230.0</ele><time>2026-04-27T18:08:53Z</time></trkpt><trkpt lat="29.70607761779344" lon="-9.715899396833157"><ele>230.0</ele><time>2026-04-27T18:08:54Z</time></trkpt><trkpt lat="29.70594608214602" lon="-9.715931378967571"><ele>230.0</ele><time>2026-04-27T18:08:55Z</time></trkpt><trkpt lat="29.70581025806945" lon="-9.715980367186532"><ele>230.0</ele><time>2026-04-27T18:08:56Z</time></trkpt><trkpt lat="29.705659220600616" lon="-9.716058706152022"><ele>230.0</ele><time>2026-04-27T18:08:57Z</time></trkpt><trkpt lat="29.705510643358533" lon="-9.71615927139036"><ele>230.0</ele><time>2026-04-27T18:08:58Z</time></trkpt><trkpt lat="29.705348314201355" lon="-9.716268748710252"><ele>230.0</ele><time>2026-04-27T18:08:59Z</time></trkpt><trkpt lat="29.70517753123589" lon="-9.71638295867086"><ele>230.0</ele><time>2026-04-27T18:09:00Z</time></trkpt><trkpt lat="29.705009180883113" lon="-9.716493806578214"><ele>230.33333333333334</ele><time>2026-04-27T18:09:01Z</time></trkpt><trkpt lat="29.704836907424905" lon="-9.71660980284809"><ele>230.66666666666669</ele><time>2026-04-27T18:09:02Z</time></trkpt><trkpt lat="29.70466240360239" lon="-9.716726523814959"><ele>231.0</ele><time>2026-04-27T18:09:03Z</time></trkpt><trkpt lat="29.70448374288408" lon="-9.716847850129225"><ele>231.0</ele><time>2026-04-27T18:09:04Z</time></trkpt><trkpt lat="29.70429979401213" lon="-9.716971424908303"><ele>231.0</ele><time>2026-04-27T18:09:05Z</time></trkpt><trkpt lat="29.70411384836543" lon="-9.7170990925716"><ele>231.0</ele><time>2026-04-27T18:09:06Z</time></trkpt><trkpt lat="29.703921605708803" lon="-9.717231397874166"><ele>231.0</ele><time>2026-04-27T18:09:07Z</time></trkpt><trkpt lat="29.703727123407884" lon="-9.71736513744928"><ele>231.0</ele><time>2026-04-27T18:09:08Z</time></trkpt><trkpt lat="29.703537694043966" lon="-9.717493385244037"><ele>231.0</ele><time>2026-04-27T18:09:09Z</time></trkpt><trkpt lat="29.7033632404412" lon="-9.71761204079842"><ele>232.33333333333331</ele><time>2026-04-27T18:09:10Z</time></trkpt><trkpt lat="29.70320059888067" lon="-9.717723811374613"><ele>233.66666666666666</ele><time>2026-04-27T18:09:11Z</time></trkpt><trkpt lat="29.703049244508726" lon="-9.717830669795017"><ele>235.0</ele><time>2026-04-27T18:09:12Z</time></trkpt><trkpt lat="29.70290170382465" lon="-9.71793131194923"><ele>235.0</ele><time>2026-04-27T18:09:13Z</time></trkpt><trkpt lat="29.702751342088295" lon="-9.718033424405405"><ele>235.0</ele><time>2026-04-27T18:09:14Z</time></trkpt><trkpt lat="29.702602012077005" lon="-9.718131792729995"><ele>235.0</ele><time>2026-04-27T18:09:15Z</time></trkpt><trkpt lat="29.702454347999065" lon="-9.718230380568137"><ele>235.0</ele><time>2026-04-27T18:09:16Z</time></trkpt><trkpt lat="29.702324288501902" lon="-9.71831901227731"><ele>235.0</ele><time>2026-04-27T18:09:17Z</time></trkpt><trkpt lat="29.702204598091875" lon="-9.71839720695016"><ele>235.0</ele><time>2026-04-27T18:09:18Z</time></trkpt><trkpt lat="29.70209994875956" lon="-9.718464464229928"><ele>235.0</ele><time>2026-04-27T18:09:19Z</time></trkpt><trkpt lat="29.70201223682379" lon="-9.718526150434329"><ele>235.33333333333331</ele><time>2026-04-27T18:09:20Z</time></trkpt><trkpt lat="29.70193568505441" lon="-9.718580348082908"><ele>235.66666666666666</ele><time>2026-04-27T18:09:21Z</time></trkpt><trkpt lat="29.701865816512772" lon="-9.718626834027686"><ele>236.0</ele><time>2026-04-27T18:09:22Z</time></trkpt><trkpt lat="29.70180442781377" lon="-9.718670179549287"><ele>236.33333333333331</ele><time>2026-04-27T18:09:23Z</time></trkpt><trkpt lat="29.70174640586529" lon="-9.718709028181472"><ele>236.66666666666666</ele><time>2026-04-27T18:09:24Z</time></trkpt><trkpt lat="29.701684266587602" lon="-9.718752281548987"><ele>237.0</ele><time>2026-04-27T18:09:25Z</time></trkpt><trkpt lat="29.70161496861663" lon="-9.718798675518682"><ele>237.5</ele><time>2026-04-27T18:09:26Z</time></trkpt><trkpt lat="29.701539811614783" lon="-9.718849811601833"><ele>238.0</ele><time>2026-04-27T18:09:27Z</time></trkpt><trkpt lat="29.70145806005213" lon="-9.718899373291327"><ele>238.5</ele><time>2026-04-27T18:09:28Z</time></trkpt><trkpt lat="29.701382238751574" lon="-9.718949125151523"><ele>239.0</ele><time>2026-04-27T18:09:29Z</time></trkpt><trkpt lat="29.701313226546798" lon="-9.718996978229574"><ele>239.5</ele><time>2026-04-27T18:09:30Z</time></trkpt><trkpt lat="29.701249665081132" lon="-9.719046180073304"><ele>240.0</ele><time>2026-04-27T18:09:31Z</time></trkpt><trkpt lat="29.701190187511955" lon="-9.71908777304923"><ele>240.0</ele><time>2026-04-27T18:09:32Z</time></trkpt><trkpt lat="29.70112787509511" lon="-9.719131684822573"><ele>240.0</ele><time>2026-04-27T18:09:33Z</time></trkpt><trkpt lat="29.701068736571457" lon="-9.719174044373696"><ele>240.0</ele><time>2026-04-27T18:09:34Z</time></trkpt><trkpt lat="29.700964249494362" lon="-9.719240954664253"><ele>240.0</ele><time>2026-04-27T18:09:36Z</time></trkpt><trkpt lat="29.700874865860413" lon="-9.719301542555657"><ele>240.0</ele><time>2026-04-27T18:09:38Z</time></trkpt><trkpt lat="29.70079386966199" lon="-9.719359615317833"><ele>239.66666666666666</ele><time>2026-04-27T18:09:40Z</time></trkpt><trkpt lat="29.700708373114647" lon="-9.719415717961112"><ele>239.33333333333331</ele><time>2026-04-27T18:09:42Z</time></trkpt><trkpt lat="29.700635474089534" lon="-9.719459288723792"><ele>239.0</ele><time>2026-04-27T18:09:44Z</time></trkpt><trkpt lat="29.700571524167067" lon="-9.71950565072783"><ele>238.66666666666666</ele><time>2026-04-27T18:09:46Z</time></trkpt><trkpt lat="29.70051322043343" lon="-9.719547801662202"><ele>238.33333333333331</ele><time>2026-04-27T18:09:48Z</time></trkpt><trkpt lat="29.70045367229728" lon="-9.719592616358147"><ele>238.0</ele><time>2026-04-27T18:09:50Z</time></trkpt><trkpt lat="29.70036280529145" lon="-9.719655137064915"><ele>237.99999999999997</ele><time>2026-04-27T18:09:52Z</time></trkpt><trkpt lat="29.700262280292268" lon="-9.719722623263287"><ele>238.0</ele><time>2026-04-27T18:09:54Z</time></trkpt><trkpt lat="29.70020001678663" lon="-9.71976114302886"><ele>238.0</ele><time>2026-04-27T18:09:55Z</time></trkpt><trkpt lat="29.700131957489543" lon="-9.719803894641924"><ele>238.0</ele><time>2026-04-27T18:09:56Z</time></trkpt><trkpt lat="29.70006209730867" lon="-9.719850601585515"><ele>237.99999999999997</ele><time>2026-04-27T18:09:57Z</time></trkpt><trkpt lat="29.6999988814714" lon="-9.719894595699563"><ele>238.0</ele><time>2026-04-27T18:09:58Z</time></trkpt><trkpt lat="29.69994332128143" lon="-9.719930130550237"><ele>238.66666666666666</ele><time>2026-04-27T18:09:59Z</time></trkpt><trkpt lat="29.69988118025934" lon="-9.719973216249617"><ele>239.33333333333331</ele><time>2026-04-27T18:10:00Z</time></trkpt><trkpt lat="29.699819569446408" lon="-9.720021234597535"><ele>240.0</ele><time>2026-04-27T18:10:01Z</time></trkpt><trkpt lat="29.699754631273102" lon="-9.720064914571735"><ele>240.66666666666669</ele><time>2026-04-27T18:10:02Z</time></trkpt><trkpt lat="29.699687653432505" lon="-9.720113575251895"><ele>241.33333333333334</ele><time>2026-04-27T18:10:03Z</time></trkpt><trkpt lat="29.699618891520885" lon="-9.720162701382362"><ele>242.0</ele><time>2026-04-27T18:10:04Z</time></trkpt><trkpt lat="29.69954598496388" lon="-9.7202137992356"><ele>241.25</ele><time>2026-04-27T18:10:05Z</time></trkpt><trkpt lat="29.699458731136346" lon="-9.720275173301177"><ele>240.5</ele><time>2026-04-27T18:10:06Z</time></trkpt><trkpt lat="29.69935435113398" lon="-9.720346127812956"><ele>239.75</ele><time>2026-04-27T18:10:07Z</time></trkpt><trkpt lat="29.699242025674355" lon="-9.720426679368405"><ele>239.0</ele><time>2026-04-27T18:10:08Z</time></trkpt><trkpt lat="29.699124480320904" lon="-9.720507745288925"><ele>239.0</ele><time>2026-04-27T18:10:09Z</time></trkpt><trkpt lat="29.69900428194122" lon="-9.72059125933569"><ele>239.0</ele><time>2026-04-27T18:10:10Z</time></trkpt><trkpt lat="29.69888287443958" lon="-9.720676178915097"><ele>239.0</ele><time>2026-04-27T18:10:11Z</time></trkpt><trkpt lat="29.698748836057394" lon="-9.720761920329824"><ele>239.0</ele><time>2026-04-27T18:10:12Z</time></trkpt><trkpt lat="29.698603910629988" lon="-9.72084914994756"><ele>239.66666666666669</ele><time>2026-04-27T18:10:13Z</time></trkpt><trkpt lat="29.698459261884054" lon="-9.720938074725828"><ele>240.33333333333331</ele><time>2026-04-27T18:10:14Z</time></trkpt><trkpt lat="29.69830808594156" lon="-9.721035536955457"><ele>241.0</ele><time>2026-04-27T18:10:15Z</time></trkpt><trkpt lat="29.69816239725175" lon="-9.72113582659268"><ele>241.0</ele><time>2026-04-27T18:10:16Z</time></trkpt><trkpt lat="29.698030962782266" lon="-9.72122647890083"><ele>241.0</ele><time>2026-04-27T18:10:17Z</time></trkpt><trkpt lat="29.697912322188458" lon="-9.72130974231114"><ele>241.0</ele><time>2026-04-27T18:10:18Z</time></trkpt><trkpt lat="29.69780184791234" lon="-9.721385981999413"><ele>241.0</ele><time>2026-04-27T18:10:19Z</time></trkpt><trkpt lat="29.697693189446767" lon="-9.721457846722975"><ele>241.5</ele><time>2026-04-27T18:10:20Z</time></trkpt><trkpt lat="29.69757659686743" lon="-9.721533874814705"><ele>242.0</ele><time>2026-04-27T18:10:21Z</time></trkpt><trkpt lat="29.697455165540866" lon="-9.72161342542371"><ele>242.5</ele><time>2026-04-27T18:10:22Z</time></trkpt><trkpt lat="29.697337938180468" lon="-9.721691783925761"><ele>243.0</ele><time>2026-04-27T18:10:23Z</time></trkpt><trkpt lat="29.697217166361302" lon="-9.721771223046638"><ele>243.0</ele><time>2026-04-27T18:10:24Z</time></trkpt><trkpt lat="29.697103890065662" lon="-9.72184574787768"><ele>243.0</ele><time>2026-04-27T18:10:25Z</time></trkpt><trkpt lat="29.69699583086347" lon="-9.721919693112243"><ele>243.0</ele><time>2026-04-27T18:10:26Z</time></trkpt><trkpt lat="29.69689553563389" lon="-9.721984491469549"><ele>243.0</ele><time>2026-04-27T18:10:27Z</time></trkpt><trkpt lat="29.696800329401203" lon="-9.722053520943504"><ele>243.25</ele><time>2026-04-27T18:10:28Z</time></trkpt><trkpt lat="29.696696438379362" lon="-9.722125406120913"><ele>243.5</ele><time>2026-04-27T18:10:29Z</time></trkpt><trkpt lat="29.696589730335578" lon="-9.722194422922096"><ele>243.75</ele><time>2026-04-27T18:10:30Z</time></trkpt><trkpt lat="29.696493870466092" lon="-9.722260437415247"><ele>244.0</ele><time>2026-04-27T18:10:31Z</time></trkpt><trkpt lat="29.69640562112389" lon="-9.722323807785783"><ele>244.0</ele><time>2026-04-27T18:10:32Z</time></trkpt><trkpt lat="29.696308393112943" lon="-9.722390036221185"><ele>244.0</ele><time>2026-04-27T18:10:33Z</time></trkpt><trkpt lat="29.69620635012824" lon="-9.722458300720579"><ele>244.0</ele><time>2026-04-27T18:10:34Z</time></trkpt><trkpt lat="29.69610393014743" lon="-9.72252555069259"><ele>244.0</ele><time>2026-04-27T18:10:35Z</time></trkpt><trkpt lat="29.695996378744553" lon="-9.72259411253396"><ele>244.0</ele><time>2026-04-27T18:10:36Z</time></trkpt><trkpt lat="29.695885168598778" lon="-9.722669343646348"><ele>244.0</ele><time>2026-04-27T18:10:37Z</time></trkpt><trkpt lat="29.695766722589735" lon="-9.722747710675922"><ele>244.0</ele><time>2026-04-27T18:10:38Z</time></trkpt><trkpt lat="29.695645160405835" lon="-9.722829389294251"><ele>244.0</ele><time>2026-04-27T18:10:39Z</time></trkpt><trkpt lat="29.695523569320265" lon="-9.722918573958076"><ele>244.5</ele><time>2026-04-27T18:10:40Z</time></trkpt><trkpt lat="29.695399128268555" lon="-9.723010351084374"><ele>245.0</ele><time>2026-04-27T18:10:41Z</time></trkpt><trkpt lat="29.6952723038088" lon="-9.723102921681162"><ele>245.5</ele><time>2026-04-27T18:10:42Z</time></trkpt><trkpt lat="29.695141880228267" lon="-9.723191603595135"><ele>246.0</ele><time>2026-04-27T18:10:43Z</time></trkpt><trkpt lat="29.695009013942478" lon="-9.723278146900382"><ele>246.0</ele><time>2026-04-27T18:10:44Z</time></trkpt><trkpt lat="29.6948692604607" lon="-9.72336889844465"><ele>246.0</ele><time>2026-04-27T18:10:45Z</time></trkpt><trkpt lat="29.694733496762932" lon="-9.723461317256474"><ele>246.0</ele><time>2026-04-27T18:10:46Z</time></trkpt><trkpt lat="29.694597822257602" lon="-9.723554364979863"><ele>245.0</ele><time>2026-04-27T18:10:47Z</time></trkpt><trkpt lat="29.69445728130569" lon="-9.723646847307228"><ele>244.0</ele><time>2026-04-27T18:10:48Z</time></trkpt><trkpt lat="29.694316963821848" lon="-9.723740825330378"><ele>243.0</ele><time>2026-04-27T18:10:49Z</time></trkpt><trkpt lat="29.694177972379272" lon="-9.723834820327298"><ele>243.0</ele><time>2026-04-27T18:10:50Z</time></trkpt><trkpt lat="29.69404393741326" lon="-9.723927320445073"><ele>243.0</ele><time>2026-04-27T18:10:51Z</time></trkpt><trkpt lat="29.693919890599208" lon="-9.724010970321242"><ele>243.0</ele><time>2026-04-27T18:10:52Z</time></trkpt><trkpt lat="29.69380231002417" lon="-9.724089222741705"><ele>243.0</ele><time>2026-04-27T18:10:53Z</time></trkpt><trkpt lat="29.69369234715228" lon="-9.724162769368867"><ele>243.25</ele><time>2026-04-27T18:10:54Z</time></trkpt><trkpt lat="29.693587941580184" lon="-9.724232380421952"><ele>243.5</ele><time>2026-04-27T18:10:55Z</time></trkpt><trkpt lat="29.69348748330788" lon="-9.724300186976706"><ele>243.75</ele><time>2026-04-27T18:10:56Z</time></trkpt><trkpt lat="29.693393836217325" lon="-9.724362586584322"><ele>244.0</ele><time>2026-04-27T18:10:57Z</time></trkpt><trkpt lat="29.693302723865305" lon="-9.724420980870946"><ele>244.0</ele><time>2026-04-27T18:10:58Z</time></trkpt><trkpt lat="29.693217707960496" lon="-9.724479274262848"><ele>243.99999999999997</ele><time>2026-04-27T18:10:59Z</time></trkpt><trkpt lat="29.693139123395458" lon="-9.724532179955126"><ele>243.99999999999997</ele><time>2026-04-27T18:11:00Z</time></trkpt><trkpt lat="29.693058058479025" lon="-9.724593009971853"><ele>244.0</ele><time>2026-04-27T18:11:01Z</time></trkpt><trkpt lat="29.692979008788264" lon="-9.724657822909974"><ele>244.0</ele><time>2026-04-27T18:11:02Z</time></trkpt><trkpt lat="29.692915730669213" lon="-9.724715208469998"><ele>243.99999999999997</ele><time>2026-04-27T18:11:03Z</time></trkpt><trkpt lat="29.69286188992168" lon="-9.724772008904381"><ele>244.0</ele><time>2026-04-27T18:11:04Z</time></trkpt><trkpt lat="29.69281665830552" lon="-9.72489534108224"><ele>244.0</ele><time>2026-04-27T18:11:06Z</time></trkpt><trkpt lat="29.692815718425614" lon="-9.72497992333466"><ele>244.0</ele><time>2026-04-27T18:11:07Z</time></trkpt><trkpt lat="29.692826497227923" lon="-9.725066212364412"><ele>243.99999999999997</ele><time>2026-04-27T18:11:08Z</time></trkpt><trkpt lat="29.69285168352562" lon="-9.725134558072504"><ele>244.0</ele><time>2026-04-27T18:11:09Z</time></trkpt><trkpt lat="29.692887509112033" lon="-9.725194736165218"><ele>243.99999999999997</ele><time>2026-04-27T18:11:10Z</time></trkpt><trkpt lat="29.69297299053767" lon="-9.725294774303146"><ele>244.0</ele><time>2026-04-27T18:11:12Z</time></trkpt><trkpt lat="29.693031610208884" lon="-9.725353384031068"><ele>244.0</ele><time>2026-04-27T18:11:13Z</time></trkpt><trkpt lat="29.69309842848718" lon="-9.72541909175324"><ele>244.0</ele><time>2026-04-27T18:11:14Z</time></trkpt><trkpt lat="29.69316318751374" lon="-9.725476858171191"><ele>243.99999999999997</ele><time>2026-04-27T18:11:15Z</time></trkpt><trkpt lat="29.693216164515544" lon="-9.725529602335172"><ele>244.0</ele><time>2026-04-27T18:11:16Z</time></trkpt><trkpt lat="29.693265403321185" lon="-9.725578353855408"><ele>243.99999999999997</ele><time>2026-04-27T18:11:17Z</time></trkpt><trkpt lat="29.69331758518732" lon="-9.725632667377775"><ele>244.0</ele><time>2026-04-27T18:11:18Z</time></trkpt><trkpt lat="29.693376405998436" lon="-9.72569267871713"><ele>244.0</ele><time>2026-04-27T18:11:19Z</time></trkpt><trkpt lat="29.693441411174092" lon="-9.725757724943414"><ele>244.0</ele><time>2026-04-27T18:11:20Z</time></trkpt><trkpt lat="29.693505268272563" lon="-9.725821345776394"><ele>243.99999999999997</ele><time>2026-04-27T18:11:21Z</time></trkpt><trkpt lat="29.693566939958824" lon="-9.725883137014653"><ele>244.0</ele><time>2026-04-27T18:11:22Z</time></trkpt><trkpt lat="29.69362091659511" lon="-9.72593968971937"><ele>243.71428571428567</ele><time>2026-04-27T18:11:23Z</time></trkpt><trkpt lat="29.693671845222106" lon="-9.725994632515626"><ele>243.42857142857142</ele><time>2026-04-27T18:11:24Z</time></trkpt><trkpt lat="29.693723354249236" lon="-9.726050747661507"><ele>243.1428571428571</ele><time>2026-04-27T18:11:25Z</time></trkpt><trkpt lat="29.69377693860926" lon="-9.72611002385617"><ele>242.85714285714283</ele><time>2026-04-27T18:11:26Z</time></trkpt><trkpt lat="29.6938367114163" lon="-9.726165297559884"><ele>242.57142857142856</ele><time>2026-04-27T18:11:27Z</time></trkpt><trkpt lat="29.69390174297835" lon="-9.72622520742553"><ele>242.28571428571428</ele><time>2026-04-27T18:11:28Z</time></trkpt><trkpt lat="29.69395698668805" lon="-9.726278021999804"><ele>242.0</ele><time>2026-04-27T18:11:29Z</time></trkpt><trkpt lat="29.69403969006321" lon="-9.726370597584816"><ele>242.0</ele><time>2026-04-27T18:11:31Z</time></trkpt><trkpt lat="29.694104573457803" lon="-9.726433407513287"><ele>242.0</ele><time>2026-04-27T18:11:33Z</time></trkpt><trkpt lat="29.694165363158753" lon="-9.72647610273448"><ele>242.0</ele><time>2026-04-27T18:11:36Z</time></trkpt><trkpt lat="29.694242503263613" lon="-9.726322887124514"><ele>242.0</ele><time>2026-04-27T18:12:24Z</time></trkpt><trkpt lat="29.69429953846398" lon="-9.726267251983343"><ele>242.0</ele><time>2026-04-27T18:12:29Z</time></trkpt><trkpt lat="29.694494710464735" lon="-9.726467718095297"><ele>242.6</ele><time>2026-04-27T18:12:34Z</time></trkpt><trkpt lat="29.69455765078113" lon="-9.726529578123037"><ele>243.2</ele><time>2026-04-27T18:12:36Z</time></trkpt><trkpt lat="29.69462143261669" lon="-9.726576078093924"><ele>243.8</ele><time>2026-04-27T18:12:39Z</time></trkpt><trkpt lat="29.694693857598104" lon="-9.726555326109844"><ele>244.4</ele><time>2026-04-27T18:12:42Z</time></trkpt><trkpt lat="29.69485949482566" lon="-9.726480817945433"><ele>245.0</ele><time>2026-04-27T18:12:48Z</time></trkpt><trkpt lat="29.69491103849282" lon="-9.726410938949238"><ele>245.0</ele><time>2026-04-27T18:12:51Z</time></trkpt><trkpt lat="29.694857529287006" lon="-9.726459034478838"><ele>245.0</ele><time>2026-04-27T18:12:58Z</time></trkpt><trkpt lat="29.694875507532313" lon="-9.72638643218604"><ele>245.0</ele><time>2026-04-27T18:36:09Z</time></trkpt></trkseg></trk></gpx>